﻿<?xml version="1.0" encoding="UTF-8"?>
<gpx version="v1.1.5" creator="iTravel Tech Inc. - http://www.itravel-tech.com" xmlns:xsi="http://www.w3.org/2001/XMLSchema-instance" xmlns="http://www.topografix.com/GPX/1/1" xsi:schemaLocation="http://www.topografix.com/GPX/1/1 http://www.topografix.com/GPX/1/1/gpx.xsd http://www.topografix.com/GPX/gpx_overlay/0/3 http://www.topografix.com/GPX/gpx_overlay/0/3/gpx_overlay.xsd http://www.topografix.com/GPX/gpx_modified/0/1 http://www.topografix.com/GPX/gpx_modified/0/1/gpx_modified.xsd">
<trk>
<name>Holux2012/05/02_07:10</name>
<trkseg>
<trkpt lat="43.158951" lon="19.292870">
<ele>848.273926</ele>
<time>2012-05-02T04:10:35Z</time>
<desc>lat.=43.158951, lon.=19.292870, Alt.=848.273926m. Speed=0.108000m/h.</desc>
<speed>0.030000</speed>
</trkpt>
<trkpt lat="43.158958" lon="19.292862">
<ele>846.242676</ele>
<time>2012-05-02T04:10:40Z</time>
<desc>lat.=43.158958, lon.=19.292862, Alt.=846.242676m. Speed=0.000000m/h.</desc>
<speed>0.000000</speed>
</trkpt>
<trkpt lat="43.158970" lon="19.292868">
<ele>845.508301</ele>
<time>2012-05-02T04:10:45Z</time>
<desc>lat.=43.158970, lon.=19.292868, Alt.=845.508301m. Speed=0.000000m/h.</desc>
<speed>0.000000</speed>
</trkpt>
<trkpt lat="43.158970" lon="19.292858">
<ele>843.367676</ele>
<time>2012-05-02T04:10:50Z</time>
<desc>lat.=43.158970, lon.=19.292858, Alt.=843.367676m. Speed=0.000000m/h.</desc>
<speed>0.000000</speed>
</trkpt>
<trkpt lat="43.158966" lon="19.292860">
<ele>843.633301</ele>
<time>2012-05-02T04:10:55Z</time>
<desc>lat.=43.158966, lon.=19.292860, Alt.=843.633301m. Speed=0.000000m/h.</desc>
<speed>0.000000</speed>
</trkpt>
<trkpt lat="43.158966" lon="19.292852">
<ele>843.023926</ele>
<time>2012-05-02T04:11:00Z</time>
<desc>lat.=43.158966, lon.=19.292852, Alt.=843.023926m. Speed=0.000000m/h.</desc>
<speed>0.000000</speed>
</trkpt>
<trkpt lat="43.158962" lon="19.292854">
<ele>843.117676</ele>
<time>2012-05-02T04:11:05Z</time>
<desc>lat.=43.158962, lon.=19.292854, Alt.=843.117676m. Speed=0.000000m/h.</desc>
<speed>0.000000</speed>
</trkpt>
<trkpt lat="43.158966" lon="19.292856">
<ele>843.289551</ele>
<time>2012-05-02T04:11:10Z</time>
<desc>lat.=43.158966, lon.=19.292856, Alt.=843.289551m. Speed=0.000000m/h.</desc>
<speed>0.000000</speed>
</trkpt>
<trkpt lat="43.158966" lon="19.292856">
<ele>843.289551</ele>
<time>2012-05-02T04:11:15Z</time>
<desc>lat.=43.158966, lon.=19.292856, Alt.=843.289551m. Speed=0.036000m/h.</desc>
<speed>0.010000</speed>
</trkpt>
<trkpt lat="43.158966" lon="19.292856">
<ele>843.273926</ele>
<time>2012-05-02T04:11:20Z</time>
<desc>lat.=43.158966, lon.=19.292856, Alt.=843.273926m. Speed=0.000000m/h.</desc>
<speed>0.000000</speed>
</trkpt>
<trkpt lat="43.158966" lon="19.292856">
<ele>843.289551</ele>
<time>2012-05-02T04:11:25Z</time>
<desc>lat.=43.158966, lon.=19.292856, Alt.=843.289551m. Speed=0.000000m/h.</desc>
<speed>0.000000</speed>
</trkpt>
<trkpt lat="43.158966" lon="19.292856">
<ele>843.289551</ele>
<time>2012-05-02T04:11:30Z</time>
<desc>lat.=43.158966, lon.=19.292856, Alt.=843.289551m. Speed=0.000000m/h.</desc>
<speed>0.000000</speed>
</trkpt>
<trkpt lat="43.158966" lon="19.292856">
<ele>843.305176</ele>
<time>2012-05-02T04:11:35Z</time>
<desc>lat.=43.158966, lon.=19.292856, Alt.=843.305176m. Speed=0.000000m/h.</desc>
<speed>0.000000</speed>
</trkpt>
<trkpt lat="43.158966" lon="19.292856">
<ele>843.320801</ele>
<time>2012-05-02T04:11:40Z</time>
<desc>lat.=43.158966, lon.=19.292856, Alt.=843.320801m. Speed=0.000000m/h.</desc>
<speed>0.000000</speed>
</trkpt>
<trkpt lat="43.158966" lon="19.292856">
<ele>843.336426</ele>
<time>2012-05-02T04:11:45Z</time>
<desc>lat.=43.158966, lon.=19.292856, Alt.=843.336426m. Speed=0.000000m/h.</desc>
<speed>0.000000</speed>
</trkpt>
<trkpt lat="43.158966" lon="19.292856">
<ele>843.336426</ele>
<time>2012-05-02T04:11:50Z</time>
<desc>lat.=43.158966, lon.=19.292856, Alt.=843.336426m. Speed=0.000000m/h.</desc>
<speed>0.000000</speed>
</trkpt>
<trkpt lat="43.158966" lon="19.292856">
<ele>843.336426</ele>
<time>2012-05-02T04:11:55Z</time>
<desc>lat.=43.158966, lon.=19.292856, Alt.=843.336426m. Speed=0.000000m/h.</desc>
<speed>0.000000</speed>
</trkpt>
<trkpt lat="43.158966" lon="19.292856">
<ele>843.352051</ele>
<time>2012-05-02T04:12:00Z</time>
<desc>lat.=43.158966, lon.=19.292856, Alt.=843.352051m. Speed=0.000000m/h.</desc>
<speed>0.000000</speed>
</trkpt>
<trkpt lat="43.158966" lon="19.292856">
<ele>843.352051</ele>
<time>2012-05-02T04:12:05Z</time>
<desc>lat.=43.158966, lon.=19.292856, Alt.=843.352051m. Speed=0.000000m/h.</desc>
<speed>0.000000</speed>
</trkpt>
<trkpt lat="43.158962" lon="19.292873">
<ele>843.289551</ele>
<time>2012-05-02T04:12:10Z</time>
<desc>lat.=43.158962, lon.=19.292873, Alt.=843.289551m. Speed=5.436000m/h.</desc>
<speed>1.510000</speed>
</trkpt>
<trkpt lat="43.158939" lon="19.293011">
<ele>844.273926</ele>
<time>2012-05-02T04:12:15Z</time>
<desc>lat.=43.158939, lon.=19.293011, Alt.=844.273926m. Speed=11.484000m/h.</desc>
<speed>3.190000</speed>
</trkpt>
<trkpt lat="43.158913" lon="19.293215">
<ele>845.508301</ele>
<time>2012-05-02T04:12:20Z</time>
<desc>lat.=43.158913, lon.=19.293215, Alt.=845.508301m. Speed=11.448000m/h.</desc>
<speed>3.180000</speed>
</trkpt>
<trkpt lat="43.158890" lon="19.293409">
<ele>847.227051</ele>
<time>2012-05-02T04:12:25Z</time>
<desc>lat.=43.158890, lon.=19.293409, Alt.=847.227051m. Speed=10.980000m/h.</desc>
<speed>3.050000</speed>
</trkpt>
<trkpt lat="43.158882" lon="19.293594">
<ele>849.602051</ele>
<time>2012-05-02T04:12:30Z</time>
<desc>lat.=43.158882, lon.=19.293594, Alt.=849.602051m. Speed=11.952000m/h.</desc>
<speed>3.320000</speed>
</trkpt>
<trkpt lat="43.158909" lon="19.293781">
<ele>850.789551</ele>
<time>2012-05-02T04:12:35Z</time>
<desc>lat.=43.158909, lon.=19.293781, Alt.=850.789551m. Speed=10.368000m/h.</desc>
<speed>2.880000</speed>
</trkpt>
<trkpt lat="43.158951" lon="19.293932">
<ele>852.398926</ele>
<time>2012-05-02T04:12:40Z</time>
<desc>lat.=43.158951, lon.=19.293932, Alt.=852.398926m. Speed=8.964000m/h.</desc>
<speed>2.490000</speed>
</trkpt>
<trkpt lat="43.158939" lon="19.294039">
<ele>852.914551</ele>
<time>2012-05-02T04:12:45Z</time>
<desc>lat.=43.158939, lon.=19.294039, Alt.=852.914551m. Speed=5.868000m/h.</desc>
<speed>1.630000</speed>
</trkpt>
<trkpt lat="43.158775" lon="19.293964">
<ele>851.086426</ele>
<time>2012-05-02T04:12:50Z</time>
<desc>lat.=43.158775, lon.=19.293964, Alt.=851.086426m. Speed=21.348000m/h.</desc>
<speed>5.930000</speed>
</trkpt>
<trkpt lat="43.158440" lon="19.293936">
<ele>849.195801</ele>
<time>2012-05-02T04:12:55Z</time>
<desc>lat.=43.158440, lon.=19.293936, Alt.=849.195801m. Speed=30.204000m/h.</desc>
<speed>8.390000</speed>
</trkpt>
<trkpt lat="43.158085" lon="19.294132">
<ele>846.492676</ele>
<time>2012-05-02T04:13:00Z</time>
<desc>lat.=43.158085, lon.=19.294132, Alt.=846.492676m. Speed=33.911999m/h.</desc>
<speed>9.420000</speed>
</trkpt>
<trkpt lat="43.157753" lon="19.294603">
<ele>842.508301</ele>
<time>2012-05-02T04:13:05Z</time>
<desc>lat.=43.157753, lon.=19.294603, Alt.=842.508301m. Speed=39.995998m/h.</desc>
<speed>11.110000</speed>
</trkpt>
<trkpt lat="43.157551" lon="19.295221">
<ele>838.773926</ele>
<time>2012-05-02T04:13:10Z</time>
<desc>lat.=43.157551, lon.=19.295221, Alt.=838.773926m. Speed=38.771999m/h.</desc>
<speed>10.770000</speed>
</trkpt>
<trkpt lat="43.157360" lon="19.295813">
<ele>833.773926</ele>
<time>2012-05-02T04:13:15Z</time>
<desc>lat.=43.157360, lon.=19.295813, Alt.=833.773926m. Speed=38.051998m/h.</desc>
<speed>10.569999</speed>
</trkpt>
<trkpt lat="43.157001" lon="19.296246">
<ele>829.523926</ele>
<time>2012-05-02T04:13:20Z</time>
<desc>lat.=43.157001, lon.=19.296246, Alt.=829.523926m. Speed=39.708000m/h.</desc>
<speed>11.030000</speed>
</trkpt>
<trkpt lat="43.156513" lon="19.296402">
<ele>825.773926</ele>
<time>2012-05-02T04:13:25Z</time>
<desc>lat.=43.156513, lon.=19.296402, Alt.=825.773926m. Speed=40.032001m/h.</desc>
<speed>11.120000</speed>
</trkpt>
<trkpt lat="43.156006" lon="19.296387">
<ele>822.195801</ele>
<time>2012-05-02T04:13:30Z</time>
<desc>lat.=43.156006, lon.=19.296387, Alt.=822.195801m. Speed=40.284000m/h.</desc>
<speed>11.190000</speed>
</trkpt>
<trkpt lat="43.155495" lon="19.296259">
<ele>817.742676</ele>
<time>2012-05-02T04:13:35Z</time>
<desc>lat.=43.155495, lon.=19.296259, Alt.=817.742676m. Speed=42.012001m/h.</desc>
<speed>11.670000</speed>
</trkpt>
<trkpt lat="43.155003" lon="19.295965">
<ele>812.414551</ele>
<time>2012-05-02T04:13:40Z</time>
<desc>lat.=43.155003, lon.=19.295965, Alt.=812.414551m. Speed=43.560001m/h.</desc>
<speed>12.100000</speed>
</trkpt>
<trkpt lat="43.154514" lon="19.295630">
<ele>807.445801</ele>
<time>2012-05-02T04:13:45Z</time>
<desc>lat.=43.154514, lon.=19.295630, Alt.=807.445801m. Speed=44.532001m/h.</desc>
<speed>12.370000</speed>
</trkpt>
<trkpt lat="43.153965" lon="19.295488">
<ele>802.836426</ele>
<time>2012-05-02T04:13:50Z</time>
<desc>lat.=43.153965, lon.=19.295488, Alt.=802.836426m. Speed=45.647999m/h.</desc>
<speed>12.680000</speed>
</trkpt>
<trkpt lat="43.153439" lon="19.295786">
<ele>798.711426</ele>
<time>2012-05-02T04:13:55Z</time>
<desc>lat.=43.153439, lon.=19.295786, Alt.=798.711426m. Speed=46.259998m/h.</desc>
<speed>12.850000</speed>
</trkpt>
<trkpt lat="43.152920" lon="19.296154">
<ele>794.320801</ele>
<time>2012-05-02T04:14:00Z</time>
<desc>lat.=43.152920, lon.=19.296154, Alt.=794.320801m. Speed=45.827999m/h.</desc>
<speed>12.730000</speed>
</trkpt>
<trkpt lat="43.152355" lon="19.296150">
<ele>789.273926</ele>
<time>2012-05-02T04:14:05Z</time>
<desc>lat.=43.152355, lon.=19.296150, Alt.=789.273926m. Speed=46.296001m/h.</desc>
<speed>12.860000</speed>
</trkpt>
<trkpt lat="43.151768" lon="19.296026">
<ele>785.383301</ele>
<time>2012-05-02T04:14:10Z</time>
<desc>lat.=43.151768, lon.=19.296026, Alt.=785.383301m. Speed=48.348000m/h.</desc>
<speed>13.430000</speed>
</trkpt>
<trkpt lat="43.151207" lon="19.295984">
<ele>780.617676</ele>
<time>2012-05-02T04:14:15Z</time>
<desc>lat.=43.151207, lon.=19.295984, Alt.=780.617676m. Speed=42.551998m/h.</desc>
<speed>11.819999</speed>
</trkpt>
<trkpt lat="43.150715" lon="19.295712">
<ele>777.398926</ele>
<time>2012-05-02T04:14:20Z</time>
<desc>lat.=43.150715, lon.=19.295712, Alt.=777.398926m. Speed=41.976002m/h.</desc>
<speed>11.660000</speed>
</trkpt>
<trkpt lat="43.150341" lon="19.295265">
<ele>776.398926</ele>
<time>2012-05-02T04:14:25Z</time>
<desc>lat.=43.150341, lon.=19.295265, Alt.=776.398926m. Speed=39.816002m/h.</desc>
<speed>11.060001</speed>
</trkpt>
<trkpt lat="43.149975" lon="19.294809">
<ele>776.289551</ele>
<time>2012-05-02T04:14:30Z</time>
<desc>lat.=43.149975, lon.=19.294809, Alt.=776.289551m. Speed=38.591999m/h.</desc>
<speed>10.720000</speed>
</trkpt>
<trkpt lat="43.149605" lon="19.294363">
<ele>776.555176</ele>
<time>2012-05-02T04:14:35Z</time>
<desc>lat.=43.149605, lon.=19.294363, Alt.=776.555176m. Speed=40.391998m/h.</desc>
<speed>11.220000</speed>
</trkpt>
<trkpt lat="43.149269" lon="19.293869">
<ele>777.117676</ele>
<time>2012-05-02T04:14:40Z</time>
<desc>lat.=43.149269, lon.=19.293869, Alt.=777.117676m. Speed=39.096001m/h.</desc>
<speed>10.860000</speed>
</trkpt>
<trkpt lat="43.148979" lon="19.293312">
<ele>777.773926</ele>
<time>2012-05-02T04:14:45Z</time>
<desc>lat.=43.148979, lon.=19.293312, Alt.=777.773926m. Speed=39.852001m/h.</desc>
<speed>11.070000</speed>
</trkpt>
<trkpt lat="43.148735" lon="19.292723">
<ele>778.477051</ele>
<time>2012-05-02T04:14:50Z</time>
<desc>lat.=43.148735, lon.=19.292723, Alt.=778.477051m. Speed=39.060001m/h.</desc>
<speed>10.850000</speed>
</trkpt>
<trkpt lat="43.148556" lon="19.292133">
<ele>780.602051</ele>
<time>2012-05-02T04:14:55Z</time>
<desc>lat.=43.148556, lon.=19.292133, Alt.=780.602051m. Speed=35.928001m/h.</desc>
<speed>9.980000</speed>
</trkpt>
<trkpt lat="43.148586" lon="19.291430">
<ele>784.977051</ele>
<time>2012-05-02T04:15:00Z</time>
<desc>lat.=43.148586, lon.=19.291430, Alt.=784.977051m. Speed=48.132000m/h.</desc>
<speed>13.370000</speed>
</trkpt>
<trkpt lat="43.148724" lon="19.290646">
<ele>788.633301</ele>
<time>2012-05-02T04:15:05Z</time>
<desc>lat.=43.148724, lon.=19.290646, Alt.=788.633301m. Speed=45.504002m/h.</desc>
<speed>12.640000</speed>
</trkpt>
<trkpt lat="43.148872" lon="19.289888">
<ele>793.055176</ele>
<time>2012-05-02T04:15:10Z</time>
<desc>lat.=43.148872, lon.=19.289888, Alt.=793.055176m. Speed=47.448002m/h.</desc>
<speed>13.180001</speed>
</trkpt>
<trkpt lat="43.149281" lon="19.289423">
<ele>795.570801</ele>
<time>2012-05-02T04:15:15Z</time>
<desc>lat.=43.149281, lon.=19.289423, Alt.=795.570801m. Speed=44.891998m/h.</desc>
<speed>12.470000</speed>
</trkpt>
<trkpt lat="43.149876" lon="19.289522">
<ele>798.133301</ele>
<time>2012-05-02T04:15:20Z</time>
<desc>lat.=43.149876, lon.=19.289522, Alt.=798.133301m. Speed=48.240002m/h.</desc>
<speed>13.400000</speed>
</trkpt>
<trkpt lat="43.150490" lon="19.289665">
<ele>801.555176</ele>
<time>2012-05-02T04:15:25Z</time>
<desc>lat.=43.150490, lon.=19.289665, Alt.=801.555176m. Speed=51.228001m/h.</desc>
<speed>14.230000</speed>
</trkpt>
<trkpt lat="43.151131" lon="19.289375">
<ele>805.586426</ele>
<time>2012-05-02T04:15:30Z</time>
<desc>lat.=43.151131, lon.=19.289375, Alt.=805.586426m. Speed=57.419998m/h.</desc>
<speed>15.949999</speed>
</trkpt>
<trkpt lat="43.151623" lon="19.288570">
<ele>810.445801</ele>
<time>2012-05-02T04:15:35Z</time>
<desc>lat.=43.151623, lon.=19.288570, Alt.=810.445801m. Speed=59.472000m/h.</desc>
<speed>16.520000</speed>
</trkpt>
<trkpt lat="43.152020" lon="19.287804">
<ele>814.273926</ele>
<time>2012-05-02T04:15:40Z</time>
<desc>lat.=43.152020, lon.=19.287804, Alt.=814.273926m. Speed=48.959999m/h.</desc>
<speed>13.600000</speed>
</trkpt>
<trkpt lat="43.151875" lon="19.286989">
<ele>818.758301</ele>
<time>2012-05-02T04:15:45Z</time>
<desc>lat.=43.151875, lon.=19.286989, Alt.=818.758301m. Speed=52.883999m/h.</desc>
<speed>14.690000</speed>
</trkpt>
<trkpt lat="43.151543" lon="19.286137">
<ele>822.898926</ele>
<time>2012-05-02T04:15:50Z</time>
<desc>lat.=43.151543, lon.=19.286137, Alt.=822.898926m. Speed=58.175999m/h.</desc>
<speed>16.160000</speed>
</trkpt>
<trkpt lat="43.151413" lon="19.285219">
<ele>827.039551</ele>
<time>2012-05-02T04:15:55Z</time>
<desc>lat.=43.151413, lon.=19.285219, Alt.=827.039551m. Speed=50.723999m/h.</desc>
<speed>14.090000</speed>
</trkpt>
<trkpt lat="43.151596" lon="19.284498">
<ele>831.742676</ele>
<time>2012-05-02T04:16:00Z</time>
<desc>lat.=43.151596, lon.=19.284498, Alt.=831.742676m. Speed=40.787998m/h.</desc>
<speed>11.329999</speed>
</trkpt>
<trkpt lat="43.151596" lon="19.283783">
<ele>833.898926</ele>
<time>2012-05-02T04:16:05Z</time>
<desc>lat.=43.151596, lon.=19.283783, Alt.=833.898926m. Speed=44.928001m/h.</desc>
<speed>12.480000</speed>
</trkpt>
<trkpt lat="43.151619" lon="19.283054">
<ele>837.023926</ele>
<time>2012-05-02T04:16:10Z</time>
<desc>lat.=43.151619, lon.=19.283054, Alt.=837.023926m. Speed=42.084000m/h.</desc>
<speed>11.690000</speed>
</trkpt>
<trkpt lat="43.151779" lon="19.282379">
<ele>840.508301</ele>
<time>2012-05-02T04:16:15Z</time>
<desc>lat.=43.151779, lon.=19.282379, Alt.=840.508301m. Speed=43.200001m/h.</desc>
<speed>12.000000</speed>
</trkpt>
<trkpt lat="43.151623" lon="19.281616">
<ele>840.930176</ele>
<time>2012-05-02T04:16:20Z</time>
<desc>lat.=43.151623, lon.=19.281616, Alt.=840.930176m. Speed=47.987999m/h.</desc>
<speed>13.330000</speed>
</trkpt>
<trkpt lat="43.151451" lon="19.280834">
<ele>842.445801</ele>
<time>2012-05-02T04:16:25Z</time>
<desc>lat.=43.151451, lon.=19.280834, Alt.=842.445801m. Speed=48.492001m/h.</desc>
<speed>13.470000</speed>
</trkpt>
<trkpt lat="43.151474" lon="19.279974">
<ele>843.617676</ele>
<time>2012-05-02T04:16:30Z</time>
<desc>lat.=43.151474, lon.=19.279974, Alt.=843.617676m. Speed=52.380001m/h.</desc>
<speed>14.550000</speed>
</trkpt>
<trkpt lat="43.151508" lon="19.279087">
<ele>844.492676</ele>
<time>2012-05-02T04:16:35Z</time>
<desc>lat.=43.151508, lon.=19.279087, Alt.=844.492676m. Speed=53.243999m/h.</desc>
<speed>14.790000</speed>
</trkpt>
<trkpt lat="43.151596" lon="19.278210">
<ele>846.680176</ele>
<time>2012-05-02T04:16:40Z</time>
<desc>lat.=43.151596, lon.=19.278210, Alt.=846.680176m. Speed=49.608002m/h.</desc>
<speed>13.780000</speed>
</trkpt>
<trkpt lat="43.151890" lon="19.277611">
<ele>847.070801</ele>
<time>2012-05-02T04:16:45Z</time>
<desc>lat.=43.151890, lon.=19.277611, Alt.=847.070801m. Speed=38.916000m/h.</desc>
<speed>10.810000</speed>
</trkpt>
<trkpt lat="43.152138" lon="19.277256">
<ele>848.383301</ele>
<time>2012-05-02T04:16:50Z</time>
<desc>lat.=43.152138, lon.=19.277256, Alt.=848.383301m. Speed=19.836000m/h.</desc>
<speed>5.510000</speed>
</trkpt>
<trkpt lat="43.151913" lon="19.277191">
<ele>849.023926</ele>
<time>2012-05-02T04:16:55Z</time>
<desc>lat.=43.151913, lon.=19.277191, Alt.=849.023926m. Speed=25.559999m/h.</desc>
<speed>7.100000</speed>
</trkpt>
<trkpt lat="43.151657" lon="19.277569">
<ele>851.570801</ele>
<time>2012-05-02T04:17:00Z</time>
<desc>lat.=43.151657, lon.=19.277569, Alt.=851.570801m. Speed=31.464001m/h.</desc>
<speed>8.740000</speed>
</trkpt>
<trkpt lat="43.151459" lon="19.278063">
<ele>855.180176</ele>
<time>2012-05-02T04:17:05Z</time>
<desc>lat.=43.151459, lon.=19.278063, Alt.=855.180176m. Speed=33.588001m/h.</desc>
<speed>9.330000</speed>
</trkpt>
<trkpt lat="43.151367" lon="19.278721">
<ele>856.633301</ele>
<time>2012-05-02T04:17:10Z</time>
<desc>lat.=43.151367, lon.=19.278721, Alt.=856.633301m. Speed=38.700001m/h.</desc>
<speed>10.750000</speed>
</trkpt>
<trkpt lat="43.151253" lon="19.279402">
<ele>858.914551</ele>
<time>2012-05-02T04:17:15Z</time>
<desc>lat.=43.151253, lon.=19.279402, Alt.=858.914551m. Speed=39.563999m/h.</desc>
<speed>10.990000</speed>
</trkpt>
<trkpt lat="43.151150" lon="19.280106">
<ele>861.852051</ele>
<time>2012-05-02T04:17:20Z</time>
<desc>lat.=43.151150, lon.=19.280106, Alt.=861.852051m. Speed=41.939999m/h.</desc>
<speed>11.650000</speed>
</trkpt>
<trkpt lat="43.151070" lon="19.280834">
<ele>864.102051</ele>
<time>2012-05-02T04:17:25Z</time>
<desc>lat.=43.151070, lon.=19.280834, Alt.=864.102051m. Speed=41.759998m/h.</desc>
<speed>11.600000</speed>
</trkpt>
<trkpt lat="43.151108" lon="19.281555">
<ele>867.039551</ele>
<time>2012-05-02T04:17:30Z</time>
<desc>lat.=43.151108, lon.=19.281555, Alt.=867.039551m. Speed=40.104000m/h.</desc>
<speed>11.140000</speed>
</trkpt>
<trkpt lat="43.151146" lon="19.282249">
<ele>868.977051</ele>
<time>2012-05-02T04:17:35Z</time>
<desc>lat.=43.151146, lon.=19.282249, Alt.=868.977051m. Speed=40.860001m/h.</desc>
<speed>11.350000</speed>
</trkpt>
<trkpt lat="43.150982" lon="19.282913">
<ele>871.680176</ele>
<time>2012-05-02T04:17:40Z</time>
<desc>lat.=43.150982, lon.=19.282913, Alt.=871.680176m. Speed=44.639999m/h.</desc>
<speed>12.400000</speed>
</trkpt>
<trkpt lat="43.150658" lon="19.283632">
<ele>876.023926</ele>
<time>2012-05-02T04:17:45Z</time>
<desc>lat.=43.150658, lon.=19.283632, Alt.=876.023926m. Speed=50.256001m/h.</desc>
<speed>13.960000</speed>
</trkpt>
<trkpt lat="43.150467" lon="19.284500">
<ele>878.555176</ele>
<time>2012-05-02T04:17:50Z</time>
<desc>lat.=43.150467, lon.=19.284500, Alt.=878.555176m. Speed=57.096001m/h.</desc>
<speed>15.860000</speed>
</trkpt>
<trkpt lat="43.150383" lon="19.285503">
<ele>885.148926</ele>
<time>2012-05-02T04:17:55Z</time>
<desc>lat.=43.150383, lon.=19.285503, Alt.=885.148926m. Speed=55.835999m/h.</desc>
<speed>15.510000</speed>
</trkpt>
<trkpt lat="43.150410" lon="19.286467">
<ele>889.617676</ele>
<time>2012-05-02T04:18:00Z</time>
<desc>lat.=43.150410, lon.=19.286467, Alt.=889.617676m. Speed=54.612000m/h.</desc>
<speed>15.170000</speed>
</trkpt>
<trkpt lat="43.150589" lon="19.287184">
<ele>892.398926</ele>
<time>2012-05-02T04:18:05Z</time>
<desc>lat.=43.150589, lon.=19.287184, Alt.=892.398926m. Speed=32.183998m/h.</desc>
<speed>8.939999</speed>
</trkpt>
<trkpt lat="43.150620" lon="19.287449">
<ele>898.195801</ele>
<time>2012-05-02T04:18:10Z</time>
<desc>lat.=43.150620, lon.=19.287449, Alt.=898.195801m. Speed=16.992001m/h.</desc>
<speed>4.720000</speed>
</trkpt>
<trkpt lat="43.150467" lon="19.287125">
<ele>900.055176</ele>
<time>2012-05-02T04:18:15Z</time>
<desc>lat.=43.150467, lon.=19.287125, Alt.=900.055176m. Speed=30.024000m/h.</desc>
<speed>8.340000</speed>
</trkpt>
<trkpt lat="43.150349" lon="19.286560">
<ele>902.820801</ele>
<time>2012-05-02T04:18:20Z</time>
<desc>lat.=43.150349, lon.=19.286560, Alt.=902.820801m. Speed=40.824001m/h.</desc>
<speed>11.340000</speed>
</trkpt>
<trkpt lat="43.150211" lon="19.285772">
<ele>907.242676</ele>
<time>2012-05-02T04:18:25Z</time>
<desc>lat.=43.150211, lon.=19.285772, Alt.=907.242676m. Speed=48.060001m/h.</desc>
<speed>13.350000</speed>
</trkpt>
<trkpt lat="43.150154" lon="19.284901">
<ele>911.805176</ele>
<time>2012-05-02T04:18:30Z</time>
<desc>lat.=43.150154, lon.=19.284901, Alt.=911.805176m. Speed=50.616001m/h.</desc>
<speed>14.060000</speed>
</trkpt>
<trkpt lat="43.150085" lon="19.284081">
<ele>916.273926</ele>
<time>2012-05-02T04:18:35Z</time>
<desc>lat.=43.150085, lon.=19.284081, Alt.=916.273926m. Speed=47.952000m/h.</desc>
<speed>13.320000</speed>
</trkpt>
<trkpt lat="43.150230" lon="19.283236">
<ele>920.680176</ele>
<time>2012-05-02T04:18:40Z</time>
<desc>lat.=43.150230, lon.=19.283236, Alt.=920.680176m. Speed=49.571999m/h.</desc>
<speed>13.770000</speed>
</trkpt>
<trkpt lat="43.150391" lon="19.282406">
<ele>925.508301</ele>
<time>2012-05-02T04:18:45Z</time>
<desc>lat.=43.150391, lon.=19.282406, Alt.=925.508301m. Speed=51.444000m/h.</desc>
<speed>14.290000</speed>
</trkpt>
<trkpt lat="43.150394" lon="19.281473">
<ele>930.242676</ele>
<time>2012-05-02T04:18:50Z</time>
<desc>lat.=43.150394, lon.=19.281473, Alt.=930.242676m. Speed=56.880001m/h.</desc>
<speed>15.800000</speed>
</trkpt>
<trkpt lat="43.150204" lon="19.280510">
<ele>935.180176</ele>
<time>2012-05-02T04:18:55Z</time>
<desc>lat.=43.150204, lon.=19.280510, Alt.=935.180176m. Speed=55.619999m/h.</desc>
<speed>15.450000</speed>
</trkpt>
<trkpt lat="43.150021" lon="19.279631">
<ele>939.523926</ele>
<time>2012-05-02T04:19:00Z</time>
<desc>lat.=43.150021, lon.=19.279631, Alt.=939.523926m. Speed=53.928001m/h.</desc>
<speed>14.980000</speed>
</trkpt>
<trkpt lat="43.150024" lon="19.278719">
<ele>944.305176</ele>
<time>2012-05-02T04:19:05Z</time>
<desc>lat.=43.150024, lon.=19.278719, Alt.=944.305176m. Speed=54.144001m/h.</desc>
<speed>15.040000</speed>
</trkpt>
<trkpt lat="43.149937" lon="19.277805">
<ele>949.008301</ele>
<time>2012-05-02T04:19:10Z</time>
<desc>lat.=43.149937, lon.=19.277805, Alt.=949.008301m. Speed=56.807999m/h.</desc>
<speed>15.780000</speed>
</trkpt>
<trkpt lat="43.150089" lon="19.276808">
<ele>954.164551</ele>
<time>2012-05-02T04:19:15Z</time>
<desc>lat.=43.150089, lon.=19.276808, Alt.=954.164551m. Speed=61.956001m/h.</desc>
<speed>17.210000</speed>
</trkpt>
<trkpt lat="43.150372" lon="19.275867">
<ele>960.055176</ele>
<time>2012-05-02T04:19:20Z</time>
<desc>lat.=43.150372, lon.=19.275867, Alt.=960.055176m. Speed=52.848000m/h.</desc>
<speed>14.680000</speed>
</trkpt>
<trkpt lat="43.150738" lon="19.275211">
<ele>964.211426</ele>
<time>2012-05-02T04:19:25Z</time>
<desc>lat.=43.150738, lon.=19.275211, Alt.=964.211426m. Speed=47.591999m/h.</desc>
<speed>13.220000</speed>
</trkpt>
<trkpt lat="43.151134" lon="19.274691">
<ele>968.508301</ele>
<time>2012-05-02T04:19:30Z</time>
<desc>lat.=43.151134, lon.=19.274691, Alt.=968.508301m. Speed=43.992001m/h.</desc>
<speed>12.220000</speed>
</trkpt>
<trkpt lat="43.151333" lon="19.273970">
<ele>972.820801</ele>
<time>2012-05-02T04:19:35Z</time>
<desc>lat.=43.151333, lon.=19.273970, Alt.=972.820801m. Speed=47.807999m/h.</desc>
<speed>13.280000</speed>
</trkpt>
<trkpt lat="43.151718" lon="19.273285">
<ele>976.914551</ele>
<time>2012-05-02T04:19:40Z</time>
<desc>lat.=43.151718, lon.=19.273285, Alt.=976.914551m. Speed=51.660000m/h.</desc>
<speed>14.350000</speed>
</trkpt>
<trkpt lat="43.152157" lon="19.272655">
<ele>981.211426</ele>
<time>2012-05-02T04:19:45Z</time>
<desc>lat.=43.152157, lon.=19.272655, Alt.=981.211426m. Speed=48.240002m/h.</desc>
<speed>13.400000</speed>
</trkpt>
<trkpt lat="43.152637" lon="19.272320">
<ele>984.711426</ele>
<time>2012-05-02T04:19:50Z</time>
<desc>lat.=43.152637, lon.=19.272320, Alt.=984.711426m. Speed=41.327999m/h.</desc>
<speed>11.480000</speed>
</trkpt>
<trkpt lat="43.153206" lon="19.272316">
<ele>988.430176</ele>
<time>2012-05-02T04:19:55Z</time>
<desc>lat.=43.153206, lon.=19.272316, Alt.=988.430176m. Speed=46.728001m/h.</desc>
<speed>12.980000</speed>
</trkpt>
<trkpt lat="43.153786" lon="19.272167">
<ele>992.148926</ele>
<time>2012-05-02T04:20:00Z</time>
<desc>lat.=43.153786, lon.=19.272167, Alt.=992.148926m. Speed=50.616001m/h.</desc>
<speed>14.060000</speed>
</trkpt>
<trkpt lat="43.154392" lon="19.271719">
<ele>996.664551</ele>
<time>2012-05-02T04:20:05Z</time>
<desc>lat.=43.154392, lon.=19.271719, Alt.=996.664551m. Speed=55.439999m/h.</desc>
<speed>15.400000</speed>
</trkpt>
<trkpt lat="43.155010" lon="19.271215">
<ele>1001.680176</ele>
<time>2012-05-02T04:20:10Z</time>
<desc>lat.=43.155010, lon.=19.271215, Alt.=1001.680176m. Speed=60.804001m/h.</desc>
<speed>16.890000</speed>
</trkpt>
<trkpt lat="43.155605" lon="19.270519">
<ele>1006.820801</ele>
<time>2012-05-02T04:20:15Z</time>
<desc>lat.=43.155605, lon.=19.270519, Alt.=1006.820801m. Speed=63.108002m/h.</desc>
<speed>17.530000</speed>
</trkpt>
<trkpt lat="43.156254" lon="19.269789">
<ele>1012.117676</ele>
<time>2012-05-02T04:20:20Z</time>
<desc>lat.=43.156254, lon.=19.269789, Alt.=1012.117676m. Speed=69.552002m/h.</desc>
<speed>19.320001</speed>
</trkpt>
<trkpt lat="43.156929" lon="19.269054">
<ele>1017.195801</ele>
<time>2012-05-02T04:20:25Z</time>
<desc>lat.=43.156929, lon.=19.269054, Alt.=1017.195801m. Speed=63.431999m/h.</desc>
<speed>17.620000</speed>
</trkpt>
<trkpt lat="43.157478" lon="19.268486">
<ele>1021.492676</ele>
<time>2012-05-02T04:20:30Z</time>
<desc>lat.=43.157478, lon.=19.268486, Alt.=1021.492676m. Speed=46.692001m/h.</desc>
<speed>12.970000</speed>
</trkpt>
<trkpt lat="43.157860" lon="19.268040">
<ele>1025.610352</ele>
<time>2012-05-02T04:20:35Z</time>
<desc>lat.=43.157860, lon.=19.268040, Alt.=1025.610352m. Speed=41.868000m/h.</desc>
<speed>11.630000</speed>
</trkpt>
<trkpt lat="43.158073" lon="19.267387">
<ele>1029.891602</ele>
<time>2012-05-02T04:20:40Z</time>
<desc>lat.=43.158073, lon.=19.267387, Alt.=1029.891602m. Speed=38.987999m/h.</desc>
<speed>10.830000</speed>
</trkpt>
<trkpt lat="43.158333" lon="19.266779">
<ele>1033.766602</ele>
<time>2012-05-02T04:20:45Z</time>
<desc>lat.=43.158333, lon.=19.266779, Alt.=1033.766602m. Speed=45.504002m/h.</desc>
<speed>12.640000</speed>
</trkpt>
<trkpt lat="43.158478" lon="19.266037">
<ele>1037.735352</ele>
<time>2012-05-02T04:20:50Z</time>
<desc>lat.=43.158478, lon.=19.266037, Alt.=1037.735352m. Speed=42.192001m/h.</desc>
<speed>11.720000</speed>
</trkpt>
<trkpt lat="43.158443" lon="19.265341">
<ele>1041.579102</ele>
<time>2012-05-02T04:20:55Z</time>
<desc>lat.=43.158443, lon.=19.265341, Alt.=1041.579102m. Speed=43.200001m/h.</desc>
<speed>12.000000</speed>
</trkpt>
<trkpt lat="43.158314" lon="19.264639">
<ele>1045.454102</ele>
<time>2012-05-02T04:21:00Z</time>
<desc>lat.=43.158314, lon.=19.264639, Alt.=1045.454102m. Speed=42.048000m/h.</desc>
<speed>11.680000</speed>
</trkpt>
<trkpt lat="43.158623" lon="19.263964">
<ele>1050.485352</ele>
<time>2012-05-02T04:21:05Z</time>
<desc>lat.=43.158623, lon.=19.263964, Alt.=1050.485352m. Speed=50.004002m/h.</desc>
<speed>13.890000</speed>
</trkpt>
<trkpt lat="43.158958" lon="19.263191">
<ele>1055.079102</ele>
<time>2012-05-02T04:21:10Z</time>
<desc>lat.=43.158958, lon.=19.263191, Alt.=1055.079102m. Speed=53.675999m/h.</desc>
<speed>14.910000</speed>
</trkpt>
<trkpt lat="43.159470" lon="19.262625">
<ele>1058.454102</ele>
<time>2012-05-02T04:21:15Z</time>
<desc>lat.=43.159470, lon.=19.262625, Alt.=1058.454102m. Speed=56.556000m/h.</desc>
<speed>15.710000</speed>
</trkpt>
<trkpt lat="43.160099" lon="19.262201">
<ele>1064.829102</ele>
<time>2012-05-02T04:21:20Z</time>
<desc>lat.=43.160099, lon.=19.262201, Alt.=1064.829102m. Speed=50.652000m/h.</desc>
<speed>14.070000</speed>
</trkpt>
<trkpt lat="43.160553" lon="19.261885">
<ele>1068.172852</ele>
<time>2012-05-02T04:21:25Z</time>
<desc>lat.=43.160553, lon.=19.261885, Alt.=1068.172852m. Speed=28.836000m/h.</desc>
<speed>8.010000</speed>
</trkpt>
<trkpt lat="43.160572" lon="19.261587">
<ele>1069.329102</ele>
<time>2012-05-02T04:21:30Z</time>
<desc>lat.=43.160572, lon.=19.261587, Alt.=1069.329102m. Speed=23.903999m/h.</desc>
<speed>6.640000</speed>
</trkpt>
<trkpt lat="43.160267" lon="19.261778">
<ele>1068.360352</ele>
<time>2012-05-02T04:21:35Z</time>
<desc>lat.=43.160267, lon.=19.261778, Alt.=1068.360352m. Speed=33.155998m/h.</desc>
<speed>9.210000</speed>
</trkpt>
<trkpt lat="43.159840" lon="19.261969">
<ele>1069.860352</ele>
<time>2012-05-02T04:21:40Z</time>
<desc>lat.=43.159840, lon.=19.261969, Alt.=1069.860352m. Speed=41.183998m/h.</desc>
<speed>11.439999</speed>
</trkpt>
<trkpt lat="43.159233" lon="19.262005">
<ele>1074.360352</ele>
<time>2012-05-02T04:21:45Z</time>
<desc>lat.=43.159233, lon.=19.262005, Alt.=1074.360352m. Speed=48.672001m/h.</desc>
<speed>13.520000</speed>
</trkpt>
<trkpt lat="43.158630" lon="19.262096">
<ele>1078.672852</ele>
<time>2012-05-02T04:21:50Z</time>
<desc>lat.=43.158630, lon.=19.262096, Alt.=1078.672852m. Speed=49.464001m/h.</desc>
<speed>13.740000</speed>
</trkpt>
<trkpt lat="43.158031" lon="19.262472">
<ele>1083.422852</ele>
<time>2012-05-02T04:21:55Z</time>
<desc>lat.=43.158031, lon.=19.262472, Alt.=1083.422852m. Speed=54.251999m/h.</desc>
<speed>15.070000</speed>
</trkpt>
<trkpt lat="43.157478" lon="19.262974">
<ele>1087.610352</ele>
<time>2012-05-02T04:22:00Z</time>
<desc>lat.=43.157478, lon.=19.262974, Alt.=1087.610352m. Speed=54.144001m/h.</desc>
<speed>15.040000</speed>
</trkpt>
<trkpt lat="43.156887" lon="19.263304">
<ele>1091.172852</ele>
<time>2012-05-02T04:22:05Z</time>
<desc>lat.=43.156887, lon.=19.263304, Alt.=1091.172852m. Speed=47.880001m/h.</desc>
<speed>13.300000</speed>
</trkpt>
<trkpt lat="43.156487" lon="19.263931">
<ele>1096.047852</ele>
<time>2012-05-02T04:22:10Z</time>
<desc>lat.=43.156487, lon.=19.263931, Alt.=1096.047852m. Speed=49.644001m/h.</desc>
<speed>13.790000</speed>
</trkpt>
<trkpt lat="43.155865" lon="19.264315">
<ele>1100.016602</ele>
<time>2012-05-02T04:22:15Z</time>
<desc>lat.=43.155865, lon.=19.264315, Alt.=1100.016602m. Speed=55.835999m/h.</desc>
<speed>15.510000</speed>
</trkpt>
<trkpt lat="43.155281" lon="19.264954">
<ele>1103.922852</ele>
<time>2012-05-02T04:22:20Z</time>
<desc>lat.=43.155281, lon.=19.264954, Alt.=1103.922852m. Speed=60.264000m/h.</desc>
<speed>16.740000</speed>
</trkpt>
<trkpt lat="43.154697" lon="19.265474">
<ele>1109.204102</ele>
<time>2012-05-02T04:22:25Z</time>
<desc>lat.=43.154697, lon.=19.265474, Alt.=1109.204102m. Speed=55.007999m/h.</desc>
<speed>15.280000</speed>
</trkpt>
<trkpt lat="43.154087" lon="19.265841">
<ele>1115.172852</ele>
<time>2012-05-02T04:22:30Z</time>
<desc>lat.=43.154087, lon.=19.265841, Alt.=1115.172852m. Speed=52.307999m/h.</desc>
<speed>14.530000</speed>
</trkpt>
<trkpt lat="43.153522" lon="19.266230">
<ele>1119.516602</ele>
<time>2012-05-02T04:22:35Z</time>
<desc>lat.=43.153522, lon.=19.266230, Alt.=1119.516602m. Speed=51.408001m/h.</desc>
<speed>14.280000</speed>
</trkpt>
<trkpt lat="43.152847" lon="19.266323">
<ele>1130.204102</ele>
<time>2012-05-02T04:22:40Z</time>
<desc>lat.=43.152847, lon.=19.266323, Alt.=1130.204102m. Speed=56.987999m/h.</desc>
<speed>15.830000</speed>
</trkpt>
<trkpt lat="43.152119" lon="19.266146">
<ele>1132.360352</ele>
<time>2012-05-02T04:22:45Z</time>
<desc>lat.=43.152119, lon.=19.266146, Alt.=1132.360352m. Speed=54.431999m/h.</desc>
<speed>15.120000</speed>
</trkpt>
<trkpt lat="43.151485" lon="19.266180">
<ele>1137.141602</ele>
<time>2012-05-02T04:22:50Z</time>
<desc>lat.=43.151485, lon.=19.266180, Alt.=1137.141602m. Speed=48.419998m/h.</desc>
<speed>13.449999</speed>
</trkpt>
<trkpt lat="43.150940" lon="19.266649">
<ele>1140.360352</ele>
<time>2012-05-02T04:22:55Z</time>
<desc>lat.=43.150940, lon.=19.266649, Alt.=1140.360352m. Speed=55.799999m/h.</desc>
<speed>15.500000</speed>
</trkpt>
<trkpt lat="43.150467" lon="19.267393">
<ele>1144.016602</ele>
<time>2012-05-02T04:23:00Z</time>
<desc>lat.=43.150467, lon.=19.267393, Alt.=1144.016602m. Speed=56.556000m/h.</desc>
<speed>15.710000</speed>
</trkpt>
<trkpt lat="43.150124" lon="19.268194">
<ele>1148.235352</ele>
<time>2012-05-02T04:23:05Z</time>
<desc>lat.=43.150124, lon.=19.268194, Alt.=1148.235352m. Speed=53.964001m/h.</desc>
<speed>14.990000</speed>
</trkpt>
<trkpt lat="43.149624" lon="19.268892">
<ele>1154.266602</ele>
<time>2012-05-02T04:23:10Z</time>
<desc>lat.=43.149624, lon.=19.268892, Alt.=1154.266602m. Speed=60.264000m/h.</desc>
<speed>16.740000</speed>
</trkpt>
<trkpt lat="43.148933" lon="19.269247">
<ele>1158.547852</ele>
<time>2012-05-02T04:23:15Z</time>
<desc>lat.=43.148933, lon.=19.269247, Alt.=1158.547852m. Speed=53.028000m/h.</desc>
<speed>14.730000</speed>
</trkpt>
<trkpt lat="43.148338" lon="19.268970">
<ele>1163.079102</ele>
<time>2012-05-02T04:23:20Z</time>
<desc>lat.=43.148338, lon.=19.268970, Alt.=1163.079102m. Speed=53.820000m/h.</desc>
<speed>14.950000</speed>
</trkpt>
<trkpt lat="43.147915" lon="19.268379">
<ele>1165.954102</ele>
<time>2012-05-02T04:23:25Z</time>
<desc>lat.=43.147915, lon.=19.268379, Alt.=1165.954102m. Speed=39.203999m/h.</desc>
<speed>10.890000</speed>
</trkpt>
<trkpt lat="43.147808" lon="19.267990">
<ele>1167.360352</ele>
<time>2012-05-02T04:23:30Z</time>
<desc>lat.=43.147808, lon.=19.267990, Alt.=1167.360352m. Speed=20.232000m/h.</desc>
<speed>5.620000</speed>
</trkpt>
<trkpt lat="43.148067" lon="19.268141">
<ele>1168.391602</ele>
<time>2012-05-02T04:23:35Z</time>
<desc>lat.=43.148067, lon.=19.268141, Alt.=1168.391602m. Speed=29.952000m/h.</desc>
<speed>8.320000</speed>
</trkpt>
<trkpt lat="43.148319" lon="19.268620">
<ele>1171.047852</ele>
<time>2012-05-02T04:23:40Z</time>
<desc>lat.=43.148319, lon.=19.268620, Alt.=1171.047852m. Speed=36.720001m/h.</desc>
<speed>10.200000</speed>
</trkpt>
<trkpt lat="43.148769" lon="19.268793">
<ele>1173.391602</ele>
<time>2012-05-02T04:23:45Z</time>
<desc>lat.=43.148769, lon.=19.268793, Alt.=1173.391602m. Speed=40.824001m/h.</desc>
<speed>11.340000</speed>
</trkpt>
<trkpt lat="43.149239" lon="19.268393">
<ele>1175.266602</ele>
<time>2012-05-02T04:23:50Z</time>
<desc>lat.=43.149239, lon.=19.268393, Alt.=1175.266602m. Speed=42.372002m/h.</desc>
<speed>11.770000</speed>
</trkpt>
<trkpt lat="43.149654" lon="19.267868">
<ele>1178.641602</ele>
<time>2012-05-02T04:23:55Z</time>
<desc>lat.=43.149654, lon.=19.267868, Alt.=1178.641602m. Speed=43.812000m/h.</desc>
<speed>12.170000</speed>
</trkpt>
<trkpt lat="43.149937" lon="19.267183">
<ele>1182.422852</ele>
<time>2012-05-02T04:24:00Z</time>
<desc>lat.=43.149937, lon.=19.267183, Alt.=1182.422852m. Speed=50.112000m/h.</desc>
<speed>13.920000</speed>
</trkpt>
<trkpt lat="43.150070" lon="19.266268">
<ele>1185.704102</ele>
<time>2012-05-02T04:24:05Z</time>
<desc>lat.=43.150070, lon.=19.266268, Alt.=1185.704102m. Speed=57.203999m/h.</desc>
<speed>15.890000</speed>
</trkpt>
<trkpt lat="43.150257" lon="19.265316">
<ele>1189.735352</ele>
<time>2012-05-02T04:24:10Z</time>
<desc>lat.=43.150257, lon.=19.265316, Alt.=1189.735352m. Speed=56.591999m/h.</desc>
<speed>15.720000</speed>
</trkpt>
<trkpt lat="43.150532" lon="19.264492">
<ele>1194.110352</ele>
<time>2012-05-02T04:24:15Z</time>
<desc>lat.=43.150532, lon.=19.264492, Alt.=1194.110352m. Speed=47.987999m/h.</desc>
<speed>13.330000</speed>
</trkpt>
<trkpt lat="43.150673" lon="19.263699">
<ele>1198.047852</ele>
<time>2012-05-02T04:24:20Z</time>
<desc>lat.=43.150673, lon.=19.263699, Alt.=1198.047852m. Speed=49.212002m/h.</desc>
<speed>13.670001</speed>
</trkpt>
<trkpt lat="43.150566" lon="19.262840">
<ele>1202.922852</ele>
<time>2012-05-02T04:24:25Z</time>
<desc>lat.=43.150566, lon.=19.262840, Alt.=1202.922852m. Speed=52.560001m/h.</desc>
<speed>14.600000</speed>
</trkpt>
<trkpt lat="43.150368" lon="19.262081">
<ele>1206.829102</ele>
<time>2012-05-02T04:24:30Z</time>
<desc>lat.=43.150368, lon.=19.262081, Alt.=1206.829102m. Speed=42.984001m/h.</desc>
<speed>11.940000</speed>
</trkpt>
<trkpt lat="43.150585" lon="19.261473">
<ele>1209.766602</ele>
<time>2012-05-02T04:24:35Z</time>
<desc>lat.=43.150585, lon.=19.261473, Alt.=1209.766602m. Speed=43.416000m/h.</desc>
<speed>12.060000</speed>
</trkpt>
<trkpt lat="43.151119" lon="19.261408">
<ele>1214.141602</ele>
<time>2012-05-02T04:24:40Z</time>
<desc>lat.=43.151119, lon.=19.261408, Alt.=1214.141602m. Speed=47.340000m/h.</desc>
<speed>13.150000</speed>
</trkpt>
<trkpt lat="43.151676" lon="19.261728">
<ele>1216.610352</ele>
<time>2012-05-02T04:24:45Z</time>
<desc>lat.=43.151676, lon.=19.261728, Alt.=1216.610352m. Speed=46.835999m/h.</desc>
<speed>13.010000</speed>
</trkpt>
<trkpt lat="43.152092" lon="19.262360">
<ele>1219.610352</ele>
<time>2012-05-02T04:24:50Z</time>
<desc>lat.=43.152092, lon.=19.262360, Alt.=1219.610352m. Speed=51.119999m/h.</desc>
<speed>14.200000</speed>
</trkpt>
<trkpt lat="43.152584" lon="19.262913">
<ele>1221.766602</ele>
<time>2012-05-02T04:24:55Z</time>
<desc>lat.=43.152584, lon.=19.262913, Alt.=1221.766602m. Speed=51.299999m/h.</desc>
<speed>14.250000</speed>
</trkpt>
<trkpt lat="43.153206" lon="19.262901">
<ele>1224.454102</ele>
<time>2012-05-02T04:25:00Z</time>
<desc>lat.=43.153206, lon.=19.262901, Alt.=1224.454102m. Speed=49.248001m/h.</desc>
<speed>13.680000</speed>
</trkpt>
<trkpt lat="43.153587" lon="19.262280">
<ele>1229.297852</ele>
<time>2012-05-02T04:25:05Z</time>
<desc>lat.=43.153587, lon.=19.262280, Alt.=1229.297852m. Speed=47.340000m/h.</desc>
<speed>13.150000</speed>
</trkpt>
<trkpt lat="43.153393" lon="19.261646">
<ele>1231.735352</ele>
<time>2012-05-02T04:25:10Z</time>
<desc>lat.=43.153393, lon.=19.261646, Alt.=1231.735352m. Speed=43.703999m/h.</desc>
<speed>12.140000</speed>
</trkpt>
<trkpt lat="43.152855" lon="19.261265">
<ele>1233.547852</ele>
<time>2012-05-02T04:25:15Z</time>
<desc>lat.=43.152855, lon.=19.261265, Alt.=1233.547852m. Speed=52.812000m/h.</desc>
<speed>14.670000</speed>
</trkpt>
<trkpt lat="43.152283" lon="19.260704">
<ele>1238.891602</ele>
<time>2012-05-02T04:25:20Z</time>
<desc>lat.=43.152283, lon.=19.260704, Alt.=1238.891602m. Speed=53.424000m/h.</desc>
<speed>14.840000</speed>
</trkpt>
<trkpt lat="43.151787" lon="19.260105">
<ele>1242.516602</ele>
<time>2012-05-02T04:25:25Z</time>
<desc>lat.=43.151787, lon.=19.260105, Alt.=1242.516602m. Speed=53.063999m/h.</desc>
<speed>14.740000</speed>
</trkpt>
<trkpt lat="43.151459" lon="19.259220">
<ele>1245.610352</ele>
<time>2012-05-02T04:25:30Z</time>
<desc>lat.=43.151459, lon.=19.259220, Alt.=1245.610352m. Speed=57.060001m/h.</desc>
<speed>15.850000</speed>
</trkpt>
<trkpt lat="43.151112" lon="19.258345">
<ele>1253.110352</ele>
<time>2012-05-02T04:25:35Z</time>
<desc>lat.=43.151112, lon.=19.258345, Alt.=1253.110352m. Speed=58.068001m/h.</desc>
<speed>16.130000</speed>
</trkpt>
<trkpt lat="43.150627" lon="19.257593">
<ele>1259.235352</ele>
<time>2012-05-02T04:25:40Z</time>
<desc>lat.=43.150627, lon.=19.257593, Alt.=1259.235352m. Speed=55.908001m/h.</desc>
<speed>15.530000</speed>
</trkpt>
<trkpt lat="43.150154" lon="19.257030">
<ele>1264.704102</ele>
<time>2012-05-02T04:25:45Z</time>
<desc>lat.=43.150154, lon.=19.257030, Alt.=1264.704102m. Speed=42.624001m/h.</desc>
<speed>11.840000</speed>
</trkpt>
<trkpt lat="43.149872" lon="19.256714">
<ele>1267.360352</ele>
<time>2012-05-02T04:25:50Z</time>
<desc>lat.=43.149872, lon.=19.256714, Alt.=1267.360352m. Speed=16.848000m/h.</desc>
<speed>4.680000</speed>
</trkpt>
<trkpt lat="43.149998" lon="19.256556">
<ele>1268.204102</ele>
<time>2012-05-02T04:25:55Z</time>
<desc>lat.=43.149998, lon.=19.256556, Alt.=1268.204102m. Speed=20.556000m/h.</desc>
<speed>5.710000</speed>
</trkpt>
<trkpt lat="43.150291" lon="19.256840">
<ele>1269.579102</ele>
<time>2012-05-02T04:26:00Z</time>
<desc>lat.=43.150291, lon.=19.256840, Alt.=1269.579102m. Speed=31.212000m/h.</desc>
<speed>8.670000</speed>
</trkpt>
<trkpt lat="43.150631" lon="19.257191">
<ele>1271.297852</ele>
<time>2012-05-02T04:26:05Z</time>
<desc>lat.=43.150631, lon.=19.257191, Alt.=1271.297852m. Speed=35.604000m/h.</desc>
<speed>9.890000</speed>
</trkpt>
<trkpt lat="43.151058" lon="19.257507">
<ele>1275.204102</ele>
<time>2012-05-02T04:26:10Z</time>
<desc>lat.=43.151058, lon.=19.257507, Alt.=1275.204102m. Speed=40.068001m/h.</desc>
<speed>11.130000</speed>
</trkpt>
<trkpt lat="43.151524" lon="19.257853">
<ele>1279.704102</ele>
<time>2012-05-02T04:26:15Z</time>
<desc>lat.=43.151524, lon.=19.257853, Alt.=1279.704102m. Speed=42.084000m/h.</desc>
<speed>11.690000</speed>
</trkpt>
<trkpt lat="43.151897" lon="19.258352">
<ele>1284.297852</ele>
<time>2012-05-02T04:26:20Z</time>
<desc>lat.=43.151897, lon.=19.258352, Alt.=1284.297852m. Speed=40.824001m/h.</desc>
<speed>11.340000</speed>
</trkpt>
<trkpt lat="43.152271" lon="19.258787">
<ele>1289.672852</ele>
<time>2012-05-02T04:26:25Z</time>
<desc>lat.=43.152271, lon.=19.258787, Alt.=1289.672852m. Speed=41.147999m/h.</desc>
<speed>11.430000</speed>
</trkpt>
<trkpt lat="43.152710" lon="19.258955">
<ele>1293.516602</ele>
<time>2012-05-02T04:26:30Z</time>
<desc>lat.=43.152710, lon.=19.258955, Alt.=1293.516602m. Speed=28.296000m/h.</desc>
<speed>7.860000</speed>
</trkpt>
<trkpt lat="43.152859" lon="19.258665">
<ele>1295.672852</ele>
<time>2012-05-02T04:26:35Z</time>
<desc>lat.=43.152859, lon.=19.258665, Alt.=1295.672852m. Speed=23.976000m/h.</desc>
<speed>6.660000</speed>
</trkpt>
<trkpt lat="43.152573" lon="19.258396">
<ele>1299.204102</ele>
<time>2012-05-02T04:26:40Z</time>
<desc>lat.=43.152573, lon.=19.258396, Alt.=1299.204102m. Speed=34.344002m/h.</desc>
<speed>9.540000</speed>
</trkpt>
<trkpt lat="43.152222" lon="19.257963">
<ele>1304.454102</ele>
<time>2012-05-02T04:26:45Z</time>
<desc>lat.=43.152222, lon.=19.257963, Alt.=1304.454102m. Speed=41.076000m/h.</desc>
<speed>11.410000</speed>
</trkpt>
<trkpt lat="43.152012" lon="19.257240">
<ele>1309.704102</ele>
<time>2012-05-02T04:26:50Z</time>
<desc>lat.=43.152012, lon.=19.257240, Alt.=1309.704102m. Speed=45.936001m/h.</desc>
<speed>12.760000</speed>
</trkpt>
<trkpt lat="43.151634" lon="19.256618">
<ele>1314.829102</ele>
<time>2012-05-02T04:26:55Z</time>
<desc>lat.=43.151634, lon.=19.256618, Alt.=1314.829102m. Speed=48.888000m/h.</desc>
<speed>13.580000</speed>
</trkpt>
<trkpt lat="43.151115" lon="19.256218">
<ele>1319.610352</ele>
<time>2012-05-02T04:27:00Z</time>
<desc>lat.=43.151115, lon.=19.256218, Alt.=1319.610352m. Speed=44.424000m/h.</desc>
<speed>12.340000</speed>
</trkpt>
<trkpt lat="43.150803" lon="19.255589">
<ele>1324.204102</ele>
<time>2012-05-02T04:27:05Z</time>
<desc>lat.=43.150803, lon.=19.255589, Alt.=1324.204102m. Speed=45.863998m/h.</desc>
<speed>12.740000</speed>
</trkpt>
<trkpt lat="43.150822" lon="19.254778">
<ele>1329.516602</ele>
<time>2012-05-02T04:27:10Z</time>
<desc>lat.=43.150822, lon.=19.254778, Alt.=1329.516602m. Speed=48.636002m/h.</desc>
<speed>13.510000</speed>
</trkpt>
<trkpt lat="43.150742" lon="19.254009">
<ele>1333.954102</ele>
<time>2012-05-02T04:27:15Z</time>
<desc>lat.=43.150742, lon.=19.254009, Alt.=1333.954102m. Speed=45.576000m/h.</desc>
<speed>12.660000</speed>
</trkpt>
<trkpt lat="43.150341" lon="19.253384">
<ele>1339.735352</ele>
<time>2012-05-02T04:27:20Z</time>
<desc>lat.=43.150341, lon.=19.253384, Alt.=1339.735352m. Speed=47.627998m/h.</desc>
<speed>13.230000</speed>
</trkpt>
<trkpt lat="43.150105" lon="19.252657">
<ele>1343.922852</ele>
<time>2012-05-02T04:27:25Z</time>
<desc>lat.=43.150105, lon.=19.252657, Alt.=1343.922852m. Speed=47.160000m/h.</desc>
<speed>13.100000</speed>
</trkpt>
<trkpt lat="43.150185" lon="19.251961">
<ele>1346.110352</ele>
<time>2012-05-02T04:27:30Z</time>
<desc>lat.=43.150185, lon.=19.251961, Alt.=1346.110352m. Speed=36.287998m/h.</desc>
<speed>10.079999</speed>
</trkpt>
<trkpt lat="43.150311" lon="19.251308">
<ele>1344.985352</ele>
<time>2012-05-02T04:27:35Z</time>
<desc>lat.=43.150311, lon.=19.251308, Alt.=1344.985352m. Speed=41.759998m/h.</desc>
<speed>11.600000</speed>
</trkpt>
<trkpt lat="43.150299" lon="19.250553">
<ele>1343.829102</ele>
<time>2012-05-02T04:27:40Z</time>
<desc>lat.=43.150299, lon.=19.250553, Alt.=1343.829102m. Speed=47.231998m/h.</desc>
<speed>13.120000</speed>
</trkpt>
<trkpt lat="43.150036" lon="19.249813">
<ele>1343.922852</ele>
<time>2012-05-02T04:27:45Z</time>
<desc>lat.=43.150036, lon.=19.249813, Alt.=1343.922852m. Speed=48.672001m/h.</desc>
<speed>13.520000</speed>
</trkpt>
<trkpt lat="43.149574" lon="19.249306">
<ele>1342.641602</ele>
<time>2012-05-02T04:27:50Z</time>
<desc>lat.=43.149574, lon.=19.249306, Alt.=1342.641602m. Speed=45.540001m/h.</desc>
<speed>12.650000</speed>
</trkpt>
<trkpt lat="43.149117" lon="19.249014">
<ele>1342.641602</ele>
<time>2012-05-02T04:27:55Z</time>
<desc>lat.=43.149117, lon.=19.249014, Alt.=1342.641602m. Speed=40.212002m/h.</desc>
<speed>11.170001</speed>
</trkpt>
<trkpt lat="43.148682" lon="19.248718">
<ele>1341.047852</ele>
<time>2012-05-02T04:28:00Z</time>
<desc>lat.=43.148682, lon.=19.248718, Alt.=1341.047852m. Speed=38.664001m/h.</desc>
<speed>10.740000</speed>
</trkpt>
<trkpt lat="43.148266" lon="19.248323">
<ele>1340.485352</ele>
<time>2012-05-02T04:28:05Z</time>
<desc>lat.=43.148266, lon.=19.248323, Alt.=1340.485352m. Speed=40.175999m/h.</desc>
<speed>11.160000</speed>
</trkpt>
<trkpt lat="43.147907" lon="19.247774">
<ele>1340.485352</ele>
<time>2012-05-02T04:28:10Z</time>
<desc>lat.=43.147907, lon.=19.247774, Alt.=1340.485352m. Speed=45.000000m/h.</desc>
<speed>12.500000</speed>
</trkpt>
<trkpt lat="43.147640" lon="19.247028">
<ele>1339.485352</ele>
<time>2012-05-02T04:28:15Z</time>
<desc>lat.=43.147640, lon.=19.247028, Alt.=1339.485352m. Speed=53.820000m/h.</desc>
<speed>14.950000</speed>
</trkpt>
<trkpt lat="43.147564" lon="19.246124">
<ele>1339.141602</ele>
<time>2012-05-02T04:28:20Z</time>
<desc>lat.=43.147564, lon.=19.246124, Alt.=1339.141602m. Speed=52.848000m/h.</desc>
<speed>14.680000</speed>
</trkpt>
<trkpt lat="43.147705" lon="19.245218">
<ele>1338.579102</ele>
<time>2012-05-02T04:28:25Z</time>
<desc>lat.=43.147705, lon.=19.245218, Alt.=1338.579102m. Speed=55.259998m/h.</desc>
<speed>15.350000</speed>
</trkpt>
<trkpt lat="43.148022" lon="19.244392">
<ele>1339.016602</ele>
<time>2012-05-02T04:28:30Z</time>
<desc>lat.=43.148022, lon.=19.244392, Alt.=1339.016602m. Speed=51.948002m/h.</desc>
<speed>14.430001</speed>
</trkpt>
<trkpt lat="43.148273" lon="19.243614">
<ele>1339.860352</ele>
<time>2012-05-02T04:28:35Z</time>
<desc>lat.=43.148273, lon.=19.243614, Alt.=1339.860352m. Speed=48.924000m/h.</desc>
<speed>13.590000</speed>
</trkpt>
<trkpt lat="43.148308" lon="19.242764">
<ele>1340.547852</ele>
<time>2012-05-02T04:28:40Z</time>
<desc>lat.=43.148308, lon.=19.242764, Alt.=1340.547852m. Speed=52.056000m/h.</desc>
<speed>14.460000</speed>
</trkpt>
<trkpt lat="43.148300" lon="19.241886">
<ele>1341.204102</ele>
<time>2012-05-02T04:28:45Z</time>
<desc>lat.=43.148300, lon.=19.241886, Alt.=1341.204102m. Speed=51.299999m/h.</desc>
<speed>14.250000</speed>
</trkpt>
<trkpt lat="43.148254" lon="19.241016">
<ele>1342.579102</ele>
<time>2012-05-02T04:28:50Z</time>
<desc>lat.=43.148254, lon.=19.241016, Alt.=1342.579102m. Speed=51.084000m/h.</desc>
<speed>14.190000</speed>
</trkpt>
<trkpt lat="43.148037" lon="19.240232">
<ele>1342.766602</ele>
<time>2012-05-02T04:28:55Z</time>
<desc>lat.=43.148037, lon.=19.240232, Alt.=1342.766602m. Speed=49.680000m/h.</desc>
<speed>13.800000</speed>
</trkpt>
<trkpt lat="43.147930" lon="19.239372">
<ele>1341.360352</ele>
<time>2012-05-02T04:29:00Z</time>
<desc>lat.=43.147930, lon.=19.239372, Alt.=1341.360352m. Speed=54.071999m/h.</desc>
<speed>15.020000</speed>
</trkpt>
<trkpt lat="43.148121" lon="19.238451">
<ele>1338.860352</ele>
<time>2012-05-02T04:29:05Z</time>
<desc>lat.=43.148121, lon.=19.238451, Alt.=1338.860352m. Speed=55.944000m/h.</desc>
<speed>15.540000</speed>
</trkpt>
<trkpt lat="43.148338" lon="19.237564">
<ele>1336.829102</ele>
<time>2012-05-02T04:29:10Z</time>
<desc>lat.=43.148338, lon.=19.237564, Alt.=1336.829102m. Speed=53.099998m/h.</desc>
<speed>14.750000</speed>
</trkpt>
<trkpt lat="43.148380" lon="19.236666">
<ele>1336.141602</ele>
<time>2012-05-02T04:29:15Z</time>
<desc>lat.=43.148380, lon.=19.236666, Alt.=1336.141602m. Speed=53.568001m/h.</desc>
<speed>14.880000</speed>
</trkpt>
<trkpt lat="43.148090" lon="19.235846">
<ele>1333.704102</ele>
<time>2012-05-02T04:29:20Z</time>
<desc>lat.=43.148090, lon.=19.235846, Alt.=1333.704102m. Speed=54.647999m/h.</desc>
<speed>15.180000</speed>
</trkpt>
<trkpt lat="43.147537" lon="19.235275">
<ele>1330.360352</ele>
<time>2012-05-02T04:29:25Z</time>
<desc>lat.=43.147537, lon.=19.235275, Alt.=1330.360352m. Speed=57.888000m/h.</desc>
<speed>16.080000</speed>
</trkpt>
<trkpt lat="43.146832" lon="19.234911">
<ele>1325.297852</ele>
<time>2012-05-02T04:29:30Z</time>
<desc>lat.=43.146832, lon.=19.234911, Alt.=1325.297852m. Speed=62.243999m/h.</desc>
<speed>17.290000</speed>
</trkpt>
<trkpt lat="43.146080" lon="19.234520">
<ele>1320.204102</ele>
<time>2012-05-02T04:29:35Z</time>
<desc>lat.=43.146080, lon.=19.234520, Alt.=1320.204102m. Speed=64.512001m/h.</desc>
<speed>17.920000</speed>
</trkpt>
<trkpt lat="43.145367" lon="19.234137">
<ele>1315.360352</ele>
<time>2012-05-02T04:29:40Z</time>
<desc>lat.=43.145367, lon.=19.234137, Alt.=1315.360352m. Speed=57.312000m/h.</desc>
<speed>15.920000</speed>
</trkpt>
<trkpt lat="43.144783" lon="19.233561">
<ele>1311.172852</ele>
<time>2012-05-02T04:29:45Z</time>
<desc>lat.=43.144783, lon.=19.233561, Alt.=1311.172852m. Speed=58.355999m/h.</desc>
<speed>16.210000</speed>
</trkpt>
<trkpt lat="43.144367" lon="19.232637">
<ele>1307.329102</ele>
<time>2012-05-02T04:29:50Z</time>
<desc>lat.=43.144367, lon.=19.232637, Alt.=1307.329102m. Speed=69.120003m/h.</desc>
<speed>19.200001</speed>
</trkpt>
<trkpt lat="43.144073" lon="19.231522">
<ele>1305.016602</ele>
<time>2012-05-02T04:29:55Z</time>
<desc>lat.=43.144073, lon.=19.231522, Alt.=1305.016602m. Speed=69.192001m/h.</desc>
<speed>19.220000</speed>
</trkpt>
<trkpt lat="43.143810" lon="19.230450">
<ele>1303.610352</ele>
<time>2012-05-02T04:30:00Z</time>
<desc>lat.=43.143810, lon.=19.230450, Alt.=1303.610352m. Speed=59.796001m/h.</desc>
<speed>16.610000</speed>
</trkpt>
<trkpt lat="43.143585" lon="19.229563">
<ele>1302.391602</ele>
<time>2012-05-02T04:30:05Z</time>
<desc>lat.=43.143585, lon.=19.229563, Alt.=1302.391602m. Speed=52.667999m/h.</desc>
<speed>14.630000</speed>
</trkpt>
<trkpt lat="43.143375" lon="19.228743">
<ele>1301.672852</ele>
<time>2012-05-02T04:30:10Z</time>
<desc>lat.=43.143375, lon.=19.228743, Alt.=1301.672852m. Speed=48.528000m/h.</desc>
<speed>13.480000</speed>
</trkpt>
<trkpt lat="43.143227" lon="19.227955">
<ele>1301.360352</ele>
<time>2012-05-02T04:30:15Z</time>
<desc>lat.=43.143227, lon.=19.227955, Alt.=1301.360352m. Speed=47.195999m/h.</desc>
<speed>13.110000</speed>
</trkpt>
<trkpt lat="43.143211" lon="19.227095">
<ele>1301.454102</ele>
<time>2012-05-02T04:30:20Z</time>
<desc>lat.=43.143211, lon.=19.227095, Alt.=1301.454102m. Speed=54.504002m/h.</desc>
<speed>15.140000</speed>
</trkpt>
<trkpt lat="43.143406" lon="19.226183">
<ele>1302.047852</ele>
<time>2012-05-02T04:30:25Z</time>
<desc>lat.=43.143406, lon.=19.226183, Alt.=1302.047852m. Speed=53.855999m/h.</desc>
<speed>14.960000</speed>
</trkpt>
<trkpt lat="43.143791" lon="19.225426">
<ele>1302.922852</ele>
<time>2012-05-02T04:30:30Z</time>
<desc>lat.=43.143791, lon.=19.225426, Alt.=1302.922852m. Speed=55.332001m/h.</desc>
<speed>15.370000</speed>
</trkpt>
<trkpt lat="43.144348" lon="19.224739">
<ele>1304.172852</ele>
<time>2012-05-02T04:30:35Z</time>
<desc>lat.=43.144348, lon.=19.224739, Alt.=1304.172852m. Speed=63.540001m/h.</desc>
<speed>17.650000</speed>
</trkpt>
<trkpt lat="43.144947" lon="19.224047">
<ele>1307.016602</ele>
<time>2012-05-02T04:30:40Z</time>
<desc>lat.=43.144947, lon.=19.224047, Alt.=1307.016602m. Speed=60.444000m/h.</desc>
<speed>16.790000</speed>
</trkpt>
<trkpt lat="43.145565" lon="19.223419">
<ele>1308.204102</ele>
<time>2012-05-02T04:30:45Z</time>
<desc>lat.=43.145565, lon.=19.223419, Alt.=1308.204102m. Speed=62.424000m/h.</desc>
<speed>17.340000</speed>
</trkpt>
<trkpt lat="43.146252" lon="19.222904">
<ele>1305.829102</ele>
<time>2012-05-02T04:30:50Z</time>
<desc>lat.=43.146252, lon.=19.222904, Alt.=1305.829102m. Speed=62.604000m/h.</desc>
<speed>17.390000</speed>
</trkpt>
<trkpt lat="43.146854" lon="19.222246">
<ele>1303.860352</ele>
<time>2012-05-02T04:30:55Z</time>
<desc>lat.=43.146854, lon.=19.222246, Alt.=1303.860352m. Speed=59.723999m/h.</desc>
<speed>16.590000</speed>
</trkpt>
<trkpt lat="43.147194" lon="19.221369">
<ele>1302.860352</ele>
<time>2012-05-02T04:31:00Z</time>
<desc>lat.=43.147194, lon.=19.221369, Alt.=1302.860352m. Speed=55.908001m/h.</desc>
<speed>15.530000</speed>
</trkpt>
<trkpt lat="43.147556" lon="19.220589">
<ele>1301.610352</ele>
<time>2012-05-02T04:31:05Z</time>
<desc>lat.=43.147556, lon.=19.220589, Alt.=1301.610352m. Speed=53.820000m/h.</desc>
<speed>14.950000</speed>
</trkpt>
<trkpt lat="43.148125" lon="19.220072">
<ele>1300.610352</ele>
<time>2012-05-02T04:31:10Z</time>
<desc>lat.=43.148125, lon.=19.220072, Alt.=1300.610352m. Speed=56.304001m/h.</desc>
<speed>15.640000</speed>
</trkpt>
<trkpt lat="43.148800" lon="19.219683">
<ele>1299.485352</ele>
<time>2012-05-02T04:31:15Z</time>
<desc>lat.=43.148800, lon.=19.219683, Alt.=1299.485352m. Speed=59.004002m/h.</desc>
<speed>16.390000</speed>
</trkpt>
<trkpt lat="43.149406" lon="19.219086">
<ele>1298.610352</ele>
<time>2012-05-02T04:31:20Z</time>
<desc>lat.=43.149406, lon.=19.219086, Alt.=1298.610352m. Speed=60.911999m/h.</desc>
<speed>16.920000</speed>
</trkpt>
<trkpt lat="43.149883" lon="19.218246">
<ele>1299.297852</ele>
<time>2012-05-02T04:31:25Z</time>
<desc>lat.=43.149883, lon.=19.218246, Alt.=1299.297852m. Speed=61.416000m/h.</desc>
<speed>17.060000</speed>
</trkpt>
<trkpt lat="43.150326" lon="19.217428">
<ele>1301.079102</ele>
<time>2012-05-02T04:31:30Z</time>
<desc>lat.=43.150326, lon.=19.217428, Alt.=1301.079102m. Speed=58.967999m/h.</desc>
<speed>16.380000</speed>
</trkpt>
<trkpt lat="43.150867" lon="19.216747">
<ele>1302.797852</ele>
<time>2012-05-02T04:31:35Z</time>
<desc>lat.=43.150867, lon.=19.216747, Alt.=1302.797852m. Speed=60.731998m/h.</desc>
<speed>16.870000</speed>
</trkpt>
<trkpt lat="43.151562" lon="19.216280">
<ele>1304.610352</ele>
<time>2012-05-02T04:31:40Z</time>
<desc>lat.=43.151562, lon.=19.216280, Alt.=1304.610352m. Speed=61.056000m/h.</desc>
<speed>16.960000</speed>
</trkpt>
<trkpt lat="43.152233" lon="19.215841">
<ele>1306.079102</ele>
<time>2012-05-02T04:31:45Z</time>
<desc>lat.=43.152233, lon.=19.215841, Alt.=1306.079102m. Speed=57.456001m/h.</desc>
<speed>15.960000</speed>
</trkpt>
<trkpt lat="43.152813" lon="19.215334">
<ele>1307.891602</ele>
<time>2012-05-02T04:31:50Z</time>
<desc>lat.=43.152813, lon.=19.215334, Alt.=1307.891602m. Speed=54.431999m/h.</desc>
<speed>15.120000</speed>
</trkpt>
<trkpt lat="43.153275" lon="19.214600">
<ele>1310.360352</ele>
<time>2012-05-02T04:31:55Z</time>
<desc>lat.=43.153275, lon.=19.214600, Alt.=1310.360352m. Speed=57.096001m/h.</desc>
<speed>15.860000</speed>
</trkpt>
<trkpt lat="43.153667" lon="19.213825">
<ele>1313.422852</ele>
<time>2012-05-02T04:32:00Z</time>
<desc>lat.=43.153667, lon.=19.213825, Alt.=1313.422852m. Speed=53.820000m/h.</desc>
<speed>14.950000</speed>
</trkpt>
<trkpt lat="43.154072" lon="19.213184">
<ele>1314.329102</ele>
<time>2012-05-02T04:32:05Z</time>
<desc>lat.=43.154072, lon.=19.213184, Alt.=1314.329102m. Speed=46.512001m/h.</desc>
<speed>12.920000</speed>
</trkpt>
<trkpt lat="43.154606" lon="19.212894">
<ele>1312.829102</ele>
<time>2012-05-02T04:32:10Z</time>
<desc>lat.=43.154606, lon.=19.212894, Alt.=1312.829102m. Speed=47.952000m/h.</desc>
<speed>13.320000</speed>
</trkpt>
<trkpt lat="43.155239" lon="19.212753">
<ele>1309.079102</ele>
<time>2012-05-02T04:32:15Z</time>
<desc>lat.=43.155239, lon.=19.212753, Alt.=1309.079102m. Speed=53.928001m/h.</desc>
<speed>14.980000</speed>
</trkpt>
<trkpt lat="43.155903" lon="19.212429">
<ele>1303.797852</ele>
<time>2012-05-02T04:32:20Z</time>
<desc>lat.=43.155903, lon.=19.212429, Alt.=1303.797852m. Speed=58.716000m/h.</desc>
<speed>16.310000</speed>
</trkpt>
<trkpt lat="43.156590" lon="19.211960">
<ele>1298.704102</ele>
<time>2012-05-02T04:32:25Z</time>
<desc>lat.=43.156590, lon.=19.211960, Alt.=1298.704102m. Speed=63.216000m/h.</desc>
<speed>17.560000</speed>
</trkpt>
<trkpt lat="43.157364" lon="19.211765">
<ele>1293.235352</ele>
<time>2012-05-02T04:32:30Z</time>
<desc>lat.=43.157364, lon.=19.211765, Alt.=1293.235352m. Speed=57.779999m/h.</desc>
<speed>16.050000</speed>
</trkpt>
<trkpt lat="43.157944" lon="19.211309">
<ele>1290.766602</ele>
<time>2012-05-02T04:32:35Z</time>
<desc>lat.=43.157944, lon.=19.211309, Alt.=1290.766602m. Speed=54.576000m/h.</desc>
<speed>15.160000</speed>
</trkpt>
<trkpt lat="43.158409" lon="19.210602">
<ele>1290.204102</ele>
<time>2012-05-02T04:32:40Z</time>
<desc>lat.=43.158409, lon.=19.210602, Alt.=1290.204102m. Speed=55.188000m/h.</desc>
<speed>15.330000</speed>
</trkpt>
<trkpt lat="43.158859" lon="19.209915">
<ele>1291.110352</ele>
<time>2012-05-02T04:32:45Z</time>
<desc>lat.=43.158859, lon.=19.209915, Alt.=1291.110352m. Speed=52.056000m/h.</desc>
<speed>14.460000</speed>
</trkpt>
<trkpt lat="43.159172" lon="19.209099">
<ele>1291.860352</ele>
<time>2012-05-02T04:32:50Z</time>
<desc>lat.=43.159172, lon.=19.209099, Alt.=1291.860352m. Speed=56.088001m/h.</desc>
<speed>15.580000</speed>
</trkpt>
<trkpt lat="43.159344" lon="19.208141">
<ele>1292.141602</ele>
<time>2012-05-02T04:32:55Z</time>
<desc>lat.=43.159344, lon.=19.208141, Alt.=1292.141602m. Speed=56.700001m/h.</desc>
<speed>15.750000</speed>
</trkpt>
<trkpt lat="43.159676" lon="19.207253">
<ele>1292.641602</ele>
<time>2012-05-02T04:33:00Z</time>
<desc>lat.=43.159676, lon.=19.207253, Alt.=1292.641602m. Speed=60.911999m/h.</desc>
<speed>16.920000</speed>
</trkpt>
<trkpt lat="43.160095" lon="19.206429">
<ele>1292.579102</ele>
<time>2012-05-02T04:33:05Z</time>
<desc>lat.=43.160095, lon.=19.206429, Alt.=1292.579102m. Speed=56.952000m/h.</desc>
<speed>15.820000</speed>
</trkpt>
<trkpt lat="43.160427" lon="19.205568">
<ele>1292.454102</ele>
<time>2012-05-02T04:33:10Z</time>
<desc>lat.=43.160427, lon.=19.205568, Alt.=1292.454102m. Speed=58.032001m/h.</desc>
<speed>16.120000</speed>
</trkpt>
<trkpt lat="43.160725" lon="19.204657">
<ele>1292.172852</ele>
<time>2012-05-02T04:33:15Z</time>
<desc>lat.=43.160725, lon.=19.204657, Alt.=1292.172852m. Speed=60.372002m/h.</desc>
<speed>16.770000</speed>
</trkpt>
<trkpt lat="43.161087" lon="19.203735">
<ele>1292.204102</ele>
<time>2012-05-02T04:33:20Z</time>
<desc>lat.=43.161087, lon.=19.203735, Alt.=1292.204102m. Speed=61.812000m/h.</desc>
<speed>17.170000</speed>
</trkpt>
<trkpt lat="43.161476" lon="19.202862">
<ele>1292.235352</ele>
<time>2012-05-02T04:33:25Z</time>
<desc>lat.=43.161476, lon.=19.202862, Alt.=1292.235352m. Speed=59.327999m/h.</desc>
<speed>16.480000</speed>
</trkpt>
<trkpt lat="43.161766" lon="19.201900">
<ele>1292.266602</ele>
<time>2012-05-02T04:33:30Z</time>
<desc>lat.=43.161766, lon.=19.201900, Alt.=1292.266602m. Speed=60.228001m/h.</desc>
<speed>16.730000</speed>
</trkpt>
<trkpt lat="43.162025" lon="19.200928">
<ele>1291.891602</ele>
<time>2012-05-02T04:33:35Z</time>
<desc>lat.=43.162025, lon.=19.200928, Alt.=1291.891602m. Speed=60.948002m/h.</desc>
<speed>16.930001</speed>
</trkpt>
<trkpt lat="43.162277" lon="19.199947">
<ele>1292.797852</ele>
<time>2012-05-02T04:33:40Z</time>
<desc>lat.=43.162277, lon.=19.199947, Alt.=1292.797852m. Speed=60.264000m/h.</desc>
<speed>16.740000</speed>
</trkpt>
<trkpt lat="43.162514" lon="19.198965">
<ele>1294.204102</ele>
<time>2012-05-02T04:33:45Z</time>
<desc>lat.=43.162514, lon.=19.198965, Alt.=1294.204102m. Speed=61.416000m/h.</desc>
<speed>17.060000</speed>
</trkpt>
<trkpt lat="43.162701" lon="19.197947">
<ele>1295.360352</ele>
<time>2012-05-02T04:33:50Z</time>
<desc>lat.=43.162701, lon.=19.197947, Alt.=1295.360352m. Speed=60.228001m/h.</desc>
<speed>16.730000</speed>
</trkpt>
<trkpt lat="43.162861" lon="19.196932">
<ele>1295.172852</ele>
<time>2012-05-02T04:33:55Z</time>
<desc>lat.=43.162861, lon.=19.196932, Alt.=1295.172852m. Speed=63.180000m/h.</desc>
<speed>17.550000</speed>
</trkpt>
<trkpt lat="43.163029" lon="19.195820">
<ele>1294.891602</ele>
<time>2012-05-02T04:34:00Z</time>
<desc>lat.=43.163029, lon.=19.195820, Alt.=1294.891602m. Speed=69.875999m/h.</desc>
<speed>19.410000</speed>
</trkpt>
<trkpt lat="43.163216" lon="19.194618">
<ele>1295.797852</ele>
<time>2012-05-02T04:34:05Z</time>
<desc>lat.=43.163216, lon.=19.194618, Alt.=1295.797852m. Speed=73.260002m/h.</desc>
<speed>20.350001</speed>
</trkpt>
<trkpt lat="43.163410" lon="19.193398">
<ele>1298.766602</ele>
<time>2012-05-02T04:34:10Z</time>
<desc>lat.=43.163410, lon.=19.193398, Alt.=1298.766602m. Speed=71.676003m/h.</desc>
<speed>19.910001</speed>
</trkpt>
<trkpt lat="43.163589" lon="19.192242">
<ele>1301.766602</ele>
<time>2012-05-02T04:34:15Z</time>
<desc>lat.=43.163589, lon.=19.192242, Alt.=1301.766602m. Speed=67.068001m/h.</desc>
<speed>18.630000</speed>
</trkpt>
<trkpt lat="43.163754" lon="19.191181">
<ele>1306.235352</ele>
<time>2012-05-02T04:34:20Z</time>
<desc>lat.=43.163754, lon.=19.191181, Alt.=1306.235352m. Speed=58.608002m/h.</desc>
<speed>16.280000</speed>
</trkpt>
<trkpt lat="43.164005" lon="19.190277">
<ele>1309.485352</ele>
<time>2012-05-02T04:34:25Z</time>
<desc>lat.=43.164005, lon.=19.190277, Alt.=1309.485352m. Speed=56.952000m/h.</desc>
<speed>15.820000</speed>
</trkpt>
<trkpt lat="43.164185" lon="19.189358">
<ele>1314.047852</ele>
<time>2012-05-02T04:34:30Z</time>
<desc>lat.=43.164185, lon.=19.189358, Alt.=1314.047852m. Speed=55.944000m/h.</desc>
<speed>15.540000</speed>
</trkpt>
<trkpt lat="43.164165" lon="19.188465">
<ele>1316.266602</ele>
<time>2012-05-02T04:34:35Z</time>
<desc>lat.=43.164165, lon.=19.188465, Alt.=1316.266602m. Speed=48.779999m/h.</desc>
<speed>13.550000</speed>
</trkpt>
<trkpt lat="43.164318" lon="19.187656">
<ele>1315.766602</ele>
<time>2012-05-02T04:34:40Z</time>
<desc>lat.=43.164318, lon.=19.187656, Alt.=1315.766602m. Speed=51.731998m/h.</desc>
<speed>14.370000</speed>
</trkpt>
<trkpt lat="43.164642" lon="19.186844">
<ele>1314.891602</ele>
<time>2012-05-02T04:34:45Z</time>
<desc>lat.=43.164642, lon.=19.186844, Alt.=1314.891602m. Speed=56.771999m/h.</desc>
<speed>15.770000</speed>
</trkpt>
<trkpt lat="43.164822" lon="19.185892">
<ele>1315.079102</ele>
<time>2012-05-02T04:34:50Z</time>
<desc>lat.=43.164822, lon.=19.185892, Alt.=1315.079102m. Speed=58.680000m/h.</desc>
<speed>16.300000</speed>
</trkpt>
<trkpt lat="43.164970" lon="19.184942">
<ele>1314.485352</ele>
<time>2012-05-02T04:34:55Z</time>
<desc>lat.=43.164970, lon.=19.184942, Alt.=1314.485352m. Speed=54.720001m/h.</desc>
<speed>15.200000</speed>
</trkpt>
<trkpt lat="43.165157" lon="19.184076">
<ele>1312.422852</ele>
<time>2012-05-02T04:35:00Z</time>
<desc>lat.=43.165157, lon.=19.184076, Alt.=1312.422852m. Speed=52.416000m/h.</desc>
<speed>14.560000</speed>
</trkpt>
<trkpt lat="43.165470" lon="19.183306">
<ele>1310.891602</ele>
<time>2012-05-02T04:35:05Z</time>
<desc>lat.=43.165470, lon.=19.183306, Alt.=1310.891602m. Speed=52.091999m/h.</desc>
<speed>14.470000</speed>
</trkpt>
<trkpt lat="43.165638" lon="19.182472">
<ele>1310.672852</ele>
<time>2012-05-02T04:35:10Z</time>
<desc>lat.=43.165638, lon.=19.182472, Alt.=1310.672852m. Speed=50.436001m/h.</desc>
<speed>14.010000</speed>
</trkpt>
<trkpt lat="43.165531" lon="19.181608">
<ele>1312.204102</ele>
<time>2012-05-02T04:35:15Z</time>
<desc>lat.=43.165531, lon.=19.181608, Alt.=1312.204102m. Speed=53.063999m/h.</desc>
<speed>14.740000</speed>
</trkpt>
<trkpt lat="43.165394" lon="19.180683">
<ele>1312.516602</ele>
<time>2012-05-02T04:35:20Z</time>
<desc>lat.=43.165394, lon.=19.180683, Alt.=1312.516602m. Speed=56.664001m/h.</desc>
<speed>15.740000</speed>
</trkpt>
<trkpt lat="43.165257" lon="19.179708">
<ele>1313.579102</ele>
<time>2012-05-02T04:35:25Z</time>
<desc>lat.=43.165257, lon.=19.179708, Alt.=1313.579102m. Speed=58.896000m/h.</desc>
<speed>16.360000</speed>
</trkpt>
<trkpt lat="43.165104" lon="19.178738">
<ele>1315.891602</ele>
<time>2012-05-02T04:35:30Z</time>
<desc>lat.=43.165104, lon.=19.178738, Alt.=1315.891602m. Speed=57.132000m/h.</desc>
<speed>15.870000</speed>
</trkpt>
<trkpt lat="43.164967" lon="19.177759">
<ele>1317.172852</ele>
<time>2012-05-02T04:35:35Z</time>
<desc>lat.=43.164967, lon.=19.177759, Alt.=1317.172852m. Speed=58.104000m/h.</desc>
<speed>16.140000</speed>
</trkpt>
<trkpt lat="43.164825" lon="19.176804">
<ele>1320.360352</ele>
<time>2012-05-02T04:35:40Z</time>
<desc>lat.=43.164825, lon.=19.176804, Alt.=1320.360352m. Speed=56.700001m/h.</desc>
<speed>15.750000</speed>
</trkpt>
<trkpt lat="43.164700" lon="19.175869">
<ele>1322.016602</ele>
<time>2012-05-02T04:35:45Z</time>
<desc>lat.=43.164700, lon.=19.175869, Alt.=1322.016602m. Speed=54.216000m/h.</desc>
<speed>15.060000</speed>
</trkpt>
<trkpt lat="43.164631" lon="19.174986">
<ele>1324.766602</ele>
<time>2012-05-02T04:35:50Z</time>
<desc>lat.=43.164631, lon.=19.174986, Alt.=1324.766602m. Speed=52.344002m/h.</desc>
<speed>14.540000</speed>
</trkpt>
<trkpt lat="43.164661" lon="19.174042">
<ele>1323.454102</ele>
<time>2012-05-02T04:35:55Z</time>
<desc>lat.=43.164661, lon.=19.174042, Alt.=1323.454102m. Speed=59.400002m/h.</desc>
<speed>16.500000</speed>
</trkpt>
<trkpt lat="43.164764" lon="19.172987">
<ele>1321.672852</ele>
<time>2012-05-02T04:36:00Z</time>
<desc>lat.=43.164764, lon.=19.172987, Alt.=1321.672852m. Speed=63.396000m/h.</desc>
<speed>17.610000</speed>
</trkpt>
<trkpt lat="43.164871" lon="19.171934">
<ele>1324.829102</ele>
<time>2012-05-02T04:36:05Z</time>
<desc>lat.=43.164871, lon.=19.171934, Alt.=1324.829102m. Speed=60.768002m/h.</desc>
<speed>16.880000</speed>
</trkpt>
<trkpt lat="43.164967" lon="19.170969">
<ele>1328.516602</ele>
<time>2012-05-02T04:36:10Z</time>
<desc>lat.=43.164967, lon.=19.170969, Alt.=1328.516602m. Speed=53.891998m/h.</desc>
<speed>14.970000</speed>
</trkpt>
<trkpt lat="43.165035" lon="19.170057">
<ele>1330.891602</ele>
<time>2012-05-02T04:36:15Z</time>
<desc>lat.=43.165035, lon.=19.170057, Alt.=1330.891602m. Speed=54.576000m/h.</desc>
<speed>15.160000</speed>
</trkpt>
<trkpt lat="43.165096" lon="19.169088">
<ele>1331.422852</ele>
<time>2012-05-02T04:36:20Z</time>
<desc>lat.=43.165096, lon.=19.169088, Alt.=1331.422852m. Speed=59.040001m/h.</desc>
<speed>16.400000</speed>
</trkpt>
<trkpt lat="43.165165" lon="19.168060">
<ele>1333.204102</ele>
<time>2012-05-02T04:36:25Z</time>
<desc>lat.=43.165165, lon.=19.168060, Alt.=1333.204102m. Speed=61.020000m/h.</desc>
<speed>16.950000</speed>
</trkpt>
<trkpt lat="43.165169" lon="19.167007">
<ele>1336.047852</ele>
<time>2012-05-02T04:36:30Z</time>
<desc>lat.=43.165169, lon.=19.167007, Alt.=1336.047852m. Speed=61.776001m/h.</desc>
<speed>17.160000</speed>
</trkpt>
<trkpt lat="43.165043" lon="19.165962">
<ele>1337.485352</ele>
<time>2012-05-02T04:36:35Z</time>
<desc>lat.=43.165043, lon.=19.165962, Alt.=1337.485352m. Speed=61.452000m/h.</desc>
<speed>17.070000</speed>
</trkpt>
<trkpt lat="43.164898" lon="19.164934">
<ele>1338.610352</ele>
<time>2012-05-02T04:36:40Z</time>
<desc>lat.=43.164898, lon.=19.164934, Alt.=1338.610352m. Speed=60.840000m/h.</desc>
<speed>16.900000</speed>
</trkpt>
<trkpt lat="43.164780" lon="19.163931">
<ele>1339.079102</ele>
<time>2012-05-02T04:36:45Z</time>
<desc>lat.=43.164780, lon.=19.163931, Alt.=1339.079102m. Speed=57.852001m/h.</desc>
<speed>16.070000</speed>
</trkpt>
<trkpt lat="43.164700" lon="19.162971">
<ele>1339.985352</ele>
<time>2012-05-02T04:36:50Z</time>
<desc>lat.=43.164700, lon.=19.162971, Alt.=1339.985352m. Speed=55.296001m/h.</desc>
<speed>15.360000</speed>
</trkpt>
<trkpt lat="43.164650" lon="19.162027">
<ele>1341.297852</ele>
<time>2012-05-02T04:36:55Z</time>
<desc>lat.=43.164650, lon.=19.162027, Alt.=1341.297852m. Speed=55.152000m/h.</desc>
<speed>15.320000</speed>
</trkpt>
<trkpt lat="43.164593" lon="19.161098">
<ele>1342.329102</ele>
<time>2012-05-02T04:37:00Z</time>
<desc>lat.=43.164593, lon.=19.161098, Alt.=1342.329102m. Speed=53.495998m/h.</desc>
<speed>14.860000</speed>
</trkpt>
<trkpt lat="43.164528" lon="19.160196">
<ele>1344.422852</ele>
<time>2012-05-02T04:37:05Z</time>
<desc>lat.=43.164528, lon.=19.160196, Alt.=1344.422852m. Speed=53.208000m/h.</desc>
<speed>14.780000</speed>
</trkpt>
<trkpt lat="43.164444" lon="19.159290">
<ele>1347.204102</ele>
<time>2012-05-02T04:37:10Z</time>
<desc>lat.=43.164444, lon.=19.159290, Alt.=1347.204102m. Speed=54.827999m/h.</desc>
<speed>15.230000</speed>
</trkpt>
<trkpt lat="43.164295" lon="19.158373">
<ele>1348.422852</ele>
<time>2012-05-02T04:37:15Z</time>
<desc>lat.=43.164295, lon.=19.158373, Alt.=1348.422852m. Speed=55.548000m/h.</desc>
<speed>15.430000</speed>
</trkpt>
<trkpt lat="43.164124" lon="19.157438">
<ele>1348.860352</ele>
<time>2012-05-02T04:37:20Z</time>
<desc>lat.=43.164124, lon.=19.157438, Alt.=1348.860352m. Speed=57.636002m/h.</desc>
<speed>16.010000</speed>
</trkpt>
<trkpt lat="43.163937" lon="19.156467">
<ele>1350.610352</ele>
<time>2012-05-02T04:37:25Z</time>
<desc>lat.=43.163937, lon.=19.156467, Alt.=1350.610352m. Speed=59.723999m/h.</desc>
<speed>16.590000</speed>
</trkpt>
<trkpt lat="43.163776" lon="19.155487">
<ele>1353.547852</ele>
<time>2012-05-02T04:37:30Z</time>
<desc>lat.=43.163776, lon.=19.155487, Alt.=1353.547852m. Speed=57.203999m/h.</desc>
<speed>15.890000</speed>
</trkpt>
<trkpt lat="43.163784" lon="19.154503">
<ele>1354.579102</ele>
<time>2012-05-02T04:37:35Z</time>
<desc>lat.=43.163784, lon.=19.154503, Alt.=1354.579102m. Speed=58.104000m/h.</desc>
<speed>16.140000</speed>
</trkpt>
<trkpt lat="43.163849" lon="19.153503">
<ele>1357.141602</ele>
<time>2012-05-02T04:37:40Z</time>
<desc>lat.=43.163849, lon.=19.153503, Alt.=1357.141602m. Speed=59.327999m/h.</desc>
<speed>16.480000</speed>
</trkpt>
<trkpt lat="43.163906" lon="19.152510">
<ele>1358.829102</ele>
<time>2012-05-02T04:37:45Z</time>
<desc>lat.=43.163906, lon.=19.152510, Alt.=1358.829102m. Speed=56.051998m/h.</desc>
<speed>15.569999</speed>
</trkpt>
<trkpt lat="43.163956" lon="19.151590">
<ele>1361.891602</ele>
<time>2012-05-02T04:37:50Z</time>
<desc>lat.=43.163956, lon.=19.151590, Alt.=1361.891602m. Speed=53.028000m/h.</desc>
<speed>14.730000</speed>
</trkpt>
<trkpt lat="43.163998" lon="19.150721">
<ele>1364.891602</ele>
<time>2012-05-02T04:37:55Z</time>
<desc>lat.=43.163998, lon.=19.150721, Alt.=1364.891602m. Speed=47.340000m/h.</desc>
<speed>13.150000</speed>
</trkpt>
<trkpt lat="43.164009" lon="19.149963">
<ele>1366.797852</ele>
<time>2012-05-02T04:38:00Z</time>
<desc>lat.=43.164009, lon.=19.149963, Alt.=1366.797852m. Speed=40.500000m/h.</desc>
<speed>11.250000</speed>
</trkpt>
<trkpt lat="43.163952" lon="19.149269">
<ele>1368.391602</ele>
<time>2012-05-02T04:38:05Z</time>
<desc>lat.=43.163952, lon.=19.149269, Alt.=1368.391602m. Speed=43.236000m/h.</desc>
<speed>12.010000</speed>
</trkpt>
<trkpt lat="43.163876" lon="19.148499">
<ele>1370.172852</ele>
<time>2012-05-02T04:38:10Z</time>
<desc>lat.=43.163876, lon.=19.148499, Alt.=1370.172852m. Speed=46.799999m/h.</desc>
<speed>13.000000</speed>
</trkpt>
<trkpt lat="43.163757" lon="19.147717">
<ele>1371.891602</ele>
<time>2012-05-02T04:38:15Z</time>
<desc>lat.=43.163757, lon.=19.147717, Alt.=1371.891602m. Speed=47.088001m/h.</desc>
<speed>13.080000</speed>
</trkpt>
<trkpt lat="43.163620" lon="19.146923">
<ele>1374.391602</ele>
<time>2012-05-02T04:38:20Z</time>
<desc>lat.=43.163620, lon.=19.146923, Alt.=1374.391602m. Speed=48.528000m/h.</desc>
<speed>13.480000</speed>
</trkpt>
<trkpt lat="43.163479" lon="19.146109">
<ele>1377.735352</ele>
<time>2012-05-02T04:38:25Z</time>
<desc>lat.=43.163479, lon.=19.146109, Alt.=1377.735352m. Speed=49.571999m/h.</desc>
<speed>13.770000</speed>
</trkpt>
<trkpt lat="43.163342" lon="19.145277">
<ele>1380.547852</ele>
<time>2012-05-02T04:38:30Z</time>
<desc>lat.=43.163342, lon.=19.145277, Alt.=1380.547852m. Speed=50.507999m/h.</desc>
<speed>14.030000</speed>
</trkpt>
<trkpt lat="43.163200" lon="19.144426">
<ele>1383.516602</ele>
<time>2012-05-02T04:38:35Z</time>
<desc>lat.=43.163200, lon.=19.144426, Alt.=1383.516602m. Speed=51.155998m/h.</desc>
<speed>14.210000</speed>
</trkpt>
<trkpt lat="43.163097" lon="19.143570">
<ele>1386.954102</ele>
<time>2012-05-02T04:38:40Z</time>
<desc>lat.=43.163097, lon.=19.143570, Alt.=1386.954102m. Speed=50.147999m/h.</desc>
<speed>13.930000</speed>
</trkpt>
<trkpt lat="43.163055" lon="19.142723">
<ele>1390.579102</ele>
<time>2012-05-02T04:38:45Z</time>
<desc>lat.=43.163055, lon.=19.142723, Alt.=1390.579102m. Speed=49.284000m/h.</desc>
<speed>13.690000</speed>
</trkpt>
<trkpt lat="43.163059" lon="19.141903">
<ele>1394.391602</ele>
<time>2012-05-02T04:38:50Z</time>
<desc>lat.=43.163059, lon.=19.141903, Alt.=1394.391602m. Speed=47.448002m/h.</desc>
<speed>13.180001</speed>
</trkpt>
<trkpt lat="43.163097" lon="19.141102">
<ele>1398.641602</ele>
<time>2012-05-02T04:38:55Z</time>
<desc>lat.=43.163097, lon.=19.141102, Alt.=1398.641602m. Speed=46.728001m/h.</desc>
<speed>12.980000</speed>
</trkpt>
<trkpt lat="43.163090" lon="19.140324">
<ele>1402.547852</ele>
<time>2012-05-02T04:39:00Z</time>
<desc>lat.=43.163090, lon.=19.140324, Alt.=1402.547852m. Speed=43.667999m/h.</desc>
<speed>12.130000</speed>
</trkpt>
<trkpt lat="43.163006" lon="19.139591">
<ele>1405.547852</ele>
<time>2012-05-02T04:39:05Z</time>
<desc>lat.=43.163006, lon.=19.139591, Alt.=1405.547852m. Speed=45.396000m/h.</desc>
<speed>12.610000</speed>
</trkpt>
<trkpt lat="43.162804" lon="19.138838">
<ele>1408.516602</ele>
<time>2012-05-02T04:39:10Z</time>
<desc>lat.=43.162804, lon.=19.138838, Alt.=1408.516602m. Speed=47.736000m/h.</desc>
<speed>13.260000</speed>
</trkpt>
<trkpt lat="43.162483" lon="19.138144">
<ele>1411.204102</ele>
<time>2012-05-02T04:39:15Z</time>
<desc>lat.=43.162483, lon.=19.138144, Alt.=1411.204102m. Speed=48.419998m/h.</desc>
<speed>13.449999</speed>
</trkpt>
<trkpt lat="43.162090" lon="19.137535">
<ele>1412.766602</ele>
<time>2012-05-02T04:39:20Z</time>
<desc>lat.=43.162090, lon.=19.137535, Alt.=1412.766602m. Speed=45.900002m/h.</desc>
<speed>12.750000</speed>
</trkpt>
<trkpt lat="43.161659" lon="19.137077">
<ele>1413.391602</ele>
<time>2012-05-02T04:39:25Z</time>
<desc>lat.=43.161659, lon.=19.137077, Alt.=1413.391602m. Speed=41.507999m/h.</desc>
<speed>11.530000</speed>
</trkpt>
<trkpt lat="43.161259" lon="19.136663">
<ele>1413.579102</ele>
<time>2012-05-02T04:39:30Z</time>
<desc>lat.=43.161259, lon.=19.136663, Alt.=1413.579102m. Speed=38.987999m/h.</desc>
<speed>10.830000</speed>
</trkpt>
<trkpt lat="43.160954" lon="19.136164">
<ele>1413.735352</ele>
<time>2012-05-02T04:39:35Z</time>
<desc>lat.=43.160954, lon.=19.136164, Alt.=1413.735352m. Speed=37.872002m/h.</desc>
<speed>10.520000</speed>
</trkpt>
<trkpt lat="43.160706" lon="19.135664">
<ele>1413.797852</ele>
<time>2012-05-02T04:39:40Z</time>
<desc>lat.=43.160706, lon.=19.135664, Alt.=1413.797852m. Speed=32.976002m/h.</desc>
<speed>9.160000</speed>
</trkpt>
<trkpt lat="43.160294" lon="19.135605">
<ele>1414.954102</ele>
<time>2012-05-02T04:39:45Z</time>
<desc>lat.=43.160294, lon.=19.135605, Alt.=1414.954102m. Speed=36.540001m/h.</desc>
<speed>10.150000</speed>
</trkpt>
<trkpt lat="43.159790" lon="19.135527">
<ele>1415.985352</ele>
<time>2012-05-02T04:39:50Z</time>
<desc>lat.=43.159790, lon.=19.135527, Alt.=1415.985352m. Speed=44.675999m/h.</desc>
<speed>12.410000</speed>
</trkpt>
<trkpt lat="43.159237" lon="19.135202">
<ele>1418.329102</ele>
<time>2012-05-02T04:39:55Z</time>
<desc>lat.=43.159237, lon.=19.135202, Alt.=1418.329102m. Speed=49.320000m/h.</desc>
<speed>13.700000</speed>
</trkpt>
<trkpt lat="43.158672" lon="19.134861">
<ele>1419.922852</ele>
<time>2012-05-02T04:40:00Z</time>
<desc>lat.=43.158672, lon.=19.134861, Alt.=1419.922852m. Speed=47.880001m/h.</desc>
<speed>13.300000</speed>
</trkpt>
<trkpt lat="43.158142" lon="19.134514">
<ele>1421.797852</ele>
<time>2012-05-02T04:40:05Z</time>
<desc>lat.=43.158142, lon.=19.134514, Alt.=1421.797852m. Speed=47.520000m/h.</desc>
<speed>13.200000</speed>
</trkpt>
<trkpt lat="43.157642" lon="19.134020">
<ele>1423.829102</ele>
<time>2012-05-02T04:40:10Z</time>
<desc>lat.=43.157642, lon.=19.134020, Alt.=1423.829102m. Speed=49.644001m/h.</desc>
<speed>13.790000</speed>
</trkpt>
<trkpt lat="43.157169" lon="19.133453">
<ele>1425.922852</ele>
<time>2012-05-02T04:40:15Z</time>
<desc>lat.=43.157169, lon.=19.133453, Alt.=1425.922852m. Speed=49.860001m/h.</desc>
<speed>13.850000</speed>
</trkpt>
<trkpt lat="43.156693" lon="19.132912">
<ele>1428.047852</ele>
<time>2012-05-02T04:40:20Z</time>
<desc>lat.=43.156693, lon.=19.132912, Alt.=1428.047852m. Speed=48.348000m/h.</desc>
<speed>13.430000</speed>
</trkpt>
<trkpt lat="43.156239" lon="19.132353">
<ele>1430.110352</ele>
<time>2012-05-02T04:40:25Z</time>
<desc>lat.=43.156239, lon.=19.132353, Alt.=1430.110352m. Speed=49.428001m/h.</desc>
<speed>13.730000</speed>
</trkpt>
<trkpt lat="43.155773" lon="19.131800">
<ele>1432.766602</ele>
<time>2012-05-02T04:40:30Z</time>
<desc>lat.=43.155773, lon.=19.131800, Alt.=1432.766602m. Speed=49.212002m/h.</desc>
<speed>13.670001</speed>
</trkpt>
<trkpt lat="43.155277" lon="19.131342">
<ele>1435.360352</ele>
<time>2012-05-02T04:40:35Z</time>
<desc>lat.=43.155277, lon.=19.131342, Alt.=1435.360352m. Speed=47.195999m/h.</desc>
<speed>13.110000</speed>
</trkpt>
<trkpt lat="43.154675" lon="19.131180">
<ele>1437.516602</ele>
<time>2012-05-02T04:40:40Z</time>
<desc>lat.=43.154675, lon.=19.131180, Alt.=1437.516602m. Speed=51.299999m/h.</desc>
<speed>14.250000</speed>
</trkpt>
<trkpt lat="43.154072" lon="19.131176">
<ele>1439.704102</ele>
<time>2012-05-02T04:40:45Z</time>
<desc>lat.=43.154072, lon.=19.131176, Alt.=1439.704102m. Speed=44.388000m/h.</desc>
<speed>12.330000</speed>
</trkpt>
<trkpt lat="43.153534" lon="19.131151">
<ele>1441.204102</ele>
<time>2012-05-02T04:40:50Z</time>
<desc>lat.=43.153534, lon.=19.131151, Alt.=1441.204102m. Speed=43.703999m/h.</desc>
<speed>12.140000</speed>
</trkpt>
<trkpt lat="43.152977" lon="19.130960">
<ele>1441.641602</ele>
<time>2012-05-02T04:40:55Z</time>
<desc>lat.=43.152977, lon.=19.130960, Alt.=1441.641602m. Speed=47.375999m/h.</desc>
<speed>13.160000</speed>
</trkpt>
<trkpt lat="43.152470" lon="19.130543">
<ele>1442.329102</ele>
<time>2012-05-02T04:41:00Z</time>
<desc>lat.=43.152470, lon.=19.130543, Alt.=1442.329102m. Speed=48.096001m/h.</desc>
<speed>13.360000</speed>
</trkpt>
<trkpt lat="43.152061" lon="19.129919">
<ele>1442.735352</ele>
<time>2012-05-02T04:41:05Z</time>
<desc>lat.=43.152061, lon.=19.129919, Alt.=1442.735352m. Speed=49.175999m/h.</desc>
<speed>13.660000</speed>
</trkpt>
<trkpt lat="43.151745" lon="19.129194">
<ele>1443.485352</ele>
<time>2012-05-02T04:41:10Z</time>
<desc>lat.=43.151745, lon.=19.129194, Alt.=1443.485352m. Speed=48.132000m/h.</desc>
<speed>13.370000</speed>
</trkpt>
<trkpt lat="43.151451" lon="19.128532">
<ele>1444.766602</ele>
<time>2012-05-02T04:41:15Z</time>
<desc>lat.=43.151451, lon.=19.128532, Alt.=1444.766602m. Speed=43.307999m/h.</desc>
<speed>12.030000</speed>
</trkpt>
<trkpt lat="43.151165" lon="19.127890">
<ele>1447.297852</ele>
<time>2012-05-02T04:41:20Z</time>
<desc>lat.=43.151165, lon.=19.127890, Alt.=1447.297852m. Speed=44.352001m/h.</desc>
<speed>12.320000</speed>
</trkpt>
<trkpt lat="43.150909" lon="19.127321">
<ele>1451.391602</ele>
<time>2012-05-02T04:41:25Z</time>
<desc>lat.=43.150909, lon.=19.127321, Alt.=1451.391602m. Speed=31.104000m/h.</desc>
<speed>8.640000</speed>
</trkpt>
<trkpt lat="43.150715" lon="19.126896">
<ele>1453.141602</ele>
<time>2012-05-02T04:41:30Z</time>
<desc>lat.=43.150715, lon.=19.126896, Alt.=1453.141602m. Speed=29.808001m/h.</desc>
<speed>8.280000</speed>
</trkpt>
<trkpt lat="43.150475" lon="19.126455">
<ele>1455.079102</ele>
<time>2012-05-02T04:41:35Z</time>
<desc>lat.=43.150475, lon.=19.126455, Alt.=1455.079102m. Speed=35.316002m/h.</desc>
<speed>9.810001</speed>
</trkpt>
<trkpt lat="43.150120" lon="19.125963">
<ele>1456.797852</ele>
<time>2012-05-02T04:41:40Z</time>
<desc>lat.=43.150120, lon.=19.125963, Alt.=1456.797852m. Speed=47.160000m/h.</desc>
<speed>13.100000</speed>
</trkpt>
<trkpt lat="43.149647" lon="19.125364">
<ele>1457.922852</ele>
<time>2012-05-02T04:41:45Z</time>
<desc>lat.=43.149647, lon.=19.125364, Alt.=1457.922852m. Speed=52.200001m/h.</desc>
<speed>14.500000</speed>
</trkpt>
<trkpt lat="43.149063" lon="19.124851">
<ele>1460.922852</ele>
<time>2012-05-02T04:41:50Z</time>
<desc>lat.=43.149063, lon.=19.124851, Alt.=1460.922852m. Speed=54.756001m/h.</desc>
<speed>15.210000</speed>
</trkpt>
<trkpt lat="43.148533" lon="19.124269">
<ele>1463.954102</ele>
<time>2012-05-02T04:41:55Z</time>
<desc>lat.=43.148533, lon.=19.124269, Alt.=1463.954102m. Speed=52.919998m/h.</desc>
<speed>14.699999</speed>
</trkpt>
<trkpt lat="43.148037" lon="19.123732">
<ele>1467.391602</ele>
<time>2012-05-02T04:42:00Z</time>
<desc>lat.=43.148037, lon.=19.123732, Alt.=1467.391602m. Speed=46.584000m/h.</desc>
<speed>12.940000</speed>
</trkpt>
<trkpt lat="43.147602" lon="19.123270">
<ele>1469.985352</ele>
<time>2012-05-02T04:42:05Z</time>
<desc>lat.=43.147602, lon.=19.123270, Alt.=1469.985352m. Speed=44.099998m/h.</desc>
<speed>12.250000</speed>
</trkpt>
<trkpt lat="43.147114" lon="19.122786">
<ele>1470.922852</ele>
<time>2012-05-02T04:42:10Z</time>
<desc>lat.=43.147114, lon.=19.122786, Alt.=1470.922852m. Speed=51.660000m/h.</desc>
<speed>14.350000</speed>
</trkpt>
<trkpt lat="43.146503" lon="19.122368">
<ele>1472.110352</ele>
<time>2012-05-02T04:42:15Z</time>
<desc>lat.=43.146503, lon.=19.122368, Alt.=1472.110352m. Speed=58.860001m/h.</desc>
<speed>16.350000</speed>
</trkpt>
<trkpt lat="43.145710" lon="19.122137">
<ele>1475.047852</ele>
<time>2012-05-02T04:42:20Z</time>
<desc>lat.=43.145710, lon.=19.122137, Alt.=1475.047852m. Speed=68.400002m/h.</desc>
<speed>19.000000</speed>
</trkpt>
<trkpt lat="43.144852" lon="19.121868">
<ele>1477.454102</ele>
<time>2012-05-02T04:42:25Z</time>
<desc>lat.=43.144852, lon.=19.121868, Alt.=1477.454102m. Speed=69.264000m/h.</desc>
<speed>19.240000</speed>
</trkpt>
<trkpt lat="43.144016" lon="19.121605">
<ele>1479.985352</ele>
<time>2012-05-02T04:42:30Z</time>
<desc>lat.=43.144016, lon.=19.121605, Alt.=1479.985352m. Speed=67.463997m/h.</desc>
<speed>18.739999</speed>
</trkpt>
<trkpt lat="43.143200" lon="19.121347">
<ele>1483.172852</ele>
<time>2012-05-02T04:42:35Z</time>
<desc>lat.=43.143200, lon.=19.121347, Alt.=1483.172852m. Speed=66.708000m/h.</desc>
<speed>18.530000</speed>
</trkpt>
<trkpt lat="43.142391" lon="19.121164">
<ele>1486.735352</ele>
<time>2012-05-02T04:42:40Z</time>
<desc>lat.=43.142391, lon.=19.121164, Alt.=1486.735352m. Speed=64.403999m/h.</desc>
<speed>17.890000</speed>
</trkpt>
<trkpt lat="43.141655" lon="19.121115">
<ele>1489.797852</ele>
<time>2012-05-02T04:42:45Z</time>
<desc>lat.=43.141655, lon.=19.121115, Alt.=1489.797852m. Speed=51.804001m/h.</desc>
<speed>14.390000</speed>
</trkpt>
<trkpt lat="43.141022" lon="19.121162">
<ele>1489.985352</ele>
<time>2012-05-02T04:42:50Z</time>
<desc>lat.=43.141022, lon.=19.121162, Alt.=1489.985352m. Speed=52.992001m/h.</desc>
<speed>14.720000</speed>
</trkpt>
<trkpt lat="43.140305" lon="19.121294">
<ele>1486.672852</ele>
<time>2012-05-02T04:42:55Z</time>
<desc>lat.=43.140305, lon.=19.121294, Alt.=1486.672852m. Speed=64.907997m/h.</desc>
<speed>18.029999</speed>
</trkpt>
<trkpt lat="43.139408" lon="19.121452">
<ele>1481.610352</ele>
<time>2012-05-02T04:43:00Z</time>
<desc>lat.=43.139408, lon.=19.121452, Alt.=1481.610352m. Speed=76.031998m/h.</desc>
<speed>21.119999</speed>
</trkpt>
<trkpt lat="43.138451" lon="19.121655">
<ele>1477.235352</ele>
<time>2012-05-02T04:43:05Z</time>
<desc>lat.=43.138451, lon.=19.121655, Alt.=1477.235352m. Speed=77.435997m/h.</desc>
<speed>21.509999</speed>
</trkpt>
<trkpt lat="43.137447" lon="19.121914">
<ele>1473.485352</ele>
<time>2012-05-02T04:43:10Z</time>
<desc>lat.=43.137447, lon.=19.121914, Alt.=1473.485352m. Speed=84.024002m/h.</desc>
<speed>23.340001</speed>
</trkpt>
<trkpt lat="43.136414" lon="19.122292">
<ele>1469.985352</ele>
<time>2012-05-02T04:43:15Z</time>
<desc>lat.=43.136414, lon.=19.122292, Alt.=1469.985352m. Speed=87.372002m/h.</desc>
<speed>24.270000</speed>
</trkpt>
<trkpt lat="43.135326" lon="19.122688">
<ele>1466.454102</ele>
<time>2012-05-02T04:43:20Z</time>
<desc>lat.=43.135326, lon.=19.122688, Alt.=1466.454102m. Speed=90.972000m/h.</desc>
<speed>25.270000</speed>
</trkpt>
<trkpt lat="43.134235" lon="19.123100">
<ele>1464.391602</ele>
<time>2012-05-02T04:43:25Z</time>
<desc>lat.=43.134235, lon.=19.123100, Alt.=1464.391602m. Speed=88.919998m/h.</desc>
<speed>24.699999</speed>
</trkpt>
<trkpt lat="43.133179" lon="19.123499">
<ele>1463.954102</ele>
<time>2012-05-02T04:43:30Z</time>
<desc>lat.=43.133179, lon.=19.123499, Alt.=1463.954102m. Speed=86.508003m/h.</desc>
<speed>24.030001</speed>
</trkpt>
<trkpt lat="43.132141" lon="19.123884">
<ele>1462.641602</ele>
<time>2012-05-02T04:43:35Z</time>
<desc>lat.=43.132141, lon.=19.123884, Alt.=1462.641602m. Speed=84.851997m/h.</desc>
<speed>23.569999</speed>
</trkpt>
<trkpt lat="43.131134" lon="19.124336">
<ele>1459.829102</ele>
<time>2012-05-02T04:43:40Z</time>
<desc>lat.=43.131134, lon.=19.124336, Alt.=1459.829102m. Speed=85.068001m/h.</desc>
<speed>23.630000</speed>
</trkpt>
<trkpt lat="43.130207" lon="19.125034">
<ele>1456.985352</ele>
<time>2012-05-02T04:43:45Z</time>
<desc>lat.=43.130207, lon.=19.125034, Alt.=1456.985352m. Speed=83.844002m/h.</desc>
<speed>23.290000</speed>
</trkpt>
<trkpt lat="43.129288" lon="19.125647">
<ele>1456.110352</ele>
<time>2012-05-02T04:43:50Z</time>
<desc>lat.=43.129288, lon.=19.125647, Alt.=1456.110352m. Speed=81.036003m/h.</desc>
<speed>22.510001</speed>
</trkpt>
<trkpt lat="43.128307" lon="19.125828">
<ele>1457.797852</ele>
<time>2012-05-02T04:43:55Z</time>
<desc>lat.=43.128307, lon.=19.125828, Alt.=1457.797852m. Speed=78.407997m/h.</desc>
<speed>21.779999</speed>
</trkpt>
<trkpt lat="43.127338" lon="19.125549">
<ele>1460.641602</ele>
<time>2012-05-02T04:44:00Z</time>
<desc>lat.=43.127338, lon.=19.125549, Alt.=1460.641602m. Speed=80.531998m/h.</desc>
<speed>22.369999</speed>
</trkpt>
<trkpt lat="43.126366" lon="19.125105">
<ele>1461.922852</ele>
<time>2012-05-02T04:44:05Z</time>
<desc>lat.=43.126366, lon.=19.125105, Alt.=1461.922852m. Speed=83.087997m/h.</desc>
<speed>23.079999</speed>
</trkpt>
<trkpt lat="43.125385" lon="19.124674">
<ele>1462.985352</ele>
<time>2012-05-02T04:44:10Z</time>
<desc>lat.=43.125385, lon.=19.124674, Alt.=1462.985352m. Speed=80.603996m/h.</desc>
<speed>22.389999</speed>
</trkpt>
<trkpt lat="43.124409" lon="19.124491">
<ele>1463.891602</ele>
<time>2012-05-02T04:44:15Z</time>
<desc>lat.=43.124409, lon.=19.124491, Alt.=1463.891602m. Speed=79.991997m/h.</desc>
<speed>22.219999</speed>
</trkpt>
<trkpt lat="43.123413" lon="19.124630">
<ele>1464.360352</ele>
<time>2012-05-02T04:44:20Z</time>
<desc>lat.=43.123413, lon.=19.124630, Alt.=1464.360352m. Speed=77.255997m/h.</desc>
<speed>21.459999</speed>
</trkpt>
<trkpt lat="43.122486" lon="19.124781">
<ele>1463.579102</ele>
<time>2012-05-02T04:44:25Z</time>
<desc>lat.=43.122486, lon.=19.124781, Alt.=1463.579102m. Speed=72.216003m/h.</desc>
<speed>20.060001</speed>
</trkpt>
<trkpt lat="43.121613" lon="19.124807">
<ele>1463.047852</ele>
<time>2012-05-02T04:44:30Z</time>
<desc>lat.=43.121613, lon.=19.124807, Alt.=1463.047852m. Speed=69.155998m/h.</desc>
<speed>19.210000</speed>
</trkpt>
<trkpt lat="43.120773" lon="19.124470">
<ele>1463.891602</ele>
<time>2012-05-02T04:44:35Z</time>
<desc>lat.=43.120773, lon.=19.124470, Alt.=1463.891602m. Speed=72.792000m/h.</desc>
<speed>20.220000</speed>
</trkpt>
<trkpt lat="43.119995" lon="19.123732">
<ele>1464.735352</ele>
<time>2012-05-02T04:44:40Z</time>
<desc>lat.=43.119995, lon.=19.123732, Alt.=1464.735352m. Speed=78.084000m/h.</desc>
<speed>21.690000</speed>
</trkpt>
<trkpt lat="43.119217" lon="19.122898">
<ele>1465.485352</ele>
<time>2012-05-02T04:44:45Z</time>
<desc>lat.=43.119217, lon.=19.122898, Alt.=1465.485352m. Speed=78.804001m/h.</desc>
<speed>21.890000</speed>
</trkpt>
<trkpt lat="43.118340" lon="19.122320">
<ele>1467.985352</ele>
<time>2012-05-02T04:44:50Z</time>
<desc>lat.=43.118340, lon.=19.122320, Alt.=1467.985352m. Speed=78.875999m/h.</desc>
<speed>21.910000</speed>
</trkpt>
<trkpt lat="43.117367" lon="19.122076">
<ele>1470.016602</ele>
<time>2012-05-02T04:44:55Z</time>
<desc>lat.=43.117367, lon.=19.122076, Alt.=1470.016602m. Speed=80.820000m/h.</desc>
<speed>22.450000</speed>
</trkpt>
<trkpt lat="43.116329" lon="19.122084">
<ele>1470.329102</ele>
<time>2012-05-02T04:45:00Z</time>
<desc>lat.=43.116329, lon.=19.122084, Alt.=1470.329102m. Speed=83.952003m/h.</desc>
<speed>23.320001</speed>
</trkpt>
<trkpt lat="43.115253" lon="19.122114">
<ele>1470.891602</ele>
<time>2012-05-02T04:45:05Z</time>
<desc>lat.=43.115253, lon.=19.122114, Alt.=1470.891602m. Speed=85.283997m/h.</desc>
<speed>23.689999</speed>
</trkpt>
<trkpt lat="43.114204" lon="19.122133">
<ele>1471.360352</ele>
<time>2012-05-02T04:45:10Z</time>
<desc>lat.=43.114204, lon.=19.122133, Alt.=1471.360352m. Speed=82.367996m/h.</desc>
<speed>22.879999</speed>
</trkpt>
<trkpt lat="43.113205" lon="19.122156">
<ele>1473.860352</ele>
<time>2012-05-02T04:45:15Z</time>
<desc>lat.=43.113205, lon.=19.122156, Alt.=1473.860352m. Speed=77.472000m/h.</desc>
<speed>21.520000</speed>
</trkpt>
<trkpt lat="43.112286" lon="19.122164">
<ele>1476.860352</ele>
<time>2012-05-02T04:45:20Z</time>
<desc>lat.=43.112286, lon.=19.122164, Alt.=1476.860352m. Speed=69.767998m/h.</desc>
<speed>19.379999</speed>
</trkpt>
<trkpt lat="43.111458" lon="19.122093">
<ele>1478.422852</ele>
<time>2012-05-02T04:45:25Z</time>
<desc>lat.=43.111458, lon.=19.122093, Alt.=1478.422852m. Speed=65.664001m/h.</desc>
<speed>18.240000</speed>
</trkpt>
<trkpt lat="43.110641" lon="19.121855">
<ele>1480.110352</ele>
<time>2012-05-02T04:45:30Z</time>
<desc>lat.=43.110641, lon.=19.121855, Alt.=1480.110352m. Speed=68.328003m/h.</desc>
<speed>18.980001</speed>
</trkpt>
<trkpt lat="43.109795" lon="19.121418">
<ele>1481.891602</ele>
<time>2012-05-02T04:45:35Z</time>
<desc>lat.=43.109795, lon.=19.121418, Alt.=1481.891602m. Speed=76.428001m/h.</desc>
<speed>21.230000</speed>
</trkpt>
<trkpt lat="43.108898" lon="19.120853">
<ele>1484.797852</ele>
<time>2012-05-02T04:45:40Z</time>
<desc>lat.=43.108898, lon.=19.120853, Alt.=1484.797852m. Speed=78.767998m/h.</desc>
<speed>21.879999</speed>
</trkpt>
<trkpt lat="43.108002" lon="19.120293">
<ele>1489.766602</ele>
<time>2012-05-02T04:45:45Z</time>
<desc>lat.=43.108002, lon.=19.120293, Alt.=1489.766602m. Speed=77.400002m/h.</desc>
<speed>21.500000</speed>
</trkpt>
<trkpt lat="43.107136" lon="19.119745">
<ele>1494.079102</ele>
<time>2012-05-02T04:45:50Z</time>
<desc>lat.=43.107136, lon.=19.119745, Alt.=1494.079102m. Speed=74.375999m/h.</desc>
<speed>20.660000</speed>
</trkpt>
<trkpt lat="43.106297" lon="19.119223">
<ele>1497.547852</ele>
<time>2012-05-02T04:45:55Z</time>
<desc>lat.=43.106297, lon.=19.119223, Alt.=1497.547852m. Speed=75.311996m/h.</desc>
<speed>20.919999</speed>
</trkpt>
<trkpt lat="43.105385" lon="19.118656">
<ele>1498.922852</ele>
<time>2012-05-02T04:46:00Z</time>
<desc>lat.=43.105385, lon.=19.118656, Alt.=1498.922852m. Speed=83.447998m/h.</desc>
<speed>23.179999</speed>
</trkpt>
<trkpt lat="43.104408" lon="19.118050">
<ele>1499.860352</ele>
<time>2012-05-02T04:46:05Z</time>
<desc>lat.=43.104408, lon.=19.118050, Alt.=1499.860352m. Speed=86.903999m/h.</desc>
<speed>24.140000</speed>
</trkpt>
<trkpt lat="43.103439" lon="19.117382">
<ele>1501.485352</ele>
<time>2012-05-02T04:46:10Z</time>
<desc>lat.=43.103439, lon.=19.117382, Alt.=1501.485352m. Speed=87.084000m/h.</desc>
<speed>24.190000</speed>
</trkpt>
<trkpt lat="43.102627" lon="19.116438">
<ele>1505.954102</ele>
<time>2012-05-02T04:46:15Z</time>
<desc>lat.=43.102627, lon.=19.116438, Alt.=1505.954102m. Speed=83.916000m/h.</desc>
<speed>23.310000</speed>
</trkpt>
<trkpt lat="43.101990" lon="19.115318">
<ele>1511.860352</ele>
<time>2012-05-02T04:46:20Z</time>
<desc>lat.=43.101990, lon.=19.115318, Alt.=1511.860352m. Speed=81.612000m/h.</desc>
<speed>22.670000</speed>
</trkpt>
<trkpt lat="43.101391" lon="19.114204">
<ele>1516.860352</ele>
<time>2012-05-02T04:46:25Z</time>
<desc>lat.=43.101391, lon.=19.114204, Alt.=1516.860352m. Speed=79.811996m/h.</desc>
<speed>22.169999</speed>
</trkpt>
<trkpt lat="43.100803" lon="19.113098">
<ele>1520.110352</ele>
<time>2012-05-02T04:46:30Z</time>
<desc>lat.=43.100803, lon.=19.113098, Alt.=1520.110352m. Speed=80.424004m/h.</desc>
<speed>22.340001</speed>
</trkpt>
<trkpt lat="43.100235" lon="19.112036">
<ele>1523.266602</ele>
<time>2012-05-02T04:46:35Z</time>
<desc>lat.=43.100235, lon.=19.112036, Alt.=1523.266602m. Speed=73.188004m/h.</desc>
<speed>20.330001</speed>
</trkpt>
<trkpt lat="43.099663" lon="19.111145">
<ele>1526.329102</ele>
<time>2012-05-02T04:46:40Z</time>
<desc>lat.=43.099663, lon.=19.111145, Alt.=1526.329102m. Speed=68.183998m/h.</desc>
<speed>18.939999</speed>
</trkpt>
<trkpt lat="43.098949" lon="19.110550">
<ele>1529.016602</ele>
<time>2012-05-02T04:46:45Z</time>
<desc>lat.=43.098949, lon.=19.110550, Alt.=1529.016602m. Speed=66.851997m/h.</desc>
<speed>18.569999</speed>
</trkpt>
<trkpt lat="43.098148" lon="19.110350">
<ele>1531.485352</ele>
<time>2012-05-02T04:46:50Z</time>
<desc>lat.=43.098148, lon.=19.110350, Alt.=1531.485352m. Speed=64.620003m/h.</desc>
<speed>17.950001</speed>
</trkpt>
<trkpt lat="43.097363" lon="19.110287">
<ele>1532.329102</ele>
<time>2012-05-02T04:46:55Z</time>
<desc>lat.=43.097363, lon.=19.110287, Alt.=1532.329102m. Speed=61.164001m/h.</desc>
<speed>16.990000</speed>
</trkpt>
<trkpt lat="43.096584" lon="19.110237">
<ele>1530.954102</ele>
<time>2012-05-02T04:47:00Z</time>
<desc>lat.=43.096584, lon.=19.110237, Alt.=1530.954102m. Speed=62.208000m/h.</desc>
<speed>17.280000</speed>
</trkpt>
<trkpt lat="43.095787" lon="19.110163">
<ele>1528.610352</ele>
<time>2012-05-02T04:47:05Z</time>
<desc>lat.=43.095787, lon.=19.110163, Alt.=1528.610352m. Speed=64.295998m/h.</desc>
<speed>17.859999</speed>
</trkpt>
<trkpt lat="43.095009" lon="19.109957">
<ele>1526.610352</ele>
<time>2012-05-02T04:47:10Z</time>
<desc>lat.=43.095009, lon.=19.109957, Alt.=1526.610352m. Speed=62.928001m/h.</desc>
<speed>17.480000</speed>
</trkpt>
<trkpt lat="43.094307" lon="19.109497">
<ele>1524.610352</ele>
<time>2012-05-02T04:47:15Z</time>
<desc>lat.=43.094307, lon.=19.109497, Alt.=1524.610352m. Speed=63.071999m/h.</desc>
<speed>17.520000</speed>
</trkpt>
<trkpt lat="43.093704" lon="19.108757">
<ele>1522.391602</ele>
<time>2012-05-02T04:47:20Z</time>
<desc>lat.=43.093704, lon.=19.108757, Alt.=1522.391602m. Speed=68.183998m/h.</desc>
<speed>18.939999</speed>
</trkpt>
<trkpt lat="43.093193" lon="19.107733">
<ele>1519.422852</ele>
<time>2012-05-02T04:47:25Z</time>
<desc>lat.=43.093193, lon.=19.107733, Alt.=1519.422852m. Speed=74.916000m/h.</desc>
<speed>20.810000</speed>
</trkpt>
<trkpt lat="43.092705" lon="19.106621">
<ele>1517.110352</ele>
<time>2012-05-02T04:47:30Z</time>
<desc>lat.=43.092705, lon.=19.106621, Alt.=1517.110352m. Speed=76.211998m/h.</desc>
<speed>21.169999</speed>
</trkpt>
<trkpt lat="43.092056" lon="19.105652">
<ele>1516.516602</ele>
<time>2012-05-02T04:47:35Z</time>
<desc>lat.=43.092056, lon.=19.105652, Alt.=1516.516602m. Speed=77.832001m/h.</desc>
<speed>21.620000</speed>
</trkpt>
<trkpt lat="43.091198" lon="19.105066">
<ele>1516.797852</ele>
<time>2012-05-02T04:47:40Z</time>
<desc>lat.=43.091198, lon.=19.105066, Alt.=1516.797852m. Speed=75.239998m/h.</desc>
<speed>20.899999</speed>
</trkpt>
<trkpt lat="43.090279" lon="19.104940">
<ele>1517.047852</ele>
<time>2012-05-02T04:47:45Z</time>
<desc>lat.=43.090279, lon.=19.104940, Alt.=1517.047852m. Speed=73.800003m/h.</desc>
<speed>20.500001</speed>
</trkpt>
<trkpt lat="43.089333" lon="19.105061">
<ele>1517.016602</ele>
<time>2012-05-02T04:47:50Z</time>
<desc>lat.=43.089333, lon.=19.105061, Alt.=1517.016602m. Speed=77.472000m/h.</desc>
<speed>21.520000</speed>
</trkpt>
<trkpt lat="43.088390" lon="19.105125">
<ele>1517.079102</ele>
<time>2012-05-02T04:47:55Z</time>
<desc>lat.=43.088390, lon.=19.105125, Alt.=1517.079102m. Speed=72.108002m/h.</desc>
<speed>20.030000</speed>
</trkpt>
<trkpt lat="43.087566" lon="19.104687">
<ele>1517.110352</ele>
<time>2012-05-02T04:48:00Z</time>
<desc>lat.=43.087566, lon.=19.104687, Alt.=1517.110352m. Speed=71.711998m/h.</desc>
<speed>19.919999</speed>
</trkpt>
<trkpt lat="43.086800" lon="19.104113">
<ele>1516.422852</ele>
<time>2012-05-02T04:48:05Z</time>
<desc>lat.=43.086800, lon.=19.104113, Alt.=1516.422852m. Speed=68.832001m/h.</desc>
<speed>19.120000</speed>
</trkpt>
<trkpt lat="43.085941" lon="19.103918">
<ele>1515.360352</ele>
<time>2012-05-02T04:48:10Z</time>
<desc>lat.=43.085941, lon.=19.103918, Alt.=1515.360352m. Speed=70.919998m/h.</desc>
<speed>19.699999</speed>
</trkpt>
<trkpt lat="43.085075" lon="19.103872">
<ele>1514.297852</ele>
<time>2012-05-02T04:48:15Z</time>
<desc>lat.=43.085075, lon.=19.103872, Alt.=1514.297852m. Speed=66.924004m/h.</desc>
<speed>18.590001</speed>
</trkpt>
<trkpt lat="43.084248" lon="19.103653">
<ele>1513.454102</ele>
<time>2012-05-02T04:48:20Z</time>
<desc>lat.=43.084248, lon.=19.103653, Alt.=1513.454102m. Speed=70.416000m/h.</desc>
<speed>19.560000</speed>
</trkpt>
<trkpt lat="43.083420" lon="19.103155">
<ele>1513.079102</ele>
<time>2012-05-02T04:48:25Z</time>
<desc>lat.=43.083420, lon.=19.103155, Alt.=1513.079102m. Speed=71.963997m/h.</desc>
<speed>19.989999</speed>
</trkpt>
<trkpt lat="43.082558" lon="19.102915">
<ele>1514.110352</ele>
<time>2012-05-02T04:48:30Z</time>
<desc>lat.=43.082558, lon.=19.102915, Alt.=1514.110352m. Speed=69.084000m/h.</desc>
<speed>19.190000</speed>
</trkpt>
<trkpt lat="43.081699" lon="19.103127">
<ele>1515.079102</ele>
<time>2012-05-02T04:48:35Z</time>
<desc>lat.=43.081699, lon.=19.103127, Alt.=1515.079102m. Speed=72.036003m/h.</desc>
<speed>20.010001</speed>
</trkpt>
<trkpt lat="43.080898" lon="19.103764">
<ele>1516.016602</ele>
<time>2012-05-02T04:48:40Z</time>
<desc>lat.=43.080898, lon.=19.103764, Alt.=1516.016602m. Speed=75.311996m/h.</desc>
<speed>20.919999</speed>
</trkpt>
<trkpt lat="43.080143" lon="19.104551">
<ele>1517.110352</ele>
<time>2012-05-02T04:48:45Z</time>
<desc>lat.=43.080143, lon.=19.104551, Alt.=1517.110352m. Speed=73.944000m/h.</desc>
<speed>20.540000</speed>
</trkpt>
<trkpt lat="43.079308" lon="19.105009">
<ele>1518.016602</ele>
<time>2012-05-02T04:48:50Z</time>
<desc>lat.=43.079308, lon.=19.105009, Alt.=1518.016602m. Speed=72.323997m/h.</desc>
<speed>20.089999</speed>
</trkpt>
<trkpt lat="43.078476" lon="19.104801">
<ele>1518.672852</ele>
<time>2012-05-02T04:48:55Z</time>
<desc>lat.=43.078476, lon.=19.104801, Alt.=1518.672852m. Speed=65.339996m/h.</desc>
<speed>18.149999</speed>
</trkpt>
<trkpt lat="43.077866" lon="19.104103">
<ele>1515.079102</ele>
<time>2012-05-02T04:49:00Z</time>
<desc>lat.=43.077866, lon.=19.104103, Alt.=1515.079102m. Speed=64.584000m/h.</desc>
<speed>17.940000</speed>
</trkpt>
<trkpt lat="43.077461" lon="19.103085">
<ele>1508.704102</ele>
<time>2012-05-02T04:49:05Z</time>
<desc>lat.=43.077461, lon.=19.103085, Alt.=1508.704102m. Speed=69.552002m/h.</desc>
<speed>19.320001</speed>
</trkpt>
<trkpt lat="43.077068" lon="19.101974">
<ele>1502.079102</ele>
<time>2012-05-02T04:49:10Z</time>
<desc>lat.=43.077068, lon.=19.101974, Alt.=1502.079102m. Speed=71.603996m/h.</desc>
<speed>19.889999</speed>
</trkpt>
<trkpt lat="43.076633" lon="19.101009">
<ele>1495.891602</ele>
<time>2012-05-02T04:49:15Z</time>
<desc>lat.=43.076633, lon.=19.101009, Alt.=1495.891602m. Speed=61.956001m/h.</desc>
<speed>17.210000</speed>
</trkpt>
<trkpt lat="43.075977" lon="19.100431">
<ele>1490.235352</ele>
<time>2012-05-02T04:49:20Z</time>
<desc>lat.=43.075977, lon.=19.100431, Alt.=1490.235352m. Speed=64.403999m/h.</desc>
<speed>17.890000</speed>
</trkpt>
<trkpt lat="43.075157" lon="19.100361">
<ele>1484.047852</ele>
<time>2012-05-02T04:49:25Z</time>
<desc>lat.=43.075157, lon.=19.100361, Alt.=1484.047852m. Speed=67.571999m/h.</desc>
<speed>18.770000</speed>
</trkpt>
<trkpt lat="43.074375" lon="19.100870">
<ele>1477.516602</ele>
<time>2012-05-02T04:49:30Z</time>
<desc>lat.=43.074375, lon.=19.100870, Alt.=1477.516602m. Speed=70.416000m/h.</desc>
<speed>19.560000</speed>
</trkpt>
<trkpt lat="43.073635" lon="19.101606">
<ele>1471.141602</ele>
<time>2012-05-02T04:49:35Z</time>
<desc>lat.=43.073635, lon.=19.101606, Alt.=1471.141602m. Speed=73.367996m/h.</desc>
<speed>20.379999</speed>
</trkpt>
<trkpt lat="43.072857" lon="19.102262">
<ele>1464.422852</ele>
<time>2012-05-02T04:49:40Z</time>
<desc>lat.=43.072857, lon.=19.102262, Alt.=1464.422852m. Speed=73.475998m/h.</desc>
<speed>20.409999</speed>
</trkpt>
<trkpt lat="43.071968" lon="19.102711">
<ele>1457.422852</ele>
<time>2012-05-02T04:49:45Z</time>
<desc>lat.=43.071968, lon.=19.102711, Alt.=1457.422852m. Speed=76.283997m/h.</desc>
<speed>21.189999</speed>
</trkpt>
<trkpt lat="43.071053" lon="19.103167">
<ele>1450.422852</ele>
<time>2012-05-02T04:49:50Z</time>
<desc>lat.=43.071053, lon.=19.103167, Alt.=1450.422852m. Speed=78.767998m/h.</desc>
<speed>21.879999</speed>
</trkpt>
<trkpt lat="43.070122" lon="19.103640">
<ele>1443.797852</ele>
<time>2012-05-02T04:49:55Z</time>
<desc>lat.=43.070122, lon.=19.103640, Alt.=1443.797852m. Speed=78.480003m/h.</desc>
<speed>21.800001</speed>
</trkpt>
<trkpt lat="43.069332" lon="19.104286">
<ele>1440.579102</ele>
<time>2012-05-02T04:50:00Z</time>
<desc>lat.=43.069332, lon.=19.104286, Alt.=1440.579102m. Speed=72.468002m/h.</desc>
<speed>20.130001</speed>
</trkpt>
<trkpt lat="43.068771" lon="19.105192">
<ele>1439.610352</ele>
<time>2012-05-02T04:50:05Z</time>
<desc>lat.=43.068771, lon.=19.105192, Alt.=1439.610352m. Speed=66.419998m/h.</desc>
<speed>18.449999</speed>
</trkpt>
<trkpt lat="43.068279" lon="19.106009">
<ele>1438.672852</ele>
<time>2012-05-02T04:50:10Z</time>
<desc>lat.=43.068279, lon.=19.106009, Alt.=1438.672852m. Speed=57.779999m/h.</desc>
<speed>16.050000</speed>
</trkpt>
<trkpt lat="43.067688" lon="19.106522">
<ele>1438.016602</ele>
<time>2012-05-02T04:50:15Z</time>
<desc>lat.=43.067688, lon.=19.106522, Alt.=1438.016602m. Speed=57.167999m/h.</desc>
<speed>15.880000</speed>
</trkpt>
<trkpt lat="43.067017" lon="19.106913">
<ele>1437.141602</ele>
<time>2012-05-02T04:50:20Z</time>
<desc>lat.=43.067017, lon.=19.106913, Alt.=1437.141602m. Speed=60.372002m/h.</desc>
<speed>16.770000</speed>
</trkpt>
<trkpt lat="43.066315" lon="19.107327">
<ele>1436.704102</ele>
<time>2012-05-02T04:50:25Z</time>
<desc>lat.=43.066315, lon.=19.107327, Alt.=1436.704102m. Speed=60.012001m/h.</desc>
<speed>16.670000</speed>
</trkpt>
<trkpt lat="43.065601" lon="19.107752">
<ele>1437.172852</ele>
<time>2012-05-02T04:50:30Z</time>
<desc>lat.=43.065601, lon.=19.107752, Alt.=1437.172852m. Speed=62.820000m/h.</desc>
<speed>17.450000</speed>
</trkpt>
<trkpt lat="43.064861" lon="19.108168">
<ele>1438.641602</ele>
<time>2012-05-02T04:50:35Z</time>
<desc>lat.=43.064861, lon.=19.108168, Alt.=1438.641602m. Speed=62.639999m/h.</desc>
<speed>17.400000</speed>
</trkpt>
<trkpt lat="43.064079" lon="19.108246">
<ele>1439.672852</ele>
<time>2012-05-02T04:50:40Z</time>
<desc>lat.=43.064079, lon.=19.108246, Alt.=1439.672852m. Speed=64.944000m/h.</desc>
<speed>18.040000</speed>
</trkpt>
<trkpt lat="43.063267" lon="19.107878">
<ele>1441.360352</ele>
<time>2012-05-02T04:50:45Z</time>
<desc>lat.=43.063267, lon.=19.107878, Alt.=1441.360352m. Speed=69.192001m/h.</desc>
<speed>19.220000</speed>
</trkpt>
<trkpt lat="43.062462" lon="19.107435">
<ele>1442.704102</ele>
<time>2012-05-02T04:50:50Z</time>
<desc>lat.=43.062462, lon.=19.107435, Alt.=1442.704102m. Speed=67.320000m/h.</desc>
<speed>18.700000</speed>
</trkpt>
<trkpt lat="43.061630" lon="19.107248">
<ele>1443.922852</ele>
<time>2012-05-02T04:50:55Z</time>
<desc>lat.=43.061630, lon.=19.107248, Alt.=1443.922852m. Speed=67.931999m/h.</desc>
<speed>18.870000</speed>
</trkpt>
<trkpt lat="43.060776" lon="19.107140">
<ele>1446.016602</ele>
<time>2012-05-02T04:51:00Z</time>
<desc>lat.=43.060776, lon.=19.107140, Alt.=1446.016602m. Speed=68.435997m/h.</desc>
<speed>19.009999</speed>
</trkpt>
<trkpt lat="43.059978" lon="19.106762">
<ele>1450.141602</ele>
<time>2012-05-02T04:51:05Z</time>
<desc>lat.=43.059978, lon.=19.106762, Alt.=1450.141602m. Speed=67.139999m/h.</desc>
<speed>18.650000</speed>
</trkpt>
<trkpt lat="43.059330" lon="19.106024">
<ele>1453.704102</ele>
<time>2012-05-02T04:51:10Z</time>
<desc>lat.=43.059330, lon.=19.106024, Alt.=1453.704102m. Speed=66.996002m/h.</desc>
<speed>18.610001</speed>
</trkpt>
<trkpt lat="43.058868" lon="19.105049">
<ele>1457.422852</ele>
<time>2012-05-02T04:51:15Z</time>
<desc>lat.=43.058868, lon.=19.105049, Alt.=1457.422852m. Speed=67.536003m/h.</desc>
<speed>18.760001</speed>
</trkpt>
<trkpt lat="43.058418" lon="19.104107">
<ele>1460.547852</ele>
<time>2012-05-02T04:51:20Z</time>
<desc>lat.=43.058418, lon.=19.104107, Alt.=1460.547852m. Speed=63.900002m/h.</desc>
<speed>17.750000</speed>
</trkpt>
<trkpt lat="43.057735" lon="19.103512">
<ele>1464.391602</ele>
<time>2012-05-02T04:51:25Z</time>
<desc>lat.=43.057735, lon.=19.103512, Alt.=1464.391602m. Speed=65.699997m/h.</desc>
<speed>18.249999</speed>
</trkpt>
<trkpt lat="43.056976" lon="19.103132">
<ele>1466.891602</ele>
<time>2012-05-02T04:51:30Z</time>
<desc>lat.=43.056976, lon.=19.103132, Alt.=1466.891602m. Speed=62.820000m/h.</desc>
<speed>17.450000</speed>
</trkpt>
<trkpt lat="43.056286" lon="19.102634">
<ele>1468.641602</ele>
<time>2012-05-02T04:51:35Z</time>
<desc>lat.=43.056286, lon.=19.102634, Alt.=1468.641602m. Speed=63.467999m/h.</desc>
<speed>17.630000</speed>
</trkpt>
<trkpt lat="43.055683" lon="19.101892">
<ele>1468.954102</ele>
<time>2012-05-02T04:51:40Z</time>
<desc>lat.=43.055683, lon.=19.101892, Alt.=1468.954102m. Speed=66.384003m/h.</desc>
<speed>18.440001</speed>
</trkpt>
<trkpt lat="43.055229" lon="19.100935">
<ele>1469.766602</ele>
<time>2012-05-02T04:51:45Z</time>
<desc>lat.=43.055229, lon.=19.100935, Alt.=1469.766602m. Speed=66.959999m/h.</desc>
<speed>18.600000</speed>
</trkpt>
<trkpt lat="43.054958" lon="19.099913">
<ele>1470.954102</ele>
<time>2012-05-02T04:51:50Z</time>
<desc>lat.=43.054958, lon.=19.099913, Alt.=1470.954102m. Speed=63.936001m/h.</desc>
<speed>17.760000</speed>
</trkpt>
<trkpt lat="43.043365" lon="19.079168">
<ele>1447.079102</ele>
<time>2012-05-02T04:53:31Z</time>
<desc>lat.=43.043365, lon.=19.079168, Alt.=1447.079102m. Speed=60.012001m/h.</desc>
<speed>16.670000</speed>
</trkpt>
<trkpt lat="43.042496" lon="19.079185">
<ele>1446.235352</ele>
<time>2012-05-02T04:53:36Z</time>
<desc>lat.=43.042496, lon.=19.079185, Alt.=1446.235352m. Speed=66.779999m/h.</desc>
<speed>18.550000</speed>
</trkpt>
<trkpt lat="43.041664" lon="19.079330">
<ele>1438.860352</ele>
<time>2012-05-02T04:53:41Z</time>
<desc>lat.=43.041664, lon.=19.079330, Alt.=1438.860352m. Speed=69.839996m/h.</desc>
<speed>19.399999</speed>
</trkpt>
<trkpt lat="43.040825" lon="19.079739">
<ele>1429.610352</ele>
<time>2012-05-02T04:53:46Z</time>
<desc>lat.=43.040825, lon.=19.079739, Alt.=1429.610352m. Speed=73.440002m/h.</desc>
<speed>20.400001</speed>
</trkpt>
<trkpt lat="43.039940" lon="19.080202">
<ele>1422.891602</ele>
<time>2012-05-02T04:53:51Z</time>
<desc>lat.=43.039940, lon.=19.080202, Alt.=1422.891602m. Speed=76.931999m/h.</desc>
<speed>21.370000</speed>
</trkpt>
<trkpt lat="43.039005" lon="19.080643">
<ele>1415.797852</ele>
<time>2012-05-02T04:53:56Z</time>
<desc>lat.=43.039005, lon.=19.080643, Alt.=1415.797852m. Speed=81.431999m/h.</desc>
<speed>22.620000</speed>
</trkpt>
<trkpt lat="43.037991" lon="19.081009">
<ele>1407.422852</ele>
<time>2012-05-02T04:54:01Z</time>
<desc>lat.=43.037991, lon.=19.081009, Alt.=1407.422852m. Speed=85.788002m/h.</desc>
<speed>23.830001</speed>
</trkpt>
<trkpt lat="43.036926" lon="19.081398">
<ele>1398.204102</ele>
<time>2012-05-02T04:54:06Z</time>
<desc>lat.=43.036926, lon.=19.081398, Alt.=1398.204102m. Speed=90.071999m/h.</desc>
<speed>25.020000</speed>
</trkpt>
<trkpt lat="43.035831" lon="19.081867">
<ele>1390.110352</ele>
<time>2012-05-02T04:54:11Z</time>
<desc>lat.=43.035831, lon.=19.081867, Alt.=1390.110352m. Speed=91.008003m/h.</desc>
<speed>25.280001</speed>
</trkpt>
<trkpt lat="43.034840" lon="19.082520">
<ele>1383.110352</ele>
<time>2012-05-02T04:54:16Z</time>
<desc>lat.=43.034840, lon.=19.082520, Alt.=1383.110352m. Speed=86.292000m/h.</desc>
<speed>23.970000</speed>
</trkpt>
<trkpt lat="43.033932" lon="19.083305">
<ele>1376.610352</ele>
<time>2012-05-02T04:54:21Z</time>
<desc>lat.=43.033932, lon.=19.083305, Alt.=1376.610352m. Speed=86.255997m/h.</desc>
<speed>23.959999</speed>
</trkpt>
<trkpt lat="43.033054" lon="19.084177">
<ele>1368.141602</ele>
<time>2012-05-02T04:54:26Z</time>
<desc>lat.=43.033054, lon.=19.084177, Alt.=1368.141602m. Speed=87.300003m/h.</desc>
<speed>24.250001</speed>
</trkpt>
<trkpt lat="43.032181" lon="19.085068">
<ele>1360.391602</ele>
<time>2012-05-02T04:54:31Z</time>
<desc>lat.=43.032181, lon.=19.085068, Alt.=1360.391602m. Speed=84.024002m/h.</desc>
<speed>23.340001</speed>
</trkpt>
<trkpt lat="43.031441" lon="19.086098">
<ele>1352.985352</ele>
<time>2012-05-02T04:54:36Z</time>
<desc>lat.=43.031441, lon.=19.086098, Alt.=1352.985352m. Speed=84.599998m/h.</desc>
<speed>23.500000</speed>
</trkpt>
<trkpt lat="43.030807" lon="19.087267">
<ele>1346.579102</ele>
<time>2012-05-02T04:54:41Z</time>
<desc>lat.=43.030807, lon.=19.087267, Alt.=1346.579102m. Speed=84.564003m/h.</desc>
<speed>23.490001</speed>
</trkpt>
<trkpt lat="43.030167" lon="19.088449">
<ele>1338.360352</ele>
<time>2012-05-02T04:54:46Z</time>
<desc>lat.=43.030167, lon.=19.088449, Alt.=1338.360352m. Speed=84.348000m/h.</desc>
<speed>23.430000</speed>
</trkpt>
<trkpt lat="43.029392" lon="19.089392">
<ele>1332.079102</ele>
<time>2012-05-02T04:54:51Z</time>
<desc>lat.=43.029392, lon.=19.089392, Alt.=1332.079102m. Speed=81.575996m/h.</desc>
<speed>22.659999</speed>
</trkpt>
<trkpt lat="43.028473" lon="19.089931">
<ele>1328.485352</ele>
<time>2012-05-02T04:54:56Z</time>
<desc>lat.=43.028473, lon.=19.089931, Alt.=1328.485352m. Speed=79.884003m/h.</desc>
<speed>22.190001</speed>
</trkpt>
<trkpt lat="43.027489" lon="19.090075">
<ele>1324.516602</ele>
<time>2012-05-02T04:55:01Z</time>
<desc>lat.=43.027489, lon.=19.090075, Alt.=1324.516602m. Speed=78.912003m/h.</desc>
<speed>21.920001</speed>
</trkpt>
<trkpt lat="43.026512" lon="19.089832">
<ele>1320.735352</ele>
<time>2012-05-02T04:55:06Z</time>
<desc>lat.=43.026512, lon.=19.089832, Alt.=1320.735352m. Speed=80.279999m/h.</desc>
<speed>22.300000</speed>
</trkpt>
<trkpt lat="43.025558" lon="19.089319">
<ele>1318.829102</ele>
<time>2012-05-02T04:55:11Z</time>
<desc>lat.=43.025558, lon.=19.089319, Alt.=1318.829102m. Speed=81.900002m/h.</desc>
<speed>22.750000</speed>
</trkpt>
<trkpt lat="43.024605" lon="19.088755">
<ele>1315.672852</ele>
<time>2012-05-02T04:55:16Z</time>
<desc>lat.=43.024605, lon.=19.088755, Alt.=1315.672852m. Speed=83.736000m/h.</desc>
<speed>23.260000</speed>
</trkpt>
<trkpt lat="43.023613" lon="19.088173">
<ele>1310.110352</ele>
<time>2012-05-02T04:55:21Z</time>
<desc>lat.=43.023613, lon.=19.088173, Alt.=1310.110352m. Speed=87.875999m/h.</desc>
<speed>24.410000</speed>
</trkpt>
<trkpt lat="43.022579" lon="19.087570">
<ele>1304.204102</ele>
<time>2012-05-02T04:55:26Z</time>
<desc>lat.=43.022579, lon.=19.087570, Alt.=1304.204102m. Speed=90.792000m/h.</desc>
<speed>25.220000</speed>
</trkpt>
<trkpt lat="43.021530" lon="19.086966">
<ele>1298.579102</ele>
<time>2012-05-02T04:55:31Z</time>
<desc>lat.=43.021530, lon.=19.086966, Alt.=1298.579102m. Speed=90.575996m/h.</desc>
<speed>25.159999</speed>
</trkpt>
<trkpt lat="43.020489" lon="19.086361">
<ele>1292.735352</ele>
<time>2012-05-02T04:55:36Z</time>
<desc>lat.=43.020489, lon.=19.086361, Alt.=1292.735352m. Speed=90.755997m/h.</desc>
<speed>25.209999</speed>
</trkpt>
<trkpt lat="43.019485" lon="19.085789">
<ele>1287.797852</ele>
<time>2012-05-02T04:55:41Z</time>
<desc>lat.=43.019485, lon.=19.085789, Alt.=1287.797852m. Speed=77.760002m/h.</desc>
<speed>21.600001</speed>
</trkpt>
<trkpt lat="43.018707" lon="19.085344">
<ele>1283.922852</ele>
<time>2012-05-02T04:55:46Z</time>
<desc>lat.=43.018707, lon.=19.085344, Alt.=1283.922852m. Speed=60.875999m/h.</desc>
<speed>16.910000</speed>
</trkpt>
<trkpt lat="43.018059" lon="19.084850">
<ele>1280.297852</ele>
<time>2012-05-02T04:55:51Z</time>
<desc>lat.=43.018059, lon.=19.084850, Alt.=1280.297852m. Speed=59.327999m/h.</desc>
<speed>16.480000</speed>
</trkpt>
<trkpt lat="43.017460" lon="19.084259">
<ele>1278.516602</ele>
<time>2012-05-02T04:55:56Z</time>
<desc>lat.=43.017460, lon.=19.084259, Alt.=1278.516602m. Speed=59.652000m/h.</desc>
<speed>16.570000</speed>
</trkpt>
<trkpt lat="43.016697" lon="19.083710">
<ele>1273.422852</ele>
<time>2012-05-02T04:56:02Z</time>
<desc>lat.=43.016697, lon.=19.083710, Alt.=1273.422852m. Speed=58.355999m/h.</desc>
<speed>16.210000</speed>
</trkpt>
<trkpt lat="43.016041" lon="19.083405">
<ele>1273.641602</ele>
<time>2012-05-02T04:56:07Z</time>
<desc>lat.=43.016041, lon.=19.083405, Alt.=1273.641602m. Speed=57.276001m/h.</desc>
<speed>15.910000</speed>
</trkpt>
<trkpt lat="43.015289" lon="19.083418">
<ele>1273.266602</ele>
<time>2012-05-02T04:56:12Z</time>
<desc>lat.=43.015289, lon.=19.083418, Alt.=1273.266602m. Speed=57.959999m/h.</desc>
<speed>16.100000</speed>
</trkpt>
<trkpt lat="43.014561" lon="19.083452">
<ele>1271.079102</ele>
<time>2012-05-02T04:56:17Z</time>
<desc>lat.=43.014561, lon.=19.083452, Alt.=1271.079102m. Speed=57.743999m/h.</desc>
<speed>16.040000</speed>
</trkpt>
<trkpt lat="43.013893" lon="19.083147">
<ele>1268.672852</ele>
<time>2012-05-02T04:56:22Z</time>
<desc>lat.=43.013893, lon.=19.083147, Alt.=1268.672852m. Speed=57.779999m/h.</desc>
<speed>16.050000</speed>
</trkpt>
<trkpt lat="43.013428" lon="19.082415">
<ele>1264.672852</ele>
<time>2012-05-02T04:56:27Z</time>
<desc>lat.=43.013428, lon.=19.082415, Alt.=1264.672852m. Speed=58.751999m/h.</desc>
<speed>16.320000</speed>
</trkpt>
<trkpt lat="43.013294" lon="19.081438">
<ele>1260.016602</ele>
<time>2012-05-02T04:56:32Z</time>
<desc>lat.=43.013294, lon.=19.081438, Alt.=1260.016602m. Speed=59.723999m/h.</desc>
<speed>16.590000</speed>
</trkpt>
<trkpt lat="43.013256" lon="19.080400">
<ele>1256.641602</ele>
<time>2012-05-02T04:56:37Z</time>
<desc>lat.=43.013256, lon.=19.080400, Alt.=1256.641602m. Speed=62.639999m/h.</desc>
<speed>17.400000</speed>
</trkpt>
<trkpt lat="43.013199" lon="19.079336">
<ele>1253.329102</ele>
<time>2012-05-02T04:56:42Z</time>
<desc>lat.=43.013199, lon.=19.079336, Alt.=1253.329102m. Speed=62.172001m/h.</desc>
<speed>17.270000</speed>
</trkpt>
<trkpt lat="43.012974" lon="19.078316">
<ele>1251.110352</ele>
<time>2012-05-02T04:56:47Z</time>
<desc>lat.=43.012974, lon.=19.078316, Alt.=1251.110352m. Speed=62.172001m/h.</desc>
<speed>17.270000</speed>
</trkpt>
<trkpt lat="43.012691" lon="19.077341">
<ele>1249.172852</ele>
<time>2012-05-02T04:56:52Z</time>
<desc>lat.=43.012691, lon.=19.077341, Alt.=1249.172852m. Speed=60.660000m/h.</desc>
<speed>16.850000</speed>
</trkpt>
<trkpt lat="43.012280" lon="19.076500">
<ele>1246.641602</ele>
<time>2012-05-02T04:56:57Z</time>
<desc>lat.=43.012280, lon.=19.076500, Alt.=1246.641602m. Speed=59.220001m/h.</desc>
<speed>16.450000</speed>
</trkpt>
<trkpt lat="43.011627" lon="19.076065">
<ele>1244.235352</ele>
<time>2012-05-02T04:57:02Z</time>
<desc>lat.=43.011627, lon.=19.076065, Alt.=1244.235352m. Speed=57.924000m/h.</desc>
<speed>16.090000</speed>
</trkpt>
<trkpt lat="43.010906" lon="19.076155">
<ele>1241.829102</ele>
<time>2012-05-02T04:57:07Z</time>
<desc>lat.=43.010906, lon.=19.076155, Alt.=1241.829102m. Speed=58.284000m/h.</desc>
<speed>16.190000</speed>
</trkpt>
<trkpt lat="43.010262" lon="19.076710">
<ele>1237.579102</ele>
<time>2012-05-02T04:57:12Z</time>
<desc>lat.=43.010262, lon.=19.076710, Alt.=1237.579102m. Speed=62.604000m/h.</desc>
<speed>17.390000</speed>
</trkpt>
<trkpt lat="43.009590" lon="19.077351">
<ele>1232.016602</ele>
<time>2012-05-02T04:57:17Z</time>
<desc>lat.=43.009590, lon.=19.077351, Alt.=1232.016602m. Speed=66.636002m/h.</desc>
<speed>18.510000</speed>
</trkpt>
<trkpt lat="43.008755" lon="19.077709">
<ele>1226.547852</ele>
<time>2012-05-02T04:57:22Z</time>
<desc>lat.=43.008755, lon.=19.077709, Alt.=1226.547852m. Speed=74.304001m/h.</desc>
<speed>20.640000</speed>
</trkpt>
<trkpt lat="43.007793" lon="19.077833">
<ele>1220.891602</ele>
<time>2012-05-02T04:57:27Z</time>
<desc>lat.=43.007793, lon.=19.077833, Alt.=1220.891602m. Speed=78.480003m/h.</desc>
<speed>21.800001</speed>
</trkpt>
<trkpt lat="43.006805" lon="19.077961">
<ele>1215.610352</ele>
<time>2012-05-02T04:57:32Z</time>
<desc>lat.=43.006805, lon.=19.077961, Alt.=1215.610352m. Speed=79.667999m/h.</desc>
<speed>22.130000</speed>
</trkpt>
<trkpt lat="43.005806" lon="19.078085">
<ele>1210.297852</ele>
<time>2012-05-02T04:57:37Z</time>
<desc>lat.=43.005806, lon.=19.078085, Alt.=1210.297852m. Speed=80.963997m/h.</desc>
<speed>22.489999</speed>
</trkpt>
<trkpt lat="43.004780" lon="19.078125">
<ele>1204.891602</ele>
<time>2012-05-02T04:57:42Z</time>
<desc>lat.=43.004780, lon.=19.078125, Alt.=1204.891602m. Speed=82.223999m/h.</desc>
<speed>22.840000</speed>
</trkpt>
<trkpt lat="43.003761" lon="19.077890">
<ele>1199.391602</ele>
<time>2012-05-02T04:57:47Z</time>
<desc>lat.=43.003761, lon.=19.077890, Alt.=1199.391602m. Speed=83.556000m/h.</desc>
<speed>23.210000</speed>
</trkpt>
<trkpt lat="43.002750" lon="19.077477">
<ele>1193.891602</ele>
<time>2012-05-02T04:57:52Z</time>
<desc>lat.=43.002750, lon.=19.077477, Alt.=1193.891602m. Speed=84.851997m/h.</desc>
<speed>23.569999</speed>
</trkpt>
<trkpt lat="43.001724" lon="19.077059">
<ele>1188.516602</ele>
<time>2012-05-02T04:57:57Z</time>
<desc>lat.=43.001724, lon.=19.077059, Alt.=1188.516602m. Speed=85.823997m/h.</desc>
<speed>23.839999</speed>
</trkpt>
<trkpt lat="43.000690" lon="19.076653">
<ele>1184.172852</ele>
<time>2012-05-02T04:58:02Z</time>
<desc>lat.=43.000690, lon.=19.076653, Alt.=1184.172852m. Speed=85.211998m/h.</desc>
<speed>23.669999</speed>
</trkpt>
<trkpt lat="42.999641" lon="19.076427">
<ele>1179.141602</ele>
<time>2012-05-02T04:58:07Z</time>
<desc>lat.=42.999641, lon.=19.076427, Alt.=1179.141602m. Speed=84.491997m/h.</desc>
<speed>23.469999</speed>
</trkpt>
<trkpt lat="42.998608" lon="19.076332">
<ele>1173.329102</ele>
<time>2012-05-02T04:58:12Z</time>
<desc>lat.=42.998608, lon.=19.076332, Alt.=1173.329102m. Speed=82.764000m/h.</desc>
<speed>22.990000</speed>
</trkpt>
<trkpt lat="42.997581" lon="19.076155">
<ele>1166.485352</ele>
<time>2012-05-02T04:58:17Z</time>
<desc>lat.=42.997581, lon.=19.076155, Alt.=1166.485352m. Speed=82.907997m/h.</desc>
<speed>23.029999</speed>
</trkpt>
<trkpt lat="42.996590" lon="19.075703">
<ele>1158.235352</ele>
<time>2012-05-02T04:58:22Z</time>
<desc>lat.=42.996590, lon.=19.075703, Alt.=1158.235352m. Speed=83.952003m/h.</desc>
<speed>23.320001</speed>
</trkpt>
<trkpt lat="42.995621" lon="19.075314">
<ele>1149.579102</ele>
<time>2012-05-02T04:58:27Z</time>
<desc>lat.=42.995621, lon.=19.075314, Alt.=1149.579102m. Speed=78.912003m/h.</desc>
<speed>21.920001</speed>
</trkpt>
<trkpt lat="42.994637" lon="19.075066">
<ele>1140.422852</ele>
<time>2012-05-02T04:58:32Z</time>
<desc>lat.=42.994637, lon.=19.075066, Alt.=1140.422852m. Speed=78.839996m/h.</desc>
<speed>21.899999</speed>
</trkpt>
<trkpt lat="42.993767" lon="19.074551">
<ele>1132.266602</ele>
<time>2012-05-02T04:58:37Z</time>
<desc>lat.=42.993767, lon.=19.074551, Alt.=1132.266602m. Speed=75.959999m/h.</desc>
<speed>21.100000</speed>
</trkpt>
<trkpt lat="42.993027" lon="19.073912">
<ele>1124.016602</ele>
<time>2012-05-02T04:58:42Z</time>
<desc>lat.=42.993027, lon.=19.073912, Alt.=1124.016602m. Speed=68.148003m/h.</desc>
<speed>18.930001</speed>
</trkpt>
<trkpt lat="42.992176" lon="19.073702">
<ele>1116.641602</ele>
<time>2012-05-02T04:58:47Z</time>
<desc>lat.=42.992176, lon.=19.073702, Alt.=1116.641602m. Speed=71.856003m/h.</desc>
<speed>19.960001</speed>
</trkpt>
<trkpt lat="42.991245" lon="19.073746">
<ele>1108.422852</ele>
<time>2012-05-02T04:58:52Z</time>
<desc>lat.=42.991245, lon.=19.073746, Alt.=1108.422852m. Speed=77.075996m/h.</desc>
<speed>21.409999</speed>
</trkpt>
<trkpt lat="42.990326" lon="19.073788">
<ele>1099.922852</ele>
<time>2012-05-02T04:58:57Z</time>
<desc>lat.=42.990326, lon.=19.073788, Alt.=1099.922852m. Speed=66.888000m/h.</desc>
<speed>18.580000</speed>
</trkpt>
<trkpt lat="42.989540" lon="19.073565">
<ele>1092.204102</ele>
<time>2012-05-02T04:59:02Z</time>
<desc>lat.=42.989540, lon.=19.073565, Alt.=1092.204102m. Speed=64.655998m/h.</desc>
<speed>17.960000</speed>
</trkpt>
<trkpt lat="42.988945" lon="19.072762">
<ele>1084.610352</ele>
<time>2012-05-02T04:59:07Z</time>
<desc>lat.=42.988945, lon.=19.072762, Alt.=1084.610352m. Speed=69.372002m/h.</desc>
<speed>19.270000</speed>
</trkpt>
<trkpt lat="42.988403" lon="19.071873">
<ele>1076.141602</ele>
<time>2012-05-02T04:59:12Z</time>
<desc>lat.=42.988403, lon.=19.071873, Alt.=1076.141602m. Speed=68.832001m/h.</desc>
<speed>19.120000</speed>
</trkpt>
<trkpt lat="42.987625" lon="19.071283">
<ele>1068.454102</ele>
<time>2012-05-02T04:59:17Z</time>
<desc>lat.=42.987625, lon.=19.071283, Alt.=1068.454102m. Speed=73.944000m/h.</desc>
<speed>20.540000</speed>
</trkpt>
<trkpt lat="42.986805" lon="19.071037">
<ele>1061.454102</ele>
<time>2012-05-02T04:59:22Z</time>
<desc>lat.=42.986805, lon.=19.071037, Alt.=1061.454102m. Speed=58.212002m/h.</desc>
<speed>16.170001</speed>
</trkpt>
<trkpt lat="42.986126" lon="19.071390">
<ele>1056.172852</ele>
<time>2012-05-02T04:59:27Z</time>
<desc>lat.=42.986126, lon.=19.071390, Alt.=1056.172852m. Speed=59.903999m/h.</desc>
<speed>16.640000</speed>
</trkpt>
<trkpt lat="42.985569" lon="19.072126">
<ele>1051.672852</ele>
<time>2012-05-02T04:59:32Z</time>
<desc>lat.=42.985569, lon.=19.072126, Alt.=1051.672852m. Speed=60.911999m/h.</desc>
<speed>16.920000</speed>
</trkpt>
<trkpt lat="42.984970" lon="19.072781">
<ele>1047.454102</ele>
<time>2012-05-02T04:59:37Z</time>
<desc>lat.=42.984970, lon.=19.072781, Alt.=1047.454102m. Speed=61.776001m/h.</desc>
<speed>17.160000</speed>
</trkpt>
<trkpt lat="42.984245" lon="19.073195">
<ele>1042.985352</ele>
<time>2012-05-02T04:59:42Z</time>
<desc>lat.=42.984245, lon.=19.073195, Alt.=1042.985352m. Speed=62.604000m/h.</desc>
<speed>17.390000</speed>
</trkpt>
<trkpt lat="42.983505" lon="19.073586">
<ele>1038.047852</ele>
<time>2012-05-02T04:59:47Z</time>
<desc>lat.=42.983505, lon.=19.073586, Alt.=1038.047852m. Speed=64.008003m/h.</desc>
<speed>17.780001</speed>
</trkpt>
<trkpt lat="42.982773" lon="19.074080">
<ele>1031.860352</ele>
<time>2012-05-02T04:59:52Z</time>
<desc>lat.=42.982773, lon.=19.074080, Alt.=1031.860352m. Speed=66.816002m/h.</desc>
<speed>18.560001</speed>
</trkpt>
<trkpt lat="42.982010" lon="19.074610">
<ele>1025.329102</ele>
<time>2012-05-02T04:59:57Z</time>
<desc>lat.=42.982010, lon.=19.074610, Alt.=1025.329102m. Speed=69.300003m/h.</desc>
<speed>19.250001</speed>
</trkpt>
<trkpt lat="42.981228" lon="19.075165">
<ele>1018.742676</ele>
<time>2012-05-02T05:00:02Z</time>
<desc>lat.=42.981228, lon.=19.075165, Alt.=1018.742676m. Speed=71.963997m/h.</desc>
<speed>19.989999</speed>
</trkpt>
<trkpt lat="42.980480" lon="19.075811">
<ele>1012.180176</ele>
<time>2012-05-02T05:00:07Z</time>
<desc>lat.=42.980480, lon.=19.075811, Alt.=1012.180176m. Speed=69.947998m/h.</desc>
<speed>19.429999</speed>
</trkpt>
<trkpt lat="42.980007" lon="19.076813">
<ele>1007.758301</ele>
<time>2012-05-02T05:00:12Z</time>
<desc>lat.=42.980007, lon.=19.076813, Alt.=1007.758301m. Speed=70.884003m/h.</desc>
<speed>19.690001</speed>
</trkpt>
<trkpt lat="42.979897" lon="19.078007">
<ele>1004.305176</ele>
<time>2012-05-02T05:00:17Z</time>
<desc>lat.=42.979897, lon.=19.078007, Alt.=1004.305176m. Speed=69.587997m/h.</desc>
<speed>19.329999</speed>
</trkpt>
<trkpt lat="42.980049" lon="19.079145">
<ele>999.883301</ele>
<time>2012-05-02T05:00:22Z</time>
<desc>lat.=42.980049, lon.=19.079145, Alt.=999.883301m. Speed=66.384003m/h.</desc>
<speed>18.440001</speed>
</trkpt>
<trkpt lat="42.980198" lon="19.080225">
<ele>995.352051</ele>
<time>2012-05-02T05:00:27Z</time>
<desc>lat.=42.980198, lon.=19.080225, Alt.=995.352051m. Speed=62.820000m/h.</desc>
<speed>17.450000</speed>
</trkpt>
<trkpt lat="42.980148" lon="19.081291">
<ele>990.461426</ele>
<time>2012-05-02T05:00:32Z</time>
<desc>lat.=42.980148, lon.=19.081291, Alt.=990.461426m. Speed=65.087997m/h.</desc>
<speed>18.079999</speed>
</trkpt>
<trkpt lat="42.979736" lon="19.082272">
<ele>984.586426</ele>
<time>2012-05-02T05:00:37Z</time>
<desc>lat.=42.979736, lon.=19.082272, Alt.=984.586426m. Speed=68.688004m/h.</desc>
<speed>19.080001</speed>
</trkpt>
<trkpt lat="42.978992" lon="19.082918">
<ele>978.602051</ele>
<time>2012-05-02T05:00:42Z</time>
<desc>lat.=42.978992, lon.=19.082918, Alt.=978.602051m. Speed=72.540001m/h.</desc>
<speed>20.150000</speed>
</trkpt>
<trkpt lat="42.978107" lon="19.083281">
<ele>972.242676</ele>
<time>2012-05-02T05:00:47Z</time>
<desc>lat.=42.978107, lon.=19.083281, Alt.=972.242676m. Speed=72.143997m/h.</desc>
<speed>20.039999</speed>
</trkpt>
<trkpt lat="42.977291" lon="19.083611">
<ele>965.977051</ele>
<time>2012-05-02T05:00:52Z</time>
<desc>lat.=42.977291, lon.=19.083611, Alt.=965.977051m. Speed=61.703999m/h.</desc>
<speed>17.140000</speed>
</trkpt>
<trkpt lat="42.976578" lon="19.083822">
<ele>961.133301</ele>
<time>2012-05-02T05:00:57Z</time>
<desc>lat.=42.976578, lon.=19.083822, Alt.=961.133301m. Speed=58.391998m/h.</desc>
<speed>16.220000</speed>
</trkpt>
<trkpt lat="42.975826" lon="19.083803">
<ele>956.055176</ele>
<time>2012-05-02T05:01:02Z</time>
<desc>lat.=42.975826, lon.=19.083803, Alt.=956.055176m. Speed=61.020000m/h.</desc>
<speed>16.950000</speed>
</trkpt>
<trkpt lat="42.975048" lon="19.083855">
<ele>950.898926</ele>
<time>2012-05-02T05:01:07Z</time>
<desc>lat.=42.975048, lon.=19.083855, Alt.=950.898926m. Speed=63.180000m/h.</desc>
<speed>17.550000</speed>
</trkpt>
<trkpt lat="42.974285" lon="19.084209">
<ele>945.820801</ele>
<time>2012-05-02T05:01:12Z</time>
<desc>lat.=42.974285, lon.=19.084209, Alt.=945.820801m. Speed=65.087997m/h.</desc>
<speed>18.079999</speed>
</trkpt>
<trkpt lat="42.973534" lon="19.084686">
<ele>940.211426</ele>
<time>2012-05-02T05:01:17Z</time>
<desc>lat.=42.973534, lon.=19.084686, Alt.=940.211426m. Speed=67.428001m/h.</desc>
<speed>18.730000</speed>
</trkpt>
<trkpt lat="42.972797" lon="19.085299">
<ele>934.211426</ele>
<time>2012-05-02T05:01:22Z</time>
<desc>lat.=42.972797, lon.=19.085299, Alt.=934.211426m. Speed=69.732002m/h.</desc>
<speed>19.370001</speed>
</trkpt>
<trkpt lat="42.971966" lon="19.085678">
<ele>928.117676</ele>
<time>2012-05-02T05:01:27Z</time>
<desc>lat.=42.971966, lon.=19.085678, Alt.=928.117676m. Speed=71.208000m/h.</desc>
<speed>19.780000</speed>
</trkpt>
<trkpt lat="42.971111" lon="19.085920">
<ele>922.383301</ele>
<time>2012-05-02T05:01:32Z</time>
<desc>lat.=42.971111, lon.=19.085920, Alt.=922.383301m. Speed=66.491997m/h.</desc>
<speed>18.469999</speed>
</trkpt>
<trkpt lat="42.970352" lon="19.086304">
<ele>916.805176</ele>
<time>2012-05-02T05:01:37Z</time>
<desc>lat.=42.970352, lon.=19.086304, Alt.=916.805176m. Speed=65.664001m/h.</desc>
<speed>18.240000</speed>
</trkpt>
<trkpt lat="42.969685" lon="19.086987">
<ele>911.180176</ele>
<time>2012-05-02T05:01:42Z</time>
<desc>lat.=42.969685, lon.=19.086987, Alt.=911.180176m. Speed=67.823997m/h.</desc>
<speed>18.839999</speed>
</trkpt>
<trkpt lat="42.969002" lon="19.087719">
<ele>905.289551</ele>
<time>2012-05-02T05:01:47Z</time>
<desc>lat.=42.969002, lon.=19.087719, Alt.=905.289551m. Speed=69.912003m/h.</desc>
<speed>19.420001</speed>
</trkpt>
<trkpt lat="42.968307" lon="19.088480">
<ele>899.227051</ele>
<time>2012-05-02T05:01:52Z</time>
<desc>lat.=42.968307, lon.=19.088480, Alt.=899.227051m. Speed=72.000000m/h.</desc>
<speed>20.000000</speed>
</trkpt>
<trkpt lat="42.967537" lon="19.089144">
<ele>892.633301</ele>
<time>2012-05-02T05:01:57Z</time>
<desc>lat.=42.967537, lon.=19.089144, Alt.=892.633301m. Speed=73.835999m/h.</desc>
<speed>20.510000</speed>
</trkpt>
<trkpt lat="42.966644" lon="19.089500">
<ele>886.398926</ele>
<time>2012-05-02T05:02:02Z</time>
<desc>lat.=42.966644, lon.=19.089500, Alt.=886.398926m. Speed=75.419998m/h.</desc>
<speed>20.949999</speed>
</trkpt>
<trkpt lat="42.965702" lon="19.089619">
<ele>880.195801</ele>
<time>2012-05-02T05:02:07Z</time>
<desc>lat.=42.965702, lon.=19.089619, Alt.=880.195801m. Speed=73.403999m/h.</desc>
<speed>20.390000</speed>
</trkpt>
<trkpt lat="42.964897" lon="19.089993">
<ele>874.664551</ele>
<time>2012-05-02T05:02:12Z</time>
<desc>lat.=42.964897, lon.=19.089993, Alt.=874.664551m. Speed=66.239998m/h.</desc>
<speed>18.399999</speed>
</trkpt>
<trkpt lat="42.964252" lon="19.090729">
<ele>869.242676</ele>
<time>2012-05-02T05:02:17Z</time>
<desc>lat.=42.964252, lon.=19.090729, Alt.=869.242676m. Speed=68.615997m/h.</desc>
<speed>19.059999</speed>
</trkpt>
<trkpt lat="42.963509" lon="19.091290">
<ele>863.617676</ele>
<time>2012-05-02T05:02:22Z</time>
<desc>lat.=42.963509, lon.=19.091290, Alt.=863.617676m. Speed=67.500000m/h.</desc>
<speed>18.750000</speed>
</trkpt>
<trkpt lat="42.962742" lon="19.091616">
<ele>858.445801</ele>
<time>2012-05-02T05:02:27Z</time>
<desc>lat.=42.962742, lon.=19.091616, Alt.=858.445801m. Speed=62.279999m/h.</desc>
<speed>17.300000</speed>
</trkpt>
<trkpt lat="42.962147" lon="19.092316">
<ele>853.430176</ele>
<time>2012-05-02T05:02:32Z</time>
<desc>lat.=42.962147, lon.=19.092316, Alt.=853.430176m. Speed=64.223999m/h.</desc>
<speed>17.840000</speed>
</trkpt>
<trkpt lat="42.961555" lon="19.093037">
<ele>849.961426</ele>
<time>2012-05-02T05:02:37Z</time>
<desc>lat.=42.961555, lon.=19.093037, Alt.=849.961426m. Speed=63.144001m/h.</desc>
<speed>17.540000</speed>
</trkpt>
<trkpt lat="42.960812" lon="19.093277">
<ele>847.805176</ele>
<time>2012-05-02T05:02:42Z</time>
<desc>lat.=42.960812, lon.=19.093277, Alt.=847.805176m. Speed=59.832001m/h.</desc>
<speed>16.620000</speed>
</trkpt>
<trkpt lat="42.960098" lon="19.093363">
<ele>846.523926</ele>
<time>2012-05-02T05:02:47Z</time>
<desc>lat.=42.960098, lon.=19.093363, Alt.=846.523926m. Speed=53.675999m/h.</desc>
<speed>14.910000</speed>
</trkpt>
<trkpt lat="42.959499" lon="19.093685">
<ele>845.133301</ele>
<time>2012-05-02T05:02:52Z</time>
<desc>lat.=42.959499, lon.=19.093685, Alt.=845.133301m. Speed=50.112000m/h.</desc>
<speed>13.920000</speed>
</trkpt>
<trkpt lat="42.958977" lon="19.094130">
<ele>842.352051</ele>
<time>2012-05-02T05:02:57Z</time>
<desc>lat.=42.958977, lon.=19.094130, Alt.=842.352051m. Speed=47.340000m/h.</desc>
<speed>13.150000</speed>
</trkpt>
<trkpt lat="42.958511" lon="19.094507">
<ele>840.508301</ele>
<time>2012-05-02T05:03:02Z</time>
<desc>lat.=42.958511, lon.=19.094507, Alt.=840.508301m. Speed=42.155998m/h.</desc>
<speed>11.710000</speed>
</trkpt>
<trkpt lat="42.958031" lon="19.094795">
<ele>837.227051</ele>
<time>2012-05-02T05:03:07Z</time>
<desc>lat.=42.958031, lon.=19.094795, Alt.=837.227051m. Speed=39.563999m/h.</desc>
<speed>10.990000</speed>
</trkpt>
<trkpt lat="42.957691" lon="19.095051">
<ele>835.977051</ele>
<time>2012-05-02T05:03:12Z</time>
<desc>lat.=42.957691, lon.=19.095051, Alt.=835.977051m. Speed=23.580000m/h.</desc>
<speed>6.550000</speed>
</trkpt>
<trkpt lat="42.957653" lon="19.095467">
<ele>835.430176</ele>
<time>2012-05-02T05:03:17Z</time>
<desc>lat.=42.957653, lon.=19.095467, Alt.=835.430176m. Speed=28.260000m/h.</desc>
<speed>7.850000</speed>
</trkpt>
<trkpt lat="42.957676" lon="19.095961">
<ele>833.992676</ele>
<time>2012-05-02T05:03:22Z</time>
<desc>lat.=42.957676, lon.=19.095961, Alt.=833.992676m. Speed=28.944000m/h.</desc>
<speed>8.040000</speed>
</trkpt>
<trkpt lat="42.957703" lon="19.096384">
<ele>832.727051</ele>
<time>2012-05-02T05:03:27Z</time>
<desc>lat.=42.957703, lon.=19.096384, Alt.=832.727051m. Speed=15.264000m/h.</desc>
<speed>4.240000</speed>
</trkpt>
<trkpt lat="42.957588" lon="19.096539">
<ele>832.430176</ele>
<time>2012-05-02T05:03:32Z</time>
<desc>lat.=42.957588, lon.=19.096539, Alt.=832.430176m. Speed=16.596001m/h.</desc>
<speed>4.610000</speed>
</trkpt>
<trkpt lat="42.957371" lon="19.096617">
<ele>831.852051</ele>
<time>2012-05-02T05:03:37Z</time>
<desc>lat.=42.957371, lon.=19.096617, Alt.=831.852051m. Speed=17.964001m/h.</desc>
<speed>4.990000</speed>
</trkpt>
<trkpt lat="42.957233" lon="19.096354">
<ele>831.367676</ele>
<time>2012-05-02T05:03:42Z</time>
<desc>lat.=42.957233, lon.=19.096354, Alt.=831.367676m. Speed=20.340000m/h.</desc>
<speed>5.650000</speed>
</trkpt>
<trkpt lat="42.957031" lon="19.096069">
<ele>829.445801</ele>
<time>2012-05-02T05:03:47Z</time>
<desc>lat.=42.957031, lon.=19.096069, Alt.=829.445801m. Speed=26.424000m/h.</desc>
<speed>7.340000</speed>
</trkpt>
<trkpt lat="42.956684" lon="19.096045">
<ele>828.211426</ele>
<time>2012-05-02T05:03:52Z</time>
<desc>lat.=42.956684, lon.=19.096045, Alt.=828.211426m. Speed=32.868000m/h.</desc>
<speed>9.130000</speed>
</trkpt>
<trkpt lat="42.956272" lon="19.096416">
<ele>827.805176</ele>
<time>2012-05-02T05:03:57Z</time>
<desc>lat.=42.956272, lon.=19.096416, Alt.=827.805176m. Speed=44.388000m/h.</desc>
<speed>12.330000</speed>
</trkpt>
<trkpt lat="42.955761" lon="19.096941">
<ele>828.477051</ele>
<time>2012-05-02T05:04:02Z</time>
<desc>lat.=42.955761, lon.=19.096941, Alt.=828.477051m. Speed=56.556000m/h.</desc>
<speed>15.710000</speed>
</trkpt>
<trkpt lat="42.955097" lon="19.097446">
<ele>830.836426</ele>
<time>2012-05-02T05:04:07Z</time>
<desc>lat.=42.955097, lon.=19.097446, Alt.=830.836426m. Speed=58.751999m/h.</desc>
<speed>16.320000</speed>
</trkpt>
<trkpt lat="42.954468" lon="19.097836">
<ele>833.461426</ele>
<time>2012-05-02T05:04:12Z</time>
<desc>lat.=42.954468, lon.=19.097836, Alt.=833.461426m. Speed=51.012001m/h.</desc>
<speed>14.170000</speed>
</trkpt>
<trkpt lat="42.953922" lon="19.098021">
<ele>836.305176</ele>
<time>2012-05-02T05:04:17Z</time>
<desc>lat.=42.953922, lon.=19.098021, Alt.=836.305176m. Speed=39.132000m/h.</desc>
<speed>10.870000</speed>
</trkpt>
<trkpt lat="42.953487" lon="19.097916">
<ele>839.398926</ele>
<time>2012-05-02T05:04:22Z</time>
<desc>lat.=42.953487, lon.=19.097916, Alt.=839.398926m. Speed=32.507999m/h.</desc>
<speed>9.030000</speed>
</trkpt>
<trkpt lat="42.953117" lon="19.098011">
<ele>842.164551</ele>
<time>2012-05-02T05:04:27Z</time>
<desc>lat.=42.953117, lon.=19.098011, Alt.=842.164551m. Speed=31.968000m/h.</desc>
<speed>8.880000</speed>
</trkpt>
<trkpt lat="42.952774" lon="19.098272">
<ele>844.773926</ele>
<time>2012-05-02T05:04:32Z</time>
<desc>lat.=42.952774, lon.=19.098272, Alt.=844.773926m. Speed=31.968000m/h.</desc>
<speed>8.880000</speed>
</trkpt>
<trkpt lat="42.952435" lon="19.098564">
<ele>847.164551</ele>
<time>2012-05-02T05:04:37Z</time>
<desc>lat.=42.952435, lon.=19.098564, Alt.=847.164551m. Speed=29.736000m/h.</desc>
<speed>8.260000</speed>
</trkpt>
<trkpt lat="42.952164" lon="19.098888">
<ele>847.773926</ele>
<time>2012-05-02T05:04:42Z</time>
<desc>lat.=42.952164, lon.=19.098888, Alt.=847.773926m. Speed=29.952000m/h.</desc>
<speed>8.320000</speed>
</trkpt>
<trkpt lat="42.951763" lon="19.099167">
<ele>847.305176</ele>
<time>2012-05-02T05:04:47Z</time>
<desc>lat.=42.951763, lon.=19.099167, Alt.=847.305176m. Speed=39.276001m/h.</desc>
<speed>10.910000</speed>
</trkpt>
<trkpt lat="42.951271" lon="19.099417">
<ele>846.180176</ele>
<time>2012-05-02T05:04:52Z</time>
<desc>lat.=42.951271, lon.=19.099417, Alt.=846.180176m. Speed=41.723999m/h.</desc>
<speed>11.590000</speed>
</trkpt>
<trkpt lat="42.950813" lon="19.099731">
<ele>844.773926</ele>
<time>2012-05-02T05:04:57Z</time>
<desc>lat.=42.950813, lon.=19.099731, Alt.=844.773926m. Speed=39.096001m/h.</desc>
<speed>10.860000</speed>
</trkpt>
<trkpt lat="42.950405" lon="19.099962">
<ele>843.648926</ele>
<time>2012-05-02T05:05:02Z</time>
<desc>lat.=42.950405, lon.=19.099962, Alt.=843.648926m. Speed=32.004002m/h.</desc>
<speed>8.890000</speed>
</trkpt>
<trkpt lat="42.950039" lon="19.099861">
<ele>842.898926</ele>
<time>2012-05-02T05:05:07Z</time>
<desc>lat.=42.950039, lon.=19.099861, Alt.=842.898926m. Speed=27.323999m/h.</desc>
<speed>7.590000</speed>
</trkpt>
<trkpt lat="42.949825" lon="19.099543">
<ele>842.789551</ele>
<time>2012-05-02T05:05:12Z</time>
<desc>lat.=42.949825, lon.=19.099543, Alt.=842.789551m. Speed=27.108000m/h.</desc>
<speed>7.530000</speed>
</trkpt>
<trkpt lat="42.950031" lon="19.099171">
<ele>844.430176</ele>
<time>2012-05-02T05:05:17Z</time>
<desc>lat.=42.950031, lon.=19.099171, Alt.=844.430176m. Speed=31.104000m/h.</desc>
<speed>8.640000</speed>
</trkpt>
<trkpt lat="42.950466" lon="19.099110">
<ele>846.633301</ele>
<time>2012-05-02T05:05:22Z</time>
<desc>lat.=42.950466, lon.=19.099110, Alt.=846.633301m. Speed=37.296001m/h.</desc>
<speed>10.360000</speed>
</trkpt>
<trkpt lat="42.950844" lon="19.098696">
<ele>849.867676</ele>
<time>2012-05-02T05:05:27Z</time>
<desc>lat.=42.950844, lon.=19.098696, Alt.=849.867676m. Speed=39.492001m/h.</desc>
<speed>10.970000</speed>
</trkpt>
<trkpt lat="42.951225" lon="19.098284">
<ele>852.820801</ele>
<time>2012-05-02T05:05:32Z</time>
<desc>lat.=42.951225, lon.=19.098284, Alt.=852.820801m. Speed=37.872002m/h.</desc>
<speed>10.520000</speed>
</trkpt>
<trkpt lat="42.951595" lon="19.097931">
<ele>855.883301</ele>
<time>2012-05-02T05:05:37Z</time>
<desc>lat.=42.951595, lon.=19.097931, Alt.=855.883301m. Speed=36.827999m/h.</desc>
<speed>10.230000</speed>
</trkpt>
<trkpt lat="42.951698" lon="19.097281">
<ele>859.305176</ele>
<time>2012-05-02T05:05:42Z</time>
<desc>lat.=42.951698, lon.=19.097281, Alt.=859.305176m. Speed=40.787998m/h.</desc>
<speed>11.329999</speed>
</trkpt>
<trkpt lat="42.951870" lon="19.096643">
<ele>862.695801</ele>
<time>2012-05-02T05:05:47Z</time>
<desc>lat.=42.951870, lon.=19.096643, Alt.=862.695801m. Speed=40.391998m/h.</desc>
<speed>11.220000</speed>
</trkpt>
<trkpt lat="42.952187" lon="19.096109">
<ele>865.836426</ele>
<time>2012-05-02T05:05:52Z</time>
<desc>lat.=42.952187, lon.=19.096109, Alt.=865.836426m. Speed=39.563999m/h.</desc>
<speed>10.990000</speed>
</trkpt>
<trkpt lat="42.952461" lon="19.095604">
<ele>869.414551</ele>
<time>2012-05-02T05:05:57Z</time>
<desc>lat.=42.952461, lon.=19.095604, Alt.=869.414551m. Speed=31.643999m/h.</desc>
<speed>8.790000</speed>
</trkpt>
<trkpt lat="42.952381" lon="19.095079">
<ele>871.539551</ele>
<time>2012-05-02T05:06:02Z</time>
<desc>lat.=42.952381, lon.=19.095079, Alt.=871.539551m. Speed=34.056000m/h.</desc>
<speed>9.460000</speed>
</trkpt>
<trkpt lat="42.952232" lon="19.094585">
<ele>874.820801</ele>
<time>2012-05-02T05:06:07Z</time>
<desc>lat.=42.952232, lon.=19.094585, Alt.=874.820801m. Speed=25.992001m/h.</desc>
<speed>7.220000</speed>
</trkpt>
<trkpt lat="42.952171" lon="19.094213">
<ele>877.320801</ele>
<time>2012-05-02T05:06:12Z</time>
<desc>lat.=42.952171, lon.=19.094213, Alt.=877.320801m. Speed=20.844000m/h.</desc>
<speed>5.790000</speed>
</trkpt>
<trkpt lat="42.951962" lon="19.094290">
<ele>879.508301</ele>
<time>2012-05-02T05:06:17Z</time>
<desc>lat.=42.951962, lon.=19.094290, Alt.=879.508301m. Speed=24.372000m/h.</desc>
<speed>6.770000</speed>
</trkpt>
<trkpt lat="42.952023" lon="19.094807">
<ele>881.289551</ele>
<time>2012-05-02T05:06:22Z</time>
<desc>lat.=42.952023, lon.=19.094807, Alt.=881.289551m. Speed=32.507999m/h.</desc>
<speed>9.030000</speed>
</trkpt>
<trkpt lat="42.951942" lon="19.095369">
<ele>885.695801</ele>
<time>2012-05-02T05:06:27Z</time>
<desc>lat.=42.951942, lon.=19.095369, Alt.=885.695801m. Speed=33.911999m/h.</desc>
<speed>9.420000</speed>
</trkpt>
<trkpt lat="42.951576" lon="19.095793">
<ele>888.555176</ele>
<time>2012-05-02T05:06:32Z</time>
<desc>lat.=42.951576, lon.=19.095793, Alt.=888.555176m. Speed=39.060001m/h.</desc>
<speed>10.850000</speed>
</trkpt>
<trkpt lat="42.951172" lon="19.095947">
<ele>890.742676</ele>
<time>2012-05-02T05:06:37Z</time>
<desc>lat.=42.951172, lon.=19.095947, Alt.=890.742676m. Speed=30.024000m/h.</desc>
<speed>8.340000</speed>
</trkpt>
<trkpt lat="42.950916" lon="19.096312">
<ele>892.430176</ele>
<time>2012-05-02T05:06:42Z</time>
<desc>lat.=42.950916, lon.=19.096312, Alt.=892.430176m. Speed=33.731998m/h.</desc>
<speed>9.370000</speed>
</trkpt>
<trkpt lat="42.950752" lon="19.096861">
<ele>895.680176</ele>
<time>2012-05-02T05:06:47Z</time>
<desc>lat.=42.950752, lon.=19.096861, Alt.=895.680176m. Speed=33.515999m/h.</desc>
<speed>9.310000</speed>
</trkpt>
<trkpt lat="42.950302" lon="19.097036">
<ele>898.055176</ele>
<time>2012-05-02T05:06:52Z</time>
<desc>lat.=42.950302, lon.=19.097036, Alt.=898.055176m. Speed=42.948002m/h.</desc>
<speed>11.930001</speed>
</trkpt>
<trkpt lat="42.949715" lon="19.097115">
<ele>899.789551</ele>
<time>2012-05-02T05:06:57Z</time>
<desc>lat.=42.949715, lon.=19.097115, Alt.=899.789551m. Speed=49.787998m/h.</desc>
<speed>13.829999</speed>
</trkpt>
<trkpt lat="42.949123" lon="19.097088">
<ele>901.602051</ele>
<time>2012-05-02T05:07:02Z</time>
<desc>lat.=42.949123, lon.=19.097088, Alt.=901.602051m. Speed=46.980000m/h.</desc>
<speed>13.050000</speed>
</trkpt>
<trkpt lat="42.948563" lon="19.097214">
<ele>904.773926</ele>
<time>2012-05-02T05:07:07Z</time>
<desc>lat.=42.948563, lon.=19.097214, Alt.=904.773926m. Speed=41.220001m/h.</desc>
<speed>11.450000</speed>
</trkpt>
<trkpt lat="42.948235" lon="19.097666">
<ele>907.414551</ele>
<time>2012-05-02T05:07:12Z</time>
<desc>lat.=42.948235, lon.=19.097666, Alt.=907.414551m. Speed=38.987999m/h.</desc>
<speed>10.830000</speed>
</trkpt>
<trkpt lat="42.948097" lon="19.098322">
<ele>910.617676</ele>
<time>2012-05-02T05:07:17Z</time>
<desc>lat.=42.948097, lon.=19.098322, Alt.=910.617676m. Speed=37.655998m/h.</desc>
<speed>10.460000</speed>
</trkpt>
<trkpt lat="42.947742" lon="19.098766">
<ele>914.602051</ele>
<time>2012-05-02T05:07:22Z</time>
<desc>lat.=42.947742, lon.=19.098766, Alt.=914.602051m. Speed=37.872002m/h.</desc>
<speed>10.520000</speed>
</trkpt>
<trkpt lat="42.947426" lon="19.099152">
<ele>919.258301</ele>
<time>2012-05-02T05:07:27Z</time>
<desc>lat.=42.947426, lon.=19.099152, Alt.=919.258301m. Speed=28.584000m/h.</desc>
<speed>7.940000</speed>
</trkpt>
<trkpt lat="42.947342" lon="19.099590">
<ele>921.898926</ele>
<time>2012-05-02T05:07:32Z</time>
<desc>lat.=42.947342, lon.=19.099590, Alt.=921.898926m. Speed=27.000000m/h.</desc>
<speed>7.500000</speed>
</trkpt>
<trkpt lat="42.947315" lon="19.099958">
<ele>923.539551</ele>
<time>2012-05-02T05:07:37Z</time>
<desc>lat.=42.947315, lon.=19.099958, Alt.=923.539551m. Speed=14.436000m/h.</desc>
<speed>4.010000</speed>
</trkpt>
<trkpt lat="42.947208" lon="19.099886">
<ele>924.336426</ele>
<time>2012-05-02T05:07:42Z</time>
<desc>lat.=42.947208, lon.=19.099886, Alt.=924.336426m. Speed=13.500000m/h.</desc>
<speed>3.750000</speed>
</trkpt>
<trkpt lat="42.947235" lon="19.099401">
<ele>925.477051</ele>
<time>2012-05-02T05:07:47Z</time>
<desc>lat.=42.947235, lon.=19.099401, Alt.=925.477051m. Speed=32.652000m/h.</desc>
<speed>9.070000</speed>
</trkpt>
<trkpt lat="42.947262" lon="19.098740">
<ele>928.789551</ele>
<time>2012-05-02T05:07:52Z</time>
<desc>lat.=42.947262, lon.=19.098740, Alt.=928.789551m. Speed=38.771999m/h.</desc>
<speed>10.770000</speed>
</trkpt>
<trkpt lat="42.947430" lon="19.098125">
<ele>933.102051</ele>
<time>2012-05-02T05:07:57Z</time>
<desc>lat.=42.947430, lon.=19.098125, Alt.=933.102051m. Speed=38.375999m/h.</desc>
<speed>10.660000</speed>
</trkpt>
<trkpt lat="42.947483" lon="19.097469">
<ele>936.055176</ele>
<time>2012-05-02T05:08:02Z</time>
<desc>lat.=42.947483, lon.=19.097469, Alt.=936.055176m. Speed=42.408001m/h.</desc>
<speed>11.780000</speed>
</trkpt>
<trkpt lat="42.947823" lon="19.096746">
<ele>940.367676</ele>
<time>2012-05-02T05:08:07Z</time>
<desc>lat.=42.947823, lon.=19.096746, Alt.=940.367676m. Speed=54.647999m/h.</desc>
<speed>15.180000</speed>
</trkpt>
<trkpt lat="42.948185" lon="19.095940">
<ele>944.742676</ele>
<time>2012-05-02T05:08:12Z</time>
<desc>lat.=42.948185, lon.=19.095940, Alt.=944.742676m. Speed=52.956001m/h.</desc>
<speed>14.710000</speed>
</trkpt>
<trkpt lat="42.948635" lon="19.095379">
<ele>948.961426</ele>
<time>2012-05-02T05:08:17Z</time>
<desc>lat.=42.948635, lon.=19.095379, Alt.=948.961426m. Speed=42.299999m/h.</desc>
<speed>11.750000</speed>
</trkpt>
<trkpt lat="42.949074" lon="19.095324">
<ele>951.867676</ele>
<time>2012-05-02T05:08:22Z</time>
<desc>lat.=42.949074, lon.=19.095324, Alt.=951.867676m. Speed=32.652000m/h.</desc>
<speed>9.070000</speed>
</trkpt>
<trkpt lat="42.949444" lon="19.095165">
<ele>954.695801</ele>
<time>2012-05-02T05:08:27Z</time>
<desc>lat.=42.949444, lon.=19.095165, Alt.=954.695801m. Speed=27.900000m/h.</desc>
<speed>7.750000</speed>
</trkpt>
<trkpt lat="42.949505" lon="19.094902">
<ele>956.617676</ele>
<time>2012-05-02T05:08:32Z</time>
<desc>lat.=42.949505, lon.=19.094902, Alt.=956.617676m. Speed=17.424000m/h.</desc>
<speed>4.840000</speed>
</trkpt>
<trkpt lat="42.949245" lon="19.094995">
<ele>958.227051</ele>
<time>2012-05-02T05:08:37Z</time>
<desc>lat.=42.949245, lon.=19.094995, Alt.=958.227051m. Speed=25.488001m/h.</desc>
<speed>7.080000</speed>
</trkpt>
<trkpt lat="42.948929" lon="19.094931">
<ele>960.102051</ele>
<time>2012-05-02T05:08:42Z</time>
<desc>lat.=42.948929, lon.=19.094931, Alt.=960.102051m. Speed=29.087999m/h.</desc>
<speed>8.080000</speed>
</trkpt>
<trkpt lat="42.948559" lon="19.094839">
<ele>963.102051</ele>
<time>2012-05-02T05:08:47Z</time>
<desc>lat.=42.948559, lon.=19.094839, Alt.=963.102051m. Speed=35.639999m/h.</desc>
<speed>9.900000</speed>
</trkpt>
<trkpt lat="42.948109" lon="19.095078">
<ele>966.195801</ele>
<time>2012-05-02T05:08:52Z</time>
<desc>lat.=42.948109, lon.=19.095078, Alt.=966.195801m. Speed=35.243999m/h.</desc>
<speed>9.790000</speed>
</trkpt>
<trkpt lat="42.947819" lon="19.095402">
<ele>967.977051</ele>
<time>2012-05-02T05:08:57Z</time>
<desc>lat.=42.947819, lon.=19.095402, Alt.=967.977051m. Speed=23.400000m/h.</desc>
<speed>6.500000</speed>
</trkpt>
<trkpt lat="42.947647" lon="19.095522">
<ele>968.992676</ele>
<time>2012-05-02T05:09:02Z</time>
<desc>lat.=42.947647, lon.=19.095522, Alt.=968.992676m. Speed=13.356000m/h.</desc>
<speed>3.710000</speed>
</trkpt>
<trkpt lat="42.947727" lon="19.095274">
<ele>969.586426</ele>
<time>2012-05-02T05:09:07Z</time>
<desc>lat.=42.947727, lon.=19.095274, Alt.=969.586426m. Speed=23.760000m/h.</desc>
<speed>6.600000</speed>
</trkpt>
<trkpt lat="42.948025" lon="19.094942">
<ele>971.195801</ele>
<time>2012-05-02T05:09:12Z</time>
<desc>lat.=42.948025, lon.=19.094942, Alt.=971.195801m. Speed=32.076000m/h.</desc>
<speed>8.910000</speed>
</trkpt>
<trkpt lat="42.948349" lon="19.094501">
<ele>973.961426</ele>
<time>2012-05-02T05:09:17Z</time>
<desc>lat.=42.948349, lon.=19.094501, Alt.=973.961426m. Speed=37.296001m/h.</desc>
<speed>10.360000</speed>
</trkpt>
<trkpt lat="42.948730" lon="19.094170">
<ele>977.523926</ele>
<time>2012-05-02T05:09:22Z</time>
<desc>lat.=42.948730, lon.=19.094170, Alt.=977.523926m. Speed=33.192001m/h.</desc>
<speed>9.220000</speed>
</trkpt>
<trkpt lat="42.949043" lon="19.093891">
<ele>980.367676</ele>
<time>2012-05-02T05:09:27Z</time>
<desc>lat.=42.949043, lon.=19.093891, Alt.=980.367676m. Speed=29.483999m/h.</desc>
<speed>8.190000</speed>
</trkpt>
<trkpt lat="42.949135" lon="19.093386">
<ele>982.289551</ele>
<time>2012-05-02T05:09:32Z</time>
<desc>lat.=42.949135, lon.=19.093386, Alt.=982.289551m. Speed=29.052000m/h.</desc>
<speed>8.070000</speed>
</trkpt>
<trkpt lat="42.949417" lon="19.093149">
<ele>984.711426</ele>
<time>2012-05-02T05:09:37Z</time>
<desc>lat.=42.949417, lon.=19.093149, Alt.=984.711426m. Speed=24.768000m/h.</desc>
<speed>6.880000</speed>
</trkpt>
<trkpt lat="42.949490" lon="19.092873">
<ele>986.305176</ele>
<time>2012-05-02T05:09:42Z</time>
<desc>lat.=42.949490, lon.=19.092873, Alt.=986.305176m. Speed=20.952000m/h.</desc>
<speed>5.820000</speed>
</trkpt>
<trkpt lat="42.949215" lon="19.093010">
<ele>987.445801</ele>
<time>2012-05-02T05:09:47Z</time>
<desc>lat.=42.949215, lon.=19.093010, Alt.=987.445801m. Speed=30.312000m/h.</desc>
<speed>8.420000</speed>
</trkpt>
<trkpt lat="42.948792" lon="19.093407">
<ele>990.273926</ele>
<time>2012-05-02T05:09:52Z</time>
<desc>lat.=42.948792, lon.=19.093407, Alt.=990.273926m. Speed=43.380001m/h.</desc>
<speed>12.050000</speed>
</trkpt>
<trkpt lat="42.948238" lon="19.093687">
<ele>993.102051</ele>
<time>2012-05-02T05:09:57Z</time>
<desc>lat.=42.948238, lon.=19.093687, Alt.=993.102051m. Speed=47.268002m/h.</desc>
<speed>13.130000</speed>
</trkpt>
<trkpt lat="42.947716" lon="19.094141">
<ele>996.664551</ele>
<time>2012-05-02T05:10:02Z</time>
<desc>lat.=42.947716, lon.=19.094141, Alt.=996.664551m. Speed=47.844002m/h.</desc>
<speed>13.290000</speed>
</trkpt>
<trkpt lat="42.947231" lon="19.094397">
<ele>999.680176</ele>
<time>2012-05-02T05:10:07Z</time>
<desc>lat.=42.947231, lon.=19.094397, Alt.=999.680176m. Speed=34.416000m/h.</desc>
<speed>9.560000</speed>
</trkpt>
<trkpt lat="42.946938" lon="19.094673">
<ele>1002.148926</ele>
<time>2012-05-02T05:10:12Z</time>
<desc>lat.=42.946938, lon.=19.094673, Alt.=1002.148926m. Speed=22.608000m/h.</desc>
<speed>6.280000</speed>
</trkpt>
<trkpt lat="42.946785" lon="19.094805">
<ele>1003.117676</ele>
<time>2012-05-02T05:10:17Z</time>
<desc>lat.=42.946785, lon.=19.094805, Alt.=1003.117676m. Speed=14.400000m/h.</desc>
<speed>4.000000</speed>
</trkpt>
<trkpt lat="42.946846" lon="19.094511">
<ele>1003.742676</ele>
<time>2012-05-02T05:10:22Z</time>
<desc>lat.=42.946846, lon.=19.094511, Alt.=1003.742676m. Speed=25.992001m/h.</desc>
<speed>7.220000</speed>
</trkpt>
<trkpt lat="42.947094" lon="19.094097">
<ele>1005.836426</ele>
<time>2012-05-02T05:10:27Z</time>
<desc>lat.=42.947094, lon.=19.094097, Alt.=1005.836426m. Speed=32.796001m/h.</desc>
<speed>9.110000</speed>
</trkpt>
<trkpt lat="42.947445" lon="19.093632">
<ele>1009.023926</ele>
<time>2012-05-02T05:10:32Z</time>
<desc>lat.=42.947445, lon.=19.093632, Alt.=1009.023926m. Speed=43.848000m/h.</desc>
<speed>12.180000</speed>
</trkpt>
<trkpt lat="42.947922" lon="19.093180">
<ele>1012.055176</ele>
<time>2012-05-02T05:10:37Z</time>
<desc>lat.=42.947922, lon.=19.093180, Alt.=1012.055176m. Speed=47.700001m/h.</desc>
<speed>13.250000</speed>
</trkpt>
<trkpt lat="42.948280" lon="19.092432">
<ele>1015.039551</ele>
<time>2012-05-02T05:10:42Z</time>
<desc>lat.=42.948280, lon.=19.092432, Alt.=1015.039551m. Speed=52.344002m/h.</desc>
<speed>14.540000</speed>
</trkpt>
<trkpt lat="42.948597" lon="19.091816">
<ele>1018.414551</ele>
<time>2012-05-02T05:10:47Z</time>
<desc>lat.=42.948597, lon.=19.091816, Alt.=1018.414551m. Speed=32.616001m/h.</desc>
<speed>9.060000</speed>
</trkpt>
<trkpt lat="42.948853" lon="19.091675">
<ele>1020.352051</ele>
<time>2012-05-02T05:10:52Z</time>
<desc>lat.=42.948853, lon.=19.091675, Alt.=1020.352051m. Speed=15.480000m/h.</desc>
<speed>4.300000</speed>
</trkpt>
<trkpt lat="42.948681" lon="19.091516">
<ele>1021.242676</ele>
<time>2012-05-02T05:10:57Z</time>
<desc>lat.=42.948681, lon.=19.091516, Alt.=1021.242676m. Speed=26.747999m/h.</desc>
<speed>7.430000</speed>
</trkpt>
<trkpt lat="42.948322" lon="19.091751">
<ele>1023.961426</ele>
<time>2012-05-02T05:11:02Z</time>
<desc>lat.=42.948322, lon.=19.091751, Alt.=1023.961426m. Speed=36.108002m/h.</desc>
<speed>10.030000</speed>
</trkpt>
<trkpt lat="42.947933" lon="19.092209">
<ele>1027.422852</ele>
<time>2012-05-02T05:11:07Z</time>
<desc>lat.=42.947933, lon.=19.092209, Alt.=1027.422852m. Speed=41.976002m/h.</desc>
<speed>11.660000</speed>
</trkpt>
<trkpt lat="42.947563" lon="19.092579">
<ele>1030.235352</ele>
<time>2012-05-02T05:11:12Z</time>
<desc>lat.=42.947563, lon.=19.092579, Alt.=1030.235352m. Speed=38.448002m/h.</desc>
<speed>10.680001</speed>
</trkpt>
<trkpt lat="42.947048" lon="19.092762">
<ele>1034.297852</ele>
<time>2012-05-02T05:11:17Z</time>
<desc>lat.=42.947048, lon.=19.092762, Alt.=1034.297852m. Speed=42.155998m/h.</desc>
<speed>11.710000</speed>
</trkpt>
<trkpt lat="42.946541" lon="19.092821">
<ele>1035.954102</ele>
<time>2012-05-02T05:11:22Z</time>
<desc>lat.=42.946541, lon.=19.092821, Alt.=1035.954102m. Speed=38.160000m/h.</desc>
<speed>10.600000</speed>
</trkpt>
<trkpt lat="42.946140" lon="19.092863">
<ele>1035.735352</ele>
<time>2012-05-02T05:11:27Z</time>
<desc>lat.=42.946140, lon.=19.092863, Alt.=1035.735352m. Speed=29.124001m/h.</desc>
<speed>8.090000</speed>
</trkpt>
<trkpt lat="42.945919" lon="19.093245">
<ele>1038.047852</ele>
<time>2012-05-02T05:11:32Z</time>
<desc>lat.=42.945919, lon.=19.093245, Alt.=1038.047852m. Speed=19.548000m/h.</desc>
<speed>5.430000</speed>
</trkpt>
<trkpt lat="42.945827" lon="19.093121">
<ele>1040.047852</ele>
<time>2012-05-02T05:11:37Z</time>
<desc>lat.=42.945827, lon.=19.093121, Alt.=1040.047852m. Speed=18.180000m/h.</desc>
<speed>5.050000</speed>
</trkpt>
<trkpt lat="42.945980" lon="19.092730">
<ele>1041.547852</ele>
<time>2012-05-02T05:11:42Z</time>
<desc>lat.=42.945980, lon.=19.092730, Alt.=1041.547852m. Speed=27.576000m/h.</desc>
<speed>7.660000</speed>
</trkpt>
<trkpt lat="42.946228" lon="19.092405">
<ele>1044.735352</ele>
<time>2012-05-02T05:11:47Z</time>
<desc>lat.=42.946228, lon.=19.092405, Alt.=1044.735352m. Speed=29.879999m/h.</desc>
<speed>8.300000</speed>
</trkpt>
<trkpt lat="42.946655" lon="19.092319">
<ele>1047.110352</ele>
<time>2012-05-02T05:11:52Z</time>
<desc>lat.=42.946655, lon.=19.092319, Alt.=1047.110352m. Speed=35.316002m/h.</desc>
<speed>9.810001</speed>
</trkpt>
<trkpt lat="42.947044" lon="19.092003">
<ele>1050.047852</ele>
<time>2012-05-02T05:11:57Z</time>
<desc>lat.=42.947044, lon.=19.092003, Alt.=1050.047852m. Speed=38.268002m/h.</desc>
<speed>10.630000</speed>
</trkpt>
<trkpt lat="42.947384" lon="19.091555">
<ele>1052.360352</ele>
<time>2012-05-02T05:12:02Z</time>
<desc>lat.=42.947384, lon.=19.091555, Alt.=1052.360352m. Speed=38.664001m/h.</desc>
<speed>10.740000</speed>
</trkpt>
<trkpt lat="42.947628" lon="19.090965">
<ele>1055.610352</ele>
<time>2012-05-02T05:12:07Z</time>
<desc>lat.=42.947628, lon.=19.090965, Alt.=1055.610352m. Speed=38.304001m/h.</desc>
<speed>10.640000</speed>
</trkpt>
<trkpt lat="42.947960" lon="19.090502">
<ele>1059.110352</ele>
<time>2012-05-02T05:12:12Z</time>
<desc>lat.=42.947960, lon.=19.090502, Alt.=1059.110352m. Speed=39.023998m/h.</desc>
<speed>10.840000</speed>
</trkpt>
<trkpt lat="42.948399" lon="19.090235">
<ele>1062.079102</ele>
<time>2012-05-02T05:12:17Z</time>
<desc>lat.=42.948399, lon.=19.090235, Alt.=1062.079102m. Speed=36.972000m/h.</desc>
<speed>10.270000</speed>
</trkpt>
<trkpt lat="42.948750" lon="19.089947">
<ele>1064.797852</ele>
<time>2012-05-02T05:12:22Z</time>
<desc>lat.=42.948750, lon.=19.089947, Alt.=1064.797852m. Speed=33.551998m/h.</desc>
<speed>9.319999</speed>
</trkpt>
<trkpt lat="42.948898" lon="19.089401">
<ele>1067.485352</ele>
<time>2012-05-02T05:12:27Z</time>
<desc>lat.=42.948898, lon.=19.089401, Alt.=1067.485352m. Speed=32.616001m/h.</desc>
<speed>9.060000</speed>
</trkpt>
<trkpt lat="42.949322" lon="19.089317">
<ele>1069.922852</ele>
<time>2012-05-02T05:12:32Z</time>
<desc>lat.=42.949322, lon.=19.089317, Alt.=1069.922852m. Speed=41.400002m/h.</desc>
<speed>11.500000</speed>
</trkpt>
<trkpt lat="42.949905" lon="19.089388">
<ele>1072.860352</ele>
<time>2012-05-02T05:12:37Z</time>
<desc>lat.=42.949905, lon.=19.089388, Alt.=1072.860352m. Speed=46.332001m/h.</desc>
<speed>12.870000</speed>
</trkpt>
<trkpt lat="42.950401" lon="19.089361">
<ele>1077.047852</ele>
<time>2012-05-02T05:12:42Z</time>
<desc>lat.=42.950401, lon.=19.089361, Alt.=1077.047852m. Speed=33.660000m/h.</desc>
<speed>9.350000</speed>
</trkpt>
<trkpt lat="42.950634" lon="19.088907">
<ele>1079.079102</ele>
<time>2012-05-02T05:12:47Z</time>
<desc>lat.=42.950634, lon.=19.088907, Alt.=1079.079102m. Speed=33.084000m/h.</desc>
<speed>9.190000</speed>
</trkpt>
<trkpt lat="42.950504" lon="19.088327">
<ele>1081.329102</ele>
<time>2012-05-02T05:12:52Z</time>
<desc>lat.=42.950504, lon.=19.088327, Alt.=1081.329102m. Speed=38.268002m/h.</desc>
<speed>10.630000</speed>
</trkpt>
<trkpt lat="42.950317" lon="19.087706">
<ele>1082.454102</ele>
<time>2012-05-02T05:12:57Z</time>
<desc>lat.=42.950317, lon.=19.087706, Alt.=1082.454102m. Speed=37.296001m/h.</desc>
<speed>10.360000</speed>
</trkpt>
<trkpt lat="42.950150" lon="19.087118">
<ele>1083.329102</ele>
<time>2012-05-02T05:13:02Z</time>
<desc>lat.=42.950150, lon.=19.087118, Alt.=1083.329102m. Speed=36.756001m/h.</desc>
<speed>10.210000</speed>
</trkpt>
<trkpt lat="42.950035" lon="19.086506">
<ele>1082.922852</ele>
<time>2012-05-02T05:13:07Z</time>
<desc>lat.=42.950035, lon.=19.086506, Alt.=1082.922852m. Speed=36.324001m/h.</desc>
<speed>10.090000</speed>
</trkpt>
<trkpt lat="42.949837" lon="19.085999">
<ele>1082.704102</ele>
<time>2012-05-02T05:13:12Z</time>
<desc>lat.=42.949837, lon.=19.085999, Alt.=1082.704102m. Speed=32.868000m/h.</desc>
<speed>9.130000</speed>
</trkpt>
<trkpt lat="42.949467" lon="19.085802">
<ele>1081.141602</ele>
<time>2012-05-02T05:13:17Z</time>
<desc>lat.=42.949467, lon.=19.085802, Alt.=1081.141602m. Speed=29.375999m/h.</desc>
<speed>8.160000</speed>
</trkpt>
<trkpt lat="42.949368" lon="19.085302">
<ele>1081.329102</ele>
<time>2012-05-02T05:13:22Z</time>
<desc>lat.=42.949368, lon.=19.085302, Alt.=1081.329102m. Speed=36.144001m/h.</desc>
<speed>10.040000</speed>
</trkpt>
<trkpt lat="42.949329" lon="19.084599">
<ele>1081.610352</ele>
<time>2012-05-02T05:13:27Z</time>
<desc>lat.=42.949329, lon.=19.084599, Alt.=1081.610352m. Speed=45.972000m/h.</desc>
<speed>12.770000</speed>
</trkpt>
<trkpt lat="42.949196" lon="19.083843">
<ele>1080.797852</ele>
<time>2012-05-02T05:13:32Z</time>
<desc>lat.=42.949196, lon.=19.083843, Alt.=1080.797852m. Speed=44.208000m/h.</desc>
<speed>12.280000</speed>
</trkpt>
<trkpt lat="42.949123" lon="19.083117">
<ele>1081.704102</ele>
<time>2012-05-02T05:13:37Z</time>
<desc>lat.=42.949123, lon.=19.083117, Alt.=1081.704102m. Speed=41.759998m/h.</desc>
<speed>11.600000</speed>
</trkpt>
<trkpt lat="42.949139" lon="19.082409">
<ele>1081.954102</ele>
<time>2012-05-02T05:13:42Z</time>
<desc>lat.=42.949139, lon.=19.082409, Alt.=1081.954102m. Speed=39.419998m/h.</desc>
<speed>10.949999</speed>
</trkpt>
<trkpt lat="42.949055" lon="19.081892">
<ele>1081.329102</ele>
<time>2012-05-02T05:13:47Z</time>
<desc>lat.=42.949055, lon.=19.081892, Alt.=1081.329102m. Speed=28.944000m/h.</desc>
<speed>8.040000</speed>
</trkpt>
<trkpt lat="42.948742" lon="19.081551">
<ele>1081.204102</ele>
<time>2012-05-02T05:13:52Z</time>
<desc>lat.=42.948742, lon.=19.081551, Alt.=1081.204102m. Speed=34.632000m/h.</desc>
<speed>9.620000</speed>
</trkpt>
<trkpt lat="42.948387" lon="19.081142">
<ele>1081.547852</ele>
<time>2012-05-02T05:13:57Z</time>
<desc>lat.=42.948387, lon.=19.081142, Alt.=1081.547852m. Speed=36.756001m/h.</desc>
<speed>10.210000</speed>
</trkpt>
<trkpt lat="42.948093" lon="19.080618">
<ele>1080.797852</ele>
<time>2012-05-02T05:14:02Z</time>
<desc>lat.=42.948093, lon.=19.080618, Alt.=1080.797852m. Speed=41.256001m/h.</desc>
<speed>11.460000</speed>
</trkpt>
<trkpt lat="42.947830" lon="19.079981">
<ele>1080.954102</ele>
<time>2012-05-02T05:14:07Z</time>
<desc>lat.=42.947830, lon.=19.079981, Alt.=1080.954102m. Speed=42.551998m/h.</desc>
<speed>11.819999</speed>
</trkpt>
<trkpt lat="42.947521" lon="19.079403">
<ele>1080.235352</ele>
<time>2012-05-02T05:14:12Z</time>
<desc>lat.=42.947521, lon.=19.079403, Alt.=1080.235352m. Speed=39.060001m/h.</desc>
<speed>10.850000</speed>
</trkpt>
<trkpt lat="42.947388" lon="19.078842">
<ele>1079.704102</ele>
<time>2012-05-02T05:14:17Z</time>
<desc>lat.=42.947388, lon.=19.078842, Alt.=1079.704102m. Speed=28.511999m/h.</desc>
<speed>7.920000</speed>
</trkpt>
<trkpt lat="42.947056" lon="19.078623">
<ele>1077.360352</ele>
<time>2012-05-02T05:14:22Z</time>
<desc>lat.=42.947056, lon.=19.078623, Alt.=1077.360352m. Speed=34.523998m/h.</desc>
<speed>9.590000</speed>
</trkpt>
<trkpt lat="42.946671" lon="19.078342">
<ele>1074.329102</ele>
<time>2012-05-02T05:14:27Z</time>
<desc>lat.=42.946671, lon.=19.078342, Alt.=1074.329102m. Speed=37.296001m/h.</desc>
<speed>10.360000</speed>
</trkpt>
<trkpt lat="42.946613" lon="19.077742">
<ele>1071.485352</ele>
<time>2012-05-02T05:14:32Z</time>
<desc>lat.=42.946613, lon.=19.077742, Alt.=1071.485352m. Speed=35.459999m/h.</desc>
<speed>9.850000</speed>
</trkpt>
<trkpt lat="42.946480" lon="19.077185">
<ele>1070.766602</ele>
<time>2012-05-02T05:14:37Z</time>
<desc>lat.=42.946480, lon.=19.077185, Alt.=1070.766602m. Speed=34.091999m/h.</desc>
<speed>9.470000</speed>
</trkpt>
<trkpt lat="42.946121" lon="19.077019">
<ele>1069.922852</ele>
<time>2012-05-02T05:14:42Z</time>
<desc>lat.=42.946121, lon.=19.077019, Alt.=1069.922852m. Speed=32.183998m/h.</desc>
<speed>8.939999</speed>
</trkpt>
<trkpt lat="42.945751" lon="19.077139">
<ele>1068.860352</ele>
<time>2012-05-02T05:14:47Z</time>
<desc>lat.=42.945751, lon.=19.077139, Alt.=1068.860352m. Speed=30.096001m/h.</desc>
<speed>8.360000</speed>
</trkpt>
<trkpt lat="42.945492" lon="19.076748">
<ele>1068.110352</ele>
<time>2012-05-02T05:14:52Z</time>
<desc>lat.=42.945492, lon.=19.076748, Alt.=1068.110352m. Speed=34.307999m/h.</desc>
<speed>9.530000</speed>
</trkpt>
<trkpt lat="42.945515" lon="19.076128">
<ele>1066.547852</ele>
<time>2012-05-02T05:14:57Z</time>
<desc>lat.=42.945515, lon.=19.076128, Alt.=1066.547852m. Speed=37.728001m/h.</desc>
<speed>10.480000</speed>
</trkpt>
<trkpt lat="42.945675" lon="19.075497">
<ele>1066.329102</ele>
<time>2012-05-02T05:15:02Z</time>
<desc>lat.=42.945675, lon.=19.075497, Alt.=1066.329102m. Speed=38.844002m/h.</desc>
<speed>10.790000</speed>
</trkpt>
<trkpt lat="42.945805" lon="19.074856">
<ele>1065.516602</ele>
<time>2012-05-02T05:15:07Z</time>
<desc>lat.=42.945805, lon.=19.074856, Alt.=1065.516602m. Speed=40.571999m/h.</desc>
<speed>11.270000</speed>
</trkpt>
<trkpt lat="42.945797" lon="19.074144">
<ele>1063.079102</ele>
<time>2012-05-02T05:15:12Z</time>
<desc>lat.=42.945797, lon.=19.074144, Alt.=1063.079102m. Speed=44.136002m/h.</desc>
<speed>12.260000</speed>
</trkpt>
<trkpt lat="42.945484" lon="19.073532">
<ele>1060.141602</ele>
<time>2012-05-02T05:15:17Z</time>
<desc>lat.=42.945484, lon.=19.073532, Alt.=1060.141602m. Speed=40.860001m/h.</desc>
<speed>11.350000</speed>
</trkpt>
<trkpt lat="42.945000" lon="19.073353">
<ele>1057.360352</ele>
<time>2012-05-02T05:15:22Z</time>
<desc>lat.=42.945000, lon.=19.073353, Alt.=1057.360352m. Speed=41.507999m/h.</desc>
<speed>11.530000</speed>
</trkpt>
<trkpt lat="42.944515" lon="19.073099">
<ele>1053.735352</ele>
<time>2012-05-02T05:15:27Z</time>
<desc>lat.=42.944515, lon.=19.073099, Alt.=1053.735352m. Speed=37.476002m/h.</desc>
<speed>10.410000</speed>
</trkpt>
<trkpt lat="42.944111" lon="19.073158">
<ele>1050.766602</ele>
<time>2012-05-02T05:15:32Z</time>
<desc>lat.=42.944111, lon.=19.073158, Alt.=1050.766602m. Speed=33.695999m/h.</desc>
<speed>9.360000</speed>
</trkpt>
<trkpt lat="42.943768" lon="19.073509">
<ele>1048.579102</ele>
<time>2012-05-02T05:15:37Z</time>
<desc>lat.=42.943768, lon.=19.073509, Alt.=1048.579102m. Speed=32.723999m/h.</desc>
<speed>9.090000</speed>
</trkpt>
<trkpt lat="42.943363" lon="19.073412">
<ele>1046.079102</ele>
<time>2012-05-02T05:15:42Z</time>
<desc>lat.=42.943363, lon.=19.073412, Alt.=1046.079102m. Speed=35.028000m/h.</desc>
<speed>9.730000</speed>
</trkpt>
<trkpt lat="42.943012" lon="19.072971">
<ele>1044.141602</ele>
<time>2012-05-02T05:15:47Z</time>
<desc>lat.=42.943012, lon.=19.072971, Alt.=1044.141602m. Speed=40.716000m/h.</desc>
<speed>11.310000</speed>
</trkpt>
<trkpt lat="42.942696" lon="19.072412">
<ele>1041.766602</ele>
<time>2012-05-02T05:15:52Z</time>
<desc>lat.=42.942696, lon.=19.072412, Alt.=1041.766602m. Speed=41.183998m/h.</desc>
<speed>11.439999</speed>
</trkpt>
<trkpt lat="42.942341" lon="19.071951">
<ele>1039.047852</ele>
<time>2012-05-02T05:15:57Z</time>
<desc>lat.=42.942341, lon.=19.071951, Alt.=1039.047852m. Speed=38.124001m/h.</desc>
<speed>10.590000</speed>
</trkpt>
<trkpt lat="42.941891" lon="19.071703">
<ele>1037.141602</ele>
<time>2012-05-02T05:16:02Z</time>
<desc>lat.=42.941891, lon.=19.071703, Alt.=1037.141602m. Speed=39.779999m/h.</desc>
<speed>11.050000</speed>
</trkpt>
<trkpt lat="42.941345" lon="19.071642">
<ele>1035.485352</ele>
<time>2012-05-02T05:16:07Z</time>
<desc>lat.=42.941345, lon.=19.071642, Alt.=1035.485352m. Speed=50.363998m/h.</desc>
<speed>13.990000</speed>
</trkpt>
<trkpt lat="42.940655" lon="19.071716">
<ele>1034.704102</ele>
<time>2012-05-02T05:16:12Z</time>
<desc>lat.=42.940655, lon.=19.071716, Alt.=1034.704102m. Speed=60.804001m/h.</desc>
<speed>16.890000</speed>
</trkpt>
<trkpt lat="42.939915" lon="19.071783">
<ele>1034.360352</ele>
<time>2012-05-02T05:16:17Z</time>
<desc>lat.=42.939915, lon.=19.071783, Alt.=1034.360352m. Speed=55.908001m/h.</desc>
<speed>15.530000</speed>
</trkpt>
<trkpt lat="42.939266" lon="19.071846">
<ele>1036.360352</ele>
<time>2012-05-02T05:16:22Z</time>
<desc>lat.=42.939266, lon.=19.071846, Alt.=1036.360352m. Speed=45.576000m/h.</desc>
<speed>12.660000</speed>
</trkpt>
<trkpt lat="42.938766" lon="19.071867">
<ele>1038.391602</ele>
<time>2012-05-02T05:16:27Z</time>
<desc>lat.=42.938766, lon.=19.071867, Alt.=1038.391602m. Speed=35.459999m/h.</desc>
<speed>9.850000</speed>
</trkpt>
<trkpt lat="42.938351" lon="19.071808">
<ele>1037.672852</ele>
<time>2012-05-02T05:16:32Z</time>
<desc>lat.=42.938351, lon.=19.071808, Alt.=1037.672852m. Speed=34.200001m/h.</desc>
<speed>9.500000</speed>
</trkpt>
<trkpt lat="42.937881" lon="19.071640">
<ele>1034.047852</ele>
<time>2012-05-02T05:16:37Z</time>
<desc>lat.=42.937881, lon.=19.071640, Alt.=1034.047852m. Speed=46.116001m/h.</desc>
<speed>12.810000</speed>
</trkpt>
<trkpt lat="42.937233" lon="19.071346">
<ele>1031.641602</ele>
<time>2012-05-02T05:16:42Z</time>
<desc>lat.=42.937233, lon.=19.071346, Alt.=1031.641602m. Speed=57.203999m/h.</desc>
<speed>15.890000</speed>
</trkpt>
<trkpt lat="42.936562" lon="19.071035">
<ele>1031.172852</ele>
<time>2012-05-02T05:16:47Z</time>
<desc>lat.=42.936562, lon.=19.071035, Alt.=1031.172852m. Speed=56.880001m/h.</desc>
<speed>15.800000</speed>
</trkpt>
<trkpt lat="42.935909" lon="19.070650">
<ele>1032.391602</ele>
<time>2012-05-02T05:16:52Z</time>
<desc>lat.=42.935909, lon.=19.070650, Alt.=1032.391602m. Speed=57.959999m/h.</desc>
<speed>16.100000</speed>
</trkpt>
<trkpt lat="42.935242" lon="19.070362">
<ele>1033.704102</ele>
<time>2012-05-02T05:16:57Z</time>
<desc>lat.=42.935242, lon.=19.070362, Alt.=1033.704102m. Speed=54.000000m/h.</desc>
<speed>15.000000</speed>
</trkpt>
<trkpt lat="42.934643" lon="19.069992">
<ele>1035.610352</ele>
<time>2012-05-02T05:17:02Z</time>
<desc>lat.=42.934643, lon.=19.069992, Alt.=1035.610352m. Speed=48.779999m/h.</desc>
<speed>13.550000</speed>
</trkpt>
<trkpt lat="42.934120" lon="19.069788">
<ele>1037.891602</ele>
<time>2012-05-02T05:17:07Z</time>
<desc>lat.=42.934120, lon.=19.069788, Alt.=1037.891602m. Speed=42.264000m/h.</desc>
<speed>11.740000</speed>
</trkpt>
<trkpt lat="42.933586" lon="19.070009">
<ele>1039.985352</ele>
<time>2012-05-02T05:17:12Z</time>
<desc>lat.=42.933586, lon.=19.070009, Alt.=1039.985352m. Speed=46.080002m/h.</desc>
<speed>12.800001</speed>
</trkpt>
<trkpt lat="42.933037" lon="19.070196">
<ele>1042.172852</ele>
<time>2012-05-02T05:17:17Z</time>
<desc>lat.=42.933037, lon.=19.070196, Alt.=1042.172852m. Speed=48.599998m/h.</desc>
<speed>13.500000</speed>
</trkpt>
<trkpt lat="42.932404" lon="19.070114">
<ele>1044.266602</ele>
<time>2012-05-02T05:17:22Z</time>
<desc>lat.=42.932404, lon.=19.070114, Alt.=1044.266602m. Speed=46.152000m/h.</desc>
<speed>12.820000</speed>
</trkpt>
<trkpt lat="42.931877" lon="19.070202">
<ele>1047.172852</ele>
<time>2012-05-02T05:17:27Z</time>
<desc>lat.=42.931877, lon.=19.070202, Alt.=1047.172852m. Speed=42.480000m/h.</desc>
<speed>11.800000</speed>
</trkpt>
<trkpt lat="42.931381" lon="19.070282">
<ele>1050.797852</ele>
<time>2012-05-02T05:17:32Z</time>
<desc>lat.=42.931381, lon.=19.070282, Alt.=1050.797852m. Speed=40.428001m/h.</desc>
<speed>11.230000</speed>
</trkpt>
<trkpt lat="42.930893" lon="19.070093">
<ele>1053.735352</ele>
<time>2012-05-02T05:17:37Z</time>
<desc>lat.=42.930893, lon.=19.070093, Alt.=1053.735352m. Speed=38.375999m/h.</desc>
<speed>10.660000</speed>
</trkpt>
<trkpt lat="42.930458" lon="19.069958">
<ele>1056.891602</ele>
<time>2012-05-02T05:17:42Z</time>
<desc>lat.=42.930458, lon.=19.069958, Alt.=1056.891602m. Speed=35.568001m/h.</desc>
<speed>9.880000</speed>
</trkpt>
<trkpt lat="42.930153" lon="19.069580">
<ele>1059.922852</ele>
<time>2012-05-02T05:17:47Z</time>
<desc>lat.=42.930153, lon.=19.069580, Alt.=1059.922852m. Speed=27.468000m/h.</desc>
<speed>7.630000</speed>
</trkpt>
<trkpt lat="42.929848" lon="19.069635">
<ele>1061.954102</ele>
<time>2012-05-02T05:17:52Z</time>
<desc>lat.=42.929848, lon.=19.069635, Alt.=1061.954102m. Speed=28.584000m/h.</desc>
<speed>7.940000</speed>
</trkpt>
<trkpt lat="42.929470" lon="19.069975">
<ele>1064.329102</ele>
<time>2012-05-02T05:17:57Z</time>
<desc>lat.=42.929470, lon.=19.069975, Alt.=1064.329102m. Speed=42.984001m/h.</desc>
<speed>11.940000</speed>
</trkpt>
<trkpt lat="42.928993" lon="19.070408">
<ele>1067.704102</ele>
<time>2012-05-02T05:18:02Z</time>
<desc>lat.=42.928993, lon.=19.070408, Alt.=1067.704102m. Speed=45.216000m/h.</desc>
<speed>12.560000</speed>
</trkpt>
<trkpt lat="42.928467" lon="19.070747">
<ele>1071.297852</ele>
<time>2012-05-02T05:18:07Z</time>
<desc>lat.=42.928467, lon.=19.070747, Alt.=1071.297852m. Speed=45.936001m/h.</desc>
<speed>12.760000</speed>
</trkpt>
<trkpt lat="42.927906" lon="19.070988">
<ele>1074.797852</ele>
<time>2012-05-02T05:18:12Z</time>
<desc>lat.=42.927906, lon.=19.070988, Alt.=1074.797852m. Speed=48.023998m/h.</desc>
<speed>13.340000</speed>
</trkpt>
<trkpt lat="42.927399" lon="19.071152">
<ele>1077.391602</ele>
<time>2012-05-02T05:18:17Z</time>
<desc>lat.=42.927399, lon.=19.071152, Alt.=1077.391602m. Speed=36.216000m/h.</desc>
<speed>10.060000</speed>
</trkpt>
<trkpt lat="42.926979" lon="19.071255">
<ele>1079.391602</ele>
<time>2012-05-02T05:18:22Z</time>
<desc>lat.=42.926979, lon.=19.071255, Alt.=1079.391602m. Speed=30.816000m/h.</desc>
<speed>8.560000</speed>
</trkpt>
<trkpt lat="42.926735" lon="19.071667">
<ele>1080.922852</ele>
<time>2012-05-02T05:18:27Z</time>
<desc>lat.=42.926735, lon.=19.071667, Alt.=1080.922852m. Speed=33.875999m/h.</desc>
<speed>9.410000</speed>
</trkpt>
<trkpt lat="42.926498" lon="19.072170">
<ele>1083.454102</ele>
<time>2012-05-02T05:18:32Z</time>
<desc>lat.=42.926498, lon.=19.072170, Alt.=1083.454102m. Speed=36.900002m/h.</desc>
<speed>10.250000</speed>
</trkpt>
<trkpt lat="42.926380" lon="19.072853">
<ele>1086.266602</ele>
<time>2012-05-02T05:18:37Z</time>
<desc>lat.=42.926380, lon.=19.072853, Alt.=1086.266602m. Speed=40.967999m/h.</desc>
<speed>11.380000</speed>
</trkpt>
<trkpt lat="42.925987" lon="19.073303">
<ele>1088.579102</ele>
<time>2012-05-02T05:18:42Z</time>
<desc>lat.=42.925987, lon.=19.073303, Alt.=1088.579102m. Speed=43.992001m/h.</desc>
<speed>12.220000</speed>
</trkpt>
<trkpt lat="42.925484" lon="19.073505">
<ele>1090.641602</ele>
<time>2012-05-02T05:18:47Z</time>
<desc>lat.=42.925484, lon.=19.073505, Alt.=1090.641602m. Speed=38.952000m/h.</desc>
<speed>10.820000</speed>
</trkpt>
<trkpt lat="42.925232" lon="19.074154">
<ele>1093.329102</ele>
<time>2012-05-02T05:18:52Z</time>
<desc>lat.=42.925232, lon.=19.074154, Alt.=1093.329102m. Speed=46.188000m/h.</desc>
<speed>12.830000</speed>
</trkpt>
<trkpt lat="42.925083" lon="19.074850">
<ele>1096.922852</ele>
<time>2012-05-02T05:18:57Z</time>
<desc>lat.=42.925083, lon.=19.074850, Alt.=1096.922852m. Speed=38.880001m/h.</desc>
<speed>10.800000</speed>
</trkpt>
<trkpt lat="42.924809" lon="19.075432">
<ele>1099.360352</ele>
<time>2012-05-02T05:19:02Z</time>
<desc>lat.=42.924809, lon.=19.075432, Alt.=1099.360352m. Speed=46.080002m/h.</desc>
<speed>12.800001</speed>
</trkpt>
<trkpt lat="42.924496" lon="19.076061">
<ele>1102.329102</ele>
<time>2012-05-02T05:19:07Z</time>
<desc>lat.=42.924496, lon.=19.076061, Alt.=1102.329102m. Speed=42.768002m/h.</desc>
<speed>11.880000</speed>
</trkpt>
<trkpt lat="42.924221" lon="19.076700">
<ele>1105.016602</ele>
<time>2012-05-02T05:19:12Z</time>
<desc>lat.=42.924221, lon.=19.076700, Alt.=1105.016602m. Speed=42.731998m/h.</desc>
<speed>11.870000</speed>
</trkpt>
<trkpt lat="42.924259" lon="19.077406">
<ele>1109.266602</ele>
<time>2012-05-02T05:19:17Z</time>
<desc>lat.=42.924259, lon.=19.077406, Alt.=1109.266602m. Speed=39.959999m/h.</desc>
<speed>11.100000</speed>
</trkpt>
<trkpt lat="42.924263" lon="19.078096">
<ele>1113.547852</ele>
<time>2012-05-02T05:19:22Z</time>
<desc>lat.=42.924263, lon.=19.078096, Alt.=1113.547852m. Speed=44.243999m/h.</desc>
<speed>12.290000</speed>
</trkpt>
<trkpt lat="42.924133" lon="19.078890">
<ele>1117.016602</ele>
<time>2012-05-02T05:19:27Z</time>
<desc>lat.=42.924133, lon.=19.078890, Alt.=1117.016602m. Speed=47.556000m/h.</desc>
<speed>13.210000</speed>
</trkpt>
<trkpt lat="42.923904" lon="19.079588">
<ele>1119.954102</ele>
<time>2012-05-02T05:19:32Z</time>
<desc>lat.=42.923904, lon.=19.079588, Alt.=1119.954102m. Speed=45.000000m/h.</desc>
<speed>12.500000</speed>
</trkpt>
<trkpt lat="42.923752" lon="19.080254">
<ele>1123.047852</ele>
<time>2012-05-02T05:19:37Z</time>
<desc>lat.=42.923752, lon.=19.080254, Alt.=1123.047852m. Speed=38.484001m/h.</desc>
<speed>10.690000</speed>
</trkpt>
<trkpt lat="42.923412" lon="19.080782">
<ele>1125.860352</ele>
<time>2012-05-02T05:19:42Z</time>
<desc>lat.=42.923412, lon.=19.080782, Alt.=1125.860352m. Speed=46.116001m/h.</desc>
<speed>12.810000</speed>
</trkpt>
<trkpt lat="42.922935" lon="19.081337">
<ele>1128.672852</ele>
<time>2012-05-02T05:19:47Z</time>
<desc>lat.=42.922935, lon.=19.081337, Alt.=1128.672852m. Speed=50.796001m/h.</desc>
<speed>14.110000</speed>
</trkpt>
<trkpt lat="42.922428" lon="19.081776">
<ele>1132.079102</ele>
<time>2012-05-02T05:19:52Z</time>
<desc>lat.=42.922428, lon.=19.081776, Alt.=1132.079102m. Speed=46.296001m/h.</desc>
<speed>12.860000</speed>
</trkpt>
<trkpt lat="42.921822" lon="19.081839">
<ele>1135.672852</ele>
<time>2012-05-02T05:19:57Z</time>
<desc>lat.=42.921822, lon.=19.081839, Alt.=1135.672852m. Speed=48.240002m/h.</desc>
<speed>13.400000</speed>
</trkpt>
<trkpt lat="42.921204" lon="19.082006">
<ele>1138.766602</ele>
<time>2012-05-02T05:20:02Z</time>
<desc>lat.=42.921204, lon.=19.082006, Alt.=1138.766602m. Speed=50.723999m/h.</desc>
<speed>14.090000</speed>
</trkpt>
<trkpt lat="42.920639" lon="19.082457">
<ele>1140.610352</ele>
<time>2012-05-02T05:20:07Z</time>
<desc>lat.=42.920639, lon.=19.082457, Alt.=1140.610352m. Speed=50.903999m/h.</desc>
<speed>14.140000</speed>
</trkpt>
<trkpt lat="42.920124" lon="19.082796">
<ele>1144.079102</ele>
<time>2012-05-02T05:20:12Z</time>
<desc>lat.=42.920124, lon.=19.082796, Alt.=1144.079102m. Speed=42.335999m/h.</desc>
<speed>11.760000</speed>
</trkpt>
<trkpt lat="42.919788" lon="19.083393">
<ele>1145.922852</ele>
<time>2012-05-02T05:20:17Z</time>
<desc>lat.=42.919788, lon.=19.083393, Alt.=1145.922852m. Speed=47.627998m/h.</desc>
<speed>13.230000</speed>
</trkpt>
<trkpt lat="42.919582" lon="19.084232">
<ele>1150.360352</ele>
<time>2012-05-02T05:20:22Z</time>
<desc>lat.=42.919582, lon.=19.084232, Alt.=1150.360352m. Speed=51.624001m/h.</desc>
<speed>14.340000</speed>
</trkpt>
<trkpt lat="42.919254" lon="19.084990">
<ele>1153.172852</ele>
<time>2012-05-02T05:20:27Z</time>
<desc>lat.=42.919254, lon.=19.084990, Alt.=1153.172852m. Speed=51.984001m/h.</desc>
<speed>14.440000</speed>
</trkpt>
<trkpt lat="42.918850" lon="19.085728">
<ele>1157.547852</ele>
<time>2012-05-02T05:20:32Z</time>
<desc>lat.=42.918850, lon.=19.085728, Alt.=1157.547852m. Speed=54.071999m/h.</desc>
<speed>15.020000</speed>
</trkpt>
<trkpt lat="42.918488" lon="19.086443">
<ele>1162.329102</ele>
<time>2012-05-02T05:20:37Z</time>
<desc>lat.=42.918488, lon.=19.086443, Alt.=1162.329102m. Speed=46.655998m/h.</desc>
<speed>12.960000</speed>
</trkpt>
<trkpt lat="42.918358" lon="19.087145">
<ele>1165.704102</ele>
<time>2012-05-02T05:20:42Z</time>
<desc>lat.=42.918358, lon.=19.087145, Alt.=1165.704102m. Speed=41.868000m/h.</desc>
<speed>11.630000</speed>
</trkpt>
<trkpt lat="42.918110" lon="19.087692">
<ele>1168.547852</ele>
<time>2012-05-02T05:20:47Z</time>
<desc>lat.=42.918110, lon.=19.087692, Alt.=1168.547852m. Speed=39.023998m/h.</desc>
<speed>10.840000</speed>
</trkpt>
<trkpt lat="42.917774" lon="19.088129">
<ele>1170.516602</ele>
<time>2012-05-02T05:20:52Z</time>
<desc>lat.=42.917774, lon.=19.088129, Alt.=1170.516602m. Speed=37.584000m/h.</desc>
<speed>10.440000</speed>
</trkpt>
<trkpt lat="42.917606" lon="19.088787">
<ele>1173.922852</ele>
<time>2012-05-02T05:20:57Z</time>
<desc>lat.=42.917606, lon.=19.088787, Alt.=1173.922852m. Speed=44.855999m/h.</desc>
<speed>12.460000</speed>
</trkpt>
<trkpt lat="42.917210" lon="19.089354">
<ele>1175.735352</ele>
<time>2012-05-02T05:21:02Z</time>
<desc>lat.=42.917210, lon.=19.089354, Alt.=1175.735352m. Speed=46.007999m/h.</desc>
<speed>12.780000</speed>
</trkpt>
<trkpt lat="42.916718" lon="19.089622">
<ele>1178.454102</ele>
<time>2012-05-02T05:21:07Z</time>
<desc>lat.=42.916718, lon.=19.089622, Alt.=1178.454102m. Speed=34.919998m/h.</desc>
<speed>9.699999</speed>
</trkpt>
<trkpt lat="42.916447" lon="19.090057">
<ele>1181.297852</ele>
<time>2012-05-02T05:21:12Z</time>
<desc>lat.=42.916447, lon.=19.090057, Alt.=1181.297852m. Speed=37.259998m/h.</desc>
<speed>10.350000</speed>
</trkpt>
<trkpt lat="42.916313" lon="19.090685">
<ele>1185.329102</ele>
<time>2012-05-02T05:21:17Z</time>
<desc>lat.=42.916313, lon.=19.090685, Alt.=1185.329102m. Speed=35.891998m/h.</desc>
<speed>9.970000</speed>
</trkpt>
<trkpt lat="42.915913" lon="19.090818">
<ele>1187.485352</ele>
<time>2012-05-02T05:21:22Z</time>
<desc>lat.=42.915913, lon.=19.090818, Alt.=1187.485352m. Speed=37.872002m/h.</desc>
<speed>10.520000</speed>
</trkpt>
<trkpt lat="42.915371" lon="19.090668">
<ele>1190.204102</ele>
<time>2012-05-02T05:21:27Z</time>
<desc>lat.=42.915371, lon.=19.090668, Alt.=1190.204102m. Speed=49.500000m/h.</desc>
<speed>13.750000</speed>
</trkpt>
<trkpt lat="42.914707" lon="19.090494">
<ele>1193.485352</ele>
<time>2012-05-02T05:21:32Z</time>
<desc>lat.=42.914707, lon.=19.090494, Alt.=1193.485352m. Speed=52.560001m/h.</desc>
<speed>14.600000</speed>
</trkpt>
<trkpt lat="42.914063" lon="19.090322">
<ele>1195.860352</ele>
<time>2012-05-02T05:21:37Z</time>
<desc>lat.=42.914063, lon.=19.090322, Alt.=1195.860352m. Speed=51.948002m/h.</desc>
<speed>14.430001</speed>
</trkpt>
<trkpt lat="42.913391" lon="19.090170">
<ele>1198.016602</ele>
<time>2012-05-02T05:21:42Z</time>
<desc>lat.=42.913391, lon.=19.090170, Alt.=1198.016602m. Speed=56.231998m/h.</desc>
<speed>15.620000</speed>
</trkpt>
<trkpt lat="42.912663" lon="19.090250">
<ele>1200.422852</ele>
<time>2012-05-02T05:21:47Z</time>
<desc>lat.=42.912663, lon.=19.090250, Alt.=1200.422852m. Speed=57.779999m/h.</desc>
<speed>16.050000</speed>
</trkpt>
<trkpt lat="42.911976" lon="19.090528">
<ele>1203.766602</ele>
<time>2012-05-02T05:21:52Z</time>
<desc>lat.=42.911976, lon.=19.090528, Alt.=1203.766602m. Speed=53.712002m/h.</desc>
<speed>14.920001</speed>
</trkpt>
<trkpt lat="42.911415" lon="19.090803">
<ele>1206.141602</ele>
<time>2012-05-02T05:21:57Z</time>
<desc>lat.=42.911415, lon.=19.090803, Alt.=1206.141602m. Speed=41.256001m/h.</desc>
<speed>11.460000</speed>
</trkpt>
<trkpt lat="42.911007" lon="19.090956">
<ele>1208.641602</ele>
<time>2012-05-02T05:22:02Z</time>
<desc>lat.=42.911007, lon.=19.090956, Alt.=1208.641602m. Speed=31.320000m/h.</desc>
<speed>8.700000</speed>
</trkpt>
<trkpt lat="42.910717" lon="19.090647">
<ele>1211.172852</ele>
<time>2012-05-02T05:22:07Z</time>
<desc>lat.=42.910717, lon.=19.090647, Alt.=1211.172852m. Speed=34.596001m/h.</desc>
<speed>9.610000</speed>
</trkpt>
<trkpt lat="42.910564" lon="19.090069">
<ele>1215.016602</ele>
<time>2012-05-02T05:22:12Z</time>
<desc>lat.=42.910564, lon.=19.090069, Alt.=1215.016602m. Speed=33.515999m/h.</desc>
<speed>9.310000</speed>
</trkpt>
<trkpt lat="42.910202" lon="19.090010">
<ele>1218.266602</ele>
<time>2012-05-02T05:22:17Z</time>
<desc>lat.=42.910202, lon.=19.090010, Alt.=1218.266602m. Speed=34.380001m/h.</desc>
<speed>9.550000</speed>
</trkpt>
<trkpt lat="42.909756" lon="19.090261">
<ele>1221.204102</ele>
<time>2012-05-02T05:22:22Z</time>
<desc>lat.=42.909756, lon.=19.090261, Alt.=1221.204102m. Speed=40.860001m/h.</desc>
<speed>11.350000</speed>
</trkpt>
<trkpt lat="42.909222" lon="19.090221">
<ele>1224.110352</ele>
<time>2012-05-02T05:22:27Z</time>
<desc>lat.=42.909222, lon.=19.090221, Alt.=1224.110352m. Speed=41.327999m/h.</desc>
<speed>11.480000</speed>
</trkpt>
<trkpt lat="42.908848" lon="19.089865">
<ele>1227.329102</ele>
<time>2012-05-02T05:22:32Z</time>
<desc>lat.=42.908848, lon.=19.089865, Alt.=1227.329102m. Speed=36.467999m/h.</desc>
<speed>10.130000</speed>
</trkpt>
<trkpt lat="42.908508" lon="19.089472">
<ele>1230.110352</ele>
<time>2012-05-02T05:22:37Z</time>
<desc>lat.=42.908508, lon.=19.089472, Alt.=1230.110352m. Speed=35.820000m/h.</desc>
<speed>9.950000</speed>
</trkpt>
<trkpt lat="42.908028" lon="19.089449">
<ele>1233.329102</ele>
<time>2012-05-02T05:22:42Z</time>
<desc>lat.=42.908028, lon.=19.089449, Alt.=1233.329102m. Speed=41.220001m/h.</desc>
<speed>11.450000</speed>
</trkpt>
<trkpt lat="42.907505" lon="19.089449">
<ele>1237.766602</ele>
<time>2012-05-02T05:22:47Z</time>
<desc>lat.=42.907505, lon.=19.089449, Alt.=1237.766602m. Speed=40.068001m/h.</desc>
<speed>11.130000</speed>
</trkpt>
<trkpt lat="42.907059" lon="19.089329">
<ele>1240.329102</ele>
<time>2012-05-02T05:22:52Z</time>
<desc>lat.=42.907059, lon.=19.089329, Alt.=1240.329102m. Speed=33.264000m/h.</desc>
<speed>9.240000</speed>
</trkpt>
<trkpt lat="42.906960" lon="19.088865">
<ele>1243.297852</ele>
<time>2012-05-02T05:22:57Z</time>
<desc>lat.=42.906960, lon.=19.088865, Alt.=1243.297852m. Speed=32.076000m/h.</desc>
<speed>8.910000</speed>
</trkpt>
<trkpt lat="42.907089" lon="19.088354">
<ele>1246.172852</ele>
<time>2012-05-02T05:23:02Z</time>
<desc>lat.=42.907089, lon.=19.088354, Alt.=1246.172852m. Speed=29.412001m/h.</desc>
<speed>8.170000</speed>
</trkpt>
<trkpt lat="42.906826" lon="19.087969">
<ele>1247.735352</ele>
<time>2012-05-02T05:23:07Z</time>
<desc>lat.=42.906826, lon.=19.087969, Alt.=1247.735352m. Speed=36.396000m/h.</desc>
<speed>10.110000</speed>
</trkpt>
<trkpt lat="42.906406" lon="19.088051">
<ele>1250.172852</ele>
<time>2012-05-02T05:23:12Z</time>
<desc>lat.=42.906406, lon.=19.088051, Alt.=1250.172852m. Speed=33.911999m/h.</desc>
<speed>9.420000</speed>
</trkpt>
<trkpt lat="42.906002" lon="19.088005">
<ele>1252.360352</ele>
<time>2012-05-02T05:23:17Z</time>
<desc>lat.=42.906002, lon.=19.088005, Alt.=1252.360352m. Speed=34.236000m/h.</desc>
<speed>9.510000</speed>
</trkpt>
<trkpt lat="42.905632" lon="19.087820">
<ele>1254.172852</ele>
<time>2012-05-02T05:23:22Z</time>
<desc>lat.=42.905632, lon.=19.087820, Alt.=1254.172852m. Speed=31.247999m/h.</desc>
<speed>8.680000</speed>
</trkpt>
<trkpt lat="42.905350" lon="19.088175">
<ele>1256.672852</ele>
<time>2012-05-02T05:23:27Z</time>
<desc>lat.=42.905350, lon.=19.088175, Alt.=1256.672852m. Speed=26.496000m/h.</desc>
<speed>7.360000</speed>
</trkpt>
<trkpt lat="42.905083" lon="19.088257">
<ele>1257.235352</ele>
<time>2012-05-02T05:23:32Z</time>
<desc>lat.=42.905083, lon.=19.088257, Alt.=1257.235352m. Speed=18.756001m/h.</desc>
<speed>5.210000</speed>
</trkpt>
<trkpt lat="42.905075" lon="19.088507">
<ele>1258.610352</ele>
<time>2012-05-02T05:23:37Z</time>
<desc>lat.=42.905075, lon.=19.088507, Alt.=1258.610352m. Speed=22.068001m/h.</desc>
<speed>6.130000</speed>
</trkpt>
<trkpt lat="42.905422" lon="19.088421">
<ele>1260.735352</ele>
<time>2012-05-02T05:23:42Z</time>
<desc>lat.=42.905422, lon.=19.088421, Alt.=1260.735352m. Speed=32.004002m/h.</desc>
<speed>8.890000</speed>
</trkpt>
<trkpt lat="42.905743" lon="19.088285">
<ele>1263.079102</ele>
<time>2012-05-02T05:23:47Z</time>
<desc>lat.=42.905743, lon.=19.088285, Alt.=1263.079102m. Speed=25.128000m/h.</desc>
<speed>6.980000</speed>
</trkpt>
<trkpt lat="42.906029" lon="19.088583">
<ele>1266.641602</ele>
<time>2012-05-02T05:23:52Z</time>
<desc>lat.=42.906029, lon.=19.088583, Alt.=1266.641602m. Speed=29.340000m/h.</desc>
<speed>8.150000</speed>
</trkpt>
<trkpt lat="42.906242" lon="19.088852">
<ele>1271.579102</ele>
<time>2012-05-02T05:23:57Z</time>
<desc>lat.=42.906242, lon.=19.088852, Alt.=1271.579102m. Speed=20.556000m/h.</desc>
<speed>5.710000</speed>
</trkpt>
<trkpt lat="42.906113" lon="19.089146">
<ele>1273.235352</ele>
<time>2012-05-02T05:24:02Z</time>
<desc>lat.=42.906113, lon.=19.089146, Alt.=1273.235352m. Speed=22.176001m/h.</desc>
<speed>6.160000</speed>
</trkpt>
<trkpt lat="42.905903" lon="19.089533">
<ele>1275.016602</ele>
<time>2012-05-02T05:24:07Z</time>
<desc>lat.=42.905903, lon.=19.089533, Alt.=1275.016602m. Speed=30.743999m/h.</desc>
<speed>8.540000</speed>
</trkpt>
<trkpt lat="42.905746" lon="19.090105">
<ele>1278.641602</ele>
<time>2012-05-02T05:24:12Z</time>
<desc>lat.=42.905746, lon.=19.090105, Alt.=1278.641602m. Speed=39.636002m/h.</desc>
<speed>11.010000</speed>
</trkpt>
<trkpt lat="42.905807" lon="19.090855">
<ele>1280.954102</ele>
<time>2012-05-02T05:24:17Z</time>
<desc>lat.=42.905807, lon.=19.090855, Alt.=1280.954102m. Speed=49.644001m/h.</desc>
<speed>13.790000</speed>
</trkpt>
<trkpt lat="42.906036" lon="19.091537">
<ele>1284.954102</ele>
<time>2012-05-02T05:24:22Z</time>
<desc>lat.=42.906036, lon.=19.091537, Alt.=1284.954102m. Speed=39.312000m/h.</desc>
<speed>10.920000</speed>
</trkpt>
<trkpt lat="42.906464" lon="19.091850">
<ele>1289.547852</ele>
<time>2012-05-02T05:24:27Z</time>
<desc>lat.=42.906464, lon.=19.091850, Alt.=1289.547852m. Speed=35.495998m/h.</desc>
<speed>9.860000</speed>
</trkpt>
<trkpt lat="42.906578" lon="19.092299">
<ele>1291.860352</ele>
<time>2012-05-02T05:24:32Z</time>
<desc>lat.=42.906578, lon.=19.092299, Alt.=1291.860352m. Speed=14.868000m/h.</desc>
<speed>4.130000</speed>
</trkpt>
<trkpt lat="42.906445" lon="19.092213">
<ele>1291.766602</ele>
<time>2012-05-02T05:24:37Z</time>
<desc>lat.=42.906445, lon.=19.092213, Alt.=1291.766602m. Speed=20.628000m/h.</desc>
<speed>5.730000</speed>
</trkpt>
<trkpt lat="42.906181" lon="19.091909">
<ele>1292.235352</ele>
<time>2012-05-02T05:24:42Z</time>
<desc>lat.=42.906181, lon.=19.091909, Alt.=1292.235352m. Speed=32.688000m/h.</desc>
<speed>9.080000</speed>
</trkpt>
<trkpt lat="42.905743" lon="19.091892">
<ele>1293.485352</ele>
<time>2012-05-02T05:24:47Z</time>
<desc>lat.=42.905743, lon.=19.091892, Alt.=1293.485352m. Speed=33.695999m/h.</desc>
<speed>9.360000</speed>
</trkpt>
<trkpt lat="42.905415" lon="19.091513">
<ele>1293.547852</ele>
<time>2012-05-02T05:24:52Z</time>
<desc>lat.=42.905415, lon.=19.091513, Alt.=1293.547852m. Speed=41.832001m/h.</desc>
<speed>11.620000</speed>
</trkpt>
<trkpt lat="42.905090" lon="19.090849">
<ele>1296.860352</ele>
<time>2012-05-02T05:24:57Z</time>
<desc>lat.=42.905090, lon.=19.090849, Alt.=1296.860352m. Speed=43.020000m/h.</desc>
<speed>11.950000</speed>
</trkpt>
<trkpt lat="42.904861" lon="19.090265">
<ele>1301.985352</ele>
<time>2012-05-02T05:25:02Z</time>
<desc>lat.=42.904861, lon.=19.090265, Alt.=1301.985352m. Speed=37.476002m/h.</desc>
<speed>10.410000</speed>
</trkpt>
<trkpt lat="42.904427" lon="19.089926">
<ele>1302.704102</ele>
<time>2012-05-02T05:25:07Z</time>
<desc>lat.=42.904427, lon.=19.089926, Alt.=1302.704102m. Speed=40.175999m/h.</desc>
<speed>11.160000</speed>
</trkpt>
<trkpt lat="42.903973" lon="19.089750">
<ele>1306.016602</ele>
<time>2012-05-02T05:25:12Z</time>
<desc>lat.=42.903973, lon.=19.089750, Alt.=1306.016602m. Speed=39.060001m/h.</desc>
<speed>10.850000</speed>
</trkpt>
<trkpt lat="42.903507" lon="19.090012">
<ele>1308.422852</ele>
<time>2012-05-02T05:25:17Z</time>
<desc>lat.=42.903507, lon.=19.090012, Alt.=1308.422852m. Speed=37.007999m/h.</desc>
<speed>10.280000</speed>
</trkpt>
<trkpt lat="42.903374" lon="19.090557">
<ele>1310.391602</ele>
<time>2012-05-02T05:25:22Z</time>
<desc>lat.=42.903374, lon.=19.090557, Alt.=1310.391602m. Speed=34.056000m/h.</desc>
<speed>9.460000</speed>
</trkpt>
<trkpt lat="42.903313" lon="19.091116">
<ele>1313.704102</ele>
<time>2012-05-02T05:25:27Z</time>
<desc>lat.=42.903313, lon.=19.091116, Alt.=1313.704102m. Speed=33.408001m/h.</desc>
<speed>9.280000</speed>
</trkpt>
<trkpt lat="42.902920" lon="19.091297">
<ele>1315.547852</ele>
<time>2012-05-02T05:25:32Z</time>
<desc>lat.=42.902920, lon.=19.091297, Alt.=1315.547852m. Speed=39.383999m/h.</desc>
<speed>10.940000</speed>
</trkpt>
<trkpt lat="42.902435" lon="19.091181">
<ele>1317.829102</ele>
<time>2012-05-02T05:25:37Z</time>
<desc>lat.=42.902435, lon.=19.091181, Alt.=1317.829102m. Speed=38.411999m/h.</desc>
<speed>10.670000</speed>
</trkpt>
<trkpt lat="42.902035" lon="19.091442">
<ele>1321.391602</ele>
<time>2012-05-02T05:25:42Z</time>
<desc>lat.=42.902035, lon.=19.091442, Alt.=1321.391602m. Speed=30.600000m/h.</desc>
<speed>8.500000</speed>
</trkpt>
<trkpt lat="42.901733" lon="19.091391">
<ele>1320.610352</ele>
<time>2012-05-02T05:25:47Z</time>
<desc>lat.=42.901733, lon.=19.091391, Alt.=1320.610352m. Speed=27.468000m/h.</desc>
<speed>7.630000</speed>
</trkpt>
<trkpt lat="42.901333" lon="19.091242">
<ele>1322.079102</ele>
<time>2012-05-02T05:25:52Z</time>
<desc>lat.=42.901333, lon.=19.091242, Alt.=1322.079102m. Speed=37.080002m/h.</desc>
<speed>10.300001</speed>
</trkpt>
<trkpt lat="42.900932" lon="19.091248">
<ele>1325.922852</ele>
<time>2012-05-02T05:25:57Z</time>
<desc>lat.=42.900932, lon.=19.091248, Alt.=1325.922852m. Speed=28.080000m/h.</desc>
<speed>7.800000</speed>
</trkpt>
<trkpt lat="42.900715" lon="19.090715">
<ele>1327.235352</ele>
<time>2012-05-02T05:26:02Z</time>
<desc>lat.=42.900715, lon.=19.090715, Alt.=1327.235352m. Speed=43.344002m/h.</desc>
<speed>12.040000</speed>
</trkpt>
<trkpt lat="42.900520" lon="19.090036">
<ele>1328.329102</ele>
<time>2012-05-02T05:26:07Z</time>
<desc>lat.=42.900520, lon.=19.090036, Alt.=1328.329102m. Speed=41.832001m/h.</desc>
<speed>11.620000</speed>
</trkpt>
<trkpt lat="42.900532" lon="19.089342">
<ele>1331.079102</ele>
<time>2012-05-02T05:26:12Z</time>
<desc>lat.=42.900532, lon.=19.089342, Alt.=1331.079102m. Speed=36.035999m/h.</desc>
<speed>10.010000</speed>
</trkpt>
<trkpt lat="42.900612" lon="19.088839">
<ele>1333.704102</ele>
<time>2012-05-02T05:26:17Z</time>
<desc>lat.=42.900612, lon.=19.088839, Alt.=1333.704102m. Speed=21.924000m/h.</desc>
<speed>6.090000</speed>
</trkpt>
<trkpt lat="42.900520" lon="19.088629">
<ele>1337.266602</ele>
<time>2012-05-02T05:26:22Z</time>
<desc>lat.=42.900520, lon.=19.088629, Alt.=1337.266602m. Speed=17.532000m/h.</desc>
<speed>4.870000</speed>
</trkpt>
<trkpt lat="42.900417" lon="19.088968">
<ele>1339.047852</ele>
<time>2012-05-02T05:26:27Z</time>
<desc>lat.=42.900417, lon.=19.088968, Alt.=1339.047852m. Speed=30.816000m/h.</desc>
<speed>8.560000</speed>
</trkpt>
<trkpt lat="42.900322" lon="19.089540">
<ele>1341.954102</ele>
<time>2012-05-02T05:26:32Z</time>
<desc>lat.=42.900322, lon.=19.089540, Alt.=1341.954102m. Speed=39.563999m/h.</desc>
<speed>10.990000</speed>
</trkpt>
<trkpt lat="42.900230" lon="19.090282">
<ele>1345.766602</ele>
<time>2012-05-02T05:26:37Z</time>
<desc>lat.=42.900230, lon.=19.090282, Alt.=1345.766602m. Speed=49.212002m/h.</desc>
<speed>13.670001</speed>
</trkpt>
<trkpt lat="42.900063" lon="19.091080">
<ele>1349.422852</ele>
<time>2012-05-02T05:26:42Z</time>
<desc>lat.=42.900063, lon.=19.091080, Alt.=1349.422852m. Speed=49.175999m/h.</desc>
<speed>13.660000</speed>
</trkpt>
<trkpt lat="42.899998" lon="19.091827">
<ele>1352.922852</ele>
<time>2012-05-02T05:26:47Z</time>
<desc>lat.=42.899998, lon.=19.091827, Alt.=1352.922852m. Speed=39.743999m/h.</desc>
<speed>11.040000</speed>
</trkpt>
<trkpt lat="42.900368" lon="19.092278">
<ele>1357.579102</ele>
<time>2012-05-02T05:26:52Z</time>
<desc>lat.=42.900368, lon.=19.092278, Alt.=1357.579102m. Speed=41.723999m/h.</desc>
<speed>11.590000</speed>
</trkpt>
<trkpt lat="42.900715" lon="19.092844">
<ele>1364.235352</ele>
<time>2012-05-02T05:26:57Z</time>
<desc>lat.=42.900715, lon.=19.092844, Alt.=1364.235352m. Speed=40.320000m/h.</desc>
<speed>11.200000</speed>
</trkpt>
<trkpt lat="42.900867" lon="19.093267">
<ele>1367.954102</ele>
<time>2012-05-02T05:27:02Z</time>
<desc>lat.=42.900867, lon.=19.093267, Alt.=1367.954102m. Speed=16.056000m/h.</desc>
<speed>4.460000</speed>
</trkpt>
<trkpt lat="42.900871" lon="19.093405">
<ele>1369.079102</ele>
<time>2012-05-02T05:27:07Z</time>
<desc>lat.=42.900871, lon.=19.093405, Alt.=1369.079102m. Speed=7.488000m/h.</desc>
<speed>2.080000</speed>
</trkpt>
<trkpt lat="42.900738" lon="19.093538">
<ele>1370.047852</ele>
<time>2012-05-02T05:27:12Z</time>
<desc>lat.=42.900738, lon.=19.093538, Alt.=1370.047852m. Speed=16.344000m/h.</desc>
<speed>4.540000</speed>
</trkpt>
<trkpt lat="42.900505" lon="19.093321">
<ele>1371.766602</ele>
<time>2012-05-02T05:27:17Z</time>
<desc>lat.=42.900505, lon.=19.093321, Alt.=1371.766602m. Speed=31.500000m/h.</desc>
<speed>8.750000</speed>
</trkpt>
<trkpt lat="42.900253" lon="19.092793">
<ele>1372.047852</ele>
<time>2012-05-02T05:27:22Z</time>
<desc>lat.=42.900253, lon.=19.092793, Alt.=1372.047852m. Speed=40.787998m/h.</desc>
<speed>11.329999</speed>
</trkpt>
<trkpt lat="42.899757" lon="19.092415">
<ele>1374.047852</ele>
<time>2012-05-02T05:27:27Z</time>
<desc>lat.=42.899757, lon.=19.092415, Alt.=1374.047852m. Speed=46.584000m/h.</desc>
<speed>12.940000</speed>
</trkpt>
<trkpt lat="42.899414" lon="19.091719">
<ele>1375.922852</ele>
<time>2012-05-02T05:27:32Z</time>
<desc>lat.=42.899414, lon.=19.091719, Alt.=1375.922852m. Speed=51.984001m/h.</desc>
<speed>14.440000</speed>
</trkpt>
<trkpt lat="42.899426" lon="19.090755">
<ele>1382.047852</ele>
<time>2012-05-02T05:27:37Z</time>
<desc>lat.=42.899426, lon.=19.090755, Alt.=1382.047852m. Speed=57.276001m/h.</desc>
<speed>15.910000</speed>
</trkpt>
<trkpt lat="42.899502" lon="19.089808">
<ele>1388.672852</ele>
<time>2012-05-02T05:27:42Z</time>
<desc>lat.=42.899502, lon.=19.089808, Alt.=1388.672852m. Speed=55.619999m/h.</desc>
<speed>15.450000</speed>
</trkpt>
<trkpt lat="42.899406" lon="19.088812">
<ele>1395.672852</ele>
<time>2012-05-02T05:27:47Z</time>
<desc>lat.=42.899406, lon.=19.088812, Alt.=1395.672852m. Speed=59.220001m/h.</desc>
<speed>16.450000</speed>
</trkpt>
<trkpt lat="42.899273" lon="19.087826">
<ele>1403.516602</ele>
<time>2012-05-02T05:27:52Z</time>
<desc>lat.=42.899273, lon.=19.087826, Alt.=1403.516602m. Speed=55.403999m/h.</desc>
<speed>15.390000</speed>
</trkpt>
<trkpt lat="42.899277" lon="19.086868">
<ele>1409.391602</ele>
<time>2012-05-02T05:27:57Z</time>
<desc>lat.=42.899277, lon.=19.086868, Alt.=1409.391602m. Speed=56.591999m/h.</desc>
<speed>15.720000</speed>
</trkpt>
<trkpt lat="42.899357" lon="19.085920">
<ele>1415.672852</ele>
<time>2012-05-02T05:28:02Z</time>
<desc>lat.=42.899357, lon.=19.085920, Alt.=1415.672852m. Speed=56.844002m/h.</desc>
<speed>15.790000</speed>
</trkpt>
<trkpt lat="42.899403" lon="19.084923">
<ele>1422.047852</ele>
<time>2012-05-02T05:28:07Z</time>
<desc>lat.=42.899403, lon.=19.084923, Alt.=1422.047852m. Speed=60.444000m/h.</desc>
<speed>16.790000</speed>
</trkpt>
<trkpt lat="42.899303" lon="19.083897">
<ele>1428.516602</ele>
<time>2012-05-02T05:28:12Z</time>
<desc>lat.=42.899303, lon.=19.083897, Alt.=1428.516602m. Speed=59.292000m/h.</desc>
<speed>16.470000</speed>
</trkpt>
<trkpt lat="42.899052" lon="19.082951">
<ele>1434.297852</ele>
<time>2012-05-02T05:28:17Z</time>
<desc>lat.=42.899052, lon.=19.082951, Alt.=1434.297852m. Speed=59.076000m/h.</desc>
<speed>16.410000</speed>
</trkpt>
<trkpt lat="42.898655" lon="19.082094">
<ele>1439.891602</ele>
<time>2012-05-02T05:28:22Z</time>
<desc>lat.=42.898655, lon.=19.082094, Alt.=1439.891602m. Speed=59.147999m/h.</desc>
<speed>16.430000</speed>
</trkpt>
<trkpt lat="42.898151" lon="19.081369">
<ele>1444.672852</ele>
<time>2012-05-02T05:28:27Z</time>
<desc>lat.=42.898151, lon.=19.081369, Alt.=1444.672852m. Speed=57.959999m/h.</desc>
<speed>16.100000</speed>
</trkpt>
<trkpt lat="42.897594" lon="19.080830">
<ele>1448.204102</ele>
<time>2012-05-02T05:28:32Z</time>
<desc>lat.=42.897594, lon.=19.080830, Alt.=1448.204102m. Speed=50.256001m/h.</desc>
<speed>13.960000</speed>
</trkpt>
<trkpt lat="42.897068" lon="19.080421">
<ele>1451.172852</ele>
<time>2012-05-02T05:28:37Z</time>
<desc>lat.=42.897068, lon.=19.080421, Alt.=1451.172852m. Speed=48.672001m/h.</desc>
<speed>13.520000</speed>
</trkpt>
<trkpt lat="42.895359" lon="19.079685">
<ele>1459.485352</ele>
<time>2012-05-02T05:28:52Z</time>
<desc>lat.=42.895359, lon.=19.079685, Alt.=1459.485352m. Speed=43.091999m/h.</desc>
<speed>11.970000</speed>
</trkpt>
<trkpt lat="42.894863" lon="19.079325">
<ele>1451.360352</ele>
<time>2012-05-02T05:28:57Z</time>
<desc>lat.=42.894863, lon.=19.079325, Alt.=1451.360352m. Speed=52.560001m/h.</desc>
<speed>14.600000</speed>
</trkpt>
<trkpt lat="42.894394" lon="19.078682">
<ele>1454.360352</ele>
<time>2012-05-02T05:29:02Z</time>
<desc>lat.=42.894394, lon.=19.078682, Alt.=1454.360352m. Speed=50.472000m/h.</desc>
<speed>14.020000</speed>
</trkpt>
<trkpt lat="42.894047" lon="19.077974">
<ele>1455.454102</ele>
<time>2012-05-02T05:29:07Z</time>
<desc>lat.=42.894047, lon.=19.077974, Alt.=1455.454102m. Speed=48.096001m/h.</desc>
<speed>13.360000</speed>
</trkpt>
<trkpt lat="42.893818" lon="19.077219">
<ele>1456.485352</ele>
<time>2012-05-02T05:29:12Z</time>
<desc>lat.=42.893818, lon.=19.077219, Alt.=1456.485352m. Speed=48.888000m/h.</desc>
<speed>13.580000</speed>
</trkpt>
<trkpt lat="42.893703" lon="19.076342">
<ele>1454.797852</ele>
<time>2012-05-02T05:29:17Z</time>
<desc>lat.=42.893703, lon.=19.076342, Alt.=1454.797852m. Speed=53.964001m/h.</desc>
<speed>14.990000</speed>
</trkpt>
<trkpt lat="42.893757" lon="19.075428">
<ele>1448.704102</ele>
<time>2012-05-02T05:29:22Z</time>
<desc>lat.=42.893757, lon.=19.075428, Alt.=1448.704102m. Speed=56.591999m/h.</desc>
<speed>15.720000</speed>
</trkpt>
<trkpt lat="42.893967" lon="19.074490">
<ele>1443.704102</ele>
<time>2012-05-02T05:29:27Z</time>
<desc>lat.=42.893967, lon.=19.074490, Alt.=1443.704102m. Speed=59.723999m/h.</desc>
<speed>16.590000</speed>
</trkpt>
<trkpt lat="42.894344" lon="19.073566">
<ele>1440.360352</ele>
<time>2012-05-02T05:29:32Z</time>
<desc>lat.=42.894344, lon.=19.073566, Alt.=1440.360352m. Speed=63.216000m/h.</desc>
<speed>17.560000</speed>
</trkpt>
<trkpt lat="42.894745" lon="19.072592">
<ele>1436.735352</ele>
<time>2012-05-02T05:29:37Z</time>
<desc>lat.=42.894745, lon.=19.072592, Alt.=1436.735352m. Speed=68.940002m/h.</desc>
<speed>19.150001</speed>
</trkpt>
<trkpt lat="42.895023" lon="19.071451">
<ele>1432.329102</ele>
<time>2012-05-02T05:29:42Z</time>
<desc>lat.=42.895023, lon.=19.071451, Alt.=1432.329102m. Speed=74.375999m/h.</desc>
<speed>20.660000</speed>
</trkpt>
<trkpt lat="42.895058" lon="19.070148">
<ele>1431.172852</ele>
<time>2012-05-02T05:29:47Z</time>
<desc>lat.=42.895058, lon.=19.070148, Alt.=1431.172852m. Speed=75.528000m/h.</desc>
<speed>20.980000</speed>
</trkpt>
<trkpt lat="42.894970" lon="19.068897">
<ele>1430.547852</ele>
<time>2012-05-02T05:29:52Z</time>
<desc>lat.=42.894970, lon.=19.068897, Alt.=1430.547852m. Speed=72.071999m/h.</desc>
<speed>20.020000</speed>
</trkpt>
<trkpt lat="42.894909" lon="19.067802">
<ele>1430.579102</ele>
<time>2012-05-02T05:29:57Z</time>
<desc>lat.=42.894909, lon.=19.067802, Alt.=1430.579102m. Speed=58.104000m/h.</desc>
<speed>16.140000</speed>
</trkpt>
<trkpt lat="42.895023" lon="19.066891">
<ele>1430.204102</ele>
<time>2012-05-02T05:30:02Z</time>
<desc>lat.=42.895023, lon.=19.066891, Alt.=1430.204102m. Speed=52.883999m/h.</desc>
<speed>14.690000</speed>
</trkpt>
<trkpt lat="42.895370" lon="19.066078">
<ele>1429.266602</ele>
<time>2012-05-02T05:30:07Z</time>
<desc>lat.=42.895370, lon.=19.066078, Alt.=1429.266602m. Speed=59.616001m/h.</desc>
<speed>16.560000</speed>
</trkpt>
<trkpt lat="42.895943" lon="19.065428">
<ele>1429.079102</ele>
<time>2012-05-02T05:30:12Z</time>
<desc>lat.=42.895943, lon.=19.065428, Alt.=1429.079102m. Speed=58.680000m/h.</desc>
<speed>16.300000</speed>
</trkpt>
<trkpt lat="42.896503" lon="19.064888">
<ele>1426.454102</ele>
<time>2012-05-02T05:30:17Z</time>
<desc>lat.=42.896503, lon.=19.064888, Alt.=1426.454102m. Speed=52.307999m/h.</desc>
<speed>14.530000</speed>
</trkpt>
<trkpt lat="42.896938" lon="19.064262">
<ele>1423.610352</ele>
<time>2012-05-02T05:30:22Z</time>
<desc>lat.=42.896938, lon.=19.064262, Alt.=1423.610352m. Speed=49.104000m/h.</desc>
<speed>13.640000</speed>
</trkpt>
<trkpt lat="42.897461" lon="19.063814">
<ele>1421.672852</ele>
<time>2012-05-02T05:30:27Z</time>
<desc>lat.=42.897461, lon.=19.063814, Alt.=1421.672852m. Speed=51.372002m/h.</desc>
<speed>14.270000</speed>
</trkpt>
<trkpt lat="42.898109" lon="19.063692">
<ele>1419.422852</ele>
<time>2012-05-02T05:30:32Z</time>
<desc>lat.=42.898109, lon.=19.063692, Alt.=1419.422852m. Speed=55.764000m/h.</desc>
<speed>15.490000</speed>
</trkpt>
<trkpt lat="42.898808" lon="19.063892">
<ele>1417.860352</ele>
<time>2012-05-02T05:30:37Z</time>
<desc>lat.=42.898808, lon.=19.063892, Alt.=1417.860352m. Speed=55.692001m/h.</desc>
<speed>15.470000</speed>
</trkpt>
<trkpt lat="42.899498" lon="19.063871">
<ele>1417.454102</ele>
<time>2012-05-02T05:30:42Z</time>
<desc>lat.=42.899498, lon.=19.063871, Alt.=1417.454102m. Speed=55.368000m/h.</desc>
<speed>15.380000</speed>
</trkpt>
<trkpt lat="42.900169" lon="19.063486">
<ele>1416.641602</ele>
<time>2012-05-02T05:30:47Z</time>
<desc>lat.=42.900169, lon.=19.063486, Alt.=1416.641602m. Speed=60.335999m/h.</desc>
<speed>16.760000</speed>
</trkpt>
<trkpt lat="42.900806" lon="19.062948">
<ele>1416.079102</ele>
<time>2012-05-02T05:30:52Z</time>
<desc>lat.=42.900806, lon.=19.062948, Alt.=1416.079102m. Speed=58.284000m/h.</desc>
<speed>16.190000</speed>
</trkpt>
<trkpt lat="42.901348" lon="19.062275">
<ele>1414.985352</ele>
<time>2012-05-02T05:30:57Z</time>
<desc>lat.=42.901348, lon.=19.062275, Alt.=1414.985352m. Speed=59.688000m/h.</desc>
<speed>16.580000</speed>
</trkpt>
<trkpt lat="42.901676" lon="19.061392">
<ele>1413.985352</ele>
<time>2012-05-02T05:31:02Z</time>
<desc>lat.=42.901676, lon.=19.061392, Alt.=1413.985352m. Speed=58.608002m/h.</desc>
<speed>16.280000</speed>
</trkpt>
<trkpt lat="42.901760" lon="19.060354">
<ele>1412.547852</ele>
<time>2012-05-02T05:31:07Z</time>
<desc>lat.=42.901760, lon.=19.060354, Alt.=1412.547852m. Speed=60.551998m/h.</desc>
<speed>16.819999</speed>
</trkpt>
<trkpt lat="42.901802" lon="19.059238">
<ele>1410.891602</ele>
<time>2012-05-02T05:31:12Z</time>
<desc>lat.=42.901802, lon.=19.059238, Alt.=1410.891602m. Speed=69.227997m/h.</desc>
<speed>19.229999</speed>
</trkpt>
<trkpt lat="42.901840" lon="19.057991">
<ele>1407.422852</ele>
<time>2012-05-02T05:31:17Z</time>
<desc>lat.=42.901840, lon.=19.057991, Alt.=1407.422852m. Speed=74.556000m/h.</desc>
<speed>20.710000</speed>
</trkpt>
<trkpt lat="42.901882" lon="19.056721">
<ele>1403.485352</ele>
<time>2012-05-02T05:31:22Z</time>
<desc>lat.=42.901882, lon.=19.056721, Alt.=1403.485352m. Speed=74.087997m/h.</desc>
<speed>20.579999</speed>
</trkpt>
<trkpt lat="42.901924" lon="19.055460">
<ele>1399.235352</ele>
<time>2012-05-02T05:31:27Z</time>
<desc>lat.=42.901924, lon.=19.055460, Alt.=1399.235352m. Speed=73.655998m/h.</desc>
<speed>20.460000</speed>
</trkpt>
<trkpt lat="42.901863" lon="19.054207">
<ele>1395.547852</ele>
<time>2012-05-02T05:31:32Z</time>
<desc>lat.=42.901863, lon.=19.054207, Alt.=1395.547852m. Speed=73.295998m/h.</desc>
<speed>20.359999</speed>
</trkpt>
<trkpt lat="42.901543" lon="19.053019">
<ele>1391.516602</ele>
<time>2012-05-02T05:31:37Z</time>
<desc>lat.=42.901543, lon.=19.053019, Alt.=1391.516602m. Speed=74.627998m/h.</desc>
<speed>20.730000</speed>
</trkpt>
<trkpt lat="42.901207" lon="19.051817">
<ele>1387.704102</ele>
<time>2012-05-02T05:31:42Z</time>
<desc>lat.=42.901207, lon.=19.051817, Alt.=1387.704102m. Speed=75.059998m/h.</desc>
<speed>20.849999</speed>
</trkpt>
<trkpt lat="42.901104" lon="19.050545">
<ele>1383.954102</ele>
<time>2012-05-02T05:31:47Z</time>
<desc>lat.=42.901104, lon.=19.050545, Alt.=1383.954102m. Speed=74.916000m/h.</desc>
<speed>20.810000</speed>
</trkpt>
<trkpt lat="42.901043" lon="19.049276">
<ele>1380.235352</ele>
<time>2012-05-02T05:31:52Z</time>
<desc>lat.=42.901043, lon.=19.049276, Alt.=1380.235352m. Speed=74.484001m/h.</desc>
<speed>20.690000</speed>
</trkpt>
<trkpt lat="42.900726" lon="19.048090">
<ele>1376.672852</ele>
<time>2012-05-02T05:31:57Z</time>
<desc>lat.=42.900726, lon.=19.048090, Alt.=1376.672852m. Speed=74.627998m/h.</desc>
<speed>20.730000</speed>
</trkpt>
<trkpt lat="42.900177" lon="19.047045">
<ele>1373.547852</ele>
<time>2012-05-02T05:32:02Z</time>
<desc>lat.=42.900177, lon.=19.047045, Alt.=1373.547852m. Speed=74.879997m/h.</desc>
<speed>20.799999</speed>
</trkpt>
<trkpt lat="42.899727" lon="19.045923">
<ele>1370.766602</ele>
<time>2012-05-02T05:32:07Z</time>
<desc>lat.=42.899727, lon.=19.045923, Alt.=1370.766602m. Speed=74.987999m/h.</desc>
<speed>20.830000</speed>
</trkpt>
<trkpt lat="42.899399" lon="19.044720">
<ele>1368.422852</ele>
<time>2012-05-02T05:32:12Z</time>
<desc>lat.=42.899399, lon.=19.044720, Alt.=1368.422852m. Speed=75.419998m/h.</desc>
<speed>20.949999</speed>
</trkpt>
<trkpt lat="42.898945" lon="19.043615">
<ele>1366.985352</ele>
<time>2012-05-02T05:32:17Z</time>
<desc>lat.=42.898945, lon.=19.043615, Alt.=1366.985352m. Speed=72.431999m/h.</desc>
<speed>20.120000</speed>
</trkpt>
<trkpt lat="42.898300" lon="19.042768">
<ele>1363.422852</ele>
<time>2012-05-02T05:32:22Z</time>
<desc>lat.=42.898300, lon.=19.042768, Alt.=1363.422852m. Speed=71.676003m/h.</desc>
<speed>19.910001</speed>
</trkpt>
<trkpt lat="42.897545" lon="19.042110">
<ele>1358.860352</ele>
<time>2012-05-02T05:32:27Z</time>
<desc>lat.=42.897545, lon.=19.042110, Alt.=1358.860352m. Speed=70.776001m/h.</desc>
<speed>19.660000</speed>
</trkpt>
<trkpt lat="42.896858" lon="19.041437">
<ele>1354.172852</ele>
<time>2012-05-02T05:32:32Z</time>
<desc>lat.=42.896858, lon.=19.041437, Alt.=1354.172852m. Speed=67.680000m/h.</desc>
<speed>18.800000</speed>
</trkpt>
<trkpt lat="42.896378" lon="19.040499">
<ele>1349.641602</ele>
<time>2012-05-02T05:32:37Z</time>
<desc>lat.=42.896378, lon.=19.040499, Alt.=1349.641602m. Speed=68.112000m/h.</desc>
<speed>18.920000</speed>
</trkpt>
<trkpt lat="42.896198" lon="19.039360">
<ele>1344.672852</ele>
<time>2012-05-02T05:32:42Z</time>
<desc>lat.=42.896198, lon.=19.039360, Alt.=1344.672852m. Speed=69.264000m/h.</desc>
<speed>19.240000</speed>
</trkpt>
<trkpt lat="42.896366" lon="19.038202">
<ele>1338.672852</ele>
<time>2012-05-02T05:32:47Z</time>
<desc>lat.=42.896366, lon.=19.038202, Alt.=1338.672852m. Speed=70.092003m/h.</desc>
<speed>19.470001</speed>
</trkpt>
<trkpt lat="42.896835" lon="19.037193">
<ele>1334.422852</ele>
<time>2012-05-02T05:32:52Z</time>
<desc>lat.=42.896835, lon.=19.037193, Alt.=1334.422852m. Speed=67.428001m/h.</desc>
<speed>18.730000</speed>
</trkpt>
<trkpt lat="42.897495" lon="19.036570">
<ele>1330.860352</ele>
<time>2012-05-02T05:32:57Z</time>
<desc>lat.=42.897495, lon.=19.036570, Alt.=1330.860352m. Speed=64.188004m/h.</desc>
<speed>17.830001</speed>
</trkpt>
<trkpt lat="42.898247" lon="19.036169">
<ele>1327.172852</ele>
<time>2012-05-02T05:33:02Z</time>
<desc>lat.=42.898247, lon.=19.036169, Alt.=1327.172852m. Speed=64.800003m/h.</desc>
<speed>18.000001</speed>
</trkpt>
<trkpt lat="42.898983" lon="19.035734">
<ele>1322.391602</ele>
<time>2012-05-02T05:33:07Z</time>
<desc>lat.=42.898983, lon.=19.035734, Alt.=1322.391602m. Speed=63.827999m/h.</desc>
<speed>17.730000</speed>
</trkpt>
<trkpt lat="42.899536" lon="19.034941">
<ele>1316.985352</ele>
<time>2012-05-02T05:33:12Z</time>
<desc>lat.=42.899536, lon.=19.034941, Alt.=1316.985352m. Speed=65.015999m/h.</desc>
<speed>18.060000</speed>
</trkpt>
<trkpt lat="42.899754" lon="19.033876">
<ele>1312.516602</ele>
<time>2012-05-02T05:33:17Z</time>
<desc>lat.=42.899754, lon.=19.033876, Alt.=1312.516602m. Speed=60.624001m/h.</desc>
<speed>16.840000</speed>
</trkpt>
<trkpt lat="42.899933" lon="19.032961">
<ele>1310.266602</ele>
<time>2012-05-02T05:33:22Z</time>
<desc>lat.=42.899933, lon.=19.032961, Alt.=1310.266602m. Speed=53.964001m/h.</desc>
<speed>14.990000</speed>
</trkpt>
<trkpt lat="42.900284" lon="19.032169">
<ele>1309.016602</ele>
<time>2012-05-02T05:33:27Z</time>
<desc>lat.=42.900284, lon.=19.032169, Alt.=1309.016602m. Speed=56.015999m/h.</desc>
<speed>15.560000</speed>
</trkpt>
<trkpt lat="42.900517" lon="19.031240">
<ele>1307.641602</ele>
<time>2012-05-02T05:33:32Z</time>
<desc>lat.=42.900517, lon.=19.031240, Alt.=1307.641602m. Speed=58.896000m/h.</desc>
<speed>16.360000</speed>
</trkpt>
<trkpt lat="42.900467" lon="19.030127">
<ele>1305.047852</ele>
<time>2012-05-02T05:33:37Z</time>
<desc>lat.=42.900467, lon.=19.030127, Alt.=1305.047852m. Speed=69.515999m/h.</desc>
<speed>19.310000</speed>
</trkpt>
<trkpt lat="42.900215" lon="19.028856">
<ele>1301.079102</ele>
<time>2012-05-02T05:33:42Z</time>
<desc>lat.=42.900215, lon.=19.028856, Alt.=1301.079102m. Speed=80.891998m/h.</desc>
<speed>22.470000</speed>
</trkpt>
<trkpt lat="42.899940" lon="19.027493">
<ele>1296.891602</ele>
<time>2012-05-02T05:33:47Z</time>
<desc>lat.=42.899940, lon.=19.027493, Alt.=1296.891602m. Speed=82.115997m/h.</desc>
<speed>22.809999</speed>
</trkpt>
<trkpt lat="42.899681" lon="19.026155">
<ele>1294.141602</ele>
<time>2012-05-02T05:33:52Z</time>
<desc>lat.=42.899681, lon.=19.026155, Alt.=1294.141602m. Speed=77.795998m/h.</desc>
<speed>21.609999</speed>
</trkpt>
<trkpt lat="42.899570" lon="19.024942">
<ele>1289.610352</ele>
<time>2012-05-02T05:33:57Z</time>
<desc>lat.=42.899570, lon.=19.024942, Alt.=1289.610352m. Speed=67.751999m/h.</desc>
<speed>18.820000</speed>
</trkpt>
<trkpt lat="42.899715" lon="19.023802">
<ele>1282.454102</ele>
<time>2012-05-02T05:34:02Z</time>
<desc>lat.=42.899715, lon.=19.023802, Alt.=1282.454102m. Speed=70.884003m/h.</desc>
<speed>19.690001</speed>
</trkpt>
<trkpt lat="42.900093" lon="19.022669">
<ele>1274.329102</ele>
<time>2012-05-02T05:34:07Z</time>
<desc>lat.=42.900093, lon.=19.022669, Alt.=1274.329102m. Speed=75.636002m/h.</desc>
<speed>21.010000</speed>
</trkpt>
<trkpt lat="42.900715" lon="19.021719">
<ele>1265.985352</ele>
<time>2012-05-02T05:34:12Z</time>
<desc>lat.=42.900715, lon.=19.021719, Alt.=1265.985352m. Speed=72.503998m/h.</desc>
<speed>20.139999</speed>
</trkpt>
<trkpt lat="42.901478" lon="19.021029">
<ele>1258.235352</ele>
<time>2012-05-02T05:34:17Z</time>
<desc>lat.=42.901478, lon.=19.021029, Alt.=1258.235352m. Speed=72.683998m/h.</desc>
<speed>20.189999</speed>
</trkpt>
<trkpt lat="42.902222" lon="19.020332">
<ele>1250.797852</ele>
<time>2012-05-02T05:34:22Z</time>
<desc>lat.=42.902222, lon.=19.020332, Alt.=1250.797852m. Speed=72.720001m/h.</desc>
<speed>20.200000</speed>
</trkpt>
<trkpt lat="42.902756" lon="19.019403">
<ele>1243.516602</ele>
<time>2012-05-02T05:34:27Z</time>
<desc>lat.=42.902756, lon.=19.019403, Alt.=1243.516602m. Speed=70.164001m/h.</desc>
<speed>19.490000</speed>
</trkpt>
<trkpt lat="42.903172" lon="19.018330">
<ele>1236.266602</ele>
<time>2012-05-02T05:34:32Z</time>
<desc>lat.=42.903172, lon.=19.018330, Alt.=1236.266602m. Speed=70.056000m/h.</desc>
<speed>19.460000</speed>
</trkpt>
<trkpt lat="42.903725" lon="19.017370">
<ele>1227.985352</ele>
<time>2012-05-02T05:34:37Z</time>
<desc>lat.=42.903725, lon.=19.017370, Alt.=1227.985352m. Speed=74.195999m/h.</desc>
<speed>20.610000</speed>
</trkpt>
<trkpt lat="42.904312" lon="19.016506">
<ele>1220.516602</ele>
<time>2012-05-02T05:34:42Z</time>
<desc>lat.=42.904312, lon.=19.016506, Alt.=1220.516602m. Speed=63.900002m/h.</desc>
<speed>17.750000</speed>
</trkpt>
<trkpt lat="42.904636" lon="19.015480">
<ele>1213.735352</ele>
<time>2012-05-02T05:34:47Z</time>
<desc>lat.=42.904636, lon.=19.015480, Alt.=1213.735352m. Speed=68.220001m/h.</desc>
<speed>18.950000</speed>
</trkpt>
<trkpt lat="42.904621" lon="19.014297">
<ele>1208.110352</ele>
<time>2012-05-02T05:34:52Z</time>
<desc>lat.=42.904621, lon.=19.014297, Alt.=1208.110352m. Speed=69.875999m/h.</desc>
<speed>19.410000</speed>
</trkpt>
<trkpt lat="42.904243" lon="19.013235">
<ele>1204.985352</ele>
<time>2012-05-02T05:34:57Z</time>
<desc>lat.=42.904243, lon.=19.013235, Alt.=1204.985352m. Speed=68.220001m/h.</desc>
<speed>18.950000</speed>
</trkpt>
<trkpt lat="42.903599" lon="19.012438">
<ele>1201.110352</ele>
<time>2012-05-02T05:35:02Z</time>
<desc>lat.=42.903599, lon.=19.012438, Alt.=1201.110352m. Speed=69.227997m/h.</desc>
<speed>19.229999</speed>
</trkpt>
<trkpt lat="42.902920" lon="19.011667">
<ele>1196.766602</ele>
<time>2012-05-02T05:35:07Z</time>
<desc>lat.=42.902920, lon.=19.011667, Alt.=1196.766602m. Speed=69.947998m/h.</desc>
<speed>19.429999</speed>
</trkpt>
<trkpt lat="42.902264" lon="19.010885">
<ele>1194.110352</ele>
<time>2012-05-02T05:35:12Z</time>
<desc>lat.=42.902264, lon.=19.010885, Alt.=1194.110352m. Speed=68.543999m/h.</desc>
<speed>19.040000</speed>
</trkpt>
<trkpt lat="42.901817" lon="19.009920">
<ele>1191.266602</ele>
<time>2012-05-02T05:35:17Z</time>
<desc>lat.=42.901817, lon.=19.009920, Alt.=1191.266602m. Speed=66.276001m/h.</desc>
<speed>18.410000</speed>
</trkpt>
<trkpt lat="42.901737" lon="19.008793">
<ele>1186.235352</ele>
<time>2012-05-02T05:35:22Z</time>
<desc>lat.=42.901737, lon.=19.008793, Alt.=1186.235352m. Speed=67.428001m/h.</desc>
<speed>18.730000</speed>
</trkpt>
<trkpt lat="42.901852" lon="19.007730">
<ele>1180.422852</ele>
<time>2012-05-02T05:35:27Z</time>
<desc>lat.=42.901852, lon.=19.007730, Alt.=1180.422852m. Speed=57.060001m/h.</desc>
<speed>15.850000</speed>
</trkpt>
<trkpt lat="42.901722" lon="19.006777">
<ele>1175.454102</ele>
<time>2012-05-02T05:35:32Z</time>
<desc>lat.=42.901722, lon.=19.006777, Alt.=1175.454102m. Speed=59.112000m/h.</desc>
<speed>16.420000</speed>
</trkpt>
<trkpt lat="42.901222" lon="19.006006">
<ele>1170.141602</ele>
<time>2012-05-02T05:35:37Z</time>
<desc>lat.=42.901222, lon.=19.006006, Alt.=1170.141602m. Speed=62.243999m/h.</desc>
<speed>17.290000</speed>
</trkpt>
<trkpt lat="42.900631" lon="19.005264">
<ele>1165.204102</ele>
<time>2012-05-02T05:35:42Z</time>
<desc>lat.=42.900631, lon.=19.005264, Alt.=1165.204102m. Speed=65.844002m/h.</desc>
<speed>18.290000</speed>
</trkpt>
<trkpt lat="42.900230" lon="19.004265">
<ele>1160.141602</ele>
<time>2012-05-02T05:35:47Z</time>
<desc>lat.=42.900230, lon.=19.004265, Alt.=1160.141602m. Speed=68.543999m/h.</desc>
<speed>19.040000</speed>
</trkpt>
<trkpt lat="42.899948" lon="19.003128">
<ele>1155.204102</ele>
<time>2012-05-02T05:35:52Z</time>
<desc>lat.=42.899948, lon.=19.003128, Alt.=1155.204102m. Speed=71.748001m/h.</desc>
<speed>19.930000</speed>
</trkpt>
<trkpt lat="42.899487" lon="19.002098">
<ele>1150.016602</ele>
<time>2012-05-02T05:35:57Z</time>
<desc>lat.=42.899487, lon.=19.002098, Alt.=1150.016602m. Speed=65.484001m/h.</desc>
<speed>18.190000</speed>
</trkpt>
<trkpt lat="42.899113" lon="19.001163">
<ele>1145.922852</ele>
<time>2012-05-02T05:36:02Z</time>
<desc>lat.=42.899113, lon.=19.001163, Alt.=1145.922852m. Speed=63.324001m/h.</desc>
<speed>17.590000</speed>
</trkpt>
<trkpt lat="42.899025" lon="19.000101">
<ele>1139.704102</ele>
<time>2012-05-02T05:36:07Z</time>
<desc>lat.=42.899025, lon.=19.000101, Alt.=1139.704102m. Speed=63.360001m/h.</desc>
<speed>17.600000</speed>
</trkpt>
<trkpt lat="42.899242" lon="18.999104">
<ele>1133.704102</ele>
<time>2012-05-02T05:36:12Z</time>
<desc>lat.=42.899242, lon.=18.999104, Alt.=1133.704102m. Speed=63.000000m/h.</desc>
<speed>17.500000</speed>
</trkpt>
<trkpt lat="42.899586" lon="18.998138">
<ele>1129.829102</ele>
<time>2012-05-02T05:36:17Z</time>
<desc>lat.=42.899586, lon.=18.998138, Alt.=1129.829102m. Speed=61.919998m/h.</desc>
<speed>17.199999</speed>
</trkpt>
<trkpt lat="42.899799" lon="18.997116">
<ele>1124.110352</ele>
<time>2012-05-02T05:36:22Z</time>
<desc>lat.=42.899799, lon.=18.997116, Alt.=1124.110352m. Speed=64.080002m/h.</desc>
<speed>17.800001</speed>
</trkpt>
<trkpt lat="42.900047" lon="18.996088">
<ele>1118.891602</ele>
<time>2012-05-02T05:36:27Z</time>
<desc>lat.=42.900047, lon.=18.996088, Alt.=1118.891602m. Speed=63.216000m/h.</desc>
<speed>17.560000</speed>
</trkpt>
<trkpt lat="42.900482" lon="18.995173">
<ele>1113.766602</ele>
<time>2012-05-02T05:36:32Z</time>
<desc>lat.=42.900482, lon.=18.995173, Alt.=1113.766602m. Speed=63.972000m/h.</desc>
<speed>17.770000</speed>
</trkpt>
<trkpt lat="42.900787" lon="18.994196">
<ele>1108.985352</ele>
<time>2012-05-02T05:36:37Z</time>
<desc>lat.=42.900787, lon.=18.994196, Alt.=1108.985352m. Speed=64.043999m/h.</desc>
<speed>17.790000</speed>
</trkpt>
<trkpt lat="42.900890" lon="18.993116">
<ele>1103.516602</ele>
<time>2012-05-02T05:36:42Z</time>
<desc>lat.=42.900890, lon.=18.993116, Alt.=1103.516602m. Speed=61.883999m/h.</desc>
<speed>17.190000</speed>
</trkpt>
<trkpt lat="42.901241" lon="18.992180">
<ele>1098.329102</ele>
<time>2012-05-02T05:36:47Z</time>
<desc>lat.=42.901241, lon.=18.992180, Alt.=1098.329102m. Speed=61.919998m/h.</desc>
<speed>17.199999</speed>
</trkpt>
<trkpt lat="42.901581" lon="18.991365">
<ele>1093.266602</ele>
<time>2012-05-02T05:36:52Z</time>
<desc>lat.=42.901581, lon.=18.991365, Alt.=1093.266602m. Speed=54.431999m/h.</desc>
<speed>15.120000</speed>
</trkpt>
<trkpt lat="42.901524" lon="18.990425">
<ele>1087.797852</ele>
<time>2012-05-02T05:36:57Z</time>
<desc>lat.=42.901524, lon.=18.990425, Alt.=1087.797852m. Speed=58.680000m/h.</desc>
<speed>16.300000</speed>
</trkpt>
<trkpt lat="42.901192" lon="18.989536">
<ele>1082.891602</ele>
<time>2012-05-02T05:37:02Z</time>
<desc>lat.=42.901192, lon.=18.989536, Alt.=1082.891602m. Speed=54.360001m/h.</desc>
<speed>15.100000</speed>
</trkpt>
<trkpt lat="42.901119" lon="18.988607">
<ele>1078.235352</ele>
<time>2012-05-02T05:37:07Z</time>
<desc>lat.=42.901119, lon.=18.988607, Alt.=1078.235352m. Speed=55.799999m/h.</desc>
<speed>15.500000</speed>
</trkpt>
<trkpt lat="42.901512" lon="18.987825">
<ele>1072.204102</ele>
<time>2012-05-02T05:37:12Z</time>
<desc>lat.=42.901512, lon.=18.987825, Alt.=1072.204102m. Speed=58.931999m/h.</desc>
<speed>16.370000</speed>
</trkpt>
<trkpt lat="42.902138" lon="18.987238">
<ele>1068.641602</ele>
<time>2012-05-02T05:37:17Z</time>
<desc>lat.=42.902138, lon.=18.987238, Alt.=1068.641602m. Speed=58.787998m/h.</desc>
<speed>16.329999</speed>
</trkpt>
<trkpt lat="42.902588" lon="18.986586">
<ele>1065.516602</ele>
<time>2012-05-02T05:37:22Z</time>
<desc>lat.=42.902588, lon.=18.986586, Alt.=1065.516602m. Speed=53.352001m/h.</desc>
<speed>14.820000</speed>
</trkpt>
<trkpt lat="42.902672" lon="18.985653">
<ele>1061.079102</ele>
<time>2012-05-02T05:37:27Z</time>
<desc>lat.=42.902672, lon.=18.985653, Alt.=1061.079102m. Speed=56.484001m/h.</desc>
<speed>15.690000</speed>
</trkpt>
<trkpt lat="42.902550" lon="18.984663">
<ele>1055.610352</ele>
<time>2012-05-02T05:37:32Z</time>
<desc>lat.=42.902550, lon.=18.984663, Alt.=1055.610352m. Speed=59.652000m/h.</desc>
<speed>16.570000</speed>
</trkpt>
<trkpt lat="42.902733" lon="18.983635">
<ele>1049.141602</ele>
<time>2012-05-02T05:37:37Z</time>
<desc>lat.=42.902733, lon.=18.983635, Alt.=1049.141602m. Speed=62.675999m/h.</desc>
<speed>17.410000</speed>
</trkpt>
<trkpt lat="42.903084" lon="18.982647">
<ele>1043.766602</ele>
<time>2012-05-02T05:37:42Z</time>
<desc>lat.=42.903084, lon.=18.982647, Alt.=1043.766602m. Speed=64.620003m/h.</desc>
<speed>17.950001</speed>
</trkpt>
<trkpt lat="42.903149" lon="18.981529">
<ele>1038.016602</ele>
<time>2012-05-02T05:37:47Z</time>
<desc>lat.=42.903149, lon.=18.981529, Alt.=1038.016602m. Speed=66.708000m/h.</desc>
<speed>18.530000</speed>
</trkpt>
<trkpt lat="42.902946" lon="18.980400">
<ele>1031.485352</ele>
<time>2012-05-02T05:37:52Z</time>
<desc>lat.=42.902946, lon.=18.980400, Alt.=1031.485352m. Speed=68.580002m/h.</desc>
<speed>19.050001</speed>
</trkpt>
<trkpt lat="42.902893" lon="18.979231">
<ele>1024.735352</ele>
<time>2012-05-02T05:37:57Z</time>
<desc>lat.=42.902893, lon.=18.979231, Alt.=1024.735352m. Speed=69.624001m/h.</desc>
<speed>19.340000</speed>
</trkpt>
<trkpt lat="42.903145" lon="18.978079">
<ele>1018.773926</ele>
<time>2012-05-02T05:38:02Z</time>
<desc>lat.=42.903145, lon.=18.978079, Alt.=1018.773926m. Speed=70.739998m/h.</desc>
<speed>19.649999</speed>
</trkpt>
<trkpt lat="42.903431" lon="18.976933">
<ele>1013.805176</ele>
<time>2012-05-02T05:38:07Z</time>
<desc>lat.=42.903431, lon.=18.976933, Alt.=1013.805176m. Speed=71.171997m/h.</desc>
<speed>19.769999</speed>
</trkpt>
<trkpt lat="42.903557" lon="18.975719">
<ele>1006.836426</ele>
<time>2012-05-02T05:38:12Z</time>
<desc>lat.=42.903557, lon.=18.975719, Alt.=1006.836426m. Speed=73.367996m/h.</desc>
<speed>20.379999</speed>
</trkpt>
<trkpt lat="42.903530" lon="18.974449">
<ele>1000.070801</ele>
<time>2012-05-02T05:38:17Z</time>
<desc>lat.=42.903530, lon.=18.974449, Alt.=1000.070801m. Speed=76.068001m/h.</desc>
<speed>21.130000</speed>
</trkpt>
<trkpt lat="42.903633" lon="18.973145">
<ele>992.633301</ele>
<time>2012-05-02T05:38:22Z</time>
<desc>lat.=42.903633, lon.=18.973145, Alt.=992.633301m. Speed=78.335999m/h.</desc>
<speed>21.760000</speed>
</trkpt>
<trkpt lat="42.903961" lon="18.971874">
<ele>985.789551</ele>
<time>2012-05-02T05:38:27Z</time>
<desc>lat.=42.903961, lon.=18.971874, Alt.=985.789551m. Speed=76.356003m/h.</desc>
<speed>21.210001</speed>
</trkpt>
<trkpt lat="42.904205" lon="18.970690">
<ele>979.242676</ele>
<time>2012-05-02T05:38:32Z</time>
<desc>lat.=42.904205, lon.=18.970690, Alt.=979.242676m. Speed=69.767998m/h.</desc>
<speed>19.379999</speed>
</trkpt>
<trkpt lat="42.904125" lon="18.969561">
<ele>972.664551</ele>
<time>2012-05-02T05:38:37Z</time>
<desc>lat.=42.904125, lon.=18.969561, Alt.=972.664551m. Speed=65.807999m/h.</desc>
<speed>18.280000</speed>
</trkpt>
<trkpt lat="42.903797" lon="18.968491">
<ele>965.555176</ele>
<time>2012-05-02T05:38:42Z</time>
<desc>lat.=42.903797, lon.=18.968491, Alt.=965.555176m. Speed=70.487999m/h.</desc>
<speed>19.580000</speed>
</trkpt>
<trkpt lat="42.903400" lon="18.967360">
<ele>958.555176</ele>
<time>2012-05-02T05:38:47Z</time>
<desc>lat.=42.903400, lon.=18.967360, Alt.=958.555176m. Speed=75.419998m/h.</desc>
<speed>20.949999</speed>
</trkpt>
<trkpt lat="42.902985" lon="18.966148">
<ele>951.430176</ele>
<time>2012-05-02T05:38:52Z</time>
<desc>lat.=42.902985, lon.=18.966148, Alt.=951.430176m. Speed=79.776001m/h.</desc>
<speed>22.160000</speed>
</trkpt>
<trkpt lat="42.902618" lon="18.964855">
<ele>945.914551</ele>
<time>2012-05-02T05:38:57Z</time>
<desc>lat.=42.902618, lon.=18.964855, Alt.=945.914551m. Speed=82.008003m/h.</desc>
<speed>22.780001</speed>
</trkpt>
<trkpt lat="42.902508" lon="18.963480">
<ele>942.148926</ele>
<time>2012-05-02T05:39:02Z</time>
<desc>lat.=42.902508, lon.=18.963480, Alt.=942.148926m. Speed=80.568001m/h.</desc>
<speed>22.380000</speed>
</trkpt>
<trkpt lat="42.902485" lon="18.962147">
<ele>941.508301</ele>
<time>2012-05-02T05:39:07Z</time>
<desc>lat.=42.902485, lon.=18.962147, Alt.=941.508301m. Speed=76.320000m/h.</desc>
<speed>21.200000</speed>
</trkpt>
<trkpt lat="42.902420" lon="18.961012">
<ele>941.227051</ele>
<time>2012-05-02T05:39:12Z</time>
<desc>lat.=42.902420, lon.=18.961012, Alt.=941.227051m. Speed=56.160000m/h.</desc>
<speed>15.600000</speed>
</trkpt>
<trkpt lat="42.902054" lon="18.960293">
<ele>941.180176</ele>
<time>2012-05-02T05:39:17Z</time>
<desc>lat.=42.902054, lon.=18.960293, Alt.=941.180176m. Speed=50.472000m/h.</desc>
<speed>14.020000</speed>
</trkpt>
<trkpt lat="42.901543" lon="18.960030">
<ele>938.898926</ele>
<time>2012-05-02T05:39:22Z</time>
<desc>lat.=42.901543, lon.=18.960030, Alt.=938.898926m. Speed=33.984001m/h.</desc>
<speed>9.440000</speed>
</trkpt>
<trkpt lat="42.901310" lon="18.959997">
<ele>938.414551</ele>
<time>2012-05-02T05:39:27Z</time>
<desc>lat.=42.901310, lon.=18.959997, Alt.=938.414551m. Speed=15.120000m/h.</desc>
<speed>4.200000</speed>
</trkpt>
<trkpt lat="42.901165" lon="18.960386">
<ele>936.055176</ele>
<time>2012-05-02T05:39:32Z</time>
<desc>lat.=42.901165, lon.=18.960386, Alt.=936.055176m. Speed=32.723999m/h.</desc>
<speed>9.090000</speed>
</trkpt>
<trkpt lat="42.900902" lon="18.961102">
<ele>931.039551</ele>
<time>2012-05-02T05:39:37Z</time>
<desc>lat.=42.900902, lon.=18.961102, Alt.=931.039551m. Speed=54.863998m/h.</desc>
<speed>15.240000</speed>
</trkpt>
<trkpt lat="42.900463" lon="18.961916">
<ele>926.820801</ele>
<time>2012-05-02T05:39:42Z</time>
<desc>lat.=42.900463, lon.=18.961916, Alt.=926.820801m. Speed=61.307999m/h.</desc>
<speed>17.030000</speed>
</trkpt>
<trkpt lat="42.899887" lon="18.962671">
<ele>921.195801</ele>
<time>2012-05-02T05:39:47Z</time>
<desc>lat.=42.899887, lon.=18.962671, Alt.=921.195801m. Speed=65.195999m/h.</desc>
<speed>18.110000</speed>
</trkpt>
<trkpt lat="42.899189" lon="18.963297">
<ele>916.570801</ele>
<time>2012-05-02T05:39:52Z</time>
<desc>lat.=42.899189, lon.=18.963297, Alt.=916.570801m. Speed=66.564003m/h.</desc>
<speed>18.490001</speed>
</trkpt>
<trkpt lat="42.898430" lon="18.963732">
<ele>911.758301</ele>
<time>2012-05-02T05:39:57Z</time>
<desc>lat.=42.898430, lon.=18.963732, Alt.=911.758301m. Speed=61.992001m/h.</desc>
<speed>17.220000</speed>
</trkpt>
<trkpt lat="42.897686" lon="18.963957">
<ele>909.898926</ele>
<time>2012-05-02T05:40:02Z</time>
<desc>lat.=42.897686, lon.=18.963957, Alt.=909.898926m. Speed=59.183998m/h.</desc>
<speed>16.439999</speed>
</trkpt>
<trkpt lat="42.896946" lon="18.964024">
<ele>907.305176</ele>
<time>2012-05-02T05:40:07Z</time>
<desc>lat.=42.896946, lon.=18.964024, Alt.=907.305176m. Speed=58.824001m/h.</desc>
<speed>16.340000</speed>
</trkpt>
<trkpt lat="42.896210" lon="18.963900">
<ele>903.992676</ele>
<time>2012-05-02T05:40:12Z</time>
<desc>lat.=42.896210, lon.=18.963900, Alt.=903.992676m. Speed=59.759998m/h.</desc>
<speed>16.600000</speed>
</trkpt>
<trkpt lat="42.895409" lon="18.963598">
<ele>900.555176</ele>
<time>2012-05-02T05:40:17Z</time>
<desc>lat.=42.895409, lon.=18.963598, Alt.=900.555176m. Speed=73.944000m/h.</desc>
<speed>20.540000</speed>
</trkpt>
<trkpt lat="42.894432" lon="18.963150">
<ele>899.383301</ele>
<time>2012-05-02T05:40:22Z</time>
<desc>lat.=42.894432, lon.=18.963150, Alt.=899.383301m. Speed=84.708000m/h.</desc>
<speed>23.530000</speed>
</trkpt>
<trkpt lat="42.893406" lon="18.962645">
<ele>897.789551</ele>
<time>2012-05-02T05:40:27Z</time>
<desc>lat.=42.893406, lon.=18.962645, Alt.=897.789551m. Speed=88.848000m/h.</desc>
<speed>24.680000</speed>
</trkpt>
<trkpt lat="42.892338" lon="18.962172">
<ele>896.523926</ele>
<time>2012-05-02T05:40:32Z</time>
<desc>lat.=42.892338, lon.=18.962172, Alt.=896.523926m. Speed=89.171997m/h.</desc>
<speed>24.769999</speed>
</trkpt>
<trkpt lat="42.891285" lon="18.961802">
<ele>897.680176</ele>
<time>2012-05-02T05:40:37Z</time>
<desc>lat.=42.891285, lon.=18.961802, Alt.=897.680176m. Speed=85.356003m/h.</desc>
<speed>23.710001</speed>
</trkpt>
<trkpt lat="42.890285" lon="18.961561">
<ele>900.383301</ele>
<time>2012-05-02T05:40:42Z</time>
<desc>lat.=42.890285, lon.=18.961561, Alt.=900.383301m. Speed=78.444000m/h.</desc>
<speed>21.790000</speed>
</trkpt>
<trkpt lat="42.889343" lon="18.961340">
<ele>902.961426</ele>
<time>2012-05-02T05:40:47Z</time>
<desc>lat.=42.889343, lon.=18.961340, Alt.=902.961426m. Speed=72.792000m/h.</desc>
<speed>20.220000</speed>
</trkpt>
<trkpt lat="42.888577" lon="18.960802">
<ele>906.008301</ele>
<time>2012-05-02T05:40:52Z</time>
<desc>lat.=42.888577, lon.=18.960802, Alt.=906.008301m. Speed=66.671997m/h.</desc>
<speed>18.519999</speed>
</trkpt>
<trkpt lat="42.888134" lon="18.959948">
<ele>908.414551</ele>
<time>2012-05-02T05:40:57Z</time>
<desc>lat.=42.888134, lon.=18.959948, Alt.=908.414551m. Speed=57.672001m/h.</desc>
<speed>16.020000</speed>
</trkpt>
<trkpt lat="42.887997" lon="18.958973">
<ele>909.055176</ele>
<time>2012-05-02T05:41:02Z</time>
<desc>lat.=42.887997, lon.=18.958973, Alt.=909.055176m. Speed=58.608002m/h.</desc>
<speed>16.280000</speed>
</trkpt>
<trkpt lat="42.888031" lon="18.957930">
<ele>907.680176</ele>
<time>2012-05-02T05:41:07Z</time>
<desc>lat.=42.888031, lon.=18.957930, Alt.=907.680176m. Speed=61.919998m/h.</desc>
<speed>17.199999</speed>
</trkpt>
<trkpt lat="42.887859" lon="18.956844">
<ele>905.289551</ele>
<time>2012-05-02T05:41:12Z</time>
<desc>lat.=42.887859, lon.=18.956844, Alt.=905.289551m. Speed=69.444000m/h.</desc>
<speed>19.290000</speed>
</trkpt>
<trkpt lat="42.887356" lon="18.955740">
<ele>900.102051</ele>
<time>2012-05-02T05:41:17Z</time>
<desc>lat.=42.887356, lon.=18.955740, Alt.=900.102051m. Speed=79.524002m/h.</desc>
<speed>22.090001</speed>
</trkpt>
<trkpt lat="42.886742" lon="18.954611">
<ele>893.148926</ele>
<time>2012-05-02T05:41:22Z</time>
<desc>lat.=42.886742, lon.=18.954611, Alt.=893.148926m. Speed=82.547997m/h.</desc>
<speed>22.929999</speed>
</trkpt>
<trkpt lat="42.886238" lon="18.953562">
<ele>886.945801</ele>
<time>2012-05-02T05:41:27Z</time>
<desc>lat.=42.886238, lon.=18.953562, Alt.=886.945801m. Speed=69.552002m/h.</desc>
<speed>19.320001</speed>
</trkpt>
<trkpt lat="42.885975" lon="18.952391">
<ele>879.695801</ele>
<time>2012-05-02T05:41:32Z</time>
<desc>lat.=42.885975, lon.=18.952391, Alt.=879.695801m. Speed=72.755997m/h.</desc>
<speed>20.209999</speed>
</trkpt>
<trkpt lat="42.885536" lon="18.951317">
<ele>873.758301</ele>
<time>2012-05-02T05:41:37Z</time>
<desc>lat.=42.885536, lon.=18.951317, Alt.=873.758301m. Speed=73.584000m/h.</desc>
<speed>20.440000</speed>
</trkpt>
<trkpt lat="42.884857" lon="18.950439">
<ele>867.398926</ele>
<time>2012-05-02T05:41:42Z</time>
<desc>lat.=42.884857, lon.=18.950439, Alt.=867.398926m. Speed=76.031998m/h.</desc>
<speed>21.119999</speed>
</trkpt>
<trkpt lat="42.884144" lon="18.949572">
<ele>861.695801</ele>
<time>2012-05-02T05:41:47Z</time>
<desc>lat.=42.884144, lon.=18.949572, Alt.=861.695801m. Speed=77.472000m/h.</desc>
<speed>21.520000</speed>
</trkpt>
<trkpt lat="42.883419" lon="18.948683">
<ele>855.305176</ele>
<time>2012-05-02T05:41:52Z</time>
<desc>lat.=42.883419, lon.=18.948683, Alt.=855.305176m. Speed=78.300003m/h.</desc>
<speed>21.750001</speed>
</trkpt>
<trkpt lat="42.882690" lon="18.947783">
<ele>848.320801</ele>
<time>2012-05-02T05:41:57Z</time>
<desc>lat.=42.882690, lon.=18.947783, Alt.=848.320801m. Speed=79.667999m/h.</desc>
<speed>22.130000</speed>
</trkpt>
<trkpt lat="42.881992" lon="18.946928">
<ele>841.258301</ele>
<time>2012-05-02T05:42:02Z</time>
<desc>lat.=42.881992, lon.=18.946928, Alt.=841.258301m. Speed=66.024002m/h.</desc>
<speed>18.340001</speed>
</trkpt>
<trkpt lat="42.881481" lon="18.946123">
<ele>835.102051</ele>
<time>2012-05-02T05:42:07Z</time>
<desc>lat.=42.881481, lon.=18.946123, Alt.=835.102051m. Speed=64.188004m/h.</desc>
<speed>17.830001</speed>
</trkpt>
<trkpt lat="42.881165" lon="18.945053">
<ele>830.055176</ele>
<time>2012-05-02T05:42:12Z</time>
<desc>lat.=42.881165, lon.=18.945053, Alt.=830.055176m. Speed=71.351997m/h.</desc>
<speed>19.819999</speed>
</trkpt>
<trkpt lat="42.880901" lon="18.943851">
<ele>826.852051</ele>
<time>2012-05-02T05:42:17Z</time>
<desc>lat.=42.880901, lon.=18.943851, Alt.=826.852051m. Speed=73.692001m/h.</desc>
<speed>20.470000</speed>
</trkpt>
<trkpt lat="42.880478" lon="18.942774">
<ele>825.914551</ele>
<time>2012-05-02T05:42:22Z</time>
<desc>lat.=42.880478, lon.=18.942774, Alt.=825.914551m. Speed=70.127998m/h.</desc>
<speed>19.480000</speed>
</trkpt>
<trkpt lat="42.879753" lon="18.942057">
<ele>824.445801</ele>
<time>2012-05-02T05:42:27Z</time>
<desc>lat.=42.879753, lon.=18.942057, Alt.=824.445801m. Speed=74.844002m/h.</desc>
<speed>20.790000</speed>
</trkpt>
<trkpt lat="42.879002" lon="18.941313">
<ele>823.055176</ele>
<time>2012-05-02T05:42:32Z</time>
<desc>lat.=42.879002, lon.=18.941313, Alt.=823.055176m. Speed=75.888000m/h.</desc>
<speed>21.080000</speed>
</trkpt>
<trkpt lat="42.878319" lon="18.940416">
<ele>820.367676</ele>
<time>2012-05-02T05:42:37Z</time>
<desc>lat.=42.878319, lon.=18.940416, Alt.=820.367676m. Speed=76.860001m/h.</desc>
<speed>21.350000</speed>
</trkpt>
<trkpt lat="42.877434" lon="18.939837">
<ele>814.961426</ele>
<time>2012-05-02T05:42:42Z</time>
<desc>lat.=42.877434, lon.=18.939837, Alt.=814.961426m. Speed=79.884003m/h.</desc>
<speed>22.190001</speed>
</trkpt>
<trkpt lat="42.876457" lon="18.939482">
<ele>806.508301</ele>
<time>2012-05-02T05:42:47Z</time>
<desc>lat.=42.876457, lon.=18.939482, Alt.=806.508301m. Speed=82.475998m/h.</desc>
<speed>22.909999</speed>
</trkpt>
<trkpt lat="42.875504" lon="18.938900">
<ele>800.289551</ele>
<time>2012-05-02T05:42:52Z</time>
<desc>lat.=42.875504, lon.=18.938900, Alt.=800.289551m. Speed=83.519997m/h.</desc>
<speed>23.199999</speed>
</trkpt>
<trkpt lat="42.874603" lon="18.938372">
<ele>792.961426</ele>
<time>2012-05-02T05:42:57Z</time>
<desc>lat.=42.874603, lon.=18.938372, Alt.=792.961426m. Speed=77.543999m/h.</desc>
<speed>21.540000</speed>
</trkpt>
<trkpt lat="42.873703" lon="18.937872">
<ele>786.820801</ele>
<time>2012-05-02T05:43:02Z</time>
<desc>lat.=42.873703, lon.=18.937872, Alt.=786.820801m. Speed=77.508003m/h.</desc>
<speed>21.530001</speed>
</trkpt>
<trkpt lat="42.872887" lon="18.937140">
<ele>781.727051</ele>
<time>2012-05-02T05:43:07Z</time>
<desc>lat.=42.872887, lon.=18.937140, Alt.=781.727051m. Speed=77.867996m/h.</desc>
<speed>21.629999</speed>
</trkpt>
<trkpt lat="42.871994" lon="18.936609">
<ele>774.648926</ele>
<time>2012-05-02T05:43:12Z</time>
<desc>lat.=42.871994, lon.=18.936609, Alt.=774.648926m. Speed=78.947998m/h.</desc>
<speed>21.929999</speed>
</trkpt>
<trkpt lat="42.871094" lon="18.936153">
<ele>767.445801</ele>
<time>2012-05-02T05:43:17Z</time>
<desc>lat.=42.871094, lon.=18.936153, Alt.=767.445801m. Speed=76.643997m/h.</desc>
<speed>21.289999</speed>
</trkpt>
<trkpt lat="42.870251" lon="18.935492">
<ele>760.867676</ele>
<time>2012-05-02T05:43:22Z</time>
<desc>lat.=42.870251, lon.=18.935492, Alt.=760.867676m. Speed=77.760002m/h.</desc>
<speed>21.600001</speed>
</trkpt>
<trkpt lat="42.869411" lon="18.934809">
<ele>755.039551</ele>
<time>2012-05-02T05:43:27Z</time>
<desc>lat.=42.869411, lon.=18.934809, Alt.=755.039551m. Speed=78.480003m/h.</desc>
<speed>21.800001</speed>
</trkpt>
<trkpt lat="42.868553" lon="18.934120">
<ele>749.461426</ele>
<time>2012-05-02T05:43:32Z</time>
<desc>lat.=42.868553, lon.=18.934120, Alt.=749.461426m. Speed=80.496002m/h.</desc>
<speed>22.360001</speed>
</trkpt>
<trkpt lat="42.867668" lon="18.933439">
<ele>744.008301</ele>
<time>2012-05-02T05:43:37Z</time>
<desc>lat.=42.867668, lon.=18.933439, Alt.=744.008301m. Speed=81.216003m/h.</desc>
<speed>22.560001</speed>
</trkpt>
<trkpt lat="42.866722" lon="18.933043">
<ele>740.148926</ele>
<time>2012-05-02T05:43:42Z</time>
<desc>lat.=42.866722, lon.=18.933043, Alt.=740.148926m. Speed=79.307999m/h.</desc>
<speed>22.030000</speed>
</trkpt>
<trkpt lat="42.865746" lon="18.933134">
<ele>738.398926</ele>
<time>2012-05-02T05:43:47Z</time>
<desc>lat.=42.865746, lon.=18.933134, Alt.=738.398926m. Speed=77.543999m/h.</desc>
<speed>21.540000</speed>
</trkpt>
<trkpt lat="42.864799" lon="18.933561">
<ele>734.711426</ele>
<time>2012-05-02T05:43:52Z</time>
<desc>lat.=42.864799, lon.=18.933561, Alt.=734.711426m. Speed=79.919998m/h.</desc>
<speed>22.199999</speed>
</trkpt>
<trkpt lat="42.863895" lon="18.934082">
<ele>730.539551</ele>
<time>2012-05-02T05:43:57Z</time>
<desc>lat.=42.863895, lon.=18.934082, Alt.=730.539551m. Speed=73.260002m/h.</desc>
<speed>20.350001</speed>
</trkpt>
<trkpt lat="42.863277" lon="18.934446">
<ele>726.945801</ele>
<time>2012-05-02T05:44:02Z</time>
<desc>lat.=42.863277, lon.=18.934446, Alt.=726.945801m. Speed=40.320000m/h.</desc>
<speed>11.200000</speed>
</trkpt>
<trkpt lat="42.863033" lon="18.935024">
<ele>726.945801</ele>
<time>2012-05-02T05:44:07Z</time>
<desc>lat.=42.863033, lon.=18.935024, Alt.=726.945801m. Speed=43.776001m/h.</desc>
<speed>12.160000</speed>
</trkpt>
<trkpt lat="42.863091" lon="18.935858">
<ele>726.742676</ele>
<time>2012-05-02T05:44:12Z</time>
<desc>lat.=42.863091, lon.=18.935858, Alt.=726.742676m. Speed=48.672001m/h.</desc>
<speed>13.520000</speed>
</trkpt>
<trkpt lat="42.863125" lon="18.936687">
<ele>724.539551</ele>
<time>2012-05-02T05:44:17Z</time>
<desc>lat.=42.863125, lon.=18.936687, Alt.=724.539551m. Speed=48.599998m/h.</desc>
<speed>13.500000</speed>
</trkpt>
<trkpt lat="42.863014" lon="18.937525">
<ele>720.602051</ele>
<time>2012-05-02T05:44:22Z</time>
<desc>lat.=42.863014, lon.=18.937525, Alt.=720.602051m. Speed=51.372002m/h.</desc>
<speed>14.270000</speed>
</trkpt>
<trkpt lat="42.862690" lon="18.938313">
<ele>714.898926</ele>
<time>2012-05-02T05:44:27Z</time>
<desc>lat.=42.862690, lon.=18.938313, Alt.=714.898926m. Speed=55.872002m/h.</desc>
<speed>15.520000</speed>
</trkpt>
<trkpt lat="42.862141" lon="18.938934">
<ele>707.117676</ele>
<time>2012-05-02T05:44:32Z</time>
<desc>lat.=42.862141, lon.=18.938934, Alt.=707.117676m. Speed=60.048000m/h.</desc>
<speed>16.680000</speed>
</trkpt>
<trkpt lat="42.861450" lon="18.939255">
<ele>700.867676</ele>
<time>2012-05-02T05:44:37Z</time>
<desc>lat.=42.861450, lon.=18.939255, Alt.=700.867676m. Speed=56.124001m/h.</desc>
<speed>15.590000</speed>
</trkpt>
<trkpt lat="42.860760" lon="18.939335">
<ele>695.133301</ele>
<time>2012-05-02T05:44:42Z</time>
<desc>lat.=42.860760, lon.=18.939335, Alt.=695.133301m. Speed=56.015999m/h.</desc>
<speed>15.560000</speed>
</trkpt>
<trkpt lat="42.860039" lon="18.939478">
<ele>689.352051</ele>
<time>2012-05-02T05:44:47Z</time>
<desc>lat.=42.860039, lon.=18.939478, Alt.=689.352051m. Speed=60.408001m/h.</desc>
<speed>16.780000</speed>
</trkpt>
<trkpt lat="42.859379" lon="18.940027">
<ele>683.211426</ele>
<time>2012-05-02T05:44:52Z</time>
<desc>lat.=42.859379, lon.=18.940027, Alt.=683.211426m. Speed=64.440002m/h.</desc>
<speed>17.900001</speed>
</trkpt>
<trkpt lat="42.858921" lon="18.940924">
<ele>677.508301</ele>
<time>2012-05-02T05:44:57Z</time>
<desc>lat.=42.858921, lon.=18.940924, Alt.=677.508301m. Speed=62.748001m/h.</desc>
<speed>17.430000</speed>
</trkpt>
<trkpt lat="42.858578" lon="18.941906">
<ele>670.977051</ele>
<time>2012-05-02T05:45:02Z</time>
<desc>lat.=42.858578, lon.=18.941906, Alt.=670.977051m. Speed=61.919998m/h.</desc>
<speed>17.199999</speed>
</trkpt>
<trkpt lat="42.858227" lon="18.942766">
<ele>666.039551</ele>
<time>2012-05-02T05:45:07Z</time>
<desc>lat.=42.858227, lon.=18.942766, Alt.=666.039551m. Speed=51.444000m/h.</desc>
<speed>14.290000</speed>
</trkpt>
<trkpt lat="42.857746" lon="18.943176">
<ele>663.273926</ele>
<time>2012-05-02T05:45:12Z</time>
<desc>lat.=42.857746, lon.=18.943176, Alt.=663.273926m. Speed=41.580002m/h.</desc>
<speed>11.550001</speed>
</trkpt>
<trkpt lat="42.857235" lon="18.943108">
<ele>661.195801</ele>
<time>2012-05-02T05:45:17Z</time>
<desc>lat.=42.857235, lon.=18.943108, Alt.=661.195801m. Speed=41.183998m/h.</desc>
<speed>11.439999</speed>
</trkpt>
<trkpt lat="42.856800" lon="18.942837">
<ele>659.711426</ele>
<time>2012-05-02T05:45:22Z</time>
<desc>lat.=42.856800, lon.=18.942837, Alt.=659.711426m. Speed=30.708000m/h.</desc>
<speed>8.530000</speed>
</trkpt>
<trkpt lat="42.856483" lon="18.943104">
<ele>657.977051</ele>
<time>2012-05-02T05:45:27Z</time>
<desc>lat.=42.856483, lon.=18.943104, Alt.=657.977051m. Speed=32.903999m/h.</desc>
<speed>9.140000</speed>
</trkpt>
<trkpt lat="42.856171" lon="18.943493">
<ele>655.086426</ele>
<time>2012-05-02T05:45:32Z</time>
<desc>lat.=42.856171, lon.=18.943493, Alt.=655.086426m. Speed=35.388000m/h.</desc>
<speed>9.830000</speed>
</trkpt>
<trkpt lat="42.855728" lon="18.943607">
<ele>652.008301</ele>
<time>2012-05-02T05:45:37Z</time>
<desc>lat.=42.855728, lon.=18.943607, Alt.=652.008301m. Speed=40.355999m/h.</desc>
<speed>11.210000</speed>
</trkpt>
<trkpt lat="42.855190" lon="18.943398">
<ele>649.055176</ele>
<time>2012-05-02T05:45:42Z</time>
<desc>lat.=42.855190, lon.=18.943398, Alt.=649.055176m. Speed=46.835999m/h.</desc>
<speed>13.010000</speed>
</trkpt>
<trkpt lat="42.854622" lon="18.943163">
<ele>646.070801</ele>
<time>2012-05-02T05:45:47Z</time>
<desc>lat.=42.854622, lon.=18.943163, Alt.=646.070801m. Speed=47.736000m/h.</desc>
<speed>13.260000</speed>
</trkpt>
<trkpt lat="42.854103" lon="18.942909">
<ele>643.773926</ele>
<time>2012-05-02T05:45:52Z</time>
<desc>lat.=42.854103, lon.=18.942909, Alt.=643.773926m. Speed=42.731998m/h.</desc>
<speed>11.870000</speed>
</trkpt>
<trkpt lat="42.853722" lon="18.942432">
<ele>643.086426</ele>
<time>2012-05-02T05:45:57Z</time>
<desc>lat.=42.853722, lon.=18.942432, Alt.=643.086426m. Speed=40.212002m/h.</desc>
<speed>11.170001</speed>
</trkpt>
<trkpt lat="42.853580" lon="18.941734">
<ele>643.414551</ele>
<time>2012-05-02T05:46:02Z</time>
<desc>lat.=42.853580, lon.=18.941734, Alt.=643.414551m. Speed=47.771999m/h.</desc>
<speed>13.270000</speed>
</trkpt>
<trkpt lat="42.853550" lon="18.940861">
<ele>643.227051</ele>
<time>2012-05-02T05:46:07Z</time>
<desc>lat.=42.853550, lon.=18.940861, Alt.=643.227051m. Speed=52.271999m/h.</desc>
<speed>14.520000</speed>
</trkpt>
<trkpt lat="42.853325" lon="18.940031">
<ele>643.820801</ele>
<time>2012-05-02T05:46:12Z</time>
<desc>lat.=42.853325, lon.=18.940031, Alt.=643.820801m. Speed=48.995998m/h.</desc>
<speed>13.610000</speed>
</trkpt>
<trkpt lat="42.852947" lon="18.939409">
<ele>644.820801</ele>
<time>2012-05-02T05:46:17Z</time>
<desc>lat.=42.852947, lon.=18.939409, Alt.=644.820801m. Speed=46.619999m/h.</desc>
<speed>12.950000</speed>
</trkpt>
<trkpt lat="42.852444" lon="18.939007">
<ele>646.258301</ele>
<time>2012-05-02T05:46:22Z</time>
<desc>lat.=42.852444, lon.=18.939007, Alt.=646.258301m. Speed=48.312000m/h.</desc>
<speed>13.420000</speed>
</trkpt>
<trkpt lat="42.851875" lon="18.938765">
<ele>647.273926</ele>
<time>2012-05-02T05:46:27Z</time>
<desc>lat.=42.851875, lon.=18.938765, Alt.=647.273926m. Speed=44.568001m/h.</desc>
<speed>12.380000</speed>
</trkpt>
<trkpt lat="42.851398" lon="18.938435">
<ele>649.336426</ele>
<time>2012-05-02T05:46:32Z</time>
<desc>lat.=42.851398, lon.=18.938435, Alt.=649.336426m. Speed=41.507999m/h.</desc>
<speed>11.530000</speed>
</trkpt>
<trkpt lat="42.851105" lon="18.937843">
<ele>650.273926</ele>
<time>2012-05-02T05:46:37Z</time>
<desc>lat.=42.851105, lon.=18.937843, Alt.=650.273926m. Speed=43.703999m/h.</desc>
<speed>12.140000</speed>
</trkpt>
<trkpt lat="42.850746" lon="18.937220">
<ele>649.633301</ele>
<time>2012-05-02T05:46:42Z</time>
<desc>lat.=42.850746, lon.=18.937220, Alt.=649.633301m. Speed=48.636002m/h.</desc>
<speed>13.510000</speed>
</trkpt>
<trkpt lat="42.850311" lon="18.936588">
<ele>648.930176</ele>
<time>2012-05-02T05:46:47Z</time>
<desc>lat.=42.850311, lon.=18.936588, Alt.=648.930176m. Speed=52.380001m/h.</desc>
<speed>14.550000</speed>
</trkpt>
<trkpt lat="42.849796" lon="18.936003">
<ele>648.398926</ele>
<time>2012-05-02T05:46:52Z</time>
<desc>lat.=42.849796, lon.=18.936003, Alt.=648.398926m. Speed=55.188000m/h.</desc>
<speed>15.330000</speed>
</trkpt>
<trkpt lat="42.849213" lon="18.935444">
<ele>647.570801</ele>
<time>2012-05-02T05:46:57Z</time>
<desc>lat.=42.849213, lon.=18.935444, Alt.=647.570801m. Speed=57.959999m/h.</desc>
<speed>16.100000</speed>
</trkpt>
<trkpt lat="42.848564" lon="18.935019">
<ele>646.914551</ele>
<time>2012-05-02T05:47:02Z</time>
<desc>lat.=42.848564, lon.=18.935019, Alt.=646.914551m. Speed=56.304001m/h.</desc>
<speed>15.640000</speed>
</trkpt>
<trkpt lat="42.847923" lon="18.934687">
<ele>645.633301</ele>
<time>2012-05-02T05:47:07Z</time>
<desc>lat.=42.847923, lon.=18.934687, Alt.=645.633301m. Speed=54.504002m/h.</desc>
<speed>15.140000</speed>
</trkpt>
<trkpt lat="42.847321" lon="18.934273">
<ele>644.539551</ele>
<time>2012-05-02T05:47:12Z</time>
<desc>lat.=42.847321, lon.=18.934273, Alt.=644.539551m. Speed=54.756001m/h.</desc>
<speed>15.210000</speed>
</trkpt>
<trkpt lat="42.846779" lon="18.933638">
<ele>643.570801</ele>
<time>2012-05-02T05:47:17Z</time>
<desc>lat.=42.846779, lon.=18.933638, Alt.=643.570801m. Speed=58.931999m/h.</desc>
<speed>16.370000</speed>
</trkpt>
<trkpt lat="42.846272" lon="18.932878">
<ele>642.930176</ele>
<time>2012-05-02T05:47:22Z</time>
<desc>lat.=42.846272, lon.=18.932878, Alt.=642.930176m. Speed=59.436001m/h.</desc>
<speed>16.510000</speed>
</trkpt>
<trkpt lat="42.845791" lon="18.932117">
<ele>642.242676</ele>
<time>2012-05-02T05:47:27Z</time>
<desc>lat.=42.845791, lon.=18.932117, Alt.=642.242676m. Speed=60.372002m/h.</desc>
<speed>16.770000</speed>
</trkpt>
<trkpt lat="42.845226" lon="18.931324">
<ele>640.930176</ele>
<time>2012-05-02T05:47:32Z</time>
<desc>lat.=42.845226, lon.=18.931324, Alt.=640.930176m. Speed=64.440002m/h.</desc>
<speed>17.900001</speed>
</trkpt>
<trkpt lat="42.844658" lon="18.930563">
<ele>640.195801</ele>
<time>2012-05-02T05:47:37Z</time>
<desc>lat.=42.844658, lon.=18.930563, Alt.=640.195801m. Speed=62.748001m/h.</desc>
<speed>17.430000</speed>
</trkpt>
<trkpt lat="42.844093" lon="18.929804">
<ele>639.383301</ele>
<time>2012-05-02T05:47:42Z</time>
<desc>lat.=42.844093, lon.=18.929804, Alt.=639.383301m. Speed=65.772003m/h.</desc>
<speed>18.270001</speed>
</trkpt>
<trkpt lat="42.843483" lon="18.929031">
<ele>638.336426</ele>
<time>2012-05-02T05:47:47Z</time>
<desc>lat.=42.843483, lon.=18.929031, Alt.=638.336426m. Speed=65.519997m/h.</desc>
<speed>18.199999</speed>
</trkpt>
<trkpt lat="42.842869" lon="18.928350">
<ele>637.555176</ele>
<time>2012-05-02T05:47:52Z</time>
<desc>lat.=42.842869, lon.=18.928350, Alt.=637.555176m. Speed=61.307999m/h.</desc>
<speed>17.030000</speed>
</trkpt>
<trkpt lat="42.842274" lon="18.927715">
<ele>636.867676</ele>
<time>2012-05-02T05:47:57Z</time>
<desc>lat.=42.842274, lon.=18.927715, Alt.=636.867676m. Speed=59.723999m/h.</desc>
<speed>16.590000</speed>
</trkpt>
<trkpt lat="42.841660" lon="18.927080">
<ele>635.602051</ele>
<time>2012-05-02T05:48:02Z</time>
<desc>lat.=42.841660, lon.=18.927080, Alt.=635.602051m. Speed=63.360001m/h.</desc>
<speed>17.600000</speed>
</trkpt>
<trkpt lat="42.841022" lon="18.926449">
<ele>634.305176</ele>
<time>2012-05-02T05:48:07Z</time>
<desc>lat.=42.841022, lon.=18.926449, Alt.=634.305176m. Speed=62.639999m/h.</desc>
<speed>17.400000</speed>
</trkpt>
<trkpt lat="42.840397" lon="18.925842">
<ele>633.273926</ele>
<time>2012-05-02T05:48:12Z</time>
<desc>lat.=42.840397, lon.=18.925842, Alt.=633.273926m. Speed=60.695999m/h.</desc>
<speed>16.860000</speed>
</trkpt>
<trkpt lat="42.839771" lon="18.925247">
<ele>631.930176</ele>
<time>2012-05-02T05:48:17Z</time>
<desc>lat.=42.839771, lon.=18.925247, Alt.=631.930176m. Speed=63.180000m/h.</desc>
<speed>17.550000</speed>
</trkpt>
<trkpt lat="42.839024" lon="18.924717">
<ele>630.070801</ele>
<time>2012-05-02T05:48:22Z</time>
<desc>lat.=42.839024, lon.=18.924717, Alt.=630.070801m. Speed=68.975998m/h.</desc>
<speed>19.159999</speed>
</trkpt>
<trkpt lat="42.838280" lon="18.924143">
<ele>629.570801</ele>
<time>2012-05-02T05:48:27Z</time>
<desc>lat.=42.838280, lon.=18.924143, Alt.=629.570801m. Speed=67.139999m/h.</desc>
<speed>18.650000</speed>
</trkpt>
<trkpt lat="42.837574" lon="18.923576">
<ele>629.477051</ele>
<time>2012-05-02T05:48:32Z</time>
<desc>lat.=42.837574, lon.=18.923576, Alt.=629.477051m. Speed=64.332001m/h.</desc>
<speed>17.870000</speed>
</trkpt>
<trkpt lat="42.836903" lon="18.923025">
<ele>628.898926</ele>
<time>2012-05-02T05:48:37Z</time>
<desc>lat.=42.836903, lon.=18.923025, Alt.=628.898926m. Speed=61.560001m/h.</desc>
<speed>17.100000</speed>
</trkpt>
<trkpt lat="42.836235" lon="18.922501">
<ele>628.414551</ele>
<time>2012-05-02T05:48:42Z</time>
<desc>lat.=42.836235, lon.=18.922501, Alt.=628.414551m. Speed=62.459999m/h.</desc>
<speed>17.350000</speed>
</trkpt>
<trkpt lat="42.835526" lon="18.922060">
<ele>628.039551</ele>
<time>2012-05-02T05:48:47Z</time>
<desc>lat.=42.835526, lon.=18.922060, Alt.=628.039551m. Speed=59.688000m/h.</desc>
<speed>16.580000</speed>
</trkpt>
<trkpt lat="42.834831" lon="18.921642">
<ele>628.148926</ele>
<time>2012-05-02T05:48:52Z</time>
<desc>lat.=42.834831, lon.=18.921642, Alt.=628.148926m. Speed=59.903999m/h.</desc>
<speed>16.640000</speed>
</trkpt>
<trkpt lat="42.834145" lon="18.921257">
<ele>628.336426</ele>
<time>2012-05-02T05:48:57Z</time>
<desc>lat.=42.834145, lon.=18.921257, Alt.=628.336426m. Speed=58.355999m/h.</desc>
<speed>16.210000</speed>
</trkpt>
<trkpt lat="42.833481" lon="18.920866">
<ele>627.539551</ele>
<time>2012-05-02T05:49:02Z</time>
<desc>lat.=42.833481, lon.=18.920866, Alt.=627.539551m. Speed=57.959999m/h.</desc>
<speed>16.100000</speed>
</trkpt>
<trkpt lat="42.832806" lon="18.920504">
<ele>627.227051</ele>
<time>2012-05-02T05:49:07Z</time>
<desc>lat.=42.832806, lon.=18.920504, Alt.=627.227051m. Speed=59.004002m/h.</desc>
<speed>16.390000</speed>
</trkpt>
<trkpt lat="42.832092" lon="18.920208">
<ele>626.273926</ele>
<time>2012-05-02T05:49:12Z</time>
<desc>lat.=42.832092, lon.=18.920208, Alt.=626.273926m. Speed=60.012001m/h.</desc>
<speed>16.670000</speed>
</trkpt>
<trkpt lat="42.831356" lon="18.919907">
<ele>625.367676</ele>
<time>2012-05-02T05:49:17Z</time>
<desc>lat.=42.831356, lon.=18.919907, Alt.=625.367676m. Speed=61.416000m/h.</desc>
<speed>17.060000</speed>
</trkpt>
<trkpt lat="42.830627" lon="18.919596">
<ele>624.586426</ele>
<time>2012-05-02T05:49:22Z</time>
<desc>lat.=42.830627, lon.=18.919596, Alt.=624.586426m. Speed=60.911999m/h.</desc>
<speed>16.920000</speed>
</trkpt>
<trkpt lat="42.829899" lon="18.919180">
<ele>624.148926</ele>
<time>2012-05-02T05:49:27Z</time>
<desc>lat.=42.829899, lon.=18.919180, Alt.=624.148926m. Speed=66.599998m/h.</desc>
<speed>18.500000</speed>
</trkpt>
<trkpt lat="42.829117" lon="18.918665">
<ele>623.539551</ele>
<time>2012-05-02T05:49:32Z</time>
<desc>lat.=42.829117, lon.=18.918665, Alt.=623.539551m. Speed=69.947998m/h.</desc>
<speed>19.429999</speed>
</trkpt>
<trkpt lat="42.828339" lon="18.918163">
<ele>623.367676</ele>
<time>2012-05-02T05:49:37Z</time>
<desc>lat.=42.828339, lon.=18.918163, Alt.=623.367676m. Speed=66.888000m/h.</desc>
<speed>18.580000</speed>
</trkpt>
<trkpt lat="42.827587" lon="18.917700">
<ele>623.273926</ele>
<time>2012-05-02T05:49:42Z</time>
<desc>lat.=42.827587, lon.=18.917700, Alt.=623.273926m. Speed=65.267998m/h.</desc>
<speed>18.129999</speed>
</trkpt>
<trkpt lat="42.826836" lon="18.917278">
<ele>623.008301</ele>
<time>2012-05-02T05:49:47Z</time>
<desc>lat.=42.826836, lon.=18.917278, Alt.=623.008301m. Speed=63.756001m/h.</desc>
<speed>17.710000</speed>
</trkpt>
<trkpt lat="42.826092" lon="18.916872">
<ele>623.195801</ele>
<time>2012-05-02T05:49:52Z</time>
<desc>lat.=42.826092, lon.=18.916872, Alt.=623.195801m. Speed=64.080002m/h.</desc>
<speed>17.800001</speed>
</trkpt>
<trkpt lat="42.825359" lon="18.916466">
<ele>623.039551</ele>
<time>2012-05-02T05:49:57Z</time>
<desc>lat.=42.825359, lon.=18.916466, Alt.=623.039551m. Speed=61.091999m/h.</desc>
<speed>16.970000</speed>
</trkpt>
<trkpt lat="42.824692" lon="18.916098">
<ele>623.242676</ele>
<time>2012-05-02T05:50:02Z</time>
<desc>lat.=42.824692, lon.=18.916098, Alt.=623.242676m. Speed=55.584000m/h.</desc>
<speed>15.440000</speed>
</trkpt>
<trkpt lat="42.824108" lon="18.915688">
<ele>623.414551</ele>
<time>2012-05-02T05:50:07Z</time>
<desc>lat.=42.824108, lon.=18.915688, Alt.=623.414551m. Speed=49.680000m/h.</desc>
<speed>13.800000</speed>
</trkpt>
<trkpt lat="42.823547" lon="18.915449">
<ele>623.180176</ele>
<time>2012-05-02T05:50:12Z</time>
<desc>lat.=42.823547, lon.=18.915449, Alt.=623.180176m. Speed=46.764000m/h.</desc>
<speed>12.990000</speed>
</trkpt>
<trkpt lat="42.823017" lon="18.915651">
<ele>622.977051</ele>
<time>2012-05-02T05:50:17Z</time>
<desc>lat.=42.823017, lon.=18.915651, Alt.=622.977051m. Speed=44.099998m/h.</desc>
<speed>12.250000</speed>
</trkpt>
<trkpt lat="42.822475" lon="18.916122">
<ele>622.852051</ele>
<time>2012-05-02T05:50:22Z</time>
<desc>lat.=42.822475, lon.=18.916122, Alt.=622.852051m. Speed=60.804001m/h.</desc>
<speed>16.890000</speed>
</trkpt>
<trkpt lat="42.821827" lon="18.916677">
<ele>622.883301</ele>
<time>2012-05-02T05:50:27Z</time>
<desc>lat.=42.821827, lon.=18.916677, Alt.=622.883301m. Speed=61.307999m/h.</desc>
<speed>17.030000</speed>
</trkpt>
<trkpt lat="42.821156" lon="18.917238">
<ele>622.945801</ele>
<time>2012-05-02T05:50:32Z</time>
<desc>lat.=42.821156, lon.=18.917238, Alt.=622.945801m. Speed=64.223999m/h.</desc>
<speed>17.840000</speed>
</trkpt>
<trkpt lat="42.820454" lon="18.917826">
<ele>622.664551</ele>
<time>2012-05-02T05:50:37Z</time>
<desc>lat.=42.820454, lon.=18.917826, Alt.=622.664551m. Speed=67.248001m/h.</desc>
<speed>18.680000</speed>
</trkpt>
<trkpt lat="42.819695" lon="18.918459">
<ele>621.961426</ele>
<time>2012-05-02T05:50:42Z</time>
<desc>lat.=42.819695, lon.=18.918459, Alt.=621.961426m. Speed=75.239998m/h.</desc>
<speed>20.899999</speed>
</trkpt>
<trkpt lat="42.818893" lon="18.919136">
<ele>621.414551</ele>
<time>2012-05-02T05:50:47Z</time>
<desc>lat.=42.818893, lon.=18.919136, Alt.=621.414551m. Speed=75.204002m/h.</desc>
<speed>20.890001</speed>
</trkpt>
<trkpt lat="42.818104" lon="18.919785">
<ele>621.102051</ele>
<time>2012-05-02T05:50:52Z</time>
<desc>lat.=42.818104, lon.=18.919785, Alt.=621.102051m. Speed=71.783997m/h.</desc>
<speed>19.939999</speed>
</trkpt>
<trkpt lat="42.817360" lon="18.920399">
<ele>620.492676</ele>
<time>2012-05-02T05:50:57Z</time>
<desc>lat.=42.817360, lon.=18.920399, Alt.=620.492676m. Speed=68.975998m/h.</desc>
<speed>19.159999</speed>
</trkpt>
<trkpt lat="42.816612" lon="18.921019">
<ele>619.805176</ele>
<time>2012-05-02T05:51:02Z</time>
<desc>lat.=42.816612, lon.=18.921019, Alt.=619.805176m. Speed=70.919998m/h.</desc>
<speed>19.699999</speed>
</trkpt>
<trkpt lat="42.815845" lon="18.921667">
<ele>619.164551</ele>
<time>2012-05-02T05:51:07Z</time>
<desc>lat.=42.815845, lon.=18.921667, Alt.=619.164551m. Speed=73.295998m/h.</desc>
<speed>20.359999</speed>
</trkpt>
<trkpt lat="42.815060" lon="18.922319">
<ele>618.695801</ele>
<time>2012-05-02T05:51:12Z</time>
<desc>lat.=42.815060, lon.=18.922319, Alt.=618.695801m. Speed=72.900002m/h.</desc>
<speed>20.250000</speed>
</trkpt>
<trkpt lat="42.814281" lon="18.922964">
<ele>618.242676</ele>
<time>2012-05-02T05:51:17Z</time>
<desc>lat.=42.814281, lon.=18.922964, Alt.=618.242676m. Speed=72.792000m/h.</desc>
<speed>20.220000</speed>
</trkpt>
<trkpt lat="42.813503" lon="18.923620">
<ele>618.445801</ele>
<time>2012-05-02T05:51:22Z</time>
<desc>lat.=42.813503, lon.=18.923620, Alt.=618.445801m. Speed=71.279999m/h.</desc>
<speed>19.800000</speed>
</trkpt>
<trkpt lat="42.812778" lon="18.924265">
<ele>618.242676</ele>
<time>2012-05-02T05:51:27Z</time>
<desc>lat.=42.812778, lon.=18.924265, Alt.=618.242676m. Speed=66.564003m/h.</desc>
<speed>18.490001</speed>
</trkpt>
<trkpt lat="42.812206" lon="18.924936">
<ele>618.352051</ele>
<time>2012-05-02T05:51:32Z</time>
<desc>lat.=42.812206, lon.=18.924936, Alt.=618.352051m. Speed=53.388000m/h.</desc>
<speed>14.830000</speed>
</trkpt>
<trkpt lat="42.811790" lon="18.925549">
<ele>618.273926</ele>
<time>2012-05-02T05:51:37Z</time>
<desc>lat.=42.811790, lon.=18.925549, Alt.=618.273926m. Speed=45.900002m/h.</desc>
<speed>12.750000</speed>
</trkpt>
<trkpt lat="42.811405" lon="18.925907">
<ele>618.680176</ele>
<time>2012-05-02T05:51:42Z</time>
<desc>lat.=42.811405, lon.=18.925907, Alt.=618.680176m. Speed=32.688000m/h.</desc>
<speed>9.080000</speed>
</trkpt>
<trkpt lat="42.811012" lon="18.925865">
<ele>619.555176</ele>
<time>2012-05-02T05:51:47Z</time>
<desc>lat.=42.811012, lon.=18.925865, Alt.=619.555176m. Speed=33.335999m/h.</desc>
<speed>9.260000</speed>
</trkpt>
<trkpt lat="42.810631" lon="18.925751">
<ele>619.477051</ele>
<time>2012-05-02T05:51:52Z</time>
<desc>lat.=42.810631, lon.=18.925751, Alt.=619.477051m. Speed=26.568001m/h.</desc>
<speed>7.380000</speed>
</trkpt>
<trkpt lat="42.810375" lon="18.925819">
<ele>619.039551</ele>
<time>2012-05-02T05:51:57Z</time>
<desc>lat.=42.810375, lon.=18.925819, Alt.=619.039551m. Speed=25.056000m/h.</desc>
<speed>6.960000</speed>
</trkpt>
<trkpt lat="42.810215" lon="18.926325">
<ele>619.023926</ele>
<time>2012-05-02T05:52:02Z</time>
<desc>lat.=42.810215, lon.=18.926325, Alt.=619.023926m. Speed=39.383999m/h.</desc>
<speed>10.940000</speed>
</trkpt>
<trkpt lat="42.809971" lon="18.926983">
<ele>619.148926</ele>
<time>2012-05-02T05:52:07Z</time>
<desc>lat.=42.809971, lon.=18.926983, Alt.=619.148926m. Speed=51.660000m/h.</desc>
<speed>14.350000</speed>
</trkpt>
<trkpt lat="42.809418" lon="18.927710">
<ele>619.883301</ele>
<time>2012-05-02T05:52:12Z</time>
<desc>lat.=42.809418, lon.=18.927710, Alt.=619.883301m. Speed=68.543999m/h.</desc>
<speed>19.040000</speed>
</trkpt>
<trkpt lat="42.808762" lon="18.928522">
<ele>620.086426</ele>
<time>2012-05-02T05:52:17Z</time>
<desc>lat.=42.808762, lon.=18.928522, Alt.=620.086426m. Speed=69.732002m/h.</desc>
<speed>19.370001</speed>
</trkpt>
<trkpt lat="42.808102" lon="18.929390">
<ele>620.320801</ele>
<time>2012-05-02T05:52:22Z</time>
<desc>lat.=42.808102, lon.=18.929390, Alt.=620.320801m. Speed=73.692001m/h.</desc>
<speed>20.470000</speed>
</trkpt>
<trkpt lat="42.807545" lon="18.930357">
<ele>620.727051</ele>
<time>2012-05-02T05:52:27Z</time>
<desc>lat.=42.807545, lon.=18.930357, Alt.=620.727051m. Speed=68.688004m/h.</desc>
<speed>19.080001</speed>
</trkpt>
<trkpt lat="42.807060" lon="18.931252">
<ele>621.336426</ele>
<time>2012-05-02T05:52:32Z</time>
<desc>lat.=42.807060, lon.=18.931252, Alt.=621.336426m. Speed=62.279999m/h.</desc>
<speed>17.300000</speed>
</trkpt>
<trkpt lat="42.806503" lon="18.931946">
<ele>622.055176</ele>
<time>2012-05-02T05:52:37Z</time>
<desc>lat.=42.806503, lon.=18.931946, Alt.=622.055176m. Speed=62.675999m/h.</desc>
<speed>17.410000</speed>
</trkpt>
<trkpt lat="42.805828" lon="18.932499">
<ele>622.070801</ele>
<time>2012-05-02T05:52:42Z</time>
<desc>lat.=42.805828, lon.=18.932499, Alt.=622.070801m. Speed=63.827999m/h.</desc>
<speed>17.730000</speed>
</trkpt>
<trkpt lat="42.805122" lon="18.932981">
<ele>622.430176</ele>
<time>2012-05-02T05:52:47Z</time>
<desc>lat.=42.805122, lon.=18.932981, Alt.=622.430176m. Speed=63.647999m/h.</desc>
<speed>17.680000</speed>
</trkpt>
<trkpt lat="42.804382" lon="18.933399">
<ele>622.570801</ele>
<time>2012-05-02T05:52:52Z</time>
<desc>lat.=42.804382, lon.=18.933399, Alt.=622.570801m. Speed=64.332001m/h.</desc>
<speed>17.870000</speed>
</trkpt>
<trkpt lat="42.803650" lon="18.933826">
<ele>622.523926</ele>
<time>2012-05-02T05:52:57Z</time>
<desc>lat.=42.803650, lon.=18.933826, Alt.=622.523926m. Speed=64.080002m/h.</desc>
<speed>17.800001</speed>
</trkpt>
<trkpt lat="42.802910" lon="18.934254">
<ele>622.461426</ele>
<time>2012-05-02T05:53:02Z</time>
<desc>lat.=42.802910, lon.=18.934254, Alt.=622.461426m. Speed=63.144001m/h.</desc>
<speed>17.540000</speed>
</trkpt>
<trkpt lat="42.802189" lon="18.934643">
<ele>621.883301</ele>
<time>2012-05-02T05:53:07Z</time>
<desc>lat.=42.802189, lon.=18.934643, Alt.=621.883301m. Speed=62.352001m/h.</desc>
<speed>17.320000</speed>
</trkpt>
<trkpt lat="42.801392" lon="18.934866">
<ele>621.695801</ele>
<time>2012-05-02T05:53:12Z</time>
<desc>lat.=42.801392, lon.=18.934866, Alt.=621.695801m. Speed=67.716003m/h.</desc>
<speed>18.810001</speed>
</trkpt>
<trkpt lat="42.800522" lon="18.935043">
<ele>621.180176</ele>
<time>2012-05-02T05:53:17Z</time>
<desc>lat.=42.800522, lon.=18.935043, Alt.=621.180176m. Speed=71.711998m/h.</desc>
<speed>19.919999</speed>
</trkpt>
<trkpt lat="42.799625" lon="18.935232">
<ele>620.945801</ele>
<time>2012-05-02T05:53:22Z</time>
<desc>lat.=42.799625, lon.=18.935232, Alt.=620.945801m. Speed=72.540001m/h.</desc>
<speed>20.150000</speed>
</trkpt>
<trkpt lat="42.798748" lon="18.935417">
<ele>620.664551</ele>
<time>2012-05-02T05:53:27Z</time>
<desc>lat.=42.798748, lon.=18.935417, Alt.=620.664551m. Speed=69.515999m/h.</desc>
<speed>19.310000</speed>
</trkpt>
<trkpt lat="42.797897" lon="18.935595">
<ele>620.445801</ele>
<time>2012-05-02T05:53:32Z</time>
<desc>lat.=42.797897, lon.=18.935595, Alt.=620.445801m. Speed=67.283997m/h.</desc>
<speed>18.689999</speed>
</trkpt>
<trkpt lat="42.797070" lon="18.935728">
<ele>620.289551</ele>
<time>2012-05-02T05:53:37Z</time>
<desc>lat.=42.797070, lon.=18.935728, Alt.=620.289551m. Speed=66.959999m/h.</desc>
<speed>18.600000</speed>
</trkpt>
<trkpt lat="42.796265" lon="18.935768">
<ele>622.039551</ele>
<time>2012-05-02T05:53:42Z</time>
<desc>lat.=42.796265, lon.=18.935768, Alt.=622.039551m. Speed=60.192001m/h.</desc>
<speed>16.720000</speed>
</trkpt>
<trkpt lat="42.795551" lon="18.935667">
<ele>622.539551</ele>
<time>2012-05-02T05:53:47Z</time>
<desc>lat.=42.795551, lon.=18.935667, Alt.=622.539551m. Speed=56.807999m/h.</desc>
<speed>15.780000</speed>
</trkpt>
<trkpt lat="42.794888" lon="18.935417">
<ele>622.758301</ele>
<time>2012-05-02T05:53:52Z</time>
<desc>lat.=42.794888, lon.=18.935417, Alt.=622.758301m. Speed=52.956001m/h.</desc>
<speed>14.710000</speed>
</trkpt>
<trkpt lat="42.794388" lon="18.935123">
<ele>623.133301</ele>
<time>2012-05-02T05:53:57Z</time>
<desc>lat.=42.794388, lon.=18.935123, Alt.=623.133301m. Speed=37.512001m/h.</desc>
<speed>10.420000</speed>
</trkpt>
<trkpt lat="42.794113" lon="18.934668">
<ele>622.117676</ele>
<time>2012-05-02T05:54:02Z</time>
<desc>lat.=42.794113, lon.=18.934668, Alt.=622.117676m. Speed=26.964001m/h.</desc>
<speed>7.490000</speed>
</trkpt>
<trkpt lat="42.793922" lon="18.934486">
<ele>622.023926</ele>
<time>2012-05-02T05:54:07Z</time>
<desc>lat.=42.793922, lon.=18.934486, Alt.=622.023926m. Speed=12.060000m/h.</desc>
<speed>3.350000</speed>
</trkpt>
<trkpt lat="42.793877" lon="18.934486">
<ele>622.117676</ele>
<time>2012-05-02T05:54:12Z</time>
<desc>lat.=42.793877, lon.=18.934486, Alt.=622.117676m. Speed=0.000000m/h.</desc>
<speed>0.000000</speed>
</trkpt>
<trkpt lat="42.793877" lon="18.934494">
<ele>622.023926</ele>
<time>2012-05-02T05:54:17Z</time>
<desc>lat.=42.793877, lon.=18.934494, Alt.=622.023926m. Speed=0.000000m/h.</desc>
<speed>0.000000</speed>
</trkpt>
<trkpt lat="42.793877" lon="18.934496">
<ele>622.023926</ele>
<time>2012-05-02T05:54:22Z</time>
<desc>lat.=42.793877, lon.=18.934496, Alt.=622.023926m. Speed=0.000000m/h.</desc>
<speed>0.000000</speed>
</trkpt>
<trkpt lat="42.793877" lon="18.934496">
<ele>622.023926</ele>
<time>2012-05-02T05:54:27Z</time>
<desc>lat.=42.793877, lon.=18.934496, Alt.=622.023926m. Speed=0.000000m/h.</desc>
<speed>0.000000</speed>
</trkpt>
<trkpt lat="42.793877" lon="18.934496">
<ele>622.039551</ele>
<time>2012-05-02T05:54:32Z</time>
<desc>lat.=42.793877, lon.=18.934496, Alt.=622.039551m. Speed=0.000000m/h.</desc>
<speed>0.000000</speed>
</trkpt>
<trkpt lat="42.793877" lon="18.934496">
<ele>622.070801</ele>
<time>2012-05-02T05:54:37Z</time>
<desc>lat.=42.793877, lon.=18.934496, Alt.=622.070801m. Speed=0.000000m/h.</desc>
<speed>0.000000</speed>
</trkpt>
<trkpt lat="42.793877" lon="18.934496">
<ele>622.086426</ele>
<time>2012-05-02T05:54:42Z</time>
<desc>lat.=42.793877, lon.=18.934496, Alt.=622.086426m. Speed=0.000000m/h.</desc>
<speed>0.000000</speed>
</trkpt>
<trkpt lat="42.793877" lon="18.934496">
<ele>622.117676</ele>
<time>2012-05-02T05:54:47Z</time>
<desc>lat.=42.793877, lon.=18.934496, Alt.=622.117676m. Speed=0.000000m/h.</desc>
<speed>0.000000</speed>
</trkpt>
<trkpt lat="42.793877" lon="18.934498">
<ele>622.133301</ele>
<time>2012-05-02T05:54:52Z</time>
<desc>lat.=42.793877, lon.=18.934498, Alt.=622.133301m. Speed=0.000000m/h.</desc>
<speed>0.000000</speed>
</trkpt>
<trkpt lat="42.793877" lon="18.934498">
<ele>622.133301</ele>
<time>2012-05-02T05:54:57Z</time>
<desc>lat.=42.793877, lon.=18.934498, Alt.=622.133301m. Speed=0.000000m/h.</desc>
<speed>0.000000</speed>
</trkpt>
<trkpt lat="42.793877" lon="18.934498">
<ele>622.148926</ele>
<time>2012-05-02T05:55:02Z</time>
<desc>lat.=42.793877, lon.=18.934498, Alt.=622.148926m. Speed=0.000000m/h.</desc>
<speed>0.000000</speed>
</trkpt>
<trkpt lat="42.793877" lon="18.934498">
<ele>622.164551</ele>
<time>2012-05-02T05:55:07Z</time>
<desc>lat.=42.793877, lon.=18.934498, Alt.=622.164551m. Speed=0.000000m/h.</desc>
<speed>0.000000</speed>
</trkpt>
<trkpt lat="42.793877" lon="18.934498">
<ele>622.164551</ele>
<time>2012-05-02T05:55:12Z</time>
<desc>lat.=42.793877, lon.=18.934498, Alt.=622.164551m. Speed=0.000000m/h.</desc>
<speed>0.000000</speed>
</trkpt>
<trkpt lat="42.793877" lon="18.934498">
<ele>622.164551</ele>
<time>2012-05-02T05:55:17Z</time>
<desc>lat.=42.793877, lon.=18.934498, Alt.=622.164551m. Speed=0.000000m/h.</desc>
<speed>0.000000</speed>
</trkpt>
<trkpt lat="42.793877" lon="18.934498">
<ele>622.180176</ele>
<time>2012-05-02T05:55:22Z</time>
<desc>lat.=42.793877, lon.=18.934498, Alt.=622.180176m. Speed=0.000000m/h.</desc>
<speed>0.000000</speed>
</trkpt>
<trkpt lat="42.793877" lon="18.934498">
<ele>622.180176</ele>
<time>2012-05-02T05:55:27Z</time>
<desc>lat.=42.793877, lon.=18.934498, Alt.=622.180176m. Speed=0.000000m/h.</desc>
<speed>0.000000</speed>
</trkpt>
<trkpt lat="42.793877" lon="18.934498">
<ele>622.180176</ele>
<time>2012-05-02T05:55:32Z</time>
<desc>lat.=42.793877, lon.=18.934498, Alt.=622.180176m. Speed=0.000000m/h.</desc>
<speed>0.000000</speed>
</trkpt>
<trkpt lat="42.793880" lon="18.934498">
<ele>622.195801</ele>
<time>2012-05-02T05:55:37Z</time>
<desc>lat.=42.793880, lon.=18.934498, Alt.=622.195801m. Speed=0.000000m/h.</desc>
<speed>0.000000</speed>
</trkpt>
<trkpt lat="42.793880" lon="18.934498">
<ele>622.195801</ele>
<time>2012-05-02T05:55:42Z</time>
<desc>lat.=42.793880, lon.=18.934498, Alt.=622.195801m. Speed=0.000000m/h.</desc>
<speed>0.000000</speed>
</trkpt>
<trkpt lat="42.793880" lon="18.934498">
<ele>622.211426</ele>
<time>2012-05-02T05:55:47Z</time>
<desc>lat.=42.793880, lon.=18.934498, Alt.=622.211426m. Speed=0.000000m/h.</desc>
<speed>0.000000</speed>
</trkpt>
<trkpt lat="42.793880" lon="18.934498">
<ele>622.227051</ele>
<time>2012-05-02T05:55:52Z</time>
<desc>lat.=42.793880, lon.=18.934498, Alt.=622.227051m. Speed=0.000000m/h.</desc>
<speed>0.000000</speed>
</trkpt>
<trkpt lat="42.793880" lon="18.934498">
<ele>622.242676</ele>
<time>2012-05-02T05:55:57Z</time>
<desc>lat.=42.793880, lon.=18.934498, Alt.=622.242676m. Speed=0.000000m/h.</desc>
<speed>0.000000</speed>
</trkpt>
<trkpt lat="42.793880" lon="18.934498">
<ele>622.258301</ele>
<time>2012-05-02T05:56:02Z</time>
<desc>lat.=42.793880, lon.=18.934498, Alt.=622.258301m. Speed=0.000000m/h.</desc>
<speed>0.000000</speed>
</trkpt>
<trkpt lat="42.793880" lon="18.934498">
<ele>622.258301</ele>
<time>2012-05-02T05:56:07Z</time>
<desc>lat.=42.793880, lon.=18.934498, Alt.=622.258301m. Speed=0.000000m/h.</desc>
<speed>0.000000</speed>
</trkpt>
<trkpt lat="42.793880" lon="18.934498">
<ele>622.273926</ele>
<time>2012-05-02T05:56:12Z</time>
<desc>lat.=42.793880, lon.=18.934498, Alt.=622.273926m. Speed=0.000000m/h.</desc>
<speed>0.000000</speed>
</trkpt>
<trkpt lat="42.793880" lon="18.934498">
<ele>622.289551</ele>
<time>2012-05-02T05:56:17Z</time>
<desc>lat.=42.793880, lon.=18.934498, Alt.=622.289551m. Speed=0.000000m/h.</desc>
<speed>0.000000</speed>
</trkpt>
<trkpt lat="42.793880" lon="18.934498">
<ele>622.289551</ele>
<time>2012-05-02T05:56:22Z</time>
<desc>lat.=42.793880, lon.=18.934498, Alt.=622.289551m. Speed=0.000000m/h.</desc>
<speed>0.000000</speed>
</trkpt>
<trkpt lat="42.793880" lon="18.934498">
<ele>622.289551</ele>
<time>2012-05-02T05:56:27Z</time>
<desc>lat.=42.793880, lon.=18.934498, Alt.=622.289551m. Speed=0.000000m/h.</desc>
<speed>0.000000</speed>
</trkpt>
<trkpt lat="42.793880" lon="18.934498">
<ele>622.305176</ele>
<time>2012-05-02T05:56:32Z</time>
<desc>lat.=42.793880, lon.=18.934498, Alt.=622.305176m. Speed=0.000000m/h.</desc>
<speed>0.000000</speed>
</trkpt>
<trkpt lat="42.793880" lon="18.934498">
<ele>622.305176</ele>
<time>2012-05-02T05:56:37Z</time>
<desc>lat.=42.793880, lon.=18.934498, Alt.=622.305176m. Speed=0.000000m/h.</desc>
<speed>0.000000</speed>
</trkpt>
<trkpt lat="42.793880" lon="18.934498">
<ele>622.305176</ele>
<time>2012-05-02T05:56:42Z</time>
<desc>lat.=42.793880, lon.=18.934498, Alt.=622.305176m. Speed=0.000000m/h.</desc>
<speed>0.000000</speed>
</trkpt>
<trkpt lat="42.793880" lon="18.934498">
<ele>622.305176</ele>
<time>2012-05-02T05:56:47Z</time>
<desc>lat.=42.793880, lon.=18.934498, Alt.=622.305176m. Speed=0.000000m/h.</desc>
<speed>0.000000</speed>
</trkpt>
<trkpt lat="42.793880" lon="18.934498">
<ele>622.305176</ele>
<time>2012-05-02T05:56:52Z</time>
<desc>lat.=42.793880, lon.=18.934498, Alt.=622.305176m. Speed=0.000000m/h.</desc>
<speed>0.000000</speed>
</trkpt>
<trkpt lat="42.793877" lon="18.934498">
<ele>622.305176</ele>
<time>2012-05-02T05:56:57Z</time>
<desc>lat.=42.793877, lon.=18.934498, Alt.=622.305176m. Speed=3.636000m/h.</desc>
<speed>1.010000</speed>
</trkpt>
<trkpt lat="42.793770" lon="18.934456">
<ele>622.695801</ele>
<time>2012-05-02T05:57:02Z</time>
<desc>lat.=42.793770, lon.=18.934456, Alt.=622.695801m. Speed=14.616000m/h.</desc>
<speed>4.060000</speed>
</trkpt>
<trkpt lat="42.793671" lon="18.934231">
<ele>622.648926</ele>
<time>2012-05-02T05:57:07Z</time>
<desc>lat.=42.793671, lon.=18.934231, Alt.=622.648926m. Speed=19.152000m/h.</desc>
<speed>5.320000</speed>
</trkpt>
<trkpt lat="42.793480" lon="18.933849">
<ele>621.773926</ele>
<time>2012-05-02T05:57:12Z</time>
<desc>lat.=42.793480, lon.=18.933849, Alt.=621.773926m. Speed=32.147999m/h.</desc>
<speed>8.930000</speed>
</trkpt>
<trkpt lat="42.793098" lon="18.933462">
<ele>620.992676</ele>
<time>2012-05-02T05:57:17Z</time>
<desc>lat.=42.793098, lon.=18.933462, Alt.=620.992676m. Speed=42.840000m/h.</desc>
<speed>11.900000</speed>
</trkpt>
<trkpt lat="42.792770" lon="18.932934">
<ele>620.883301</ele>
<time>2012-05-02T05:57:22Z</time>
<desc>lat.=42.792770, lon.=18.932934, Alt.=620.883301m. Speed=38.051998m/h.</desc>
<speed>10.569999</speed>
</trkpt>
<trkpt lat="42.792614" lon="18.932293">
<ele>621.711426</ele>
<time>2012-05-02T05:57:27Z</time>
<desc>lat.=42.792614, lon.=18.932293, Alt.=621.711426m. Speed=38.771999m/h.</desc>
<speed>10.770000</speed>
</trkpt>
<trkpt lat="42.792675" lon="18.931559">
<ele>621.914551</ele>
<time>2012-05-02T05:57:32Z</time>
<desc>lat.=42.792675, lon.=18.931559, Alt.=621.914551m. Speed=51.119999m/h.</desc>
<speed>14.200000</speed>
</trkpt>
<trkpt lat="42.792892" lon="18.930582">
<ele>622.195801</ele>
<time>2012-05-02T05:57:37Z</time>
<desc>lat.=42.792892, lon.=18.930582, Alt.=622.195801m. Speed=61.344002m/h.</desc>
<speed>17.040000</speed>
</trkpt>
<trkpt lat="42.793156" lon="18.929615">
<ele>623.227051</ele>
<time>2012-05-02T05:57:42Z</time>
<desc>lat.=42.793156, lon.=18.929615, Alt.=623.227051m. Speed=60.335999m/h.</desc>
<speed>16.760000</speed>
</trkpt>
<trkpt lat="42.793427" lon="18.928650">
<ele>623.352051</ele>
<time>2012-05-02T05:57:47Z</time>
<desc>lat.=42.793427, lon.=18.928650, Alt.=623.352051m. Speed=58.716000m/h.</desc>
<speed>16.310000</speed>
</trkpt>
<trkpt lat="42.793694" lon="18.927769">
<ele>623.461426</ele>
<time>2012-05-02T05:57:52Z</time>
<desc>lat.=42.793694, lon.=18.927769, Alt.=623.461426m. Speed=53.748001m/h.</desc>
<speed>14.930000</speed>
</trkpt>
<trkpt lat="42.793953" lon="18.926954">
<ele>623.586426</ele>
<time>2012-05-02T05:57:57Z</time>
<desc>lat.=42.793953, lon.=18.926954, Alt.=623.586426m. Speed=50.292000m/h.</desc>
<speed>13.970000</speed>
</trkpt>
<trkpt lat="42.794308" lon="18.926281">
<ele>624.227051</ele>
<time>2012-05-02T05:58:02Z</time>
<desc>lat.=42.794308, lon.=18.926281, Alt.=624.227051m. Speed=46.188000m/h.</desc>
<speed>12.830000</speed>
</trkpt>
<trkpt lat="42.794529" lon="18.925611">
<ele>624.305176</ele>
<time>2012-05-02T05:58:07Z</time>
<desc>lat.=42.794529, lon.=18.925611, Alt.=624.305176m. Speed=41.903999m/h.</desc>
<speed>11.640000</speed>
</trkpt>
<trkpt lat="42.794579" lon="18.925055">
<ele>624.648926</ele>
<time>2012-05-02T05:58:12Z</time>
<desc>lat.=42.794579, lon.=18.925055, Alt.=624.648926m. Speed=23.903999m/h.</desc>
<speed>6.640000</speed>
</trkpt>
<trkpt lat="42.794353" lon="18.924906">
<ele>625.695801</ele>
<time>2012-05-02T05:58:17Z</time>
<desc>lat.=42.794353, lon.=18.924906, Alt.=625.695801m. Speed=20.736000m/h.</desc>
<speed>5.760000</speed>
</trkpt>
<trkpt lat="42.794102" lon="18.924845">
<ele>626.102051</ele>
<time>2012-05-02T05:58:22Z</time>
<desc>lat.=42.794102, lon.=18.924845, Alt.=626.102051m. Speed=20.844000m/h.</desc>
<speed>5.790000</speed>
</trkpt>
<trkpt lat="42.793869" lon="18.924633">
<ele>626.273926</ele>
<time>2012-05-02T05:58:27Z</time>
<desc>lat.=42.793869, lon.=18.924633, Alt.=626.273926m. Speed=23.184000m/h.</desc>
<speed>6.440000</speed>
</trkpt>
<trkpt lat="42.793686" lon="18.924406">
<ele>626.852051</ele>
<time>2012-05-02T05:58:32Z</time>
<desc>lat.=42.793686, lon.=18.924406, Alt.=626.852051m. Speed=16.308001m/h.</desc>
<speed>4.530000</speed>
</trkpt>
<trkpt lat="42.793465" lon="18.924532">
<ele>627.398926</ele>
<time>2012-05-02T05:58:37Z</time>
<desc>lat.=42.793465, lon.=18.924532, Alt.=627.398926m. Speed=25.128000m/h.</desc>
<speed>6.980000</speed>
</trkpt>
<trkpt lat="42.793163" lon="18.924891">
<ele>627.320801</ele>
<time>2012-05-02T05:58:42Z</time>
<desc>lat.=42.793163, lon.=18.924891, Alt.=627.320801m. Speed=40.175999m/h.</desc>
<speed>11.160000</speed>
</trkpt>
<trkpt lat="42.792706" lon="18.925409">
<ele>626.727051</ele>
<time>2012-05-02T05:58:47Z</time>
<desc>lat.=42.792706, lon.=18.925409, Alt.=626.727051m. Speed=53.568001m/h.</desc>
<speed>14.880000</speed>
</trkpt>
<trkpt lat="42.792095" lon="18.926060">
<ele>626.352051</ele>
<time>2012-05-02T05:58:52Z</time>
<desc>lat.=42.792095, lon.=18.926060, Alt.=626.352051m. Speed=65.484001m/h.</desc>
<speed>18.190000</speed>
</trkpt>
<trkpt lat="42.791451" lon="18.926710">
<ele>626.711426</ele>
<time>2012-05-02T05:58:57Z</time>
<desc>lat.=42.791451, lon.=18.926710, Alt.=626.711426m. Speed=61.236000m/h.</desc>
<speed>17.010000</speed>
</trkpt>
<trkpt lat="42.790859" lon="18.927322">
<ele>627.023926</ele>
<time>2012-05-02T05:59:02Z</time>
<desc>lat.=42.790859, lon.=18.927322, Alt.=627.023926m. Speed=57.456001m/h.</desc>
<speed>15.960000</speed>
</trkpt>
<trkpt lat="42.790295" lon="18.927868">
<ele>626.992676</ele>
<time>2012-05-02T05:59:07Z</time>
<desc>lat.=42.790295, lon.=18.927868, Alt.=626.992676m. Speed=53.855999m/h.</desc>
<speed>14.960000</speed>
</trkpt>
<trkpt lat="42.789692" lon="18.928219">
<ele>626.836426</ele>
<time>2012-05-02T05:59:12Z</time>
<desc>lat.=42.789692, lon.=18.928219, Alt.=626.836426m. Speed=50.327999m/h.</desc>
<speed>13.980000</speed>
</trkpt>
<trkpt lat="42.789101" lon="18.928370">
<ele>626.477051</ele>
<time>2012-05-02T05:59:17Z</time>
<desc>lat.=42.789101, lon.=18.928370, Alt.=626.477051m. Speed=46.548000m/h.</desc>
<speed>12.930000</speed>
</trkpt>
<trkpt lat="42.788555" lon="18.928385">
<ele>626.742676</ele>
<time>2012-05-02T05:59:22Z</time>
<desc>lat.=42.788555, lon.=18.928385, Alt.=626.742676m. Speed=38.987999m/h.</desc>
<speed>10.830000</speed>
</trkpt>
<trkpt lat="42.788021" lon="18.928347">
<ele>626.727051</ele>
<time>2012-05-02T05:59:27Z</time>
<desc>lat.=42.788021, lon.=18.928347, Alt.=626.727051m. Speed=49.644001m/h.</desc>
<speed>13.790000</speed>
</trkpt>
<trkpt lat="42.787270" lon="18.928320">
<ele>626.992676</ele>
<time>2012-05-02T05:59:32Z</time>
<desc>lat.=42.787270, lon.=18.928320, Alt.=626.992676m. Speed=69.155998m/h.</desc>
<speed>19.210000</speed>
</trkpt>
<trkpt lat="42.786350" lon="18.928291">
<ele>627.273926</ele>
<time>2012-05-02T05:59:37Z</time>
<desc>lat.=42.786350, lon.=18.928291, Alt.=627.273926m. Speed=71.711998m/h.</desc>
<speed>19.919999</speed>
</trkpt>
<trkpt lat="42.785473" lon="18.928259">
<ele>627.711426</ele>
<time>2012-05-02T05:59:42Z</time>
<desc>lat.=42.785473, lon.=18.928259, Alt.=627.711426m. Speed=67.320000m/h.</desc>
<speed>18.700000</speed>
</trkpt>
<trkpt lat="42.784679" lon="18.928223">
<ele>630.102051</ele>
<time>2012-05-02T05:59:47Z</time>
<desc>lat.=42.784679, lon.=18.928223, Alt.=630.102051m. Speed=59.256001m/h.</desc>
<speed>16.460000</speed>
</trkpt>
<trkpt lat="42.784008" lon="18.928270">
<ele>632.883301</ele>
<time>2012-05-02T05:59:52Z</time>
<desc>lat.=42.784008, lon.=18.928270, Alt.=632.883301m. Speed=49.175999m/h.</desc>
<speed>13.660000</speed>
</trkpt>
<trkpt lat="42.783569" lon="18.928381">
<ele>634.648926</ele>
<time>2012-05-02T05:59:57Z</time>
<desc>lat.=42.783569, lon.=18.928381, Alt.=634.648926m. Speed=25.632000m/h.</desc>
<speed>7.120000</speed>
</trkpt>
<trkpt lat="42.783241" lon="18.928576">
<ele>635.789551</ele>
<time>2012-05-02T06:00:02Z</time>
<desc>lat.=42.783241, lon.=18.928576, Alt.=635.789551m. Speed=35.063999m/h.</desc>
<speed>9.740000</speed>
</trkpt>
<trkpt lat="42.782806" lon="18.928932">
<ele>637.680176</ele>
<time>2012-05-02T06:00:07Z</time>
<desc>lat.=42.782806, lon.=18.928932, Alt.=637.680176m. Speed=44.532001m/h.</desc>
<speed>12.370000</speed>
</trkpt>
<trkpt lat="42.782375" lon="18.929455">
<ele>640.289551</ele>
<time>2012-05-02T06:00:12Z</time>
<desc>lat.=42.782375, lon.=18.929455, Alt.=640.289551m. Speed=48.383999m/h.</desc>
<speed>13.440000</speed>
</trkpt>
<trkpt lat="42.782017" lon="18.930162">
<ele>641.352051</ele>
<time>2012-05-02T06:00:17Z</time>
<desc>lat.=42.782017, lon.=18.930162, Alt.=641.352051m. Speed=52.271999m/h.</desc>
<speed>14.520000</speed>
</trkpt>
<trkpt lat="42.781761" lon="18.931005">
<ele>641.305176</ele>
<time>2012-05-02T06:00:22Z</time>
<desc>lat.=42.781761, lon.=18.931005, Alt.=641.305176m. Speed=54.324001m/h.</desc>
<speed>15.090000</speed>
</trkpt>
<trkpt lat="42.781551" lon="18.931934">
<ele>640.617676</ele>
<time>2012-05-02T06:00:27Z</time>
<desc>lat.=42.781551, lon.=18.931934, Alt.=640.617676m. Speed=57.240002m/h.</desc>
<speed>15.900000</speed>
</trkpt>
<trkpt lat="42.781311" lon="18.932838">
<ele>639.852051</ele>
<time>2012-05-02T06:00:32Z</time>
<desc>lat.=42.781311, lon.=18.932838, Alt.=639.852051m. Speed=54.360001m/h.</desc>
<speed>15.100000</speed>
</trkpt>
<trkpt lat="42.780972" lon="18.933601">
<ele>639.461426</ele>
<time>2012-05-02T06:00:37Z</time>
<desc>lat.=42.780972, lon.=18.933601, Alt.=639.461426m. Speed=51.299999m/h.</desc>
<speed>14.250000</speed>
</trkpt>
<trkpt lat="42.780560" lon="18.934172">
<ele>639.070801</ele>
<time>2012-05-02T06:00:42Z</time>
<desc>lat.=42.780560, lon.=18.934172, Alt.=639.070801m. Speed=40.860001m/h.</desc>
<speed>11.350000</speed>
</trkpt>
<trkpt lat="42.780357" lon="18.934387">
<ele>638.664551</ele>
<time>2012-05-02T06:00:47Z</time>
<desc>lat.=42.780357, lon.=18.934387, Alt.=638.664551m. Speed=1.800000m/h.</desc>
<speed>0.500000</speed>
</trkpt>
<trkpt lat="42.780354" lon="18.934387">
<ele>638.508301</ele>
<time>2012-05-02T06:00:52Z</time>
<desc>lat.=42.780354, lon.=18.934387, Alt.=638.508301m. Speed=0.036000m/h.</desc>
<speed>0.010000</speed>
</trkpt>
<trkpt lat="42.780354" lon="18.934385">
<ele>638.492676</ele>
<time>2012-05-02T06:00:57Z</time>
<desc>lat.=42.780354, lon.=18.934385, Alt.=638.492676m. Speed=0.000000m/h.</desc>
<speed>0.000000</speed>
</trkpt>
<trkpt lat="42.780354" lon="18.934385">
<ele>638.508301</ele>
<time>2012-05-02T06:01:02Z</time>
<desc>lat.=42.780354, lon.=18.934385, Alt.=638.508301m. Speed=0.000000m/h.</desc>
<speed>0.000000</speed>
</trkpt>
<trkpt lat="42.780354" lon="18.934385">
<ele>638.539551</ele>
<time>2012-05-02T06:01:07Z</time>
<desc>lat.=42.780354, lon.=18.934385, Alt.=638.539551m. Speed=0.000000m/h.</desc>
<speed>0.000000</speed>
</trkpt>
<trkpt lat="42.780354" lon="18.934385">
<ele>638.555176</ele>
<time>2012-05-02T06:01:12Z</time>
<desc>lat.=42.780354, lon.=18.934385, Alt.=638.555176m. Speed=0.000000m/h.</desc>
<speed>0.000000</speed>
</trkpt>
<trkpt lat="42.780354" lon="18.934385">
<ele>638.586426</ele>
<time>2012-05-02T06:01:17Z</time>
<desc>lat.=42.780354, lon.=18.934385, Alt.=638.586426m. Speed=0.000000m/h.</desc>
<speed>0.000000</speed>
</trkpt>
<trkpt lat="42.780354" lon="18.934385">
<ele>638.633301</ele>
<time>2012-05-02T06:01:22Z</time>
<desc>lat.=42.780354, lon.=18.934385, Alt.=638.633301m. Speed=0.000000m/h.</desc>
<speed>0.000000</speed>
</trkpt>
<trkpt lat="42.780361" lon="18.934378">
<ele>638.633301</ele>
<time>2012-05-02T06:01:27Z</time>
<desc>lat.=42.780361, lon.=18.934378, Alt.=638.633301m. Speed=5.184000m/h.</desc>
<speed>1.440000</speed>
</trkpt>
<trkpt lat="42.780426" lon="18.934303">
<ele>638.352051</ele>
<time>2012-05-02T06:01:32Z</time>
<desc>lat.=42.780426, lon.=18.934303, Alt.=638.352051m. Speed=5.724000m/h.</desc>
<speed>1.590000</speed>
</trkpt>
<trkpt lat="42.780502" lon="18.934212">
<ele>638.211426</ele>
<time>2012-05-02T06:01:37Z</time>
<desc>lat.=42.780502, lon.=18.934212, Alt.=638.211426m. Speed=7.488000m/h.</desc>
<speed>2.080000</speed>
</trkpt>
<trkpt lat="42.780540" lon="18.934164">
<ele>638.148926</ele>
<time>2012-05-02T06:01:42Z</time>
<desc>lat.=42.780540, lon.=18.934164, Alt.=638.148926m. Speed=0.396000m/h.</desc>
<speed>0.110000</speed>
</trkpt>
<trkpt lat="42.780483" lon="18.934193">
<ele>638.211426</ele>
<time>2012-05-02T06:01:47Z</time>
<desc>lat.=42.780483, lon.=18.934193, Alt.=638.211426m. Speed=6.192000m/h.</desc>
<speed>1.720000</speed>
</trkpt>
<trkpt lat="42.780487" lon="18.934258">
<ele>638.289551</ele>
<time>2012-05-02T06:01:52Z</time>
<desc>lat.=42.780487, lon.=18.934258, Alt.=638.289551m. Speed=0.072000m/h.</desc>
<speed>0.020000</speed>
</trkpt>
<trkpt lat="42.780499" lon="18.934246">
<ele>638.055176</ele>
<time>2012-05-02T06:01:57Z</time>
<desc>lat.=42.780499, lon.=18.934246, Alt.=638.055176m. Speed=2.160000m/h.</desc>
<speed>0.600000</speed>
</trkpt>
<trkpt lat="42.780518" lon="18.934225">
<ele>637.523926</ele>
<time>2012-05-02T06:02:02Z</time>
<desc>lat.=42.780518, lon.=18.934225, Alt.=637.523926m. Speed=1.008000m/h.</desc>
<speed>0.280000</speed>
</trkpt>
<trkpt lat="42.780560" lon="18.934240">
<ele>637.695801</ele>
<time>2012-05-02T06:02:07Z</time>
<desc>lat.=42.780560, lon.=18.934240, Alt.=637.695801m. Speed=11.412000m/h.</desc>
<speed>3.170000</speed>
</trkpt>
<trkpt lat="42.780758" lon="18.934023">
<ele>639.055176</ele>
<time>2012-05-02T06:02:12Z</time>
<desc>lat.=42.780758, lon.=18.934023, Alt.=639.055176m. Speed=29.879999m/h.</desc>
<speed>8.300000</speed>
</trkpt>
<trkpt lat="42.781055" lon="18.933493">
<ele>639.836426</ele>
<time>2012-05-02T06:02:17Z</time>
<desc>lat.=42.781055, lon.=18.933493, Alt.=639.836426m. Speed=50.363998m/h.</desc>
<speed>13.990000</speed>
</trkpt>
<trkpt lat="42.781414" lon="18.932577">
<ele>639.383301</ele>
<time>2012-05-02T06:02:22Z</time>
<desc>lat.=42.781414, lon.=18.932577, Alt.=639.383301m. Speed=66.564003m/h.</desc>
<speed>18.490001</speed>
</trkpt>
<trkpt lat="42.781693" lon="18.931513">
<ele>639.086426</ele>
<time>2012-05-02T06:02:27Z</time>
<desc>lat.=42.781693, lon.=18.931513, Alt.=639.086426m. Speed=63.360001m/h.</desc>
<speed>17.600000</speed>
</trkpt>
<trkpt lat="42.781960" lon="18.930511">
<ele>638.805176</ele>
<time>2012-05-02T06:02:32Z</time>
<desc>lat.=42.781960, lon.=18.930511, Alt.=638.805176m. Speed=60.624001m/h.</desc>
<speed>16.840000</speed>
</trkpt>
<trkpt lat="42.782330" lon="18.929638">
<ele>638.461426</ele>
<time>2012-05-02T06:02:37Z</time>
<desc>lat.=42.782330, lon.=18.929638, Alt.=638.461426m. Speed=55.908001m/h.</desc>
<speed>15.530000</speed>
</trkpt>
<trkpt lat="42.782757" lon="18.929028">
<ele>636.930176</ele>
<time>2012-05-02T06:02:42Z</time>
<desc>lat.=42.782757, lon.=18.929028, Alt.=636.930176m. Speed=47.015999m/h.</desc>
<speed>13.060000</speed>
</trkpt>
<trkpt lat="42.783276" lon="18.928612">
<ele>635.242676</ele>
<time>2012-05-02T06:02:47Z</time>
<desc>lat.=42.783276, lon.=18.928612, Alt.=635.242676m. Speed=50.147999m/h.</desc>
<speed>13.930000</speed>
</trkpt>
<trkpt lat="42.783886" lon="18.928389">
<ele>632.992676</ele>
<time>2012-05-02T06:02:52Z</time>
<desc>lat.=42.783886, lon.=18.928389, Alt.=632.992676m. Speed=47.664001m/h.</desc>
<speed>13.240000</speed>
</trkpt>
<trkpt lat="42.784370" lon="18.928352">
<ele>631.227051</ele>
<time>2012-05-02T06:02:57Z</time>
<desc>lat.=42.784370, lon.=18.928352, Alt.=631.227051m. Speed=30.059999m/h.</desc>
<speed>8.350000</speed>
</trkpt>
<trkpt lat="42.784584" lon="18.928692">
<ele>629.414551</ele>
<time>2012-05-02T06:03:02Z</time>
<desc>lat.=42.784584, lon.=18.928692, Alt.=629.414551m. Speed=27.936001m/h.</desc>
<speed>7.760000</speed>
</trkpt>
<trkpt lat="42.784389" lon="18.929119">
<ele>627.977051</ele>
<time>2012-05-02T06:03:07Z</time>
<desc>lat.=42.784389, lon.=18.929119, Alt.=627.977051m. Speed=29.375999m/h.</desc>
<speed>8.160000</speed>
</trkpt>
<trkpt lat="42.784054" lon="18.929186">
<ele>627.336426</ele>
<time>2012-05-02T06:03:12Z</time>
<desc>lat.=42.784054, lon.=18.929186, Alt.=627.336426m. Speed=21.636000m/h.</desc>
<speed>6.010000</speed>
</trkpt>
<trkpt lat="42.783924" lon="18.928844">
<ele>626.992676</ele>
<time>2012-05-02T06:03:17Z</time>
<desc>lat.=42.783924, lon.=18.928844, Alt.=626.992676m. Speed=28.764000m/h.</desc>
<speed>7.990000</speed>
</trkpt>
<trkpt lat="42.783882" lon="18.928143">
<ele>626.055176</ele>
<time>2012-05-02T06:03:22Z</time>
<desc>lat.=42.783882, lon.=18.928143, Alt.=626.055176m. Speed=51.695999m/h.</desc>
<speed>14.360000</speed>
</trkpt>
<trkpt lat="42.783722" lon="18.927217">
<ele>625.633301</ele>
<time>2012-05-02T06:03:27Z</time>
<desc>lat.=42.783722, lon.=18.927217, Alt.=625.633301m. Speed=57.383999m/h.</desc>
<speed>15.940000</speed>
</trkpt>
<trkpt lat="42.783466" lon="18.926327">
<ele>625.164551</ele>
<time>2012-05-02T06:03:32Z</time>
<desc>lat.=42.783466, lon.=18.926327, Alt.=625.164551m. Speed=52.956001m/h.</desc>
<speed>14.710000</speed>
</trkpt>
<trkpt lat="42.783142" lon="18.925556">
<ele>624.836426</ele>
<time>2012-05-02T06:03:37Z</time>
<desc>lat.=42.783142, lon.=18.925556, Alt.=624.836426m. Speed=51.048000m/h.</desc>
<speed>14.180000</speed>
</trkpt>
<trkpt lat="42.782757" lon="18.924829">
<ele>623.508301</ele>
<time>2012-05-02T06:03:42Z</time>
<desc>lat.=42.782757, lon.=18.924829, Alt.=623.508301m. Speed=52.848000m/h.</desc>
<speed>14.680000</speed>
</trkpt>
<trkpt lat="42.782276" lon="18.924164">
<ele>622.320801</ele>
<time>2012-05-02T06:03:47Z</time>
<desc>lat.=42.782276, lon.=18.924164, Alt.=622.320801m. Speed=54.396000m/h.</desc>
<speed>15.110000</speed>
</trkpt>
<trkpt lat="42.781746" lon="18.923611">
<ele>621.492676</ele>
<time>2012-05-02T06:03:52Z</time>
<desc>lat.=42.781746, lon.=18.923611, Alt.=621.492676m. Speed=52.776001m/h.</desc>
<speed>14.660000</speed>
</trkpt>
<trkpt lat="42.781216" lon="18.923103">
<ele>621.039551</ele>
<time>2012-05-02T06:03:57Z</time>
<desc>lat.=42.781216, lon.=18.923103, Alt.=621.039551m. Speed=50.112000m/h.</desc>
<speed>13.920000</speed>
</trkpt>
<trkpt lat="42.780811" lon="18.922510">
<ele>621.305176</ele>
<time>2012-05-02T06:04:02Z</time>
<desc>lat.=42.780811, lon.=18.922510, Alt.=621.305176m. Speed=45.180000m/h.</desc>
<speed>12.550000</speed>
</trkpt>
<trkpt lat="42.780579" lon="18.921846">
<ele>621.852051</ele>
<time>2012-05-02T06:04:07Z</time>
<desc>lat.=42.780579, lon.=18.921846, Alt.=621.852051m. Speed=42.695999m/h.</desc>
<speed>11.860000</speed>
</trkpt>
<trkpt lat="42.780487" lon="18.921156">
<ele>621.773926</ele>
<time>2012-05-02T06:04:12Z</time>
<desc>lat.=42.780487, lon.=18.921156, Alt.=621.773926m. Speed=43.091999m/h.</desc>
<speed>11.970000</speed>
</trkpt>
<trkpt lat="42.780495" lon="18.920378">
<ele>622.055176</ele>
<time>2012-05-02T06:04:17Z</time>
<desc>lat.=42.780495, lon.=18.920378, Alt.=622.055176m. Speed=48.743999m/h.</desc>
<speed>13.540000</speed>
</trkpt>
<trkpt lat="42.780506" lon="18.919521">
<ele>622.695801</ele>
<time>2012-05-02T06:04:22Z</time>
<desc>lat.=42.780506, lon.=18.919521, Alt.=622.695801m. Speed=49.716000m/h.</desc>
<speed>13.810000</speed>
</trkpt>
<trkpt lat="42.780521" lon="18.918640">
<ele>623.086426</ele>
<time>2012-05-02T06:04:27Z</time>
<desc>lat.=42.780521, lon.=18.918640, Alt.=623.086426m. Speed=53.568001m/h.</desc>
<speed>14.880000</speed>
</trkpt>
<trkpt lat="42.780529" lon="18.917721">
<ele>623.180176</ele>
<time>2012-05-02T06:04:32Z</time>
<desc>lat.=42.780529, lon.=18.917721, Alt.=623.180176m. Speed=54.504002m/h.</desc>
<speed>15.140000</speed>
</trkpt>
<trkpt lat="42.780540" lon="18.916780">
<ele>623.055176</ele>
<time>2012-05-02T06:04:37Z</time>
<desc>lat.=42.780540, lon.=18.916780, Alt.=623.055176m. Speed=56.015999m/h.</desc>
<speed>15.560000</speed>
</trkpt>
<trkpt lat="42.780533" lon="18.915804">
<ele>622.602051</ele>
<time>2012-05-02T06:04:42Z</time>
<desc>lat.=42.780533, lon.=18.915804, Alt.=622.602051m. Speed=57.599998m/h.</desc>
<speed>16.000000</speed>
</trkpt>
<trkpt lat="42.780483" lon="18.914831">
<ele>622.258301</ele>
<time>2012-05-02T06:04:47Z</time>
<desc>lat.=42.780483, lon.=18.914831, Alt.=622.258301m. Speed=57.708000m/h.</desc>
<speed>16.030000</speed>
</trkpt>
<trkpt lat="42.780418" lon="18.913879">
<ele>621.867676</ele>
<time>2012-05-02T06:04:52Z</time>
<desc>lat.=42.780418, lon.=18.913879, Alt.=621.867676m. Speed=55.728001m/h.</desc>
<speed>15.480000</speed>
</trkpt>
<trkpt lat="42.780354" lon="18.912931">
<ele>621.664551</ele>
<time>2012-05-02T06:04:57Z</time>
<desc>lat.=42.780354, lon.=18.912931, Alt.=621.664551m. Speed=57.383999m/h.</desc>
<speed>15.940000</speed>
</trkpt>
<trkpt lat="42.780281" lon="18.911943">
<ele>621.555176</ele>
<time>2012-05-02T06:05:02Z</time>
<desc>lat.=42.780281, lon.=18.911943, Alt.=621.555176m. Speed=60.264000m/h.</desc>
<speed>16.740000</speed>
</trkpt>
<trkpt lat="42.780205" lon="18.910908">
<ele>621.273926</ele>
<time>2012-05-02T06:05:07Z</time>
<desc>lat.=42.780205, lon.=18.910908, Alt.=621.273926m. Speed=61.596001m/h.</desc>
<speed>17.110000</speed>
</trkpt>
<trkpt lat="42.780132" lon="18.909883">
<ele>621.086426</ele>
<time>2012-05-02T06:05:12Z</time>
<desc>lat.=42.780132, lon.=18.909883, Alt.=621.086426m. Speed=58.896000m/h.</desc>
<speed>16.360000</speed>
</trkpt>
<trkpt lat="42.780064" lon="18.908903">
<ele>620.711426</ele>
<time>2012-05-02T06:05:17Z</time>
<desc>lat.=42.780064, lon.=18.908903, Alt.=620.711426m. Speed=57.672001m/h.</desc>
<speed>16.020000</speed>
</trkpt>
<trkpt lat="42.779942" lon="18.907949">
<ele>620.805176</ele>
<time>2012-05-02T06:05:22Z</time>
<desc>lat.=42.779942, lon.=18.907949, Alt.=620.805176m. Speed=55.799999m/h.</desc>
<speed>15.500000</speed>
</trkpt>
<trkpt lat="42.779766" lon="18.907036">
<ele>620.680176</ele>
<time>2012-05-02T06:05:27Z</time>
<desc>lat.=42.779766, lon.=18.907036, Alt.=620.680176m. Speed=54.504002m/h.</desc>
<speed>15.140000</speed>
</trkpt>
<trkpt lat="42.779530" lon="18.906158">
<ele>620.742676</ele>
<time>2012-05-02T06:05:32Z</time>
<desc>lat.=42.779530, lon.=18.906158, Alt.=620.742676m. Speed=55.619999m/h.</desc>
<speed>15.450000</speed>
</trkpt>
<trkpt lat="42.779232" lon="18.905272">
<ele>620.742676</ele>
<time>2012-05-02T06:05:37Z</time>
<desc>lat.=42.779232, lon.=18.905272, Alt.=620.742676m. Speed=58.284000m/h.</desc>
<speed>16.190000</speed>
</trkpt>
<trkpt lat="42.778870" lon="18.904390">
<ele>620.898926</ele>
<time>2012-05-02T06:05:42Z</time>
<desc>lat.=42.778870, lon.=18.904390, Alt.=620.898926m. Speed=59.939999m/h.</desc>
<speed>16.650000</speed>
</trkpt>
<trkpt lat="42.778473" lon="18.903500">
<ele>620.773926</ele>
<time>2012-05-02T06:05:47Z</time>
<desc>lat.=42.778473, lon.=18.903500, Alt.=620.773926m. Speed=61.020000m/h.</desc>
<speed>16.950000</speed>
</trkpt>
<trkpt lat="42.778095" lon="18.902636">
<ele>620.852051</ele>
<time>2012-05-02T06:05:52Z</time>
<desc>lat.=42.778095, lon.=18.902636, Alt.=620.852051m. Speed=57.636002m/h.</desc>
<speed>16.010000</speed>
</trkpt>
<trkpt lat="42.777725" lon="18.901804">
<ele>621.180176</ele>
<time>2012-05-02T06:05:57Z</time>
<desc>lat.=42.777725, lon.=18.901804, Alt.=621.180176m. Speed=56.627998m/h.</desc>
<speed>15.730000</speed>
</trkpt>
<trkpt lat="42.777382" lon="18.901016">
<ele>622.055176</ele>
<time>2012-05-02T06:06:02Z</time>
<desc>lat.=42.777382, lon.=18.901016, Alt.=622.055176m. Speed=51.048000m/h.</desc>
<speed>14.180000</speed>
</trkpt>
<trkpt lat="42.777061" lon="18.900293">
<ele>623.523926</ele>
<time>2012-05-02T06:06:07Z</time>
<desc>lat.=42.777061, lon.=18.900293, Alt.=623.523926m. Speed=49.032001m/h.</desc>
<speed>13.620000</speed>
</trkpt>
<trkpt lat="42.776768" lon="18.899588">
<ele>624.992676</ele>
<time>2012-05-02T06:06:12Z</time>
<desc>lat.=42.776768, lon.=18.899588, Alt.=624.992676m. Speed=46.764000m/h.</desc>
<speed>12.990000</speed>
</trkpt>
<trkpt lat="42.776550" lon="18.898870">
<ele>626.852051</ele>
<time>2012-05-02T06:06:17Z</time>
<desc>lat.=42.776550, lon.=18.898870, Alt.=626.852051m. Speed=44.279999m/h.</desc>
<speed>12.300000</speed>
</trkpt>
<trkpt lat="42.776428" lon="18.898190">
<ele>628.523926</ele>
<time>2012-05-02T06:06:22Z</time>
<desc>lat.=42.776428, lon.=18.898190, Alt.=628.523926m. Speed=40.535999m/h.</desc>
<speed>11.260000</speed>
</trkpt>
<trkpt lat="42.776394" lon="18.897474">
<ele>630.430176</ele>
<time>2012-05-02T06:06:27Z</time>
<desc>lat.=42.776394, lon.=18.897474, Alt.=630.430176m. Speed=45.035999m/h.</desc>
<speed>12.510000</speed>
</trkpt>
<trkpt lat="42.776413" lon="18.896671">
<ele>632.680176</ele>
<time>2012-05-02T06:06:32Z</time>
<desc>lat.=42.776413, lon.=18.896671, Alt.=632.680176m. Speed=49.824001m/h.</desc>
<speed>13.840000</speed>
</trkpt>
<trkpt lat="42.776474" lon="18.895739">
<ele>635.383301</ele>
<time>2012-05-02T06:06:37Z</time>
<desc>lat.=42.776474, lon.=18.895739, Alt.=635.383301m. Speed=57.888000m/h.</desc>
<speed>16.080000</speed>
</trkpt>
<trkpt lat="42.776543" lon="18.894802">
<ele>637.945801</ele>
<time>2012-05-02T06:06:42Z</time>
<desc>lat.=42.776543, lon.=18.894802, Alt.=637.945801m. Speed=52.956001m/h.</desc>
<speed>14.710000</speed>
</trkpt>
<trkpt lat="42.776577" lon="18.893948">
<ele>640.492676</ele>
<time>2012-05-02T06:06:47Z</time>
<desc>lat.=42.776577, lon.=18.893948, Alt.=640.492676m. Speed=50.183998m/h.</desc>
<speed>13.939999</speed>
</trkpt>
<trkpt lat="42.776653" lon="18.893078">
<ele>642.305176</ele>
<time>2012-05-02T06:06:52Z</time>
<desc>lat.=42.776653, lon.=18.893078, Alt.=642.305176m. Speed=52.992001m/h.</desc>
<speed>14.720000</speed>
</trkpt>
<trkpt lat="42.776726" lon="18.892139">
<ele>644.008301</ele>
<time>2012-05-02T06:06:57Z</time>
<desc>lat.=42.776726, lon.=18.892139, Alt.=644.008301m. Speed=58.428001m/h.</desc>
<speed>16.230000</speed>
</trkpt>
<trkpt lat="42.776848" lon="18.891109">
<ele>644.711426</ele>
<time>2012-05-02T06:07:02Z</time>
<desc>lat.=42.776848, lon.=18.891109, Alt.=644.711426m. Speed=60.948002m/h.</desc>
<speed>16.930001</speed>
</trkpt>
<trkpt lat="42.777073" lon="18.890177">
<ele>645.695801</ele>
<time>2012-05-02T06:07:07Z</time>
<desc>lat.=42.777073, lon.=18.890177, Alt.=645.695801m. Speed=55.619999m/h.</desc>
<speed>15.450000</speed>
</trkpt>
<trkpt lat="42.777363" lon="18.889332">
<ele>646.023926</ele>
<time>2012-05-02T06:07:12Z</time>
<desc>lat.=42.777363, lon.=18.889332, Alt.=646.023926m. Speed=55.296001m/h.</desc>
<speed>15.360000</speed>
</trkpt>
<trkpt lat="42.777691" lon="18.888493">
<ele>646.727051</ele>
<time>2012-05-02T06:07:17Z</time>
<desc>lat.=42.777691, lon.=18.888493, Alt.=646.727051m. Speed=57.023998m/h.</desc>
<speed>15.840000</speed>
</trkpt>
<trkpt lat="42.777981" lon="18.887585">
<ele>647.398926</ele>
<time>2012-05-02T06:07:22Z</time>
<desc>lat.=42.777981, lon.=18.887585, Alt.=647.398926m. Speed=58.464001m/h.</desc>
<speed>16.240000</speed>
</trkpt>
<trkpt lat="42.778183" lon="18.886618">
<ele>648.320801</ele>
<time>2012-05-02T06:07:27Z</time>
<desc>lat.=42.778183, lon.=18.886618, Alt.=648.320801m. Speed=59.939999m/h.</desc>
<speed>16.650000</speed>
</trkpt>
<trkpt lat="42.778259" lon="18.885612">
<ele>649.211426</ele>
<time>2012-05-02T06:07:32Z</time>
<desc>lat.=42.778259, lon.=18.885612, Alt.=649.211426m. Speed=59.723999m/h.</desc>
<speed>16.590000</speed>
</trkpt>
<trkpt lat="42.778252" lon="18.884594">
<ele>650.008301</ele>
<time>2012-05-02T06:07:37Z</time>
<desc>lat.=42.778252, lon.=18.884594, Alt.=650.008301m. Speed=59.796001m/h.</desc>
<speed>16.610000</speed>
</trkpt>
<trkpt lat="42.778221" lon="18.883606">
<ele>650.523926</ele>
<time>2012-05-02T06:07:42Z</time>
<desc>lat.=42.778221, lon.=18.883606, Alt.=650.523926m. Speed=57.816002m/h.</desc>
<speed>16.060001</speed>
</trkpt>
<trkpt lat="42.778206" lon="18.882637">
<ele>650.711426</ele>
<time>2012-05-02T06:07:47Z</time>
<desc>lat.=42.778206, lon.=18.882637, Alt.=650.711426m. Speed=57.383999m/h.</desc>
<speed>15.940000</speed>
</trkpt>
<trkpt lat="42.778267" lon="18.881636">
<ele>650.227051</ele>
<time>2012-05-02T06:07:52Z</time>
<desc>lat.=42.778267, lon.=18.881636, Alt.=650.227051m. Speed=60.228001m/h.</desc>
<speed>16.730000</speed>
</trkpt>
<trkpt lat="42.778435" lon="18.880606">
<ele>649.320801</ele>
<time>2012-05-02T06:07:57Z</time>
<desc>lat.=42.778435, lon.=18.880606, Alt.=649.320801m. Speed=63.720001m/h.</desc>
<speed>17.700000</speed>
</trkpt>
<trkpt lat="42.778778" lon="18.879604">
<ele>647.539551</ele>
<time>2012-05-02T06:08:02Z</time>
<desc>lat.=42.778778, lon.=18.879604, Alt.=647.539551m. Speed=66.491997m/h.</desc>
<speed>18.469999</speed>
</trkpt>
<trkpt lat="42.779255" lon="18.878613">
<ele>646.289551</ele>
<time>2012-05-02T06:08:07Z</time>
<desc>lat.=42.779255, lon.=18.878613, Alt.=646.289551m. Speed=73.223999m/h.</desc>
<speed>20.340000</speed>
</trkpt>
<trkpt lat="42.779785" lon="18.877596">
<ele>644.930176</ele>
<time>2012-05-02T06:08:12Z</time>
<desc>lat.=42.779785, lon.=18.877596, Alt.=644.930176m. Speed=73.260002m/h.</desc>
<speed>20.350001</speed>
</trkpt>
<trkpt lat="42.780216" lon="18.876417">
<ele>642.930176</ele>
<time>2012-05-02T06:08:17Z</time>
<desc>lat.=42.780216, lon.=18.876417, Alt.=642.930176m. Speed=83.124001m/h.</desc>
<speed>23.090000</speed>
</trkpt>
<trkpt lat="42.780487" lon="18.874990">
<ele>642.336426</ele>
<time>2012-05-02T06:08:22Z</time>
<desc>lat.=42.780487, lon.=18.874990, Alt.=642.336426m. Speed=85.680000m/h.</desc>
<speed>23.800000</speed>
</trkpt>
<trkpt lat="42.780720" lon="18.873617">
<ele>642.727051</ele>
<time>2012-05-02T06:08:27Z</time>
<desc>lat.=42.780720, lon.=18.873617, Alt.=642.727051m. Speed=78.875999m/h.</desc>
<speed>21.910000</speed>
</trkpt>
<trkpt lat="42.780968" lon="18.872349">
<ele>644.102051</ele>
<time>2012-05-02T06:08:32Z</time>
<desc>lat.=42.780968, lon.=18.872349, Alt.=644.102051m. Speed=76.968002m/h.</desc>
<speed>21.380001</speed>
</trkpt>
<trkpt lat="42.781322" lon="18.871119">
<ele>645.414551</ele>
<time>2012-05-02T06:08:37Z</time>
<desc>lat.=42.781322, lon.=18.871119, Alt.=645.414551m. Speed=78.660004m/h.</desc>
<speed>21.850001</speed>
</trkpt>
<trkpt lat="42.781700" lon="18.869911">
<ele>645.789551</ele>
<time>2012-05-02T06:08:42Z</time>
<desc>lat.=42.781700, lon.=18.869911, Alt.=645.789551m. Speed=75.384003m/h.</desc>
<speed>20.940001</speed>
</trkpt>
<trkpt lat="42.782055" lon="18.868773">
<ele>645.055176</ele>
<time>2012-05-02T06:08:47Z</time>
<desc>lat.=42.782055, lon.=18.868773, Alt.=645.055176m. Speed=70.956001m/h.</desc>
<speed>19.710000</speed>
</trkpt>
<trkpt lat="42.782387" lon="18.867695">
<ele>643.273926</ele>
<time>2012-05-02T06:08:52Z</time>
<desc>lat.=42.782387, lon.=18.867695, Alt.=643.273926m. Speed=67.751999m/h.</desc>
<speed>18.820000</speed>
</trkpt>
<trkpt lat="42.782623" lon="18.866621">
<ele>642.133301</ele>
<time>2012-05-02T06:08:57Z</time>
<desc>lat.=42.782623, lon.=18.866621, Alt.=642.133301m. Speed=65.484001m/h.</desc>
<speed>18.190000</speed>
</trkpt>
<trkpt lat="42.782673" lon="18.865530">
<ele>643.117676</ele>
<time>2012-05-02T06:09:02Z</time>
<desc>lat.=42.782673, lon.=18.865530, Alt.=643.117676m. Speed=64.223999m/h.</desc>
<speed>17.840000</speed>
</trkpt>
<trkpt lat="42.782417" lon="18.864485">
<ele>645.773926</ele>
<time>2012-05-02T06:09:07Z</time>
<desc>lat.=42.782417, lon.=18.864485, Alt.=645.773926m. Speed=65.699997m/h.</desc>
<speed>18.249999</speed>
</trkpt>
<trkpt lat="42.782024" lon="18.863478">
<ele>649.867676</ele>
<time>2012-05-02T06:09:12Z</time>
<desc>lat.=42.782024, lon.=18.863478, Alt.=649.867676m. Speed=67.823997m/h.</desc>
<speed>18.839999</speed>
</trkpt>
<trkpt lat="42.781475" lon="18.862570">
<ele>653.852051</ele>
<time>2012-05-02T06:09:17Z</time>
<desc>lat.=42.781475, lon.=18.862570, Alt.=653.852051m. Speed=70.092003m/h.</desc>
<speed>19.470001</speed>
</trkpt>
<trkpt lat="42.780792" lon="18.861843">
<ele>657.836426</ele>
<time>2012-05-02T06:09:22Z</time>
<desc>lat.=42.780792, lon.=18.861843, Alt.=657.836426m. Speed=64.980003m/h.</desc>
<speed>18.050001</speed>
</trkpt>
<trkpt lat="42.780243" lon="18.861048">
<ele>660.852051</ele>
<time>2012-05-02T06:09:27Z</time>
<desc>lat.=42.780243, lon.=18.861048, Alt.=660.852051m. Speed=63.647999m/h.</desc>
<speed>17.680000</speed>
</trkpt>
<trkpt lat="42.779896" lon="18.860050">
<ele>663.180176</ele>
<time>2012-05-02T06:09:32Z</time>
<desc>lat.=42.779896, lon.=18.860050, Alt.=663.180176m. Speed=67.248001m/h.</desc>
<speed>18.680000</speed>
</trkpt>
<trkpt lat="42.779480" lon="18.859108">
<ele>665.133301</ele>
<time>2012-05-02T06:09:37Z</time>
<desc>lat.=42.779480, lon.=18.859108, Alt.=665.133301m. Speed=63.576000m/h.</desc>
<speed>17.660000</speed>
</trkpt>
<trkpt lat="42.778877" lon="18.858374">
<ele>666.883301</ele>
<time>2012-05-02T06:09:42Z</time>
<desc>lat.=42.778877, lon.=18.858374, Alt.=666.883301m. Speed=64.475998m/h.</desc>
<speed>17.909999</speed>
</trkpt>
<trkpt lat="42.778336" lon="18.857653">
<ele>668.164551</ele>
<time>2012-05-02T06:09:47Z</time>
<desc>lat.=42.778336, lon.=18.857653, Alt.=668.164551m. Speed=58.212002m/h.</desc>
<speed>16.170001</speed>
</trkpt>
<trkpt lat="42.778095" lon="18.856724">
<ele>669.305176</ele>
<time>2012-05-02T06:09:52Z</time>
<desc>lat.=42.778095, lon.=18.856724, Alt.=669.305176m. Speed=61.020000m/h.</desc>
<speed>16.950000</speed>
</trkpt>
<trkpt lat="42.778088" lon="18.855648">
<ele>670.523926</ele>
<time>2012-05-02T06:09:57Z</time>
<desc>lat.=42.778088, lon.=18.855648, Alt.=670.523926m. Speed=64.944000m/h.</desc>
<speed>18.040000</speed>
</trkpt>
<trkpt lat="42.778118" lon="18.854509">
<ele>672.398926</ele>
<time>2012-05-02T06:10:02Z</time>
<desc>lat.=42.778118, lon.=18.854509, Alt.=672.398926m. Speed=68.435997m/h.</desc>
<speed>19.009999</speed>
</trkpt>
<trkpt lat="42.778084" lon="18.853374">
<ele>674.305176</ele>
<time>2012-05-02T06:10:07Z</time>
<desc>lat.=42.778084, lon.=18.853374, Alt.=674.305176m. Speed=65.375999m/h.</desc>
<speed>18.160000</speed>
</trkpt>
<trkpt lat="42.778000" lon="18.852310">
<ele>675.992676</ele>
<time>2012-05-02T06:10:12Z</time>
<desc>lat.=42.778000, lon.=18.852310, Alt.=675.992676m. Speed=61.056000m/h.</desc>
<speed>16.960000</speed>
</trkpt>
<trkpt lat="42.777798" lon="18.851358">
<ele>678.039551</ele>
<time>2012-05-02T06:10:17Z</time>
<desc>lat.=42.777798, lon.=18.851358, Alt.=678.039551m. Speed=55.619999m/h.</desc>
<speed>15.450000</speed>
</trkpt>
<trkpt lat="42.777565" lon="18.850603">
<ele>680.602051</ele>
<time>2012-05-02T06:10:22Z</time>
<desc>lat.=42.777565, lon.=18.850603, Alt.=680.602051m. Speed=40.355999m/h.</desc>
<speed>11.210000</speed>
</trkpt>
<trkpt lat="42.777409" lon="18.850161">
<ele>682.555176</ele>
<time>2012-05-02T06:10:27Z</time>
<desc>lat.=42.777409, lon.=18.850161, Alt.=682.555176m. Speed=16.379999m/h.</desc>
<speed>4.550000</speed>
</trkpt>
<trkpt lat="42.777374" lon="18.850111">
<ele>683.070801</ele>
<time>2012-05-02T06:10:32Z</time>
<desc>lat.=42.777374, lon.=18.850111, Alt.=683.070801m. Speed=0.000000m/h.</desc>
<speed>0.000000</speed>
</trkpt>
<trkpt lat="42.777374" lon="18.850115">
<ele>683.148926</ele>
<time>2012-05-02T06:10:37Z</time>
<desc>lat.=42.777374, lon.=18.850115, Alt.=683.148926m. Speed=0.000000m/h.</desc>
<speed>0.000000</speed>
</trkpt>
<trkpt lat="42.777374" lon="18.850115">
<ele>683.164551</ele>
<time>2012-05-02T06:10:42Z</time>
<desc>lat.=42.777374, lon.=18.850115, Alt.=683.164551m. Speed=0.000000m/h.</desc>
<speed>0.000000</speed>
</trkpt>
<trkpt lat="42.777378" lon="18.850115">
<ele>683.148926</ele>
<time>2012-05-02T06:10:47Z</time>
<desc>lat.=42.777378, lon.=18.850115, Alt.=683.148926m. Speed=0.000000m/h.</desc>
<speed>0.000000</speed>
</trkpt>
<trkpt lat="42.777374" lon="18.850115">
<ele>683.148926</ele>
<time>2012-05-02T06:10:52Z</time>
<desc>lat.=42.777374, lon.=18.850115, Alt.=683.148926m. Speed=0.036000m/h.</desc>
<speed>0.010000</speed>
</trkpt>
<trkpt lat="42.777374" lon="18.850115">
<ele>683.148926</ele>
<time>2012-05-02T06:10:57Z</time>
<desc>lat.=42.777374, lon.=18.850115, Alt.=683.148926m. Speed=0.036000m/h.</desc>
<speed>0.010000</speed>
</trkpt>
<trkpt lat="42.777374" lon="18.850117">
<ele>683.133301</ele>
<time>2012-05-02T06:11:02Z</time>
<desc>lat.=42.777374, lon.=18.850117, Alt.=683.133301m. Speed=0.000000m/h.</desc>
<speed>0.000000</speed>
</trkpt>
<trkpt lat="42.777374" lon="18.850117">
<ele>683.148926</ele>
<time>2012-05-02T06:11:07Z</time>
<desc>lat.=42.777374, lon.=18.850117, Alt.=683.148926m. Speed=0.000000m/h.</desc>
<speed>0.000000</speed>
</trkpt>
<trkpt lat="42.777374" lon="18.850117">
<ele>683.164551</ele>
<time>2012-05-02T06:11:12Z</time>
<desc>lat.=42.777374, lon.=18.850117, Alt.=683.164551m. Speed=0.000000m/h.</desc>
<speed>0.000000</speed>
</trkpt>
<trkpt lat="42.777374" lon="18.850117">
<ele>683.180176</ele>
<time>2012-05-02T06:11:17Z</time>
<desc>lat.=42.777374, lon.=18.850117, Alt.=683.180176m. Speed=0.000000m/h.</desc>
<speed>0.000000</speed>
</trkpt>
<trkpt lat="42.777374" lon="18.850117">
<ele>683.195801</ele>
<time>2012-05-02T06:11:22Z</time>
<desc>lat.=42.777374, lon.=18.850117, Alt.=683.195801m. Speed=0.000000m/h.</desc>
<speed>0.000000</speed>
</trkpt>
<trkpt lat="42.777374" lon="18.850117">
<ele>683.195801</ele>
<time>2012-05-02T06:11:27Z</time>
<desc>lat.=42.777374, lon.=18.850117, Alt.=683.195801m. Speed=0.000000m/h.</desc>
<speed>0.000000</speed>
</trkpt>
<trkpt lat="42.777374" lon="18.850117">
<ele>683.211426</ele>
<time>2012-05-02T06:11:32Z</time>
<desc>lat.=42.777374, lon.=18.850117, Alt.=683.211426m. Speed=0.000000m/h.</desc>
<speed>0.000000</speed>
</trkpt>
<trkpt lat="42.777374" lon="18.850117">
<ele>683.211426</ele>
<time>2012-05-02T06:11:37Z</time>
<desc>lat.=42.777374, lon.=18.850117, Alt.=683.211426m. Speed=0.000000m/h.</desc>
<speed>0.000000</speed>
</trkpt>
<trkpt lat="42.777374" lon="18.850117">
<ele>683.227051</ele>
<time>2012-05-02T06:11:42Z</time>
<desc>lat.=42.777374, lon.=18.850117, Alt.=683.227051m. Speed=0.000000m/h.</desc>
<speed>0.000000</speed>
</trkpt>
<trkpt lat="42.777374" lon="18.850117">
<ele>683.227051</ele>
<time>2012-05-02T06:11:47Z</time>
<desc>lat.=42.777374, lon.=18.850117, Alt.=683.227051m. Speed=0.000000m/h.</desc>
<speed>0.000000</speed>
</trkpt>
<trkpt lat="42.777374" lon="18.850119">
<ele>683.227051</ele>
<time>2012-05-02T06:11:52Z</time>
<desc>lat.=42.777374, lon.=18.850119, Alt.=683.227051m. Speed=0.000000m/h.</desc>
<speed>0.000000</speed>
</trkpt>
<trkpt lat="42.777374" lon="18.850119">
<ele>683.242676</ele>
<time>2012-05-02T06:11:57Z</time>
<desc>lat.=42.777374, lon.=18.850119, Alt.=683.242676m. Speed=0.000000m/h.</desc>
<speed>0.000000</speed>
</trkpt>
<trkpt lat="42.777374" lon="18.850119">
<ele>683.258301</ele>
<time>2012-05-02T06:12:02Z</time>
<desc>lat.=42.777374, lon.=18.850119, Alt.=683.258301m. Speed=0.000000m/h.</desc>
<speed>0.000000</speed>
</trkpt>
<trkpt lat="42.777374" lon="18.850119">
<ele>683.273926</ele>
<time>2012-05-02T06:12:07Z</time>
<desc>lat.=42.777374, lon.=18.850119, Alt.=683.273926m. Speed=0.000000m/h.</desc>
<speed>0.000000</speed>
</trkpt>
<trkpt lat="42.777374" lon="18.850119">
<ele>683.289551</ele>
<time>2012-05-02T06:12:12Z</time>
<desc>lat.=42.777374, lon.=18.850119, Alt.=683.289551m. Speed=0.000000m/h.</desc>
<speed>0.000000</speed>
</trkpt>
<trkpt lat="42.777374" lon="18.850119">
<ele>683.305176</ele>
<time>2012-05-02T06:12:17Z</time>
<desc>lat.=42.777374, lon.=18.850119, Alt.=683.305176m. Speed=0.000000m/h.</desc>
<speed>0.000000</speed>
</trkpt>
<trkpt lat="42.777378" lon="18.850119">
<ele>683.320801</ele>
<time>2012-05-02T06:12:22Z</time>
<desc>lat.=42.777378, lon.=18.850119, Alt.=683.320801m. Speed=0.000000m/h.</desc>
<speed>0.000000</speed>
</trkpt>
<trkpt lat="42.777378" lon="18.850119">
<ele>683.320801</ele>
<time>2012-05-02T06:12:27Z</time>
<desc>lat.=42.777378, lon.=18.850119, Alt.=683.320801m. Speed=0.000000m/h.</desc>
<speed>0.000000</speed>
</trkpt>
<trkpt lat="42.777378" lon="18.850119">
<ele>683.336426</ele>
<time>2012-05-02T06:12:32Z</time>
<desc>lat.=42.777378, lon.=18.850119, Alt.=683.336426m. Speed=0.000000m/h.</desc>
<speed>0.000000</speed>
</trkpt>
<trkpt lat="42.777378" lon="18.850119">
<ele>683.352051</ele>
<time>2012-05-02T06:12:37Z</time>
<desc>lat.=42.777378, lon.=18.850119, Alt.=683.352051m. Speed=0.000000m/h.</desc>
<speed>0.000000</speed>
</trkpt>
<trkpt lat="42.777378" lon="18.850119">
<ele>683.352051</ele>
<time>2012-05-02T06:12:42Z</time>
<desc>lat.=42.777378, lon.=18.850119, Alt.=683.352051m. Speed=0.000000m/h.</desc>
<speed>0.000000</speed>
</trkpt>
<trkpt lat="42.777378" lon="18.850121">
<ele>683.352051</ele>
<time>2012-05-02T06:12:47Z</time>
<desc>lat.=42.777378, lon.=18.850121, Alt.=683.352051m. Speed=0.000000m/h.</desc>
<speed>0.000000</speed>
</trkpt>
<trkpt lat="42.777378" lon="18.850121">
<ele>683.367676</ele>
<time>2012-05-02T06:12:52Z</time>
<desc>lat.=42.777378, lon.=18.850121, Alt.=683.367676m. Speed=0.000000m/h.</desc>
<speed>0.000000</speed>
</trkpt>
<trkpt lat="42.777378" lon="18.850121">
<ele>683.383301</ele>
<time>2012-05-02T06:12:57Z</time>
<desc>lat.=42.777378, lon.=18.850121, Alt.=683.383301m. Speed=0.000000m/h.</desc>
<speed>0.000000</speed>
</trkpt>
<trkpt lat="42.777378" lon="18.850121">
<ele>683.383301</ele>
<time>2012-05-02T06:13:02Z</time>
<desc>lat.=42.777378, lon.=18.850121, Alt.=683.383301m. Speed=0.000000m/h.</desc>
<speed>0.000000</speed>
</trkpt>
<trkpt lat="42.777378" lon="18.850121">
<ele>683.383301</ele>
<time>2012-05-02T06:13:07Z</time>
<desc>lat.=42.777378, lon.=18.850121, Alt.=683.383301m. Speed=0.000000m/h.</desc>
<speed>0.000000</speed>
</trkpt>
<trkpt lat="42.777378" lon="18.850121">
<ele>683.383301</ele>
<time>2012-05-02T06:13:12Z</time>
<desc>lat.=42.777378, lon.=18.850121, Alt.=683.383301m. Speed=0.000000m/h.</desc>
<speed>0.000000</speed>
</trkpt>
<trkpt lat="42.777378" lon="18.850121">
<ele>683.383301</ele>
<time>2012-05-02T06:13:17Z</time>
<desc>lat.=42.777378, lon.=18.850121, Alt.=683.383301m. Speed=0.000000m/h.</desc>
<speed>0.000000</speed>
</trkpt>
<trkpt lat="42.777378" lon="18.850121">
<ele>683.398926</ele>
<time>2012-05-02T06:13:22Z</time>
<desc>lat.=42.777378, lon.=18.850121, Alt.=683.398926m. Speed=0.036000m/h.</desc>
<speed>0.010000</speed>
</trkpt>
<trkpt lat="42.777378" lon="18.850121">
<ele>683.398926</ele>
<time>2012-05-02T06:13:27Z</time>
<desc>lat.=42.777378, lon.=18.850121, Alt.=683.398926m. Speed=0.000000m/h.</desc>
<speed>0.000000</speed>
</trkpt>
<trkpt lat="42.777378" lon="18.850121">
<ele>683.398926</ele>
<time>2012-05-02T06:13:32Z</time>
<desc>lat.=42.777378, lon.=18.850121, Alt.=683.398926m. Speed=0.000000m/h.</desc>
<speed>0.000000</speed>
</trkpt>
<trkpt lat="42.777378" lon="18.850121">
<ele>683.414551</ele>
<time>2012-05-02T06:13:37Z</time>
<desc>lat.=42.777378, lon.=18.850121, Alt.=683.414551m. Speed=0.000000m/h.</desc>
<speed>0.000000</speed>
</trkpt>
<trkpt lat="42.777378" lon="18.850121">
<ele>683.414551</ele>
<time>2012-05-02T06:13:42Z</time>
<desc>lat.=42.777378, lon.=18.850121, Alt.=683.414551m. Speed=0.000000m/h.</desc>
<speed>0.000000</speed>
</trkpt>
<trkpt lat="42.777378" lon="18.850121">
<ele>683.414551</ele>
<time>2012-05-02T06:13:47Z</time>
<desc>lat.=42.777378, lon.=18.850121, Alt.=683.414551m. Speed=0.000000m/h.</desc>
<speed>0.000000</speed>
</trkpt>
<trkpt lat="42.777378" lon="18.850121">
<ele>683.430176</ele>
<time>2012-05-02T06:13:52Z</time>
<desc>lat.=42.777378, lon.=18.850121, Alt.=683.430176m. Speed=0.000000m/h.</desc>
<speed>0.000000</speed>
</trkpt>
<trkpt lat="42.777378" lon="18.850121">
<ele>683.430176</ele>
<time>2012-05-02T06:13:57Z</time>
<desc>lat.=42.777378, lon.=18.850121, Alt.=683.430176m. Speed=0.000000m/h.</desc>
<speed>0.000000</speed>
</trkpt>
<trkpt lat="42.777378" lon="18.850121">
<ele>683.430176</ele>
<time>2012-05-02T06:14:02Z</time>
<desc>lat.=42.777378, lon.=18.850121, Alt.=683.430176m. Speed=0.000000m/h.</desc>
<speed>0.000000</speed>
</trkpt>
<trkpt lat="42.777378" lon="18.850122">
<ele>683.430176</ele>
<time>2012-05-02T06:14:07Z</time>
<desc>lat.=42.777378, lon.=18.850122, Alt.=683.430176m. Speed=0.000000m/h.</desc>
<speed>0.000000</speed>
</trkpt>
<trkpt lat="42.777378" lon="18.850122">
<ele>683.445801</ele>
<time>2012-05-02T06:14:12Z</time>
<desc>lat.=42.777378, lon.=18.850122, Alt.=683.445801m. Speed=0.000000m/h.</desc>
<speed>0.000000</speed>
</trkpt>
<trkpt lat="42.777378" lon="18.850122">
<ele>683.445801</ele>
<time>2012-05-02T06:14:17Z</time>
<desc>lat.=42.777378, lon.=18.850122, Alt.=683.445801m. Speed=0.000000m/h.</desc>
<speed>0.000000</speed>
</trkpt>
<trkpt lat="42.777378" lon="18.850122">
<ele>683.445801</ele>
<time>2012-05-02T06:14:22Z</time>
<desc>lat.=42.777378, lon.=18.850122, Alt.=683.445801m. Speed=0.000000m/h.</desc>
<speed>0.000000</speed>
</trkpt>
<trkpt lat="42.777378" lon="18.850122">
<ele>683.461426</ele>
<time>2012-05-02T06:14:27Z</time>
<desc>lat.=42.777378, lon.=18.850122, Alt.=683.461426m. Speed=0.000000m/h.</desc>
<speed>0.000000</speed>
</trkpt>
<trkpt lat="42.777374" lon="18.850113">
<ele>683.492676</ele>
<time>2012-05-02T06:14:32Z</time>
<desc>lat.=42.777374, lon.=18.850113, Alt.=683.492676m. Speed=0.360000m/h.</desc>
<speed>0.100000</speed>
</trkpt>
<trkpt lat="42.777306" lon="18.850050">
<ele>683.727051</ele>
<time>2012-05-02T06:14:37Z</time>
<desc>lat.=42.777306, lon.=18.850050, Alt.=683.727051m. Speed=17.208000m/h.</desc>
<speed>4.780000</speed>
</trkpt>
<trkpt lat="42.777119" lon="18.849728">
<ele>685.242676</ele>
<time>2012-05-02T06:14:42Z</time>
<desc>lat.=42.777119, lon.=18.849728, Alt.=685.242676m. Speed=34.487999m/h.</desc>
<speed>9.580000</speed>
</trkpt>
<trkpt lat="42.776829" lon="18.849266">
<ele>687.461426</ele>
<time>2012-05-02T06:14:47Z</time>
<desc>lat.=42.776829, lon.=18.849266, Alt.=687.461426m. Speed=39.456001m/h.</desc>
<speed>10.960000</speed>
</trkpt>
<trkpt lat="42.776424" lon="18.848698">
<ele>690.492676</ele>
<time>2012-05-02T06:14:52Z</time>
<desc>lat.=42.776424, lon.=18.848698, Alt.=690.492676m. Speed=52.560001m/h.</desc>
<speed>14.600000</speed>
</trkpt>
<trkpt lat="42.775875" lon="18.848017">
<ele>694.242676</ele>
<time>2012-05-02T06:14:57Z</time>
<desc>lat.=42.775875, lon.=18.848017, Alt.=694.242676m. Speed=63.827999m/h.</desc>
<speed>17.730000</speed>
</trkpt>
<trkpt lat="42.775284" lon="18.847334">
<ele>697.633301</ele>
<time>2012-05-02T06:15:02Z</time>
<desc>lat.=42.775284, lon.=18.847334, Alt.=697.633301m. Speed=59.472000m/h.</desc>
<speed>16.520000</speed>
</trkpt>
<trkpt lat="42.774708" lon="18.846678">
<ele>700.508301</ele>
<time>2012-05-02T06:15:07Z</time>
<desc>lat.=42.774708, lon.=18.846678, Alt.=700.508301m. Speed=59.759998m/h.</desc>
<speed>16.600000</speed>
</trkpt>
<trkpt lat="42.774151" lon="18.846027">
<ele>703.352051</ele>
<time>2012-05-02T06:15:12Z</time>
<desc>lat.=42.774151, lon.=18.846027, Alt.=703.352051m. Speed=57.096001m/h.</desc>
<speed>15.860000</speed>
</trkpt>
<trkpt lat="42.773594" lon="18.845398">
<ele>705.883301</ele>
<time>2012-05-02T06:15:17Z</time>
<desc>lat.=42.773594, lon.=18.845398, Alt.=705.883301m. Speed=56.484001m/h.</desc>
<speed>15.690000</speed>
</trkpt>
<trkpt lat="42.773109" lon="18.844782">
<ele>707.633301</ele>
<time>2012-05-02T06:15:22Z</time>
<desc>lat.=42.773109, lon.=18.844782, Alt.=707.633301m. Speed=51.731998m/h.</desc>
<speed>14.370000</speed>
</trkpt>
<trkpt lat="42.772800" lon="18.843987">
<ele>708.867676</ele>
<time>2012-05-02T06:15:27Z</time>
<desc>lat.=42.772800, lon.=18.843987, Alt.=708.867676m. Speed=54.504002m/h.</desc>
<speed>15.140000</speed>
</trkpt>
<trkpt lat="42.772736" lon="18.843004">
<ele>710.258301</ele>
<time>2012-05-02T06:15:32Z</time>
<desc>lat.=42.772736, lon.=18.843004, Alt.=710.258301m. Speed=60.804001m/h.</desc>
<speed>16.890000</speed>
</trkpt>
<trkpt lat="42.772705" lon="18.841978">
<ele>711.883301</ele>
<time>2012-05-02T06:15:37Z</time>
<desc>lat.=42.772705, lon.=18.841978, Alt.=711.883301m. Speed=59.112000m/h.</desc>
<speed>16.420000</speed>
</trkpt>
<trkpt lat="42.772381" lon="18.841032">
<ele>714.242676</ele>
<time>2012-05-02T06:15:42Z</time>
<desc>lat.=42.772381, lon.=18.841032, Alt.=714.242676m. Speed=65.160004m/h.</desc>
<speed>18.100001</speed>
</trkpt>
<trkpt lat="42.771873" lon="18.840210">
<ele>717.320801</ele>
<time>2012-05-02T06:15:47Z</time>
<desc>lat.=42.771873, lon.=18.840210, Alt.=717.320801m. Speed=58.967999m/h.</desc>
<speed>16.380000</speed>
</trkpt>
<trkpt lat="42.771511" lon="18.839340">
<ele>721.023926</ele>
<time>2012-05-02T06:15:52Z</time>
<desc>lat.=42.771511, lon.=18.839340, Alt.=721.023926m. Speed=61.344002m/h.</desc>
<speed>17.040000</speed>
</trkpt>
<trkpt lat="42.771412" lon="18.838318">
<ele>725.914551</ele>
<time>2012-05-02T06:15:57Z</time>
<desc>lat.=42.771412, lon.=18.838318, Alt.=725.914551m. Speed=57.708000m/h.</desc>
<speed>16.030000</speed>
</trkpt>
<trkpt lat="42.771248" lon="18.837414">
<ele>731.477051</ele>
<time>2012-05-02T06:16:02Z</time>
<desc>lat.=42.771248, lon.=18.837414, Alt.=731.477051m. Speed=53.388000m/h.</desc>
<speed>14.830000</speed>
</trkpt>
<trkpt lat="42.770943" lon="18.836674">
<ele>736.414551</ele>
<time>2012-05-02T06:16:07Z</time>
<desc>lat.=42.770943, lon.=18.836674, Alt.=736.414551m. Speed=51.155998m/h.</desc>
<speed>14.210000</speed>
</trkpt>
<trkpt lat="42.770454" lon="18.836067">
<ele>741.195801</ele>
<time>2012-05-02T06:16:12Z</time>
<desc>lat.=42.770454, lon.=18.836067, Alt.=741.195801m. Speed=55.080002m/h.</desc>
<speed>15.300001</speed>
</trkpt>
<trkpt lat="42.769897" lon="18.835499">
<ele>744.820801</ele>
<time>2012-05-02T06:16:17Z</time>
<desc>lat.=42.769897, lon.=18.835499, Alt.=744.820801m. Speed=54.287998m/h.</desc>
<speed>15.079999</speed>
</trkpt>
<trkpt lat="42.769569" lon="18.834715">
<ele>749.008301</ele>
<time>2012-05-02T06:16:22Z</time>
<desc>lat.=42.769569, lon.=18.834715, Alt.=749.008301m. Speed=56.051998m/h.</desc>
<speed>15.569999</speed>
</trkpt>
<trkpt lat="42.769726" lon="18.833803">
<ele>753.992676</ele>
<time>2012-05-02T06:16:27Z</time>
<desc>lat.=42.769726, lon.=18.833803, Alt.=753.992676m. Speed=57.023998m/h.</desc>
<speed>15.840000</speed>
</trkpt>
<trkpt lat="42.770142" lon="18.833008">
<ele>758.867676</ele>
<time>2012-05-02T06:16:32Z</time>
<desc>lat.=42.770142, lon.=18.833008, Alt.=758.867676m. Speed=54.647999m/h.</desc>
<speed>15.180000</speed>
</trkpt>
<trkpt lat="42.770306" lon="18.832150">
<ele>763.836426</ele>
<time>2012-05-02T06:16:37Z</time>
<desc>lat.=42.770306, lon.=18.832150, Alt.=763.836426m. Speed=54.108002m/h.</desc>
<speed>15.030000</speed>
</trkpt>
<trkpt lat="42.770035" lon="18.831261">
<ele>768.742676</ele>
<time>2012-05-02T06:16:42Z</time>
<desc>lat.=42.770035, lon.=18.831261, Alt.=768.742676m. Speed=60.444000m/h.</desc>
<speed>16.790000</speed>
</trkpt>
<trkpt lat="42.769432" lon="18.830610">
<ele>774.164551</ele>
<time>2012-05-02T06:16:47Z</time>
<desc>lat.=42.769432, lon.=18.830610, Alt.=774.164551m. Speed=59.327999m/h.</desc>
<speed>16.480000</speed>
</trkpt>
<trkpt lat="42.768795" lon="18.830103">
<ele>778.461426</ele>
<time>2012-05-02T06:16:52Z</time>
<desc>lat.=42.768795, lon.=18.830103, Alt.=778.461426m. Speed=57.312000m/h.</desc>
<speed>15.920000</speed>
</trkpt>
<trkpt lat="42.768078" lon="18.829786">
<ele>781.898926</ele>
<time>2012-05-02T06:16:57Z</time>
<desc>lat.=42.768078, lon.=18.829786, Alt.=781.898926m. Speed=65.015999m/h.</desc>
<speed>18.060000</speed>
</trkpt>
<trkpt lat="42.767284" lon="18.829536">
<ele>784.883301</ele>
<time>2012-05-02T06:17:02Z</time>
<desc>lat.=42.767284, lon.=18.829536, Alt.=784.883301m. Speed=63.756001m/h.</desc>
<speed>17.710000</speed>
</trkpt>
<trkpt lat="42.766556" lon="18.829300">
<ele>787.664551</ele>
<time>2012-05-02T06:17:07Z</time>
<desc>lat.=42.766556, lon.=18.829300, Alt.=787.664551m. Speed=55.188000m/h.</desc>
<speed>15.330000</speed>
</trkpt>
<trkpt lat="42.765919" lon="18.828846">
<ele>790.836426</ele>
<time>2012-05-02T06:17:12Z</time>
<desc>lat.=42.765919, lon.=18.828846, Alt.=790.836426m. Speed=60.480000m/h.</desc>
<speed>16.800000</speed>
</trkpt>
<trkpt lat="42.765205" lon="18.828531">
<ele>793.961426</ele>
<time>2012-05-02T06:17:17Z</time>
<desc>lat.=42.765205, lon.=18.828531, Alt.=793.961426m. Speed=61.992001m/h.</desc>
<speed>17.220000</speed>
</trkpt>
<trkpt lat="42.764439" lon="18.828188">
<ele>797.195801</ele>
<time>2012-05-02T06:17:22Z</time>
<desc>lat.=42.764439, lon.=18.828188, Alt.=797.195801m. Speed=66.528000m/h.</desc>
<speed>18.480000</speed>
</trkpt>
<trkpt lat="42.763817" lon="18.827555">
<ele>801.383301</ele>
<time>2012-05-02T06:17:27Z</time>
<desc>lat.=42.763817, lon.=18.827555, Alt.=801.383301m. Speed=59.796001m/h.</desc>
<speed>16.610000</speed>
</trkpt>
<trkpt lat="42.763367" lon="18.826775">
<ele>806.023926</ele>
<time>2012-05-02T06:17:32Z</time>
<desc>lat.=42.763367, lon.=18.826775, Alt.=806.023926m. Speed=55.655998m/h.</desc>
<speed>15.460000</speed>
</trkpt>
<trkpt lat="42.762783" lon="18.826319">
<ele>810.695801</ele>
<time>2012-05-02T06:17:37Z</time>
<desc>lat.=42.762783, lon.=18.826319, Alt.=810.695801m. Speed=54.504002m/h.</desc>
<speed>15.140000</speed>
</trkpt>
<trkpt lat="42.762241" lon="18.825880">
<ele>814.820801</ele>
<time>2012-05-02T06:17:42Z</time>
<desc>lat.=42.762241, lon.=18.825880, Alt.=814.820801m. Speed=50.004002m/h.</desc>
<speed>13.890000</speed>
</trkpt>
<trkpt lat="42.761749" lon="18.825274">
<ele>816.883301</ele>
<time>2012-05-02T06:17:47Z</time>
<desc>lat.=42.761749, lon.=18.825274, Alt.=816.883301m. Speed=58.608002m/h.</desc>
<speed>16.280000</speed>
</trkpt>
<trkpt lat="42.761127" lon="18.824770">
<ele>819.680176</ele>
<time>2012-05-02T06:17:52Z</time>
<desc>lat.=42.761127, lon.=18.824770, Alt.=819.680176m. Speed=55.007999m/h.</desc>
<speed>15.280000</speed>
</trkpt>
<trkpt lat="42.760651" lon="18.824053">
<ele>823.883301</ele>
<time>2012-05-02T06:17:57Z</time>
<desc>lat.=42.760651, lon.=18.824053, Alt.=823.883301m. Speed=55.728001m/h.</desc>
<speed>15.480000</speed>
</trkpt>
<trkpt lat="42.760063" lon="18.823603">
<ele>828.977051</ele>
<time>2012-05-02T06:18:02Z</time>
<desc>lat.=42.760063, lon.=18.823603, Alt.=828.977051m. Speed=54.324001m/h.</desc>
<speed>15.090000</speed>
</trkpt>
<trkpt lat="42.759499" lon="18.823088">
<ele>834.211426</ele>
<time>2012-05-02T06:18:07Z</time>
<desc>lat.=42.759499, lon.=18.823088, Alt.=834.211426m. Speed=57.167999m/h.</desc>
<speed>15.880000</speed>
</trkpt>
<trkpt lat="42.758911" lon="18.822424">
<ele>837.820801</ele>
<time>2012-05-02T06:18:12Z</time>
<desc>lat.=42.758911, lon.=18.822424, Alt.=837.820801m. Speed=65.879997m/h.</desc>
<speed>18.299999</speed>
</trkpt>
<trkpt lat="42.758141" lon="18.821844">
<ele>841.383301</ele>
<time>2012-05-02T06:18:17Z</time>
<desc>lat.=42.758141, lon.=18.821844, Alt.=841.383301m. Speed=71.603996m/h.</desc>
<speed>19.889999</speed>
</trkpt>
<trkpt lat="42.757370" lon="18.821390">
<ele>846.539551</ele>
<time>2012-05-02T06:18:22Z</time>
<desc>lat.=42.757370, lon.=18.821390, Alt.=846.539551m. Speed=64.584000m/h.</desc>
<speed>17.940000</speed>
</trkpt>
<trkpt lat="42.756599" lon="18.821030">
<ele>849.977051</ele>
<time>2012-05-02T06:18:27Z</time>
<desc>lat.=42.756599, lon.=18.821030, Alt.=849.977051m. Speed=64.260002m/h.</desc>
<speed>17.850001</speed>
</trkpt>
<trkpt lat="42.755898" lon="18.820566">
<ele>852.055176</ele>
<time>2012-05-02T06:18:32Z</time>
<desc>lat.=42.755898, lon.=18.820566, Alt.=852.055176m. Speed=59.976002m/h.</desc>
<speed>16.660000</speed>
</trkpt>
<trkpt lat="42.755383" lon="18.819849">
<ele>854.242676</ele>
<time>2012-05-02T06:18:37Z</time>
<desc>lat.=42.755383, lon.=18.819849, Alt.=854.242676m. Speed=57.167999m/h.</desc>
<speed>15.880000</speed>
</trkpt>
<trkpt lat="42.754967" lon="18.819147">
<ele>857.148926</ele>
<time>2012-05-02T06:18:42Z</time>
<desc>lat.=42.754967, lon.=18.819147, Alt.=857.148926m. Speed=48.492001m/h.</desc>
<speed>13.470000</speed>
</trkpt>
<trkpt lat="42.754723" lon="18.818371">
<ele>857.742676</ele>
<time>2012-05-02T06:18:47Z</time>
<desc>lat.=42.754723, lon.=18.818371, Alt.=857.742676m. Speed=54.756001m/h.</desc>
<speed>15.210000</speed>
</trkpt>
<trkpt lat="42.754616" lon="18.817432">
<ele>857.977051</ele>
<time>2012-05-02T06:18:52Z</time>
<desc>lat.=42.754616, lon.=18.817432, Alt.=857.977051m. Speed=56.340000m/h.</desc>
<speed>15.650000</speed>
</trkpt>
<trkpt lat="42.754242" lon="18.816608">
<ele>858.883301</ele>
<time>2012-05-02T06:18:57Z</time>
<desc>lat.=42.754242, lon.=18.816608, Alt.=858.883301m. Speed=55.728001m/h.</desc>
<speed>15.480000</speed>
</trkpt>
<trkpt lat="42.753948" lon="18.815756">
<ele>858.164551</ele>
<time>2012-05-02T06:19:02Z</time>
<desc>lat.=42.753948, lon.=18.815756, Alt.=858.164551m. Speed=55.584000m/h.</desc>
<speed>15.440000</speed>
</trkpt>
<trkpt lat="42.753628" lon="18.815016">
<ele>857.477051</ele>
<time>2012-05-02T06:19:07Z</time>
<desc>lat.=42.753628, lon.=18.815016, Alt.=857.477051m. Speed=49.248001m/h.</desc>
<speed>13.680000</speed>
</trkpt>
<trkpt lat="42.753090" lon="18.814577">
<ele>856.977051</ele>
<time>2012-05-02T06:19:12Z</time>
<desc>lat.=42.753090, lon.=18.814577, Alt.=856.977051m. Speed=49.787998m/h.</desc>
<speed>13.829999</speed>
</trkpt>
<trkpt lat="42.752594" lon="18.814133">
<ele>856.758301</ele>
<time>2012-05-02T06:19:17Z</time>
<desc>lat.=42.752594, lon.=18.814133, Alt.=856.758301m. Speed=45.180000m/h.</desc>
<speed>12.550000</speed>
</trkpt>
<trkpt lat="42.752403" lon="18.813404">
<ele>856.523926</ele>
<time>2012-05-02T06:19:22Z</time>
<desc>lat.=42.752403, lon.=18.813404, Alt.=856.523926m. Speed=54.251999m/h.</desc>
<speed>15.070000</speed>
</trkpt>
<trkpt lat="42.752354" lon="18.812346">
<ele>856.445801</ele>
<time>2012-05-02T06:19:27Z</time>
<desc>lat.=42.752354, lon.=18.812346, Alt.=856.445801m. Speed=66.311996m/h.</desc>
<speed>18.419999</speed>
</trkpt>
<trkpt lat="42.752323" lon="18.811247">
<ele>857.789551</ele>
<time>2012-05-02T06:19:32Z</time>
<desc>lat.=42.752323, lon.=18.811247, Alt.=857.789551m. Speed=61.812000m/h.</desc>
<speed>17.170000</speed>
</trkpt>
<trkpt lat="42.752567" lon="18.810291">
<ele>858.367676</ele>
<time>2012-05-02T06:19:37Z</time>
<desc>lat.=42.752567, lon.=18.810291, Alt.=858.367676m. Speed=58.931999m/h.</desc>
<speed>16.370000</speed>
</trkpt>
<trkpt lat="42.752987" lon="18.809454">
<ele>858.273926</ele>
<time>2012-05-02T06:19:42Z</time>
<desc>lat.=42.752987, lon.=18.809454, Alt.=858.273926m. Speed=58.680000m/h.</desc>
<speed>16.300000</speed>
</trkpt>
<trkpt lat="42.753159" lon="18.808510">
<ele>857.883301</ele>
<time>2012-05-02T06:19:47Z</time>
<desc>lat.=42.753159, lon.=18.808510, Alt.=857.883301m. Speed=54.431999m/h.</desc>
<speed>15.120000</speed>
</trkpt>
<trkpt lat="42.753170" lon="18.807531">
<ele>858.211426</ele>
<time>2012-05-02T06:19:52Z</time>
<desc>lat.=42.753170, lon.=18.807531, Alt.=858.211426m. Speed=60.299999m/h.</desc>
<speed>16.750000</speed>
</trkpt>
<trkpt lat="42.753334" lon="18.806540">
<ele>860.195801</ele>
<time>2012-05-02T06:19:57Z</time>
<desc>lat.=42.753334, lon.=18.806540, Alt.=860.195801m. Speed=55.692001m/h.</desc>
<speed>15.470000</speed>
</trkpt>
<trkpt lat="42.753384" lon="18.805674">
<ele>859.945801</ele>
<time>2012-05-02T06:20:02Z</time>
<desc>lat.=42.753384, lon.=18.805674, Alt.=859.945801m. Speed=46.872002m/h.</desc>
<speed>13.020000</speed>
</trkpt>
<trkpt lat="42.753067" lon="18.805155">
<ele>860.836426</ele>
<time>2012-05-02T06:20:07Z</time>
<desc>lat.=42.753067, lon.=18.805155, Alt.=860.836426m. Speed=42.444000m/h.</desc>
<speed>11.790000</speed>
</trkpt>
<trkpt lat="42.752586" lon="18.804630">
<ele>862.477051</ele>
<time>2012-05-02T06:20:12Z</time>
<desc>lat.=42.752586, lon.=18.804630, Alt.=862.477051m. Speed=55.908001m/h.</desc>
<speed>15.530000</speed>
</trkpt>
<trkpt lat="42.752136" lon="18.803879">
<ele>866.102051</ele>
<time>2012-05-02T06:20:17Z</time>
<desc>lat.=42.752136, lon.=18.803879, Alt.=866.102051m. Speed=56.484001m/h.</desc>
<speed>15.690000</speed>
</trkpt>
<trkpt lat="42.751545" lon="18.803322">
<ele>869.586426</ele>
<time>2012-05-02T06:20:22Z</time>
<desc>lat.=42.751545, lon.=18.803322, Alt.=869.586426m. Speed=58.500000m/h.</desc>
<speed>16.250000</speed>
</trkpt>
<trkpt lat="42.751129" lon="18.802505">
<ele>872.023926</ele>
<time>2012-05-02T06:20:27Z</time>
<desc>lat.=42.751129, lon.=18.802505, Alt.=872.023926m. Speed=57.528000m/h.</desc>
<speed>15.980000</speed>
</trkpt>
<trkpt lat="42.751038" lon="18.801550">
<ele>869.945801</ele>
<time>2012-05-02T06:20:32Z</time>
<desc>lat.=42.751038, lon.=18.801550, Alt.=869.945801m. Speed=61.523998m/h.</desc>
<speed>17.090000</speed>
</trkpt>
<trkpt lat="42.751297" lon="18.800489">
<ele>866.680176</ele>
<time>2012-05-02T06:20:37Z</time>
<desc>lat.=42.751297, lon.=18.800489, Alt.=866.680176m. Speed=65.519997m/h.</desc>
<speed>18.199999</speed>
</trkpt>
<trkpt lat="42.751465" lon="18.799475">
<ele>864.727051</ele>
<time>2012-05-02T06:20:42Z</time>
<desc>lat.=42.751465, lon.=18.799475, Alt.=864.727051m. Speed=59.292000m/h.</desc>
<speed>16.470000</speed>
</trkpt>
<trkpt lat="42.751465" lon="18.798523">
<ele>864.023926</ele>
<time>2012-05-02T06:20:47Z</time>
<desc>lat.=42.751465, lon.=18.798523, Alt.=864.023926m. Speed=57.888000m/h.</desc>
<speed>16.080000</speed>
</trkpt>
<trkpt lat="42.751682" lon="18.797533">
<ele>863.414551</ele>
<time>2012-05-02T06:20:52Z</time>
<desc>lat.=42.751682, lon.=18.797533, Alt.=863.414551m. Speed=62.243999m/h.</desc>
<speed>17.290000</speed>
</trkpt>
<trkpt lat="42.751869" lon="18.796516">
<ele>864.023926</ele>
<time>2012-05-02T06:20:57Z</time>
<desc>lat.=42.751869, lon.=18.796516, Alt.=864.023926m. Speed=61.236000m/h.</desc>
<speed>17.010000</speed>
</trkpt>
<trkpt lat="42.751938" lon="18.795479">
<ele>863.258301</ele>
<time>2012-05-02T06:21:02Z</time>
<desc>lat.=42.751938, lon.=18.795479, Alt.=863.258301m. Speed=63.035999m/h.</desc>
<speed>17.510000</speed>
</trkpt>
<trkpt lat="42.751877" lon="18.794361">
<ele>862.336426</ele>
<time>2012-05-02T06:21:07Z</time>
<desc>lat.=42.751877, lon.=18.794361, Alt.=862.336426m. Speed=69.804001m/h.</desc>
<speed>19.390000</speed>
</trkpt>
<trkpt lat="42.751751" lon="18.793158">
<ele>861.820801</ele>
<time>2012-05-02T06:21:12Z</time>
<desc>lat.=42.751751, lon.=18.793158, Alt.=861.820801m. Speed=72.288002m/h.</desc>
<speed>20.080001</speed>
</trkpt>
<trkpt lat="42.751801" lon="18.791925">
<ele>861.273926</ele>
<time>2012-05-02T06:21:17Z</time>
<desc>lat.=42.751801, lon.=18.791925, Alt.=861.273926m. Speed=71.856003m/h.</desc>
<speed>19.960001</speed>
</trkpt>
<trkpt lat="42.751846" lon="18.790726">
<ele>858.789551</ele>
<time>2012-05-02T06:21:22Z</time>
<desc>lat.=42.751846, lon.=18.790726, Alt.=858.789551m. Speed=73.295998m/h.</desc>
<speed>20.359999</speed>
</trkpt>
<trkpt lat="42.751556" lon="18.789436">
<ele>854.773926</ele>
<time>2012-05-02T06:21:27Z</time>
<desc>lat.=42.751556, lon.=18.789436, Alt.=854.773926m. Speed=81.108002m/h.</desc>
<speed>22.530000</speed>
</trkpt>
<trkpt lat="42.751213" lon="18.788160">
<ele>852.430176</ele>
<time>2012-05-02T06:21:32Z</time>
<desc>lat.=42.751213, lon.=18.788160, Alt.=852.430176m. Speed=77.795998m/h.</desc>
<speed>21.609999</speed>
</trkpt>
<trkpt lat="42.750862" lon="18.786976">
<ele>850.477051</ele>
<time>2012-05-02T06:21:37Z</time>
<desc>lat.=42.750862, lon.=18.786976, Alt.=850.477051m. Speed=73.835999m/h.</desc>
<speed>20.510000</speed>
</trkpt>
<trkpt lat="42.750225" lon="18.786098">
<ele>848.070801</ele>
<time>2012-05-02T06:21:42Z</time>
<desc>lat.=42.750225, lon.=18.786098, Alt.=848.070801m. Speed=72.828003m/h.</desc>
<speed>20.230001</speed>
</trkpt>
<trkpt lat="42.749363" lon="18.785593">
<ele>845.602051</ele>
<time>2012-05-02T06:21:47Z</time>
<desc>lat.=42.749363, lon.=18.785593, Alt.=845.602051m. Speed=75.744003m/h.</desc>
<speed>21.040001</speed>
</trkpt>
<trkpt lat="42.748558" lon="18.785151">
<ele>843.961426</ele>
<time>2012-05-02T06:21:52Z</time>
<desc>lat.=42.748558, lon.=18.785151, Alt.=843.961426m. Speed=64.835999m/h.</desc>
<speed>18.010000</speed>
</trkpt>
<trkpt lat="42.748104" lon="18.784258">
<ele>843.617676</ele>
<time>2012-05-02T06:21:57Z</time>
<desc>lat.=42.748104, lon.=18.784258, Alt.=843.617676m. Speed=67.536003m/h.</desc>
<speed>18.760001</speed>
</trkpt>
<trkpt lat="42.747658" lon="18.783247">
<ele>842.961426</ele>
<time>2012-05-02T06:22:02Z</time>
<desc>lat.=42.747658, lon.=18.783247, Alt.=842.961426m. Speed=72.323997m/h.</desc>
<speed>20.089999</speed>
</trkpt>
<trkpt lat="42.747139" lon="18.782286">
<ele>842.680176</ele>
<time>2012-05-02T06:22:07Z</time>
<desc>lat.=42.747139, lon.=18.782286, Alt.=842.680176m. Speed=70.056000m/h.</desc>
<speed>19.460000</speed>
</trkpt>
<trkpt lat="42.746590" lon="18.781399">
<ele>841.773926</ele>
<time>2012-05-02T06:22:12Z</time>
<desc>lat.=42.746590, lon.=18.781399, Alt.=841.773926m. Speed=66.456001m/h.</desc>
<speed>18.460000</speed>
</trkpt>
<trkpt lat="42.745941" lon="18.780777">
<ele>839.992676</ele>
<time>2012-05-02T06:22:17Z</time>
<desc>lat.=42.745941, lon.=18.780777, Alt.=839.992676m. Speed=61.416000m/h.</desc>
<speed>17.060000</speed>
</trkpt>
<trkpt lat="42.745274" lon="18.780359">
<ele>839.414551</ele>
<time>2012-05-02T06:22:22Z</time>
<desc>lat.=42.745274, lon.=18.780359, Alt.=839.414551m. Speed=55.548000m/h.</desc>
<speed>15.430000</speed>
</trkpt>
<trkpt lat="42.744751" lon="18.779800">
<ele>839.039551</ele>
<time>2012-05-02T06:22:27Z</time>
<desc>lat.=42.744751, lon.=18.779800, Alt.=839.039551m. Speed=52.848000m/h.</desc>
<speed>14.680000</speed>
</trkpt>
<trkpt lat="42.744373" lon="18.779022">
<ele>838.305176</ele>
<time>2012-05-02T06:22:32Z</time>
<desc>lat.=42.744373, lon.=18.779022, Alt.=838.305176m. Speed=55.476002m/h.</desc>
<speed>15.410000</speed>
</trkpt>
<trkpt lat="42.743874" lon="18.778353">
<ele>837.211426</ele>
<time>2012-05-02T06:22:37Z</time>
<desc>lat.=42.743874, lon.=18.778353, Alt.=837.211426m. Speed=58.787998m/h.</desc>
<speed>16.329999</speed>
</trkpt>
<trkpt lat="42.743229" lon="18.777748">
<ele>834.914551</ele>
<time>2012-05-02T06:22:42Z</time>
<desc>lat.=42.743229, lon.=18.777748, Alt.=834.914551m. Speed=68.363998m/h.</desc>
<speed>18.990000</speed>
</trkpt>
<trkpt lat="42.742691" lon="18.776846">
<ele>830.711426</ele>
<time>2012-05-02T06:22:47Z</time>
<desc>lat.=42.742691, lon.=18.776846, Alt.=830.711426m. Speed=69.732002m/h.</desc>
<speed>19.370001</speed>
</trkpt>
<trkpt lat="42.742439" lon="18.775675">
<ele>826.289551</ele>
<time>2012-05-02T06:22:52Z</time>
<desc>lat.=42.742439, lon.=18.775675, Alt.=826.289551m. Speed=71.676003m/h.</desc>
<speed>19.910001</speed>
</trkpt>
<trkpt lat="42.742168" lon="18.774509">
<ele>821.586426</ele>
<time>2012-05-02T06:22:57Z</time>
<desc>lat.=42.742168, lon.=18.774509, Alt.=821.586426m. Speed=72.503998m/h.</desc>
<speed>20.139999</speed>
</trkpt>
<trkpt lat="42.741810" lon="18.773397">
<ele>817.133301</ele>
<time>2012-05-02T06:23:02Z</time>
<desc>lat.=42.741810, lon.=18.773397, Alt.=817.133301m. Speed=70.379997m/h.</desc>
<speed>19.549999</speed>
</trkpt>
<trkpt lat="42.741661" lon="18.772263">
<ele>813.148926</ele>
<time>2012-05-02T06:23:07Z</time>
<desc>lat.=42.741661, lon.=18.772263, Alt.=813.148926m. Speed=65.375999m/h.</desc>
<speed>18.160000</speed>
</trkpt>
<trkpt lat="42.741619" lon="18.771166">
<ele>809.164551</ele>
<time>2012-05-02T06:23:12Z</time>
<desc>lat.=42.741619, lon.=18.771166, Alt.=809.164551m. Speed=66.276001m/h.</desc>
<speed>18.410000</speed>
</trkpt>
<trkpt lat="42.741405" lon="18.770071">
<ele>804.805176</ele>
<time>2012-05-02T06:23:17Z</time>
<desc>lat.=42.741405, lon.=18.770071, Alt.=804.805176m. Speed=67.031998m/h.</desc>
<speed>18.619999</speed>
</trkpt>
<trkpt lat="42.741016" lon="18.769041">
<ele>800.148926</ele>
<time>2012-05-02T06:23:22Z</time>
<desc>lat.=42.741016, lon.=18.769041, Alt.=800.148926m. Speed=68.220001m/h.</desc>
<speed>18.950000</speed>
</trkpt>
<trkpt lat="42.740440" lon="18.768181">
<ele>797.742676</ele>
<time>2012-05-02T06:23:27Z</time>
<desc>lat.=42.740440, lon.=18.768181, Alt.=797.742676m. Speed=68.075996m/h.</desc>
<speed>18.909999</speed>
</trkpt>
<trkpt lat="42.739788" lon="18.767441">
<ele>797.023926</ele>
<time>2012-05-02T06:23:32Z</time>
<desc>lat.=42.739788, lon.=18.767441, Alt.=797.023926m. Speed=66.744003m/h.</desc>
<speed>18.540001</speed>
</trkpt>
<trkpt lat="42.739265" lon="18.766594">
<ele>797.258301</ele>
<time>2012-05-02T06:23:37Z</time>
<desc>lat.=42.739265, lon.=18.766594, Alt.=797.258301m. Speed=64.692001m/h.</desc>
<speed>17.970000</speed>
</trkpt>
<trkpt lat="42.738960" lon="18.765524">
<ele>797.867676</ele>
<time>2012-05-02T06:23:42Z</time>
<desc>lat.=42.738960, lon.=18.765524, Alt.=797.867676m. Speed=71.928001m/h.</desc>
<speed>19.980000</speed>
</trkpt>
<trkpt lat="42.738831" lon="18.764217">
<ele>798.430176</ele>
<time>2012-05-02T06:23:47Z</time>
<desc>lat.=42.738831, lon.=18.764217, Alt.=798.430176m. Speed=83.124001m/h.</desc>
<speed>23.090000</speed>
</trkpt>
<trkpt lat="42.738522" lon="18.762802">
<ele>800.664551</ele>
<time>2012-05-02T06:23:52Z</time>
<desc>lat.=42.738522, lon.=18.762802, Alt.=800.664551m. Speed=86.292000m/h.</desc>
<speed>23.970000</speed>
</trkpt>
<trkpt lat="42.738178" lon="18.761463">
<ele>802.352051</ele>
<time>2012-05-02T06:23:57Z</time>
<desc>lat.=42.738178, lon.=18.761463, Alt.=802.352051m. Speed=75.599998m/h.</desc>
<speed>21.000000</speed>
</trkpt>
<trkpt lat="42.738106" lon="18.760242">
<ele>803.102051</ele>
<time>2012-05-02T06:24:02Z</time>
<desc>lat.=42.738106, lon.=18.760242, Alt.=803.102051m. Speed=74.916000m/h.</desc>
<speed>20.810000</speed>
</trkpt>
<trkpt lat="42.738312" lon="18.759018">
<ele>802.461426</ele>
<time>2012-05-02T06:24:07Z</time>
<desc>lat.=42.738312, lon.=18.759018, Alt.=802.461426m. Speed=72.648003m/h.</desc>
<speed>20.180001</speed>
</trkpt>
<trkpt lat="42.738819" lon="18.757967">
<ele>803.227051</ele>
<time>2012-05-02T06:24:12Z</time>
<desc>lat.=42.738819, lon.=18.757967, Alt.=803.227051m. Speed=74.304001m/h.</desc>
<speed>20.640000</speed>
</trkpt>
<trkpt lat="42.739143" lon="18.756918">
<ele>804.133301</ele>
<time>2012-05-02T06:24:17Z</time>
<desc>lat.=42.739143, lon.=18.756918, Alt.=804.133301m. Speed=65.699997m/h.</desc>
<speed>18.249999</speed>
</trkpt>
<trkpt lat="42.739109" lon="18.755817">
<ele>805.383301</ele>
<time>2012-05-02T06:24:22Z</time>
<desc>lat.=42.739109, lon.=18.755817, Alt.=805.383301m. Speed=62.063999m/h.</desc>
<speed>17.240000</speed>
</trkpt>
<trkpt lat="42.739208" lon="18.754778">
<ele>806.977051</ele>
<time>2012-05-02T06:24:27Z</time>
<desc>lat.=42.739208, lon.=18.754778, Alt.=806.977051m. Speed=62.028000m/h.</desc>
<speed>17.230000</speed>
</trkpt>
<trkpt lat="42.739567" lon="18.753809">
<ele>806.617676</ele>
<time>2012-05-02T06:24:32Z</time>
<desc>lat.=42.739567, lon.=18.753809, Alt.=806.617676m. Speed=67.283997m/h.</desc>
<speed>18.689999</speed>
</trkpt>
<trkpt lat="42.740192" lon="18.752960">
<ele>806.148926</ele>
<time>2012-05-02T06:24:37Z</time>
<desc>lat.=42.740192, lon.=18.752960, Alt.=806.148926m. Speed=72.360001m/h.</desc>
<speed>20.100000</speed>
</trkpt>
<trkpt lat="42.740730" lon="18.752190">
<ele>806.383301</ele>
<time>2012-05-02T06:24:42Z</time>
<desc>lat.=42.740730, lon.=18.752190, Alt.=806.383301m. Speed=50.903999m/h.</desc>
<speed>14.140000</speed>
</trkpt>
<trkpt lat="42.740982" lon="18.751637">
<ele>807.211426</ele>
<time>2012-05-02T06:24:47Z</time>
<desc>lat.=42.740982, lon.=18.751637, Alt.=807.211426m. Speed=36.936001m/h.</desc>
<speed>10.260000</speed>
</trkpt>
<trkpt lat="42.741367" lon="18.751080">
<ele>808.555176</ele>
<time>2012-05-02T06:24:52Z</time>
<desc>lat.=42.741367, lon.=18.751080, Alt.=808.555176m. Speed=55.764000m/h.</desc>
<speed>15.490000</speed>
</trkpt>
<trkpt lat="42.742023" lon="18.750563">
<ele>809.055176</ele>
<time>2012-05-02T06:24:57Z</time>
<desc>lat.=42.742023, lon.=18.750563, Alt.=809.055176m. Speed=59.832001m/h.</desc>
<speed>16.620000</speed>
</trkpt>
<trkpt lat="42.742676" lon="18.750149">
<ele>809.305176</ele>
<time>2012-05-02T06:25:02Z</time>
<desc>lat.=42.742676, lon.=18.750149, Alt.=809.305176m. Speed=55.655998m/h.</desc>
<speed>15.460000</speed>
</trkpt>
<trkpt lat="42.743275" lon="18.749710">
<ele>809.727051</ele>
<time>2012-05-02T06:25:07Z</time>
<desc>lat.=42.743275, lon.=18.749710, Alt.=809.727051m. Speed=52.883999m/h.</desc>
<speed>14.690000</speed>
</trkpt>
<trkpt lat="42.743706" lon="18.749027">
<ele>809.930176</ele>
<time>2012-05-02T06:25:12Z</time>
<desc>lat.=42.743706, lon.=18.749027, Alt.=809.930176m. Speed=55.116001m/h.</desc>
<speed>15.310000</speed>
</trkpt>
<trkpt lat="42.744007" lon="18.748123">
<ele>810.523926</ele>
<time>2012-05-02T06:25:17Z</time>
<desc>lat.=42.744007, lon.=18.748123, Alt.=810.523926m. Speed=58.680000m/h.</desc>
<speed>16.300000</speed>
</trkpt>
<trkpt lat="42.744286" lon="18.747145">
<ele>809.664551</ele>
<time>2012-05-02T06:25:22Z</time>
<desc>lat.=42.744286, lon.=18.747145, Alt.=809.664551m. Speed=64.980003m/h.</desc>
<speed>18.050001</speed>
</trkpt>
<trkpt lat="42.744778" lon="18.746189">
<ele>809.086426</ele>
<time>2012-05-02T06:25:27Z</time>
<desc>lat.=42.744778, lon.=18.746189, Alt.=809.086426m. Speed=75.384003m/h.</desc>
<speed>20.940001</speed>
</trkpt>
<trkpt lat="42.745544" lon="18.745304">
<ele>809.273926</ele>
<time>2012-05-02T06:25:32Z</time>
<desc>lat.=42.745544, lon.=18.745304, Alt.=809.273926m. Speed=80.639999m/h.</desc>
<speed>22.400000</speed>
</trkpt>
<trkpt lat="42.746231" lon="18.744371">
<ele>808.539551</ele>
<time>2012-05-02T06:25:37Z</time>
<desc>lat.=42.746231, lon.=18.744371, Alt.=808.539551m. Speed=76.356003m/h.</desc>
<speed>21.210001</speed>
</trkpt>
<trkpt lat="42.746647" lon="18.743170">
<ele>808.289551</ele>
<time>2012-05-02T06:25:42Z</time>
<desc>lat.=42.746647, lon.=18.743170, Alt.=808.289551m. Speed=79.524002m/h.</desc>
<speed>22.090001</speed>
</trkpt>
<trkpt lat="42.746712" lon="18.741837">
<ele>807.242676</ele>
<time>2012-05-02T06:25:47Z</time>
<desc>lat.=42.746712, lon.=18.741837, Alt.=807.242676m. Speed=79.524002m/h.</desc>
<speed>22.090001</speed>
</trkpt>
<trkpt lat="42.746536" lon="18.740473">
<ele>803.945801</ele>
<time>2012-05-02T06:25:52Z</time>
<desc>lat.=42.746536, lon.=18.740473, Alt.=803.945801m. Speed=81.540001m/h.</desc>
<speed>22.650000</speed>
</trkpt>
<trkpt lat="42.746426" lon="18.739017">
<ele>800.805176</ele>
<time>2012-05-02T06:25:57Z</time>
<desc>lat.=42.746426, lon.=18.739017, Alt.=800.805176m. Speed=89.136002m/h.</desc>
<speed>24.760000</speed>
</trkpt>
<trkpt lat="42.746433" lon="18.737513">
<ele>798.148926</ele>
<time>2012-05-02T06:26:02Z</time>
<desc>lat.=42.746433, lon.=18.737513, Alt.=798.148926m. Speed=87.875999m/h.</desc>
<speed>24.410000</speed>
</trkpt>
<trkpt lat="42.746315" lon="18.736063">
<ele>797.211426</ele>
<time>2012-05-02T06:26:07Z</time>
<desc>lat.=42.746315, lon.=18.736063, Alt.=797.211426m. Speed=84.311996m/h.</desc>
<speed>23.419999</speed>
</trkpt>
<trkpt lat="42.745926" lon="18.734711">
<ele>796.305176</ele>
<time>2012-05-02T06:26:12Z</time>
<desc>lat.=42.745926, lon.=18.734711, Alt.=796.305176m. Speed=87.587997m/h.</desc>
<speed>24.329999</speed>
</trkpt>
<trkpt lat="42.745411" lon="18.733442">
<ele>795.914551</ele>
<time>2012-05-02T06:26:17Z</time>
<desc>lat.=42.745411, lon.=18.733442, Alt.=795.914551m. Speed=81.143997m/h.</desc>
<speed>22.539999</speed>
</trkpt>
<trkpt lat="42.745113" lon="18.732281">
<ele>796.320801</ele>
<time>2012-05-02T06:26:22Z</time>
<desc>lat.=42.745113, lon.=18.732281, Alt.=796.320801m. Speed=69.120003m/h.</desc>
<speed>19.200001</speed>
</trkpt>
<trkpt lat="42.745358" lon="18.731213">
<ele>797.805176</ele>
<time>2012-05-02T06:26:27Z</time>
<desc>lat.=42.745358, lon.=18.731213, Alt.=797.805176m. Speed=67.716003m/h.</desc>
<speed>18.810001</speed>
</trkpt>
<trkpt lat="42.745842" lon="18.730278">
<ele>800.414551</ele>
<time>2012-05-02T06:26:32Z</time>
<desc>lat.=42.745842, lon.=18.730278, Alt.=800.414551m. Speed=63.720001m/h.</desc>
<speed>17.700000</speed>
</trkpt>
<trkpt lat="42.745975" lon="18.729254">
<ele>802.805176</ele>
<time>2012-05-02T06:26:37Z</time>
<desc>lat.=42.745975, lon.=18.729254, Alt.=802.805176m. Speed=64.152000m/h.</desc>
<speed>17.820000</speed>
</trkpt>
<trkpt lat="42.745728" lon="18.728134">
<ele>804.570801</ele>
<time>2012-05-02T06:26:42Z</time>
<desc>lat.=42.745728, lon.=18.728134, Alt.=804.570801m. Speed=72.683998m/h.</desc>
<speed>20.189999</speed>
</trkpt>
<trkpt lat="42.745461" lon="18.727013">
<ele>805.195801</ele>
<time>2012-05-02T06:26:47Z</time>
<desc>lat.=42.745461, lon.=18.727013, Alt.=805.195801m. Speed=67.356003m/h.</desc>
<speed>18.710001</speed>
</trkpt>
<trkpt lat="42.745480" lon="18.725794">
<ele>807.211426</ele>
<time>2012-05-02T06:26:52Z</time>
<desc>lat.=42.745480, lon.=18.725794, Alt.=807.211426m. Speed=77.003998m/h.</desc>
<speed>21.389999</speed>
</trkpt>
<trkpt lat="42.745701" lon="18.724503">
<ele>809.164551</ele>
<time>2012-05-02T06:26:57Z</time>
<desc>lat.=42.745701, lon.=18.724503, Alt.=809.164551m. Speed=75.671997m/h.</desc>
<speed>21.019999</speed>
</trkpt>
<trkpt lat="42.745598" lon="18.723282">
<ele>810.211426</ele>
<time>2012-05-02T06:27:02Z</time>
<desc>lat.=42.745598, lon.=18.723282, Alt.=810.211426m. Speed=72.216003m/h.</desc>
<speed>20.060001</speed>
</trkpt>
<trkpt lat="42.745113" lon="18.722166">
<ele>810.898926</ele>
<time>2012-05-02T06:27:07Z</time>
<desc>lat.=42.745113, lon.=18.722166, Alt.=810.898926m. Speed=77.328003m/h.</desc>
<speed>21.480001</speed>
</trkpt>
<trkpt lat="42.744625" lon="18.721115">
<ele>811.383301</ele>
<time>2012-05-02T06:27:12Z</time>
<desc>lat.=42.744625, lon.=18.721115, Alt.=811.383301m. Speed=69.587997m/h.</desc>
<speed>19.329999</speed>
</trkpt>
<trkpt lat="42.744469" lon="18.719999">
<ele>811.523926</ele>
<time>2012-05-02T06:27:17Z</time>
<desc>lat.=42.744469, lon.=18.719999, Alt.=811.523926m. Speed=66.419998m/h.</desc>
<speed>18.449999</speed>
</trkpt>
<trkpt lat="42.744549" lon="18.718876">
<ele>812.914551</ele>
<time>2012-05-02T06:27:22Z</time>
<desc>lat.=42.744549, lon.=18.718876, Alt.=812.914551m. Speed=68.112000m/h.</desc>
<speed>18.920000</speed>
</trkpt>
<trkpt lat="42.744560" lon="18.717655">
<ele>813.898926</ele>
<time>2012-05-02T06:27:27Z</time>
<desc>lat.=42.744560, lon.=18.717655, Alt.=813.898926m. Speed=77.040001m/h.</desc>
<speed>21.400000</speed>
</trkpt>
<trkpt lat="42.744457" lon="18.716322">
<ele>814.648926</ele>
<time>2012-05-02T06:27:32Z</time>
<desc>lat.=42.744457, lon.=18.716322, Alt.=814.648926m. Speed=77.832001m/h.</desc>
<speed>21.620000</speed>
</trkpt>
<trkpt lat="42.744625" lon="18.714937">
<ele>815.539551</ele>
<time>2012-05-02T06:27:37Z</time>
<desc>lat.=42.744625, lon.=18.714937, Alt.=815.539551m. Speed=87.192001m/h.</desc>
<speed>24.220000</speed>
</trkpt>
<trkpt lat="42.744877" lon="18.713512">
<ele>816.711426</ele>
<time>2012-05-02T06:27:42Z</time>
<desc>lat.=42.744877, lon.=18.713512, Alt.=816.711426m. Speed=82.692001m/h.</desc>
<speed>22.970000</speed>
</trkpt>
<trkpt lat="42.744949" lon="18.712124">
<ele>815.664551</ele>
<time>2012-05-02T06:27:47Z</time>
<desc>lat.=42.744949, lon.=18.712124, Alt.=815.664551m. Speed=81.900002m/h.</desc>
<speed>22.750000</speed>
</trkpt>
<trkpt lat="42.744827" lon="18.710808">
<ele>815.367676</ele>
<time>2012-05-02T06:27:52Z</time>
<desc>lat.=42.744827, lon.=18.710808, Alt.=815.367676m. Speed=74.412003m/h.</desc>
<speed>20.670001</speed>
</trkpt>
<trkpt lat="42.744766" lon="18.709612">
<ele>815.070801</ele>
<time>2012-05-02T06:27:57Z</time>
<desc>lat.=42.744766, lon.=18.709612, Alt.=815.070801m. Speed=67.211998m/h.</desc>
<speed>18.669999</speed>
</trkpt>
<trkpt lat="42.744854" lon="18.708536">
<ele>815.242676</ele>
<time>2012-05-02T06:28:02Z</time>
<desc>lat.=42.744854, lon.=18.708536, Alt.=815.242676m. Speed=60.551998m/h.</desc>
<speed>16.819999</speed>
</trkpt>
<trkpt lat="42.745064" lon="18.707584">
<ele>814.398926</ele>
<time>2012-05-02T06:28:07Z</time>
<desc>lat.=42.745064, lon.=18.707584, Alt.=814.398926m. Speed=59.400002m/h.</desc>
<speed>16.500000</speed>
</trkpt>
<trkpt lat="42.745327" lon="18.706642">
<ele>814.664551</ele>
<time>2012-05-02T06:28:12Z</time>
<desc>lat.=42.745327, lon.=18.706642, Alt.=814.664551m. Speed=59.220001m/h.</desc>
<speed>16.450000</speed>
</trkpt>
<trkpt lat="42.745583" lon="18.705706">
<ele>815.148926</ele>
<time>2012-05-02T06:28:17Z</time>
<desc>lat.=42.745583, lon.=18.705706, Alt.=815.148926m. Speed=59.004002m/h.</desc>
<speed>16.390000</speed>
</trkpt>
<trkpt lat="42.745842" lon="18.704763">
<ele>815.648926</ele>
<time>2012-05-02T06:28:22Z</time>
<desc>lat.=42.745842, lon.=18.704763, Alt.=815.648926m. Speed=61.812000m/h.</desc>
<speed>17.170000</speed>
</trkpt>
<trkpt lat="42.746113" lon="18.703764">
<ele>816.086426</ele>
<time>2012-05-02T06:28:27Z</time>
<desc>lat.=42.746113, lon.=18.703764, Alt.=816.086426m. Speed=61.992001m/h.</desc>
<speed>17.220000</speed>
</trkpt>
<trkpt lat="42.746372" lon="18.702782">
<ele>816.555176</ele>
<time>2012-05-02T06:28:32Z</time>
<desc>lat.=42.746372, lon.=18.702782, Alt.=816.555176m. Speed=64.620003m/h.</desc>
<speed>17.950001</speed>
</trkpt>
<trkpt lat="42.746632" lon="18.701632">
<ele>817.133301</ele>
<time>2012-05-02T06:28:37Z</time>
<desc>lat.=42.746632, lon.=18.701632, Alt.=817.133301m. Speed=76.391998m/h.</desc>
<speed>21.220000</speed>
</trkpt>
<trkpt lat="42.746761" lon="18.700275">
<ele>817.336426</ele>
<time>2012-05-02T06:28:42Z</time>
<desc>lat.=42.746761, lon.=18.700275, Alt.=817.336426m. Speed=81.720001m/h.</desc>
<speed>22.700000</speed>
</trkpt>
<trkpt lat="42.746883" lon="18.698862">
<ele>817.680176</ele>
<time>2012-05-02T06:28:47Z</time>
<desc>lat.=42.746883, lon.=18.698862, Alt.=817.680176m. Speed=83.556000m/h.</desc>
<speed>23.210000</speed>
</trkpt>
<trkpt lat="42.747173" lon="18.697533">
<ele>816.992676</ele>
<time>2012-05-02T06:28:52Z</time>
<desc>lat.=42.747173, lon.=18.697533, Alt.=816.992676m. Speed=80.136002m/h.</desc>
<speed>22.260000</speed>
</trkpt>
<trkpt lat="42.747684" lon="18.696316">
<ele>815.477051</ele>
<time>2012-05-02T06:28:57Z</time>
<desc>lat.=42.747684, lon.=18.696316, Alt.=815.477051m. Speed=84.708000m/h.</desc>
<speed>23.530000</speed>
</trkpt>
<trkpt lat="42.748314" lon="18.695169">
<ele>813.492676</ele>
<time>2012-05-02T06:29:02Z</time>
<desc>lat.=42.748314, lon.=18.695169, Alt.=813.492676m. Speed=84.779999m/h.</desc>
<speed>23.550000</speed>
</trkpt>
<trkpt lat="42.748875" lon="18.693876">
<ele>809.492676</ele>
<time>2012-05-02T06:29:07Z</time>
<desc>lat.=42.748875, lon.=18.693876, Alt.=809.492676m. Speed=91.584000m/h.</desc>
<speed>25.440000</speed>
</trkpt>
<trkpt lat="42.749226" lon="18.692375">
<ele>807.477051</ele>
<time>2012-05-02T06:29:12Z</time>
<desc>lat.=42.749226, lon.=18.692375, Alt.=807.477051m. Speed=91.872002m/h.</desc>
<speed>25.520000</speed>
</trkpt>
<trkpt lat="42.749542" lon="18.690937">
<ele>807.570801</ele>
<time>2012-05-02T06:29:17Z</time>
<desc>lat.=42.749542, lon.=18.690937, Alt.=807.570801m. Speed=86.183998m/h.</desc>
<speed>23.939999</speed>
</trkpt>
<trkpt lat="42.750061" lon="18.689598">
<ele>810.039551</ele>
<time>2012-05-02T06:29:22Z</time>
<desc>lat.=42.750061, lon.=18.689598, Alt.=810.039551m. Speed=90.143997m/h.</desc>
<speed>25.039999</speed>
</trkpt>
<trkpt lat="42.750771" lon="18.688448">
<ele>811.977051</ele>
<time>2012-05-02T06:29:27Z</time>
<desc>lat.=42.750771, lon.=18.688448, Alt.=811.977051m. Speed=90.036003m/h.</desc>
<speed>25.010001</speed>
</trkpt>
<trkpt lat="42.751572" lon="18.687334">
<ele>813.070801</ele>
<time>2012-05-02T06:29:32Z</time>
<desc>lat.=42.751572, lon.=18.687334, Alt.=813.070801m. Speed=92.015999m/h.</desc>
<speed>25.560000</speed>
</trkpt>
<trkpt lat="42.752262" lon="18.686113">
<ele>814.086426</ele>
<time>2012-05-02T06:29:37Z</time>
<desc>lat.=42.752262, lon.=18.686113, Alt.=814.086426m. Speed=91.367996m/h.</desc>
<speed>25.379999</speed>
</trkpt>
<trkpt lat="42.752796" lon="18.684696">
<ele>814.773926</ele>
<time>2012-05-02T06:29:42Z</time>
<desc>lat.=42.752796, lon.=18.684696, Alt.=814.773926m. Speed=96.695999m/h.</desc>
<speed>26.860000</speed>
</trkpt>
<trkpt lat="42.753128" lon="18.683086">
<ele>815.305176</ele>
<time>2012-05-02T06:29:47Z</time>
<desc>lat.=42.753128, lon.=18.683086, Alt.=815.305176m. Speed=99.648003m/h.</desc>
<speed>27.680001</speed>
</trkpt>
<trkpt lat="42.753231" lon="18.681389">
<ele>814.523926</ele>
<time>2012-05-02T06:29:52Z</time>
<desc>lat.=42.753231, lon.=18.681389, Alt.=814.523926m. Speed=96.767998m/h.</desc>
<speed>26.879999</speed>
</trkpt>
<trkpt lat="42.753300" lon="18.679773">
<ele>813.633301</ele>
<time>2012-05-02T06:29:57Z</time>
<desc>lat.=42.753300, lon.=18.679773, Alt.=813.633301m. Speed=94.751999m/h.</desc>
<speed>26.320000</speed>
</trkpt>
<trkpt lat="42.753574" lon="18.678152">
<ele>812.586426</ele>
<time>2012-05-02T06:30:02Z</time>
<desc>lat.=42.753574, lon.=18.678152, Alt.=812.586426m. Speed=98.603996m/h.</desc>
<speed>27.389999</speed>
</trkpt>
<trkpt lat="42.754097" lon="18.676598">
<ele>813.586426</ele>
<time>2012-05-02T06:30:07Z</time>
<desc>lat.=42.754097, lon.=18.676598, Alt.=813.586426m. Speed=100.655998m/h.</desc>
<speed>27.960000</speed>
</trkpt>
<trkpt lat="42.754559" lon="18.675049">
<ele>817.445801</ele>
<time>2012-05-02T06:30:12Z</time>
<desc>lat.=42.754559, lon.=18.675049, Alt.=817.445801m. Speed=95.832001m/h.</desc>
<speed>26.620000</speed>
</trkpt>
<trkpt lat="42.754692" lon="18.673471">
<ele>824.227051</ele>
<time>2012-05-02T06:30:17Z</time>
<desc>lat.=42.754692, lon.=18.673471, Alt.=824.227051m. Speed=94.356003m/h.</desc>
<speed>26.210001</speed>
</trkpt>
<trkpt lat="42.754559" lon="18.671852">
<ele>830.148926</ele>
<time>2012-05-02T06:30:22Z</time>
<desc>lat.=42.754559, lon.=18.671852, Alt.=830.148926m. Speed=96.120003m/h.</desc>
<speed>26.700001</speed>
</trkpt>
<trkpt lat="42.754444" lon="18.670265">
<ele>835.398926</ele>
<time>2012-05-02T06:30:27Z</time>
<desc>lat.=42.754444, lon.=18.670265, Alt.=835.398926m. Speed=94.068001m/h.</desc>
<speed>26.130000</speed>
</trkpt>
<trkpt lat="42.754574" lon="18.668688">
<ele>840.586426</ele>
<time>2012-05-02T06:30:32Z</time>
<desc>lat.=42.754574, lon.=18.668688, Alt.=840.586426m. Speed=92.339996m/h.</desc>
<speed>25.649999</speed>
</trkpt>
<trkpt lat="42.754677" lon="18.667173">
<ele>844.758301</ele>
<time>2012-05-02T06:30:37Z</time>
<desc>lat.=42.754677, lon.=18.667173, Alt.=844.758301m. Speed=86.363998m/h.</desc>
<speed>23.990000</speed>
</trkpt>
<trkpt lat="42.754364" lon="18.665827">
<ele>846.633301</ele>
<time>2012-05-02T06:30:42Z</time>
<desc>lat.=42.754364, lon.=18.665827, Alt.=846.633301m. Speed=84.528000m/h.</desc>
<speed>23.480000</speed>
</trkpt>
<trkpt lat="42.753704" lon="18.664658">
<ele>846.195801</ele>
<time>2012-05-02T06:30:47Z</time>
<desc>lat.=42.753704, lon.=18.664658, Alt.=846.195801m. Speed=86.688004m/h.</desc>
<speed>24.080001</speed>
</trkpt>
<trkpt lat="42.753201" lon="18.663342">
<ele>845.992676</ele>
<time>2012-05-02T06:30:52Z</time>
<desc>lat.=42.753201, lon.=18.663342, Alt.=845.992676m. Speed=89.891998m/h.</desc>
<speed>24.970000</speed>
</trkpt>
<trkpt lat="42.752892" lon="18.661880">
<ele>847.227051</ele>
<time>2012-05-02T06:30:57Z</time>
<desc>lat.=42.752892, lon.=18.661880, Alt.=847.227051m. Speed=87.407997m/h.</desc>
<speed>24.279999</speed>
</trkpt>
<trkpt lat="42.752365" lon="18.660538">
<ele>848.289551</ele>
<time>2012-05-02T06:31:02Z</time>
<desc>lat.=42.752365, lon.=18.660538, Alt.=848.289551m. Speed=92.087997m/h.</desc>
<speed>25.579999</speed>
</trkpt>
<trkpt lat="42.751766" lon="18.659233">
<ele>849.430176</ele>
<time>2012-05-02T06:31:07Z</time>
<desc>lat.=42.751766, lon.=18.659233, Alt.=849.430176m. Speed=87.587997m/h.</desc>
<speed>24.329999</speed>
</trkpt>
<trkpt lat="42.751320" lon="18.657923">
<ele>850.133301</ele>
<time>2012-05-02T06:31:12Z</time>
<desc>lat.=42.751320, lon.=18.657923, Alt.=850.133301m. Speed=83.987999m/h.</desc>
<speed>23.330000</speed>
</trkpt>
<trkpt lat="42.751049" lon="18.656595">
<ele>852.148926</ele>
<time>2012-05-02T06:31:17Z</time>
<desc>lat.=42.751049, lon.=18.656595, Alt.=852.148926m. Speed=77.760002m/h.</desc>
<speed>21.600001</speed>
</trkpt>
<trkpt lat="42.750942" lon="18.655313">
<ele>855.352051</ele>
<time>2012-05-02T06:31:22Z</time>
<desc>lat.=42.750942, lon.=18.655313, Alt.=855.352051m. Speed=75.491997m/h.</desc>
<speed>20.969999</speed>
</trkpt>
<trkpt lat="42.750992" lon="18.654104">
<ele>857.695801</ele>
<time>2012-05-02T06:31:27Z</time>
<desc>lat.=42.750992, lon.=18.654104, Alt.=857.695801m. Speed=68.003998m/h.</desc>
<speed>18.889999</speed>
</trkpt>
<trkpt lat="42.751102" lon="18.652960">
<ele>858.367676</ele>
<time>2012-05-02T06:31:32Z</time>
<desc>lat.=42.751102, lon.=18.652960, Alt.=858.367676m. Speed=67.751999m/h.</desc>
<speed>18.820000</speed>
</trkpt>
<trkpt lat="42.751217" lon="18.651844">
<ele>857.711426</ele>
<time>2012-05-02T06:31:37Z</time>
<desc>lat.=42.751217, lon.=18.651844, Alt.=857.711426m. Speed=64.655998m/h.</desc>
<speed>17.960000</speed>
</trkpt>
<trkpt lat="42.751221" lon="18.650743">
<ele>856.008301</ele>
<time>2012-05-02T06:31:42Z</time>
<desc>lat.=42.751221, lon.=18.650743, Alt.=856.008301m. Speed=67.608002m/h.</desc>
<speed>18.780000</speed>
</trkpt>
<trkpt lat="42.751091" lon="18.649782">
<ele>852.727051</ele>
<time>2012-05-02T06:31:47Z</time>
<desc>lat.=42.751091, lon.=18.649782, Alt.=852.727051m. Speed=45.287998m/h.</desc>
<speed>12.579999</speed>
</trkpt>
<trkpt lat="42.750980" lon="18.649237">
<ele>850.148926</ele>
<time>2012-05-02T06:31:52Z</time>
<desc>lat.=42.750980, lon.=18.649237, Alt.=850.148926m. Speed=28.224001m/h.</desc>
<speed>7.840000</speed>
</trkpt>
<trkpt lat="42.750835" lon="18.648750">
<ele>847.586426</ele>
<time>2012-05-02T06:31:57Z</time>
<desc>lat.=42.750835, lon.=18.648750, Alt.=847.586426m. Speed=38.736000m/h.</desc>
<speed>10.760000</speed>
</trkpt>
<trkpt lat="42.750530" lon="18.648003">
<ele>844.820801</ele>
<time>2012-05-02T06:32:02Z</time>
<desc>lat.=42.750530, lon.=18.648003, Alt.=844.820801m. Speed=63.071999m/h.</desc>
<speed>17.520000</speed>
</trkpt>
<trkpt lat="42.749977" lon="18.647020">
<ele>842.133301</ele>
<time>2012-05-02T06:32:07Z</time>
<desc>lat.=42.749977, lon.=18.647020, Alt.=842.133301m. Speed=76.211998m/h.</desc>
<speed>21.169999</speed>
</trkpt>
<trkpt lat="42.749214" lon="18.646194">
<ele>839.773926</ele>
<time>2012-05-02T06:32:12Z</time>
<desc>lat.=42.749214, lon.=18.646194, Alt.=839.773926m. Speed=76.283997m/h.</desc>
<speed>21.189999</speed>
</trkpt>
<trkpt lat="42.748425" lon="18.645494">
<ele>838.977051</ele>
<time>2012-05-02T06:32:17Z</time>
<desc>lat.=42.748425, lon.=18.645494, Alt.=838.977051m. Speed=73.944000m/h.</desc>
<speed>20.540000</speed>
</trkpt>
<trkpt lat="42.747627" lon="18.644804">
<ele>838.758301</ele>
<time>2012-05-02T06:32:22Z</time>
<desc>lat.=42.747627, lon.=18.644804, Alt.=838.758301m. Speed=74.772003m/h.</desc>
<speed>20.770001</speed>
</trkpt>
<trkpt lat="42.746853" lon="18.644133">
<ele>839.602051</ele>
<time>2012-05-02T06:32:27Z</time>
<desc>lat.=42.746853, lon.=18.644133, Alt.=839.602051m. Speed=72.828003m/h.</desc>
<speed>20.230001</speed>
</trkpt>
<trkpt lat="42.746090" lon="18.643452">
<ele>839.320801</ele>
<time>2012-05-02T06:32:32Z</time>
<desc>lat.=42.746090, lon.=18.643452, Alt.=839.320801m. Speed=73.043999m/h.</desc>
<speed>20.290000</speed>
</trkpt>
<trkpt lat="42.745392" lon="18.642660">
<ele>837.414551</ele>
<time>2012-05-02T06:32:37Z</time>
<desc>lat.=42.745392, lon.=18.642660, Alt.=837.414551m. Speed=74.772003m/h.</desc>
<speed>20.770001</speed>
</trkpt>
<trkpt lat="42.744801" lon="18.641600">
<ele>833.320801</ele>
<time>2012-05-02T06:32:42Z</time>
<desc>lat.=42.744801, lon.=18.641600, Alt.=833.320801m. Speed=82.727997m/h.</desc>
<speed>22.979999</speed>
</trkpt>
<trkpt lat="42.744362" lon="18.640251">
<ele>830.961426</ele>
<time>2012-05-02T06:32:47Z</time>
<desc>lat.=42.744362, lon.=18.640251, Alt.=830.961426m. Speed=91.764000m/h.</desc>
<speed>25.490000</speed>
</trkpt>
<trkpt lat="42.744133" lon="18.638723">
<ele>832.492676</ele>
<time>2012-05-02T06:32:52Z</time>
<desc>lat.=42.744133, lon.=18.638723, Alt.=832.492676m. Speed=88.919998m/h.</desc>
<speed>24.699999</speed>
</trkpt>
<trkpt lat="42.743881" lon="18.637304">
<ele>835.898926</ele>
<time>2012-05-02T06:32:57Z</time>
<desc>lat.=42.743881, lon.=18.637304, Alt.=835.898926m. Speed=83.232002m/h.</desc>
<speed>23.120001</speed>
</trkpt>
<trkpt lat="42.743393" lon="18.636028">
<ele>839.242676</ele>
<time>2012-05-02T06:33:02Z</time>
<desc>lat.=42.743393, lon.=18.636028, Alt.=839.242676m. Speed=87.804001m/h.</desc>
<speed>24.390000</speed>
</trkpt>
<trkpt lat="42.742619" lon="18.634890">
<ele>842.914551</ele>
<time>2012-05-02T06:33:07Z</time>
<desc>lat.=42.742619, lon.=18.634890, Alt.=842.914551m. Speed=93.779999m/h.</desc>
<speed>26.050000</speed>
</trkpt>
<trkpt lat="42.741745" lon="18.633774">
<ele>846.148926</ele>
<time>2012-05-02T06:33:12Z</time>
<desc>lat.=42.741745, lon.=18.633774, Alt.=846.148926m. Speed=95.975998m/h.</desc>
<speed>26.659999</speed>
</trkpt>
<trkpt lat="42.740898" lon="18.632710">
<ele>848.664551</ele>
<time>2012-05-02T06:33:17Z</time>
<desc>lat.=42.740898, lon.=18.632710, Alt.=848.664551m. Speed=87.552002m/h.</desc>
<speed>24.320001</speed>
</trkpt>
<trkpt lat="42.740128" lon="18.631735">
<ele>849.023926</ele>
<time>2012-05-02T06:33:22Z</time>
<desc>lat.=42.740128, lon.=18.631735, Alt.=849.023926m. Speed=81.648003m/h.</desc>
<speed>22.680001</speed>
</trkpt>
<trkpt lat="42.739513" lon="18.630585">
<ele>847.102051</ele>
<time>2012-05-02T06:33:27Z</time>
<desc>lat.=42.739513, lon.=18.630585, Alt.=847.102051m. Speed=87.660004m/h.</desc>
<speed>24.350001</speed>
</trkpt>
<trkpt lat="42.739204" lon="18.629173">
<ele>844.148926</ele>
<time>2012-05-02T06:33:32Z</time>
<desc>lat.=42.739204, lon.=18.629173, Alt.=844.148926m. Speed=88.956001m/h.</desc>
<speed>24.710000</speed>
</trkpt>
<trkpt lat="42.739189" lon="18.627691">
<ele>843.945801</ele>
<time>2012-05-02T06:33:37Z</time>
<desc>lat.=42.739189, lon.=18.627691, Alt.=843.945801m. Speed=86.867996m/h.</desc>
<speed>24.129999</speed>
</trkpt>
<trkpt lat="42.739498" lon="18.626226">
<ele>844.008301</ele>
<time>2012-05-02T06:33:42Z</time>
<desc>lat.=42.739498, lon.=18.626226, Alt.=844.008301m. Speed=92.087997m/h.</desc>
<speed>25.579999</speed>
</trkpt>
<trkpt lat="42.739944" lon="18.624741">
<ele>846.133301</ele>
<time>2012-05-02T06:33:47Z</time>
<desc>lat.=42.739944, lon.=18.624741, Alt.=846.133301m. Speed=92.519997m/h.</desc>
<speed>25.699999</speed>
</trkpt>
<trkpt lat="42.740330" lon="18.623287">
<ele>850.570801</ele>
<time>2012-05-02T06:33:52Z</time>
<desc>lat.=42.740330, lon.=18.623287, Alt.=850.570801m. Speed=87.407997m/h.</desc>
<speed>24.279999</speed>
</trkpt>
<trkpt lat="42.740498" lon="18.621910">
<ele>856.648926</ele>
<time>2012-05-02T06:33:57Z</time>
<desc>lat.=42.740498, lon.=18.621910, Alt.=856.648926m. Speed=79.019997m/h.</desc>
<speed>21.949999</speed>
</trkpt>
<trkpt lat="42.740368" lon="18.620575">
<ele>862.805176</ele>
<time>2012-05-02T06:34:02Z</time>
<desc>lat.=42.740368, lon.=18.620575, Alt.=862.805176m. Speed=80.459999m/h.</desc>
<speed>22.350000</speed>
</trkpt>
<trkpt lat="42.740009" lon="18.619282">
<ele>868.398926</ele>
<time>2012-05-02T06:34:07Z</time>
<desc>lat.=42.740009, lon.=18.619282, Alt.=868.398926m. Speed=82.440002m/h.</desc>
<speed>22.900001</speed>
</trkpt>
<trkpt lat="42.739632" lon="18.617996">
<ele>873.492676</ele>
<time>2012-05-02T06:34:12Z</time>
<desc>lat.=42.739632, lon.=18.617996, Alt.=873.492676m. Speed=81.288002m/h.</desc>
<speed>22.580001</speed>
</trkpt>
<trkpt lat="42.739445" lon="18.616665">
<ele>876.914551</ele>
<time>2012-05-02T06:34:17Z</time>
<desc>lat.=42.739445, lon.=18.616665, Alt.=876.914551m. Speed=80.136002m/h.</desc>
<speed>22.260000</speed>
</trkpt>
<trkpt lat="42.739529" lon="18.615259">
<ele>879.820801</ele>
<time>2012-05-02T06:34:22Z</time>
<desc>lat.=42.739529, lon.=18.615259, Alt.=879.820801m. Speed=83.736000m/h.</desc>
<speed>23.260000</speed>
</trkpt>
<trkpt lat="42.739708" lon="18.613823">
<ele>881.570801</ele>
<time>2012-05-02T06:34:27Z</time>
<desc>lat.=42.739708, lon.=18.613823, Alt.=881.570801m. Speed=89.316002m/h.</desc>
<speed>24.810001</speed>
</trkpt>
<trkpt lat="42.739681" lon="18.612274">
<ele>882.383301</ele>
<time>2012-05-02T06:34:32Z</time>
<desc>lat.=42.739681, lon.=18.612274, Alt.=882.383301m. Speed=91.835999m/h.</desc>
<speed>25.510000</speed>
</trkpt>
<trkpt lat="42.739323" lon="18.610846">
<ele>883.195801</ele>
<time>2012-05-02T06:34:37Z</time>
<desc>lat.=42.739323, lon.=18.610846, Alt.=883.195801m. Speed=87.732002m/h.</desc>
<speed>24.370001</speed>
</trkpt>
<trkpt lat="42.738659" lon="18.609644">
<ele>884.320801</ele>
<time>2012-05-02T06:34:42Z</time>
<desc>lat.=42.738659, lon.=18.609644, Alt.=884.320801m. Speed=90.828003m/h.</desc>
<speed>25.230001</speed>
</trkpt>
<trkpt lat="42.737919" lon="18.608551">
<ele>886.508301</ele>
<time>2012-05-02T06:34:47Z</time>
<desc>lat.=42.737919, lon.=18.608551, Alt.=886.508301m. Speed=83.160004m/h.</desc>
<speed>23.100001</speed>
</trkpt>
<trkpt lat="42.737457" lon="18.607252">
<ele>889.539551</ele>
<time>2012-05-02T06:34:52Z</time>
<desc>lat.=42.737457, lon.=18.607252, Alt.=889.539551m. Speed=86.688004m/h.</desc>
<speed>24.080001</speed>
</trkpt>
<trkpt lat="42.737053" lon="18.605934">
<ele>892.148926</ele>
<time>2012-05-02T06:34:57Z</time>
<desc>lat.=42.737053, lon.=18.605934, Alt.=892.148926m. Speed=80.928001m/h.</desc>
<speed>22.480000</speed>
</trkpt>
<trkpt lat="42.736366" lon="18.604935">
<ele>893.742676</ele>
<time>2012-05-02T06:35:02Z</time>
<desc>lat.=42.736366, lon.=18.604935, Alt.=893.742676m. Speed=84.456001m/h.</desc>
<speed>23.460000</speed>
</trkpt>
<trkpt lat="42.735527" lon="18.604057">
<ele>894.305176</ele>
<time>2012-05-02T06:35:07Z</time>
<desc>lat.=42.735527, lon.=18.604057, Alt.=894.305176m. Speed=81.648003m/h.</desc>
<speed>22.680001</speed>
</trkpt>
<trkpt lat="42.734882" lon="18.603041">
<ele>892.883301</ele>
<time>2012-05-02T06:35:12Z</time>
<desc>lat.=42.734882, lon.=18.603041, Alt.=892.883301m. Speed=75.816002m/h.</desc>
<speed>21.060001</speed>
</trkpt>
<trkpt lat="42.734322" lon="18.602175">
<ele>892.164551</ele>
<time>2012-05-02T06:35:17Z</time>
<desc>lat.=42.734322, lon.=18.602175, Alt.=892.164551m. Speed=59.723999m/h.</desc>
<speed>16.590000</speed>
</trkpt>
<trkpt lat="42.733784" lon="18.601692">
<ele>891.914551</ele>
<time>2012-05-02T06:35:22Z</time>
<desc>lat.=42.733784, lon.=18.601692, Alt.=891.914551m. Speed=46.223999m/h.</desc>
<speed>12.840000</speed>
</trkpt>
<trkpt lat="42.733391" lon="18.601522">
<ele>892.336426</ele>
<time>2012-05-02T06:35:27Z</time>
<desc>lat.=42.733391, lon.=18.601522, Alt.=892.336426m. Speed=24.191999m/h.</desc>
<speed>6.720000</speed>
</trkpt>
<trkpt lat="42.733208" lon="18.601875">
<ele>890.305176</ele>
<time>2012-05-02T06:35:32Z</time>
<desc>lat.=42.733208, lon.=18.601875, Alt.=890.305176m. Speed=31.608000m/h.</desc>
<speed>8.780000</speed>
</trkpt>
<trkpt lat="42.732933" lon="18.602486">
<ele>889.711426</ele>
<time>2012-05-02T06:35:37Z</time>
<desc>lat.=42.732933, lon.=18.602486, Alt.=889.711426m. Speed=47.484001m/h.</desc>
<speed>13.190000</speed>
</trkpt>
<trkpt lat="42.732376" lon="18.603132">
<ele>894.695801</ele>
<time>2012-05-02T06:35:42Z</time>
<desc>lat.=42.732376, lon.=18.603132, Alt.=894.695801m. Speed=65.699997m/h.</desc>
<speed>18.249999</speed>
</trkpt>
<trkpt lat="42.731594" lon="18.603510">
<ele>896.008301</ele>
<time>2012-05-02T06:35:47Z</time>
<desc>lat.=42.731594, lon.=18.603510, Alt.=896.008301m. Speed=63.108002m/h.</desc>
<speed>17.530000</speed>
</trkpt>
<trkpt lat="42.730824" lon="18.603817">
<ele>896.320801</ele>
<time>2012-05-02T06:35:52Z</time>
<desc>lat.=42.730824, lon.=18.603817, Alt.=896.320801m. Speed=64.907997m/h.</desc>
<speed>18.029999</speed>
</trkpt>
<trkpt lat="42.730042" lon="18.604126">
<ele>896.664551</ele>
<time>2012-05-02T06:35:57Z</time>
<desc>lat.=42.730042, lon.=18.604126, Alt.=896.664551m. Speed=64.115997m/h.</desc>
<speed>17.809999</speed>
</trkpt>
<trkpt lat="42.729336" lon="18.604637">
<ele>897.070801</ele>
<time>2012-05-02T06:36:02Z</time>
<desc>lat.=42.729336, lon.=18.604637, Alt.=897.070801m. Speed=66.024002m/h.</desc>
<speed>18.340001</speed>
</trkpt>
<trkpt lat="42.728706" lon="18.605488">
<ele>897.586426</ele>
<time>2012-05-02T06:36:07Z</time>
<desc>lat.=42.728706, lon.=18.605488, Alt.=897.586426m. Speed=75.959999m/h.</desc>
<speed>21.100000</speed>
</trkpt>
<trkpt lat="42.727898" lon="18.606194">
<ele>902.039551</ele>
<time>2012-05-02T06:36:12Z</time>
<desc>lat.=42.727898, lon.=18.606194, Alt.=902.039551m. Speed=77.903999m/h.</desc>
<speed>21.640000</speed>
</trkpt>
<trkpt lat="42.726933" lon="18.606323">
<ele>908.555176</ele>
<time>2012-05-02T06:36:17Z</time>
<desc>lat.=42.726933, lon.=18.606323, Alt.=908.555176m. Speed=77.723999m/h.</desc>
<speed>21.590000</speed>
</trkpt>
<trkpt lat="42.725983" lon="18.606100">
<ele>915.273926</ele>
<time>2012-05-02T06:36:22Z</time>
<desc>lat.=42.725983, lon.=18.606100, Alt.=915.273926m. Speed=71.748001m/h.</desc>
<speed>19.930000</speed>
</trkpt>
<trkpt lat="42.725185" lon="18.605757">
<ele>920.164551</ele>
<time>2012-05-02T06:36:27Z</time>
<desc>lat.=42.725185, lon.=18.605757, Alt.=920.164551m. Speed=63.683998m/h.</desc>
<speed>17.689999</speed>
</trkpt>
<trkpt lat="42.724602" lon="18.605017">
<ele>925.430176</ele>
<time>2012-05-02T06:36:32Z</time>
<desc>lat.=42.724602, lon.=18.605017, Alt.=925.430176m. Speed=64.475998m/h.</desc>
<speed>17.909999</speed>
</trkpt>
<trkpt lat="42.723999" lon="18.604265">
<ele>932.773926</ele>
<time>2012-05-02T06:36:37Z</time>
<desc>lat.=42.723999, lon.=18.604265, Alt.=932.773926m. Speed=65.987999m/h.</desc>
<speed>18.330000</speed>
</trkpt>
<trkpt lat="42.723194" lon="18.604073">
<ele>938.070801</ele>
<time>2012-05-02T06:36:42Z</time>
<desc>lat.=42.723194, lon.=18.604073, Alt.=938.070801m. Speed=65.987999m/h.</desc>
<speed>18.330000</speed>
</trkpt>
<trkpt lat="42.722443" lon="18.604559">
<ele>945.586426</ele>
<time>2012-05-02T06:36:47Z</time>
<desc>lat.=42.722443, lon.=18.604559, Alt.=945.586426m. Speed=67.211998m/h.</desc>
<speed>18.669999</speed>
</trkpt>
<trkpt lat="42.721870" lon="18.605375">
<ele>950.086426</ele>
<time>2012-05-02T06:36:52Z</time>
<desc>lat.=42.721870, lon.=18.605375, Alt.=950.086426m. Speed=62.604000m/h.</desc>
<speed>17.390000</speed>
</trkpt>
<trkpt lat="42.721245" lon="18.605999">
<ele>955.555176</ele>
<time>2012-05-02T06:36:57Z</time>
<desc>lat.=42.721245, lon.=18.605999, Alt.=955.555176m. Speed=61.560001m/h.</desc>
<speed>17.100000</speed>
</trkpt>
<trkpt lat="42.720520" lon="18.606014">
<ele>960.930176</ele>
<time>2012-05-02T06:37:02Z</time>
<desc>lat.=42.720520, lon.=18.606014, Alt.=960.930176m. Speed=58.391998m/h.</desc>
<speed>16.220000</speed>
</trkpt>
<trkpt lat="42.719826" lon="18.605583">
<ele>967.320801</ele>
<time>2012-05-02T06:37:07Z</time>
<desc>lat.=42.719826, lon.=18.605583, Alt.=967.320801m. Speed=61.812000m/h.</desc>
<speed>17.170000</speed>
</trkpt>
<trkpt lat="42.719063" lon="18.605450">
<ele>972.258301</ele>
<time>2012-05-02T06:37:12Z</time>
<desc>lat.=42.719063, lon.=18.605450, Alt.=972.258301m. Speed=62.532001m/h.</desc>
<speed>17.370000</speed>
</trkpt>
<trkpt lat="42.718327" lon="18.605940">
<ele>978.617676</ele>
<time>2012-05-02T06:37:17Z</time>
<desc>lat.=42.718327, lon.=18.605940, Alt.=978.617676m. Speed=68.615997m/h.</desc>
<speed>19.059999</speed>
</trkpt>
<trkpt lat="42.717552" lon="18.606476">
<ele>984.164551</ele>
<time>2012-05-02T06:37:22Z</time>
<desc>lat.=42.717552, lon.=18.606476, Alt.=984.164551m. Speed=69.695999m/h.</desc>
<speed>19.360000</speed>
</trkpt>
<trkpt lat="42.716679" lon="18.606361">
<ele>989.945801</ele>
<time>2012-05-02T06:37:27Z</time>
<desc>lat.=42.716679, lon.=18.606361, Alt.=989.945801m. Speed=69.372002m/h.</desc>
<speed>19.270000</speed>
</trkpt>
<trkpt lat="42.715847" lon="18.606493">
<ele>996.102051</ele>
<time>2012-05-02T06:37:32Z</time>
<desc>lat.=42.715847, lon.=18.606493, Alt.=996.102051m. Speed=69.587997m/h.</desc>
<speed>19.329999</speed>
</trkpt>
<trkpt lat="42.715084" lon="18.607012">
<ele>1001.852051</ele>
<time>2012-05-02T06:37:37Z</time>
<desc>lat.=42.715084, lon.=18.607012, Alt.=1001.852051m. Speed=66.851997m/h.</desc>
<speed>18.569999</speed>
</trkpt>
<trkpt lat="42.714226" lon="18.607140">
<ele>1007.508301</ele>
<time>2012-05-02T06:37:42Z</time>
<desc>lat.=42.714226, lon.=18.607140, Alt.=1007.508301m. Speed=71.820000m/h.</desc>
<speed>19.950000</speed>
</trkpt>
<trkpt lat="42.713337" lon="18.607101">
<ele>1011.664551</ele>
<time>2012-05-02T06:37:47Z</time>
<desc>lat.=42.713337, lon.=18.607101, Alt.=1011.664551m. Speed=68.795998m/h.</desc>
<speed>19.109999</speed>
</trkpt>
<trkpt lat="42.712467" lon="18.607145">
<ele>1013.070801</ele>
<time>2012-05-02T06:37:52Z</time>
<desc>lat.=42.712467, lon.=18.607145, Alt.=1013.070801m. Speed=69.552002m/h.</desc>
<speed>19.320001</speed>
</trkpt>
<trkpt lat="42.711636" lon="18.607504">
<ele>1014.883301</ele>
<time>2012-05-02T06:37:57Z</time>
<desc>lat.=42.711636, lon.=18.607504, Alt.=1014.883301m. Speed=72.143997m/h.</desc>
<speed>20.039999</speed>
</trkpt>
<trkpt lat="42.710838" lon="18.608049">
<ele>1017.039551</ele>
<time>2012-05-02T06:38:02Z</time>
<desc>lat.=42.710838, lon.=18.608049, Alt.=1017.039551m. Speed=70.272003m/h.</desc>
<speed>19.520001</speed>
</trkpt>
<trkpt lat="42.710026" lon="18.608625">
<ele>1018.555176</ele>
<time>2012-05-02T06:38:07Z</time>
<desc>lat.=42.710026, lon.=18.608625, Alt.=1018.555176m. Speed=76.211998m/h.</desc>
<speed>21.169999</speed>
</trkpt>
<trkpt lat="42.709171" lon="18.609213">
<ele>1020.773926</ele>
<time>2012-05-02T06:38:12Z</time>
<desc>lat.=42.709171, lon.=18.609213, Alt.=1020.773926m. Speed=73.764000m/h.</desc>
<speed>20.490000</speed>
</trkpt>
<trkpt lat="42.708389" lon="18.609787">
<ele>1021.711426</ele>
<time>2012-05-02T06:38:17Z</time>
<desc>lat.=42.708389, lon.=18.609787, Alt.=1021.711426m. Speed=69.695999m/h.</desc>
<speed>19.360000</speed>
</trkpt>
<trkpt lat="42.707722" lon="18.610575">
<ele>1020.336426</ele>
<time>2012-05-02T06:38:22Z</time>
<desc>lat.=42.707722, lon.=18.610575, Alt.=1020.336426m. Speed=72.468002m/h.</desc>
<speed>20.130001</speed>
</trkpt>
<trkpt lat="42.707138" lon="18.611572">
<ele>1018.258301</ele>
<time>2012-05-02T06:38:27Z</time>
<desc>lat.=42.707138, lon.=18.611572, Alt.=1018.258301m. Speed=77.363998m/h.</desc>
<speed>21.490000</speed>
</trkpt>
<trkpt lat="42.706440" lon="18.612562">
<ele>1016.398926</ele>
<time>2012-05-02T06:38:32Z</time>
<desc>lat.=42.706440, lon.=18.612562, Alt.=1016.398926m. Speed=84.851997m/h.</desc>
<speed>23.569999</speed>
</trkpt>
<trkpt lat="42.705643" lon="18.613504">
<ele>1017.586426</ele>
<time>2012-05-02T06:38:37Z</time>
<desc>lat.=42.705643, lon.=18.613504, Alt.=1017.586426m. Speed=81.071999m/h.</desc>
<speed>22.520000</speed>
</trkpt>
<trkpt lat="42.705120" lon="18.614626">
<ele>1017.539551</ele>
<time>2012-05-02T06:38:42Z</time>
<desc>lat.=42.705120, lon.=18.614626, Alt.=1017.539551m. Speed=78.695999m/h.</desc>
<speed>21.860000</speed>
</trkpt>
<trkpt lat="42.704632" lon="18.615860">
<ele>1016.195801</ele>
<time>2012-05-02T06:38:47Z</time>
<desc>lat.=42.704632, lon.=18.615860, Alt.=1016.195801m. Speed=88.739998m/h.</desc>
<speed>24.649999</speed>
</trkpt>
<trkpt lat="42.703945" lon="18.617140">
<ele>1012.195801</ele>
<time>2012-05-02T06:38:52Z</time>
<desc>lat.=42.703945, lon.=18.617140, Alt.=1012.195801m. Speed=96.839996m/h.</desc>
<speed>26.899999</speed>
</trkpt>
<trkpt lat="42.703220" lon="18.618422">
<ele>1008.352051</ele>
<time>2012-05-02T06:38:57Z</time>
<desc>lat.=42.703220, lon.=18.618422, Alt.=1008.352051m. Speed=92.160004m/h.</desc>
<speed>25.600001</speed>
</trkpt>
<trkpt lat="42.702587" lon="18.619652">
<ele>1007.133301</ele>
<time>2012-05-02T06:39:02Z</time>
<desc>lat.=42.702587, lon.=18.619652, Alt.=1007.133301m. Speed=85.968002m/h.</desc>
<speed>23.880001</speed>
</trkpt>
<trkpt lat="42.702137" lon="18.620951">
<ele>1006.617676</ele>
<time>2012-05-02T06:39:07Z</time>
<desc>lat.=42.702137, lon.=18.620951, Alt.=1006.617676m. Speed=84.528000m/h.</desc>
<speed>23.480000</speed>
</trkpt>
<trkpt lat="42.701710" lon="18.622297">
<ele>1006.742676</ele>
<time>2012-05-02T06:39:12Z</time>
<desc>lat.=42.701710, lon.=18.622297, Alt.=1006.742676m. Speed=89.711998m/h.</desc>
<speed>24.919999</speed>
</trkpt>
<trkpt lat="42.701164" lon="18.623678">
<ele>1006.883301</ele>
<time>2012-05-02T06:39:17Z</time>
<desc>lat.=42.701164, lon.=18.623678, Alt.=1006.883301m. Speed=94.571999m/h.</desc>
<speed>26.270000</speed>
</trkpt>
<trkpt lat="42.700596" lon="18.625044">
<ele>1008.586426</ele>
<time>2012-05-02T06:39:22Z</time>
<desc>lat.=42.700596, lon.=18.625044, Alt.=1008.586426m. Speed=85.643997m/h.</desc>
<speed>23.789999</speed>
</trkpt>
<trkpt lat="42.700138" lon="18.626141">
<ele>1011.320801</ele>
<time>2012-05-02T06:39:27Z</time>
<desc>lat.=42.700138, lon.=18.626141, Alt.=1011.320801m. Speed=66.239998m/h.</desc>
<speed>18.399999</speed>
</trkpt>
<trkpt lat="42.699619" lon="18.626898">
<ele>1013.492676</ele>
<time>2012-05-02T06:39:32Z</time>
<desc>lat.=42.699619, lon.=18.626898, Alt.=1013.492676m. Speed=58.644001m/h.</desc>
<speed>16.290000</speed>
</trkpt>
<trkpt lat="42.698975" lon="18.627220">
<ele>1013.805176</ele>
<time>2012-05-02T06:39:37Z</time>
<desc>lat.=42.698975, lon.=18.627220, Alt.=1013.805176m. Speed=55.799999m/h.</desc>
<speed>15.500000</speed>
</trkpt>
<trkpt lat="42.698338" lon="18.627728">
<ele>1012.898926</ele>
<time>2012-05-02T06:39:42Z</time>
<desc>lat.=42.698338, lon.=18.627728, Alt.=1012.898926m. Speed=64.655998m/h.</desc>
<speed>17.960000</speed>
</trkpt>
<trkpt lat="42.697773" lon="18.628553">
<ele>1011.242676</ele>
<time>2012-05-02T06:39:47Z</time>
<desc>lat.=42.697773, lon.=18.628553, Alt.=1011.242676m. Speed=67.139999m/h.</desc>
<speed>18.650000</speed>
</trkpt>
<trkpt lat="42.697239" lon="18.629375">
<ele>1010.992676</ele>
<time>2012-05-02T06:39:52Z</time>
<desc>lat.=42.697239, lon.=18.629375, Alt.=1010.992676m. Speed=62.855999m/h.</desc>
<speed>17.460000</speed>
</trkpt>
<trkpt lat="42.697025" lon="18.630320">
<ele>1011.195801</ele>
<time>2012-05-02T06:39:57Z</time>
<desc>lat.=42.697025, lon.=18.630320, Alt.=1011.195801m. Speed=55.152000m/h.</desc>
<speed>15.320000</speed>
</trkpt>
<trkpt lat="42.696918" lon="18.631216">
<ele>1011.523926</ele>
<time>2012-05-02T06:40:02Z</time>
<desc>lat.=42.696918, lon.=18.631216, Alt.=1011.523926m. Speed=52.883999m/h.</desc>
<speed>14.690000</speed>
</trkpt>
<trkpt lat="42.696579" lon="18.632030">
<ele>1011.336426</ele>
<time>2012-05-02T06:40:07Z</time>
<desc>lat.=42.696579, lon.=18.632030, Alt.=1011.336426m. Speed=60.048000m/h.</desc>
<speed>16.680000</speed>
</trkpt>
<trkpt lat="42.696121" lon="18.632927">
<ele>1009.367676</ele>
<time>2012-05-02T06:40:12Z</time>
<desc>lat.=42.696121, lon.=18.632927, Alt.=1009.367676m. Speed=66.851997m/h.</desc>
<speed>18.569999</speed>
</trkpt>
<trkpt lat="42.695637" lon="18.633862">
<ele>1006.148926</ele>
<time>2012-05-02T06:40:17Z</time>
<desc>lat.=42.695637, lon.=18.633862, Alt.=1006.148926m. Speed=67.716003m/h.</desc>
<speed>18.810001</speed>
</trkpt>
<trkpt lat="42.695095" lon="18.634750">
<ele>1003.273926</ele>
<time>2012-05-02T06:40:22Z</time>
<desc>lat.=42.695095, lon.=18.634750, Alt.=1003.273926m. Speed=69.192001m/h.</desc>
<speed>19.220000</speed>
</trkpt>
<trkpt lat="42.694431" lon="18.635548">
<ele>999.492676</ele>
<time>2012-05-02T06:40:27Z</time>
<desc>lat.=42.694431, lon.=18.635548, Alt.=999.492676m. Speed=70.596001m/h.</desc>
<speed>19.610000</speed>
</trkpt>
<trkpt lat="42.693657" lon="18.636187">
<ele>995.711426</ele>
<time>2012-05-02T06:40:32Z</time>
<desc>lat.=42.693657, lon.=18.636187, Alt.=995.711426m. Speed=72.288002m/h.</desc>
<speed>20.080001</speed>
</trkpt>
<trkpt lat="42.692802" lon="18.636646">
<ele>991.695801</ele>
<time>2012-05-02T06:40:37Z</time>
<desc>lat.=42.692802, lon.=18.636646, Alt.=991.695801m. Speed=73.115997m/h.</desc>
<speed>20.309999</speed>
</trkpt>
<trkpt lat="42.691898" lon="18.636894">
<ele>987.523926</ele>
<time>2012-05-02T06:40:42Z</time>
<desc>lat.=42.691898, lon.=18.636894, Alt.=987.523926m. Speed=73.152000m/h.</desc>
<speed>20.320000</speed>
</trkpt>
<trkpt lat="42.690979" lon="18.636917">
<ele>984.195801</ele>
<time>2012-05-02T06:40:47Z</time>
<desc>lat.=42.690979, lon.=18.636917, Alt.=984.195801m. Speed=72.251999m/h.</desc>
<speed>20.070000</speed>
</trkpt>
<trkpt lat="42.690075" lon="18.636715">
<ele>982.664551</ele>
<time>2012-05-02T06:40:52Z</time>
<desc>lat.=42.690075, lon.=18.636715, Alt.=982.664551m. Speed=76.320000m/h.</desc>
<speed>21.200000</speed>
</trkpt>
<trkpt lat="42.689095" lon="18.636261">
<ele>982.164551</ele>
<time>2012-05-02T06:40:57Z</time>
<desc>lat.=42.689095, lon.=18.636261, Alt.=982.164551m. Speed=88.056000m/h.</desc>
<speed>24.460000</speed>
</trkpt>
<trkpt lat="42.688057" lon="18.635672">
<ele>983.664551</ele>
<time>2012-05-02T06:41:02Z</time>
<desc>lat.=42.688057, lon.=18.635672, Alt.=983.664551m. Speed=87.084000m/h.</desc>
<speed>24.190000</speed>
</trkpt>
<trkpt lat="42.687027" lon="18.635094">
<ele>986.836426</ele>
<time>2012-05-02T06:41:07Z</time>
<desc>lat.=42.687027, lon.=18.635094, Alt.=986.836426m. Speed=90.972000m/h.</desc>
<speed>25.270000</speed>
</trkpt>
<trkpt lat="42.686020" lon="18.634527">
<ele>990.320801</ele>
<time>2012-05-02T06:41:12Z</time>
<desc>lat.=42.686020, lon.=18.634527, Alt.=990.320801m. Speed=81.612000m/h.</desc>
<speed>22.670000</speed>
</trkpt>
<trkpt lat="42.685127" lon="18.634056">
<ele>991.289551</ele>
<time>2012-05-02T06:41:17Z</time>
<desc>lat.=42.685127, lon.=18.634056, Alt.=991.289551m. Speed=73.223999m/h.</desc>
<speed>20.340000</speed>
</trkpt>
<trkpt lat="42.684269" lon="18.633814">
<ele>990.539551</ele>
<time>2012-05-02T06:41:22Z</time>
<desc>lat.=42.684269, lon.=18.633814, Alt.=990.539551m. Speed=70.776001m/h.</desc>
<speed>19.660000</speed>
</trkpt>
<trkpt lat="42.683331" lon="18.633865">
<ele>987.648926</ele>
<time>2012-05-02T06:41:27Z</time>
<desc>lat.=42.683331, lon.=18.633865, Alt.=987.648926m. Speed=78.984001m/h.</desc>
<speed>21.940000</speed>
</trkpt>
<trkpt lat="42.682358" lon="18.634228">
<ele>982.305176</ele>
<time>2012-05-02T06:41:32Z</time>
<desc>lat.=42.682358, lon.=18.634228, Alt.=982.305176m. Speed=81.036003m/h.</desc>
<speed>22.510001</speed>
</trkpt>
<trkpt lat="42.681465" lon="18.634907">
<ele>977.008301</ele>
<time>2012-05-02T06:41:37Z</time>
<desc>lat.=42.681465, lon.=18.634907, Alt.=977.008301m. Speed=82.764000m/h.</desc>
<speed>22.990000</speed>
</trkpt>
<trkpt lat="42.680706" lon="18.635897">
<ele>971.383301</ele>
<time>2012-05-02T06:41:42Z</time>
<desc>lat.=42.680706, lon.=18.635897, Alt.=971.383301m. Speed=85.139999m/h.</desc>
<speed>23.650000</speed>
</trkpt>
<trkpt lat="42.680103" lon="18.637115">
<ele>965.117676</ele>
<time>2012-05-02T06:41:47Z</time>
<desc>lat.=42.680103, lon.=18.637115, Alt.=965.117676m. Speed=87.084000m/h.</desc>
<speed>24.190000</speed>
</trkpt>
<trkpt lat="42.679523" lon="18.638393">
<ele>958.570801</ele>
<time>2012-05-02T06:41:52Z</time>
<desc>lat.=42.679523, lon.=18.638393, Alt.=958.570801m. Speed=88.776001m/h.</desc>
<speed>24.660000</speed>
</trkpt>
<trkpt lat="42.678936" lon="18.639694">
<ele>950.742676</ele>
<time>2012-05-02T06:41:57Z</time>
<desc>lat.=42.678936, lon.=18.639694, Alt.=950.742676m. Speed=91.080002m/h.</desc>
<speed>25.300001</speed>
</trkpt>
<trkpt lat="42.678291" lon="18.640945">
<ele>942.680176</ele>
<time>2012-05-02T06:42:02Z</time>
<desc>lat.=42.678291, lon.=18.640945, Alt.=942.680176m. Speed=89.820000m/h.</desc>
<speed>24.950000</speed>
</trkpt>
<trkpt lat="42.677448" lon="18.642000">
<ele>934.664551</ele>
<time>2012-05-02T06:42:07Z</time>
<desc>lat.=42.677448, lon.=18.642000, Alt.=934.664551m. Speed=92.772003m/h.</desc>
<speed>25.770001</speed>
</trkpt>
<trkpt lat="42.676537" lon="18.643034">
<ele>926.305176</ele>
<time>2012-05-02T06:42:12Z</time>
<desc>lat.=42.676537, lon.=18.643034, Alt.=926.305176m. Speed=95.328003m/h.</desc>
<speed>26.480001</speed>
</trkpt>
<trkpt lat="42.675640" lon="18.644060">
<ele>917.039551</ele>
<time>2012-05-02T06:42:17Z</time>
<desc>lat.=42.675640, lon.=18.644060, Alt.=917.039551m. Speed=93.456001m/h.</desc>
<speed>25.960000</speed>
</trkpt>
<trkpt lat="42.674744" lon="18.645060">
<ele>907.992676</ele>
<time>2012-05-02T06:42:22Z</time>
<desc>lat.=42.674744, lon.=18.645060, Alt.=907.992676m. Speed=91.764000m/h.</desc>
<speed>25.490000</speed>
</trkpt>
<trkpt lat="42.673740" lon="18.645765">
<ele>898.805176</ele>
<time>2012-05-02T06:42:27Z</time>
<desc>lat.=42.673740, lon.=18.645765, Alt.=898.805176m. Speed=88.884003m/h.</desc>
<speed>24.690001</speed>
</trkpt>
<trkpt lat="42.672722" lon="18.646317">
<ele>890.164551</ele>
<time>2012-05-02T06:42:32Z</time>
<desc>lat.=42.672722, lon.=18.646317, Alt.=890.164551m. Speed=86.580002m/h.</desc>
<speed>24.050001</speed>
</trkpt>
<trkpt lat="42.671814" lon="18.647104">
<ele>881.477051</ele>
<time>2012-05-02T06:42:37Z</time>
<desc>lat.=42.671814, lon.=18.647104, Alt.=881.477051m. Speed=83.699997m/h.</desc>
<speed>23.249999</speed>
</trkpt>
<trkpt lat="42.671104" lon="18.648146">
<ele>873.227051</ele>
<time>2012-05-02T06:42:42Z</time>
<desc>lat.=42.671104, lon.=18.648146, Alt.=873.227051m. Speed=83.664001m/h.</desc>
<speed>23.240000</speed>
</trkpt>
<trkpt lat="42.670498" lon="18.649292">
<ele>865.883301</ele>
<time>2012-05-02T06:42:47Z</time>
<desc>lat.=42.670498, lon.=18.649292, Alt.=865.883301m. Speed=83.195999m/h.</desc>
<speed>23.110000</speed>
</trkpt>
<trkpt lat="42.669872" lon="18.650391">
<ele>861.320801</ele>
<time>2012-05-02T06:42:52Z</time>
<desc>lat.=42.669872, lon.=18.650391, Alt.=861.320801m. Speed=80.891998m/h.</desc>
<speed>22.470000</speed>
</trkpt>
<trkpt lat="42.669312" lon="18.651506">
<ele>859.305176</ele>
<time>2012-05-02T06:42:57Z</time>
<desc>lat.=42.669312, lon.=18.651506, Alt.=859.305176m. Speed=79.199997m/h.</desc>
<speed>21.999999</speed>
</trkpt>
<trkpt lat="42.668877" lon="18.652752">
<ele>859.742676</ele>
<time>2012-05-02T06:43:02Z</time>
<desc>lat.=42.668877, lon.=18.652752, Alt.=859.742676m. Speed=84.528000m/h.</desc>
<speed>23.480000</speed>
</trkpt>
<trkpt lat="42.668556" lon="18.654146">
<ele>862.945801</ele>
<time>2012-05-02T06:43:07Z</time>
<desc>lat.=42.668556, lon.=18.654146, Alt.=862.945801m. Speed=86.183998m/h.</desc>
<speed>23.939999</speed>
</trkpt>
<trkpt lat="42.668266" lon="18.655533">
<ele>864.820801</ele>
<time>2012-05-02T06:43:12Z</time>
<desc>lat.=42.668266, lon.=18.655533, Alt.=864.820801m. Speed=84.744003m/h.</desc>
<speed>23.540001</speed>
</trkpt>
<trkpt lat="42.667915" lon="18.656940">
<ele>864.398926</ele>
<time>2012-05-02T06:43:17Z</time>
<desc>lat.=42.667915, lon.=18.656940, Alt.=864.398926m. Speed=91.367996m/h.</desc>
<speed>25.379999</speed>
</trkpt>
<trkpt lat="42.667370" lon="18.658352">
<ele>862.727051</ele>
<time>2012-05-02T06:43:22Z</time>
<desc>lat.=42.667370, lon.=18.658352, Alt.=862.727051m. Speed=96.624001m/h.</desc>
<speed>26.840000</speed>
</trkpt>
<trkpt lat="42.666653" lon="18.659628">
<ele>856.820801</ele>
<time>2012-05-02T06:43:27Z</time>
<desc>lat.=42.666653, lon.=18.659628, Alt.=856.820801m. Speed=94.931999m/h.</desc>
<speed>26.370000</speed>
</trkpt>
<trkpt lat="42.665852" lon="18.660841">
<ele>848.227051</ele>
<time>2012-05-02T06:43:32Z</time>
<desc>lat.=42.665852, lon.=18.660841, Alt.=848.227051m. Speed=97.199997m/h.</desc>
<speed>26.999999</speed>
</trkpt>
<trkpt lat="42.665035" lon="18.662056">
<ele>837.148926</ele>
<time>2012-05-02T06:43:37Z</time>
<desc>lat.=42.665035, lon.=18.662056, Alt.=837.148926m. Speed=95.328003m/h.</desc>
<speed>26.480001</speed>
</trkpt>
<trkpt lat="42.664219" lon="18.663263">
<ele>826.633301</ele>
<time>2012-05-02T06:43:42Z</time>
<desc>lat.=42.664219, lon.=18.663263, Alt.=826.633301m. Speed=97.559998m/h.</desc>
<speed>27.099999</speed>
</trkpt>
<trkpt lat="42.663303" lon="18.664373">
<ele>815.789551</ele>
<time>2012-05-02T06:43:47Z</time>
<desc>lat.=42.663303, lon.=18.664373, Alt.=815.789551m. Speed=97.596001m/h.</desc>
<speed>27.110000</speed>
</trkpt>
<trkpt lat="42.662247" lon="18.665247">
<ele>805.086426</ele>
<time>2012-05-02T06:43:52Z</time>
<desc>lat.=42.662247, lon.=18.665247, Alt.=805.086426m. Speed=98.711998m/h.</desc>
<speed>27.419999</speed>
</trkpt>
<trkpt lat="42.661095" lon="18.665823">
<ele>793.930176</ele>
<time>2012-05-02T06:43:57Z</time>
<desc>lat.=42.661095, lon.=18.665823, Alt.=793.930176m. Speed=98.783997m/h.</desc>
<speed>27.439999</speed>
</trkpt>
<trkpt lat="42.659885" lon="18.666290">
<ele>783.352051</ele>
<time>2012-05-02T06:44:02Z</time>
<desc>lat.=42.659885, lon.=18.666290, Alt.=783.352051m. Speed=100.332001m/h.</desc>
<speed>27.870000</speed>
</trkpt>
<trkpt lat="42.658718" lon="18.666794">
<ele>773.008301</ele>
<time>2012-05-02T06:44:07Z</time>
<desc>lat.=42.658718, lon.=18.666794, Alt.=773.008301m. Speed=92.556000m/h.</desc>
<speed>25.710000</speed>
</trkpt>
<trkpt lat="42.657707" lon="18.667570">
<ele>763.445801</ele>
<time>2012-05-02T06:44:12Z</time>
<desc>lat.=42.657707, lon.=18.667570, Alt.=763.445801m. Speed=94.428001m/h.</desc>
<speed>26.230000</speed>
</trkpt>
<trkpt lat="42.656860" lon="18.668709">
<ele>753.195801</ele>
<time>2012-05-02T06:44:17Z</time>
<desc>lat.=42.656860, lon.=18.668709, Alt.=753.195801m. Speed=96.515999m/h.</desc>
<speed>26.810000</speed>
</trkpt>
<trkpt lat="42.656254" lon="18.670099">
<ele>743.805176</ele>
<time>2012-05-02T06:44:22Z</time>
<desc>lat.=42.656254, lon.=18.670099, Alt.=743.805176m. Speed=95.580002m/h.</desc>
<speed>26.550001</speed>
</trkpt>
<trkpt lat="42.655884" lon="18.671671">
<ele>733.211426</ele>
<time>2012-05-02T06:44:27Z</time>
<desc>lat.=42.655884, lon.=18.671671, Alt.=733.211426m. Speed=97.524002m/h.</desc>
<speed>27.090001</speed>
</trkpt>
<trkpt lat="42.655495" lon="18.673210">
<ele>723.664551</ele>
<time>2012-05-02T06:44:32Z</time>
<desc>lat.=42.655495, lon.=18.673210, Alt.=723.664551m. Speed=94.788002m/h.</desc>
<speed>26.330001</speed>
</trkpt>
<trkpt lat="42.654907" lon="18.674658">
<ele>714.273926</ele>
<time>2012-05-02T06:44:37Z</time>
<desc>lat.=42.654907, lon.=18.674658, Alt.=714.273926m. Speed=98.568001m/h.</desc>
<speed>27.380000</speed>
</trkpt>
<trkpt lat="42.654106" lon="18.675947">
<ele>707.102051</ele>
<time>2012-05-02T06:44:42Z</time>
<desc>lat.=42.654106, lon.=18.675947, Alt.=707.102051m. Speed=99.288002m/h.</desc>
<speed>27.580001</speed>
</trkpt>
<trkpt lat="42.653149" lon="18.676977">
<ele>703.633301</ele>
<time>2012-05-02T06:44:47Z</time>
<desc>lat.=42.653149, lon.=18.676977, Alt.=703.633301m. Speed=96.300003m/h.</desc>
<speed>26.750001</speed>
</trkpt>
<trkpt lat="42.652081" lon="18.677711">
<ele>702.961426</ele>
<time>2012-05-02T06:44:52Z</time>
<desc>lat.=42.652081, lon.=18.677711, Alt.=702.961426m. Speed=95.363998m/h.</desc>
<speed>26.490000</speed>
</trkpt>
<trkpt lat="42.650944" lon="18.678190">
<ele>702.398926</ele>
<time>2012-05-02T06:44:57Z</time>
<desc>lat.=42.650944, lon.=18.678190, Alt.=702.398926m. Speed=94.751999m/h.</desc>
<speed>26.320000</speed>
</trkpt>
<trkpt lat="42.649803" lon="18.678606">
<ele>701.383301</ele>
<time>2012-05-02T06:45:02Z</time>
<desc>lat.=42.649803, lon.=18.678606, Alt.=701.383301m. Speed=93.132004m/h.</desc>
<speed>25.870001</speed>
</trkpt>
<trkpt lat="42.648708" lon="18.679010">
<ele>701.148926</ele>
<time>2012-05-02T06:45:07Z</time>
<desc>lat.=42.648708, lon.=18.679010, Alt.=701.148926m. Speed=87.875999m/h.</desc>
<speed>24.410000</speed>
</trkpt>
<trkpt lat="42.647736" lon="18.679375">
<ele>700.648926</ele>
<time>2012-05-02T06:45:12Z</time>
<desc>lat.=42.647736, lon.=18.679375, Alt.=700.648926m. Speed=70.416000m/h.</desc>
<speed>19.560000</speed>
</trkpt>
<trkpt lat="42.647011" lon="18.679806">
<ele>700.867676</ele>
<time>2012-05-02T06:45:17Z</time>
<desc>lat.=42.647011, lon.=18.679806, Alt.=700.867676m. Speed=61.307999m/h.</desc>
<speed>17.030000</speed>
</trkpt>
<trkpt lat="42.646442" lon="18.680475">
<ele>700.711426</ele>
<time>2012-05-02T06:45:22Z</time>
<desc>lat.=42.646442, lon.=18.680475, Alt.=700.711426m. Speed=61.848000m/h.</desc>
<speed>17.180000</speed>
</trkpt>
<trkpt lat="42.645943" lon="18.681297">
<ele>700.305176</ele>
<time>2012-05-02T06:45:27Z</time>
<desc>lat.=42.645943, lon.=18.681297, Alt.=700.305176m. Speed=64.764000m/h.</desc>
<speed>17.990000</speed>
</trkpt>
<trkpt lat="42.645420" lon="18.682159">
<ele>700.664551</ele>
<time>2012-05-02T06:45:32Z</time>
<desc>lat.=42.645420, lon.=18.682159, Alt.=700.664551m. Speed=66.384003m/h.</desc>
<speed>18.440001</speed>
</trkpt>
<trkpt lat="42.644840" lon="18.682993">
<ele>700.727051</ele>
<time>2012-05-02T06:45:37Z</time>
<desc>lat.=42.644840, lon.=18.682993, Alt.=700.727051m. Speed=69.624001m/h.</desc>
<speed>19.340000</speed>
</trkpt>
<trkpt lat="42.644073" lon="18.683569">
<ele>701.180176</ele>
<time>2012-05-02T06:45:42Z</time>
<desc>lat.=42.644073, lon.=18.683569, Alt.=701.180176m. Speed=69.839996m/h.</desc>
<speed>19.399999</speed>
</trkpt>
<trkpt lat="42.643204" lon="18.683737">
<ele>700.664551</ele>
<time>2012-05-02T06:45:47Z</time>
<desc>lat.=42.643204, lon.=18.683737, Alt.=700.664551m. Speed=72.468002m/h.</desc>
<speed>20.130001</speed>
</trkpt>
<trkpt lat="42.642300" lon="18.683563">
<ele>699.930176</ele>
<time>2012-05-02T06:45:52Z</time>
<desc>lat.=42.642300, lon.=18.683563, Alt.=699.930176m. Speed=71.208000m/h.</desc>
<speed>19.780000</speed>
</trkpt>
<trkpt lat="42.641403" lon="18.683453">
<ele>699.836426</ele>
<time>2012-05-02T06:45:57Z</time>
<desc>lat.=42.641403, lon.=18.683453, Alt.=699.836426m. Speed=72.612000m/h.</desc>
<speed>20.170000</speed>
</trkpt>
<trkpt lat="42.640507" lon="18.683701">
<ele>699.711426</ele>
<time>2012-05-02T06:46:02Z</time>
<desc>lat.=42.640507, lon.=18.683701, Alt.=699.711426m. Speed=73.403999m/h.</desc>
<speed>20.390000</speed>
</trkpt>
<trkpt lat="42.639614" lon="18.684053">
<ele>699.320801</ele>
<time>2012-05-02T06:46:07Z</time>
<desc>lat.=42.639614, lon.=18.684053, Alt.=699.320801m. Speed=74.952003m/h.</desc>
<speed>20.820001</speed>
</trkpt>
<trkpt lat="42.638634" lon="18.684187">
<ele>698.680176</ele>
<time>2012-05-02T06:46:12Z</time>
<desc>lat.=42.638634, lon.=18.684187, Alt.=698.680176m. Speed=80.136002m/h.</desc>
<speed>22.260000</speed>
</trkpt>
<trkpt lat="42.637665" lon="18.683893">
<ele>698.008301</ele>
<time>2012-05-02T06:46:17Z</time>
<desc>lat.=42.637665, lon.=18.683893, Alt.=698.008301m. Speed=77.940002m/h.</desc>
<speed>21.650001</speed>
</trkpt>
<trkpt lat="42.636810" lon="18.683178">
<ele>696.664551</ele>
<time>2012-05-02T06:46:22Z</time>
<desc>lat.=42.636810, lon.=18.683178, Alt.=696.664551m. Speed=83.736000m/h.</desc>
<speed>23.260000</speed>
</trkpt>
<trkpt lat="42.635979" lon="18.682211">
<ele>695.086426</ele>
<time>2012-05-02T06:46:27Z</time>
<desc>lat.=42.635979, lon.=18.682211, Alt.=695.086426m. Speed=89.279999m/h.</desc>
<speed>24.800000</speed>
</trkpt>
<trkpt lat="42.635086" lon="18.681313">
<ele>692.852051</ele>
<time>2012-05-02T06:46:32Z</time>
<desc>lat.=42.635086, lon.=18.681313, Alt.=692.852051m. Speed=88.344002m/h.</desc>
<speed>24.540000</speed>
</trkpt>
<trkpt lat="42.634068" lon="18.680754">
<ele>689.539551</ele>
<time>2012-05-02T06:46:37Z</time>
<desc>lat.=42.634068, lon.=18.680754, Alt.=689.539551m. Speed=87.227997m/h.</desc>
<speed>24.229999</speed>
</trkpt>
<trkpt lat="42.632984" lon="18.680593">
<ele>684.852051</ele>
<time>2012-05-02T06:46:42Z</time>
<desc>lat.=42.632984, lon.=18.680593, Alt.=684.852051m. Speed=87.300003m/h.</desc>
<speed>24.250001</speed>
</trkpt>
<trkpt lat="42.631901" lon="18.680834">
<ele>679.555176</ele>
<time>2012-05-02T06:46:47Z</time>
<desc>lat.=42.631901, lon.=18.680834, Alt.=679.555176m. Speed=87.732002m/h.</desc>
<speed>24.370001</speed>
</trkpt>
<trkpt lat="42.630859" lon="18.681360">
<ele>674.102051</ele>
<time>2012-05-02T06:46:52Z</time>
<desc>lat.=42.630859, lon.=18.681360, Alt.=674.102051m. Speed=89.711998m/h.</desc>
<speed>24.919999</speed>
</trkpt>
<trkpt lat="42.629818" lon="18.681881">
<ele>668.273926</ele>
<time>2012-05-02T06:46:57Z</time>
<desc>lat.=42.629818, lon.=18.681881, Alt.=668.273926m. Speed=86.220001m/h.</desc>
<speed>23.950000</speed>
</trkpt>
<trkpt lat="42.628773" lon="18.681984">
<ele>660.836426</ele>
<time>2012-05-02T06:47:02Z</time>
<desc>lat.=42.628773, lon.=18.681984, Alt.=660.836426m. Speed=81.863998m/h.</desc>
<speed>22.740000</speed>
</trkpt>
<trkpt lat="42.627785" lon="18.681561">
<ele>653.180176</ele>
<time>2012-05-02T06:47:07Z</time>
<desc>lat.=42.627785, lon.=18.681561, Alt.=653.180176m. Speed=84.419998m/h.</desc>
<speed>23.449999</speed>
</trkpt>
<trkpt lat="42.626789" lon="18.681013">
<ele>646.602051</ele>
<time>2012-05-02T06:47:12Z</time>
<desc>lat.=42.626789, lon.=18.681013, Alt.=646.602051m. Speed=87.335999m/h.</desc>
<speed>24.260000</speed>
</trkpt>
<trkpt lat="42.625702" lon="18.680786">
<ele>638.258301</ele>
<time>2012-05-02T06:47:17Z</time>
<desc>lat.=42.625702, lon.=18.680786, Alt.=638.258301m. Speed=89.963997m/h.</desc>
<speed>24.989999</speed>
</trkpt>
<trkpt lat="42.624554" lon="18.680923">
<ele>630.320801</ele>
<time>2012-05-02T06:47:22Z</time>
<desc>lat.=42.624554, lon.=18.680923, Alt.=630.320801m. Speed=94.571999m/h.</desc>
<speed>26.270000</speed>
</trkpt>
<trkpt lat="42.623352" lon="18.681150">
<ele>625.117676</ele>
<time>2012-05-02T06:47:27Z</time>
<desc>lat.=42.623352, lon.=18.681150, Alt.=625.117676m. Speed=98.208000m/h.</desc>
<speed>27.280000</speed>
</trkpt>
<trkpt lat="42.622143" lon="18.681334">
<ele>622.445801</ele>
<time>2012-05-02T06:47:32Z</time>
<desc>lat.=42.622143, lon.=18.681334, Alt.=622.445801m. Speed=95.328003m/h.</desc>
<speed>26.480001</speed>
</trkpt>
<trkpt lat="42.620987" lon="18.681471">
<ele>622.586426</ele>
<time>2012-05-02T06:47:37Z</time>
<desc>lat.=42.620987, lon.=18.681471, Alt.=622.586426m. Speed=90.612000m/h.</desc>
<speed>25.170000</speed>
</trkpt>
<trkpt lat="42.619865" lon="18.681553">
<ele>622.367676</ele>
<time>2012-05-02T06:47:42Z</time>
<desc>lat.=42.619865, lon.=18.681553, Alt.=622.367676m. Speed=90.900002m/h.</desc>
<speed>25.250000</speed>
</trkpt>
<trkpt lat="42.618729" lon="18.681612">
<ele>622.398926</ele>
<time>2012-05-02T06:47:47Z</time>
<desc>lat.=42.618729, lon.=18.681612, Alt.=622.398926m. Speed=91.332001m/h.</desc>
<speed>25.370000</speed>
</trkpt>
<trkpt lat="42.617588" lon="18.681644">
<ele>622.742676</ele>
<time>2012-05-02T06:47:52Z</time>
<desc>lat.=42.617588, lon.=18.681644, Alt.=622.742676m. Speed=91.620003m/h.</desc>
<speed>25.450001</speed>
</trkpt>
<trkpt lat="42.616447" lon="18.681681">
<ele>622.977051</ele>
<time>2012-05-02T06:47:57Z</time>
<desc>lat.=42.616447, lon.=18.681681, Alt.=622.977051m. Speed=91.872002m/h.</desc>
<speed>25.520000</speed>
</trkpt>
<trkpt lat="42.615303" lon="18.681810">
<ele>623.430176</ele>
<time>2012-05-02T06:48:02Z</time>
<desc>lat.=42.615303, lon.=18.681810, Alt.=623.430176m. Speed=92.375999m/h.</desc>
<speed>25.660000</speed>
</trkpt>
<trkpt lat="42.614159" lon="18.682079">
<ele>623.492676</ele>
<time>2012-05-02T06:48:07Z</time>
<desc>lat.=42.614159, lon.=18.682079, Alt.=623.492676m. Speed=93.384003m/h.</desc>
<speed>25.940001</speed>
</trkpt>
<trkpt lat="42.613014" lon="18.682495">
<ele>623.398926</ele>
<time>2012-05-02T06:48:12Z</time>
<desc>lat.=42.613014, lon.=18.682495, Alt.=623.398926m. Speed=95.040001m/h.</desc>
<speed>26.400000</speed>
</trkpt>
<trkpt lat="42.611885" lon="18.683043">
<ele>623.461426</ele>
<time>2012-05-02T06:48:17Z</time>
<desc>lat.=42.611885, lon.=18.683043, Alt.=623.461426m. Speed=96.660004m/h.</desc>
<speed>26.850001</speed>
</trkpt>
<trkpt lat="42.610779" lon="18.683723">
<ele>623.914551</ele>
<time>2012-05-02T06:48:22Z</time>
<desc>lat.=42.610779, lon.=18.683723, Alt.=623.914551m. Speed=97.379997m/h.</desc>
<speed>27.049999</speed>
</trkpt>
<trkpt lat="42.609711" lon="18.684517">
<ele>623.992676</ele>
<time>2012-05-02T06:48:27Z</time>
<desc>lat.=42.609711, lon.=18.684517, Alt.=623.992676m. Speed=97.739998m/h.</desc>
<speed>27.149999</speed>
</trkpt>
<trkpt lat="42.608646" lon="18.685335">
<ele>624.148926</ele>
<time>2012-05-02T06:48:32Z</time>
<desc>lat.=42.608646, lon.=18.685335, Alt.=624.148926m. Speed=98.136002m/h.</desc>
<speed>27.260000</speed>
</trkpt>
<trkpt lat="42.607578" lon="18.686159">
<ele>624.523926</ele>
<time>2012-05-02T06:48:37Z</time>
<desc>lat.=42.607578, lon.=18.686159, Alt.=624.523926m. Speed=98.424004m/h.</desc>
<speed>27.340001</speed>
</trkpt>
<trkpt lat="42.606506" lon="18.686985">
<ele>624.836426</ele>
<time>2012-05-02T06:48:42Z</time>
<desc>lat.=42.606506, lon.=18.686985, Alt.=624.836426m. Speed=98.748001m/h.</desc>
<speed>27.430000</speed>
</trkpt>
<trkpt lat="42.605423" lon="18.687777">
<ele>625.055176</ele>
<time>2012-05-02T06:48:47Z</time>
<desc>lat.=42.605423, lon.=18.687777, Alt.=625.055176m. Speed=97.199997m/h.</desc>
<speed>26.999999</speed>
</trkpt>
<trkpt lat="42.604332" lon="18.688459">
<ele>625.086426</ele>
<time>2012-05-02T06:48:52Z</time>
<desc>lat.=42.604332, lon.=18.688459, Alt.=625.086426m. Speed=95.075996m/h.</desc>
<speed>26.409999</speed>
</trkpt>
<trkpt lat="42.603233" lon="18.689037">
<ele>625.383301</ele>
<time>2012-05-02T06:48:57Z</time>
<desc>lat.=42.603233, lon.=18.689037, Alt.=625.383301m. Speed=93.744003m/h.</desc>
<speed>26.040001</speed>
</trkpt>
<trkpt lat="42.602123" lon="18.689507">
<ele>626.305176</ele>
<time>2012-05-02T06:49:02Z</time>
<desc>lat.=42.602123, lon.=18.689507, Alt.=626.305176m. Speed=92.124001m/h.</desc>
<speed>25.590000</speed>
</trkpt>
<trkpt lat="42.601006" lon="18.689873">
<ele>627.055176</ele>
<time>2012-05-02T06:49:07Z</time>
<desc>lat.=42.601006, lon.=18.689873, Alt.=627.055176m. Speed=92.052002m/h.</desc>
<speed>25.570001</speed>
</trkpt>
<trkpt lat="42.599869" lon="18.690142">
<ele>627.945801</ele>
<time>2012-05-02T06:49:12Z</time>
<desc>lat.=42.599869, lon.=18.690142, Alt.=627.945801m. Speed=92.556000m/h.</desc>
<speed>25.710000</speed>
</trkpt>
<trkpt lat="42.598717" lon="18.690311">
<ele>628.664551</ele>
<time>2012-05-02T06:49:17Z</time>
<desc>lat.=42.598717, lon.=18.690311, Alt.=628.664551m. Speed=93.059998m/h.</desc>
<speed>25.849999</speed>
</trkpt>
<trkpt lat="42.597553" lon="18.690372">
<ele>629.539551</ele>
<time>2012-05-02T06:49:22Z</time>
<desc>lat.=42.597553, lon.=18.690372, Alt.=629.539551m. Speed=93.456001m/h.</desc>
<speed>25.960000</speed>
</trkpt>
<trkpt lat="42.596382" lon="18.690344">
<ele>629.898926</ele>
<time>2012-05-02T06:49:27Z</time>
<desc>lat.=42.596382, lon.=18.690344, Alt.=629.898926m. Speed=93.816002m/h.</desc>
<speed>26.060001</speed>
</trkpt>
<trkpt lat="42.595211" lon="18.690203">
<ele>630.180176</ele>
<time>2012-05-02T06:49:32Z</time>
<desc>lat.=42.595211, lon.=18.690203, Alt.=630.180176m. Speed=94.176003m/h.</desc>
<speed>26.160001</speed>
</trkpt>
<trkpt lat="42.594044" lon="18.689951">
<ele>631.008301</ele>
<time>2012-05-02T06:49:37Z</time>
<desc>lat.=42.594044, lon.=18.689951, Alt.=631.008301m. Speed=94.103996m/h.</desc>
<speed>26.139999</speed>
</trkpt>
<trkpt lat="42.592892" lon="18.689606">
<ele>632.164551</ele>
<time>2012-05-02T06:49:42Z</time>
<desc>lat.=42.592892, lon.=18.689606, Alt.=632.164551m. Speed=93.708000m/h.</desc>
<speed>26.030000</speed>
</trkpt>
<trkpt lat="42.591763" lon="18.689161">
<ele>633.305176</ele>
<time>2012-05-02T06:49:47Z</time>
<desc>lat.=42.591763, lon.=18.689161, Alt.=633.305176m. Speed=93.384003m/h.</desc>
<speed>25.940001</speed>
</trkpt>
<trkpt lat="42.590660" lon="18.688631">
<ele>634.336426</ele>
<time>2012-05-02T06:49:52Z</time>
<desc>lat.=42.590660, lon.=18.688631, Alt.=634.336426m. Speed=93.167999m/h.</desc>
<speed>25.880000</speed>
</trkpt>
<trkpt lat="42.589581" lon="18.688030">
<ele>634.805176</ele>
<time>2012-05-02T06:49:57Z</time>
<desc>lat.=42.589581, lon.=18.688030, Alt.=634.805176m. Speed=93.671997m/h.</desc>
<speed>26.019999</speed>
</trkpt>
<trkpt lat="42.588497" lon="18.687410">
<ele>634.711426</ele>
<time>2012-05-02T06:50:02Z</time>
<desc>lat.=42.588497, lon.=18.687410, Alt.=634.711426m. Speed=94.068001m/h.</desc>
<speed>26.130000</speed>
</trkpt>
<trkpt lat="42.587391" lon="18.686806">
<ele>634.008301</ele>
<time>2012-05-02T06:50:07Z</time>
<desc>lat.=42.587391, lon.=18.686806, Alt.=634.008301m. Speed=96.407997m/h.</desc>
<speed>26.779999</speed>
</trkpt>
<trkpt lat="42.586231" lon="18.686399">
<ele>632.180176</ele>
<time>2012-05-02T06:50:12Z</time>
<desc>lat.=42.586231, lon.=18.686399, Alt.=632.180176m. Speed=95.112000m/h.</desc>
<speed>26.420000</speed>
</trkpt>
<trkpt lat="42.585033" lon="18.686272">
<ele>629.727051</ele>
<time>2012-05-02T06:50:17Z</time>
<desc>lat.=42.585033, lon.=18.686272, Alt.=629.727051m. Speed=98.316002m/h.</desc>
<speed>27.310001</speed>
</trkpt>
<trkpt lat="42.583809" lon="18.686460">
<ele>626.648926</ele>
<time>2012-05-02T06:50:22Z</time>
<desc>lat.=42.583809, lon.=18.686460, Alt.=626.648926m. Speed=98.388000m/h.</desc>
<speed>27.330000</speed>
</trkpt>
<trkpt lat="42.582626" lon="18.686823">
<ele>623.414551</ele>
<time>2012-05-02T06:50:27Z</time>
<desc>lat.=42.582626, lon.=18.686823, Alt.=623.414551m. Speed=93.996002m/h.</desc>
<speed>26.110001</speed>
</trkpt>
<trkpt lat="42.581482" lon="18.687050">
<ele>620.023926</ele>
<time>2012-05-02T06:50:32Z</time>
<desc>lat.=42.581482, lon.=18.687050, Alt.=620.023926m. Speed=91.115997m/h.</desc>
<speed>25.309999</speed>
</trkpt>
<trkpt lat="42.580330" lon="18.687052">
<ele>616.695801</ele>
<time>2012-05-02T06:50:37Z</time>
<desc>lat.=42.580330, lon.=18.687052, Alt.=616.695801m. Speed=95.363998m/h.</desc>
<speed>26.490000</speed>
</trkpt>
<trkpt lat="42.579128" lon="18.686924">
<ele>615.758301</ele>
<time>2012-05-02T06:50:42Z</time>
<desc>lat.=42.579128, lon.=18.686924, Alt.=615.758301m. Speed=96.804001m/h.</desc>
<speed>26.890000</speed>
</trkpt>
<trkpt lat="42.577953" lon="18.686993">
<ele>618.086426</ele>
<time>2012-05-02T06:50:47Z</time>
<desc>lat.=42.577953, lon.=18.686993, Alt.=618.086426m. Speed=90.900002m/h.</desc>
<speed>25.250000</speed>
</trkpt>
<trkpt lat="42.576870" lon="18.687067">
<ele>623.289551</ele>
<time>2012-05-02T06:50:52Z</time>
<desc>lat.=42.576870, lon.=18.687067, Alt.=623.289551m. Speed=82.727997m/h.</desc>
<speed>22.979999</speed>
</trkpt>
<trkpt lat="42.575871" lon="18.686806">
<ele>629.227051</ele>
<time>2012-05-02T06:50:57Z</time>
<desc>lat.=42.575871, lon.=18.686806, Alt.=629.227051m. Speed=78.120003m/h.</desc>
<speed>21.700001</speed>
</trkpt>
<trkpt lat="42.574974" lon="18.686518">
<ele>634.508301</ele>
<time>2012-05-02T06:51:02Z</time>
<desc>lat.=42.574974, lon.=18.686518, Alt.=634.508301m. Speed=72.900002m/h.</desc>
<speed>20.250000</speed>
</trkpt>
<trkpt lat="42.574074" lon="18.686642">
<ele>639.852051</ele>
<time>2012-05-02T06:51:07Z</time>
<desc>lat.=42.574074, lon.=18.686642, Alt.=639.852051m. Speed=74.664001m/h.</desc>
<speed>20.740000</speed>
</trkpt>
<trkpt lat="42.573299" lon="18.687237">
<ele>644.664551</ele>
<time>2012-05-02T06:51:12Z</time>
<desc>lat.=42.573299, lon.=18.687237, Alt.=644.664551m. Speed=68.075996m/h.</desc>
<speed>18.909999</speed>
</trkpt>
<trkpt lat="42.572697" lon="18.688040">
<ele>649.258301</ele>
<time>2012-05-02T06:51:17Z</time>
<desc>lat.=42.572697, lon.=18.688040, Alt.=649.258301m. Speed=67.068001m/h.</desc>
<speed>18.630000</speed>
</trkpt>
<trkpt lat="42.572010" lon="18.688660">
<ele>653.898926</ele>
<time>2012-05-02T06:51:22Z</time>
<desc>lat.=42.572010, lon.=18.688660, Alt.=653.898926m. Speed=66.564003m/h.</desc>
<speed>18.490001</speed>
</trkpt>
<trkpt lat="42.571205" lon="18.688917">
<ele>657.320801</ele>
<time>2012-05-02T06:51:27Z</time>
<desc>lat.=42.571205, lon.=18.688917, Alt.=657.320801m. Speed=67.031998m/h.</desc>
<speed>18.619999</speed>
</trkpt>
<trkpt lat="42.570370" lon="18.689215">
<ele>659.492676</ele>
<time>2012-05-02T06:51:32Z</time>
<desc>lat.=42.570370, lon.=18.689215, Alt.=659.492676m. Speed=71.639999m/h.</desc>
<speed>19.900000</speed>
</trkpt>
<trkpt lat="42.569557" lon="18.689804">
<ele>660.445801</ele>
<time>2012-05-02T06:51:37Z</time>
<desc>lat.=42.569557, lon.=18.689804, Alt.=660.445801m. Speed=75.528000m/h.</desc>
<speed>20.980000</speed>
</trkpt>
<trkpt lat="42.568840" lon="18.690710">
<ele>661.445801</ele>
<time>2012-05-02T06:51:42Z</time>
<desc>lat.=42.568840, lon.=18.690710, Alt.=661.445801m. Speed=80.351997m/h.</desc>
<speed>22.319999</speed>
</trkpt>
<trkpt lat="42.568329" lon="18.691833">
<ele>661.352051</ele>
<time>2012-05-02T06:51:47Z</time>
<desc>lat.=42.568329, lon.=18.691833, Alt.=661.352051m. Speed=74.987999m/h.</desc>
<speed>20.830000</speed>
</trkpt>
<trkpt lat="42.567951" lon="18.692884">
<ele>662.742676</ele>
<time>2012-05-02T06:51:52Z</time>
<desc>lat.=42.567951, lon.=18.692884, Alt.=662.742676m. Speed=64.260002m/h.</desc>
<speed>17.850001</speed>
</trkpt>
<trkpt lat="42.567265" lon="18.693840">
<ele>661.695801</ele>
<time>2012-05-02T06:51:58Z</time>
<desc>lat.=42.567265, lon.=18.693840, Alt.=661.695801m. Speed=70.199997m/h.</desc>
<speed>19.499999</speed>
</trkpt>
<trkpt lat="42.566505" lon="18.694586">
<ele>664.336426</ele>
<time>2012-05-02T06:52:03Z</time>
<desc>lat.=42.566505, lon.=18.694586, Alt.=664.336426m. Speed=68.760002m/h.</desc>
<speed>19.100001</speed>
</trkpt>
<trkpt lat="42.565945" lon="18.695465">
<ele>663.820801</ele>
<time>2012-05-02T06:52:08Z</time>
<desc>lat.=42.565945, lon.=18.695465, Alt.=663.820801m. Speed=69.480003m/h.</desc>
<speed>19.300001</speed>
</trkpt>
<trkpt lat="42.565578" lon="18.696526">
<ele>663.398926</ele>
<time>2012-05-02T06:52:13Z</time>
<desc>lat.=42.565578, lon.=18.696526, Alt.=663.398926m. Speed=70.092003m/h.</desc>
<speed>19.470001</speed>
</trkpt>
<trkpt lat="42.565174" lon="18.697556">
<ele>664.805176</ele>
<time>2012-05-02T06:52:18Z</time>
<desc>lat.=42.565174, lon.=18.697556, Alt.=664.805176m. Speed=68.867996m/h.</desc>
<speed>19.129999</speed>
</trkpt>
<trkpt lat="42.564636" lon="18.698372">
<ele>665.289551</ele>
<time>2012-05-02T06:52:23Z</time>
<desc>lat.=42.564636, lon.=18.698372, Alt.=665.289551m. Speed=64.080002m/h.</desc>
<speed>17.800001</speed>
</trkpt>
<trkpt lat="42.564350" lon="18.699318">
<ele>666.664551</ele>
<time>2012-05-02T06:52:28Z</time>
<desc>lat.=42.564350, lon.=18.699318, Alt.=666.664551m. Speed=59.652000m/h.</desc>
<speed>16.570000</speed>
</trkpt>
<trkpt lat="42.564453" lon="18.700356">
<ele>669.195801</ele>
<time>2012-05-02T06:52:33Z</time>
<desc>lat.=42.564453, lon.=18.700356, Alt.=669.195801m. Speed=61.992001m/h.</desc>
<speed>17.220000</speed>
</trkpt>
<trkpt lat="42.564976" lon="18.701105">
<ele>668.898926</ele>
<time>2012-05-02T06:52:38Z</time>
<desc>lat.=42.564976, lon.=18.701105, Alt.=668.898926m. Speed=61.200001m/h.</desc>
<speed>17.000000</speed>
</trkpt>
<trkpt lat="42.565754" lon="18.701450">
<ele>670.664551</ele>
<time>2012-05-02T06:52:43Z</time>
<desc>lat.=42.565754, lon.=18.701450, Alt.=670.664551m. Speed=64.655998m/h.</desc>
<speed>17.960000</speed>
</trkpt>
<trkpt lat="42.566498" lon="18.701830">
<ele>671.398926</ele>
<time>2012-05-02T06:52:48Z</time>
<desc>lat.=42.566498, lon.=18.701830, Alt.=671.398926m. Speed=62.748001m/h.</desc>
<speed>17.430000</speed>
</trkpt>
<trkpt lat="42.566856" lon="18.702753">
<ele>673.492676</ele>
<time>2012-05-02T06:52:53Z</time>
<desc>lat.=42.566856, lon.=18.702753, Alt.=673.492676m. Speed=65.052002m/h.</desc>
<speed>18.070001</speed>
</trkpt>
<trkpt lat="42.566673" lon="18.703825">
<ele>673.586426</ele>
<time>2012-05-02T06:52:58Z</time>
<desc>lat.=42.566673, lon.=18.703825, Alt.=673.586426m. Speed=68.615997m/h.</desc>
<speed>19.059999</speed>
</trkpt>
<trkpt lat="42.566353" lon="18.704910">
<ele>674.930176</ele>
<time>2012-05-02T06:53:03Z</time>
<desc>lat.=42.566353, lon.=18.704910, Alt.=674.930176m. Speed=70.307999m/h.</desc>
<speed>19.530000</speed>
</trkpt>
<trkpt lat="42.566200" lon="18.706112">
<ele>679.117676</ele>
<time>2012-05-02T06:53:08Z</time>
<desc>lat.=42.566200, lon.=18.706112, Alt.=679.117676m. Speed=69.335999m/h.</desc>
<speed>19.260000</speed>
</trkpt>
<trkpt lat="42.565845" lon="18.707218">
<ele>684.477051</ele>
<time>2012-05-02T06:53:13Z</time>
<desc>lat.=42.565845, lon.=18.707218, Alt.=684.477051m. Speed=73.980003m/h.</desc>
<speed>20.550001</speed>
</trkpt>
<trkpt lat="42.565220" lon="18.708166">
<ele>688.773926</ele>
<time>2012-05-02T06:53:18Z</time>
<desc>lat.=42.565220, lon.=18.708166, Alt.=688.773926m. Speed=77.543999m/h.</desc>
<speed>21.540000</speed>
</trkpt>
<trkpt lat="42.564323" lon="18.708826">
<ele>691.305176</ele>
<time>2012-05-02T06:53:23Z</time>
<desc>lat.=42.564323, lon.=18.708826, Alt.=691.305176m. Speed=82.835999m/h.</desc>
<speed>23.010000</speed>
</trkpt>
<trkpt lat="42.563274" lon="18.709042">
<ele>691.352051</ele>
<time>2012-05-02T06:53:28Z</time>
<desc>lat.=42.563274, lon.=18.709042, Alt.=691.352051m. Speed=86.040001m/h.</desc>
<speed>23.900000</speed>
</trkpt>
<trkpt lat="42.562172" lon="18.708979">
<ele>690.398926</ele>
<time>2012-05-02T06:53:33Z</time>
<desc>lat.=42.562172, lon.=18.708979, Alt.=690.398926m. Speed=88.848000m/h.</desc>
<speed>24.680000</speed>
</trkpt>
<trkpt lat="42.561081" lon="18.709181">
<ele>689.883301</ele>
<time>2012-05-02T06:53:38Z</time>
<desc>lat.=42.561081, lon.=18.709181, Alt.=689.883301m. Speed=85.500000m/h.</desc>
<speed>23.750000</speed>
</trkpt>
<trkpt lat="42.560001" lon="18.709293">
<ele>690.227051</ele>
<time>2012-05-02T06:53:43Z</time>
<desc>lat.=42.560001, lon.=18.709293, Alt.=690.227051m. Speed=91.115997m/h.</desc>
<speed>25.309999</speed>
</trkpt>
<trkpt lat="42.558846" lon="18.709234">
<ele>690.320801</ele>
<time>2012-05-02T06:53:48Z</time>
<desc>lat.=42.558846, lon.=18.709234, Alt.=690.320801m. Speed=89.820000m/h.</desc>
<speed>24.950000</speed>
</trkpt>
<trkpt lat="42.557796" lon="18.709513">
<ele>691.023926</ele>
<time>2012-05-02T06:53:53Z</time>
<desc>lat.=42.557796, lon.=18.709513, Alt.=691.023926m. Speed=82.764000m/h.</desc>
<speed>22.990000</speed>
</trkpt>
<trkpt lat="42.556877" lon="18.710161">
<ele>691.508301</ele>
<time>2012-05-02T06:53:58Z</time>
<desc>lat.=42.556877, lon.=18.710161, Alt.=691.508301m. Speed=83.375999m/h.</desc>
<speed>23.160000</speed>
</trkpt>
<trkpt lat="42.556099" lon="18.711134">
<ele>692.086426</ele>
<time>2012-05-02T06:54:03Z</time>
<desc>lat.=42.556099, lon.=18.711134, Alt.=692.086426m. Speed=83.052002m/h.</desc>
<speed>23.070001</speed>
</trkpt>
<trkpt lat="42.555340" lon="18.712069">
<ele>692.883301</ele>
<time>2012-05-02T06:54:08Z</time>
<desc>lat.=42.555340, lon.=18.712069, Alt.=692.883301m. Speed=83.375999m/h.</desc>
<speed>23.160000</speed>
</trkpt>
<trkpt lat="42.554390" lon="18.712711">
<ele>693.336426</ele>
<time>2012-05-02T06:54:13Z</time>
<desc>lat.=42.554390, lon.=18.712711, Alt.=693.336426m. Speed=86.292000m/h.</desc>
<speed>23.970000</speed>
</trkpt>
<trkpt lat="42.553318" lon="18.712976">
<ele>693.680176</ele>
<time>2012-05-02T06:54:18Z</time>
<desc>lat.=42.553318, lon.=18.712976, Alt.=693.680176m. Speed=86.975998m/h.</desc>
<speed>24.159999</speed>
</trkpt>
<trkpt lat="42.552261" lon="18.713230">
<ele>694.367676</ele>
<time>2012-05-02T06:54:23Z</time>
<desc>lat.=42.552261, lon.=18.713230, Alt.=694.367676m. Speed=85.931999m/h.</desc>
<speed>23.870000</speed>
</trkpt>
<trkpt lat="42.551292" lon="18.713697">
<ele>694.695801</ele>
<time>2012-05-02T06:54:28Z</time>
<desc>lat.=42.551292, lon.=18.713697, Alt.=694.695801m. Speed=77.832001m/h.</desc>
<speed>21.620000</speed>
</trkpt>
<trkpt lat="42.550377" lon="18.713812">
<ele>694.508301</ele>
<time>2012-05-02T06:54:33Z</time>
<desc>lat.=42.550377, lon.=18.713812, Alt.=694.508301m. Speed=71.748001m/h.</desc>
<speed>19.930000</speed>
</trkpt>
<trkpt lat="42.549530" lon="18.713524">
<ele>691.898926</ele>
<time>2012-05-02T06:54:38Z</time>
<desc>lat.=42.549530, lon.=18.713524, Alt.=691.898926m. Speed=69.552002m/h.</desc>
<speed>19.320001</speed>
</trkpt>
<trkpt lat="42.548798" lon="18.712872">
<ele>687.586426</ele>
<time>2012-05-02T06:54:43Z</time>
<desc>lat.=42.548798, lon.=18.712872, Alt.=687.586426m. Speed=73.655998m/h.</desc>
<speed>20.460000</speed>
</trkpt>
<trkpt lat="42.548042" lon="18.712101">
<ele>685.383301</ele>
<time>2012-05-02T06:54:48Z</time>
<desc>lat.=42.548042, lon.=18.712101, Alt.=685.383301m. Speed=74.627998m/h.</desc>
<speed>20.730000</speed>
</trkpt>
<trkpt lat="42.547386" lon="18.711113">
<ele>682.398926</ele>
<time>2012-05-02T06:54:53Z</time>
<desc>lat.=42.547386, lon.=18.711113, Alt.=682.398926m. Speed=80.208000m/h.</desc>
<speed>22.280000</speed>
</trkpt>
<trkpt lat="42.546547" lon="18.710350">
<ele>674.336426</ele>
<time>2012-05-02T06:54:58Z</time>
<desc>lat.=42.546547, lon.=18.710350, Alt.=674.336426m. Speed=76.536003m/h.</desc>
<speed>21.260001</speed>
</trkpt>
<trkpt lat="42.546021" lon="18.709278">
<ele>665.430176</ele>
<time>2012-05-02T06:55:03Z</time>
<desc>lat.=42.546021, lon.=18.709278, Alt.=665.430176m. Speed=77.867996m/h.</desc>
<speed>21.629999</speed>
</trkpt>
<trkpt lat="42.545765" lon="18.708014">
<ele>656.977051</ele>
<time>2012-05-02T06:55:08Z</time>
<desc>lat.=42.545765, lon.=18.708014, Alt.=656.977051m. Speed=73.403999m/h.</desc>
<speed>20.390000</speed>
</trkpt>
<trkpt lat="42.545319" lon="18.706917">
<ele>648.664551</ele>
<time>2012-05-02T06:55:13Z</time>
<desc>lat.=42.545319, lon.=18.706917, Alt.=648.664551m. Speed=73.260002m/h.</desc>
<speed>20.350001</speed>
</trkpt>
<trkpt lat="42.544895" lon="18.705795">
<ele>640.164551</ele>
<time>2012-05-02T06:55:18Z</time>
<desc>lat.=42.544895, lon.=18.705795, Alt.=640.164551m. Speed=76.211998m/h.</desc>
<speed>21.169999</speed>
</trkpt>
<trkpt lat="42.544724" lon="18.704500">
<ele>632.164551</ele>
<time>2012-05-02T06:55:23Z</time>
<desc>lat.=42.544724, lon.=18.704500, Alt.=632.164551m. Speed=77.508003m/h.</desc>
<speed>21.530001</speed>
</trkpt>
<trkpt lat="42.544346" lon="18.703281">
<ele>624.336426</ele>
<time>2012-05-02T06:55:28Z</time>
<desc>lat.=42.544346, lon.=18.703281, Alt.=624.336426m. Speed=80.459999m/h.</desc>
<speed>22.350000</speed>
</trkpt>
<trkpt lat="42.543579" lon="18.702374">
<ele>616.039551</ele>
<time>2012-05-02T06:55:33Z</time>
<desc>lat.=42.543579, lon.=18.702374, Alt.=616.039551m. Speed=84.419998m/h.</desc>
<speed>23.449999</speed>
</trkpt>
<trkpt lat="42.542564" lon="18.701910">
<ele>608.336426</ele>
<time>2012-05-02T06:55:38Z</time>
<desc>lat.=42.542564, lon.=18.701910, Alt.=608.336426m. Speed=83.195999m/h.</desc>
<speed>23.110000</speed>
</trkpt>
<trkpt lat="42.541676" lon="18.701353">
<ele>603.398926</ele>
<time>2012-05-02T06:55:43Z</time>
<desc>lat.=42.541676, lon.=18.701353, Alt.=603.398926m. Speed=74.736000m/h.</desc>
<speed>20.760000</speed>
</trkpt>
<trkpt lat="42.541054" lon="18.700487">
<ele>598.320801</ele>
<time>2012-05-02T06:55:48Z</time>
<desc>lat.=42.541054, lon.=18.700487, Alt.=598.320801m. Speed=72.503998m/h.</desc>
<speed>20.139999</speed>
</trkpt>
<trkpt lat="42.540745" lon="18.697554">
<ele>605.055176</ele>
<time>2012-05-02T06:56:04Z</time>
<desc>lat.=42.540745, lon.=18.697554, Alt.=605.055176m. Speed=51.299999m/h.</desc>
<speed>14.250000</speed>
</trkpt>
<trkpt lat="42.540890" lon="18.696775">
<ele>594.633301</ele>
<time>2012-05-02T06:56:09Z</time>
<desc>lat.=42.540890, lon.=18.696775, Alt.=594.633301m. Speed=51.911999m/h.</desc>
<speed>14.420000</speed>
</trkpt>
<trkpt lat="42.541237" lon="18.695997">
<ele>592.492676</ele>
<time>2012-05-02T06:56:14Z</time>
<desc>lat.=42.541237, lon.=18.695997, Alt.=592.492676m. Speed=56.916000m/h.</desc>
<speed>15.810000</speed>
</trkpt>
<trkpt lat="42.541561" lon="18.695124">
<ele>588.414551</ele>
<time>2012-05-02T06:56:19Z</time>
<desc>lat.=42.541561, lon.=18.695124, Alt.=588.414551m. Speed=58.104000m/h.</desc>
<speed>16.140000</speed>
</trkpt>
<trkpt lat="42.541637" lon="18.694168">
<ele>585.992676</ele>
<time>2012-05-02T06:56:24Z</time>
<desc>lat.=42.541637, lon.=18.694168, Alt.=585.992676m. Speed=56.987999m/h.</desc>
<speed>15.830000</speed>
</trkpt>
<trkpt lat="42.541447" lon="18.693239">
<ele>585.367676</ele>
<time>2012-05-02T06:56:29Z</time>
<desc>lat.=42.541447, lon.=18.693239, Alt.=585.367676m. Speed=59.147999m/h.</desc>
<speed>16.430000</speed>
</trkpt>
<trkpt lat="42.540997" lon="18.692411">
<ele>585.367676</ele>
<time>2012-05-02T06:56:34Z</time>
<desc>lat.=42.540997, lon.=18.692411, Alt.=585.367676m. Speed=61.523998m/h.</desc>
<speed>17.090000</speed>
</trkpt>
<trkpt lat="42.540569" lon="18.691504">
<ele>585.867676</ele>
<time>2012-05-02T06:56:39Z</time>
<desc>lat.=42.540569, lon.=18.691504, Alt.=585.867676m. Speed=66.671997m/h.</desc>
<speed>18.519999</speed>
</trkpt>
<trkpt lat="42.540215" lon="18.690468">
<ele>586.758301</ele>
<time>2012-05-02T06:56:44Z</time>
<desc>lat.=42.540215, lon.=18.690468, Alt.=586.758301m. Speed=65.267998m/h.</desc>
<speed>18.129999</speed>
</trkpt>
<trkpt lat="42.539604" lon="18.689753">
<ele>586.133301</ele>
<time>2012-05-02T06:56:49Z</time>
<desc>lat.=42.539604, lon.=18.689753, Alt.=586.133301m. Speed=65.375999m/h.</desc>
<speed>18.160000</speed>
</trkpt>
<trkpt lat="42.538780" lon="18.689501">
<ele>586.383301</ele>
<time>2012-05-02T06:56:54Z</time>
<desc>lat.=42.538780, lon.=18.689501, Alt.=586.383301m. Speed=69.120003m/h.</desc>
<speed>19.200001</speed>
</trkpt>
<trkpt lat="42.537926" lon="18.689260">
<ele>583.992676</ele>
<time>2012-05-02T06:56:59Z</time>
<desc>lat.=42.537926, lon.=18.689260, Alt.=583.992676m. Speed=68.652000m/h.</desc>
<speed>19.070000</speed>
</trkpt>
<trkpt lat="42.537231" lon="18.688595">
<ele>579.945801</ele>
<time>2012-05-02T06:57:04Z</time>
<desc>lat.=42.537231, lon.=18.688595, Alt.=579.945801m. Speed=67.211998m/h.</desc>
<speed>18.669999</speed>
</trkpt>
<trkpt lat="42.536846" lon="18.687616">
<ele>574.430176</ele>
<time>2012-05-02T06:57:09Z</time>
<desc>lat.=42.536846, lon.=18.687616, Alt.=574.430176m. Speed=65.087997m/h.</desc>
<speed>18.079999</speed>
</trkpt>
<trkpt lat="42.536808" lon="18.686571">
<ele>568.977051</ele>
<time>2012-05-02T06:57:14Z</time>
<desc>lat.=42.536808, lon.=18.686571, Alt.=568.977051m. Speed=59.147999m/h.</desc>
<speed>16.430000</speed>
</trkpt>
<trkpt lat="42.537025" lon="18.685623">
<ele>565.352051</ele>
<time>2012-05-02T06:57:19Z</time>
<desc>lat.=42.537025, lon.=18.685623, Alt.=565.352051m. Speed=58.860001m/h.</desc>
<speed>16.350000</speed>
</trkpt>
<trkpt lat="42.537327" lon="18.684713">
<ele>564.477051</ele>
<time>2012-05-02T06:57:24Z</time>
<desc>lat.=42.537327, lon.=18.684713, Alt.=564.477051m. Speed=57.888000m/h.</desc>
<speed>16.080000</speed>
</trkpt>
<trkpt lat="42.537624" lon="18.683832">
<ele>564.680176</ele>
<time>2012-05-02T06:57:29Z</time>
<desc>lat.=42.537624, lon.=18.683832, Alt.=564.680176m. Speed=56.304001m/h.</desc>
<speed>15.640000</speed>
</trkpt>
<trkpt lat="42.537891" lon="18.682964">
<ele>564.617676</ele>
<time>2012-05-02T06:57:34Z</time>
<desc>lat.=42.537891, lon.=18.682964, Alt.=564.617676m. Speed=54.683998m/h.</desc>
<speed>15.189999</speed>
</trkpt>
<trkpt lat="42.538052" lon="18.682079">
<ele>564.273926</ele>
<time>2012-05-02T06:57:39Z</time>
<desc>lat.=42.538052, lon.=18.682079, Alt.=564.273926m. Speed=53.136002m/h.</desc>
<speed>14.760000</speed>
</trkpt>
<trkpt lat="42.538105" lon="18.681187">
<ele>563.258301</ele>
<time>2012-05-02T06:57:44Z</time>
<desc>lat.=42.538105, lon.=18.681187, Alt.=563.258301m. Speed=52.919998m/h.</desc>
<speed>14.699999</speed>
</trkpt>
<trkpt lat="42.538185" lon="18.680260">
<ele>561.445801</ele>
<time>2012-05-02T06:57:49Z</time>
<desc>lat.=42.538185, lon.=18.680260, Alt.=561.445801m. Speed=56.591999m/h.</desc>
<speed>15.720000</speed>
</trkpt>
<trkpt lat="42.538372" lon="18.679327">
<ele>559.820801</ele>
<time>2012-05-02T06:57:54Z</time>
<desc>lat.=42.538372, lon.=18.679327, Alt.=559.820801m. Speed=56.627998m/h.</desc>
<speed>15.730000</speed>
</trkpt>
<trkpt lat="42.538586" lon="18.678427">
<ele>557.242676</ele>
<time>2012-05-02T06:57:59Z</time>
<desc>lat.=42.538586, lon.=18.678427, Alt.=557.242676m. Speed=53.928001m/h.</desc>
<speed>14.980000</speed>
</trkpt>
<trkpt lat="42.538738" lon="18.677589">
<ele>553.852051</ele>
<time>2012-05-02T06:58:04Z</time>
<desc>lat.=42.538738, lon.=18.677589, Alt.=553.852051m. Speed=49.824001m/h.</desc>
<speed>13.840000</speed>
</trkpt>
<trkpt lat="42.538612" lon="18.676756">
<ele>550.602051</ele>
<time>2012-05-02T06:58:09Z</time>
<desc>lat.=42.538612, lon.=18.676756, Alt.=550.602051m. Speed=52.452000m/h.</desc>
<speed>14.570000</speed>
</trkpt>
<trkpt lat="42.538139" lon="18.676125">
<ele>546.305176</ele>
<time>2012-05-02T06:58:14Z</time>
<desc>lat.=42.538139, lon.=18.676125, Alt.=546.305176m. Speed=54.324001m/h.</desc>
<speed>15.090000</speed>
</trkpt>
<trkpt lat="42.537457" lon="18.675983">
<ele>541.836426</ele>
<time>2012-05-02T06:58:19Z</time>
<desc>lat.=42.537457, lon.=18.675983, Alt.=541.836426m. Speed=56.160000m/h.</desc>
<speed>15.600000</speed>
</trkpt>
<trkpt lat="42.536831" lon="18.676437">
<ele>537.430176</ele>
<time>2012-05-02T06:58:24Z</time>
<desc>lat.=42.536831, lon.=18.676437, Alt.=537.430176m. Speed=57.492001m/h.</desc>
<speed>15.970000</speed>
</trkpt>
<trkpt lat="42.536541" lon="18.677338">
<ele>532.789551</ele>
<time>2012-05-02T06:58:29Z</time>
<desc>lat.=42.536541, lon.=18.677338, Alt.=532.789551m. Speed=58.355999m/h.</desc>
<speed>16.210000</speed>
</trkpt>
<trkpt lat="42.536499" lon="18.678368">
<ele>528.445801</ele>
<time>2012-05-02T06:58:34Z</time>
<desc>lat.=42.536499, lon.=18.678368, Alt.=528.445801m. Speed=58.139999m/h.</desc>
<speed>16.150000</speed>
</trkpt>
<trkpt lat="42.536293" lon="18.679340">
<ele>521.102051</ele>
<time>2012-05-02T06:58:39Z</time>
<desc>lat.=42.536293, lon.=18.679340, Alt.=521.102051m. Speed=60.840000m/h.</desc>
<speed>16.900000</speed>
</trkpt>
<trkpt lat="42.535904" lon="18.680206">
<ele>516.227051</ele>
<time>2012-05-02T06:58:44Z</time>
<desc>lat.=42.535904, lon.=18.680206, Alt.=516.227051m. Speed=58.032001m/h.</desc>
<speed>16.120000</speed>
</trkpt>
<trkpt lat="42.535526" lon="18.681049">
<ele>512.305176</ele>
<time>2012-05-02T06:58:49Z</time>
<desc>lat.=42.535526, lon.=18.681049, Alt.=512.305176m. Speed=59.436001m/h.</desc>
<speed>16.510000</speed>
</trkpt>
<trkpt lat="42.535316" lon="18.682056">
<ele>507.183838</ele>
<time>2012-05-02T06:58:54Z</time>
<desc>lat.=42.535316, lon.=18.682056, Alt.=507.183838m. Speed=63.467999m/h.</desc>
<speed>17.630000</speed>
</trkpt>
<trkpt lat="42.535267" lon="18.683132">
<ele>499.871338</ele>
<time>2012-05-02T06:58:59Z</time>
<desc>lat.=42.535267, lon.=18.683132, Alt.=499.871338m. Speed=61.307999m/h.</desc>
<speed>17.030000</speed>
</trkpt>
<trkpt lat="42.535091" lon="18.684145">
<ele>494.371338</ele>
<time>2012-05-02T06:59:04Z</time>
<desc>lat.=42.535091, lon.=18.684145, Alt.=494.371338m. Speed=61.596001m/h.</desc>
<speed>17.110000</speed>
</trkpt>
<trkpt lat="42.534649" lon="18.685022">
<ele>491.652588</ele>
<time>2012-05-02T06:59:09Z</time>
<desc>lat.=42.534649, lon.=18.685022, Alt.=491.652588m. Speed=63.863998m/h.</desc>
<speed>17.740000</speed>
</trkpt>
<trkpt lat="42.534008" lon="18.685619">
<ele>486.863525</ele>
<time>2012-05-02T06:59:14Z</time>
<desc>lat.=42.534008, lon.=18.685619, Alt.=486.863525m. Speed=64.440002m/h.</desc>
<speed>17.900001</speed>
</trkpt>
<trkpt lat="42.533230" lon="18.685854">
<ele>481.676025</ele>
<time>2012-05-02T06:59:19Z</time>
<desc>lat.=42.533230, lon.=18.685854, Alt.=481.676025m. Speed=62.675999m/h.</desc>
<speed>17.410000</speed>
</trkpt>
<trkpt lat="42.532455" lon="18.685926">
<ele>475.863525</ele>
<time>2012-05-02T06:59:24Z</time>
<desc>lat.=42.532455, lon.=18.685926, Alt.=475.863525m. Speed=60.948002m/h.</desc>
<speed>16.930001</speed>
</trkpt>
<trkpt lat="42.531704" lon="18.686220">
<ele>469.332275</ele>
<time>2012-05-02T06:59:29Z</time>
<desc>lat.=42.531704, lon.=18.686220, Alt.=469.332275m. Speed=63.035999m/h.</desc>
<speed>17.510000</speed>
</trkpt>
<trkpt lat="42.530968" lon="18.686491">
<ele>462.972900</ele>
<time>2012-05-02T06:59:34Z</time>
<desc>lat.=42.530968, lon.=18.686491, Alt.=462.972900m. Speed=58.644001m/h.</desc>
<speed>16.290000</speed>
</trkpt>
<trkpt lat="42.530254" lon="18.686422">
<ele>456.543213</ele>
<time>2012-05-02T06:59:39Z</time>
<desc>lat.=42.530254, lon.=18.686422, Alt.=456.543213m. Speed=56.268002m/h.</desc>
<speed>15.630000</speed>
</trkpt>
<trkpt lat="42.529560" lon="18.686123">
<ele>449.965088</ele>
<time>2012-05-02T06:59:44Z</time>
<desc>lat.=42.529560, lon.=18.686123, Alt.=449.965088m. Speed=58.967999m/h.</desc>
<speed>16.380000</speed>
</trkpt>
<trkpt lat="42.528828" lon="18.685877">
<ele>445.254150</ele>
<time>2012-05-02T06:59:49Z</time>
<desc>lat.=42.528828, lon.=18.685877, Alt.=445.254150m. Speed=61.271999m/h.</desc>
<speed>17.020000</speed>
</trkpt>
<trkpt lat="42.528046" lon="18.685717">
<ele>437.793213</ele>
<time>2012-05-02T06:59:54Z</time>
<desc>lat.=42.528046, lon.=18.685717, Alt.=437.793213m. Speed=64.835999m/h.</desc>
<speed>18.010000</speed>
</trkpt>
<trkpt lat="42.527264" lon="18.685472">
<ele>430.527588</ele>
<time>2012-05-02T06:59:59Z</time>
<desc>lat.=42.527264, lon.=18.685472, Alt.=430.527588m. Speed=64.188004m/h.</desc>
<speed>17.830001</speed>
</trkpt>
<trkpt lat="42.526516" lon="18.685053">
<ele>424.121338</ele>
<time>2012-05-02T07:00:04Z</time>
<desc>lat.=42.526516, lon.=18.685053, Alt.=424.121338m. Speed=63.792000m/h.</desc>
<speed>17.720000</speed>
</trkpt>
<trkpt lat="42.525780" lon="18.684805">
<ele>417.566650</ele>
<time>2012-05-02T07:00:09Z</time>
<desc>lat.=42.525780, lon.=18.684805, Alt.=417.566650m. Speed=61.236000m/h.</desc>
<speed>17.010000</speed>
</trkpt>
<trkpt lat="42.525002" lon="18.684889">
<ele>411.902588</ele>
<time>2012-05-02T07:00:14Z</time>
<desc>lat.=42.525002, lon.=18.684889, Alt.=411.902588m. Speed=64.835999m/h.</desc>
<speed>18.010000</speed>
</trkpt>
<trkpt lat="42.524197" lon="18.685102">
<ele>405.777588</ele>
<time>2012-05-02T07:00:19Z</time>
<desc>lat.=42.524197, lon.=18.685102, Alt.=405.777588m. Speed=65.375999m/h.</desc>
<speed>18.160000</speed>
</trkpt>
<trkpt lat="42.523441" lon="18.685308">
<ele>400.254150</ele>
<time>2012-05-02T07:00:24Z</time>
<desc>lat.=42.523441, lon.=18.685308, Alt.=400.254150m. Speed=56.664001m/h.</desc>
<speed>15.740000</speed>
</trkpt>
<trkpt lat="42.522758" lon="18.685352">
<ele>394.105713</ele>
<time>2012-05-02T07:00:29Z</time>
<desc>lat.=42.522758, lon.=18.685352, Alt.=394.105713m. Speed=54.216000m/h.</desc>
<speed>15.060000</speed>
</trkpt>
<trkpt lat="42.522133" lon="18.685049">
<ele>388.886963</ele>
<time>2012-05-02T07:00:34Z</time>
<desc>lat.=42.522133, lon.=18.685049, Alt.=388.886963m. Speed=53.891998m/h.</desc>
<speed>14.970000</speed>
</trkpt>
<trkpt lat="42.521664" lon="18.684387">
<ele>383.621338</ele>
<time>2012-05-02T07:00:39Z</time>
<desc>lat.=42.521664, lon.=18.684387, Alt.=383.621338m. Speed=54.792000m/h.</desc>
<speed>15.220000</speed>
</trkpt>
<trkpt lat="42.521397" lon="18.683540">
<ele>379.215088</ele>
<time>2012-05-02T07:00:44Z</time>
<desc>lat.=42.521397, lon.=18.683540, Alt.=379.215088m. Speed=52.919998m/h.</desc>
<speed>14.699999</speed>
</trkpt>
<trkpt lat="42.521061" lon="18.682831">
<ele>374.105713</ele>
<time>2012-05-02T07:00:49Z</time>
<desc>lat.=42.521061, lon.=18.682831, Alt.=374.105713m. Speed=49.104000m/h.</desc>
<speed>13.640000</speed>
</trkpt>
<trkpt lat="42.520500" lon="18.682402">
<ele>368.926025</ele>
<time>2012-05-02T07:00:54Z</time>
<desc>lat.=42.520500, lon.=18.682402, Alt.=368.926025m. Speed=53.243999m/h.</desc>
<speed>14.790000</speed>
</trkpt>
<trkpt lat="42.519962" lon="18.681868">
<ele>363.496338</ele>
<time>2012-05-02T07:00:59Z</time>
<desc>lat.=42.519962, lon.=18.681868, Alt.=363.496338m. Speed=54.972000m/h.</desc>
<speed>15.270000</speed>
</trkpt>
<trkpt lat="42.519733" lon="18.680988">
<ele>357.941650</ele>
<time>2012-05-02T07:01:04Z</time>
<desc>lat.=42.519733, lon.=18.680988, Alt.=357.941650m. Speed=56.987999m/h.</desc>
<speed>15.830000</speed>
</trkpt>
<trkpt lat="42.519848" lon="18.680016">
<ele>352.465088</ele>
<time>2012-05-02T07:01:09Z</time>
<desc>lat.=42.519848, lon.=18.680016, Alt.=352.465088m. Speed=57.924000m/h.</desc>
<speed>16.090000</speed>
</trkpt>
<trkpt lat="42.519886" lon="18.679062">
<ele>347.152588</ele>
<time>2012-05-02T07:01:14Z</time>
<desc>lat.=42.519886, lon.=18.679062, Alt.=347.152588m. Speed=56.375999m/h.</desc>
<speed>15.660000</speed>
</trkpt>
<trkpt lat="42.519646" lon="18.678154">
<ele>341.605713</ele>
<time>2012-05-02T07:01:19Z</time>
<desc>lat.=42.519646, lon.=18.678154, Alt.=341.605713m. Speed=58.068001m/h.</desc>
<speed>16.130000</speed>
</trkpt>
<trkpt lat="42.519154" lon="18.677408">
<ele>335.824463</ele>
<time>2012-05-02T07:01:24Z</time>
<desc>lat.=42.519154, lon.=18.677408, Alt.=335.824463m. Speed=60.192001m/h.</desc>
<speed>16.720000</speed>
</trkpt>
<trkpt lat="42.518581" lon="18.676683">
<ele>329.535400</ele>
<time>2012-05-02T07:01:29Z</time>
<desc>lat.=42.518581, lon.=18.676683, Alt.=329.535400m. Speed=64.188004m/h.</desc>
<speed>17.830001</speed>
</trkpt>
<trkpt lat="42.517941" lon="18.675970">
<ele>322.918213</ele>
<time>2012-05-02T07:01:34Z</time>
<desc>lat.=42.517941, lon.=18.675970, Alt.=322.918213m. Speed=67.103996m/h.</desc>
<speed>18.639999</speed>
</trkpt>
<trkpt lat="42.517162" lon="18.675470">
<ele>316.480713</ele>
<time>2012-05-02T07:01:39Z</time>
<desc>lat.=42.517162, lon.=18.675470, Alt.=316.480713m. Speed=69.372002m/h.</desc>
<speed>19.270000</speed>
</trkpt>
<trkpt lat="42.516335" lon="18.675037">
<ele>310.269775</ele>
<time>2012-05-02T07:01:44Z</time>
<desc>lat.=42.516335, lon.=18.675037, Alt.=310.269775m. Speed=71.531998m/h.</desc>
<speed>19.869999</speed>
</trkpt>
<trkpt lat="42.515491" lon="18.674601">
<ele>304.457275</ele>
<time>2012-05-02T07:01:49Z</time>
<desc>lat.=42.515491, lon.=18.674601, Alt.=304.457275m. Speed=68.940002m/h.</desc>
<speed>19.150001</speed>
</trkpt>
<trkpt lat="42.514687" lon="18.674366">
<ele>299.910400</ele>
<time>2012-05-02T07:01:54Z</time>
<desc>lat.=42.514687, lon.=18.674366, Alt.=299.910400m. Speed=65.592003m/h.</desc>
<speed>18.220001</speed>
</trkpt>
<trkpt lat="42.513905" lon="18.674269">
<ele>296.301025</ele>
<time>2012-05-02T07:01:59Z</time>
<desc>lat.=42.513905, lon.=18.674269, Alt.=296.301025m. Speed=60.299999m/h.</desc>
<speed>16.750000</speed>
</trkpt>
<trkpt lat="42.513248" lon="18.673817">
<ele>293.136963</ele>
<time>2012-05-02T07:02:04Z</time>
<desc>lat.=42.513248, lon.=18.673817, Alt.=293.136963m. Speed=59.400002m/h.</desc>
<speed>16.500000</speed>
</trkpt>
<trkpt lat="42.512630" lon="18.673214">
<ele>290.324463</ele>
<time>2012-05-02T07:02:09Z</time>
<desc>lat.=42.512630, lon.=18.673214, Alt.=290.324463m. Speed=60.948002m/h.</desc>
<speed>16.930001</speed>
</trkpt>
<trkpt lat="42.512020" lon="18.672592">
<ele>288.308838</ele>
<time>2012-05-02T07:02:14Z</time>
<desc>lat.=42.512020, lon.=18.672592, Alt.=288.308838m. Speed=61.992001m/h.</desc>
<speed>17.220000</speed>
</trkpt>
<trkpt lat="42.511456" lon="18.671879">
<ele>287.191650</ele>
<time>2012-05-02T07:02:19Z</time>
<desc>lat.=42.511456, lon.=18.671879, Alt.=287.191650m. Speed=64.008003m/h.</desc>
<speed>17.780001</speed>
</trkpt>
<trkpt lat="42.510345" lon="18.668560">
<ele>266.722900</ele>
<time>2012-05-02T07:02:40Z</time>
<desc>lat.=42.510345, lon.=18.668560, Alt.=266.722900m. Speed=50.363998m/h.</desc>
<speed>13.990000</speed>
</trkpt>
<trkpt lat="42.510063" lon="18.667574">
<ele>276.215088</ele>
<time>2012-05-02T07:02:45Z</time>
<desc>lat.=42.510063, lon.=18.667574, Alt.=276.215088m. Speed=54.431999m/h.</desc>
<speed>15.120000</speed>
</trkpt>
<trkpt lat="42.509918" lon="18.666679">
<ele>266.504150</ele>
<time>2012-05-02T07:02:50Z</time>
<desc>lat.=42.509918, lon.=18.666679, Alt.=266.504150m. Speed=51.012001m/h.</desc>
<speed>14.170000</speed>
</trkpt>
<trkpt lat="42.509670" lon="18.665918">
<ele>258.004150</ele>
<time>2012-05-02T07:02:55Z</time>
<desc>lat.=42.509670, lon.=18.665918, Alt.=258.004150m. Speed=51.624001m/h.</desc>
<speed>14.340000</speed>
</trkpt>
<trkpt lat="42.509178" lon="18.665358">
<ele>252.017700</ele>
<time>2012-05-02T07:03:00Z</time>
<desc>lat.=42.509178, lon.=18.665358, Alt.=252.017700m. Speed=52.812000m/h.</desc>
<speed>14.670000</speed>
</trkpt>
<trkpt lat="42.508545" lon="18.665009">
<ele>249.107544</ele>
<time>2012-05-02T07:03:05Z</time>
<desc>lat.=42.508545, lon.=18.665009, Alt.=249.107544m. Speed=54.216000m/h.</desc>
<speed>15.060000</speed>
</trkpt>
<trkpt lat="42.507912" lon="18.664627">
<ele>247.072388</ele>
<time>2012-05-02T07:03:10Z</time>
<desc>lat.=42.507912, lon.=18.664627, Alt.=247.072388m. Speed=55.692001m/h.</desc>
<speed>15.470000</speed>
</trkpt>
<trkpt lat="42.506195" lon="18.662329">
<ele>235.416138</ele>
<time>2012-05-02T07:03:29Z</time>
<desc>lat.=42.506195, lon.=18.662329, Alt.=235.416138m. Speed=51.480000m/h.</desc>
<speed>14.300000</speed>
</trkpt>
<trkpt lat="42.505684" lon="18.661819">
<ele>245.830200</ele>
<time>2012-05-02T07:03:34Z</time>
<desc>lat.=42.505684, lon.=18.661819, Alt.=245.830200m. Speed=51.119999m/h.</desc>
<speed>14.200000</speed>
</trkpt>
<trkpt lat="42.503525" lon="18.660027">
<ele>239.041138</ele>
<time>2012-05-02T07:03:53Z</time>
<desc>lat.=42.503525, lon.=18.660027, Alt.=239.041138m. Speed=52.848000m/h.</desc>
<speed>14.680000</speed>
</trkpt>
<trkpt lat="42.503147" lon="18.659328">
<ele>238.705200</ele>
<time>2012-05-02T07:03:58Z</time>
<desc>lat.=42.503147, lon.=18.659328, Alt.=238.705200m. Speed=50.292000m/h.</desc>
<speed>13.970000</speed>
</trkpt>
<trkpt lat="42.502117" lon="18.656368">
<ele>221.127075</ele>
<time>2012-05-02T07:04:15Z</time>
<desc>lat.=42.502117, lon.=18.656368, Alt.=221.127075m. Speed=53.784000m/h.</desc>
<speed>14.940000</speed>
</trkpt>
<trkpt lat="42.501694" lon="18.655750">
<ele>188.599731</ele>
<time>2012-05-02T07:04:20Z</time>
<desc>lat.=42.501694, lon.=18.655750, Alt.=188.599731m. Speed=56.340000m/h.</desc>
<speed>15.650000</speed>
</trkpt>
<trkpt lat="42.501068" lon="18.655209">
<ele>185.716919</ele>
<time>2012-05-02T07:04:25Z</time>
<desc>lat.=42.501068, lon.=18.655209, Alt.=185.716919m. Speed=59.400002m/h.</desc>
<speed>16.500000</speed>
</trkpt>
<trkpt lat="42.500523" lon="18.654478">
<ele>182.365356</ele>
<time>2012-05-02T07:04:30Z</time>
<desc>lat.=42.500523, lon.=18.654478, Alt.=182.365356m. Speed=62.459999m/h.</desc>
<speed>17.350000</speed>
</trkpt>
<trkpt lat="42.500050" lon="18.653627">
<ele>178.505981</ele>
<time>2012-05-02T07:04:35Z</time>
<desc>lat.=42.500050, lon.=18.653627, Alt.=178.505981m. Speed=62.820000m/h.</desc>
<speed>17.450000</speed>
</trkpt>
<trkpt lat="42.499577" lon="18.652821">
<ele>175.420044</ele>
<time>2012-05-02T07:04:40Z</time>
<desc>lat.=42.499577, lon.=18.652821, Alt.=175.420044m. Speed=57.599998m/h.</desc>
<speed>16.000000</speed>
</trkpt>
<trkpt lat="42.499027" lon="18.652262">
<ele>170.779419</ele>
<time>2012-05-02T07:04:45Z</time>
<desc>lat.=42.499027, lon.=18.652262, Alt.=170.779419m. Speed=54.612000m/h.</desc>
<speed>15.170000</speed>
</trkpt>
<trkpt lat="42.498386" lon="18.651751">
<ele>166.181763</ele>
<time>2012-05-02T07:04:50Z</time>
<desc>lat.=42.498386, lon.=18.651751, Alt.=166.181763m. Speed=69.335999m/h.</desc>
<speed>19.260000</speed>
</trkpt>
<trkpt lat="42.497688" lon="18.650951">
<ele>160.181763</ele>
<time>2012-05-02T07:04:55Z</time>
<desc>lat.=42.497688, lon.=18.650951, Alt.=160.181763m. Speed=70.019997m/h.</desc>
<speed>19.449999</speed>
</trkpt>
<trkpt lat="42.497055" lon="18.650196">
<ele>157.244263</ele>
<time>2012-05-02T07:05:00Z</time>
<desc>lat.=42.497055, lon.=18.650196, Alt.=157.244263m. Speed=64.152000m/h.</desc>
<speed>17.820000</speed>
</trkpt>
<trkpt lat="42.496456" lon="18.649521">
<ele>153.302856</ele>
<time>2012-05-02T07:05:05Z</time>
<desc>lat.=42.496456, lon.=18.649521, Alt.=153.302856m. Speed=60.804001m/h.</desc>
<speed>16.890000</speed>
</trkpt>
<trkpt lat="42.495827" lon="18.649128">
<ele>147.623169</ele>
<time>2012-05-02T07:05:10Z</time>
<desc>lat.=42.495827, lon.=18.649128, Alt.=147.623169m. Speed=50.472000m/h.</desc>
<speed>14.020000</speed>
</trkpt>
<trkpt lat="42.495289" lon="18.648743">
<ele>141.982544</ele>
<time>2012-05-02T07:05:15Z</time>
<desc>lat.=42.495289, lon.=18.648743, Alt.=141.982544m. Speed=50.112000m/h.</desc>
<speed>13.920000</speed>
</trkpt>
<trkpt lat="42.494858" lon="18.648090">
<ele>136.982544</ele>
<time>2012-05-02T07:05:20Z</time>
<desc>lat.=42.494858, lon.=18.648090, Alt.=136.982544m. Speed=53.712002m/h.</desc>
<speed>14.920001</speed>
</trkpt>
<trkpt lat="42.494453" lon="18.647331">
<ele>131.431763</ele>
<time>2012-05-02T07:05:25Z</time>
<desc>lat.=42.494453, lon.=18.647331, Alt.=131.431763m. Speed=55.476002m/h.</desc>
<speed>15.410000</speed>
</trkpt>
<trkpt lat="42.494019" lon="18.646608">
<ele>126.112366</ele>
<time>2012-05-02T07:05:30Z</time>
<desc>lat.=42.494019, lon.=18.646608, Alt.=126.112366m. Speed=56.124001m/h.</desc>
<speed>15.590000</speed>
</trkpt>
<trkpt lat="42.493385" lon="18.646133">
<ele>120.883850</ele>
<time>2012-05-02T07:05:35Z</time>
<desc>lat.=42.493385, lon.=18.646133, Alt.=120.883850m. Speed=60.155998m/h.</desc>
<speed>16.710000</speed>
</trkpt>
<trkpt lat="42.492649" lon="18.645832">
<ele>115.444397</ele>
<time>2012-05-02T07:05:40Z</time>
<desc>lat.=42.492649, lon.=18.645832, Alt.=115.444397m. Speed=59.472000m/h.</desc>
<speed>16.520000</speed>
</trkpt>
<trkpt lat="42.492016" lon="18.645388">
<ele>110.682678</ele>
<time>2012-05-02T07:05:45Z</time>
<desc>lat.=42.492016, lon.=18.645388, Alt.=110.682678m. Speed=54.647999m/h.</desc>
<speed>15.180000</speed>
</trkpt>
<trkpt lat="42.491592" lon="18.644653">
<ele>106.469788</ele>
<time>2012-05-02T07:05:50Z</time>
<desc>lat.=42.491592, lon.=18.644653, Alt.=106.469788m. Speed=57.096001m/h.</desc>
<speed>15.860000</speed>
</trkpt>
<trkpt lat="42.491310" lon="18.643826">
<ele>102.317444</ele>
<time>2012-05-02T07:05:55Z</time>
<desc>lat.=42.491310, lon.=18.643826, Alt.=102.317444m. Speed=52.380001m/h.</desc>
<speed>14.550000</speed>
</trkpt>
<trkpt lat="42.491016" lon="18.643063">
<ele>98.475647</ele>
<time>2012-05-02T07:06:00Z</time>
<desc>lat.=42.491016, lon.=18.643063, Alt.=98.475647m. Speed=48.995998m/h.</desc>
<speed>13.610000</speed>
</trkpt>
<trkpt lat="42.490612" lon="18.642567">
<ele>95.469788</ele>
<time>2012-05-02T07:06:05Z</time>
<desc>lat.=42.490612, lon.=18.642567, Alt.=95.469788m. Speed=38.231998m/h.</desc>
<speed>10.620000</speed>
</trkpt>
<trkpt lat="42.490341" lon="18.642221">
<ele>93.573303</ele>
<time>2012-05-02T07:06:10Z</time>
<desc>lat.=42.490341, lon.=18.642221, Alt.=93.573303m. Speed=24.264000m/h.</desc>
<speed>6.740000</speed>
</trkpt>
<trkpt lat="42.490192" lon="18.641945">
<ele>92.772522</ele>
<time>2012-05-02T07:06:15Z</time>
<desc>lat.=42.490192, lon.=18.641945, Alt.=92.772522m. Speed=19.584000m/h.</desc>
<speed>5.440000</speed>
</trkpt>
<trkpt lat="42.489994" lon="18.642096">
<ele>92.288147</ele>
<time>2012-05-02T07:06:20Z</time>
<desc>lat.=42.489994, lon.=18.642096, Alt.=92.288147m. Speed=25.056000m/h.</desc>
<speed>6.960000</speed>
</trkpt>
<trkpt lat="42.490276" lon="18.642559">
<ele>88.907288</ele>
<time>2012-05-02T07:06:25Z</time>
<desc>lat.=42.490276, lon.=18.642559, Alt.=88.907288m. Speed=44.568001m/h.</desc>
<speed>12.380000</speed>
</trkpt>
<trkpt lat="42.490654" lon="18.643175">
<ele>86.721741</ele>
<time>2012-05-02T07:06:30Z</time>
<desc>lat.=42.490654, lon.=18.643175, Alt.=86.721741m. Speed=47.627998m/h.</desc>
<speed>13.230000</speed>
</trkpt>
<trkpt lat="42.490948" lon="18.643906">
<ele>83.262756</ele>
<time>2012-05-02T07:06:35Z</time>
<desc>lat.=42.490948, lon.=18.643906, Alt.=83.262756m. Speed=49.355999m/h.</desc>
<speed>13.710000</speed>
</trkpt>
<trkpt lat="42.490997" lon="18.644754">
<ele>79.182678</ele>
<time>2012-05-02T07:06:40Z</time>
<desc>lat.=42.490997, lon.=18.644754, Alt.=79.182678m. Speed=49.139999m/h.</desc>
<speed>13.650000</speed>
</trkpt>
<trkpt lat="42.490910" lon="18.645561">
<ele>75.235413</ele>
<time>2012-05-02T07:06:45Z</time>
<desc>lat.=42.490910, lon.=18.645561, Alt.=75.235413m. Speed=48.276001m/h.</desc>
<speed>13.410000</speed>
</trkpt>
<trkpt lat="42.490898" lon="18.646378">
<ele>71.141663</ele>
<time>2012-05-02T07:06:50Z</time>
<desc>lat.=42.490898, lon.=18.646378, Alt.=71.141663m. Speed=48.708000m/h.</desc>
<speed>13.530000</speed>
</trkpt>
<trkpt lat="42.491196" lon="18.647099">
<ele>67.194397</ele>
<time>2012-05-02T07:06:55Z</time>
<desc>lat.=42.491196, lon.=18.647099, Alt.=67.194397m. Speed=47.484001m/h.</desc>
<speed>13.190000</speed>
</trkpt>
<trkpt lat="42.491695" lon="18.647518">
<ele>63.571808</ele>
<time>2012-05-02T07:07:00Z</time>
<desc>lat.=42.491695, lon.=18.647518, Alt.=63.571808m. Speed=47.124001m/h.</desc>
<speed>13.090000</speed>
</trkpt>
<trkpt lat="42.492203" lon="18.647877">
<ele>59.717316</ele>
<time>2012-05-02T07:07:05Z</time>
<desc>lat.=42.492203, lon.=18.647877, Alt.=59.717316m. Speed=45.540001m/h.</desc>
<speed>12.650000</speed>
</trkpt>
<trkpt lat="42.492683" lon="18.648470">
<ele>55.556183</ele>
<time>2012-05-02T07:07:10Z</time>
<desc>lat.=42.492683, lon.=18.648470, Alt.=55.556183m. Speed=64.692001m/h.</desc>
<speed>17.970000</speed>
</trkpt>
<trkpt lat="42.493336" lon="18.649363">
<ele>48.173370</ele>
<time>2012-05-02T07:07:15Z</time>
<desc>lat.=42.493336, lon.=18.649363, Alt.=48.173370m. Speed=76.643997m/h.</desc>
<speed>21.289999</speed>
</trkpt>
<trkpt lat="42.494007" lon="18.650297">
<ele>39.902863</ele>
<time>2012-05-02T07:07:20Z</time>
<desc>lat.=42.494007, lon.=18.650297, Alt.=39.902863m. Speed=74.772003m/h.</desc>
<speed>20.770001</speed>
</trkpt>
<trkpt lat="42.494518" lon="18.651314">
<ele>32.694855</ele>
<time>2012-05-02T07:07:25Z</time>
<desc>lat.=42.494518, lon.=18.651314, Alt.=32.694855m. Speed=68.400002m/h.</desc>
<speed>19.000000</speed>
</trkpt>
<trkpt lat="42.495007" lon="18.652182">
<ele>26.315689</ele>
<time>2012-05-02T07:07:30Z</time>
<desc>lat.=42.495007, lon.=18.652182, Alt.=26.315689m. Speed=60.084000m/h.</desc>
<speed>16.690000</speed>
</trkpt>
<trkpt lat="42.495243" lon="18.653048">
<ele>20.206314</ele>
<time>2012-05-02T07:07:35Z</time>
<desc>lat.=42.495243, lon.=18.653048, Alt.=20.206314m. Speed=50.436001m/h.</desc>
<speed>14.010000</speed>
</trkpt>
<trkpt lat="42.495373" lon="18.653778">
<ele>15.402473</ele>
<time>2012-05-02T07:07:40Z</time>
<desc>lat.=42.495373, lon.=18.653778, Alt.=15.402473m. Speed=44.316002m/h.</desc>
<speed>12.310001</speed>
</trkpt>
<trkpt lat="42.495651" lon="18.654373">
<ele>12.349251</ele>
<time>2012-05-02T07:07:45Z</time>
<desc>lat.=42.495651, lon.=18.654373, Alt.=12.349251m. Speed=35.639999m/h.</desc>
<speed>9.900000</speed>
</trkpt>
<trkpt lat="42.495625" lon="18.654644">
<ele>12.310432</ele>
<time>2012-05-02T07:07:50Z</time>
<desc>lat.=42.495625, lon.=18.654644, Alt.=12.310432m. Speed=21.275999m/h.</desc>
<speed>5.910000</speed>
</trkpt>
<trkpt lat="42.495335" lon="18.654369">
<ele>12.534065</ele>
<time>2012-05-02T07:07:55Z</time>
<desc>lat.=42.495335, lon.=18.654369, Alt.=12.534065m. Speed=32.183998m/h.</desc>
<speed>8.939999</speed>
</trkpt>
<trkpt lat="42.495163" lon="18.653723">
<ele>13.046272</ele>
<time>2012-05-02T07:08:00Z</time>
<desc>lat.=42.495163, lon.=18.653723, Alt.=13.046272m. Speed=45.144001m/h.</desc>
<speed>12.540000</speed>
</trkpt>
<trkpt lat="42.495022" lon="18.652939">
<ele>12.930550</ele>
<time>2012-05-02T07:08:05Z</time>
<desc>lat.=42.495022, lon.=18.652939, Alt.=12.930550m. Speed=49.896000m/h.</desc>
<speed>13.860000</speed>
</trkpt>
<trkpt lat="42.494740" lon="18.652187">
<ele>13.369514</ele>
<time>2012-05-02T07:08:10Z</time>
<desc>lat.=42.494740, lon.=18.652187, Alt.=13.369514m. Speed=47.736000m/h.</desc>
<speed>13.260000</speed>
</trkpt>
<trkpt lat="42.494335" lon="18.651703">
<ele>13.870491</ele>
<time>2012-05-02T07:08:15Z</time>
<desc>lat.=42.494335, lon.=18.651703, Alt.=13.870491m. Speed=41.543999m/h.</desc>
<speed>11.540000</speed>
</trkpt>
<trkpt lat="42.493820" lon="18.651766">
<ele>13.598274</ele>
<time>2012-05-02T07:08:20Z</time>
<desc>lat.=42.493820, lon.=18.651766, Alt.=13.598274m. Speed=40.320000m/h.</desc>
<speed>11.200000</speed>
</trkpt>
<trkpt lat="42.493343" lon="18.651564">
<ele>13.333870</ele>
<time>2012-05-02T07:08:25Z</time>
<desc>lat.=42.493343, lon.=18.651564, Alt.=13.333870m. Speed=43.307999m/h.</desc>
<speed>12.030000</speed>
</trkpt>
<trkpt lat="42.492912" lon="18.651035">
<ele>12.623909</ele>
<time>2012-05-02T07:08:30Z</time>
<desc>lat.=42.492912, lon.=18.651035, Alt.=12.623909m. Speed=48.852001m/h.</desc>
<speed>13.570000</speed>
</trkpt>
<trkpt lat="42.492390" lon="18.650536">
<ele>12.559456</ele>
<time>2012-05-02T07:08:35Z</time>
<desc>lat.=42.492390, lon.=18.650536, Alt.=12.559456m. Speed=49.931999m/h.</desc>
<speed>13.870000</speed>
</trkpt>
<trkpt lat="42.491898" lon="18.650137">
<ele>12.752815</ele>
<time>2012-05-02T07:08:40Z</time>
<desc>lat.=42.491898, lon.=18.650137, Alt.=12.752815m. Speed=41.004002m/h.</desc>
<speed>11.390000</speed>
</trkpt>
<trkpt lat="42.491394" lon="18.650202">
<ele>13.350471</ele>
<time>2012-05-02T07:08:45Z</time>
<desc>lat.=42.491394, lon.=18.650202, Alt.=13.350471m. Speed=41.220001m/h.</desc>
<speed>11.450000</speed>
</trkpt>
<trkpt lat="42.490879" lon="18.650190">
<ele>13.731819</ele>
<time>2012-05-02T07:08:50Z</time>
<desc>lat.=42.490879, lon.=18.650190, Alt.=13.731819m. Speed=44.352001m/h.</desc>
<speed>12.320000</speed>
</trkpt>
<trkpt lat="42.490414" lon="18.649742">
<ele>14.966927</ele>
<time>2012-05-02T07:08:55Z</time>
<desc>lat.=42.490414, lon.=18.649742, Alt.=14.966927m. Speed=47.340000m/h.</desc>
<speed>13.150000</speed>
</trkpt>
<trkpt lat="42.489994" lon="18.649162">
<ele>14.538948</ele>
<time>2012-05-02T07:09:00Z</time>
<desc>lat.=42.489994, lon.=18.649162, Alt.=14.538948m. Speed=47.484001m/h.</desc>
<speed>13.190000</speed>
</trkpt>
<trkpt lat="42.489456" lon="18.648947">
<ele>14.067757</ele>
<time>2012-05-02T07:09:05Z</time>
<desc>lat.=42.489456, lon.=18.648947, Alt.=14.067757m. Speed=45.647999m/h.</desc>
<speed>12.680000</speed>
</trkpt>
<trkpt lat="42.488960" lon="18.649315">
<ele>13.942757</ele>
<time>2012-05-02T07:09:10Z</time>
<desc>lat.=42.488960, lon.=18.649315, Alt.=13.942757m. Speed=46.116001m/h.</desc>
<speed>12.810000</speed>
</trkpt>
<trkpt lat="42.488636" lon="18.649992">
<ele>13.045540</ele>
<time>2012-05-02T07:09:15Z</time>
<desc>lat.=42.488636, lon.=18.649992, Alt.=13.045540m. Speed=49.355999m/h.</desc>
<speed>13.710000</speed>
</trkpt>
<trkpt lat="42.488213" lon="18.650700">
<ele>12.541389</ele>
<time>2012-05-02T07:09:20Z</time>
<desc>lat.=42.488213, lon.=18.650700, Alt.=12.541389m. Speed=55.908001m/h.</desc>
<speed>15.530000</speed>
</trkpt>
<trkpt lat="42.487679" lon="18.651243">
<ele>12.971321</ele>
<time>2012-05-02T07:09:25Z</time>
<desc>lat.=42.487679, lon.=18.651243, Alt.=12.971321m. Speed=50.688000m/h.</desc>
<speed>14.080000</speed>
</trkpt>
<trkpt lat="42.487293" lon="18.651566">
<ele>13.108040</ele>
<time>2012-05-02T07:09:30Z</time>
<desc>lat.=42.487293, lon.=18.651566, Alt.=13.108040m. Speed=16.775999m/h.</desc>
<speed>4.660000</speed>
</trkpt>
<trkpt lat="42.487267" lon="18.651598">
<ele>12.988167</ele>
<time>2012-05-02T07:09:35Z</time>
<desc>lat.=42.487267, lon.=18.651598, Alt.=12.988167m. Speed=0.000000m/h.</desc>
<speed>0.000000</speed>
</trkpt>
<trkpt lat="42.487267" lon="18.651598">
<ele>12.866585</ele>
<time>2012-05-02T07:09:40Z</time>
<desc>lat.=42.487267, lon.=18.651598, Alt.=12.866585m. Speed=4.104000m/h.</desc>
<speed>1.140000</speed>
</trkpt>
<trkpt lat="42.487148" lon="18.651741">
<ele>13.175423</ele>
<time>2012-05-02T07:09:45Z</time>
<desc>lat.=42.487148, lon.=18.651741, Alt.=13.175423m. Speed=19.620001m/h.</desc>
<speed>5.450000</speed>
</trkpt>
<trkpt lat="42.486984" lon="18.652077">
<ele>13.699837</ele>
<time>2012-05-02T07:09:50Z</time>
<desc>lat.=42.486984, lon.=18.652077, Alt.=13.699837m. Speed=24.587999m/h.</desc>
<speed>6.830000</speed>
</trkpt>
<trkpt lat="42.487034" lon="18.652554">
<ele>13.603157</ele>
<time>2012-05-02T07:09:55Z</time>
<desc>lat.=42.487034, lon.=18.652554, Alt.=13.603157m. Speed=29.556000m/h.</desc>
<speed>8.210000</speed>
</trkpt>
<trkpt lat="42.487091" lon="18.653036">
<ele>13.917122</ele>
<time>2012-05-02T07:10:00Z</time>
<desc>lat.=42.487091, lon.=18.653036, Alt.=13.917122m. Speed=29.952000m/h.</desc>
<speed>8.320000</speed>
</trkpt>
<trkpt lat="42.487106" lon="18.653625">
<ele>14.538704</ele>
<time>2012-05-02T07:10:05Z</time>
<desc>lat.=42.487106, lon.=18.653625, Alt.=14.538704m. Speed=36.612000m/h.</desc>
<speed>10.170000</speed>
</trkpt>
<trkpt lat="42.487103" lon="18.654245">
<ele>15.311409</ele>
<time>2012-05-02T07:10:10Z</time>
<desc>lat.=42.487103, lon.=18.654245, Alt.=15.311409m. Speed=34.380001m/h.</desc>
<speed>9.550000</speed>
</trkpt>
<trkpt lat="42.487061" lon="18.654936">
<ele>15.702766</ele>
<time>2012-05-02T07:10:15Z</time>
<desc>lat.=42.487061, lon.=18.654936, Alt.=15.702766m. Speed=51.695999m/h.</desc>
<speed>14.360000</speed>
</trkpt>
<trkpt lat="42.486950" lon="18.655891">
<ele>15.558723</ele>
<time>2012-05-02T07:10:20Z</time>
<desc>lat.=42.486950, lon.=18.655891, Alt.=15.558723m. Speed=58.212002m/h.</desc>
<speed>16.170001</speed>
</trkpt>
<trkpt lat="42.486885" lon="18.656841">
<ele>15.735481</ele>
<time>2012-05-02T07:10:25Z</time>
<desc>lat.=42.486885, lon.=18.656841, Alt.=15.735481m. Speed=55.223999m/h.</desc>
<speed>15.340000</speed>
</trkpt>
<trkpt lat="42.487080" lon="18.657755">
<ele>15.091682</ele>
<time>2012-05-02T07:10:30Z</time>
<desc>lat.=42.487080, lon.=18.657755, Alt.=15.091682m. Speed=52.523998m/h.</desc>
<speed>14.590000</speed>
</trkpt>
<trkpt lat="42.487106" lon="18.658604">
<ele>15.037727</ele>
<time>2012-05-02T07:10:35Z</time>
<desc>lat.=42.487106, lon.=18.658604, Alt.=15.037727m. Speed=50.256001m/h.</desc>
<speed>13.960000</speed>
</trkpt>
<trkpt lat="42.486881" lon="18.659435">
<ele>15.331184</ele>
<time>2012-05-02T07:10:40Z</time>
<desc>lat.=42.486881, lon.=18.659435, Alt.=15.331184m. Speed=52.596001m/h.</desc>
<speed>14.610000</speed>
</trkpt>
<trkpt lat="42.486988" lon="18.660290">
<ele>15.020149</ele>
<time>2012-05-02T07:10:45Z</time>
<desc>lat.=42.486988, lon.=18.660290, Alt.=15.020149m. Speed=52.416000m/h.</desc>
<speed>14.560000</speed>
</trkpt>
<trkpt lat="42.487217" lon="18.661110">
<ele>15.060432</ele>
<time>2012-05-02T07:10:50Z</time>
<desc>lat.=42.487217, lon.=18.661110, Alt.=15.060432m. Speed=52.200001m/h.</desc>
<speed>14.500000</speed>
</trkpt>
<trkpt lat="42.487232" lon="18.662024">
<ele>14.917610</ele>
<time>2012-05-02T07:10:55Z</time>
<desc>lat.=42.487232, lon.=18.662024, Alt.=14.917610m. Speed=55.692001m/h.</desc>
<speed>15.470000</speed>
</trkpt>
<trkpt lat="42.486984" lon="18.662945">
<ele>14.617561</ele>
<time>2012-05-02T07:11:00Z</time>
<desc>lat.=42.486984, lon.=18.662945, Alt.=14.617561m. Speed=58.355999m/h.</desc>
<speed>16.210000</speed>
</trkpt>
<trkpt lat="42.486813" lon="18.663879">
<ele>13.261604</ele>
<time>2012-05-02T07:11:05Z</time>
<desc>lat.=42.486813, lon.=18.663879, Alt.=13.261604m. Speed=54.936001m/h.</desc>
<speed>15.260000</speed>
</trkpt>
<trkpt lat="42.486618" lon="18.664703">
<ele>12.779427</ele>
<time>2012-05-02T07:11:10Z</time>
<desc>lat.=42.486618, lon.=18.664703, Alt.=12.779427m. Speed=49.428001m/h.</desc>
<speed>13.730000</speed>
</trkpt>
<trkpt lat="42.486362" lon="18.665428">
<ele>12.528694</ele>
<time>2012-05-02T07:11:15Z</time>
<desc>lat.=42.486362, lon.=18.665428, Alt.=12.528694m. Speed=43.848000m/h.</desc>
<speed>12.180000</speed>
</trkpt>
<trkpt lat="42.486397" lon="18.666122">
<ele>12.769661</ele>
<time>2012-05-02T07:11:20Z</time>
<desc>lat.=42.486397, lon.=18.666122, Alt.=12.769661m. Speed=40.212002m/h.</desc>
<speed>11.170001</speed>
</trkpt>
<trkpt lat="42.486465" lon="18.666819">
<ele>12.377571</ele>
<time>2012-05-02T07:11:25Z</time>
<desc>lat.=42.486465, lon.=18.666819, Alt.=12.377571m. Speed=45.071999m/h.</desc>
<speed>12.520000</speed>
</trkpt>
<trkpt lat="42.486313" lon="18.667576">
<ele>12.763313</ele>
<time>2012-05-02T07:11:30Z</time>
<desc>lat.=42.486313, lon.=18.667576, Alt.=12.763313m. Speed=48.456001m/h.</desc>
<speed>13.460000</speed>
</trkpt>
<trkpt lat="42.485989" lon="18.668240">
<ele>12.603157</ele>
<time>2012-05-02T07:11:35Z</time>
<desc>lat.=42.485989, lon.=18.668240, Alt.=12.603157m. Speed=47.268002m/h.</desc>
<speed>13.130000</speed>
</trkpt>
<trkpt lat="42.485603" lon="18.668892">
<ele>12.308968</ele>
<time>2012-05-02T07:11:40Z</time>
<desc>lat.=42.485603, lon.=18.668892, Alt.=12.308968m. Speed=53.243999m/h.</desc>
<speed>14.790000</speed>
</trkpt>
<trkpt lat="42.485279" lon="18.669685">
<ele>12.214729</ele>
<time>2012-05-02T07:11:45Z</time>
<desc>lat.=42.485279, lon.=18.669685, Alt.=12.214729m. Speed=53.063999m/h.</desc>
<speed>14.740000</speed>
</trkpt>
<trkpt lat="42.484959" lon="18.670485">
<ele>12.111702</ele>
<time>2012-05-02T07:11:50Z</time>
<desc>lat.=42.484959, lon.=18.670485, Alt.=12.111702m. Speed=55.403999m/h.</desc>
<speed>15.390000</speed>
</trkpt>
<trkpt lat="42.484669" lon="18.671350">
<ele>11.756233</ele>
<time>2012-05-02T07:11:55Z</time>
<desc>lat.=42.484669, lon.=18.671350, Alt.=11.756233m. Speed=58.896000m/h.</desc>
<speed>16.360000</speed>
</trkpt>
<trkpt lat="42.484550" lon="18.672359">
<ele>11.553108</ele>
<time>2012-05-02T07:12:00Z</time>
<desc>lat.=42.484550, lon.=18.672359, Alt.=11.553108m. Speed=59.112000m/h.</desc>
<speed>16.420000</speed>
</trkpt>
<trkpt lat="42.484501" lon="18.673323">
<ele>12.260384</ele>
<time>2012-05-02T07:12:05Z</time>
<desc>lat.=42.484501, lon.=18.673323, Alt.=12.260384m. Speed=55.368000m/h.</desc>
<speed>15.380000</speed>
</trkpt>
<trkpt lat="42.484295" lon="18.674185">
<ele>13.412971</ele>
<time>2012-05-02T07:12:10Z</time>
<desc>lat.=42.484295, lon.=18.674185, Alt.=13.412971m. Speed=54.287998m/h.</desc>
<speed>15.079999</speed>
</trkpt>
<trkpt lat="42.483906" lon="18.674969">
<ele>14.712288</ele>
<time>2012-05-02T07:12:15Z</time>
<desc>lat.=42.483906, lon.=18.674969, Alt.=14.712288m. Speed=56.844002m/h.</desc>
<speed>15.790000</speed>
</trkpt>
<trkpt lat="42.483498" lon="18.675718">
<ele>15.656868</ele>
<time>2012-05-02T07:12:20Z</time>
<desc>lat.=42.483498, lon.=18.675718, Alt.=15.656868m. Speed=53.639999m/h.</desc>
<speed>14.900000</speed>
</trkpt>
<trkpt lat="42.483196" lon="18.676550">
<ele>16.383560</ele>
<time>2012-05-02T07:12:25Z</time>
<desc>lat.=42.483196, lon.=18.676550, Alt.=16.383560m. Speed=55.835999m/h.</desc>
<speed>15.510000</speed>
</trkpt>
<trkpt lat="42.482948" lon="18.677402">
<ele>15.714485</ele>
<time>2012-05-02T07:12:30Z</time>
<desc>lat.=42.482948, lon.=18.677402, Alt.=15.714485m. Speed=55.439999m/h.</desc>
<speed>15.400000</speed>
</trkpt>
<trkpt lat="42.482609" lon="18.678305">
<ele>15.733772</ele>
<time>2012-05-02T07:12:35Z</time>
<desc>lat.=42.482609, lon.=18.678305, Alt.=15.733772m. Speed=63.827999m/h.</desc>
<speed>17.730000</speed>
</trkpt>
<trkpt lat="42.482201" lon="18.679205">
<ele>17.045181</ele>
<time>2012-05-02T07:12:40Z</time>
<desc>lat.=42.482201, lon.=18.679205, Alt.=17.045181m. Speed=60.048000m/h.</desc>
<speed>16.680000</speed>
</trkpt>
<trkpt lat="42.481815" lon="18.680069">
<ele>18.019791</ele>
<time>2012-05-02T07:12:45Z</time>
<desc>lat.=42.481815, lon.=18.680069, Alt.=18.019791m. Speed=60.515999m/h.</desc>
<speed>16.810000</speed>
</trkpt>
<trkpt lat="42.481453" lon="18.680998">
<ele>18.188736</ele>
<time>2012-05-02T07:12:50Z</time>
<desc>lat.=42.481453, lon.=18.680998, Alt.=18.188736m. Speed=62.208000m/h.</desc>
<speed>17.280000</speed>
</trkpt>
<trkpt lat="42.481106" lon="18.681942">
<ele>18.289810</ele>
<time>2012-05-02T07:12:55Z</time>
<desc>lat.=42.481106, lon.=18.681942, Alt.=18.289810m. Speed=63.180000m/h.</desc>
<speed>17.550000</speed>
</trkpt>
<trkpt lat="42.480721" lon="18.682905">
<ele>19.216080</ele>
<time>2012-05-02T07:13:00Z</time>
<desc>lat.=42.480721, lon.=18.682905, Alt.=19.216080m. Speed=65.160004m/h.</desc>
<speed>18.100001</speed>
</trkpt>
<trkpt lat="42.480331" lon="18.683886">
<ele>19.671158</ele>
<time>2012-05-02T07:13:05Z</time>
<desc>lat.=42.480331, lon.=18.683886, Alt.=19.671158m. Speed=65.412003m/h.</desc>
<speed>18.170001</speed>
</trkpt>
<trkpt lat="42.479950" lon="18.684866">
<ele>19.756607</ele>
<time>2012-05-02T07:13:10Z</time>
<desc>lat.=42.479950, lon.=18.684866, Alt.=19.756607m. Speed=63.647999m/h.</desc>
<speed>17.680000</speed>
</trkpt>
<trkpt lat="42.479523" lon="18.685740">
<ele>19.787857</ele>
<time>2012-05-02T07:13:15Z</time>
<desc>lat.=42.479523, lon.=18.685740, Alt.=19.787857m. Speed=53.388000m/h.</desc>
<speed>14.830000</speed>
</trkpt>
<trkpt lat="42.479008" lon="18.686308">
<ele>18.998795</ele>
<time>2012-05-02T07:13:20Z</time>
<desc>lat.=42.479008, lon.=18.686308, Alt.=18.998795m. Speed=41.868000m/h.</desc>
<speed>11.630000</speed>
</trkpt>
<trkpt lat="42.478531" lon="18.686338">
<ele>18.762466</ele>
<time>2012-05-02T07:13:25Z</time>
<desc>lat.=42.478531, lon.=18.686338, Alt.=18.762466m. Speed=35.136002m/h.</desc>
<speed>9.760000</speed>
</trkpt>
<trkpt lat="42.478264" lon="18.685818">
<ele>19.931900</ele>
<time>2012-05-02T07:13:30Z</time>
<desc>lat.=42.478264, lon.=18.685818, Alt.=19.931900m. Speed=37.223999m/h.</desc>
<speed>10.340000</speed>
</trkpt>
<trkpt lat="42.477898" lon="18.685383">
<ele>19.412857</ele>
<time>2012-05-02T07:13:35Z</time>
<desc>lat.=42.477898, lon.=18.685383, Alt.=19.412857m. Speed=37.980000m/h.</desc>
<speed>10.550000</speed>
</trkpt>
<trkpt lat="42.477592" lon="18.684750">
<ele>18.863052</ele>
<time>2012-05-02T07:13:40Z</time>
<desc>lat.=42.477592, lon.=18.684750, Alt.=18.863052m. Speed=49.104000m/h.</desc>
<speed>13.640000</speed>
</trkpt>
<trkpt lat="42.477150" lon="18.684055">
<ele>18.741470</ele>
<time>2012-05-02T07:13:45Z</time>
<desc>lat.=42.477150, lon.=18.684055, Alt.=18.741470m. Speed=52.992001m/h.</desc>
<speed>14.720000</speed>
</trkpt>
<trkpt lat="42.476582" lon="18.683779">
<ele>17.817154</ele>
<time>2012-05-02T07:13:50Z</time>
<desc>lat.=42.476582, lon.=18.683779, Alt.=17.817154m. Speed=45.360001m/h.</desc>
<speed>12.600000</speed>
</trkpt>
<trkpt lat="42.476101" lon="18.683765">
<ele>15.654915</ele>
<time>2012-05-02T07:13:55Z</time>
<desc>lat.=42.476101, lon.=18.683765, Alt.=15.654915m. Speed=36.720001m/h.</desc>
<speed>10.200000</speed>
</trkpt>
<trkpt lat="42.475727" lon="18.683359">
<ele>13.941780</ele>
<time>2012-05-02T07:14:00Z</time>
<desc>lat.=42.475727, lon.=18.683359, Alt.=13.941780m. Speed=40.535999m/h.</desc>
<speed>11.260000</speed>
</trkpt>
<trkpt lat="42.475281" lon="18.682972">
<ele>11.664192</ele>
<time>2012-05-02T07:14:05Z</time>
<desc>lat.=42.475281, lon.=18.682972, Alt.=11.664192m. Speed=44.063999m/h.</desc>
<speed>12.240000</speed>
</trkpt>
<trkpt lat="42.474834" lon="18.682470">
<ele>9.651253</ele>
<time>2012-05-02T07:14:10Z</time>
<desc>lat.=42.474834, lon.=18.682470, Alt.=9.651253m. Speed=47.340000m/h.</desc>
<speed>13.150000</speed>
</trkpt>
<trkpt lat="42.474407" lon="18.681889">
<ele>8.984993</ele>
<time>2012-05-02T07:14:15Z</time>
<desc>lat.=42.474407, lon.=18.681889, Alt.=8.984993m. Speed=47.952000m/h.</desc>
<speed>13.320000</speed>
</trkpt>
<trkpt lat="42.473999" lon="18.681303">
<ele>9.270393</ele>
<time>2012-05-02T07:14:20Z</time>
<desc>lat.=42.473999, lon.=18.681303, Alt.=9.270393m. Speed=47.556000m/h.</desc>
<speed>13.210000</speed>
</trkpt>
<trkpt lat="42.473537" lon="18.680807">
<ele>9.146614</ele>
<time>2012-05-02T07:14:25Z</time>
<desc>lat.=42.473537, lon.=18.680807, Alt.=9.146614m. Speed=48.167999m/h.</desc>
<speed>13.380000</speed>
</trkpt>
<trkpt lat="42.472961" lon="18.680536">
<ele>8.962532</ele>
<time>2012-05-02T07:14:30Z</time>
<desc>lat.=42.472961, lon.=18.680536, Alt.=8.962532m. Speed=48.743999m/h.</desc>
<speed>13.540000</speed>
</trkpt>
<trkpt lat="42.472378" lon="18.680496">
<ele>8.781868</ele>
<time>2012-05-02T07:14:35Z</time>
<desc>lat.=42.472378, lon.=18.680496, Alt.=8.781868m. Speed=45.287998m/h.</desc>
<speed>12.579999</speed>
</trkpt>
<trkpt lat="42.471821" lon="18.680525">
<ele>8.754768</ele>
<time>2012-05-02T07:14:40Z</time>
<desc>lat.=42.471821, lon.=18.680525, Alt.=8.754768m. Speed=45.324001m/h.</desc>
<speed>12.590000</speed>
</trkpt>
<trkpt lat="42.471298" lon="18.680296">
<ele>8.650276</ele>
<time>2012-05-02T07:14:45Z</time>
<desc>lat.=42.471298, lon.=18.680296, Alt.=8.650276m. Speed=43.776001m/h.</desc>
<speed>12.160000</speed>
</trkpt>
<trkpt lat="42.470970" lon="18.679680">
<ele>9.769905</ele>
<time>2012-05-02T07:14:50Z</time>
<desc>lat.=42.470970, lon.=18.679680, Alt.=9.769905m. Speed=47.195999m/h.</desc>
<speed>13.110000</speed>
</trkpt>
<trkpt lat="42.470795" lon="18.678913">
<ele>11.407112</ele>
<time>2012-05-02T07:14:55Z</time>
<desc>lat.=42.470795, lon.=18.678913, Alt.=11.407112m. Speed=47.664001m/h.</desc>
<speed>13.240000</speed>
</trkpt>
<trkpt lat="42.470604" lon="18.678135">
<ele>11.119514</ele>
<time>2012-05-02T07:15:00Z</time>
<desc>lat.=42.470604, lon.=18.678135, Alt.=11.119514m. Speed=47.664001m/h.</desc>
<speed>13.240000</speed>
</trkpt>
<trkpt lat="42.470215" lon="18.677574">
<ele>10.280159</ele>
<time>2012-05-02T07:15:05Z</time>
<desc>lat.=42.470215, lon.=18.677574, Alt.=10.280159m. Speed=47.268002m/h.</desc>
<speed>13.130000</speed>
</trkpt>
<trkpt lat="42.469673" lon="18.677193">
<ele>9.285042</ele>
<time>2012-05-02T07:15:10Z</time>
<desc>lat.=42.469673, lon.=18.677193, Alt.=9.285042m. Speed=48.816002m/h.</desc>
<speed>13.560001</speed>
</trkpt>
<trkpt lat="42.469193" lon="18.676710">
<ele>8.238655</ele>
<time>2012-05-02T07:15:15Z</time>
<desc>lat.=42.469193, lon.=18.676710, Alt.=8.238655m. Speed=47.088001m/h.</desc>
<speed>13.080000</speed>
</trkpt>
<trkpt lat="42.468895" lon="18.676054">
<ele>7.527653</ele>
<time>2012-05-02T07:15:20Z</time>
<desc>lat.=42.468895, lon.=18.676054, Alt.=7.527653m. Speed=46.835999m/h.</desc>
<speed>13.010000</speed>
</trkpt>
<trkpt lat="42.468456" lon="18.675543">
<ele>7.112003</ele>
<time>2012-05-02T07:15:25Z</time>
<desc>lat.=42.468456, lon.=18.675543, Alt.=7.112003m. Speed=45.324001m/h.</desc>
<speed>12.590000</speed>
</trkpt>
<trkpt lat="42.467926" lon="18.675468">
<ele>7.709782</ele>
<time>2012-05-02T07:15:30Z</time>
<desc>lat.=42.467926, lon.=18.675468, Alt.=7.709782m. Speed=39.779999m/h.</desc>
<speed>11.050000</speed>
</trkpt>
<trkpt lat="42.467484" lon="18.675344">
<ele>8.080208</ele>
<time>2012-05-02T07:15:35Z</time>
<desc>lat.=42.467484, lon.=18.675344, Alt.=8.080208m. Speed=35.279999m/h.</desc>
<speed>9.800000</speed>
</trkpt>
<trkpt lat="42.467175" lon="18.674913">
<ele>7.187321</ele>
<time>2012-05-02T07:15:40Z</time>
<desc>lat.=42.467175, lon.=18.674913, Alt.=7.187321m. Speed=36.720001m/h.</desc>
<speed>10.200000</speed>
</trkpt>
<trkpt lat="42.466942" lon="18.674421">
<ele>7.342838</ele>
<time>2012-05-02T07:15:45Z</time>
<desc>lat.=42.466942, lon.=18.674421, Alt.=7.342838m. Speed=30.959999m/h.</desc>
<speed>8.600000</speed>
</trkpt>
<trkpt lat="42.466759" lon="18.674232">
<ele>7.029484</ele>
<time>2012-05-02T07:15:50Z</time>
<desc>lat.=42.466759, lon.=18.674232, Alt.=7.029484m. Speed=10.764000m/h.</desc>
<speed>2.990000</speed>
</trkpt>
<trkpt lat="42.466633" lon="18.674021">
<ele>7.129581</ele>
<time>2012-05-02T07:15:55Z</time>
<desc>lat.=42.466633, lon.=18.674021, Alt.=7.129581m. Speed=25.200001m/h.</desc>
<speed>7.000000</speed>
</trkpt>
<trkpt lat="42.466446" lon="18.673565">
<ele>7.399601</ele>
<time>2012-05-02T07:16:00Z</time>
<desc>lat.=42.466446, lon.=18.673565, Alt.=7.399601m. Speed=33.768002m/h.</desc>
<speed>9.380000</speed>
</trkpt>
<trkpt lat="42.466076" lon="18.673265">
<ele>7.743473</ele>
<time>2012-05-02T07:16:05Z</time>
<desc>lat.=42.466076, lon.=18.673265, Alt.=7.743473m. Speed=33.048000m/h.</desc>
<speed>9.180000</speed>
</trkpt>
<trkpt lat="42.465679" lon="18.673307">
<ele>7.623966</ele>
<time>2012-05-02T07:16:10Z</time>
<desc>lat.=42.465679, lon.=18.673307, Alt.=7.623966m. Speed=29.160000m/h.</desc>
<speed>8.100000</speed>
</trkpt>
<trkpt lat="42.465248" lon="18.673328">
<ele>7.404728</ele>
<time>2012-05-02T07:16:15Z</time>
<desc>lat.=42.465248, lon.=18.673328, Alt.=7.404728m. Speed=40.464001m/h.</desc>
<speed>11.240000</speed>
</trkpt>
<trkpt lat="42.464699" lon="18.673317">
<ele>8.878792</ele>
<time>2012-05-02T07:16:20Z</time>
<desc>lat.=42.464699, lon.=18.673317, Alt.=8.878792m. Speed=43.020000m/h.</desc>
<speed>11.950000</speed>
</trkpt>
<trkpt lat="42.464149" lon="18.673336">
<ele>10.309944</ele>
<time>2012-05-02T07:16:25Z</time>
<desc>lat.=42.464149, lon.=18.673336, Alt.=10.309944m. Speed=42.804001m/h.</desc>
<speed>11.890000</speed>
</trkpt>
<trkpt lat="42.463612" lon="18.673306">
<ele>11.183235</ele>
<time>2012-05-02T07:16:30Z</time>
<desc>lat.=42.463612, lon.=18.673306, Alt.=11.183235m. Speed=43.091999m/h.</desc>
<speed>11.970000</speed>
</trkpt>
<trkpt lat="42.463074" lon="18.673012">
<ele>11.207893</ele>
<time>2012-05-02T07:16:35Z</time>
<desc>lat.=42.463074, lon.=18.673012, Alt.=11.207893m. Speed=48.132000m/h.</desc>
<speed>13.370000</speed>
</trkpt>
<trkpt lat="42.462448" lon="18.672890">
<ele>9.863167</ele>
<time>2012-05-02T07:16:40Z</time>
<desc>lat.=42.462448, lon.=18.672890, Alt.=9.863167m. Speed=51.840000m/h.</desc>
<speed>14.400000</speed>
</trkpt>
<trkpt lat="42.461830" lon="18.673176">
<ele>9.052132</ele>
<time>2012-05-02T07:16:45Z</time>
<desc>lat.=42.461830, lon.=18.673176, Alt.=9.052132m. Speed=53.891998m/h.</desc>
<speed>14.970000</speed>
</trkpt>
<trkpt lat="42.461311" lon="18.673737">
<ele>8.960579</ele>
<time>2012-05-02T07:16:50Z</time>
<desc>lat.=42.461311, lon.=18.673737, Alt.=8.960579m. Speed=51.155998m/h.</desc>
<speed>14.210000</speed>
</trkpt>
<trkpt lat="42.461010" lon="18.674463">
<ele>9.351204</ele>
<time>2012-05-02T07:16:55Z</time>
<desc>lat.=42.461010, lon.=18.674463, Alt.=9.351204m. Speed=47.088001m/h.</desc>
<speed>13.080000</speed>
</trkpt>
<trkpt lat="42.460728" lon="18.675100">
<ele>9.293098</ele>
<time>2012-05-02T07:17:00Z</time>
<desc>lat.=42.460728, lon.=18.675100, Alt.=9.293098m. Speed=41.976002m/h.</desc>
<speed>11.660000</speed>
</trkpt>
<trkpt lat="42.460281" lon="18.675461">
<ele>9.068001</ele>
<time>2012-05-02T07:17:05Z</time>
<desc>lat.=42.460281, lon.=18.675461, Alt.=9.068001m. Speed=42.192001m/h.</desc>
<speed>11.720000</speed>
</trkpt>
<trkpt lat="42.459789" lon="18.675407">
<ele>8.438606</ele>
<time>2012-05-02T07:17:10Z</time>
<desc>lat.=42.459789, lon.=18.675407, Alt.=8.438606m. Speed=38.520000m/h.</desc>
<speed>10.700000</speed>
</trkpt>
<trkpt lat="42.459515" lon="18.674868">
<ele>8.868050</ele>
<time>2012-05-02T07:17:15Z</time>
<desc>lat.=42.459515, lon.=18.674868, Alt.=8.868050m. Speed=41.507999m/h.</desc>
<speed>11.530000</speed>
</trkpt>
<trkpt lat="42.459465" lon="18.674089">
<ele>8.922981</ele>
<time>2012-05-02T07:17:20Z</time>
<desc>lat.=42.459465, lon.=18.674089, Alt.=8.922981m. Speed=51.804001m/h.</desc>
<speed>14.390000</speed>
</trkpt>
<trkpt lat="42.459457" lon="18.673174">
<ele>8.040901</ele>
<time>2012-05-02T07:17:25Z</time>
<desc>lat.=42.459457, lon.=18.673174, Alt.=8.040901m. Speed=52.523998m/h.</desc>
<speed>14.590000</speed>
</trkpt>
<trkpt lat="42.459450" lon="18.672235">
<ele>8.897102</ele>
<time>2012-05-02T07:17:30Z</time>
<desc>lat.=42.459450, lon.=18.672235, Alt.=8.897102m. Speed=57.132000m/h.</desc>
<speed>15.870000</speed>
</trkpt>
<trkpt lat="42.459255" lon="18.671288">
<ele>9.732796</ele>
<time>2012-05-02T07:17:35Z</time>
<desc>lat.=42.459255, lon.=18.671288, Alt.=9.732796m. Speed=57.816002m/h.</desc>
<speed>16.060001</speed>
</trkpt>
<trkpt lat="42.458931" lon="18.670424">
<ele>9.490608</ele>
<time>2012-05-02T07:17:40Z</time>
<desc>lat.=42.458931, lon.=18.670424, Alt.=9.490608m. Speed=56.556000m/h.</desc>
<speed>15.710000</speed>
</trkpt>
<trkpt lat="42.458504" lon="18.669641">
<ele>10.041634</ele>
<time>2012-05-02T07:17:45Z</time>
<desc>lat.=42.458504, lon.=18.669641, Alt.=10.041634m. Speed=57.060001m/h.</desc>
<speed>15.850000</speed>
</trkpt>
<trkpt lat="42.458035" lon="18.668915">
<ele>10.032356</ele>
<time>2012-05-02T07:17:50Z</time>
<desc>lat.=42.458035, lon.=18.668915, Alt.=10.032356m. Speed=56.088001m/h.</desc>
<speed>15.580000</speed>
</trkpt>
<trkpt lat="42.457645" lon="18.668182">
<ele>10.999153</ele>
<time>2012-05-02T07:17:55Z</time>
<desc>lat.=42.457645, lon.=18.668182, Alt.=10.999153m. Speed=51.731998m/h.</desc>
<speed>14.370000</speed>
</trkpt>
<trkpt lat="42.457516" lon="18.667326">
<ele>12.209602</ele>
<time>2012-05-02T07:18:00Z</time>
<desc>lat.=42.457516, lon.=18.667326, Alt.=12.209602m. Speed=56.051998m/h.</desc>
<speed>15.569999</speed>
</trkpt>
<trkpt lat="42.457508" lon="18.666359">
<ele>13.235481</ele>
<time>2012-05-02T07:18:05Z</time>
<desc>lat.=42.457508, lon.=18.666359, Alt.=13.235481m. Speed=55.476002m/h.</desc>
<speed>15.410000</speed>
</trkpt>
<trkpt lat="42.457512" lon="18.665445">
<ele>14.498421</ele>
<time>2012-05-02T07:18:10Z</time>
<desc>lat.=42.457512, lon.=18.665445, Alt.=14.498421m. Speed=52.344002m/h.</desc>
<speed>14.540000</speed>
</trkpt>
<trkpt lat="42.457493" lon="18.664539">
<ele>15.773811</ele>
<time>2012-05-02T07:18:15Z</time>
<desc>lat.=42.457493, lon.=18.664539, Alt.=15.773811m. Speed=55.368000m/h.</desc>
<speed>15.380000</speed>
</trkpt>
<trkpt lat="42.457443" lon="18.663750">
<ele>17.595963</ele>
<time>2012-05-02T07:18:20Z</time>
<desc>lat.=42.457443, lon.=18.663750, Alt.=17.595963m. Speed=30.636000m/h.</desc>
<speed>8.510000</speed>
</trkpt>
<trkpt lat="42.457386" lon="18.663288">
<ele>17.998795</ele>
<time>2012-05-02T07:18:25Z</time>
<desc>lat.=42.457386, lon.=18.663288, Alt.=17.998795m. Speed=28.007999m/h.</desc>
<speed>7.780000</speed>
</trkpt>
<trkpt lat="42.457317" lon="18.662750">
<ele>18.013443</ele>
<time>2012-05-02T07:18:30Z</time>
<desc>lat.=42.457317, lon.=18.662750, Alt.=18.013443m. Speed=38.807999m/h.</desc>
<speed>10.780000</speed>
</trkpt>
<trkpt lat="42.457188" lon="18.662035">
<ele>18.677505</ele>
<time>2012-05-02T07:18:35Z</time>
<desc>lat.=42.457188, lon.=18.662035, Alt.=18.677505m. Speed=43.487999m/h.</desc>
<speed>12.080000</speed>
</trkpt>
<trkpt lat="42.457024" lon="18.661325">
<ele>19.705338</ele>
<time>2012-05-02T07:18:40Z</time>
<desc>lat.=42.457024, lon.=18.661325, Alt.=19.705338m. Speed=45.863998m/h.</desc>
<speed>12.740000</speed>
</trkpt>
<trkpt lat="42.456818" lon="18.660608">
<ele>20.195572</ele>
<time>2012-05-02T07:18:45Z</time>
<desc>lat.=42.456818, lon.=18.660608, Alt.=20.195572m. Speed=44.712002m/h.</desc>
<speed>12.420001</speed>
</trkpt>
<trkpt lat="42.456604" lon="18.659927">
<ele>20.309830</ele>
<time>2012-05-02T07:18:50Z</time>
<desc>lat.=42.456604, lon.=18.659927, Alt.=20.309830m. Speed=43.523998m/h.</desc>
<speed>12.090000</speed>
</trkpt>
<trkpt lat="42.456360" lon="18.659250">
<ele>21.001724</ele>
<time>2012-05-02T07:18:55Z</time>
<desc>lat.=42.456360, lon.=18.659250, Alt.=21.001724m. Speed=45.863998m/h.</desc>
<speed>12.740000</speed>
</trkpt>
<trkpt lat="42.456104" lon="18.658510">
<ele>21.203384</ele>
<time>2012-05-02T07:19:00Z</time>
<desc>lat.=42.456104, lon.=18.658510, Alt.=21.203384m. Speed=48.023998m/h.</desc>
<speed>13.340000</speed>
</trkpt>
<trkpt lat="42.455856" lon="18.657814">
<ele>21.492447</ele>
<time>2012-05-02T07:19:05Z</time>
<desc>lat.=42.455856, lon.=18.657814, Alt.=21.492447m. Speed=43.380001m/h.</desc>
<speed>12.050000</speed>
</trkpt>
<trkpt lat="42.455627" lon="18.657164">
<ele>21.786392</ele>
<time>2012-05-02T07:19:10Z</time>
<desc>lat.=42.455627, lon.=18.657164, Alt.=21.786392m. Speed=43.487999m/h.</desc>
<speed>12.080000</speed>
</trkpt>
<trkpt lat="42.455387" lon="18.656492">
<ele>21.825943</ele>
<time>2012-05-02T07:19:15Z</time>
<desc>lat.=42.455387, lon.=18.656492, Alt.=21.825943m. Speed=44.028000m/h.</desc>
<speed>12.230000</speed>
</trkpt>
<trkpt lat="42.455135" lon="18.655844">
<ele>21.963150</ele>
<time>2012-05-02T07:19:20Z</time>
<desc>lat.=42.455135, lon.=18.655844, Alt.=21.963150m. Speed=43.380001m/h.</desc>
<speed>12.050000</speed>
</trkpt>
<trkpt lat="42.454865" lon="18.655207">
<ele>22.060806</ele>
<time>2012-05-02T07:19:25Z</time>
<desc>lat.=42.454865, lon.=18.655207, Alt.=22.060806m. Speed=42.731998m/h.</desc>
<speed>11.870000</speed>
</trkpt>
<trkpt lat="42.454586" lon="18.654623">
<ele>22.131119</ele>
<time>2012-05-02T07:19:30Z</time>
<desc>lat.=42.454586, lon.=18.654623, Alt.=22.131119m. Speed=40.391998m/h.</desc>
<speed>11.220000</speed>
</trkpt>
<trkpt lat="42.454285" lon="18.654057">
<ele>21.869400</ele>
<time>2012-05-02T07:19:35Z</time>
<desc>lat.=42.454285, lon.=18.654057, Alt.=21.869400m. Speed=42.084000m/h.</desc>
<speed>11.690000</speed>
</trkpt>
<trkpt lat="42.453945" lon="18.653484">
<ele>21.719498</ele>
<time>2012-05-02T07:19:40Z</time>
<desc>lat.=42.453945, lon.=18.653484, Alt.=21.719498m. Speed=44.279999m/h.</desc>
<speed>12.300000</speed>
</trkpt>
<trkpt lat="42.453598" lon="18.652910">
<ele>21.794693</ele>
<time>2012-05-02T07:19:45Z</time>
<desc>lat.=42.453598, lon.=18.652910, Alt.=21.794693m. Speed=44.568001m/h.</desc>
<speed>12.380000</speed>
</trkpt>
<trkpt lat="42.453247" lon="18.652298">
<ele>21.809341</ele>
<time>2012-05-02T07:19:50Z</time>
<desc>lat.=42.453247, lon.=18.652298, Alt.=21.809341m. Speed=46.476002m/h.</desc>
<speed>12.910000</speed>
</trkpt>
<trkpt lat="42.452885" lon="18.651674">
<ele>21.682877</ele>
<time>2012-05-02T07:19:55Z</time>
<desc>lat.=42.452885, lon.=18.651674, Alt.=21.682877m. Speed=46.764000m/h.</desc>
<speed>12.990000</speed>
</trkpt>
<trkpt lat="42.452526" lon="18.651056">
<ele>21.588638</ele>
<time>2012-05-02T07:20:00Z</time>
<desc>lat.=42.452526, lon.=18.651056, Alt.=21.588638m. Speed=44.748001m/h.</desc>
<speed>12.430000</speed>
</trkpt>
<trkpt lat="42.452160" lon="18.650459">
<ele>21.229752</ele>
<time>2012-05-02T07:20:05Z</time>
<desc>lat.=42.452160, lon.=18.650459, Alt.=21.229752m. Speed=49.464001m/h.</desc>
<speed>13.740000</speed>
</trkpt>
<trkpt lat="42.451748" lon="18.649847">
<ele>21.097916</ele>
<time>2012-05-02T07:20:10Z</time>
<desc>lat.=42.451748, lon.=18.649847, Alt.=21.097916m. Speed=47.591999m/h.</desc>
<speed>13.220000</speed>
</trkpt>
<trkpt lat="42.451332" lon="18.649248">
<ele>20.042252</ele>
<time>2012-05-02T07:20:15Z</time>
<desc>lat.=42.451332, lon.=18.649248, Alt.=20.042252m. Speed=50.112000m/h.</desc>
<speed>13.920000</speed>
</trkpt>
<trkpt lat="42.450890" lon="18.648626">
<ele>19.213150</ele>
<time>2012-05-02T07:20:20Z</time>
<desc>lat.=42.450890, lon.=18.648626, Alt.=19.213150m. Speed=51.372002m/h.</desc>
<speed>14.270000</speed>
</trkpt>
<trkpt lat="42.450481" lon="18.647980">
<ele>18.050064</ele>
<time>2012-05-02T07:20:25Z</time>
<desc>lat.=42.450481, lon.=18.647980, Alt.=18.050064m. Speed=48.924000m/h.</desc>
<speed>13.590000</speed>
</trkpt>
<trkpt lat="42.450134" lon="18.647316">
<ele>17.675064</ele>
<time>2012-05-02T07:20:30Z</time>
<desc>lat.=42.450134, lon.=18.647316, Alt.=17.675064m. Speed=48.132000m/h.</desc>
<speed>13.370000</speed>
</trkpt>
<trkpt lat="42.449829" lon="18.646626">
<ele>16.458755</ele>
<time>2012-05-02T07:20:35Z</time>
<desc>lat.=42.449829, lon.=18.646626, Alt.=16.458755m. Speed=47.520000m/h.</desc>
<speed>13.200000</speed>
</trkpt>
<trkpt lat="42.449570" lon="18.645855">
<ele>15.989632</ele>
<time>2012-05-02T07:20:40Z</time>
<desc>lat.=42.449570, lon.=18.645855, Alt.=15.989632m. Speed=52.596001m/h.</desc>
<speed>14.610000</speed>
</trkpt>
<trkpt lat="42.449303" lon="18.645065">
<ele>15.632698</ele>
<time>2012-05-02T07:20:45Z</time>
<desc>lat.=42.449303, lon.=18.645065, Alt.=15.632698m. Speed=50.040001m/h.</desc>
<speed>13.900000</speed>
</trkpt>
<trkpt lat="42.448975" lon="18.644375">
<ele>14.958870</ele>
<time>2012-05-02T07:20:50Z</time>
<desc>lat.=42.448975, lon.=18.644375, Alt.=14.958870m. Speed=48.060001m/h.</desc>
<speed>13.350000</speed>
</trkpt>
<trkpt lat="42.448578" lon="18.643761">
<ele>15.814095</ele>
<time>2012-05-02T07:20:55Z</time>
<desc>lat.=42.448578, lon.=18.643761, Alt.=15.814095m. Speed=48.132000m/h.</desc>
<speed>13.370000</speed>
</trkpt>
<trkpt lat="42.448097" lon="18.643251">
<ele>16.893326</ele>
<time>2012-05-02T07:21:00Z</time>
<desc>lat.=42.448097, lon.=18.643251, Alt.=16.893326m. Speed=47.987999m/h.</desc>
<speed>13.330000</speed>
</trkpt>
<trkpt lat="42.447559" lon="18.642838">
<ele>17.604752</ele>
<time>2012-05-02T07:21:05Z</time>
<desc>lat.=42.447559, lon.=18.642838, Alt.=17.604752m. Speed=49.608002m/h.</desc>
<speed>13.780000</speed>
</trkpt>
<trkpt lat="42.447014" lon="18.642441">
<ele>17.857681</ele>
<time>2012-05-02T07:21:10Z</time>
<desc>lat.=42.447014, lon.=18.642441, Alt.=17.857681m. Speed=48.456001m/h.</desc>
<speed>13.460000</speed>
</trkpt>
<trkpt lat="42.446541" lon="18.641932">
<ele>18.374771</ele>
<time>2012-05-02T07:21:15Z</time>
<desc>lat.=42.446541, lon.=18.641932, Alt.=18.374771m. Speed=48.456001m/h.</desc>
<speed>13.460000</speed>
</trkpt>
<trkpt lat="42.446156" lon="18.641296">
<ele>19.947037</ele>
<time>2012-05-02T07:21:20Z</time>
<desc>lat.=42.446156, lon.=18.641296, Alt.=19.947037m. Speed=50.832001m/h.</desc>
<speed>14.120000</speed>
</trkpt>
<trkpt lat="42.445827" lon="18.640549">
<ele>21.166275</ele>
<time>2012-05-02T07:21:25Z</time>
<desc>lat.=42.445827, lon.=18.640549, Alt.=21.166275m. Speed=54.144001m/h.</desc>
<speed>15.040000</speed>
</trkpt>
<trkpt lat="42.445442" lon="18.639801">
<ele>23.234634</ele>
<time>2012-05-02T07:21:30Z</time>
<desc>lat.=42.445442, lon.=18.639801, Alt.=23.234634m. Speed=52.452000m/h.</desc>
<speed>14.570000</speed>
</trkpt>
<trkpt lat="42.445049" lon="18.639160">
<ele>23.602798</ele>
<time>2012-05-02T07:21:35Z</time>
<desc>lat.=42.445049, lon.=18.639160, Alt.=23.602798m. Speed=46.835999m/h.</desc>
<speed>13.010000</speed>
</trkpt>
<trkpt lat="42.444664" lon="18.638544">
<ele>24.970963</ele>
<time>2012-05-02T07:21:40Z</time>
<desc>lat.=42.444664, lon.=18.638544, Alt.=24.970963m. Speed=47.556000m/h.</desc>
<speed>13.210000</speed>
</trkpt>
<trkpt lat="42.444317" lon="18.637922">
<ele>25.574478</ele>
<time>2012-05-02T07:21:45Z</time>
<desc>lat.=42.444317, lon.=18.637922, Alt.=25.574478m. Speed=47.448002m/h.</desc>
<speed>13.180001</speed>
</trkpt>
<trkpt lat="42.444046" lon="18.637224">
<ele>24.998306</ele>
<time>2012-05-02T07:21:50Z</time>
<desc>lat.=42.444046, lon.=18.637224, Alt.=24.998306m. Speed=47.771999m/h.</desc>
<speed>13.270000</speed>
</trkpt>
<trkpt lat="42.443848" lon="18.636450">
<ele>24.913834</ele>
<time>2012-05-02T07:21:55Z</time>
<desc>lat.=42.443848, lon.=18.636450, Alt.=24.913834m. Speed=48.528000m/h.</desc>
<speed>13.480000</speed>
</trkpt>
<trkpt lat="42.443737" lon="18.635597">
<ele>25.106705</ele>
<time>2012-05-02T07:22:00Z</time>
<desc>lat.=42.443737, lon.=18.635597, Alt.=25.106705m. Speed=54.108002m/h.</desc>
<speed>15.030000</speed>
</trkpt>
<trkpt lat="42.443687" lon="18.634686">
<ele>23.691666</ele>
<time>2012-05-02T07:22:05Z</time>
<desc>lat.=42.443687, lon.=18.634686, Alt.=23.691666m. Speed=54.180000m/h.</desc>
<speed>15.050000</speed>
</trkpt>
<trkpt lat="42.443649" lon="18.633749">
<ele>22.421646</ele>
<time>2012-05-02T07:22:10Z</time>
<desc>lat.=42.443649, lon.=18.633749, Alt.=22.421646m. Speed=55.584000m/h.</desc>
<speed>15.440000</speed>
</trkpt>
<trkpt lat="42.443596" lon="18.632778">
<ele>22.608658</ele>
<time>2012-05-02T07:22:15Z</time>
<desc>lat.=42.443596, lon.=18.632778, Alt.=22.608658m. Speed=57.743999m/h.</desc>
<speed>16.040000</speed>
</trkpt>
<trkpt lat="42.443550" lon="18.631809">
<ele>23.479263</ele>
<time>2012-05-02T07:22:20Z</time>
<desc>lat.=42.443550, lon.=18.631809, Alt.=23.479263m. Speed=55.368000m/h.</desc>
<speed>15.380000</speed>
</trkpt>
<trkpt lat="42.443508" lon="18.630894">
<ele>25.585220</ele>
<time>2012-05-02T07:22:25Z</time>
<desc>lat.=42.443508, lon.=18.630894, Alt.=25.585220m. Speed=53.063999m/h.</desc>
<speed>14.740000</speed>
</trkpt>
<trkpt lat="42.443466" lon="18.629995">
<ele>26.118912</ele>
<time>2012-05-02T07:22:30Z</time>
<desc>lat.=42.443466, lon.=18.629995, Alt.=26.118912m. Speed=53.820000m/h.</desc>
<speed>14.950000</speed>
</trkpt>
<trkpt lat="42.443420" lon="18.629068">
<ele>26.043228</ele>
<time>2012-05-02T07:22:35Z</time>
<desc>lat.=42.443420, lon.=18.629068, Alt.=26.043228m. Speed=53.675999m/h.</desc>
<speed>14.910000</speed>
</trkpt>
<trkpt lat="42.443321" lon="18.628246">
<ele>26.124771</ele>
<time>2012-05-02T07:22:40Z</time>
<desc>lat.=42.443321, lon.=18.628246, Alt.=26.124771m. Speed=45.647999m/h.</desc>
<speed>12.680000</speed>
</trkpt>
<trkpt lat="42.443092" lon="18.627453">
<ele>26.849380</ele>
<time>2012-05-02T07:22:45Z</time>
<desc>lat.=42.443092, lon.=18.627453, Alt.=26.849380m. Speed=52.812000m/h.</desc>
<speed>14.670000</speed>
</trkpt>
<trkpt lat="42.442711" lon="18.626741">
<ele>27.191177</ele>
<time>2012-05-02T07:22:50Z</time>
<desc>lat.=42.442711, lon.=18.626741, Alt.=27.191177m. Speed=51.228001m/h.</desc>
<speed>14.230000</speed>
</trkpt>
<trkpt lat="42.442295" lon="18.626106">
<ele>27.053970</ele>
<time>2012-05-02T07:22:55Z</time>
<desc>lat.=42.442295, lon.=18.626106, Alt.=27.053970m. Speed=50.327999m/h.</desc>
<speed>13.980000</speed>
</trkpt>
<trkpt lat="42.441940" lon="18.625397">
<ele>26.636490</ele>
<time>2012-05-02T07:23:00Z</time>
<desc>lat.=42.441940, lon.=18.625397, Alt.=26.636490m. Speed=46.728001m/h.</desc>
<speed>12.980000</speed>
</trkpt>
<trkpt lat="42.441776" lon="18.624765">
<ele>28.693130</ele>
<time>2012-05-02T07:23:05Z</time>
<desc>lat.=42.441776, lon.=18.624765, Alt.=28.693130m. Speed=35.136002m/h.</desc>
<speed>9.760000</speed>
</trkpt>
<trkpt lat="42.441647" lon="18.624243">
<ele>28.916275</ele>
<time>2012-05-02T07:23:10Z</time>
<desc>lat.=42.441647, lon.=18.624243, Alt.=28.916275m. Speed=30.600000m/h.</desc>
<speed>8.500000</speed>
</trkpt>
<trkpt lat="42.441532" lon="18.623732">
<ele>29.402603</ele>
<time>2012-05-02T07:23:15Z</time>
<desc>lat.=42.441532, lon.=18.623732, Alt.=29.402603m. Speed=36.000000m/h.</desc>
<speed>10.000000</speed>
</trkpt>
<trkpt lat="42.441349" lon="18.623075">
<ele>29.847916</ele>
<time>2012-05-02T07:23:20Z</time>
<desc>lat.=42.441349, lon.=18.623075, Alt.=29.847916m. Speed=42.840000m/h.</desc>
<speed>11.900000</speed>
</trkpt>
<trkpt lat="42.441040" lon="18.622486">
<ele>29.969498</ele>
<time>2012-05-02T07:23:25Z</time>
<desc>lat.=42.441040, lon.=18.622486, Alt.=29.969498m. Speed=42.119999m/h.</desc>
<speed>11.700000</speed>
</trkpt>
<trkpt lat="42.440731" lon="18.621881">
<ele>30.385025</ele>
<time>2012-05-02T07:23:30Z</time>
<desc>lat.=42.440731, lon.=18.621881, Alt.=30.385025m. Speed=45.647999m/h.</desc>
<speed>12.680000</speed>
</trkpt>
<trkpt lat="42.440495" lon="18.621130">
<ele>31.243912</ele>
<time>2012-05-02T07:23:35Z</time>
<desc>lat.=42.440495, lon.=18.621130, Alt.=31.243912m. Speed=50.652000m/h.</desc>
<speed>14.070000</speed>
</trkpt>
<trkpt lat="42.440292" lon="18.620310">
<ele>32.087433</ele>
<time>2012-05-02T07:23:40Z</time>
<desc>lat.=42.440292, lon.=18.620310, Alt.=32.087433m. Speed=49.355999m/h.</desc>
<speed>13.710000</speed>
</trkpt>
<trkpt lat="42.440166" lon="18.619495">
<ele>32.484894</ele>
<time>2012-05-02T07:23:45Z</time>
<desc>lat.=42.440166, lon.=18.619495, Alt.=32.484894m. Speed=49.931999m/h.</desc>
<speed>13.870000</speed>
</trkpt>
<trkpt lat="42.440170" lon="18.618637">
<ele>31.617447</ele>
<time>2012-05-02T07:23:50Z</time>
<desc>lat.=42.440170, lon.=18.618637, Alt.=31.617447m. Speed=50.652000m/h.</desc>
<speed>14.070000</speed>
</trkpt>
<trkpt lat="42.440258" lon="18.617781">
<ele>31.058853</ele>
<time>2012-05-02T07:23:55Z</time>
<desc>lat.=42.440258, lon.=18.617781, Alt.=31.058853m. Speed=51.551998m/h.</desc>
<speed>14.319999</speed>
</trkpt>
<trkpt lat="42.440407" lon="18.616926">
<ele>31.990982</ele>
<time>2012-05-02T07:24:00Z</time>
<desc>lat.=42.440407, lon.=18.616926, Alt.=31.990982m. Speed=51.444000m/h.</desc>
<speed>14.290000</speed>
</trkpt>
<trkpt lat="42.440441" lon="18.616079">
<ele>32.775909</ele>
<time>2012-05-02T07:24:05Z</time>
<desc>lat.=42.440441, lon.=18.616079, Alt.=32.775909m. Speed=49.535999m/h.</desc>
<speed>13.760000</speed>
</trkpt>
<trkpt lat="42.440147" lon="18.615330">
<ele>33.378448</ele>
<time>2012-05-02T07:24:10Z</time>
<desc>lat.=42.440147, lon.=18.615330, Alt.=33.378448m. Speed=52.056000m/h.</desc>
<speed>14.460000</speed>
</trkpt>
<trkpt lat="42.439705" lon="18.614723">
<ele>33.223175</ele>
<time>2012-05-02T07:24:15Z</time>
<desc>lat.=42.439705, lon.=18.614723, Alt.=33.223175m. Speed=48.096001m/h.</desc>
<speed>13.360000</speed>
</trkpt>
<trkpt lat="42.439449" lon="18.613937">
<ele>32.901886</ele>
<time>2012-05-02T07:24:20Z</time>
<desc>lat.=42.439449, lon.=18.613937, Alt.=32.901886m. Speed=53.784000m/h.</desc>
<speed>14.940000</speed>
</trkpt>
<trkpt lat="42.439259" lon="18.612999">
<ele>33.195831</ele>
<time>2012-05-02T07:24:25Z</time>
<desc>lat.=42.439259, lon.=18.612999, Alt.=33.195831m. Speed=58.967999m/h.</desc>
<speed>16.380000</speed>
</trkpt>
<trkpt lat="42.439190" lon="18.611982">
<ele>34.625519</ele>
<time>2012-05-02T07:24:30Z</time>
<desc>lat.=42.439190, lon.=18.611982, Alt.=34.625519m. Speed=62.352001m/h.</desc>
<speed>17.320000</speed>
</trkpt>
<trkpt lat="42.439209" lon="18.610964">
<ele>35.541534</ele>
<time>2012-05-02T07:24:35Z</time>
<desc>lat.=42.439209, lon.=18.610964, Alt.=35.541534m. Speed=56.015999m/h.</desc>
<speed>15.560000</speed>
</trkpt>
<trkpt lat="42.438984" lon="18.610149">
<ele>37.727081</ele>
<time>2012-05-02T07:24:40Z</time>
<desc>lat.=42.438984, lon.=18.610149, Alt.=37.727081m. Speed=50.327999m/h.</desc>
<speed>13.980000</speed>
</trkpt>
<trkpt lat="42.438454" lon="18.609732">
<ele>38.250519</ele>
<time>2012-05-02T07:24:45Z</time>
<desc>lat.=42.438454, lon.=18.609732, Alt.=38.250519m. Speed=49.139999m/h.</desc>
<speed>13.650000</speed>
</trkpt>
<trkpt lat="42.437874" lon="18.609558">
<ele>38.773956</ele>
<time>2012-05-02T07:24:50Z</time>
<desc>lat.=42.437874, lon.=18.609558, Alt.=38.773956m. Speed=46.764000m/h.</desc>
<speed>12.990000</speed>
</trkpt>
<trkpt lat="42.437397" lon="18.609108">
<ele>39.466339</ele>
<time>2012-05-02T07:24:55Z</time>
<desc>lat.=42.437397, lon.=18.609108, Alt.=39.466339m. Speed=47.520000m/h.</desc>
<speed>13.200000</speed>
</trkpt>
<trkpt lat="42.437267" lon="18.608349">
<ele>39.711456</ele>
<time>2012-05-02T07:25:00Z</time>
<desc>lat.=42.437267, lon.=18.608349, Alt.=39.711456m. Speed=46.872002m/h.</desc>
<speed>13.020000</speed>
</trkpt>
<trkpt lat="42.437469" lon="18.607662">
<ele>40.652863</ele>
<time>2012-05-02T07:25:05Z</time>
<desc>lat.=42.437469, lon.=18.607662, Alt.=40.652863m. Speed=42.911999m/h.</desc>
<speed>11.920000</speed>
</trkpt>
<trkpt lat="42.437603" lon="18.607498">
<ele>42.439972</ele>
<time>2012-05-02T07:25:10Z</time>
<desc>lat.=42.437603, lon.=18.607498, Alt.=42.439972m. Speed=0.324000m/h.</desc>
<speed>0.090000</speed>
</trkpt>
<trkpt lat="42.437607" lon="18.607489">
<ele>43.120636</ele>
<time>2012-05-02T07:25:15Z</time>
<desc>lat.=42.437607, lon.=18.607489, Alt.=43.120636m. Speed=7.488000m/h.</desc>
<speed>2.080000</speed>
</trkpt>
<trkpt lat="42.437744" lon="18.607347">
<ele>43.460480</ele>
<time>2012-05-02T07:25:20Z</time>
<desc>lat.=42.437744, lon.=18.607347, Alt.=43.460480m. Speed=21.167999m/h.</desc>
<speed>5.880000</speed>
</trkpt>
<trkpt lat="42.438046" lon="18.607082">
<ele>43.948761</ele>
<time>2012-05-02T07:25:25Z</time>
<desc>lat.=42.438046, lon.=18.607082, Alt.=43.948761m. Speed=34.056000m/h.</desc>
<speed>9.460000</speed>
</trkpt>
<trkpt lat="42.438431" lon="18.606586">
<ele>44.213409</ele>
<time>2012-05-02T07:25:30Z</time>
<desc>lat.=42.438431, lon.=18.606586, Alt.=44.213409m. Speed=45.180000m/h.</desc>
<speed>12.550000</speed>
</trkpt>
<trkpt lat="42.438637" lon="18.605844">
<ele>44.491730</ele>
<time>2012-05-02T07:25:35Z</time>
<desc>lat.=42.438637, lon.=18.605844, Alt.=44.491730m. Speed=48.240002m/h.</desc>
<speed>13.400000</speed>
</trkpt>
<trkpt lat="42.438572" lon="18.605026">
<ele>45.810089</ele>
<time>2012-05-02T07:25:40Z</time>
<desc>lat.=42.438572, lon.=18.605026, Alt.=45.810089m. Speed=49.248001m/h.</desc>
<speed>13.680000</speed>
</trkpt>
<trkpt lat="42.438351" lon="18.604284">
<ele>47.055206</ele>
<time>2012-05-02T07:25:45Z</time>
<desc>lat.=42.438351, lon.=18.604284, Alt.=47.055206m. Speed=45.720001m/h.</desc>
<speed>12.700000</speed>
</trkpt>
<trkpt lat="42.438232" lon="18.603472">
<ele>46.810089</ele>
<time>2012-05-02T07:25:50Z</time>
<desc>lat.=42.438232, lon.=18.603472, Alt.=46.810089m. Speed=50.868000m/h.</desc>
<speed>14.130000</speed>
</trkpt>
<trkpt lat="42.438202" lon="18.602610">
<ele>46.463409</ele>
<time>2012-05-02T07:25:55Z</time>
<desc>lat.=42.438202, lon.=18.602610, Alt.=46.463409m. Speed=50.652000m/h.</desc>
<speed>14.070000</speed>
</trkpt>
<trkpt lat="42.438168" lon="18.601715">
<ele>44.617706</ele>
<time>2012-05-02T07:26:00Z</time>
<desc>lat.=42.438168, lon.=18.601715, Alt.=44.617706m. Speed=53.604000m/h.</desc>
<speed>14.890000</speed>
</trkpt>
<trkpt lat="42.438141" lon="18.600801">
<ele>42.764191</ele>
<time>2012-05-02T07:26:05Z</time>
<desc>lat.=42.438141, lon.=18.600801, Alt.=42.764191m. Speed=54.863998m/h.</desc>
<speed>15.240000</speed>
</trkpt>
<trkpt lat="42.438057" lon="18.599857">
<ele>42.758331</ele>
<time>2012-05-02T07:26:10Z</time>
<desc>lat.=42.438057, lon.=18.599857, Alt.=42.758331m. Speed=54.972000m/h.</desc>
<speed>15.270000</speed>
</trkpt>
<trkpt lat="42.437962" lon="18.598957">
<ele>42.067902</ele>
<time>2012-05-02T07:26:15Z</time>
<desc>lat.=42.437962, lon.=18.598957, Alt.=42.067902m. Speed=52.812000m/h.</desc>
<speed>14.670000</speed>
</trkpt>
<trkpt lat="42.437943" lon="18.598097">
<ele>41.609894</ele>
<time>2012-05-02T07:26:20Z</time>
<desc>lat.=42.437943, lon.=18.598097, Alt.=41.609894m. Speed=48.383999m/h.</desc>
<speed>13.440000</speed>
</trkpt>
<trkpt lat="42.438141" lon="18.597408">
<ele>39.775909</ele>
<time>2012-05-02T07:26:25Z</time>
<desc>lat.=42.438141, lon.=18.597408, Alt.=39.775909m. Speed=42.588001m/h.</desc>
<speed>11.830000</speed>
</trkpt>
<trkpt lat="42.438477" lon="18.596785">
<ele>39.556183</ele>
<time>2012-05-02T07:26:30Z</time>
<desc>lat.=42.438477, lon.=18.596785, Alt.=39.556183m. Speed=50.507999m/h.</desc>
<speed>14.030000</speed>
</trkpt>
<trkpt lat="42.438641" lon="18.595890">
<ele>38.742706</ele>
<time>2012-05-02T07:26:35Z</time>
<desc>lat.=42.438641, lon.=18.595890, Alt.=38.742706m. Speed=56.375999m/h.</desc>
<speed>15.660000</speed>
</trkpt>
<trkpt lat="42.438564" lon="18.594908">
<ele>36.843292</ele>
<time>2012-05-02T07:26:40Z</time>
<desc>lat.=42.438564, lon.=18.594908, Alt.=36.843292m. Speed=60.048000m/h.</desc>
<speed>16.680000</speed>
</trkpt>
<trkpt lat="42.438381" lon="18.593958">
<ele>38.563019</ele>
<time>2012-05-02T07:26:45Z</time>
<desc>lat.=42.438381, lon.=18.593958, Alt.=38.563019m. Speed=56.015999m/h.</desc>
<speed>15.560000</speed>
</trkpt>
<trkpt lat="42.438534" lon="18.593016">
<ele>36.660675</ele>
<time>2012-05-02T07:26:50Z</time>
<desc>lat.=42.438534, lon.=18.593016, Alt.=36.660675m. Speed=61.091999m/h.</desc>
<speed>16.970000</speed>
</trkpt>
<trkpt lat="42.438904" lon="18.591999">
<ele>34.963409</ele>
<time>2012-05-02T07:26:55Z</time>
<desc>lat.=42.438904, lon.=18.591999, Alt.=34.963409m. Speed=67.463997m/h.</desc>
<speed>18.739999</speed>
</trkpt>
<trkpt lat="42.439262" lon="18.590998">
<ele>33.124542</ele>
<time>2012-05-02T07:27:00Z</time>
<desc>lat.=42.439262, lon.=18.590998, Alt.=33.124542m. Speed=63.540001m/h.</desc>
<speed>17.650000</speed>
</trkpt>
<trkpt lat="42.439507" lon="18.590033">
<ele>31.483658</ele>
<time>2012-05-02T07:27:05Z</time>
<desc>lat.=42.439507, lon.=18.590033, Alt.=31.483658m. Speed=57.563999m/h.</desc>
<speed>15.990000</speed>
</trkpt>
<trkpt lat="42.439491" lon="18.589142">
<ele>30.192154</ele>
<time>2012-05-02T07:27:10Z</time>
<desc>lat.=42.439491, lon.=18.589142, Alt.=30.192154m. Speed=49.644001m/h.</desc>
<speed>13.790000</speed>
</trkpt>
<trkpt lat="42.439453" lon="18.588356">
<ele>28.650650</ele>
<time>2012-05-02T07:27:15Z</time>
<desc>lat.=42.439453, lon.=18.588356, Alt.=28.650650m. Speed=44.316002m/h.</desc>
<speed>12.310001</speed>
</trkpt>
<trkpt lat="42.439659" lon="18.587688">
<ele>27.562759</ele>
<time>2012-05-02T07:27:20Z</time>
<desc>lat.=42.439659, lon.=18.587688, Alt.=27.562759m. Speed=45.360001m/h.</desc>
<speed>12.600000</speed>
</trkpt>
<trkpt lat="42.440083" lon="18.587135">
<ele>27.961197</ele>
<time>2012-05-02T07:27:25Z</time>
<desc>lat.=42.440083, lon.=18.587135, Alt.=27.961197m. Speed=48.383999m/h.</desc>
<speed>13.440000</speed>
</trkpt>
<trkpt lat="42.440357" lon="18.586370">
<ele>26.499283</ele>
<time>2012-05-02T07:27:30Z</time>
<desc>lat.=42.440357, lon.=18.586370, Alt.=26.499283m. Speed=53.208000m/h.</desc>
<speed>14.780000</speed>
</trkpt>
<trkpt lat="42.440495" lon="18.585556">
<ele>26.153091</ele>
<time>2012-05-02T07:27:35Z</time>
<desc>lat.=42.440495, lon.=18.585556, Alt.=26.153091m. Speed=46.619999m/h.</desc>
<speed>12.950000</speed>
</trkpt>
<trkpt lat="42.440807" lon="18.584938">
<ele>26.867935</ele>
<time>2012-05-02T07:27:40Z</time>
<desc>lat.=42.440807, lon.=18.584938, Alt.=26.867935m. Speed=41.796001m/h.</desc>
<speed>11.610000</speed>
</trkpt>
<trkpt lat="42.441261" lon="18.584600">
<ele>25.547134</ele>
<time>2012-05-02T07:27:45Z</time>
<desc>lat.=42.441261, lon.=18.584600, Alt.=25.547134m. Speed=45.900002m/h.</desc>
<speed>12.750000</speed>
</trkpt>
<trkpt lat="42.441952" lon="18.584423">
<ele>25.590591</ele>
<time>2012-05-02T07:27:50Z</time>
<desc>lat.=42.441952, lon.=18.584423, Alt.=25.590591m. Speed=56.987999m/h.</desc>
<speed>15.830000</speed>
</trkpt>
<trkpt lat="42.442638" lon="18.584181">
<ele>25.030045</ele>
<time>2012-05-02T07:27:55Z</time>
<desc>lat.=42.442638, lon.=18.584181, Alt.=25.030045m. Speed=56.268002m/h.</desc>
<speed>15.630000</speed>
</trkpt>
<trkpt lat="42.443188" lon="18.583670">
<ele>24.106705</ele>
<time>2012-05-02T07:28:00Z</time>
<desc>lat.=42.443188, lon.=18.583670, Alt.=24.106705m. Speed=54.108002m/h.</desc>
<speed>15.030000</speed>
</trkpt>
<trkpt lat="42.443478" lon="18.582829">
<ele>23.051529</ele>
<time>2012-05-02T07:28:05Z</time>
<desc>lat.=42.443478, lon.=18.582829, Alt.=23.051529m. Speed=57.419998m/h.</desc>
<speed>15.949999</speed>
</trkpt>
<trkpt lat="42.443546" lon="18.581795">
<ele>21.886978</ele>
<time>2012-05-02T07:28:10Z</time>
<desc>lat.=42.443546, lon.=18.581795, Alt.=21.886978m. Speed=61.740002m/h.</desc>
<speed>17.150000</speed>
</trkpt>
<trkpt lat="42.443645" lon="18.580751">
<ele>20.837173</ele>
<time>2012-05-02T07:28:15Z</time>
<desc>lat.=42.443645, lon.=18.580751, Alt.=20.837173m. Speed=63.324001m/h.</desc>
<speed>17.590000</speed>
</trkpt>
<trkpt lat="42.443863" lon="18.579739">
<ele>20.070084</ele>
<time>2012-05-02T07:28:20Z</time>
<desc>lat.=42.443863, lon.=18.579739, Alt.=20.070084m. Speed=61.452000m/h.</desc>
<speed>17.070000</speed>
</trkpt>
<trkpt lat="42.444252" lon="18.578859">
<ele>18.511002</ele>
<time>2012-05-02T07:28:25Z</time>
<desc>lat.=42.444252, lon.=18.578859, Alt.=18.511002m. Speed=61.056000m/h.</desc>
<speed>16.960000</speed>
</trkpt>
<trkpt lat="42.444775" lon="18.578138">
<ele>17.795670</ele>
<time>2012-05-02T07:28:30Z</time>
<desc>lat.=42.444775, lon.=18.578138, Alt.=17.795670m. Speed=56.375999m/h.</desc>
<speed>15.660000</speed>
</trkpt>
<trkpt lat="42.445374" lon="18.577663">
<ele>16.561295</ele>
<time>2012-05-02T07:28:35Z</time>
<desc>lat.=42.445374, lon.=18.577663, Alt.=16.561295m. Speed=56.520000m/h.</desc>
<speed>15.700000</speed>
</trkpt>
<trkpt lat="42.446003" lon="18.577213">
<ele>13.721077</ele>
<time>2012-05-02T07:28:40Z</time>
<desc>lat.=42.446003, lon.=18.577213, Alt.=13.721077m. Speed=56.664001m/h.</desc>
<speed>15.740000</speed>
</trkpt>
<trkpt lat="42.446594" lon="18.576668">
<ele>12.589485</ele>
<time>2012-05-02T07:28:45Z</time>
<desc>lat.=42.446594, lon.=18.576668, Alt.=12.589485m. Speed=55.007999m/h.</desc>
<speed>15.280000</speed>
</trkpt>
<trkpt lat="42.447124" lon="18.576145">
<ele>12.443489</ele>
<time>2012-05-02T07:28:50Z</time>
<desc>lat.=42.447124, lon.=18.576145, Alt.=12.443489m. Speed=50.472000m/h.</desc>
<speed>14.020000</speed>
</trkpt>
<trkpt lat="42.447609" lon="18.575661">
<ele>12.075569</ele>
<time>2012-05-02T07:28:55Z</time>
<desc>lat.=42.447609, lon.=18.575661, Alt.=12.075569m. Speed=45.216000m/h.</desc>
<speed>12.560000</speed>
</trkpt>
<trkpt lat="42.448021" lon="18.575235">
<ele>13.272835</ele>
<time>2012-05-02T07:29:00Z</time>
<desc>lat.=42.448021, lon.=18.575235, Alt.=13.272835m. Speed=40.212002m/h.</desc>
<speed>11.170001</speed>
</trkpt>
<trkpt lat="42.448421" lon="18.574827">
<ele>13.568489</ele>
<time>2012-05-02T07:29:05Z</time>
<desc>lat.=42.448421, lon.=18.574827, Alt.=13.568489m. Speed=38.987999m/h.</desc>
<speed>10.830000</speed>
</trkpt>
<trkpt lat="42.448772" lon="18.574453">
<ele>13.715950</ele>
<time>2012-05-02T07:29:10Z</time>
<desc>lat.=42.448772, lon.=18.574453, Alt.=13.715950m. Speed=32.543999m/h.</desc>
<speed>9.040000</speed>
</trkpt>
<trkpt lat="42.449081" lon="18.574106">
<ele>12.607063</ele>
<time>2012-05-02T07:29:15Z</time>
<desc>lat.=42.449081, lon.=18.574106, Alt.=12.607063m. Speed=35.639999m/h.</desc>
<speed>9.900000</speed>
</trkpt>
<trkpt lat="42.449516" lon="18.573772">
<ele>12.520393</ele>
<time>2012-05-02T07:29:20Z</time>
<desc>lat.=42.449516, lon.=18.573772, Alt.=12.520393m. Speed=40.068001m/h.</desc>
<speed>11.130000</speed>
</trkpt>
<trkpt lat="42.449997" lon="18.573570">
<ele>11.668343</ele>
<time>2012-05-02T07:29:25Z</time>
<desc>lat.=42.449997, lon.=18.573570, Alt.=11.668343m. Speed=39.779999m/h.</desc>
<speed>11.050000</speed>
</trkpt>
<trkpt lat="42.450432" lon="18.573349">
<ele>12.504768</ele>
<time>2012-05-02T07:29:30Z</time>
<desc>lat.=42.450432, lon.=18.573349, Alt.=12.504768m. Speed=26.028000m/h.</desc>
<speed>7.230000</speed>
</trkpt>
<trkpt lat="42.450699" lon="18.573135">
<ele>12.750862</ele>
<time>2012-05-02T07:29:35Z</time>
<desc>lat.=42.450699, lon.=18.573135, Alt.=12.750862m. Speed=27.072001m/h.</desc>
<speed>7.520000</speed>
</trkpt>
<trkpt lat="42.450996" lon="18.572828">
<ele>12.634895</ele>
<time>2012-05-02T07:29:40Z</time>
<desc>lat.=42.450996, lon.=18.572828, Alt.=12.634895m. Speed=30.996000m/h.</desc>
<speed>8.610000</speed>
</trkpt>
<trkpt lat="42.451298" lon="18.572456">
<ele>13.391975</ele>
<time>2012-05-02T07:29:45Z</time>
<desc>lat.=42.451298, lon.=18.572456, Alt.=13.391975m. Speed=34.740002m/h.</desc>
<speed>9.650000</speed>
</trkpt>
<trkpt lat="42.451591" lon="18.571945">
<ele>12.550423</ele>
<time>2012-05-02T07:29:50Z</time>
<desc>lat.=42.451591, lon.=18.571945, Alt.=12.550423m. Speed=41.327999m/h.</desc>
<speed>11.480000</speed>
</trkpt>
<trkpt lat="42.451851" lon="18.571291">
<ele>12.204964</ele>
<time>2012-05-02T07:29:55Z</time>
<desc>lat.=42.451851, lon.=18.571291, Alt.=12.204964m. Speed=45.071999m/h.</desc>
<speed>12.520000</speed>
</trkpt>
<trkpt lat="42.452168" lon="18.570663">
<ele>10.871223</ele>
<time>2012-05-02T07:30:00Z</time>
<desc>lat.=42.452168, lon.=18.570663, Alt.=10.871223m. Speed=45.576000m/h.</desc>
<speed>12.660000</speed>
</trkpt>
<trkpt lat="42.452694" lon="18.570122">
<ele>11.208626</ele>
<time>2012-05-02T07:30:05Z</time>
<desc>lat.=42.452694, lon.=18.570122, Alt.=11.208626m. Speed=59.832001m/h.</desc>
<speed>16.620000</speed>
</trkpt>
<trkpt lat="42.453312" lon="18.569508">
<ele>14.405403</ele>
<time>2012-05-02T07:30:10Z</time>
<desc>lat.=42.453312, lon.=18.569508, Alt.=14.405403m. Speed=62.243999m/h.</desc>
<speed>17.290000</speed>
</trkpt>
<trkpt lat="42.453945" lon="18.568836">
<ele>18.648697</ele>
<time>2012-05-02T07:30:15Z</time>
<desc>lat.=42.453945, lon.=18.568836, Alt.=18.648697m. Speed=62.424000m/h.</desc>
<speed>17.340000</speed>
</trkpt>
<trkpt lat="42.454510" lon="18.568155">
<ele>25.396744</ele>
<time>2012-05-02T07:30:20Z</time>
<desc>lat.=42.454510, lon.=18.568155, Alt.=25.396744m. Speed=54.576000m/h.</desc>
<speed>15.160000</speed>
</trkpt>
<trkpt lat="42.454971" lon="18.567677">
<ele>29.750748</ele>
<time>2012-05-02T07:30:25Z</time>
<desc>lat.=42.454971, lon.=18.567677, Alt.=29.750748m. Speed=43.596001m/h.</desc>
<speed>12.110000</speed>
</trkpt>
<trkpt lat="42.455585" lon="18.566381">
<ele>38.522980</ele>
<time>2012-05-02T07:30:33Z</time>
<desc>lat.=42.455585, lon.=18.566381, Alt.=38.522980m. Speed=46.548000m/h.</desc>
<speed>12.930000</speed>
</trkpt>
<trkpt lat="42.455723" lon="18.565540">
<ele>33.302277</ele>
<time>2012-05-02T07:30:38Z</time>
<desc>lat.=42.455723, lon.=18.565540, Alt.=33.302277m. Speed=46.584000m/h.</desc>
<speed>12.940000</speed>
</trkpt>
<trkpt lat="42.455677" lon="18.564734">
<ele>30.344498</ele>
<time>2012-05-02T07:30:43Z</time>
<desc>lat.=42.455677, lon.=18.564734, Alt.=30.344498m. Speed=50.472000m/h.</desc>
<speed>14.020000</speed>
</trkpt>
<trkpt lat="42.455505" lon="18.563879">
<ele>26.890884</ele>
<time>2012-05-02T07:30:48Z</time>
<desc>lat.=42.455505, lon.=18.563879, Alt.=26.890884m. Speed=54.108002m/h.</desc>
<speed>15.030000</speed>
</trkpt>
<trkpt lat="42.455338" lon="18.562988">
<ele>22.245865</ele>
<time>2012-05-02T07:30:53Z</time>
<desc>lat.=42.455338, lon.=18.562988, Alt.=22.245865m. Speed=50.220001m/h.</desc>
<speed>13.950000</speed>
</trkpt>
<trkpt lat="42.455250" lon="18.562216">
<ele>19.578384</ele>
<time>2012-05-02T07:30:58Z</time>
<desc>lat.=42.455250, lon.=18.562216, Alt.=19.578384m. Speed=43.344002m/h.</desc>
<speed>12.040000</speed>
</trkpt>
<trkpt lat="42.455227" lon="18.561527">
<ele>18.300552</ele>
<time>2012-05-02T07:31:03Z</time>
<desc>lat.=42.455227, lon.=18.561527, Alt.=18.300552m. Speed=39.816002m/h.</desc>
<speed>11.060001</speed>
</trkpt>
<trkpt lat="42.455242" lon="18.560888">
<ele>16.522232</ele>
<time>2012-05-02T07:31:08Z</time>
<desc>lat.=42.455242, lon.=18.560888, Alt.=16.522232m. Speed=36.900002m/h.</desc>
<speed>10.250000</speed>
</trkpt>
<trkpt lat="42.455288" lon="18.560265">
<ele>15.004768</ele>
<time>2012-05-02T07:31:13Z</time>
<desc>lat.=42.455288, lon.=18.560265, Alt.=15.004768m. Speed=36.180000m/h.</desc>
<speed>10.050000</speed>
</trkpt>
<trkpt lat="42.455303" lon="18.559683">
<ele>14.943733</ele>
<time>2012-05-02T07:31:18Z</time>
<desc>lat.=42.455303, lon.=18.559683, Alt.=14.943733m. Speed=33.768002m/h.</desc>
<speed>9.380000</speed>
</trkpt>
<trkpt lat="42.455276" lon="18.559135">
<ele>15.972542</ele>
<time>2012-05-02T07:31:23Z</time>
<desc>lat.=42.455276, lon.=18.559135, Alt.=15.972542m. Speed=30.708000m/h.</desc>
<speed>8.530000</speed>
</trkpt>
<trkpt lat="42.455223" lon="18.558662">
<ele>16.548111</ele>
<time>2012-05-02T07:31:28Z</time>
<desc>lat.=42.455223, lon.=18.558662, Alt.=16.548111m. Speed=26.424000m/h.</desc>
<speed>7.340000</speed>
</trkpt>
<trkpt lat="42.455235" lon="18.558256">
<ele>17.477310</ele>
<time>2012-05-02T07:31:33Z</time>
<desc>lat.=42.455235, lon.=18.558256, Alt.=17.477310m. Speed=24.804001m/h.</desc>
<speed>6.890000</speed>
</trkpt>
<trkpt lat="42.454994" lon="18.558199">
<ele>16.847916</ele>
<time>2012-05-02T07:31:38Z</time>
<desc>lat.=42.454994, lon.=18.558199, Alt.=16.847916m. Speed=21.851999m/h.</desc>
<speed>6.070000</speed>
</trkpt>
<trkpt lat="42.454731" lon="18.558407">
<ele>16.037369</ele>
<time>2012-05-02T07:31:43Z</time>
<desc>lat.=42.454731, lon.=18.558407, Alt.=16.037369m. Speed=27.864000m/h.</desc>
<speed>7.740000</speed>
</trkpt>
<trkpt lat="42.454357" lon="18.558464">
<ele>16.804459</ele>
<time>2012-05-02T07:31:48Z</time>
<desc>lat.=42.454357, lon.=18.558464, Alt.=16.804459m. Speed=29.448000m/h.</desc>
<speed>8.180000</speed>
</trkpt>
<trkpt lat="42.453949" lon="18.558456">
<ele>18.278091</ele>
<time>2012-05-02T07:31:53Z</time>
<desc>lat.=42.453949, lon.=18.558456, Alt.=18.278091m. Speed=34.307999m/h.</desc>
<speed>9.530000</speed>
</trkpt>
<trkpt lat="42.453541" lon="18.558294">
<ele>21.384048</ele>
<time>2012-05-02T07:31:58Z</time>
<desc>lat.=42.453541, lon.=18.558294, Alt.=21.384048m. Speed=34.956001m/h.</desc>
<speed>9.710000</speed>
</trkpt>
<trkpt lat="42.453190" lon="18.558004">
<ele>23.577896</ele>
<time>2012-05-02T07:32:03Z</time>
<desc>lat.=42.453190, lon.=18.558004, Alt.=23.577896m. Speed=32.616001m/h.</desc>
<speed>9.060000</speed>
</trkpt>
<trkpt lat="42.452904" lon="18.557598">
<ele>25.464615</ele>
<time>2012-05-02T07:32:08Z</time>
<desc>lat.=42.452904, lon.=18.557598, Alt.=25.464615m. Speed=32.903999m/h.</desc>
<speed>9.140000</speed>
</trkpt>
<trkpt lat="42.452675" lon="18.557085">
<ele>26.757584</ele>
<time>2012-05-02T07:32:13Z</time>
<desc>lat.=42.452675, lon.=18.557085, Alt.=26.757584m. Speed=39.599998m/h.</desc>
<speed>11.000000</speed>
</trkpt>
<trkpt lat="42.452366" lon="18.556482">
<ele>26.896744</ele>
<time>2012-05-02T07:32:18Z</time>
<desc>lat.=42.452366, lon.=18.556482, Alt.=26.896744m. Speed=42.155998m/h.</desc>
<speed>11.710000</speed>
</trkpt>
<trkpt lat="42.452019" lon="18.555946">
<ele>27.647720</ele>
<time>2012-05-02T07:32:23Z</time>
<desc>lat.=42.452019, lon.=18.555946, Alt.=27.647720m. Speed=39.060001m/h.</desc>
<speed>10.850000</speed>
</trkpt>
<trkpt lat="42.451809" lon="18.555382">
<ele>29.994888</ele>
<time>2012-05-02T07:32:28Z</time>
<desc>lat.=42.451809, lon.=18.555382, Alt.=29.994888m. Speed=38.195999m/h.</desc>
<speed>10.610000</speed>
</trkpt>
<trkpt lat="42.451702" lon="18.554747">
<ele>32.570831</ele>
<time>2012-05-02T07:32:33Z</time>
<desc>lat.=42.451702, lon.=18.554747, Alt.=32.570831m. Speed=41.183998m/h.</desc>
<speed>11.439999</speed>
</trkpt>
<trkpt lat="42.451611" lon="18.554100">
<ele>35.809113</ele>
<time>2012-05-02T07:32:38Z</time>
<desc>lat.=42.451611, lon.=18.554100, Alt.=35.809113m. Speed=34.596001m/h.</desc>
<speed>9.610000</speed>
</trkpt>
<trkpt lat="42.451569" lon="18.553589">
<ele>37.023956</ele>
<time>2012-05-02T07:32:43Z</time>
<desc>lat.=42.451569, lon.=18.553589, Alt.=37.023956m. Speed=30.384001m/h.</desc>
<speed>8.440000</speed>
</trkpt>
<trkpt lat="42.451347" lon="18.553154">
<ele>37.727081</ele>
<time>2012-05-02T07:32:48Z</time>
<desc>lat.=42.451347, lon.=18.553154, Alt.=37.727081m. Speed=33.012001m/h.</desc>
<speed>9.170000</speed>
</trkpt>
<trkpt lat="42.451015" lon="18.552824">
<ele>35.875519</ele>
<time>2012-05-02T07:32:53Z</time>
<desc>lat.=42.451015, lon.=18.552824, Alt.=35.875519m. Speed=27.431999m/h.</desc>
<speed>7.620000</speed>
</trkpt>
<trkpt lat="42.450897" lon="18.552603">
<ele>34.313019</ele>
<time>2012-05-02T07:32:58Z</time>
<desc>lat.=42.450897, lon.=18.552603, Alt.=34.313019m. Speed=9.360000m/h.</desc>
<speed>2.600000</speed>
</trkpt>
<trkpt lat="42.450848" lon="18.552435">
<ele>34.250519</ele>
<time>2012-05-02T07:33:03Z</time>
<desc>lat.=42.450848, lon.=18.552435, Alt.=34.250519m. Speed=16.848000m/h.</desc>
<speed>4.680000</speed>
</trkpt>
<trkpt lat="42.450771" lon="18.552063">
<ele>35.297394</ele>
<time>2012-05-02T07:33:08Z</time>
<desc>lat.=42.450771, lon.=18.552063, Alt.=35.297394m. Speed=29.771999m/h.</desc>
<speed>8.270000</speed>
</trkpt>
<trkpt lat="42.450603" lon="18.551565">
<ele>36.854034</ele>
<time>2012-05-02T07:33:13Z</time>
<desc>lat.=42.450603, lon.=18.551565, Alt.=36.854034m. Speed=30.275999m/h.</desc>
<speed>8.410000</speed>
</trkpt>
<trkpt lat="42.450474" lon="18.551142">
<ele>37.973175</ele>
<time>2012-05-02T07:33:18Z</time>
<desc>lat.=42.450474, lon.=18.551142, Alt.=37.973175m. Speed=25.775999m/h.</desc>
<speed>7.160000</speed>
</trkpt>
<trkpt lat="42.450489" lon="18.550646">
<ele>38.608917</ele>
<time>2012-05-02T07:33:23Z</time>
<desc>lat.=42.450489, lon.=18.550646, Alt.=38.608917m. Speed=32.759998m/h.</desc>
<speed>9.100000</speed>
</trkpt>
<trkpt lat="42.450535" lon="18.550121">
<ele>40.131378</ele>
<time>2012-05-02T07:33:28Z</time>
<desc>lat.=42.450535, lon.=18.550121, Alt.=40.131378m. Speed=26.712000m/h.</desc>
<speed>7.420000</speed>
</trkpt>
<trkpt lat="42.450493" lon="18.549723">
<ele>39.942902</ele>
<time>2012-05-02T07:33:33Z</time>
<desc>lat.=42.450493, lon.=18.549723, Alt.=39.942902m. Speed=22.716000m/h.</desc>
<speed>6.310000</speed>
</trkpt>
<trkpt lat="42.450550" lon="18.549322">
<ele>41.180206</ele>
<time>2012-05-02T07:33:38Z</time>
<desc>lat.=42.450550, lon.=18.549322, Alt.=41.180206m. Speed=27.000000m/h.</desc>
<speed>7.500000</speed>
</trkpt>
<trkpt lat="42.450665" lon="18.548899">
<ele>43.803253</ele>
<time>2012-05-02T07:33:43Z</time>
<desc>lat.=42.450665, lon.=18.548899, Alt.=43.803253m. Speed=26.496000m/h.</desc>
<speed>7.360000</speed>
</trkpt>
<trkpt lat="42.450729" lon="18.548517">
<ele>44.222198</ele>
<time>2012-05-02T07:33:48Z</time>
<desc>lat.=42.450729, lon.=18.548517, Alt.=44.222198m. Speed=19.764000m/h.</desc>
<speed>5.490000</speed>
</trkpt>
<trkpt lat="42.450806" lon="18.548285">
<ele>43.828644</ele>
<time>2012-05-02T07:33:53Z</time>
<desc>lat.=42.450806, lon.=18.548285, Alt.=43.828644m. Speed=15.480000m/h.</desc>
<speed>4.300000</speed>
</trkpt>
<trkpt lat="42.450932" lon="18.548084">
<ele>43.592316</ele>
<time>2012-05-02T07:33:58Z</time>
<desc>lat.=42.450932, lon.=18.548084, Alt.=43.592316m. Speed=11.088000m/h.</desc>
<speed>3.080000</speed>
</trkpt>
<trkpt lat="42.450958" lon="18.548067">
<ele>43.728058</ele>
<time>2012-05-02T07:34:03Z</time>
<desc>lat.=42.450958, lon.=18.548067, Alt.=43.728058m. Speed=0.072000m/h.</desc>
<speed>0.020000</speed>
</trkpt>
<trkpt lat="42.450985" lon="18.547974">
<ele>43.526886</ele>
<time>2012-05-02T07:34:08Z</time>
<desc>lat.=42.450985, lon.=18.547974, Alt.=43.526886m. Speed=11.664000m/h.</desc>
<speed>3.240000</speed>
</trkpt>
<trkpt lat="42.451019" lon="18.547800">
<ele>44.385284</ele>
<time>2012-05-02T07:34:13Z</time>
<desc>lat.=42.451019, lon.=18.547800, Alt.=44.385284m. Speed=3.816000m/h.</desc>
<speed>1.060000</speed>
</trkpt>
<trkpt lat="42.451012" lon="18.547752">
<ele>44.586456</ele>
<time>2012-05-02T07:34:18Z</time>
<desc>lat.=42.451012, lon.=18.547752, Alt.=44.586456m. Speed=7.308000m/h.</desc>
<speed>2.030000</speed>
</trkpt>
<trkpt lat="42.450996" lon="18.547562">
<ele>44.983917</ele>
<time>2012-05-02T07:34:23Z</time>
<desc>lat.=42.450996, lon.=18.547562, Alt.=44.983917m. Speed=15.084000m/h.</desc>
<speed>4.190000</speed>
</trkpt>
<trkpt lat="42.450958" lon="18.547285">
<ele>45.384308</ele>
<time>2012-05-02T07:34:28Z</time>
<desc>lat.=42.450958, lon.=18.547285, Alt.=45.384308m. Speed=16.056000m/h.</desc>
<speed>4.460000</speed>
</trkpt>
<trkpt lat="42.450932" lon="18.547087">
<ele>45.298370</ele>
<time>2012-05-02T07:34:33Z</time>
<desc>lat.=42.450932, lon.=18.547087, Alt.=45.298370m. Speed=11.376000m/h.</desc>
<speed>3.160000</speed>
</trkpt>
<trkpt lat="42.450928" lon="18.546833">
<ele>46.765167</ele>
<time>2012-05-02T07:34:38Z</time>
<desc>lat.=42.450928, lon.=18.546833, Alt.=46.765167m. Speed=16.056000m/h.</desc>
<speed>4.460000</speed>
</trkpt>
<trkpt lat="42.450943" lon="18.546520">
<ele>47.573761</ele>
<time>2012-05-02T07:34:43Z</time>
<desc>lat.=42.450943, lon.=18.546520, Alt.=47.573761m. Speed=21.996000m/h.</desc>
<speed>6.110000</speed>
</trkpt>
<trkpt lat="42.450985" lon="18.546150">
<ele>48.350128</ele>
<time>2012-05-02T07:34:48Z</time>
<desc>lat.=42.450985, lon.=18.546150, Alt.=48.350128m. Speed=23.112000m/h.</desc>
<speed>6.420000</speed>
</trkpt>
<trkpt lat="42.451035" lon="18.545696">
<ele>48.063995</ele>
<time>2012-05-02T07:34:53Z</time>
<desc>lat.=42.451035, lon.=18.545696, Alt.=48.063995m. Speed=28.403999m/h.</desc>
<speed>7.890000</speed>
</trkpt>
<trkpt lat="42.451084" lon="18.545256">
<ele>48.717316</ele>
<time>2012-05-02T07:34:58Z</time>
<desc>lat.=42.451084, lon.=18.545256, Alt.=48.717316m. Speed=23.436001m/h.</desc>
<speed>6.510000</speed>
</trkpt>
<trkpt lat="42.451134" lon="18.544899">
<ele>49.063019</ele>
<time>2012-05-02T07:35:03Z</time>
<desc>lat.=42.451134, lon.=18.544899, Alt.=49.063019m. Speed=23.292000m/h.</desc>
<speed>6.470000</speed>
</trkpt>
<trkpt lat="42.451267" lon="18.544466">
<ele>49.707550</ele>
<time>2012-05-02T07:35:08Z</time>
<desc>lat.=42.451267, lon.=18.544466, Alt.=49.707550m. Speed=30.348000m/h.</desc>
<speed>8.430000</speed>
</trkpt>
<trkpt lat="42.451385" lon="18.544088">
<ele>50.509308</ele>
<time>2012-05-02T07:35:13Z</time>
<desc>lat.=42.451385, lon.=18.544088, Alt.=50.509308m. Speed=15.768000m/h.</desc>
<speed>4.380000</speed>
</trkpt>
<trkpt lat="42.451431" lon="18.543982">
<ele>49.893097</ele>
<time>2012-05-02T07:35:18Z</time>
<desc>lat.=42.451431, lon.=18.543982, Alt.=49.893097m. Speed=3.744000m/h.</desc>
<speed>1.040000</speed>
</trkpt>
<trkpt lat="42.451469" lon="18.543924">
<ele>50.127472</ele>
<time>2012-05-02T07:35:23Z</time>
<desc>lat.=42.451469, lon.=18.543924, Alt.=50.127472m. Speed=7.416000m/h.</desc>
<speed>2.060000</speed>
</trkpt>
<trkpt lat="42.451492" lon="18.543890">
<ele>51.272980</ele>
<time>2012-05-02T07:35:28Z</time>
<desc>lat.=42.451492, lon.=18.543890, Alt.=51.272980m. Speed=0.000000m/h.</desc>
<speed>0.000000</speed>
</trkpt>
<trkpt lat="42.451492" lon="18.543892">
<ele>51.590363</ele>
<time>2012-05-02T07:35:33Z</time>
<desc>lat.=42.451492, lon.=18.543892, Alt.=51.590363m. Speed=0.000000m/h.</desc>
<speed>0.000000</speed>
</trkpt>
<trkpt lat="42.451492" lon="18.543892">
<ele>51.598175</ele>
<time>2012-05-02T07:35:38Z</time>
<desc>lat.=42.451492, lon.=18.543892, Alt.=51.598175m. Speed=0.036000m/h.</desc>
<speed>0.010000</speed>
</trkpt>
<trkpt lat="42.451492" lon="18.543894">
<ele>51.629425</ele>
<time>2012-05-02T07:35:43Z</time>
<desc>lat.=42.451492, lon.=18.543894, Alt.=51.629425m. Speed=0.072000m/h.</desc>
<speed>0.020000</speed>
</trkpt>
<trkpt lat="42.451492" lon="18.543871">
<ele>51.470245</ele>
<time>2012-05-02T07:35:48Z</time>
<desc>lat.=42.451492, lon.=18.543871, Alt.=51.470245m. Speed=6.660000m/h.</desc>
<speed>1.850000</speed>
</trkpt>
<trkpt lat="42.451477" lon="18.543749">
<ele>50.968292</ele>
<time>2012-05-02T07:35:53Z</time>
<desc>lat.=42.451477, lon.=18.543749, Alt.=50.968292m. Speed=6.192000m/h.</desc>
<speed>1.720000</speed>
</trkpt>
<trkpt lat="42.451496" lon="18.543688">
<ele>51.184113</ele>
<time>2012-05-02T07:35:58Z</time>
<desc>lat.=42.451496, lon.=18.543688, Alt.=51.184113m. Speed=0.324000m/h.</desc>
<speed>0.090000</speed>
</trkpt>
<trkpt lat="42.451492" lon="18.543692">
<ele>51.019073</ele>
<time>2012-05-02T07:36:03Z</time>
<desc>lat.=42.451492, lon.=18.543692, Alt.=51.019073m. Speed=0.036000m/h.</desc>
<speed>0.010000</speed>
</trkpt>
<trkpt lat="42.451492" lon="18.543692">
<ele>50.952667</ele>
<time>2012-05-02T07:36:08Z</time>
<desc>lat.=42.451492, lon.=18.543692, Alt.=50.952667m. Speed=0.036000m/h.</desc>
<speed>0.010000</speed>
</trkpt>
<trkpt lat="42.451492" lon="18.543692">
<ele>50.953644</ele>
<time>2012-05-02T07:36:13Z</time>
<desc>lat.=42.451492, lon.=18.543692, Alt.=50.953644m. Speed=0.000000m/h.</desc>
<speed>0.000000</speed>
</trkpt>
<trkpt lat="42.451492" lon="18.543692">
<ele>50.962433</ele>
<time>2012-05-02T07:36:18Z</time>
<desc>lat.=42.451492, lon.=18.543692, Alt.=50.962433m. Speed=0.000000m/h.</desc>
<speed>0.000000</speed>
</trkpt>
<trkpt lat="42.451492" lon="18.543692">
<ele>50.968292</ele>
<time>2012-05-02T07:36:23Z</time>
<desc>lat.=42.451492, lon.=18.543692, Alt.=50.968292m. Speed=0.000000m/h.</desc>
<speed>0.000000</speed>
</trkpt>
<trkpt lat="42.451492" lon="18.543692">
<ele>50.975128</ele>
<time>2012-05-02T07:36:28Z</time>
<desc>lat.=42.451492, lon.=18.543692, Alt.=50.975128m. Speed=0.000000m/h.</desc>
<speed>0.000000</speed>
</trkpt>
<trkpt lat="42.451492" lon="18.543692">
<ele>50.980011</ele>
<time>2012-05-02T07:36:33Z</time>
<desc>lat.=42.451492, lon.=18.543692, Alt.=50.980011m. Speed=0.036000m/h.</desc>
<speed>0.010000</speed>
</trkpt>
<trkpt lat="42.451492" lon="18.543692">
<ele>50.974152</ele>
<time>2012-05-02T07:36:38Z</time>
<desc>lat.=42.451492, lon.=18.543692, Alt.=50.974152m. Speed=0.000000m/h.</desc>
<speed>0.000000</speed>
</trkpt>
<trkpt lat="42.451492" lon="18.543692">
<ele>50.967316</ele>
<time>2012-05-02T07:36:43Z</time>
<desc>lat.=42.451492, lon.=18.543692, Alt.=50.967316m. Speed=0.000000m/h.</desc>
<speed>0.000000</speed>
</trkpt>
<trkpt lat="42.451492" lon="18.543692">
<ele>50.956573</ele>
<time>2012-05-02T07:36:48Z</time>
<desc>lat.=42.451492, lon.=18.543692, Alt.=50.956573m. Speed=0.000000m/h.</desc>
<speed>0.000000</speed>
</trkpt>
<trkpt lat="42.451492" lon="18.543692">
<ele>50.946808</ele>
<time>2012-05-02T07:36:53Z</time>
<desc>lat.=42.451492, lon.=18.543692, Alt.=50.946808m. Speed=0.000000m/h.</desc>
<speed>0.000000</speed>
</trkpt>
<trkpt lat="42.451492" lon="18.543692">
<ele>50.936066</ele>
<time>2012-05-02T07:36:58Z</time>
<desc>lat.=42.451492, lon.=18.543692, Alt.=50.936066m. Speed=0.000000m/h.</desc>
<speed>0.000000</speed>
</trkpt>
<trkpt lat="42.451492" lon="18.543694">
<ele>50.923370</ele>
<time>2012-05-02T07:37:03Z</time>
<desc>lat.=42.451492, lon.=18.543694, Alt.=50.923370m. Speed=0.000000m/h.</desc>
<speed>0.000000</speed>
</trkpt>
<trkpt lat="42.451492" lon="18.543694">
<ele>50.910675</ele>
<time>2012-05-02T07:37:08Z</time>
<desc>lat.=42.451492, lon.=18.543694, Alt.=50.910675m. Speed=0.000000m/h.</desc>
<speed>0.000000</speed>
</trkpt>
<trkpt lat="42.451492" lon="18.543694">
<ele>50.906769</ele>
<time>2012-05-02T07:37:13Z</time>
<desc>lat.=42.451492, lon.=18.543694, Alt.=50.906769m. Speed=0.000000m/h.</desc>
<speed>0.000000</speed>
</trkpt>
<trkpt lat="42.451492" lon="18.543694">
<ele>50.903839</ele>
<time>2012-05-02T07:37:18Z</time>
<desc>lat.=42.451492, lon.=18.543694, Alt.=50.903839m. Speed=0.036000m/h.</desc>
<speed>0.010000</speed>
</trkpt>
<trkpt lat="42.451492" lon="18.543694">
<ele>50.902863</ele>
<time>2012-05-02T07:37:23Z</time>
<desc>lat.=42.451492, lon.=18.543694, Alt.=50.902863m. Speed=0.000000m/h.</desc>
<speed>0.000000</speed>
</trkpt>
<trkpt lat="42.451492" lon="18.543694">
<ele>50.899933</ele>
<time>2012-05-02T07:37:28Z</time>
<desc>lat.=42.451492, lon.=18.543694, Alt.=50.899933m. Speed=0.000000m/h.</desc>
<speed>0.000000</speed>
</trkpt>
<trkpt lat="42.451492" lon="18.543694">
<ele>50.890167</ele>
<time>2012-05-02T07:37:33Z</time>
<desc>lat.=42.451492, lon.=18.543694, Alt.=50.890167m. Speed=0.000000m/h.</desc>
<speed>0.000000</speed>
</trkpt>
<trkpt lat="42.451492" lon="18.543694">
<ele>50.885284</ele>
<time>2012-05-02T07:37:38Z</time>
<desc>lat.=42.451492, lon.=18.543694, Alt.=50.885284m. Speed=0.000000m/h.</desc>
<speed>0.000000</speed>
</trkpt>
<trkpt lat="42.451492" lon="18.543694">
<ele>50.873566</ele>
<time>2012-05-02T07:37:43Z</time>
<desc>lat.=42.451492, lon.=18.543694, Alt.=50.873566m. Speed=0.000000m/h.</desc>
<speed>0.000000</speed>
</trkpt>
<trkpt lat="42.451523" lon="18.543695">
<ele>50.747589</ele>
<time>2012-05-02T07:37:48Z</time>
<desc>lat.=42.451523, lon.=18.543695, Alt.=50.747589m. Speed=2.592000m/h.</desc>
<speed>0.720000</speed>
</trkpt>
<trkpt lat="42.451550" lon="18.543707">
<ele>51.771027</ele>
<time>2012-05-02T07:37:53Z</time>
<desc>lat.=42.451550, lon.=18.543707, Alt.=51.771027m. Speed=0.072000m/h.</desc>
<speed>0.020000</speed>
</trkpt>
<trkpt lat="42.451546" lon="18.543711">
<ele>52.325714</ele>
<time>2012-05-02T07:37:58Z</time>
<desc>lat.=42.451546, lon.=18.543711, Alt.=52.325714m. Speed=1.224000m/h.</desc>
<speed>0.340000</speed>
</trkpt>
<trkpt lat="42.451550" lon="18.543716">
<ele>52.582550</ele>
<time>2012-05-02T07:38:03Z</time>
<desc>lat.=42.451550, lon.=18.543716, Alt.=52.582550m. Speed=0.036000m/h.</desc>
<speed>0.010000</speed>
</trkpt>
<trkpt lat="42.451553" lon="18.543707">
<ele>52.629425</ele>
<time>2012-05-02T07:38:08Z</time>
<desc>lat.=42.451553, lon.=18.543707, Alt.=52.629425m. Speed=5.292000m/h.</desc>
<speed>1.470000</speed>
</trkpt>
<trkpt lat="42.451565" lon="18.543655">
<ele>52.478058</ele>
<time>2012-05-02T07:38:13Z</time>
<desc>lat.=42.451565, lon.=18.543655, Alt.=52.478058m. Speed=0.720000m/h.</desc>
<speed>0.200000</speed>
</trkpt>
<trkpt lat="42.451519" lon="18.543720">
<ele>51.040558</ele>
<time>2012-05-02T07:38:18Z</time>
<desc>lat.=42.451519, lon.=18.543720, Alt.=51.040558m. Speed=5.832000m/h.</desc>
<speed>1.620000</speed>
</trkpt>
<trkpt lat="42.451504" lon="18.543802">
<ele>50.565948</ele>
<time>2012-05-02T07:38:23Z</time>
<desc>lat.=42.451504, lon.=18.543802, Alt.=50.565948m. Speed=5.220000m/h.</desc>
<speed>1.450000</speed>
</trkpt>
<trkpt lat="42.451485" lon="18.543909">
<ele>50.265167</ele>
<time>2012-05-02T07:38:28Z</time>
<desc>lat.=42.451485, lon.=18.543909, Alt.=50.265167m. Speed=5.184000m/h.</desc>
<speed>1.440000</speed>
</trkpt>
<trkpt lat="42.451488" lon="18.543919">
<ele>50.602081</ele>
<time>2012-05-02T07:38:33Z</time>
<desc>lat.=42.451488, lon.=18.543919, Alt.=50.602081m. Speed=0.072000m/h.</desc>
<speed>0.020000</speed>
</trkpt>
<trkpt lat="42.451511" lon="18.543903">
<ele>51.353058</ele>
<time>2012-05-02T07:38:38Z</time>
<desc>lat.=42.451511, lon.=18.543903, Alt.=51.353058m. Speed=1.476000m/h.</desc>
<speed>0.410000</speed>
</trkpt>
<trkpt lat="42.451504" lon="18.543915">
<ele>51.755402</ele>
<time>2012-05-02T07:38:43Z</time>
<desc>lat.=42.451504, lon.=18.543915, Alt.=51.755402m. Speed=3.672000m/h.</desc>
<speed>1.020000</speed>
</trkpt>
<trkpt lat="42.451477" lon="18.543962">
<ele>52.466339</ele>
<time>2012-05-02T07:38:48Z</time>
<desc>lat.=42.451477, lon.=18.543962, Alt.=52.466339m. Speed=0.000000m/h.</desc>
<speed>0.000000</speed>
</trkpt>
<trkpt lat="42.451527" lon="18.543947">
<ele>53.245636</ele>
<time>2012-05-02T07:38:53Z</time>
<desc>lat.=42.451527, lon.=18.543947, Alt.=53.245636m. Speed=12.024000m/h.</desc>
<speed>3.340000</speed>
</trkpt>
<trkpt lat="42.451668" lon="18.543764">
<ele>54.007355</ele>
<time>2012-05-02T07:38:58Z</time>
<desc>lat.=42.451668, lon.=18.543764, Alt.=54.007355m. Speed=19.368000m/h.</desc>
<speed>5.380000</speed>
</trkpt>
<trkpt lat="42.451782" lon="18.543419">
<ele>57.655792</ele>
<time>2012-05-02T07:39:03Z</time>
<desc>lat.=42.451782, lon.=18.543419, Alt.=57.655792m. Speed=30.059999m/h.</desc>
<speed>8.350000</speed>
</trkpt>
<trkpt lat="42.451973" lon="18.543011">
<ele>62.230988</ele>
<time>2012-05-02T07:39:08Z</time>
<desc>lat.=42.451973, lon.=18.543011, Alt.=62.230988m. Speed=25.920000m/h.</desc>
<speed>7.200000</speed>
</trkpt>
<trkpt lat="42.452099" lon="18.542685">
<ele>65.352600</ele>
<time>2012-05-02T07:39:13Z</time>
<desc>lat.=42.452099, lon.=18.542685, Alt.=65.352600m. Speed=19.799999m/h.</desc>
<speed>5.500000</speed>
</trkpt>
<trkpt lat="42.452183" lon="18.542387">
<ele>67.678772</ele>
<time>2012-05-02T07:39:18Z</time>
<desc>lat.=42.452183, lon.=18.542387, Alt.=67.678772m. Speed=17.856001m/h.</desc>
<speed>4.960000</speed>
</trkpt>
<trkpt lat="42.452248" lon="18.542109">
<ele>68.645569</ele>
<time>2012-05-02T07:39:23Z</time>
<desc>lat.=42.452248, lon.=18.542109, Alt.=68.645569m. Speed=16.992001m/h.</desc>
<speed>4.720000</speed>
</trkpt>
<trkpt lat="42.452297" lon="18.541870">
<ele>68.542053</ele>
<time>2012-05-02T07:39:28Z</time>
<desc>lat.=42.452297, lon.=18.541870, Alt.=68.542053m. Speed=10.584000m/h.</desc>
<speed>2.940000</speed>
</trkpt>
<trkpt lat="42.452374" lon="18.541721">
<ele>68.381897</ele>
<time>2012-05-02T07:39:33Z</time>
<desc>lat.=42.452374, lon.=18.541721, Alt.=68.381897m. Speed=12.132000m/h.</desc>
<speed>3.370000</speed>
</trkpt>
<trkpt lat="42.452454" lon="18.541645">
<ele>70.215881</ele>
<time>2012-05-02T07:39:38Z</time>
<desc>lat.=42.452454, lon.=18.541645, Alt.=70.215881m. Speed=8.172000m/h.</desc>
<speed>2.270000</speed>
</trkpt>
<trkpt lat="42.452488" lon="18.541626">
<ele>70.458069</ele>
<time>2012-05-02T07:39:43Z</time>
<desc>lat.=42.452488, lon.=18.541626, Alt.=70.458069m. Speed=0.036000m/h.</desc>
<speed>0.010000</speed>
</trkpt>
<trkpt lat="42.452492" lon="18.541624">
<ele>70.456116</ele>
<time>2012-05-02T07:39:48Z</time>
<desc>lat.=42.452492, lon.=18.541624, Alt.=70.456116m. Speed=4.392000m/h.</desc>
<speed>1.220000</speed>
</trkpt>
<trkpt lat="42.452530" lon="18.541580">
<ele>71.165100</ele>
<time>2012-05-02T07:39:53Z</time>
<desc>lat.=42.452530, lon.=18.541580, Alt.=71.165100m. Speed=8.532000m/h.</desc>
<speed>2.370000</speed>
</trkpt>
<trkpt lat="42.452564" lon="18.541414">
<ele>71.731506</ele>
<time>2012-05-02T07:39:58Z</time>
<desc>lat.=42.452564, lon.=18.541414, Alt.=71.731506m. Speed=5.364000m/h.</desc>
<speed>1.490000</speed>
</trkpt>
<trkpt lat="42.452576" lon="18.541351">
<ele>72.321350</ele>
<time>2012-05-02T07:40:03Z</time>
<desc>lat.=42.452576, lon.=18.541351, Alt.=72.321350m. Speed=2.124000m/h.</desc>
<speed>0.590000</speed>
</trkpt>
<trkpt lat="42.452583" lon="18.541325">
<ele>72.829163</ele>
<time>2012-05-02T07:40:08Z</time>
<desc>lat.=42.452583, lon.=18.541325, Alt.=72.829163m. Speed=0.576000m/h.</desc>
<speed>0.160000</speed>
</trkpt>
<trkpt lat="42.452599" lon="18.541330">
<ele>72.948303</ele>
<time>2012-05-02T07:40:13Z</time>
<desc>lat.=42.452599, lon.=18.541330, Alt.=72.948303m. Speed=0.324000m/h.</desc>
<speed>0.090000</speed>
</trkpt>
<trkpt lat="42.452599" lon="18.541330">
<ele>73.114319</ele>
<time>2012-05-02T07:40:18Z</time>
<desc>lat.=42.452599, lon.=18.541330, Alt.=73.114319m. Speed=0.036000m/h.</desc>
<speed>0.010000</speed>
</trkpt>
<trkpt lat="42.452602" lon="18.541330">
<ele>73.153381</ele>
<time>2012-05-02T07:40:23Z</time>
<desc>lat.=42.452602, lon.=18.541330, Alt.=73.153381m. Speed=0.072000m/h.</desc>
<speed>0.020000</speed>
</trkpt>
<trkpt lat="42.452599" lon="18.541330">
<ele>73.141663</ele>
<time>2012-05-02T07:40:28Z</time>
<desc>lat.=42.452599, lon.=18.541330, Alt.=73.141663m. Speed=0.036000m/h.</desc>
<speed>0.010000</speed>
</trkpt>
<trkpt lat="42.452599" lon="18.541330">
<ele>73.137756</ele>
<time>2012-05-02T07:40:33Z</time>
<desc>lat.=42.452599, lon.=18.541330, Alt.=73.137756m. Speed=0.036000m/h.</desc>
<speed>0.010000</speed>
</trkpt>
<trkpt lat="42.452599" lon="18.541330">
<ele>73.126038</ele>
<time>2012-05-02T07:40:38Z</time>
<desc>lat.=42.452599, lon.=18.541330, Alt.=73.126038m. Speed=0.000000m/h.</desc>
<speed>0.000000</speed>
</trkpt>
<trkpt lat="42.452599" lon="18.541330">
<ele>73.118225</ele>
<time>2012-05-02T07:40:43Z</time>
<desc>lat.=42.452599, lon.=18.541330, Alt.=73.118225m. Speed=0.000000m/h.</desc>
<speed>0.000000</speed>
</trkpt>
<trkpt lat="42.452599" lon="18.541330">
<ele>73.118225</ele>
<time>2012-05-02T07:40:48Z</time>
<desc>lat.=42.452599, lon.=18.541330, Alt.=73.118225m. Speed=0.036000m/h.</desc>
<speed>0.010000</speed>
</trkpt>
<trkpt lat="42.452599" lon="18.541330">
<ele>73.104553</ele>
<time>2012-05-02T07:40:53Z</time>
<desc>lat.=42.452599, lon.=18.541330, Alt.=73.104553m. Speed=0.000000m/h.</desc>
<speed>0.000000</speed>
</trkpt>
<trkpt lat="42.452602" lon="18.541330">
<ele>73.096741</ele>
<time>2012-05-02T07:40:58Z</time>
<desc>lat.=42.452602, lon.=18.541330, Alt.=73.096741m. Speed=0.000000m/h.</desc>
<speed>0.000000</speed>
</trkpt>
<trkpt lat="42.452602" lon="18.541330">
<ele>73.102600</ele>
<time>2012-05-02T07:41:03Z</time>
<desc>lat.=42.452602, lon.=18.541330, Alt.=73.102600m. Speed=0.000000m/h.</desc>
<speed>0.000000</speed>
</trkpt>
<trkpt lat="42.452602" lon="18.541330">
<ele>73.088928</ele>
<time>2012-05-02T07:41:08Z</time>
<desc>lat.=42.452602, lon.=18.541330, Alt.=73.088928m. Speed=0.036000m/h.</desc>
<speed>0.010000</speed>
</trkpt>
<trkpt lat="42.452602" lon="18.541330">
<ele>73.081116</ele>
<time>2012-05-02T07:41:13Z</time>
<desc>lat.=42.452602, lon.=18.541330, Alt.=73.081116m. Speed=0.000000m/h.</desc>
<speed>0.000000</speed>
</trkpt>
<trkpt lat="42.452602" lon="18.541330">
<ele>73.104553</ele>
<time>2012-05-02T07:41:18Z</time>
<desc>lat.=42.452602, lon.=18.541330, Alt.=73.104553m. Speed=0.036000m/h.</desc>
<speed>0.010000</speed>
</trkpt>
<trkpt lat="42.452602" lon="18.541330">
<ele>73.127991</ele>
<time>2012-05-02T07:41:23Z</time>
<desc>lat.=42.452602, lon.=18.541330, Alt.=73.127991m. Speed=0.108000m/h.</desc>
<speed>0.030000</speed>
</trkpt>
<trkpt lat="42.452602" lon="18.541330">
<ele>73.157288</ele>
<time>2012-05-02T07:41:28Z</time>
<desc>lat.=42.452602, lon.=18.541330, Alt.=73.157288m. Speed=0.036000m/h.</desc>
<speed>0.010000</speed>
</trkpt>
<trkpt lat="42.452602" lon="18.541330">
<ele>73.182678</ele>
<time>2012-05-02T07:41:33Z</time>
<desc>lat.=42.452602, lon.=18.541330, Alt.=73.182678m. Speed=0.036000m/h.</desc>
<speed>0.010000</speed>
</trkpt>
<trkpt lat="42.452602" lon="18.541332">
<ele>73.221741</ele>
<time>2012-05-02T07:41:38Z</time>
<desc>lat.=42.452602, lon.=18.541332, Alt.=73.221741m. Speed=0.036000m/h.</desc>
<speed>0.010000</speed>
</trkpt>
<trkpt lat="42.452602" lon="18.541332">
<ele>73.229553</ele>
<time>2012-05-02T07:41:43Z</time>
<desc>lat.=42.452602, lon.=18.541332, Alt.=73.229553m. Speed=0.072000m/h.</desc>
<speed>0.020000</speed>
</trkpt>
<trkpt lat="42.452602" lon="18.541332">
<ele>73.239319</ele>
<time>2012-05-02T07:41:48Z</time>
<desc>lat.=42.452602, lon.=18.541332, Alt.=73.239319m. Speed=0.036000m/h.</desc>
<speed>0.010000</speed>
</trkpt>
<trkpt lat="42.452602" lon="18.541332">
<ele>73.237366</ele>
<time>2012-05-02T07:41:53Z</time>
<desc>lat.=42.452602, lon.=18.541332, Alt.=73.237366m. Speed=0.000000m/h.</desc>
<speed>0.000000</speed>
</trkpt>
<trkpt lat="42.452602" lon="18.541332">
<ele>73.249084</ele>
<time>2012-05-02T07:41:58Z</time>
<desc>lat.=42.452602, lon.=18.541332, Alt.=73.249084m. Speed=0.000000m/h.</desc>
<speed>0.000000</speed>
</trkpt>
<trkpt lat="42.452602" lon="18.541332">
<ele>73.249084</ele>
<time>2012-05-02T07:42:03Z</time>
<desc>lat.=42.452602, lon.=18.541332, Alt.=73.249084m. Speed=0.036000m/h.</desc>
<speed>0.010000</speed>
</trkpt>
<trkpt lat="42.452602" lon="18.541332">
<ele>73.256897</ele>
<time>2012-05-02T07:42:08Z</time>
<desc>lat.=42.452602, lon.=18.541332, Alt.=73.256897m. Speed=0.036000m/h.</desc>
<speed>0.010000</speed>
</trkpt>
<trkpt lat="42.452602" lon="18.541332">
<ele>73.274475</ele>
<time>2012-05-02T07:42:13Z</time>
<desc>lat.=42.452602, lon.=18.541332, Alt.=73.274475m. Speed=0.072000m/h.</desc>
<speed>0.020000</speed>
</trkpt>
<trkpt lat="42.452602" lon="18.541332">
<ele>73.297913</ele>
<time>2012-05-02T07:42:18Z</time>
<desc>lat.=42.452602, lon.=18.541332, Alt.=73.297913m. Speed=0.000000m/h.</desc>
<speed>0.000000</speed>
</trkpt>
<trkpt lat="42.452602" lon="18.541332">
<ele>73.325256</ele>
<time>2012-05-02T07:42:23Z</time>
<desc>lat.=42.452602, lon.=18.541332, Alt.=73.325256m. Speed=0.036000m/h.</desc>
<speed>0.010000</speed>
</trkpt>
<trkpt lat="42.452602" lon="18.541332">
<ele>73.342834</ele>
<time>2012-05-02T07:42:28Z</time>
<desc>lat.=42.452602, lon.=18.541332, Alt.=73.342834m. Speed=0.000000m/h.</desc>
<speed>0.000000</speed>
</trkpt>
<trkpt lat="42.452602" lon="18.541332">
<ele>73.383850</ele>
<time>2012-05-02T07:42:33Z</time>
<desc>lat.=42.452602, lon.=18.541332, Alt.=73.383850m. Speed=0.036000m/h.</desc>
<speed>0.010000</speed>
</trkpt>
<trkpt lat="42.452602" lon="18.541332">
<ele>73.395569</ele>
<time>2012-05-02T07:42:38Z</time>
<desc>lat.=42.452602, lon.=18.541332, Alt.=73.395569m. Speed=0.036000m/h.</desc>
<speed>0.010000</speed>
</trkpt>
<trkpt lat="42.452602" lon="18.541332">
<ele>73.411194</ele>
<time>2012-05-02T07:42:43Z</time>
<desc>lat.=42.452602, lon.=18.541332, Alt.=73.411194m. Speed=0.036000m/h.</desc>
<speed>0.010000</speed>
</trkpt>
<trkpt lat="42.452602" lon="18.541332">
<ele>73.426819</ele>
<time>2012-05-02T07:42:48Z</time>
<desc>lat.=42.452602, lon.=18.541332, Alt.=73.426819m. Speed=0.000000m/h.</desc>
<speed>0.000000</speed>
</trkpt>
<trkpt lat="42.452602" lon="18.541332">
<ele>73.422913</ele>
<time>2012-05-02T07:42:53Z</time>
<desc>lat.=42.452602, lon.=18.541332, Alt.=73.422913m. Speed=0.036000m/h.</desc>
<speed>0.010000</speed>
</trkpt>
<trkpt lat="42.452602" lon="18.541332">
<ele>73.436584</ele>
<time>2012-05-02T07:42:58Z</time>
<desc>lat.=42.452602, lon.=18.541332, Alt.=73.436584m. Speed=0.036000m/h.</desc>
<speed>0.010000</speed>
</trkpt>
<trkpt lat="42.452606" lon="18.541332">
<ele>73.452209</ele>
<time>2012-05-02T07:43:03Z</time>
<desc>lat.=42.452606, lon.=18.541332, Alt.=73.452209m. Speed=0.036000m/h.</desc>
<speed>0.010000</speed>
</trkpt>
<trkpt lat="42.452606" lon="18.541332">
<ele>73.461975</ele>
<time>2012-05-02T07:43:08Z</time>
<desc>lat.=42.452606, lon.=18.541332, Alt.=73.461975m. Speed=0.000000m/h.</desc>
<speed>0.000000</speed>
</trkpt>
<trkpt lat="42.452606" lon="18.541332">
<ele>73.446350</ele>
<time>2012-05-02T07:43:13Z</time>
<desc>lat.=42.452606, lon.=18.541332, Alt.=73.446350m. Speed=0.036000m/h.</desc>
<speed>0.010000</speed>
</trkpt>
<trkpt lat="42.452606" lon="18.541332">
<ele>73.452209</ele>
<time>2012-05-02T07:43:18Z</time>
<desc>lat.=42.452606, lon.=18.541332, Alt.=73.452209m. Speed=0.000000m/h.</desc>
<speed>0.000000</speed>
</trkpt>
<trkpt lat="42.452606" lon="18.541332">
<ele>73.446350</ele>
<time>2012-05-02T07:43:23Z</time>
<desc>lat.=42.452606, lon.=18.541332, Alt.=73.446350m. Speed=0.000000m/h.</desc>
<speed>0.000000</speed>
</trkpt>
<trkpt lat="42.452606" lon="18.541332">
<ele>73.440491</ele>
<time>2012-05-02T07:43:28Z</time>
<desc>lat.=42.452606, lon.=18.541332, Alt.=73.440491m. Speed=0.000000m/h.</desc>
<speed>0.000000</speed>
</trkpt>
<trkpt lat="42.452606" lon="18.541332">
<ele>73.442444</ele>
<time>2012-05-02T07:43:33Z</time>
<desc>lat.=42.452606, lon.=18.541332, Alt.=73.442444m. Speed=0.000000m/h.</desc>
<speed>0.000000</speed>
</trkpt>
<trkpt lat="42.452606" lon="18.541332">
<ele>73.460022</ele>
<time>2012-05-02T07:43:38Z</time>
<desc>lat.=42.452606, lon.=18.541332, Alt.=73.460022m. Speed=0.036000m/h.</desc>
<speed>0.010000</speed>
</trkpt>
<trkpt lat="42.452606" lon="18.541332">
<ele>73.467834</ele>
<time>2012-05-02T07:43:43Z</time>
<desc>lat.=42.452606, lon.=18.541332, Alt.=73.467834m. Speed=0.000000m/h.</desc>
<speed>0.000000</speed>
</trkpt>
<trkpt lat="42.452606" lon="18.541332">
<ele>73.487366</ele>
<time>2012-05-02T07:43:48Z</time>
<desc>lat.=42.452606, lon.=18.541332, Alt.=73.487366m. Speed=0.036000m/h.</desc>
<speed>0.010000</speed>
</trkpt>
<trkpt lat="42.452606" lon="18.541334">
<ele>73.497131</ele>
<time>2012-05-02T07:43:53Z</time>
<desc>lat.=42.452606, lon.=18.541334, Alt.=73.497131m. Speed=0.108000m/h.</desc>
<speed>0.030000</speed>
</trkpt>
<trkpt lat="42.452606" lon="18.541334">
<ele>73.497131</ele>
<time>2012-05-02T07:43:58Z</time>
<desc>lat.=42.452606, lon.=18.541334, Alt.=73.497131m. Speed=0.000000m/h.</desc>
<speed>0.000000</speed>
</trkpt>
<trkpt lat="42.452606" lon="18.541334">
<ele>73.485413</ele>
<time>2012-05-02T07:44:03Z</time>
<desc>lat.=42.452606, lon.=18.541334, Alt.=73.485413m. Speed=0.036000m/h.</desc>
<speed>0.010000</speed>
</trkpt>
<trkpt lat="42.452606" lon="18.541334">
<ele>73.479553</ele>
<time>2012-05-02T07:44:08Z</time>
<desc>lat.=42.452606, lon.=18.541334, Alt.=73.479553m. Speed=0.072000m/h.</desc>
<speed>0.020000</speed>
</trkpt>
<trkpt lat="42.452606" lon="18.541334">
<ele>73.461975</ele>
<time>2012-05-02T07:44:13Z</time>
<desc>lat.=42.452606, lon.=18.541334, Alt.=73.461975m. Speed=0.072000m/h.</desc>
<speed>0.020000</speed>
</trkpt>
<trkpt lat="42.452606" lon="18.541334">
<ele>73.436584</ele>
<time>2012-05-02T07:44:18Z</time>
<desc>lat.=42.452606, lon.=18.541334, Alt.=73.436584m. Speed=0.036000m/h.</desc>
<speed>0.010000</speed>
</trkpt>
<trkpt lat="42.452606" lon="18.541334">
<ele>73.426819</ele>
<time>2012-05-02T07:44:23Z</time>
<desc>lat.=42.452606, lon.=18.541334, Alt.=73.426819m. Speed=0.036000m/h.</desc>
<speed>0.010000</speed>
</trkpt>
<trkpt lat="42.452606" lon="18.541334">
<ele>73.422913</ele>
<time>2012-05-02T07:44:28Z</time>
<desc>lat.=42.452606, lon.=18.541334, Alt.=73.422913m. Speed=0.072000m/h.</desc>
<speed>0.020000</speed>
</trkpt>
<trkpt lat="42.452606" lon="18.541334">
<ele>73.430725</ele>
<time>2012-05-02T07:44:33Z</time>
<desc>lat.=42.452606, lon.=18.541334, Alt.=73.430725m. Speed=0.036000m/h.</desc>
<speed>0.010000</speed>
</trkpt>
<trkpt lat="42.452606" lon="18.541332">
<ele>73.430725</ele>
<time>2012-05-02T07:44:38Z</time>
<desc>lat.=42.452606, lon.=18.541332, Alt.=73.430725m. Speed=0.036000m/h.</desc>
<speed>0.010000</speed>
</trkpt>
<trkpt lat="42.452606" lon="18.541332">
<ele>73.417053</ele>
<time>2012-05-02T07:44:43Z</time>
<desc>lat.=42.452606, lon.=18.541332, Alt.=73.417053m. Speed=0.036000m/h.</desc>
<speed>0.010000</speed>
</trkpt>
<trkpt lat="42.452606" lon="18.541332">
<ele>73.401428</ele>
<time>2012-05-02T07:44:48Z</time>
<desc>lat.=42.452606, lon.=18.541332, Alt.=73.401428m. Speed=0.036000m/h.</desc>
<speed>0.010000</speed>
</trkpt>
<trkpt lat="42.452606" lon="18.541332">
<ele>73.389709</ele>
<time>2012-05-02T07:44:53Z</time>
<desc>lat.=42.452606, lon.=18.541332, Alt.=73.389709m. Speed=0.000000m/h.</desc>
<speed>0.000000</speed>
</trkpt>
<trkpt lat="42.452606" lon="18.541332">
<ele>73.383850</ele>
<time>2012-05-02T07:44:58Z</time>
<desc>lat.=42.452606, lon.=18.541332, Alt.=73.383850m. Speed=0.072000m/h.</desc>
<speed>0.020000</speed>
</trkpt>
<trkpt lat="42.452606" lon="18.541332">
<ele>73.385803</ele>
<time>2012-05-02T07:45:03Z</time>
<desc>lat.=42.452606, lon.=18.541332, Alt.=73.385803m. Speed=0.036000m/h.</desc>
<speed>0.010000</speed>
</trkpt>
<trkpt lat="42.452606" lon="18.541332">
<ele>73.401428</ele>
<time>2012-05-02T07:45:08Z</time>
<desc>lat.=42.452606, lon.=18.541332, Alt.=73.401428m. Speed=0.072000m/h.</desc>
<speed>0.020000</speed>
</trkpt>
<trkpt lat="42.452606" lon="18.541332">
<ele>73.411194</ele>
<time>2012-05-02T07:45:13Z</time>
<desc>lat.=42.452606, lon.=18.541332, Alt.=73.411194m. Speed=0.000000m/h.</desc>
<speed>0.000000</speed>
</trkpt>
<trkpt lat="42.452606" lon="18.541332">
<ele>73.477600</ele>
<time>2012-05-02T07:45:18Z</time>
<desc>lat.=42.452606, lon.=18.541332, Alt.=73.477600m. Speed=0.036000m/h.</desc>
<speed>0.010000</speed>
</trkpt>
<trkpt lat="42.452606" lon="18.541332">
<ele>73.563538</ele>
<time>2012-05-02T07:45:23Z</time>
<desc>lat.=42.452606, lon.=18.541332, Alt.=73.563538m. Speed=0.000000m/h.</desc>
<speed>0.000000</speed>
</trkpt>
<trkpt lat="42.452606" lon="18.541332">
<ele>73.653381</ele>
<time>2012-05-02T07:45:28Z</time>
<desc>lat.=42.452606, lon.=18.541332, Alt.=73.653381m. Speed=0.036000m/h.</desc>
<speed>0.010000</speed>
</trkpt>
<trkpt lat="42.452606" lon="18.541330">
<ele>73.717834</ele>
<time>2012-05-02T07:45:33Z</time>
<desc>lat.=42.452606, lon.=18.541330, Alt.=73.717834m. Speed=0.036000m/h.</desc>
<speed>0.010000</speed>
</trkpt>
<trkpt lat="42.452606" lon="18.541330">
<ele>73.786194</ele>
<time>2012-05-02T07:45:38Z</time>
<desc>lat.=42.452606, lon.=18.541330, Alt.=73.786194m. Speed=0.072000m/h.</desc>
<speed>0.020000</speed>
</trkpt>
<trkpt lat="42.452606" lon="18.541330">
<ele>73.856506</ele>
<time>2012-05-02T07:45:43Z</time>
<desc>lat.=42.452606, lon.=18.541330, Alt.=73.856506m. Speed=0.108000m/h.</desc>
<speed>0.030000</speed>
</trkpt>
<trkpt lat="42.452606" lon="18.541332">
<ele>73.913147</ele>
<time>2012-05-02T07:45:48Z</time>
<desc>lat.=42.452606, lon.=18.541332, Alt.=73.913147m. Speed=0.108000m/h.</desc>
<speed>0.030000</speed>
</trkpt>
<trkpt lat="42.452606" lon="18.541332">
<ele>73.924866</ele>
<time>2012-05-02T07:45:53Z</time>
<desc>lat.=42.452606, lon.=18.541332, Alt.=73.924866m. Speed=0.036000m/h.</desc>
<speed>0.010000</speed>
</trkpt>
<trkpt lat="42.452606" lon="18.541332">
<ele>73.895569</ele>
<time>2012-05-02T07:45:58Z</time>
<desc>lat.=42.452606, lon.=18.541332, Alt.=73.895569m. Speed=0.072000m/h.</desc>
<speed>0.020000</speed>
</trkpt>
<trkpt lat="42.452606" lon="18.541332">
<ele>73.864319</ele>
<time>2012-05-02T07:46:03Z</time>
<desc>lat.=42.452606, lon.=18.541332, Alt.=73.864319m. Speed=0.036000m/h.</desc>
<speed>0.010000</speed>
</trkpt>
<trkpt lat="42.452606" lon="18.541332">
<ele>73.858459</ele>
<time>2012-05-02T07:46:08Z</time>
<desc>lat.=42.452606, lon.=18.541332, Alt.=73.858459m. Speed=0.000000m/h.</desc>
<speed>0.000000</speed>
</trkpt>
<trkpt lat="42.452606" lon="18.541332">
<ele>73.838928</ele>
<time>2012-05-02T07:46:13Z</time>
<desc>lat.=42.452606, lon.=18.541332, Alt.=73.838928m. Speed=0.036000m/h.</desc>
<speed>0.010000</speed>
</trkpt>
<trkpt lat="42.452606" lon="18.541332">
<ele>73.815491</ele>
<time>2012-05-02T07:46:18Z</time>
<desc>lat.=42.452606, lon.=18.541332, Alt.=73.815491m. Speed=0.036000m/h.</desc>
<speed>0.010000</speed>
</trkpt>
<trkpt lat="42.452606" lon="18.541332">
<ele>73.817444</ele>
<time>2012-05-02T07:46:23Z</time>
<desc>lat.=42.452606, lon.=18.541332, Alt.=73.817444m. Speed=0.036000m/h.</desc>
<speed>0.010000</speed>
</trkpt>
<trkpt lat="42.452606" lon="18.541332">
<ele>73.858459</ele>
<time>2012-05-02T07:46:28Z</time>
<desc>lat.=42.452606, lon.=18.541332, Alt.=73.858459m. Speed=0.036000m/h.</desc>
<speed>0.010000</speed>
</trkpt>
<trkpt lat="42.452606" lon="18.541332">
<ele>73.891663</ele>
<time>2012-05-02T07:46:33Z</time>
<desc>lat.=42.452606, lon.=18.541332, Alt.=73.891663m. Speed=0.000000m/h.</desc>
<speed>0.000000</speed>
</trkpt>
<trkpt lat="42.452606" lon="18.541332">
<ele>73.930725</ele>
<time>2012-05-02T07:46:38Z</time>
<desc>lat.=42.452606, lon.=18.541332, Alt.=73.930725m. Speed=0.036000m/h.</desc>
<speed>0.010000</speed>
</trkpt>
<trkpt lat="42.452606" lon="18.541332">
<ele>73.938538</ele>
<time>2012-05-02T07:46:43Z</time>
<desc>lat.=42.452606, lon.=18.541332, Alt.=73.938538m. Speed=0.000000m/h.</desc>
<speed>0.000000</speed>
</trkpt>
<trkpt lat="42.452606" lon="18.541332">
<ele>73.960022</ele>
<time>2012-05-02T07:46:48Z</time>
<desc>lat.=42.452606, lon.=18.541332, Alt.=73.960022m. Speed=0.000000m/h.</desc>
<speed>0.000000</speed>
</trkpt>
<trkpt lat="42.452606" lon="18.541332">
<ele>73.967834</ele>
<time>2012-05-02T07:46:53Z</time>
<desc>lat.=42.452606, lon.=18.541332, Alt.=73.967834m. Speed=0.000000m/h.</desc>
<speed>0.000000</speed>
</trkpt>
<trkpt lat="42.452606" lon="18.541332">
<ele>73.991272</ele>
<time>2012-05-02T07:46:58Z</time>
<desc>lat.=42.452606, lon.=18.541332, Alt.=73.991272m. Speed=0.036000m/h.</desc>
<speed>0.010000</speed>
</trkpt>
<trkpt lat="42.452606" lon="18.541330">
<ele>74.012756</ele>
<time>2012-05-02T07:47:03Z</time>
<desc>lat.=42.452606, lon.=18.541330, Alt.=74.012756m. Speed=0.000000m/h.</desc>
<speed>0.000000</speed>
</trkpt>
<trkpt lat="42.452606" lon="18.541330">
<ele>74.044006</ele>
<time>2012-05-02T07:47:08Z</time>
<desc>lat.=42.452606, lon.=18.541330, Alt.=74.044006m. Speed=0.000000m/h.</desc>
<speed>0.000000</speed>
</trkpt>
<trkpt lat="42.452606" lon="18.541330">
<ele>74.069397</ele>
<time>2012-05-02T07:47:13Z</time>
<desc>lat.=42.452606, lon.=18.541330, Alt.=74.069397m. Speed=0.000000m/h.</desc>
<speed>0.000000</speed>
</trkpt>
<trkpt lat="42.452606" lon="18.541330">
<ele>74.096741</ele>
<time>2012-05-02T07:47:18Z</time>
<desc>lat.=42.452606, lon.=18.541330, Alt.=74.096741m. Speed=0.000000m/h.</desc>
<speed>0.000000</speed>
</trkpt>
<trkpt lat="42.452606" lon="18.541330">
<ele>74.124084</ele>
<time>2012-05-02T07:47:23Z</time>
<desc>lat.=42.452606, lon.=18.541330, Alt.=74.124084m. Speed=0.000000m/h.</desc>
<speed>0.000000</speed>
</trkpt>
<trkpt lat="42.452606" lon="18.541330">
<ele>74.157288</ele>
<time>2012-05-02T07:47:28Z</time>
<desc>lat.=42.452606, lon.=18.541330, Alt.=74.157288m. Speed=0.036000m/h.</desc>
<speed>0.010000</speed>
</trkpt>
<trkpt lat="42.452606" lon="18.541330">
<ele>74.182678</ele>
<time>2012-05-02T07:47:33Z</time>
<desc>lat.=42.452606, lon.=18.541330, Alt.=74.182678m. Speed=0.144000m/h.</desc>
<speed>0.040000</speed>
</trkpt>
<trkpt lat="42.452606" lon="18.541330">
<ele>74.204163</ele>
<time>2012-05-02T07:47:38Z</time>
<desc>lat.=42.452606, lon.=18.541330, Alt.=74.204163m. Speed=0.000000m/h.</desc>
<speed>0.000000</speed>
</trkpt>
<trkpt lat="42.452606" lon="18.541330">
<ele>74.229553</ele>
<time>2012-05-02T07:47:43Z</time>
<desc>lat.=42.452606, lon.=18.541330, Alt.=74.229553m. Speed=0.036000m/h.</desc>
<speed>0.010000</speed>
</trkpt>
<trkpt lat="42.452606" lon="18.541330">
<ele>74.225647</ele>
<time>2012-05-02T07:47:48Z</time>
<desc>lat.=42.452606, lon.=18.541330, Alt.=74.225647m. Speed=0.036000m/h.</desc>
<speed>0.010000</speed>
</trkpt>
<trkpt lat="42.452606" lon="18.541330">
<ele>74.210022</ele>
<time>2012-05-02T07:47:53Z</time>
<desc>lat.=42.452606, lon.=18.541330, Alt.=74.210022m. Speed=0.000000m/h.</desc>
<speed>0.000000</speed>
</trkpt>
<trkpt lat="42.452606" lon="18.541330">
<ele>74.202209</ele>
<time>2012-05-02T07:47:58Z</time>
<desc>lat.=42.452606, lon.=18.541330, Alt.=74.202209m. Speed=0.072000m/h.</desc>
<speed>0.020000</speed>
</trkpt>
<trkpt lat="42.452606" lon="18.541330">
<ele>74.200256</ele>
<time>2012-05-02T07:48:03Z</time>
<desc>lat.=42.452606, lon.=18.541330, Alt.=74.200256m. Speed=0.000000m/h.</desc>
<speed>0.000000</speed>
</trkpt>
<trkpt lat="42.452606" lon="18.541330">
<ele>74.206116</ele>
<time>2012-05-02T07:48:08Z</time>
<desc>lat.=42.452606, lon.=18.541330, Alt.=74.206116m. Speed=0.000000m/h.</desc>
<speed>0.000000</speed>
</trkpt>
<trkpt lat="42.452606" lon="18.541330">
<ele>74.194397</ele>
<time>2012-05-02T07:48:13Z</time>
<desc>lat.=42.452606, lon.=18.541330, Alt.=74.194397m. Speed=0.072000m/h.</desc>
<speed>0.020000</speed>
</trkpt>
<trkpt lat="42.452606" lon="18.541330">
<ele>74.188538</ele>
<time>2012-05-02T07:48:18Z</time>
<desc>lat.=42.452606, lon.=18.541330, Alt.=74.188538m. Speed=0.072000m/h.</desc>
<speed>0.020000</speed>
</trkpt>
<trkpt lat="42.452606" lon="18.541330">
<ele>74.204163</ele>
<time>2012-05-02T07:48:23Z</time>
<desc>lat.=42.452606, lon.=18.541330, Alt.=74.204163m. Speed=0.072000m/h.</desc>
<speed>0.020000</speed>
</trkpt>
<trkpt lat="42.452606" lon="18.541330">
<ele>74.239319</ele>
<time>2012-05-02T07:48:28Z</time>
<desc>lat.=42.452606, lon.=18.541330, Alt.=74.239319m. Speed=0.036000m/h.</desc>
<speed>0.010000</speed>
</trkpt>
<trkpt lat="42.452606" lon="18.541330">
<ele>74.309631</ele>
<time>2012-05-02T07:48:33Z</time>
<desc>lat.=42.452606, lon.=18.541330, Alt.=74.309631m. Speed=0.144000m/h.</desc>
<speed>0.040000</speed>
</trkpt>
<trkpt lat="42.452610" lon="18.541330">
<ele>74.333069</ele>
<time>2012-05-02T07:48:38Z</time>
<desc>lat.=42.452610, lon.=18.541330, Alt.=74.333069m. Speed=0.036000m/h.</desc>
<speed>0.010000</speed>
</trkpt>
<trkpt lat="42.452610" lon="18.541330">
<ele>74.370178</ele>
<time>2012-05-02T07:48:43Z</time>
<desc>lat.=42.452610, lon.=18.541330, Alt.=74.370178m. Speed=0.000000m/h.</desc>
<speed>0.000000</speed>
</trkpt>
<trkpt lat="42.452610" lon="18.541330">
<ele>74.434631</ele>
<time>2012-05-02T07:48:48Z</time>
<desc>lat.=42.452610, lon.=18.541330, Alt.=74.434631m. Speed=0.000000m/h.</desc>
<speed>0.000000</speed>
</trkpt>
<trkpt lat="42.452610" lon="18.541330">
<ele>74.530334</ele>
<time>2012-05-02T07:48:53Z</time>
<desc>lat.=42.452610, lon.=18.541330, Alt.=74.530334m. Speed=0.036000m/h.</desc>
<speed>0.010000</speed>
</trkpt>
<trkpt lat="42.452606" lon="18.541330">
<ele>74.647522</ele>
<time>2012-05-02T07:48:58Z</time>
<desc>lat.=42.452606, lon.=18.541330, Alt.=74.647522m. Speed=0.108000m/h.</desc>
<speed>0.030000</speed>
</trkpt>
<trkpt lat="42.452606" lon="18.541330">
<ele>74.731506</ele>
<time>2012-05-02T07:49:03Z</time>
<desc>lat.=42.452606, lon.=18.541330, Alt.=74.731506m. Speed=0.036000m/h.</desc>
<speed>0.010000</speed>
</trkpt>
<trkpt lat="42.452606" lon="18.541328">
<ele>74.846741</ele>
<time>2012-05-02T07:49:08Z</time>
<desc>lat.=42.452606, lon.=18.541328, Alt.=74.846741m. Speed=0.036000m/h.</desc>
<speed>0.010000</speed>
</trkpt>
<trkpt lat="42.452606" lon="18.541328">
<ele>74.913147</ele>
<time>2012-05-02T07:49:13Z</time>
<desc>lat.=42.452606, lon.=18.541328, Alt.=74.913147m. Speed=0.000000m/h.</desc>
<speed>0.000000</speed>
</trkpt>
<trkpt lat="42.452606" lon="18.541328">
<ele>75.014709</ele>
<time>2012-05-02T07:49:18Z</time>
<desc>lat.=42.452606, lon.=18.541328, Alt.=75.014709m. Speed=0.072000m/h.</desc>
<speed>0.020000</speed>
</trkpt>
<trkpt lat="42.452606" lon="18.541328">
<ele>75.137756</ele>
<time>2012-05-02T07:49:23Z</time>
<desc>lat.=42.452606, lon.=18.541328, Alt.=75.137756m. Speed=0.072000m/h.</desc>
<speed>0.020000</speed>
</trkpt>
<trkpt lat="42.452606" lon="18.541327">
<ele>75.213928</ele>
<time>2012-05-02T07:49:28Z</time>
<desc>lat.=42.452606, lon.=18.541327, Alt.=75.213928m. Speed=0.036000m/h.</desc>
<speed>0.010000</speed>
</trkpt>
<trkpt lat="42.452606" lon="18.541327">
<ele>75.321350</ele>
<time>2012-05-02T07:49:33Z</time>
<desc>lat.=42.452606, lon.=18.541327, Alt.=75.321350m. Speed=0.000000m/h.</desc>
<speed>0.000000</speed>
</trkpt>
<trkpt lat="42.452606" lon="18.541327">
<ele>75.391663</ele>
<time>2012-05-02T07:49:38Z</time>
<desc>lat.=42.452606, lon.=18.541327, Alt.=75.391663m. Speed=0.036000m/h.</desc>
<speed>0.010000</speed>
</trkpt>
<trkpt lat="42.452606" lon="18.541327">
<ele>75.419006</ele>
<time>2012-05-02T07:49:43Z</time>
<desc>lat.=42.452606, lon.=18.541327, Alt.=75.419006m. Speed=0.036000m/h.</desc>
<speed>0.010000</speed>
</trkpt>
<trkpt lat="42.452606" lon="18.541327">
<ele>75.458069</ele>
<time>2012-05-02T07:49:48Z</time>
<desc>lat.=42.452606, lon.=18.541327, Alt.=75.458069m. Speed=0.036000m/h.</desc>
<speed>0.010000</speed>
</trkpt>
<trkpt lat="42.452606" lon="18.541327">
<ele>75.497131</ele>
<time>2012-05-02T07:49:53Z</time>
<desc>lat.=42.452606, lon.=18.541327, Alt.=75.497131m. Speed=0.000000m/h.</desc>
<speed>0.000000</speed>
</trkpt>
<trkpt lat="42.452606" lon="18.541327">
<ele>75.524475</ele>
<time>2012-05-02T07:49:58Z</time>
<desc>lat.=42.452606, lon.=18.541327, Alt.=75.524475m. Speed=0.000000m/h.</desc>
<speed>0.000000</speed>
</trkpt>
<trkpt lat="42.452606" lon="18.541327">
<ele>75.577209</ele>
<time>2012-05-02T07:50:03Z</time>
<desc>lat.=42.452606, lon.=18.541327, Alt.=75.577209m. Speed=0.036000m/h.</desc>
<speed>0.010000</speed>
</trkpt>
<trkpt lat="42.452606" lon="18.541327">
<ele>75.614319</ele>
<time>2012-05-02T07:50:08Z</time>
<desc>lat.=42.452606, lon.=18.541327, Alt.=75.614319m. Speed=0.036000m/h.</desc>
<speed>0.010000</speed>
</trkpt>
<trkpt lat="42.452606" lon="18.541328">
<ele>75.643616</ele>
<time>2012-05-02T07:50:13Z</time>
<desc>lat.=42.452606, lon.=18.541328, Alt.=75.643616m. Speed=1.656000m/h.</desc>
<speed>0.460000</speed>
</trkpt>
<trkpt lat="42.452587" lon="18.541319">
<ele>76.024475</ele>
<time>2012-05-02T07:50:18Z</time>
<desc>lat.=42.452587, lon.=18.541319, Alt.=76.024475m. Speed=2.052000m/h.</desc>
<speed>0.570000</speed>
</trkpt>
<trkpt lat="42.452583" lon="18.541309">
<ele>75.926819</ele>
<time>2012-05-02T07:50:23Z</time>
<desc>lat.=42.452583, lon.=18.541309, Alt.=75.926819m. Speed=0.900000m/h.</desc>
<speed>0.250000</speed>
</trkpt>
<trkpt lat="42.452599" lon="18.541365">
<ele>73.663147</ele>
<time>2012-05-02T07:50:28Z</time>
<desc>lat.=42.452599, lon.=18.541365, Alt.=73.663147m. Speed=1.044000m/h.</desc>
<speed>0.290000</speed>
</trkpt>
<trkpt lat="42.452579" lon="18.541401">
<ele>71.702209</ele>
<time>2012-05-02T07:50:33Z</time>
<desc>lat.=42.452579, lon.=18.541401, Alt.=71.702209m. Speed=2.772000m/h.</desc>
<speed>0.770000</speed>
</trkpt>
<trkpt lat="42.452583" lon="18.541451">
<ele>70.749084</ele>
<time>2012-05-02T07:50:38Z</time>
<desc>lat.=42.452583, lon.=18.541451, Alt.=70.749084m. Speed=1.764000m/h.</desc>
<speed>0.490000</speed>
</trkpt>
<trkpt lat="42.452599" lon="18.541466">
<ele>69.280334</ele>
<time>2012-05-02T07:50:43Z</time>
<desc>lat.=42.452599, lon.=18.541466, Alt.=69.280334m. Speed=0.900000m/h.</desc>
<speed>0.250000</speed>
</trkpt>
<trkpt lat="42.452629" lon="18.541471">
<ele>68.997131</ele>
<time>2012-05-02T07:50:48Z</time>
<desc>lat.=42.452629, lon.=18.541471, Alt.=68.997131m. Speed=1.620000m/h.</desc>
<speed>0.450000</speed>
</trkpt>
<trkpt lat="42.452625" lon="18.541475">
<ele>69.028381</ele>
<time>2012-05-02T07:50:53Z</time>
<desc>lat.=42.452625, lon.=18.541475, Alt.=69.028381m. Speed=0.612000m/h.</desc>
<speed>0.170000</speed>
</trkpt>
<trkpt lat="42.452648" lon="18.541481">
<ele>69.100647</ele>
<time>2012-05-02T07:50:58Z</time>
<desc>lat.=42.452648, lon.=18.541481, Alt.=69.100647m. Speed=0.792000m/h.</desc>
<speed>0.220000</speed>
</trkpt>
<trkpt lat="42.452274" lon="18.541325">
<ele>53.370636</ele>
<time>2012-05-02T07:51:09Z</time>
<desc>lat.=42.452274, lon.=18.541325, Alt.=53.370636m. Speed=0.360000m/h.</desc>
<speed>0.100000</speed>
</trkpt>
<trkpt lat="42.452457" lon="18.541386">
<ele>54.895050</ele>
<time>2012-05-02T07:51:14Z</time>
<desc>lat.=42.452457, lon.=18.541386, Alt.=54.895050m. Speed=0.108000m/h.</desc>
<speed>0.030000</speed>
</trkpt>
<trkpt lat="42.452522" lon="18.541410">
<ele>61.753448</ele>
<time>2012-05-02T07:51:19Z</time>
<desc>lat.=42.452522, lon.=18.541410, Alt.=61.753448m. Speed=0.288000m/h.</desc>
<speed>0.080000</speed>
</trkpt>
<trkpt lat="42.452583" lon="18.541426">
<ele>64.647522</ele>
<time>2012-05-02T07:51:24Z</time>
<desc>lat.=42.452583, lon.=18.541426, Alt.=64.647522m. Speed=0.180000m/h.</desc>
<speed>0.050000</speed>
</trkpt>
<trkpt lat="42.452599" lon="18.541439">
<ele>68.153381</ele>
<time>2012-05-02T07:51:29Z</time>
<desc>lat.=42.452599, lon.=18.541439, Alt.=68.153381m. Speed=0.000000m/h.</desc>
<speed>0.000000</speed>
</trkpt>
<trkpt lat="42.452579" lon="18.541433">
<ele>70.137756</ele>
<time>2012-05-02T07:51:34Z</time>
<desc>lat.=42.452579, lon.=18.541433, Alt.=70.137756m. Speed=0.000000m/h.</desc>
<speed>0.000000</speed>
</trkpt>
<trkpt lat="42.452579" lon="18.541431">
<ele>70.284241</ele>
<time>2012-05-02T07:51:39Z</time>
<desc>lat.=42.452579, lon.=18.541431, Alt.=70.284241m. Speed=0.000000m/h.</desc>
<speed>0.000000</speed>
</trkpt>
<trkpt lat="42.452579" lon="18.541433">
<ele>70.799866</ele>
<time>2012-05-02T07:51:44Z</time>
<desc>lat.=42.452579, lon.=18.541433, Alt.=70.799866m. Speed=0.144000m/h.</desc>
<speed>0.040000</speed>
</trkpt>
<trkpt lat="42.452579" lon="18.541431">
<ele>70.741272</ele>
<time>2012-05-02T07:51:49Z</time>
<desc>lat.=42.452579, lon.=18.541431, Alt.=70.741272m. Speed=0.540000m/h.</desc>
<speed>0.150000</speed>
</trkpt>
<trkpt lat="42.452579" lon="18.541433">
<ele>70.739319</ele>
<time>2012-05-02T07:51:54Z</time>
<desc>lat.=42.452579, lon.=18.541433, Alt.=70.739319m. Speed=0.036000m/h.</desc>
<speed>0.010000</speed>
</trkpt>
<trkpt lat="42.452583" lon="18.541433">
<ele>70.751038</ele>
<time>2012-05-02T07:51:59Z</time>
<desc>lat.=42.452583, lon.=18.541433, Alt.=70.751038m. Speed=0.000000m/h.</desc>
<speed>0.000000</speed>
</trkpt>
<trkpt lat="42.452583" lon="18.541433">
<ele>70.772522</ele>
<time>2012-05-02T07:52:04Z</time>
<desc>lat.=42.452583, lon.=18.541433, Alt.=70.772522m. Speed=0.072000m/h.</desc>
<speed>0.020000</speed>
</trkpt>
<trkpt lat="42.452583" lon="18.541433">
<ele>70.790100</ele>
<time>2012-05-02T07:52:09Z</time>
<desc>lat.=42.452583, lon.=18.541433, Alt.=70.790100m. Speed=0.000000m/h.</desc>
<speed>0.000000</speed>
</trkpt>
<trkpt lat="42.452583" lon="18.541435">
<ele>70.794006</ele>
<time>2012-05-02T07:52:14Z</time>
<desc>lat.=42.452583, lon.=18.541435, Alt.=70.794006m. Speed=0.072000m/h.</desc>
<speed>0.020000</speed>
</trkpt>
<trkpt lat="42.452583" lon="18.541435">
<ele>70.780334</ele>
<time>2012-05-02T07:52:19Z</time>
<desc>lat.=42.452583, lon.=18.541435, Alt.=70.780334m. Speed=0.000000m/h.</desc>
<speed>0.000000</speed>
</trkpt>
<trkpt lat="42.452583" lon="18.541435">
<ele>70.792053</ele>
<time>2012-05-02T07:52:24Z</time>
<desc>lat.=42.452583, lon.=18.541435, Alt.=70.792053m. Speed=0.036000m/h.</desc>
<speed>0.010000</speed>
</trkpt>
<trkpt lat="42.452587" lon="18.541435">
<ele>70.772522</ele>
<time>2012-05-02T07:52:29Z</time>
<desc>lat.=42.452587, lon.=18.541435, Alt.=70.772522m. Speed=0.108000m/h.</desc>
<speed>0.030000</speed>
</trkpt>
<trkpt lat="42.452587" lon="18.541437">
<ele>70.754944</ele>
<time>2012-05-02T07:52:34Z</time>
<desc>lat.=42.452587, lon.=18.541437, Alt.=70.754944m. Speed=0.108000m/h.</desc>
<speed>0.030000</speed>
</trkpt>
<trkpt lat="42.452587" lon="18.541437">
<ele>70.752991</ele>
<time>2012-05-02T07:52:39Z</time>
<desc>lat.=42.452587, lon.=18.541437, Alt.=70.752991m. Speed=0.000000m/h.</desc>
<speed>0.000000</speed>
</trkpt>
<trkpt lat="42.452587" lon="18.541437">
<ele>70.758850</ele>
<time>2012-05-02T07:52:44Z</time>
<desc>lat.=42.452587, lon.=18.541437, Alt.=70.758850m. Speed=0.036000m/h.</desc>
<speed>0.010000</speed>
</trkpt>
<trkpt lat="42.452587" lon="18.541437">
<ele>70.756897</ele>
<time>2012-05-02T07:52:49Z</time>
<desc>lat.=42.452587, lon.=18.541437, Alt.=70.756897m. Speed=0.072000m/h.</desc>
<speed>0.020000</speed>
</trkpt>
<trkpt lat="42.452587" lon="18.541437">
<ele>70.752991</ele>
<time>2012-05-02T07:52:54Z</time>
<desc>lat.=42.452587, lon.=18.541437, Alt.=70.752991m. Speed=0.000000m/h.</desc>
<speed>0.000000</speed>
</trkpt>
<trkpt lat="42.452587" lon="18.541437">
<ele>70.760803</ele>
<time>2012-05-02T07:52:59Z</time>
<desc>lat.=42.452587, lon.=18.541437, Alt.=70.760803m. Speed=0.000000m/h.</desc>
<speed>0.000000</speed>
</trkpt>
<trkpt lat="42.452587" lon="18.541437">
<ele>70.752991</ele>
<time>2012-05-02T07:53:04Z</time>
<desc>lat.=42.452587, lon.=18.541437, Alt.=70.752991m. Speed=0.036000m/h.</desc>
<speed>0.010000</speed>
</trkpt>
<trkpt lat="42.452587" lon="18.541437">
<ele>70.743225</ele>
<time>2012-05-02T07:53:09Z</time>
<desc>lat.=42.452587, lon.=18.541437, Alt.=70.743225m. Speed=0.108000m/h.</desc>
<speed>0.030000</speed>
</trkpt>
<trkpt lat="42.452587" lon="18.541437">
<ele>70.729553</ele>
<time>2012-05-02T07:53:14Z</time>
<desc>lat.=42.452587, lon.=18.541437, Alt.=70.729553m. Speed=0.072000m/h.</desc>
<speed>0.020000</speed>
</trkpt>
<trkpt lat="42.452591" lon="18.541437">
<ele>70.710022</ele>
<time>2012-05-02T07:53:19Z</time>
<desc>lat.=42.452591, lon.=18.541437, Alt.=70.710022m. Speed=0.036000m/h.</desc>
<speed>0.010000</speed>
</trkpt>
<trkpt lat="42.452591" lon="18.541437">
<ele>70.688538</ele>
<time>2012-05-02T07:53:24Z</time>
<desc>lat.=42.452591, lon.=18.541437, Alt.=70.688538m. Speed=0.000000m/h.</desc>
<speed>0.000000</speed>
</trkpt>
<trkpt lat="42.452591" lon="18.541437">
<ele>70.669006</ele>
<time>2012-05-02T07:53:29Z</time>
<desc>lat.=42.452591, lon.=18.541437, Alt.=70.669006m. Speed=0.000000m/h.</desc>
<speed>0.000000</speed>
</trkpt>
<trkpt lat="42.452591" lon="18.541437">
<ele>70.669006</ele>
<time>2012-05-02T07:53:34Z</time>
<desc>lat.=42.452591, lon.=18.541437, Alt.=70.669006m. Speed=0.000000m/h.</desc>
<speed>0.000000</speed>
</trkpt>
<trkpt lat="42.452591" lon="18.541437">
<ele>70.655334</ele>
<time>2012-05-02T07:53:39Z</time>
<desc>lat.=42.452591, lon.=18.541437, Alt.=70.655334m. Speed=0.036000m/h.</desc>
<speed>0.010000</speed>
</trkpt>
<trkpt lat="42.452591" lon="18.541437">
<ele>70.633850</ele>
<time>2012-05-02T07:53:44Z</time>
<desc>lat.=42.452591, lon.=18.541437, Alt.=70.633850m. Speed=0.036000m/h.</desc>
<speed>0.010000</speed>
</trkpt>
<trkpt lat="42.452591" lon="18.541437">
<ele>70.618225</ele>
<time>2012-05-02T07:53:49Z</time>
<desc>lat.=42.452591, lon.=18.541437, Alt.=70.618225m. Speed=0.000000m/h.</desc>
<speed>0.000000</speed>
</trkpt>
<trkpt lat="42.452591" lon="18.541437">
<ele>70.596741</ele>
<time>2012-05-02T07:53:54Z</time>
<desc>lat.=42.452591, lon.=18.541437, Alt.=70.596741m. Speed=0.000000m/h.</desc>
<speed>0.000000</speed>
</trkpt>
<trkpt lat="42.452591" lon="18.541437">
<ele>70.575256</ele>
<time>2012-05-02T07:53:59Z</time>
<desc>lat.=42.452591, lon.=18.541437, Alt.=70.575256m. Speed=0.000000m/h.</desc>
<speed>0.000000</speed>
</trkpt>
<trkpt lat="42.452591" lon="18.541437">
<ele>70.551819</ele>
<time>2012-05-02T07:54:04Z</time>
<desc>lat.=42.452591, lon.=18.541437, Alt.=70.551819m. Speed=0.036000m/h.</desc>
<speed>0.010000</speed>
</trkpt>
<trkpt lat="42.452591" lon="18.541437">
<ele>70.536194</ele>
<time>2012-05-02T07:54:09Z</time>
<desc>lat.=42.452591, lon.=18.541437, Alt.=70.536194m. Speed=0.000000m/h.</desc>
<speed>0.000000</speed>
</trkpt>
<trkpt lat="42.452591" lon="18.541437">
<ele>70.514709</ele>
<time>2012-05-02T07:54:14Z</time>
<desc>lat.=42.452591, lon.=18.541437, Alt.=70.514709m. Speed=0.036000m/h.</desc>
<speed>0.010000</speed>
</trkpt>
<trkpt lat="42.452591" lon="18.541437">
<ele>70.508850</ele>
<time>2012-05-02T07:54:19Z</time>
<desc>lat.=42.452591, lon.=18.541437, Alt.=70.508850m. Speed=0.036000m/h.</desc>
<speed>0.010000</speed>
</trkpt>
<trkpt lat="42.452591" lon="18.541437">
<ele>70.502991</ele>
<time>2012-05-02T07:54:24Z</time>
<desc>lat.=42.452591, lon.=18.541437, Alt.=70.502991m. Speed=0.000000m/h.</desc>
<speed>0.000000</speed>
</trkpt>
<trkpt lat="42.452591" lon="18.541437">
<ele>70.487366</ele>
<time>2012-05-02T07:54:29Z</time>
<desc>lat.=42.452591, lon.=18.541437, Alt.=70.487366m. Speed=0.036000m/h.</desc>
<speed>0.010000</speed>
</trkpt>
<trkpt lat="42.452591" lon="18.541437">
<ele>70.477600</ele>
<time>2012-05-02T07:54:34Z</time>
<desc>lat.=42.452591, lon.=18.541437, Alt.=70.477600m. Speed=0.000000m/h.</desc>
<speed>0.000000</speed>
</trkpt>
<trkpt lat="42.452591" lon="18.541437">
<ele>70.469788</ele>
<time>2012-05-02T07:54:39Z</time>
<desc>lat.=42.452591, lon.=18.541437, Alt.=70.469788m. Speed=0.108000m/h.</desc>
<speed>0.030000</speed>
</trkpt>
<trkpt lat="42.452591" lon="18.541437">
<ele>70.467834</ele>
<time>2012-05-02T07:54:44Z</time>
<desc>lat.=42.452591, lon.=18.541437, Alt.=70.467834m. Speed=0.036000m/h.</desc>
<speed>0.010000</speed>
</trkpt>
<trkpt lat="42.452591" lon="18.541437">
<ele>70.461975</ele>
<time>2012-05-02T07:54:49Z</time>
<desc>lat.=42.452591, lon.=18.541437, Alt.=70.461975m. Speed=0.036000m/h.</desc>
<speed>0.010000</speed>
</trkpt>
<trkpt lat="42.452591" lon="18.541437">
<ele>70.454163</ele>
<time>2012-05-02T07:54:54Z</time>
<desc>lat.=42.452591, lon.=18.541437, Alt.=70.454163m. Speed=0.036000m/h.</desc>
<speed>0.010000</speed>
</trkpt>
<trkpt lat="42.452591" lon="18.541437">
<ele>70.452209</ele>
<time>2012-05-02T07:54:59Z</time>
<desc>lat.=42.452591, lon.=18.541437, Alt.=70.452209m. Speed=0.036000m/h.</desc>
<speed>0.010000</speed>
</trkpt>
<trkpt lat="42.452595" lon="18.541437">
<ele>70.450256</ele>
<time>2012-05-02T07:55:04Z</time>
<desc>lat.=42.452595, lon.=18.541437, Alt.=70.450256m. Speed=0.072000m/h.</desc>
<speed>0.020000</speed>
</trkpt>
<trkpt lat="42.452595" lon="18.541437">
<ele>70.446350</ele>
<time>2012-05-02T07:55:09Z</time>
<desc>lat.=42.452595, lon.=18.541437, Alt.=70.446350m. Speed=0.036000m/h.</desc>
<speed>0.010000</speed>
</trkpt>
<trkpt lat="42.452595" lon="18.541437">
<ele>70.444397</ele>
<time>2012-05-02T07:55:14Z</time>
<desc>lat.=42.452595, lon.=18.541437, Alt.=70.444397m. Speed=0.000000m/h.</desc>
<speed>0.000000</speed>
</trkpt>
<trkpt lat="42.452595" lon="18.541437">
<ele>70.448303</ele>
<time>2012-05-02T07:55:19Z</time>
<desc>lat.=42.452595, lon.=18.541437, Alt.=70.448303m. Speed=0.000000m/h.</desc>
<speed>0.000000</speed>
</trkpt>
<trkpt lat="42.452595" lon="18.541437">
<ele>70.450256</ele>
<time>2012-05-02T07:55:24Z</time>
<desc>lat.=42.452595, lon.=18.541437, Alt.=70.450256m. Speed=0.000000m/h.</desc>
<speed>0.000000</speed>
</trkpt>
<trkpt lat="42.452595" lon="18.541437">
<ele>70.454163</ele>
<time>2012-05-02T07:55:29Z</time>
<desc>lat.=42.452595, lon.=18.541437, Alt.=70.454163m. Speed=0.000000m/h.</desc>
<speed>0.000000</speed>
</trkpt>
<trkpt lat="42.452595" lon="18.541437">
<ele>70.458069</ele>
<time>2012-05-02T07:55:34Z</time>
<desc>lat.=42.452595, lon.=18.541437, Alt.=70.458069m. Speed=0.000000m/h.</desc>
<speed>0.000000</speed>
</trkpt>
<trkpt lat="42.452595" lon="18.541437">
<ele>70.448303</ele>
<time>2012-05-02T07:55:39Z</time>
<desc>lat.=42.452595, lon.=18.541437, Alt.=70.448303m. Speed=0.036000m/h.</desc>
<speed>0.010000</speed>
</trkpt>
<trkpt lat="42.452595" lon="18.541437">
<ele>70.450256</ele>
<time>2012-05-02T07:55:44Z</time>
<desc>lat.=42.452595, lon.=18.541437, Alt.=70.450256m. Speed=0.036000m/h.</desc>
<speed>0.010000</speed>
</trkpt>
<trkpt lat="42.452595" lon="18.541437">
<ele>70.448303</ele>
<time>2012-05-02T07:55:49Z</time>
<desc>lat.=42.452595, lon.=18.541437, Alt.=70.448303m. Speed=0.036000m/h.</desc>
<speed>0.010000</speed>
</trkpt>
<trkpt lat="42.452595" lon="18.541437">
<ele>70.446350</ele>
<time>2012-05-02T07:55:54Z</time>
<desc>lat.=42.452595, lon.=18.541437, Alt.=70.446350m. Speed=0.000000m/h.</desc>
<speed>0.000000</speed>
</trkpt>
<trkpt lat="42.452595" lon="18.541439">
<ele>70.420959</ele>
<time>2012-05-02T07:55:59Z</time>
<desc>lat.=42.452595, lon.=18.541439, Alt.=70.420959m. Speed=0.072000m/h.</desc>
<speed>0.020000</speed>
</trkpt>
<trkpt lat="42.452595" lon="18.541439">
<ele>70.389709</ele>
<time>2012-05-02T07:56:04Z</time>
<desc>lat.=42.452595, lon.=18.541439, Alt.=70.389709m. Speed=0.072000m/h.</desc>
<speed>0.020000</speed>
</trkpt>
<trkpt lat="42.452595" lon="18.541439">
<ele>70.374084</ele>
<time>2012-05-02T07:56:09Z</time>
<desc>lat.=42.452595, lon.=18.541439, Alt.=70.374084m. Speed=0.000000m/h.</desc>
<speed>0.000000</speed>
</trkpt>
<trkpt lat="42.452595" lon="18.541439">
<ele>70.366272</ele>
<time>2012-05-02T07:56:14Z</time>
<desc>lat.=42.452595, lon.=18.541439, Alt.=70.366272m. Speed=0.108000m/h.</desc>
<speed>0.030000</speed>
</trkpt>
<trkpt lat="42.452595" lon="18.541439">
<ele>70.352600</ele>
<time>2012-05-02T07:56:19Z</time>
<desc>lat.=42.452595, lon.=18.541439, Alt.=70.352600m. Speed=0.000000m/h.</desc>
<speed>0.000000</speed>
</trkpt>
<trkpt lat="42.452595" lon="18.541439">
<ele>70.331116</ele>
<time>2012-05-02T07:56:24Z</time>
<desc>lat.=42.452595, lon.=18.541439, Alt.=70.331116m. Speed=0.000000m/h.</desc>
<speed>0.000000</speed>
</trkpt>
<trkpt lat="42.452595" lon="18.541439">
<ele>70.305725</ele>
<time>2012-05-02T07:56:29Z</time>
<desc>lat.=42.452595, lon.=18.541439, Alt.=70.305725m. Speed=0.000000m/h.</desc>
<speed>0.000000</speed>
</trkpt>
<trkpt lat="42.452595" lon="18.541439">
<ele>70.280334</ele>
<time>2012-05-02T07:56:34Z</time>
<desc>lat.=42.452595, lon.=18.541439, Alt.=70.280334m. Speed=0.036000m/h.</desc>
<speed>0.010000</speed>
</trkpt>
<trkpt lat="42.452595" lon="18.541439">
<ele>70.264709</ele>
<time>2012-05-02T07:56:39Z</time>
<desc>lat.=42.452595, lon.=18.541439, Alt.=70.264709m. Speed=0.000000m/h.</desc>
<speed>0.000000</speed>
</trkpt>
<trkpt lat="42.452595" lon="18.541439">
<ele>70.239319</ele>
<time>2012-05-02T07:56:44Z</time>
<desc>lat.=42.452595, lon.=18.541439, Alt.=70.239319m. Speed=0.036000m/h.</desc>
<speed>0.010000</speed>
</trkpt>
<trkpt lat="42.452595" lon="18.541439">
<ele>70.215881</ele>
<time>2012-05-02T07:56:49Z</time>
<desc>lat.=42.452595, lon.=18.541439, Alt.=70.215881m. Speed=0.000000m/h.</desc>
<speed>0.000000</speed>
</trkpt>
<trkpt lat="42.452595" lon="18.541439">
<ele>70.196350</ele>
<time>2012-05-02T07:56:54Z</time>
<desc>lat.=42.452595, lon.=18.541439, Alt.=70.196350m. Speed=0.180000m/h.</desc>
<speed>0.050000</speed>
</trkpt>
<trkpt lat="42.452595" lon="18.541439">
<ele>70.141663</ele>
<time>2012-05-02T07:56:59Z</time>
<desc>lat.=42.452595, lon.=18.541439, Alt.=70.141663m. Speed=0.072000m/h.</desc>
<speed>0.020000</speed>
</trkpt>
<trkpt lat="42.452595" lon="18.541439">
<ele>70.124084</ele>
<time>2012-05-02T07:57:04Z</time>
<desc>lat.=42.452595, lon.=18.541439, Alt.=70.124084m. Speed=0.000000m/h.</desc>
<speed>0.000000</speed>
</trkpt>
<trkpt lat="42.452595" lon="18.541439">
<ele>70.100647</ele>
<time>2012-05-02T07:57:09Z</time>
<desc>lat.=42.452595, lon.=18.541439, Alt.=70.100647m. Speed=0.000000m/h.</desc>
<speed>0.000000</speed>
</trkpt>
<trkpt lat="42.452595" lon="18.541439">
<ele>70.081116</ele>
<time>2012-05-02T07:57:14Z</time>
<desc>lat.=42.452595, lon.=18.541439, Alt.=70.081116m. Speed=0.000000m/h.</desc>
<speed>0.000000</speed>
</trkpt>
<trkpt lat="42.452595" lon="18.541439">
<ele>70.079163</ele>
<time>2012-05-02T07:57:19Z</time>
<desc>lat.=42.452595, lon.=18.541439, Alt.=70.079163m. Speed=0.108000m/h.</desc>
<speed>0.030000</speed>
</trkpt>
<trkpt lat="42.452595" lon="18.541439">
<ele>70.079163</ele>
<time>2012-05-02T07:57:24Z</time>
<desc>lat.=42.452595, lon.=18.541439, Alt.=70.079163m. Speed=0.000000m/h.</desc>
<speed>0.000000</speed>
</trkpt>
<trkpt lat="42.452595" lon="18.541439">
<ele>70.081116</ele>
<time>2012-05-02T07:57:29Z</time>
<desc>lat.=42.452595, lon.=18.541439, Alt.=70.081116m. Speed=0.000000m/h.</desc>
<speed>0.000000</speed>
</trkpt>
<trkpt lat="42.452595" lon="18.541439">
<ele>70.083069</ele>
<time>2012-05-02T07:57:34Z</time>
<desc>lat.=42.452595, lon.=18.541439, Alt.=70.083069m. Speed=0.036000m/h.</desc>
<speed>0.010000</speed>
</trkpt>
<trkpt lat="42.452595" lon="18.541439">
<ele>70.098694</ele>
<time>2012-05-02T07:57:39Z</time>
<desc>lat.=42.452595, lon.=18.541439, Alt.=70.098694m. Speed=0.072000m/h.</desc>
<speed>0.020000</speed>
</trkpt>
<trkpt lat="42.452599" lon="18.541439">
<ele>70.096741</ele>
<time>2012-05-02T07:57:44Z</time>
<desc>lat.=42.452599, lon.=18.541439, Alt.=70.096741m. Speed=0.000000m/h.</desc>
<speed>0.000000</speed>
</trkpt>
<trkpt lat="42.452599" lon="18.541439">
<ele>70.098694</ele>
<time>2012-05-02T07:57:49Z</time>
<desc>lat.=42.452599, lon.=18.541439, Alt.=70.098694m. Speed=0.000000m/h.</desc>
<speed>0.000000</speed>
</trkpt>
<trkpt lat="42.452599" lon="18.541439">
<ele>70.094788</ele>
<time>2012-05-02T07:57:54Z</time>
<desc>lat.=42.452599, lon.=18.541439, Alt.=70.094788m. Speed=0.000000m/h.</desc>
<speed>0.000000</speed>
</trkpt>
<trkpt lat="42.452599" lon="18.541439">
<ele>70.092834</ele>
<time>2012-05-02T07:57:59Z</time>
<desc>lat.=42.452599, lon.=18.541439, Alt.=70.092834m. Speed=0.000000m/h.</desc>
<speed>0.000000</speed>
</trkpt>
<trkpt lat="42.452599" lon="18.541439">
<ele>70.094788</ele>
<time>2012-05-02T07:58:04Z</time>
<desc>lat.=42.452599, lon.=18.541439, Alt.=70.094788m. Speed=0.036000m/h.</desc>
<speed>0.010000</speed>
</trkpt>
<trkpt lat="42.452599" lon="18.541439">
<ele>70.096741</ele>
<time>2012-05-02T07:58:09Z</time>
<desc>lat.=42.452599, lon.=18.541439, Alt.=70.096741m. Speed=0.036000m/h.</desc>
<speed>0.010000</speed>
</trkpt>
<trkpt lat="42.452599" lon="18.541439">
<ele>70.096741</ele>
<time>2012-05-02T07:58:14Z</time>
<desc>lat.=42.452599, lon.=18.541439, Alt.=70.096741m. Speed=0.000000m/h.</desc>
<speed>0.000000</speed>
</trkpt>
<trkpt lat="42.452599" lon="18.541439">
<ele>70.102600</ele>
<time>2012-05-02T07:58:19Z</time>
<desc>lat.=42.452599, lon.=18.541439, Alt.=70.102600m. Speed=0.000000m/h.</desc>
<speed>0.000000</speed>
</trkpt>
<trkpt lat="42.452599" lon="18.541439">
<ele>70.110413</ele>
<time>2012-05-02T07:58:24Z</time>
<desc>lat.=42.452599, lon.=18.541439, Alt.=70.110413m. Speed=0.108000m/h.</desc>
<speed>0.030000</speed>
</trkpt>
<trkpt lat="42.452599" lon="18.541439">
<ele>70.114319</ele>
<time>2012-05-02T07:58:29Z</time>
<desc>lat.=42.452599, lon.=18.541439, Alt.=70.114319m. Speed=0.036000m/h.</desc>
<speed>0.010000</speed>
</trkpt>
<trkpt lat="42.452599" lon="18.541439">
<ele>70.106506</ele>
<time>2012-05-02T07:58:34Z</time>
<desc>lat.=42.452599, lon.=18.541439, Alt.=70.106506m. Speed=0.036000m/h.</desc>
<speed>0.010000</speed>
</trkpt>
<trkpt lat="42.452599" lon="18.541439">
<ele>70.102600</ele>
<time>2012-05-02T07:58:39Z</time>
<desc>lat.=42.452599, lon.=18.541439, Alt.=70.102600m. Speed=0.036000m/h.</desc>
<speed>0.010000</speed>
</trkpt>
<trkpt lat="42.452599" lon="18.541441">
<ele>70.100647</ele>
<time>2012-05-02T07:58:44Z</time>
<desc>lat.=42.452599, lon.=18.541441, Alt.=70.100647m. Speed=0.036000m/h.</desc>
<speed>0.010000</speed>
</trkpt>
<trkpt lat="42.452599" lon="18.541441">
<ele>70.098694</ele>
<time>2012-05-02T07:58:49Z</time>
<desc>lat.=42.452599, lon.=18.541441, Alt.=70.098694m. Speed=0.036000m/h.</desc>
<speed>0.010000</speed>
</trkpt>
<trkpt lat="42.452599" lon="18.541441">
<ele>70.090881</ele>
<time>2012-05-02T07:58:54Z</time>
<desc>lat.=42.452599, lon.=18.541441, Alt.=70.090881m. Speed=0.000000m/h.</desc>
<speed>0.000000</speed>
</trkpt>
<trkpt lat="42.452599" lon="18.541441">
<ele>70.085022</ele>
<time>2012-05-02T07:58:59Z</time>
<desc>lat.=42.452599, lon.=18.541441, Alt.=70.085022m. Speed=0.072000m/h.</desc>
<speed>0.020000</speed>
</trkpt>
<trkpt lat="42.452599" lon="18.541441">
<ele>70.077209</ele>
<time>2012-05-02T07:59:04Z</time>
<desc>lat.=42.452599, lon.=18.541441, Alt.=70.077209m. Speed=0.000000m/h.</desc>
<speed>0.000000</speed>
</trkpt>
<trkpt lat="42.452599" lon="18.541441">
<ele>70.073303</ele>
<time>2012-05-02T07:59:09Z</time>
<desc>lat.=42.452599, lon.=18.541441, Alt.=70.073303m. Speed=0.180000m/h.</desc>
<speed>0.050000</speed>
</trkpt>
<trkpt lat="42.452599" lon="18.541441">
<ele>70.073303</ele>
<time>2012-05-02T07:59:14Z</time>
<desc>lat.=42.452599, lon.=18.541441, Alt.=70.073303m. Speed=0.000000m/h.</desc>
<speed>0.000000</speed>
</trkpt>
<trkpt lat="42.452599" lon="18.541441">
<ele>70.067444</ele>
<time>2012-05-02T07:59:19Z</time>
<desc>lat.=42.452599, lon.=18.541441, Alt.=70.067444m. Speed=0.000000m/h.</desc>
<speed>0.000000</speed>
</trkpt>
<trkpt lat="42.452599" lon="18.541441">
<ele>70.055725</ele>
<time>2012-05-02T07:59:24Z</time>
<desc>lat.=42.452599, lon.=18.541441, Alt.=70.055725m. Speed=0.036000m/h.</desc>
<speed>0.010000</speed>
</trkpt>
<trkpt lat="42.452599" lon="18.541441">
<ele>70.051819</ele>
<time>2012-05-02T07:59:29Z</time>
<desc>lat.=42.452599, lon.=18.541441, Alt.=70.051819m. Speed=0.036000m/h.</desc>
<speed>0.010000</speed>
</trkpt>
<trkpt lat="42.452599" lon="18.541441">
<ele>70.051819</ele>
<time>2012-05-02T07:59:34Z</time>
<desc>lat.=42.452599, lon.=18.541441, Alt.=70.051819m. Speed=0.000000m/h.</desc>
<speed>0.000000</speed>
</trkpt>
<trkpt lat="42.452599" lon="18.541441">
<ele>70.049866</ele>
<time>2012-05-02T07:59:39Z</time>
<desc>lat.=42.452599, lon.=18.541441, Alt.=70.049866m. Speed=0.000000m/h.</desc>
<speed>0.000000</speed>
</trkpt>
<trkpt lat="42.452599" lon="18.541443">
<ele>70.049866</ele>
<time>2012-05-02T07:59:44Z</time>
<desc>lat.=42.452599, lon.=18.541443, Alt.=70.049866m. Speed=0.180000m/h.</desc>
<speed>0.050000</speed>
</trkpt>
<trkpt lat="42.452599" lon="18.541443">
<ele>70.051819</ele>
<time>2012-05-02T07:59:49Z</time>
<desc>lat.=42.452599, lon.=18.541443, Alt.=70.051819m. Speed=0.000000m/h.</desc>
<speed>0.000000</speed>
</trkpt>
<trkpt lat="42.452599" lon="18.541443">
<ele>70.051819</ele>
<time>2012-05-02T07:59:54Z</time>
<desc>lat.=42.452599, lon.=18.541443, Alt.=70.051819m. Speed=0.072000m/h.</desc>
<speed>0.020000</speed>
</trkpt>
<trkpt lat="42.452599" lon="18.541443">
<ele>70.051819</ele>
<time>2012-05-02T07:59:59Z</time>
<desc>lat.=42.452599, lon.=18.541443, Alt.=70.051819m. Speed=0.072000m/h.</desc>
<speed>0.020000</speed>
</trkpt>
<trkpt lat="42.452599" lon="18.541443">
<ele>70.055725</ele>
<time>2012-05-02T08:00:04Z</time>
<desc>lat.=42.452599, lon.=18.541443, Alt.=70.055725m. Speed=0.432000m/h.</desc>
<speed>0.120000</speed>
</trkpt>
<trkpt lat="42.452599" lon="18.541443">
<ele>70.065491</ele>
<time>2012-05-02T08:00:09Z</time>
<desc>lat.=42.452599, lon.=18.541443, Alt.=70.065491m. Speed=0.000000m/h.</desc>
<speed>0.000000</speed>
</trkpt>
<trkpt lat="42.452599" lon="18.541443">
<ele>70.067444</ele>
<time>2012-05-02T08:00:14Z</time>
<desc>lat.=42.452599, lon.=18.541443, Alt.=70.067444m. Speed=0.036000m/h.</desc>
<speed>0.010000</speed>
</trkpt>
<trkpt lat="42.452599" lon="18.541443">
<ele>70.085022</ele>
<time>2012-05-02T08:00:19Z</time>
<desc>lat.=42.452599, lon.=18.541443, Alt.=70.085022m. Speed=0.000000m/h.</desc>
<speed>0.000000</speed>
</trkpt>
<trkpt lat="42.452599" lon="18.541443">
<ele>70.092834</ele>
<time>2012-05-02T08:00:24Z</time>
<desc>lat.=42.452599, lon.=18.541443, Alt.=70.092834m. Speed=0.036000m/h.</desc>
<speed>0.010000</speed>
</trkpt>
<trkpt lat="42.452599" lon="18.541443">
<ele>70.098694</ele>
<time>2012-05-02T08:00:29Z</time>
<desc>lat.=42.452599, lon.=18.541443, Alt.=70.098694m. Speed=0.036000m/h.</desc>
<speed>0.010000</speed>
</trkpt>
<trkpt lat="42.452599" lon="18.541445">
<ele>70.104553</ele>
<time>2012-05-02T08:00:34Z</time>
<desc>lat.=42.452599, lon.=18.541445, Alt.=70.104553m. Speed=0.036000m/h.</desc>
<speed>0.010000</speed>
</trkpt>
<trkpt lat="42.452599" lon="18.541445">
<ele>70.114319</ele>
<time>2012-05-02T08:00:39Z</time>
<desc>lat.=42.452599, lon.=18.541445, Alt.=70.114319m. Speed=0.000000m/h.</desc>
<speed>0.000000</speed>
</trkpt>
<trkpt lat="42.452599" lon="18.541445">
<ele>70.124084</ele>
<time>2012-05-02T08:00:44Z</time>
<desc>lat.=42.452599, lon.=18.541445, Alt.=70.124084m. Speed=0.036000m/h.</desc>
<speed>0.010000</speed>
</trkpt>
<trkpt lat="42.452599" lon="18.541445">
<ele>70.126038</ele>
<time>2012-05-02T08:00:49Z</time>
<desc>lat.=42.452599, lon.=18.541445, Alt.=70.126038m. Speed=0.000000m/h.</desc>
<speed>0.000000</speed>
</trkpt>
<trkpt lat="42.452599" lon="18.541445">
<ele>70.139709</ele>
<time>2012-05-02T08:00:54Z</time>
<desc>lat.=42.452599, lon.=18.541445, Alt.=70.139709m. Speed=0.036000m/h.</desc>
<speed>0.010000</speed>
</trkpt>
<trkpt lat="42.452602" lon="18.541445">
<ele>70.151428</ele>
<time>2012-05-02T08:00:59Z</time>
<desc>lat.=42.452602, lon.=18.541445, Alt.=70.151428m. Speed=0.000000m/h.</desc>
<speed>0.000000</speed>
</trkpt>
<trkpt lat="42.452602" lon="18.541445">
<ele>70.172913</ele>
<time>2012-05-02T08:01:04Z</time>
<desc>lat.=42.452602, lon.=18.541445, Alt.=70.172913m. Speed=0.072000m/h.</desc>
<speed>0.020000</speed>
</trkpt>
<trkpt lat="42.452602" lon="18.541445">
<ele>70.196350</ele>
<time>2012-05-02T08:01:09Z</time>
<desc>lat.=42.452602, lon.=18.541445, Alt.=70.196350m. Speed=0.036000m/h.</desc>
<speed>0.010000</speed>
</trkpt>
<trkpt lat="42.452602" lon="18.541445">
<ele>70.210022</ele>
<time>2012-05-02T08:01:14Z</time>
<desc>lat.=42.452602, lon.=18.541445, Alt.=70.210022m. Speed=0.108000m/h.</desc>
<speed>0.030000</speed>
</trkpt>
<trkpt lat="42.452602" lon="18.541445">
<ele>70.213928</ele>
<time>2012-05-02T08:01:19Z</time>
<desc>lat.=42.452602, lon.=18.541445, Alt.=70.213928m. Speed=0.000000m/h.</desc>
<speed>0.000000</speed>
</trkpt>
<trkpt lat="42.452602" lon="18.541445">
<ele>70.231506</ele>
<time>2012-05-02T08:01:24Z</time>
<desc>lat.=42.452602, lon.=18.541445, Alt.=70.231506m. Speed=0.000000m/h.</desc>
<speed>0.000000</speed>
</trkpt>
<trkpt lat="42.452587" lon="18.541445">
<ele>70.672913</ele>
<time>2012-05-02T08:01:29Z</time>
<desc>lat.=42.452587, lon.=18.541445, Alt.=70.672913m. Speed=0.036000m/h.</desc>
<speed>0.010000</speed>
</trkpt>
<trkpt lat="42.452572" lon="18.541449">
<ele>70.450256</ele>
<time>2012-05-02T08:01:34Z</time>
<desc>lat.=42.452572, lon.=18.541449, Alt.=70.450256m. Speed=0.216000m/h.</desc>
<speed>0.060000</speed>
</trkpt>
<trkpt lat="42.452576" lon="18.541422">
<ele>70.999084</ele>
<time>2012-05-02T08:01:39Z</time>
<desc>lat.=42.452576, lon.=18.541422, Alt.=70.999084m. Speed=3.384000m/h.</desc>
<speed>0.940000</speed>
</trkpt>
<trkpt lat="42.452599" lon="18.541288">
<ele>71.993225</ele>
<time>2012-05-02T08:01:44Z</time>
<desc>lat.=42.452599, lon.=18.541288, Alt.=71.993225m. Speed=11.268000m/h.</desc>
<speed>3.130000</speed>
</trkpt>
<trkpt lat="42.452621" lon="18.541075">
<ele>72.975647</ele>
<time>2012-05-02T08:01:49Z</time>
<desc>lat.=42.452621, lon.=18.541075, Alt.=72.975647m. Speed=15.048000m/h.</desc>
<speed>4.180000</speed>
</trkpt>
<trkpt lat="42.452633" lon="18.540794">
<ele>73.413147</ele>
<time>2012-05-02T08:01:54Z</time>
<desc>lat.=42.452633, lon.=18.540794, Alt.=73.413147m. Speed=16.704000m/h.</desc>
<speed>4.640000</speed>
</trkpt>
<trkpt lat="42.452633" lon="18.540461">
<ele>73.852600</ele>
<time>2012-05-02T08:01:59Z</time>
<desc>lat.=42.452633, lon.=18.540461, Alt.=73.852600m. Speed=17.747999m/h.</desc>
<speed>4.930000</speed>
</trkpt>
<trkpt lat="42.452648" lon="18.540180">
<ele>74.143616</ele>
<time>2012-05-02T08:02:04Z</time>
<desc>lat.=42.452648, lon.=18.540180, Alt.=74.143616m. Speed=16.812000m/h.</desc>
<speed>4.670000</speed>
</trkpt>
<trkpt lat="42.452679" lon="18.539902">
<ele>75.001038</ele>
<time>2012-05-02T08:02:09Z</time>
<desc>lat.=42.452679, lon.=18.539902, Alt.=75.001038m. Speed=14.400000m/h.</desc>
<speed>4.000000</speed>
</trkpt>
<trkpt lat="42.452713" lon="18.539709">
<ele>76.989319</ele>
<time>2012-05-02T08:02:14Z</time>
<desc>lat.=42.452713, lon.=18.539709, Alt.=76.989319m. Speed=13.356000m/h.</desc>
<speed>3.710000</speed>
</trkpt>
<trkpt lat="42.452740" lon="18.539459">
<ele>79.381897</ele>
<time>2012-05-02T08:02:19Z</time>
<desc>lat.=42.452740, lon.=18.539459, Alt.=79.381897m. Speed=13.320000m/h.</desc>
<speed>3.700000</speed>
</trkpt>
<trkpt lat="42.452759" lon="18.539312">
<ele>83.794006</ele>
<time>2012-05-02T08:02:24Z</time>
<desc>lat.=42.452759, lon.=18.539312, Alt.=83.794006m. Speed=9.432000m/h.</desc>
<speed>2.620000</speed>
</trkpt>
<trkpt lat="42.452755" lon="18.539213">
<ele>85.038147</ele>
<time>2012-05-02T08:02:29Z</time>
<desc>lat.=42.452755, lon.=18.539213, Alt.=85.038147m. Speed=5.544000m/h.</desc>
<speed>1.540000</speed>
</trkpt>
<trkpt lat="42.452732" lon="18.539076">
<ele>85.833069</ele>
<time>2012-05-02T08:02:34Z</time>
<desc>lat.=42.452732, lon.=18.539076, Alt.=85.833069m. Speed=10.008000m/h.</desc>
<speed>2.780000</speed>
</trkpt>
<trkpt lat="42.452660" lon="18.538921">
<ele>87.463928</ele>
<time>2012-05-02T08:02:39Z</time>
<desc>lat.=42.452660, lon.=18.538921, Alt.=87.463928m. Speed=7.848000m/h.</desc>
<speed>2.180000</speed>
</trkpt>
<trkpt lat="42.452637" lon="18.538774">
<ele>88.514709</ele>
<time>2012-05-02T08:02:44Z</time>
<desc>lat.=42.452637, lon.=18.538774, Alt.=88.514709m. Speed=8.028000m/h.</desc>
<speed>2.230000</speed>
</trkpt>
<trkpt lat="42.452648" lon="18.538637">
<ele>88.872131</ele>
<time>2012-05-02T08:02:49Z</time>
<desc>lat.=42.452648, lon.=18.538637, Alt.=88.872131m. Speed=7.092000m/h.</desc>
<speed>1.970000</speed>
</trkpt>
<trkpt lat="42.452698" lon="18.538525">
<ele>89.989319</ele>
<time>2012-05-02T08:02:54Z</time>
<desc>lat.=42.452698, lon.=18.538525, Alt.=89.989319m. Speed=8.244000m/h.</desc>
<speed>2.290000</speed>
</trkpt>
<trkpt lat="42.452766" lon="18.538406">
<ele>88.852600</ele>
<time>2012-05-02T08:02:59Z</time>
<desc>lat.=42.452766, lon.=18.538406, Alt.=88.852600m. Speed=7.956000m/h.</desc>
<speed>2.210000</speed>
</trkpt>
<trkpt lat="42.452827" lon="18.538292">
<ele>89.838928</ele>
<time>2012-05-02T08:03:04Z</time>
<desc>lat.=42.452827, lon.=18.538292, Alt.=89.838928m. Speed=8.064000m/h.</desc>
<speed>2.240000</speed>
</trkpt>
<trkpt lat="42.452862" lon="18.538204">
<ele>91.713928</ele>
<time>2012-05-02T08:03:09Z</time>
<desc>lat.=42.452862, lon.=18.538204, Alt.=91.713928m. Speed=3.816000m/h.</desc>
<speed>1.060000</speed>
</trkpt>
<trkpt lat="42.452862" lon="18.538187">
<ele>92.163147</ele>
<time>2012-05-02T08:03:14Z</time>
<desc>lat.=42.452862, lon.=18.538187, Alt.=92.163147m. Speed=0.180000m/h.</desc>
<speed>0.050000</speed>
</trkpt>
<trkpt lat="42.452869" lon="18.538151">
<ele>92.436584</ele>
<time>2012-05-02T08:03:19Z</time>
<desc>lat.=42.452869, lon.=18.538151, Alt.=92.436584m. Speed=4.680000m/h.</desc>
<speed>1.300000</speed>
</trkpt>
<trkpt lat="42.452839" lon="18.538069">
<ele>91.760803</ele>
<time>2012-05-02T08:03:24Z</time>
<desc>lat.=42.452839, lon.=18.538069, Alt.=91.760803m. Speed=3.744000m/h.</desc>
<speed>1.040000</speed>
</trkpt>
<trkpt lat="42.452843" lon="18.538025">
<ele>91.040100</ele>
<time>2012-05-02T08:03:29Z</time>
<desc>lat.=42.452843, lon.=18.538025, Alt.=91.040100m. Speed=0.216000m/h.</desc>
<speed>0.060000</speed>
</trkpt>
<trkpt lat="42.452854" lon="18.538029">
<ele>91.274475</ele>
<time>2012-05-02T08:03:34Z</time>
<desc>lat.=42.452854, lon.=18.538029, Alt.=91.274475m. Speed=0.000000m/h.</desc>
<speed>0.000000</speed>
</trkpt>
<trkpt lat="42.452854" lon="18.538029">
<ele>91.254944</ele>
<time>2012-05-02T08:03:39Z</time>
<desc>lat.=42.452854, lon.=18.538029, Alt.=91.254944m. Speed=0.000000m/h.</desc>
<speed>0.000000</speed>
</trkpt>
<trkpt lat="42.452854" lon="18.538029">
<ele>91.282288</ele>
<time>2012-05-02T08:03:44Z</time>
<desc>lat.=42.452854, lon.=18.538029, Alt.=91.282288m. Speed=0.036000m/h.</desc>
<speed>0.010000</speed>
</trkpt>
<trkpt lat="42.452854" lon="18.538029">
<ele>91.286194</ele>
<time>2012-05-02T08:03:49Z</time>
<desc>lat.=42.452854, lon.=18.538029, Alt.=91.286194m. Speed=0.036000m/h.</desc>
<speed>0.010000</speed>
</trkpt>
<trkpt lat="42.452869" lon="18.538015">
<ele>91.448303</ele>
<time>2012-05-02T08:03:54Z</time>
<desc>lat.=42.452869, lon.=18.538015, Alt.=91.448303m. Speed=1.332000m/h.</desc>
<speed>0.370000</speed>
</trkpt>
<trkpt lat="42.452911" lon="18.537962">
<ele>92.817444</ele>
<time>2012-05-02T08:03:59Z</time>
<desc>lat.=42.452911, lon.=18.537962, Alt.=92.817444m. Speed=8.424000m/h.</desc>
<speed>2.340000</speed>
</trkpt>
<trkpt lat="42.452923" lon="18.537802">
<ele>94.053772</ele>
<time>2012-05-02T08:04:04Z</time>
<desc>lat.=42.452923, lon.=18.537802, Alt.=94.053772m. Speed=10.728000m/h.</desc>
<speed>2.980000</speed>
</trkpt>
<trkpt lat="42.452953" lon="18.537580">
<ele>94.973694</ele>
<time>2012-05-02T08:04:09Z</time>
<desc>lat.=42.452953, lon.=18.537580, Alt.=94.973694m. Speed=12.168000m/h.</desc>
<speed>3.380000</speed>
</trkpt>
<trkpt lat="42.453014" lon="18.537365">
<ele>95.129944</ele>
<time>2012-05-02T08:04:14Z</time>
<desc>lat.=42.453014, lon.=18.537365, Alt.=95.129944m. Speed=12.348000m/h.</desc>
<speed>3.430000</speed>
</trkpt>
<trkpt lat="42.453072" lon="18.537203">
<ele>94.579163</ele>
<time>2012-05-02T08:04:19Z</time>
<desc>lat.=42.453072, lon.=18.537203, Alt.=94.579163m. Speed=8.064000m/h.</desc>
<speed>2.240000</speed>
</trkpt>
<trkpt lat="42.453110" lon="18.537085">
<ele>94.042053</ele>
<time>2012-05-02T08:04:24Z</time>
<desc>lat.=42.453110, lon.=18.537085, Alt.=94.042053m. Speed=6.984000m/h.</desc>
<speed>1.940000</speed>
</trkpt>
<trkpt lat="42.453117" lon="18.537056">
<ele>92.114319</ele>
<time>2012-05-02T08:04:29Z</time>
<desc>lat.=42.453117, lon.=18.537056, Alt.=92.114319m. Speed=0.072000m/h.</desc>
<speed>0.020000</speed>
</trkpt>
<trkpt lat="42.453117" lon="18.537056">
<ele>92.051819</ele>
<time>2012-05-02T08:04:34Z</time>
<desc>lat.=42.453117, lon.=18.537056, Alt.=92.051819m. Speed=0.108000m/h.</desc>
<speed>0.030000</speed>
</trkpt>
<trkpt lat="42.453117" lon="18.537054">
<ele>91.961975</ele>
<time>2012-05-02T08:04:39Z</time>
<desc>lat.=42.453117, lon.=18.537054, Alt.=91.961975m. Speed=0.252000m/h.</desc>
<speed>0.070000</speed>
</trkpt>
<trkpt lat="42.453117" lon="18.537056">
<ele>91.936584</ele>
<time>2012-05-02T08:04:44Z</time>
<desc>lat.=42.453117, lon.=18.537056, Alt.=91.936584m. Speed=0.036000m/h.</desc>
<speed>0.010000</speed>
</trkpt>
<trkpt lat="42.453117" lon="18.537056">
<ele>91.913147</ele>
<time>2012-05-02T08:04:49Z</time>
<desc>lat.=42.453117, lon.=18.537056, Alt.=91.913147m. Speed=0.108000m/h.</desc>
<speed>0.030000</speed>
</trkpt>
<trkpt lat="42.453121" lon="18.537045">
<ele>91.711975</ele>
<time>2012-05-02T08:04:54Z</time>
<desc>lat.=42.453121, lon.=18.537045, Alt.=91.711975m. Speed=0.072000m/h.</desc>
<speed>0.020000</speed>
</trkpt>
<trkpt lat="42.453121" lon="18.537045">
<ele>91.770569</ele>
<time>2012-05-02T08:04:59Z</time>
<desc>lat.=42.453121, lon.=18.537045, Alt.=91.770569m. Speed=0.108000m/h.</desc>
<speed>0.030000</speed>
</trkpt>
<trkpt lat="42.453159" lon="18.537001">
<ele>91.670959</ele>
<time>2012-05-02T08:05:04Z</time>
<desc>lat.=42.453159, lon.=18.537001, Alt.=91.670959m. Speed=11.916000m/h.</desc>
<speed>3.310000</speed>
</trkpt>
<trkpt lat="42.453232" lon="18.536758">
<ele>90.780334</ele>
<time>2012-05-02T08:05:09Z</time>
<desc>lat.=42.453232, lon.=18.536758, Alt.=90.780334m. Speed=17.532000m/h.</desc>
<speed>4.870000</speed>
</trkpt>
<trkpt lat="42.453232" lon="18.536421">
<ele>89.504944</ele>
<time>2012-05-02T08:05:14Z</time>
<desc>lat.=42.453232, lon.=18.536421, Alt.=89.504944m. Speed=22.643999m/h.</desc>
<speed>6.290000</speed>
</trkpt>
<trkpt lat="42.453224" lon="18.536015">
<ele>88.126038</ele>
<time>2012-05-02T08:05:19Z</time>
<desc>lat.=42.453224, lon.=18.536015, Alt.=88.126038m. Speed=24.372000m/h.</desc>
<speed>6.770000</speed>
</trkpt>
<trkpt lat="42.453209" lon="18.535583">
<ele>86.751038</ele>
<time>2012-05-02T08:05:24Z</time>
<desc>lat.=42.453209, lon.=18.535583, Alt.=86.751038m. Speed=26.208000m/h.</desc>
<speed>7.280000</speed>
</trkpt>
<trkpt lat="42.453186" lon="18.535145">
<ele>85.747131</ele>
<time>2012-05-02T08:05:29Z</time>
<desc>lat.=42.453186, lon.=18.535145, Alt.=85.747131m. Speed=25.488001m/h.</desc>
<speed>7.080000</speed>
</trkpt>
<trkpt lat="42.453167" lon="18.534695">
<ele>84.530334</ele>
<time>2012-05-02T08:05:34Z</time>
<desc>lat.=42.453167, lon.=18.534695, Alt.=84.530334m. Speed=27.431999m/h.</desc>
<speed>7.620000</speed>
</trkpt>
<trkpt lat="42.453159" lon="18.534262">
<ele>83.301819</ele>
<time>2012-05-02T08:05:39Z</time>
<desc>lat.=42.453159, lon.=18.534262, Alt.=83.301819m. Speed=19.691999m/h.</desc>
<speed>5.470000</speed>
</trkpt>
<trkpt lat="42.453171" lon="18.534077">
<ele>82.315491</ele>
<time>2012-05-02T08:05:44Z</time>
<desc>lat.=42.453171, lon.=18.534077, Alt.=82.315491m. Speed=7.020000m/h.</desc>
<speed>1.950000</speed>
</trkpt>
<trkpt lat="42.453178" lon="18.534025">
<ele>82.262756</ele>
<time>2012-05-02T08:05:49Z</time>
<desc>lat.=42.453178, lon.=18.534025, Alt.=82.262756m. Speed=6.084000m/h.</desc>
<speed>1.690000</speed>
</trkpt>
<trkpt lat="42.453110" lon="18.533978">
<ele>83.055725</ele>
<time>2012-05-02T08:05:54Z</time>
<desc>lat.=42.453110, lon.=18.533978, Alt.=83.055725m. Speed=6.012000m/h.</desc>
<speed>1.670000</speed>
</trkpt>
<trkpt lat="42.453079" lon="18.533966">
<ele>82.692444</ele>
<time>2012-05-02T08:05:59Z</time>
<desc>lat.=42.453079, lon.=18.533966, Alt.=82.692444m. Speed=0.864000m/h.</desc>
<speed>0.240000</speed>
</trkpt>
<trkpt lat="42.453053" lon="18.534004">
<ele>83.272522</ele>
<time>2012-05-02T08:06:04Z</time>
<desc>lat.=42.453053, lon.=18.534004, Alt.=83.272522m. Speed=3.240000m/h.</desc>
<speed>0.900000</speed>
</trkpt>
<trkpt lat="42.453045" lon="18.534023">
<ele>83.596741</ele>
<time>2012-05-02T08:06:09Z</time>
<desc>lat.=42.453045, lon.=18.534023, Alt.=83.596741m. Speed=0.180000m/h.</desc>
<speed>0.050000</speed>
</trkpt>
<trkpt lat="42.453045" lon="18.534025">
<ele>83.778381</ele>
<time>2012-05-02T08:06:14Z</time>
<desc>lat.=42.453045, lon.=18.534025, Alt.=83.778381m. Speed=2.016000m/h.</desc>
<speed>0.560000</speed>
</trkpt>
<trkpt lat="42.452988" lon="18.534067">
<ele>82.674866</ele>
<time>2012-05-02T08:06:19Z</time>
<desc>lat.=42.452988, lon.=18.534067, Alt.=82.674866m. Speed=4.284000m/h.</desc>
<speed>1.190000</speed>
</trkpt>
<trkpt lat="42.452972" lon="18.534109">
<ele>81.426819</ele>
<time>2012-05-02T08:06:24Z</time>
<desc>lat.=42.452972, lon.=18.534109, Alt.=81.426819m. Speed=0.216000m/h.</desc>
<speed>0.060000</speed>
</trkpt>
<trkpt lat="42.452972" lon="18.534105">
<ele>81.639709</ele>
<time>2012-05-02T08:06:29Z</time>
<desc>lat.=42.452972, lon.=18.534105, Alt.=81.639709m. Speed=0.036000m/h.</desc>
<speed>0.010000</speed>
</trkpt>
<trkpt lat="42.452972" lon="18.534105">
<ele>81.622131</ele>
<time>2012-05-02T08:06:34Z</time>
<desc>lat.=42.452972, lon.=18.534105, Alt.=81.622131m. Speed=0.144000m/h.</desc>
<speed>0.040000</speed>
</trkpt>
<trkpt lat="42.452972" lon="18.534107">
<ele>81.622131</ele>
<time>2012-05-02T08:06:39Z</time>
<desc>lat.=42.452972, lon.=18.534107, Alt.=81.622131m. Speed=0.216000m/h.</desc>
<speed>0.060000</speed>
</trkpt>
<trkpt lat="42.452953" lon="18.534126">
<ele>82.055725</ele>
<time>2012-05-02T08:06:44Z</time>
<desc>lat.=42.452953, lon.=18.534126, Alt.=82.055725m. Speed=4.104000m/h.</desc>
<speed>1.140000</speed>
</trkpt>
<trkpt lat="42.452946" lon="18.534088">
<ele>82.210022</ele>
<time>2012-05-02T08:06:49Z</time>
<desc>lat.=42.452946, lon.=18.534088, Alt.=82.210022m. Speed=0.468000m/h.</desc>
<speed>0.130000</speed>
</trkpt>
<trkpt lat="42.452930" lon="18.534092">
<ele>82.430725</ele>
<time>2012-05-02T08:06:54Z</time>
<desc>lat.=42.452930, lon.=18.534092, Alt.=82.430725m. Speed=1.080000m/h.</desc>
<speed>0.300000</speed>
</trkpt>
<trkpt lat="42.452908" lon="18.534103">
<ele>82.676819</ele>
<time>2012-05-02T08:06:59Z</time>
<desc>lat.=42.452908, lon.=18.534103, Alt.=82.676819m. Speed=3.888000m/h.</desc>
<speed>1.080000</speed>
</trkpt>
<trkpt lat="42.452866" lon="18.534079">
<ele>82.506897</ele>
<time>2012-05-02T08:07:04Z</time>
<desc>lat.=42.452866, lon.=18.534079, Alt.=82.506897m. Speed=3.636000m/h.</desc>
<speed>1.010000</speed>
</trkpt>
<trkpt lat="42.452839" lon="18.534069">
<ele>82.329163</ele>
<time>2012-05-02T08:07:09Z</time>
<desc>lat.=42.452839, lon.=18.534069, Alt.=82.329163m. Speed=2.376000m/h.</desc>
<speed>0.660000</speed>
</trkpt>
<trkpt lat="42.452820" lon="18.534084">
<ele>82.169006</ele>
<time>2012-05-02T08:07:14Z</time>
<desc>lat.=42.452820, lon.=18.534084, Alt.=82.169006m. Speed=1.584000m/h.</desc>
<speed>0.440000</speed>
</trkpt>
<trkpt lat="42.452812" lon="18.534113">
<ele>82.079163</ele>
<time>2012-05-02T08:07:19Z</time>
<desc>lat.=42.452812, lon.=18.534113, Alt.=82.079163m. Speed=0.720000m/h.</desc>
<speed>0.200000</speed>
</trkpt>
<trkpt lat="42.452820" lon="18.534132">
<ele>82.073303</ele>
<time>2012-05-02T08:07:24Z</time>
<desc>lat.=42.452820, lon.=18.534132, Alt.=82.073303m. Speed=1.008000m/h.</desc>
<speed>0.280000</speed>
</trkpt>
<trkpt lat="42.452854" lon="18.534170">
<ele>82.075256</ele>
<time>2012-05-02T08:07:29Z</time>
<desc>lat.=42.452854, lon.=18.534170, Alt.=82.075256m. Speed=1.620000m/h.</desc>
<speed>0.450000</speed>
</trkpt>
<trkpt lat="42.452915" lon="18.534224">
<ele>82.059631</ele>
<time>2012-05-02T08:07:34Z</time>
<desc>lat.=42.452915, lon.=18.534224, Alt.=82.059631m. Speed=2.736000m/h.</desc>
<speed>0.760000</speed>
</trkpt>
<trkpt lat="42.452972" lon="18.534241">
<ele>82.055725</ele>
<time>2012-05-02T08:07:39Z</time>
<desc>lat.=42.452972, lon.=18.534241, Alt.=82.055725m. Speed=2.268000m/h.</desc>
<speed>0.630000</speed>
</trkpt>
<trkpt lat="42.452991" lon="18.534245">
<ele>82.102600</ele>
<time>2012-05-02T08:07:44Z</time>
<desc>lat.=42.452991, lon.=18.534245, Alt.=82.102600m. Speed=1.548000m/h.</desc>
<speed>0.430000</speed>
</trkpt>
<trkpt lat="42.453003" lon="18.534231">
<ele>82.231506</ele>
<time>2012-05-02T08:07:49Z</time>
<desc>lat.=42.453003, lon.=18.534231, Alt.=82.231506m. Speed=1.116000m/h.</desc>
<speed>0.310000</speed>
</trkpt>
<trkpt lat="42.453003" lon="18.534235">
<ele>82.299866</ele>
<time>2012-05-02T08:07:54Z</time>
<desc>lat.=42.453003, lon.=18.534235, Alt.=82.299866m. Speed=0.612000m/h.</desc>
<speed>0.170000</speed>
</trkpt>
<trkpt lat="42.453007" lon="18.534243">
<ele>82.313538</ele>
<time>2012-05-02T08:07:59Z</time>
<desc>lat.=42.453007, lon.=18.534243, Alt.=82.313538m. Speed=0.684000m/h.</desc>
<speed>0.190000</speed>
</trkpt>
<trkpt lat="42.452999" lon="18.534252">
<ele>82.325256</ele>
<time>2012-05-02T08:08:04Z</time>
<desc>lat.=42.452999, lon.=18.534252, Alt.=82.325256m. Speed=0.576000m/h.</desc>
<speed>0.160000</speed>
</trkpt>
<trkpt lat="42.452980" lon="18.534248">
<ele>82.366272</ele>
<time>2012-05-02T08:08:09Z</time>
<desc>lat.=42.452980, lon.=18.534248, Alt.=82.366272m. Speed=0.936000m/h.</desc>
<speed>0.260000</speed>
</trkpt>
<trkpt lat="42.452934" lon="18.534233">
<ele>82.493225</ele>
<time>2012-05-02T08:08:14Z</time>
<desc>lat.=42.452934, lon.=18.534233, Alt.=82.493225m. Speed=2.520000m/h.</desc>
<speed>0.700000</speed>
</trkpt>
<trkpt lat="42.452900" lon="18.534227">
<ele>82.665100</ele>
<time>2012-05-02T08:08:19Z</time>
<desc>lat.=42.452900, lon.=18.534227, Alt.=82.665100m. Speed=2.196000m/h.</desc>
<speed>0.610000</speed>
</trkpt>
<trkpt lat="42.452862" lon="18.534229">
<ele>82.858459</ele>
<time>2012-05-02T08:08:24Z</time>
<desc>lat.=42.452862, lon.=18.534229, Alt.=82.858459m. Speed=2.376000m/h.</desc>
<speed>0.660000</speed>
</trkpt>
<trkpt lat="42.452827" lon="18.534252">
<ele>83.024475</ele>
<time>2012-05-02T08:08:29Z</time>
<desc>lat.=42.452827, lon.=18.534252, Alt.=83.024475m. Speed=2.160000m/h.</desc>
<speed>0.600000</speed>
</trkpt>
<trkpt lat="42.452827" lon="18.534237">
<ele>83.145569</ele>
<time>2012-05-02T08:08:34Z</time>
<desc>lat.=42.452827, lon.=18.534237, Alt.=83.145569m. Speed=1.080000m/h.</desc>
<speed>0.300000</speed>
</trkpt>
<trkpt lat="42.452839" lon="18.534233">
<ele>83.198303</ele>
<time>2012-05-02T08:08:39Z</time>
<desc>lat.=42.452839, lon.=18.534233, Alt.=83.198303m. Speed=0.864000m/h.</desc>
<speed>0.240000</speed>
</trkpt>
<trkpt lat="42.452831" lon="18.534241">
<ele>83.210022</ele>
<time>2012-05-02T08:08:44Z</time>
<desc>lat.=42.452831, lon.=18.534241, Alt.=83.210022m. Speed=0.648000m/h.</desc>
<speed>0.180000</speed>
</trkpt>
<trkpt lat="42.452869" lon="18.534248">
<ele>83.280334</ele>
<time>2012-05-02T08:08:49Z</time>
<desc>lat.=42.452869, lon.=18.534248, Alt.=83.280334m. Speed=2.088000m/h.</desc>
<speed>0.580000</speed>
</trkpt>
<trkpt lat="42.452911" lon="18.534267">
<ele>83.325256</ele>
<time>2012-05-02T08:08:54Z</time>
<desc>lat.=42.452911, lon.=18.534267, Alt.=83.325256m. Speed=1.800000m/h.</desc>
<speed>0.500000</speed>
</trkpt>
<trkpt lat="42.452946" lon="18.534277">
<ele>83.262756</ele>
<time>2012-05-02T08:08:59Z</time>
<desc>lat.=42.452946, lon.=18.534277, Alt.=83.262756m. Speed=1.476000m/h.</desc>
<speed>0.410000</speed>
</trkpt>
<trkpt lat="42.452988" lon="18.534279">
<ele>83.153381</ele>
<time>2012-05-02T08:09:04Z</time>
<desc>lat.=42.452988, lon.=18.534279, Alt.=83.153381m. Speed=1.512000m/h.</desc>
<speed>0.420000</speed>
</trkpt>
<trkpt lat="42.453011" lon="18.534239">
<ele>83.147522</ele>
<time>2012-05-02T08:09:09Z</time>
<desc>lat.=42.453011, lon.=18.534239, Alt.=83.147522m. Speed=1.656000m/h.</desc>
<speed>0.460000</speed>
</trkpt>
<trkpt lat="42.452988" lon="18.534210">
<ele>83.233459</ele>
<time>2012-05-02T08:09:14Z</time>
<desc>lat.=42.452988, lon.=18.534210, Alt.=83.233459m. Speed=0.648000m/h.</desc>
<speed>0.180000</speed>
</trkpt>
<trkpt lat="42.452934" lon="18.534184">
<ele>83.422913</ele>
<time>2012-05-02T08:09:19Z</time>
<desc>lat.=42.452934, lon.=18.534184, Alt.=83.422913m. Speed=2.556000m/h.</desc>
<speed>0.710000</speed>
</trkpt>
<trkpt lat="42.452969" lon="18.534164">
<ele>82.944397</ele>
<time>2012-05-02T08:09:24Z</time>
<desc>lat.=42.452969, lon.=18.534164, Alt.=82.944397m. Speed=2.844000m/h.</desc>
<speed>0.790000</speed>
</trkpt>
<trkpt lat="42.452984" lon="18.534132">
<ele>80.620178</ele>
<time>2012-05-02T08:09:29Z</time>
<desc>lat.=42.452984, lon.=18.534132, Alt.=80.620178m. Speed=0.108000m/h.</desc>
<speed>0.030000</speed>
</trkpt>
<trkpt lat="42.452988" lon="18.534124">
<ele>80.210022</ele>
<time>2012-05-02T08:09:34Z</time>
<desc>lat.=42.452988, lon.=18.534124, Alt.=80.210022m. Speed=0.360000m/h.</desc>
<speed>0.100000</speed>
</trkpt>
<trkpt lat="42.452988" lon="18.534122">
<ele>79.549866</ele>
<time>2012-05-02T08:09:39Z</time>
<desc>lat.=42.452988, lon.=18.534122, Alt.=79.549866m. Speed=0.000000m/h.</desc>
<speed>0.000000</speed>
</trkpt>
<trkpt lat="42.452988" lon="18.534122">
<ele>79.547913</ele>
<time>2012-05-02T08:09:44Z</time>
<desc>lat.=42.452988, lon.=18.534122, Alt.=79.547913m. Speed=0.072000m/h.</desc>
<speed>0.020000</speed>
</trkpt>
<trkpt lat="42.452988" lon="18.534122">
<ele>79.542053</ele>
<time>2012-05-02T08:09:49Z</time>
<desc>lat.=42.452988, lon.=18.534122, Alt.=79.542053m. Speed=0.000000m/h.</desc>
<speed>0.000000</speed>
</trkpt>
<trkpt lat="42.452988" lon="18.534122">
<ele>79.528381</ele>
<time>2012-05-02T08:09:54Z</time>
<desc>lat.=42.452988, lon.=18.534122, Alt.=79.528381m. Speed=0.000000m/h.</desc>
<speed>0.000000</speed>
</trkpt>
<trkpt lat="42.452988" lon="18.534121">
<ele>79.512756</ele>
<time>2012-05-02T08:09:59Z</time>
<desc>lat.=42.452988, lon.=18.534121, Alt.=79.512756m. Speed=0.000000m/h.</desc>
<speed>0.000000</speed>
</trkpt>
<trkpt lat="42.452988" lon="18.534121">
<ele>79.506897</ele>
<time>2012-05-02T08:10:04Z</time>
<desc>lat.=42.452988, lon.=18.534121, Alt.=79.506897m. Speed=0.000000m/h.</desc>
<speed>0.000000</speed>
</trkpt>
<trkpt lat="42.452988" lon="18.534121">
<ele>79.497131</ele>
<time>2012-05-02T08:10:09Z</time>
<desc>lat.=42.452988, lon.=18.534121, Alt.=79.497131m. Speed=0.036000m/h.</desc>
<speed>0.010000</speed>
</trkpt>
<trkpt lat="42.452988" lon="18.534121">
<ele>79.493225</ele>
<time>2012-05-02T08:10:14Z</time>
<desc>lat.=42.452988, lon.=18.534121, Alt.=79.493225m. Speed=0.000000m/h.</desc>
<speed>0.000000</speed>
</trkpt>
<trkpt lat="42.452988" lon="18.534121">
<ele>79.491272</ele>
<time>2012-05-02T08:10:19Z</time>
<desc>lat.=42.452988, lon.=18.534121, Alt.=79.491272m. Speed=0.072000m/h.</desc>
<speed>0.020000</speed>
</trkpt>
<trkpt lat="42.452988" lon="18.534121">
<ele>79.493225</ele>
<time>2012-05-02T08:10:24Z</time>
<desc>lat.=42.452988, lon.=18.534121, Alt.=79.493225m. Speed=0.072000m/h.</desc>
<speed>0.020000</speed>
</trkpt>
<trkpt lat="42.452988" lon="18.534121">
<ele>79.487366</ele>
<time>2012-05-02T08:10:29Z</time>
<desc>lat.=42.452988, lon.=18.534121, Alt.=79.487366m. Speed=0.000000m/h.</desc>
<speed>0.000000</speed>
</trkpt>
<trkpt lat="42.452988" lon="18.534121">
<ele>79.491272</ele>
<time>2012-05-02T08:10:34Z</time>
<desc>lat.=42.452988, lon.=18.534121, Alt.=79.491272m. Speed=0.000000m/h.</desc>
<speed>0.000000</speed>
</trkpt>
<trkpt lat="42.452988" lon="18.534119">
<ele>79.502991</ele>
<time>2012-05-02T08:10:39Z</time>
<desc>lat.=42.452988, lon.=18.534119, Alt.=79.502991m. Speed=0.000000m/h.</desc>
<speed>0.000000</speed>
</trkpt>
<trkpt lat="42.452988" lon="18.534119">
<ele>79.512756</ele>
<time>2012-05-02T08:10:44Z</time>
<desc>lat.=42.452988, lon.=18.534119, Alt.=79.512756m. Speed=0.072000m/h.</desc>
<speed>0.020000</speed>
</trkpt>
<trkpt lat="42.452988" lon="18.534119">
<ele>79.522522</ele>
<time>2012-05-02T08:10:49Z</time>
<desc>lat.=42.452988, lon.=18.534119, Alt.=79.522522m. Speed=0.000000m/h.</desc>
<speed>0.000000</speed>
</trkpt>
<trkpt lat="42.452988" lon="18.534119">
<ele>79.536194</ele>
<time>2012-05-02T08:10:54Z</time>
<desc>lat.=42.452988, lon.=18.534119, Alt.=79.536194m. Speed=0.036000m/h.</desc>
<speed>0.010000</speed>
</trkpt>
<trkpt lat="42.452988" lon="18.534119">
<ele>79.549866</ele>
<time>2012-05-02T08:10:59Z</time>
<desc>lat.=42.452988, lon.=18.534119, Alt.=79.549866m. Speed=0.000000m/h.</desc>
<speed>0.000000</speed>
</trkpt>
<trkpt lat="42.452988" lon="18.534119">
<ele>79.557678</ele>
<time>2012-05-02T08:11:04Z</time>
<desc>lat.=42.452988, lon.=18.534119, Alt.=79.557678m. Speed=0.072000m/h.</desc>
<speed>0.020000</speed>
</trkpt>
<trkpt lat="42.452988" lon="18.534119">
<ele>79.565491</ele>
<time>2012-05-02T08:11:09Z</time>
<desc>lat.=42.452988, lon.=18.534119, Alt.=79.565491m. Speed=0.000000m/h.</desc>
<speed>0.000000</speed>
</trkpt>
<trkpt lat="42.452988" lon="18.534117">
<ele>79.573303</ele>
<time>2012-05-02T08:11:14Z</time>
<desc>lat.=42.452988, lon.=18.534117, Alt.=79.573303m. Speed=0.036000m/h.</desc>
<speed>0.010000</speed>
</trkpt>
<trkpt lat="42.452988" lon="18.534117">
<ele>79.583069</ele>
<time>2012-05-02T08:11:19Z</time>
<desc>lat.=42.452988, lon.=18.534117, Alt.=79.583069m. Speed=0.036000m/h.</desc>
<speed>0.010000</speed>
</trkpt>
<trkpt lat="42.452988" lon="18.534117">
<ele>79.592834</ele>
<time>2012-05-02T08:11:24Z</time>
<desc>lat.=42.452988, lon.=18.534117, Alt.=79.592834m. Speed=0.000000m/h.</desc>
<speed>0.000000</speed>
</trkpt>
<trkpt lat="42.452988" lon="18.534117">
<ele>79.600647</ele>
<time>2012-05-02T08:11:29Z</time>
<desc>lat.=42.452988, lon.=18.534117, Alt.=79.600647m. Speed=0.036000m/h.</desc>
<speed>0.010000</speed>
</trkpt>
<trkpt lat="42.452988" lon="18.534117">
<ele>79.608459</ele>
<time>2012-05-02T08:11:34Z</time>
<desc>lat.=42.452988, lon.=18.534117, Alt.=79.608459m. Speed=0.000000m/h.</desc>
<speed>0.000000</speed>
</trkpt>
<trkpt lat="42.452988" lon="18.534117">
<ele>79.610413</ele>
<time>2012-05-02T08:11:39Z</time>
<desc>lat.=42.452988, lon.=18.534117, Alt.=79.610413m. Speed=0.000000m/h.</desc>
<speed>0.000000</speed>
</trkpt>
<trkpt lat="42.452988" lon="18.534117">
<ele>79.616272</ele>
<time>2012-05-02T08:11:44Z</time>
<desc>lat.=42.452988, lon.=18.534117, Alt.=79.616272m. Speed=0.000000m/h.</desc>
<speed>0.000000</speed>
</trkpt>
<trkpt lat="42.452988" lon="18.534115">
<ele>79.624084</ele>
<time>2012-05-02T08:11:49Z</time>
<desc>lat.=42.452988, lon.=18.534115, Alt.=79.624084m. Speed=0.000000m/h.</desc>
<speed>0.000000</speed>
</trkpt>
<trkpt lat="42.452988" lon="18.534115">
<ele>79.629944</ele>
<time>2012-05-02T08:11:54Z</time>
<desc>lat.=42.452988, lon.=18.534115, Alt.=79.629944m. Speed=0.072000m/h.</desc>
<speed>0.020000</speed>
</trkpt>
<trkpt lat="42.452988" lon="18.534115">
<ele>79.635803</ele>
<time>2012-05-02T08:11:59Z</time>
<desc>lat.=42.452988, lon.=18.534115, Alt.=79.635803m. Speed=0.000000m/h.</desc>
<speed>0.000000</speed>
</trkpt>
<trkpt lat="42.452988" lon="18.534115">
<ele>79.629944</ele>
<time>2012-05-02T08:12:04Z</time>
<desc>lat.=42.452988, lon.=18.534115, Alt.=79.629944m. Speed=0.000000m/h.</desc>
<speed>0.000000</speed>
</trkpt>
<trkpt lat="42.452988" lon="18.534115">
<ele>79.627991</ele>
<time>2012-05-02T08:12:09Z</time>
<desc>lat.=42.452988, lon.=18.534115, Alt.=79.627991m. Speed=0.036000m/h.</desc>
<speed>0.010000</speed>
</trkpt>
<trkpt lat="42.452988" lon="18.534115">
<ele>79.627991</ele>
<time>2012-05-02T08:12:14Z</time>
<desc>lat.=42.452988, lon.=18.534115, Alt.=79.627991m. Speed=0.036000m/h.</desc>
<speed>0.010000</speed>
</trkpt>
<trkpt lat="42.452988" lon="18.534115">
<ele>79.620178</ele>
<time>2012-05-02T08:12:19Z</time>
<desc>lat.=42.452988, lon.=18.534115, Alt.=79.620178m. Speed=0.000000m/h.</desc>
<speed>0.000000</speed>
</trkpt>
<trkpt lat="42.452988" lon="18.534115">
<ele>79.612366</ele>
<time>2012-05-02T08:12:24Z</time>
<desc>lat.=42.452988, lon.=18.534115, Alt.=79.612366m. Speed=0.000000m/h.</desc>
<speed>0.000000</speed>
</trkpt>
<trkpt lat="42.452988" lon="18.534115">
<ele>79.604553</ele>
<time>2012-05-02T08:12:29Z</time>
<desc>lat.=42.452988, lon.=18.534115, Alt.=79.604553m. Speed=0.000000m/h.</desc>
<speed>0.000000</speed>
</trkpt>
<trkpt lat="42.452988" lon="18.534115">
<ele>79.598694</ele>
<time>2012-05-02T08:12:34Z</time>
<desc>lat.=42.452988, lon.=18.534115, Alt.=79.598694m. Speed=0.000000m/h.</desc>
<speed>0.000000</speed>
</trkpt>
<trkpt lat="42.452988" lon="18.534113">
<ele>79.592834</ele>
<time>2012-05-02T08:12:39Z</time>
<desc>lat.=42.452988, lon.=18.534113, Alt.=79.592834m. Speed=0.000000m/h.</desc>
<speed>0.000000</speed>
</trkpt>
<trkpt lat="42.452988" lon="18.534113">
<ele>79.575256</ele>
<time>2012-05-02T08:12:44Z</time>
<desc>lat.=42.452988, lon.=18.534113, Alt.=79.575256m. Speed=0.036000m/h.</desc>
<speed>0.010000</speed>
</trkpt>
<trkpt lat="42.452988" lon="18.534113">
<ele>79.559631</ele>
<time>2012-05-02T08:12:49Z</time>
<desc>lat.=42.452988, lon.=18.534113, Alt.=79.559631m. Speed=0.000000m/h.</desc>
<speed>0.000000</speed>
</trkpt>
<trkpt lat="42.452988" lon="18.534113">
<ele>79.545959</ele>
<time>2012-05-02T08:12:54Z</time>
<desc>lat.=42.452988, lon.=18.534113, Alt.=79.545959m. Speed=0.000000m/h.</desc>
<speed>0.000000</speed>
</trkpt>
<trkpt lat="42.452988" lon="18.534113">
<ele>79.540100</ele>
<time>2012-05-02T08:12:59Z</time>
<desc>lat.=42.452988, lon.=18.534113, Alt.=79.540100m. Speed=0.000000m/h.</desc>
<speed>0.000000</speed>
</trkpt>
<trkpt lat="42.452988" lon="18.534113">
<ele>79.538147</ele>
<time>2012-05-02T08:13:04Z</time>
<desc>lat.=42.452988, lon.=18.534113, Alt.=79.538147m. Speed=0.000000m/h.</desc>
<speed>0.000000</speed>
</trkpt>
<trkpt lat="42.452988" lon="18.534113">
<ele>79.536194</ele>
<time>2012-05-02T08:13:09Z</time>
<desc>lat.=42.452988, lon.=18.534113, Alt.=79.536194m. Speed=0.000000m/h.</desc>
<speed>0.000000</speed>
</trkpt>
<trkpt lat="42.452988" lon="18.534113">
<ele>79.538147</ele>
<time>2012-05-02T08:13:14Z</time>
<desc>lat.=42.452988, lon.=18.534113, Alt.=79.538147m. Speed=0.036000m/h.</desc>
<speed>0.010000</speed>
</trkpt>
<trkpt lat="42.452988" lon="18.534113">
<ele>79.538147</ele>
<time>2012-05-02T08:13:19Z</time>
<desc>lat.=42.452988, lon.=18.534113, Alt.=79.538147m. Speed=0.072000m/h.</desc>
<speed>0.020000</speed>
</trkpt>
<trkpt lat="42.452988" lon="18.534113">
<ele>79.538147</ele>
<time>2012-05-02T08:13:24Z</time>
<desc>lat.=42.452988, lon.=18.534113, Alt.=79.538147m. Speed=0.036000m/h.</desc>
<speed>0.010000</speed>
</trkpt>
<trkpt lat="42.452988" lon="18.534111">
<ele>79.538147</ele>
<time>2012-05-02T08:13:29Z</time>
<desc>lat.=42.452988, lon.=18.534111, Alt.=79.538147m. Speed=0.000000m/h.</desc>
<speed>0.000000</speed>
</trkpt>
<trkpt lat="42.452988" lon="18.534111">
<ele>79.536194</ele>
<time>2012-05-02T08:13:34Z</time>
<desc>lat.=42.452988, lon.=18.534111, Alt.=79.536194m. Speed=0.036000m/h.</desc>
<speed>0.010000</speed>
</trkpt>
<trkpt lat="42.452988" lon="18.534111">
<ele>79.534241</ele>
<time>2012-05-02T08:13:39Z</time>
<desc>lat.=42.452988, lon.=18.534111, Alt.=79.534241m. Speed=0.000000m/h.</desc>
<speed>0.000000</speed>
</trkpt>
<trkpt lat="42.452988" lon="18.534111">
<ele>79.528381</ele>
<time>2012-05-02T08:13:44Z</time>
<desc>lat.=42.452988, lon.=18.534111, Alt.=79.528381m. Speed=0.036000m/h.</desc>
<speed>0.010000</speed>
</trkpt>
<trkpt lat="42.452988" lon="18.534111">
<ele>79.524475</ele>
<time>2012-05-02T08:13:49Z</time>
<desc>lat.=42.452988, lon.=18.534111, Alt.=79.524475m. Speed=0.036000m/h.</desc>
<speed>0.010000</speed>
</trkpt>
<trkpt lat="42.452988" lon="18.534111">
<ele>79.522522</ele>
<time>2012-05-02T08:13:54Z</time>
<desc>lat.=42.452988, lon.=18.534111, Alt.=79.522522m. Speed=0.036000m/h.</desc>
<speed>0.010000</speed>
</trkpt>
<trkpt lat="42.452988" lon="18.534111">
<ele>79.516663</ele>
<time>2012-05-02T08:13:59Z</time>
<desc>lat.=42.452988, lon.=18.534111, Alt.=79.516663m. Speed=0.000000m/h.</desc>
<speed>0.000000</speed>
</trkpt>
<trkpt lat="42.452988" lon="18.534109">
<ele>79.502991</ele>
<time>2012-05-02T08:14:04Z</time>
<desc>lat.=42.452988, lon.=18.534109, Alt.=79.502991m. Speed=0.000000m/h.</desc>
<speed>0.000000</speed>
</trkpt>
<trkpt lat="42.452988" lon="18.534109">
<ele>79.487366</ele>
<time>2012-05-02T08:14:09Z</time>
<desc>lat.=42.452988, lon.=18.534109, Alt.=79.487366m. Speed=0.108000m/h.</desc>
<speed>0.030000</speed>
</trkpt>
<trkpt lat="42.452988" lon="18.534107">
<ele>79.458069</ele>
<time>2012-05-02T08:14:14Z</time>
<desc>lat.=42.452988, lon.=18.534107, Alt.=79.458069m. Speed=0.144000m/h.</desc>
<speed>0.040000</speed>
</trkpt>
<trkpt lat="42.452984" lon="18.534107">
<ele>79.432678</ele>
<time>2012-05-02T08:14:19Z</time>
<desc>lat.=42.452984, lon.=18.534107, Alt.=79.432678m. Speed=0.072000m/h.</desc>
<speed>0.020000</speed>
</trkpt>
<trkpt lat="42.452984" lon="18.534107">
<ele>79.405334</ele>
<time>2012-05-02T08:14:24Z</time>
<desc>lat.=42.452984, lon.=18.534107, Alt.=79.405334m. Speed=0.108000m/h.</desc>
<speed>0.030000</speed>
</trkpt>
<trkpt lat="42.452984" lon="18.534105">
<ele>79.368225</ele>
<time>2012-05-02T08:14:29Z</time>
<desc>lat.=42.452984, lon.=18.534105, Alt.=79.368225m. Speed=0.180000m/h.</desc>
<speed>0.050000</speed>
</trkpt>
<trkpt lat="42.452984" lon="18.534105">
<ele>79.336975</ele>
<time>2012-05-02T08:14:34Z</time>
<desc>lat.=42.452984, lon.=18.534105, Alt.=79.336975m. Speed=0.072000m/h.</desc>
<speed>0.020000</speed>
</trkpt>
<trkpt lat="42.452984" lon="18.534103">
<ele>79.319397</ele>
<time>2012-05-02T08:14:39Z</time>
<desc>lat.=42.452984, lon.=18.534103, Alt.=79.319397m. Speed=0.036000m/h.</desc>
<speed>0.010000</speed>
</trkpt>
<trkpt lat="42.452984" lon="18.534103">
<ele>79.303772</ele>
<time>2012-05-02T08:14:44Z</time>
<desc>lat.=42.452984, lon.=18.534103, Alt.=79.303772m. Speed=0.144000m/h.</desc>
<speed>0.040000</speed>
</trkpt>
<trkpt lat="42.452984" lon="18.534103">
<ele>79.286194</ele>
<time>2012-05-02T08:14:49Z</time>
<desc>lat.=42.452984, lon.=18.534103, Alt.=79.286194m. Speed=0.000000m/h.</desc>
<speed>0.000000</speed>
</trkpt>
<trkpt lat="42.452980" lon="18.534101">
<ele>79.268616</ele>
<time>2012-05-02T08:14:54Z</time>
<desc>lat.=42.452980, lon.=18.534101, Alt.=79.268616m. Speed=0.108000m/h.</desc>
<speed>0.030000</speed>
</trkpt>
<trkpt lat="42.452980" lon="18.534101">
<ele>79.252991</ele>
<time>2012-05-02T08:14:59Z</time>
<desc>lat.=42.452980, lon.=18.534101, Alt.=79.252991m. Speed=0.036000m/h.</desc>
<speed>0.010000</speed>
</trkpt>
<trkpt lat="42.452980" lon="18.534101">
<ele>79.231506</ele>
<time>2012-05-02T08:15:04Z</time>
<desc>lat.=42.452980, lon.=18.534101, Alt.=79.231506m. Speed=0.000000m/h.</desc>
<speed>0.000000</speed>
</trkpt>
<trkpt lat="42.452980" lon="18.534100">
<ele>79.210022</ele>
<time>2012-05-02T08:15:09Z</time>
<desc>lat.=42.452980, lon.=18.534100, Alt.=79.210022m. Speed=0.036000m/h.</desc>
<speed>0.010000</speed>
</trkpt>
<trkpt lat="42.452980" lon="18.534100">
<ele>79.198303</ele>
<time>2012-05-02T08:15:14Z</time>
<desc>lat.=42.452980, lon.=18.534100, Alt.=79.198303m. Speed=0.036000m/h.</desc>
<speed>0.010000</speed>
</trkpt>
<trkpt lat="42.452980" lon="18.534100">
<ele>79.186584</ele>
<time>2012-05-02T08:15:19Z</time>
<desc>lat.=42.452980, lon.=18.534100, Alt.=79.186584m. Speed=0.036000m/h.</desc>
<speed>0.010000</speed>
</trkpt>
<trkpt lat="42.452980" lon="18.534100">
<ele>79.186584</ele>
<time>2012-05-02T08:15:24Z</time>
<desc>lat.=42.452980, lon.=18.534100, Alt.=79.186584m. Speed=0.036000m/h.</desc>
<speed>0.010000</speed>
</trkpt>
<trkpt lat="42.452980" lon="18.534100">
<ele>79.196350</ele>
<time>2012-05-02T08:15:29Z</time>
<desc>lat.=42.452980, lon.=18.534100, Alt.=79.196350m. Speed=0.036000m/h.</desc>
<speed>0.010000</speed>
</trkpt>
<trkpt lat="42.452980" lon="18.534100">
<ele>79.194397</ele>
<time>2012-05-02T08:15:34Z</time>
<desc>lat.=42.452980, lon.=18.534100, Alt.=79.194397m. Speed=0.000000m/h.</desc>
<speed>0.000000</speed>
</trkpt>
<trkpt lat="42.452980" lon="18.534100">
<ele>79.192444</ele>
<time>2012-05-02T08:15:39Z</time>
<desc>lat.=42.452980, lon.=18.534100, Alt.=79.192444m. Speed=0.000000m/h.</desc>
<speed>0.000000</speed>
</trkpt>
<trkpt lat="42.452980" lon="18.534100">
<ele>79.186584</ele>
<time>2012-05-02T08:15:44Z</time>
<desc>lat.=42.452980, lon.=18.534100, Alt.=79.186584m. Speed=0.036000m/h.</desc>
<speed>0.010000</speed>
</trkpt>
<trkpt lat="42.452980" lon="18.534100">
<ele>79.188538</ele>
<time>2012-05-02T08:15:49Z</time>
<desc>lat.=42.452980, lon.=18.534100, Alt.=79.188538m. Speed=0.000000m/h.</desc>
<speed>0.000000</speed>
</trkpt>
<trkpt lat="42.452980" lon="18.534100">
<ele>79.198303</ele>
<time>2012-05-02T08:15:54Z</time>
<desc>lat.=42.452980, lon.=18.534100, Alt.=79.198303m. Speed=0.036000m/h.</desc>
<speed>0.010000</speed>
</trkpt>
<trkpt lat="42.452980" lon="18.534100">
<ele>79.204163</ele>
<time>2012-05-02T08:15:59Z</time>
<desc>lat.=42.452980, lon.=18.534100, Alt.=79.204163m. Speed=0.000000m/h.</desc>
<speed>0.000000</speed>
</trkpt>
<trkpt lat="42.452980" lon="18.534100">
<ele>79.221741</ele>
<time>2012-05-02T08:16:04Z</time>
<desc>lat.=42.452980, lon.=18.534100, Alt.=79.221741m. Speed=0.000000m/h.</desc>
<speed>0.000000</speed>
</trkpt>
<trkpt lat="42.452984" lon="18.534100">
<ele>79.235413</ele>
<time>2012-05-02T08:16:09Z</time>
<desc>lat.=42.452984, lon.=18.534100, Alt.=79.235413m. Speed=0.000000m/h.</desc>
<speed>0.000000</speed>
</trkpt>
<trkpt lat="42.452984" lon="18.534100">
<ele>79.239319</ele>
<time>2012-05-02T08:16:14Z</time>
<desc>lat.=42.452984, lon.=18.534100, Alt.=79.239319m. Speed=0.000000m/h.</desc>
<speed>0.000000</speed>
</trkpt>
<trkpt lat="42.452984" lon="18.534100">
<ele>79.249084</ele>
<time>2012-05-02T08:16:19Z</time>
<desc>lat.=42.452984, lon.=18.534100, Alt.=79.249084m. Speed=0.000000m/h.</desc>
<speed>0.000000</speed>
</trkpt>
<trkpt lat="42.452984" lon="18.534100">
<ele>79.258850</ele>
<time>2012-05-02T08:16:24Z</time>
<desc>lat.=42.452984, lon.=18.534100, Alt.=79.258850m. Speed=0.000000m/h.</desc>
<speed>0.000000</speed>
</trkpt>
<trkpt lat="42.452984" lon="18.534100">
<ele>79.264709</ele>
<time>2012-05-02T08:16:29Z</time>
<desc>lat.=42.452984, lon.=18.534100, Alt.=79.264709m. Speed=0.036000m/h.</desc>
<speed>0.010000</speed>
</trkpt>
<trkpt lat="42.452984" lon="18.534100">
<ele>79.266663</ele>
<time>2012-05-02T08:16:34Z</time>
<desc>lat.=42.452984, lon.=18.534100, Alt.=79.266663m. Speed=0.000000m/h.</desc>
<speed>0.000000</speed>
</trkpt>
<trkpt lat="42.452984" lon="18.534100">
<ele>79.266663</ele>
<time>2012-05-02T08:16:39Z</time>
<desc>lat.=42.452984, lon.=18.534100, Alt.=79.266663m. Speed=0.000000m/h.</desc>
<speed>0.000000</speed>
</trkpt>
<trkpt lat="42.452984" lon="18.534098">
<ele>79.268616</ele>
<time>2012-05-02T08:16:44Z</time>
<desc>lat.=42.452984, lon.=18.534098, Alt.=79.268616m. Speed=0.036000m/h.</desc>
<speed>0.010000</speed>
</trkpt>
<trkpt lat="42.452984" lon="18.534098">
<ele>79.270569</ele>
<time>2012-05-02T08:16:49Z</time>
<desc>lat.=42.452984, lon.=18.534098, Alt.=79.270569m. Speed=0.000000m/h.</desc>
<speed>0.000000</speed>
</trkpt>
<trkpt lat="42.452984" lon="18.534098">
<ele>79.272522</ele>
<time>2012-05-02T08:16:54Z</time>
<desc>lat.=42.452984, lon.=18.534098, Alt.=79.272522m. Speed=0.000000m/h.</desc>
<speed>0.000000</speed>
</trkpt>
<trkpt lat="42.452984" lon="18.534098">
<ele>79.274475</ele>
<time>2012-05-02T08:16:59Z</time>
<desc>lat.=42.452984, lon.=18.534098, Alt.=79.274475m. Speed=0.000000m/h.</desc>
<speed>0.000000</speed>
</trkpt>
<trkpt lat="42.452984" lon="18.534098">
<ele>79.280334</ele>
<time>2012-05-02T08:17:04Z</time>
<desc>lat.=42.452984, lon.=18.534098, Alt.=79.280334m. Speed=0.000000m/h.</desc>
<speed>0.000000</speed>
</trkpt>
<trkpt lat="42.452984" lon="18.534098">
<ele>79.286194</ele>
<time>2012-05-02T08:17:09Z</time>
<desc>lat.=42.452984, lon.=18.534098, Alt.=79.286194m. Speed=0.000000m/h.</desc>
<speed>0.000000</speed>
</trkpt>
<trkpt lat="42.452984" lon="18.534098">
<ele>79.290100</ele>
<time>2012-05-02T08:17:14Z</time>
<desc>lat.=42.452984, lon.=18.534098, Alt.=79.290100m. Speed=0.000000m/h.</desc>
<speed>0.000000</speed>
</trkpt>
<trkpt lat="42.452984" lon="18.534098">
<ele>79.295959</ele>
<time>2012-05-02T08:17:19Z</time>
<desc>lat.=42.452984, lon.=18.534098, Alt.=79.295959m. Speed=0.000000m/h.</desc>
<speed>0.000000</speed>
</trkpt>
<trkpt lat="42.452984" lon="18.534098">
<ele>79.299866</ele>
<time>2012-05-02T08:17:24Z</time>
<desc>lat.=42.452984, lon.=18.534098, Alt.=79.299866m. Speed=0.000000m/h.</desc>
<speed>0.000000</speed>
</trkpt>
<trkpt lat="42.452984" lon="18.534098">
<ele>79.297913</ele>
<time>2012-05-02T08:17:29Z</time>
<desc>lat.=42.452984, lon.=18.534098, Alt.=79.297913m. Speed=0.000000m/h.</desc>
<speed>0.000000</speed>
</trkpt>
<trkpt lat="42.452984" lon="18.534096">
<ele>79.295959</ele>
<time>2012-05-02T08:17:34Z</time>
<desc>lat.=42.452984, lon.=18.534096, Alt.=79.295959m. Speed=0.000000m/h.</desc>
<speed>0.000000</speed>
</trkpt>
<trkpt lat="42.452984" lon="18.534096">
<ele>79.295959</ele>
<time>2012-05-02T08:17:39Z</time>
<desc>lat.=42.452984, lon.=18.534096, Alt.=79.295959m. Speed=0.000000m/h.</desc>
<speed>0.000000</speed>
</trkpt>
<trkpt lat="42.452984" lon="18.534096">
<ele>79.294006</ele>
<time>2012-05-02T08:17:44Z</time>
<desc>lat.=42.452984, lon.=18.534096, Alt.=79.294006m. Speed=0.036000m/h.</desc>
<speed>0.010000</speed>
</trkpt>
<trkpt lat="42.452984" lon="18.534096">
<ele>79.295959</ele>
<time>2012-05-02T08:17:49Z</time>
<desc>lat.=42.452984, lon.=18.534096, Alt.=79.295959m. Speed=0.036000m/h.</desc>
<speed>0.010000</speed>
</trkpt>
<trkpt lat="42.452984" lon="18.534096">
<ele>79.294006</ele>
<time>2012-05-02T08:17:54Z</time>
<desc>lat.=42.452984, lon.=18.534096, Alt.=79.294006m. Speed=0.000000m/h.</desc>
<speed>0.000000</speed>
</trkpt>
<trkpt lat="42.452984" lon="18.534096">
<ele>79.292053</ele>
<time>2012-05-02T08:17:59Z</time>
<desc>lat.=42.452984, lon.=18.534096, Alt.=79.292053m. Speed=0.000000m/h.</desc>
<speed>0.000000</speed>
</trkpt>
<trkpt lat="42.452984" lon="18.534096">
<ele>79.288147</ele>
<time>2012-05-02T08:18:04Z</time>
<desc>lat.=42.452984, lon.=18.534096, Alt.=79.288147m. Speed=0.036000m/h.</desc>
<speed>0.010000</speed>
</trkpt>
<trkpt lat="42.452984" lon="18.534096">
<ele>79.288147</ele>
<time>2012-05-02T08:18:09Z</time>
<desc>lat.=42.452984, lon.=18.534096, Alt.=79.288147m. Speed=0.000000m/h.</desc>
<speed>0.000000</speed>
</trkpt>
<trkpt lat="42.452984" lon="18.534096">
<ele>79.288147</ele>
<time>2012-05-02T08:18:14Z</time>
<desc>lat.=42.452984, lon.=18.534096, Alt.=79.288147m. Speed=0.000000m/h.</desc>
<speed>0.000000</speed>
</trkpt>
<trkpt lat="42.452984" lon="18.534096">
<ele>79.290100</ele>
<time>2012-05-02T08:18:19Z</time>
<desc>lat.=42.452984, lon.=18.534096, Alt.=79.290100m. Speed=0.000000m/h.</desc>
<speed>0.000000</speed>
</trkpt>
<trkpt lat="42.452984" lon="18.534096">
<ele>79.295959</ele>
<time>2012-05-02T08:18:24Z</time>
<desc>lat.=42.452984, lon.=18.534096, Alt.=79.295959m. Speed=0.000000m/h.</desc>
<speed>0.000000</speed>
</trkpt>
<trkpt lat="42.452984" lon="18.534096">
<ele>79.307678</ele>
<time>2012-05-02T08:18:29Z</time>
<desc>lat.=42.452984, lon.=18.534096, Alt.=79.307678m. Speed=0.000000m/h.</desc>
<speed>0.000000</speed>
</trkpt>
<trkpt lat="42.452984" lon="18.534096">
<ele>79.315491</ele>
<time>2012-05-02T08:18:34Z</time>
<desc>lat.=42.452984, lon.=18.534096, Alt.=79.315491m. Speed=0.036000m/h.</desc>
<speed>0.010000</speed>
</trkpt>
<trkpt lat="42.452984" lon="18.534096">
<ele>79.319397</ele>
<time>2012-05-02T08:18:39Z</time>
<desc>lat.=42.452984, lon.=18.534096, Alt.=79.319397m. Speed=0.000000m/h.</desc>
<speed>0.000000</speed>
</trkpt>
<trkpt lat="42.452984" lon="18.534094">
<ele>79.323303</ele>
<time>2012-05-02T08:18:44Z</time>
<desc>lat.=42.452984, lon.=18.534094, Alt.=79.323303m. Speed=0.000000m/h.</desc>
<speed>0.000000</speed>
</trkpt>
<trkpt lat="42.452984" lon="18.534094">
<ele>79.327209</ele>
<time>2012-05-02T08:18:49Z</time>
<desc>lat.=42.452984, lon.=18.534094, Alt.=79.327209m. Speed=0.000000m/h.</desc>
<speed>0.000000</speed>
</trkpt>
<trkpt lat="42.452984" lon="18.534094">
<ele>79.329163</ele>
<time>2012-05-02T08:18:54Z</time>
<desc>lat.=42.452984, lon.=18.534094, Alt.=79.329163m. Speed=0.108000m/h.</desc>
<speed>0.030000</speed>
</trkpt>
<trkpt lat="42.452984" lon="18.534094">
<ele>79.321350</ele>
<time>2012-05-02T08:18:59Z</time>
<desc>lat.=42.452984, lon.=18.534094, Alt.=79.321350m. Speed=0.000000m/h.</desc>
<speed>0.000000</speed>
</trkpt>
<trkpt lat="42.452984" lon="18.534094">
<ele>79.311584</ele>
<time>2012-05-02T08:19:04Z</time>
<desc>lat.=42.452984, lon.=18.534094, Alt.=79.311584m. Speed=0.000000m/h.</desc>
<speed>0.000000</speed>
</trkpt>
<trkpt lat="42.452984" lon="18.534094">
<ele>79.311584</ele>
<time>2012-05-02T08:19:09Z</time>
<desc>lat.=42.452984, lon.=18.534094, Alt.=79.311584m. Speed=0.000000m/h.</desc>
<speed>0.000000</speed>
</trkpt>
<trkpt lat="42.452984" lon="18.534094">
<ele>79.307678</ele>
<time>2012-05-02T08:19:14Z</time>
<desc>lat.=42.452984, lon.=18.534094, Alt.=79.307678m. Speed=0.000000m/h.</desc>
<speed>0.000000</speed>
</trkpt>
<trkpt lat="42.452984" lon="18.534094">
<ele>79.311584</ele>
<time>2012-05-02T08:19:19Z</time>
<desc>lat.=42.452984, lon.=18.534094, Alt.=79.311584m. Speed=0.036000m/h.</desc>
<speed>0.010000</speed>
</trkpt>
<trkpt lat="42.452984" lon="18.534094">
<ele>79.307678</ele>
<time>2012-05-02T08:19:24Z</time>
<desc>lat.=42.452984, lon.=18.534094, Alt.=79.307678m. Speed=0.000000m/h.</desc>
<speed>0.000000</speed>
</trkpt>
<trkpt lat="42.452984" lon="18.534094">
<ele>79.307678</ele>
<time>2012-05-02T08:19:29Z</time>
<desc>lat.=42.452984, lon.=18.534094, Alt.=79.307678m. Speed=0.000000m/h.</desc>
<speed>0.000000</speed>
</trkpt>
<trkpt lat="42.452980" lon="18.534092">
<ele>79.303772</ele>
<time>2012-05-02T08:19:34Z</time>
<desc>lat.=42.452980, lon.=18.534092, Alt.=79.303772m. Speed=0.000000m/h.</desc>
<speed>0.000000</speed>
</trkpt>
<trkpt lat="42.452980" lon="18.534092">
<ele>79.297913</ele>
<time>2012-05-02T08:19:39Z</time>
<desc>lat.=42.452980, lon.=18.534092, Alt.=79.297913m. Speed=0.000000m/h.</desc>
<speed>0.000000</speed>
</trkpt>
<trkpt lat="42.452980" lon="18.534092">
<ele>79.292053</ele>
<time>2012-05-02T08:19:44Z</time>
<desc>lat.=42.452980, lon.=18.534092, Alt.=79.292053m. Speed=0.036000m/h.</desc>
<speed>0.010000</speed>
</trkpt>
<trkpt lat="42.452980" lon="18.534092">
<ele>79.284241</ele>
<time>2012-05-02T08:19:49Z</time>
<desc>lat.=42.452980, lon.=18.534092, Alt.=79.284241m. Speed=0.036000m/h.</desc>
<speed>0.010000</speed>
</trkpt>
<trkpt lat="42.452980" lon="18.534092">
<ele>79.280334</ele>
<time>2012-05-02T08:19:54Z</time>
<desc>lat.=42.452980, lon.=18.534092, Alt.=79.280334m. Speed=0.000000m/h.</desc>
<speed>0.000000</speed>
</trkpt>
<trkpt lat="42.452980" lon="18.534092">
<ele>79.280334</ele>
<time>2012-05-02T08:19:59Z</time>
<desc>lat.=42.452980, lon.=18.534092, Alt.=79.280334m. Speed=0.000000m/h.</desc>
<speed>0.000000</speed>
</trkpt>
<trkpt lat="42.452980" lon="18.534092">
<ele>79.274475</ele>
<time>2012-05-02T08:20:04Z</time>
<desc>lat.=42.452980, lon.=18.534092, Alt.=79.274475m. Speed=0.036000m/h.</desc>
<speed>0.010000</speed>
</trkpt>
<trkpt lat="42.452980" lon="18.534092">
<ele>79.270569</ele>
<time>2012-05-02T08:20:09Z</time>
<desc>lat.=42.452980, lon.=18.534092, Alt.=79.270569m. Speed=0.000000m/h.</desc>
<speed>0.000000</speed>
</trkpt>
<trkpt lat="42.452980" lon="18.534092">
<ele>79.266663</ele>
<time>2012-05-02T08:20:14Z</time>
<desc>lat.=42.452980, lon.=18.534092, Alt.=79.266663m. Speed=0.000000m/h.</desc>
<speed>0.000000</speed>
</trkpt>
<trkpt lat="42.452980" lon="18.534092">
<ele>79.266663</ele>
<time>2012-05-02T08:20:19Z</time>
<desc>lat.=42.452980, lon.=18.534092, Alt.=79.266663m. Speed=0.036000m/h.</desc>
<speed>0.010000</speed>
</trkpt>
<trkpt lat="42.452980" lon="18.534092">
<ele>79.268616</ele>
<time>2012-05-02T08:20:24Z</time>
<desc>lat.=42.452980, lon.=18.534092, Alt.=79.268616m. Speed=0.000000m/h.</desc>
<speed>0.000000</speed>
</trkpt>
<trkpt lat="42.452980" lon="18.534092">
<ele>79.272522</ele>
<time>2012-05-02T08:20:29Z</time>
<desc>lat.=42.452980, lon.=18.534092, Alt.=79.272522m. Speed=0.000000m/h.</desc>
<speed>0.000000</speed>
</trkpt>
<trkpt lat="42.452980" lon="18.534092">
<ele>79.272522</ele>
<time>2012-05-02T08:20:34Z</time>
<desc>lat.=42.452980, lon.=18.534092, Alt.=79.272522m. Speed=0.000000m/h.</desc>
<speed>0.000000</speed>
</trkpt>
<trkpt lat="42.452980" lon="18.534092">
<ele>79.272522</ele>
<time>2012-05-02T08:20:39Z</time>
<desc>lat.=42.452980, lon.=18.534092, Alt.=79.272522m. Speed=0.000000m/h.</desc>
<speed>0.000000</speed>
</trkpt>
<trkpt lat="42.452980" lon="18.534092">
<ele>79.272522</ele>
<time>2012-05-02T08:20:44Z</time>
<desc>lat.=42.452980, lon.=18.534092, Alt.=79.272522m. Speed=0.000000m/h.</desc>
<speed>0.000000</speed>
</trkpt>
<trkpt lat="42.452980" lon="18.534092">
<ele>79.270569</ele>
<time>2012-05-02T08:20:49Z</time>
<desc>lat.=42.452980, lon.=18.534092, Alt.=79.270569m. Speed=0.000000m/h.</desc>
<speed>0.000000</speed>
</trkpt>
<trkpt lat="42.452980" lon="18.534092">
<ele>79.264709</ele>
<time>2012-05-02T08:20:54Z</time>
<desc>lat.=42.452980, lon.=18.534092, Alt.=79.264709m. Speed=0.000000m/h.</desc>
<speed>0.000000</speed>
</trkpt>
<trkpt lat="42.452980" lon="18.534092">
<ele>79.252991</ele>
<time>2012-05-02T08:20:59Z</time>
<desc>lat.=42.452980, lon.=18.534092, Alt.=79.252991m. Speed=0.036000m/h.</desc>
<speed>0.010000</speed>
</trkpt>
<trkpt lat="42.452980" lon="18.534090">
<ele>79.241272</ele>
<time>2012-05-02T08:21:04Z</time>
<desc>lat.=42.452980, lon.=18.534090, Alt.=79.241272m. Speed=0.180000m/h.</desc>
<speed>0.050000</speed>
</trkpt>
<trkpt lat="42.452976" lon="18.534088">
<ele>79.223694</ele>
<time>2012-05-02T08:21:09Z</time>
<desc>lat.=42.452976, lon.=18.534088, Alt.=79.223694m. Speed=0.360000m/h.</desc>
<speed>0.100000</speed>
</trkpt>
<trkpt lat="42.452972" lon="18.534084">
<ele>79.204163</ele>
<time>2012-05-02T08:21:14Z</time>
<desc>lat.=42.452972, lon.=18.534084, Alt.=79.204163m. Speed=0.360000m/h.</desc>
<speed>0.100000</speed>
</trkpt>
<trkpt lat="42.452969" lon="18.534081">
<ele>79.182678</ele>
<time>2012-05-02T08:21:19Z</time>
<desc>lat.=42.452969, lon.=18.534081, Alt.=79.182678m. Speed=0.468000m/h.</desc>
<speed>0.130000</speed>
</trkpt>
<trkpt lat="42.452961" lon="18.534073">
<ele>79.169006</ele>
<time>2012-05-02T08:21:24Z</time>
<desc>lat.=42.452961, lon.=18.534073, Alt.=79.169006m. Speed=0.972000m/h.</desc>
<speed>0.270000</speed>
</trkpt>
<trkpt lat="42.452919" lon="18.534033">
<ele>79.354553</ele>
<time>2012-05-02T08:21:29Z</time>
<desc>lat.=42.452919, lon.=18.534033, Alt.=79.354553m. Speed=1.368000m/h.</desc>
<speed>0.380000</speed>
</trkpt>
<trkpt lat="42.452881" lon="18.533993">
<ele>79.270569</ele>
<time>2012-05-02T08:21:34Z</time>
<desc>lat.=42.452881, lon.=18.533993, Alt.=79.270569m. Speed=1.188000m/h.</desc>
<speed>0.330000</speed>
</trkpt>
<trkpt lat="42.452850" lon="18.533966">
<ele>79.081116</ele>
<time>2012-05-02T08:21:39Z</time>
<desc>lat.=42.452850, lon.=18.533966, Alt.=79.081116m. Speed=1.080000m/h.</desc>
<speed>0.300000</speed>
</trkpt>
<trkpt lat="42.452827" lon="18.533943">
<ele>79.204163</ele>
<time>2012-05-02T08:21:44Z</time>
<desc>lat.=42.452827, lon.=18.533943, Alt.=79.204163m. Speed=0.900000m/h.</desc>
<speed>0.250000</speed>
</trkpt>
<trkpt lat="42.452820" lon="18.533937">
<ele>79.485413</ele>
<time>2012-05-02T08:21:49Z</time>
<desc>lat.=42.452820, lon.=18.533937, Alt.=79.485413m. Speed=0.540000m/h.</desc>
<speed>0.150000</speed>
</trkpt>
<trkpt lat="42.452816" lon="18.533932">
<ele>79.536194</ele>
<time>2012-05-02T08:21:54Z</time>
<desc>lat.=42.452816, lon.=18.533932, Alt.=79.536194m. Speed=0.144000m/h.</desc>
<speed>0.040000</speed>
</trkpt>
<trkpt lat="42.452816" lon="18.533936">
<ele>79.618225</ele>
<time>2012-05-02T08:21:59Z</time>
<desc>lat.=42.452816, lon.=18.533936, Alt.=79.618225m. Speed=0.720000m/h.</desc>
<speed>0.200000</speed>
</trkpt>
<trkpt lat="42.452847" lon="18.533962">
<ele>79.792053</ele>
<time>2012-05-02T08:22:04Z</time>
<desc>lat.=42.452847, lon.=18.533962, Alt.=79.792053m. Speed=1.548000m/h.</desc>
<speed>0.430000</speed>
</trkpt>
<trkpt lat="42.452869" lon="18.533979">
<ele>80.198303</ele>
<time>2012-05-02T08:22:09Z</time>
<desc>lat.=42.452869, lon.=18.533979, Alt.=80.198303m. Speed=1.224000m/h.</desc>
<speed>0.340000</speed>
</trkpt>
<trkpt lat="42.452873" lon="18.533985">
<ele>80.208069</ele>
<time>2012-05-02T08:22:14Z</time>
<desc>lat.=42.452873, lon.=18.533985, Alt.=80.208069m. Speed=0.900000m/h.</desc>
<speed>0.250000</speed>
</trkpt>
<trkpt lat="42.452881" lon="18.533993">
<ele>80.305725</ele>
<time>2012-05-02T08:22:19Z</time>
<desc>lat.=42.452881, lon.=18.533993, Alt.=80.305725m. Speed=0.468000m/h.</desc>
<speed>0.130000</speed>
</trkpt>
<trkpt lat="42.452888" lon="18.533998">
<ele>80.436584</ele>
<time>2012-05-02T08:22:24Z</time>
<desc>lat.=42.452888, lon.=18.533998, Alt.=80.436584m. Speed=0.648000m/h.</desc>
<speed>0.180000</speed>
</trkpt>
<trkpt lat="42.452896" lon="18.534004">
<ele>80.631897</ele>
<time>2012-05-02T08:22:29Z</time>
<desc>lat.=42.452896, lon.=18.534004, Alt.=80.631897m. Speed=0.576000m/h.</desc>
<speed>0.160000</speed>
</trkpt>
<trkpt lat="42.452904" lon="18.534010">
<ele>80.913147</ele>
<time>2012-05-02T08:22:34Z</time>
<desc>lat.=42.452904, lon.=18.534010, Alt.=80.913147m. Speed=0.612000m/h.</desc>
<speed>0.170000</speed>
</trkpt>
<trkpt lat="42.452904" lon="18.534012">
<ele>81.276428</ele>
<time>2012-05-02T08:22:39Z</time>
<desc>lat.=42.452904, lon.=18.534012, Alt.=81.276428m. Speed=0.036000m/h.</desc>
<speed>0.010000</speed>
</trkpt>
<trkpt lat="42.452904" lon="18.534012">
<ele>81.665100</ele>
<time>2012-05-02T08:22:44Z</time>
<desc>lat.=42.452904, lon.=18.534012, Alt.=81.665100m. Speed=0.108000m/h.</desc>
<speed>0.030000</speed>
</trkpt>
<trkpt lat="42.452904" lon="18.534012">
<ele>81.897522</ele>
<time>2012-05-02T08:22:49Z</time>
<desc>lat.=42.452904, lon.=18.534012, Alt.=81.897522m. Speed=0.036000m/h.</desc>
<speed>0.010000</speed>
</trkpt>
<trkpt lat="42.452904" lon="18.534012">
<ele>81.909241</ele>
<time>2012-05-02T08:22:54Z</time>
<desc>lat.=42.452904, lon.=18.534012, Alt.=81.909241m. Speed=0.000000m/h.</desc>
<speed>0.000000</speed>
</trkpt>
<trkpt lat="42.452908" lon="18.534012">
<ele>81.919006</ele>
<time>2012-05-02T08:22:59Z</time>
<desc>lat.=42.452908, lon.=18.534012, Alt.=81.919006m. Speed=0.000000m/h.</desc>
<speed>0.000000</speed>
</trkpt>
<trkpt lat="42.452908" lon="18.534012">
<ele>81.932678</ele>
<time>2012-05-02T08:23:04Z</time>
<desc>lat.=42.452908, lon.=18.534012, Alt.=81.932678m. Speed=0.000000m/h.</desc>
<speed>0.000000</speed>
</trkpt>
<trkpt lat="42.452908" lon="18.534012">
<ele>81.938538</ele>
<time>2012-05-02T08:23:09Z</time>
<desc>lat.=42.452908, lon.=18.534012, Alt.=81.938538m. Speed=0.036000m/h.</desc>
<speed>0.010000</speed>
</trkpt>
<trkpt lat="42.452908" lon="18.534012">
<ele>81.917053</ele>
<time>2012-05-02T08:23:14Z</time>
<desc>lat.=42.452908, lon.=18.534012, Alt.=81.917053m. Speed=0.000000m/h.</desc>
<speed>0.000000</speed>
</trkpt>
<trkpt lat="42.452908" lon="18.534012">
<ele>81.911194</ele>
<time>2012-05-02T08:23:19Z</time>
<desc>lat.=42.452908, lon.=18.534012, Alt.=81.911194m. Speed=0.000000m/h.</desc>
<speed>0.000000</speed>
</trkpt>
<trkpt lat="42.452908" lon="18.534012">
<ele>81.909241</ele>
<time>2012-05-02T08:23:24Z</time>
<desc>lat.=42.452908, lon.=18.534012, Alt.=81.909241m. Speed=0.000000m/h.</desc>
<speed>0.000000</speed>
</trkpt>
<trkpt lat="42.452908" lon="18.534012">
<ele>81.891663</ele>
<time>2012-05-02T08:23:29Z</time>
<desc>lat.=42.452908, lon.=18.534012, Alt.=81.891663m. Speed=0.000000m/h.</desc>
<speed>0.000000</speed>
</trkpt>
<trkpt lat="42.452908" lon="18.534012">
<ele>81.879944</ele>
<time>2012-05-02T08:23:34Z</time>
<desc>lat.=42.452908, lon.=18.534012, Alt.=81.879944m. Speed=0.000000m/h.</desc>
<speed>0.000000</speed>
</trkpt>
<trkpt lat="42.452908" lon="18.534012">
<ele>81.889709</ele>
<time>2012-05-02T08:23:39Z</time>
<desc>lat.=42.452908, lon.=18.534012, Alt.=81.889709m. Speed=0.000000m/h.</desc>
<speed>0.000000</speed>
</trkpt>
<trkpt lat="42.452908" lon="18.534014">
<ele>81.919006</ele>
<time>2012-05-02T08:23:44Z</time>
<desc>lat.=42.452908, lon.=18.534014, Alt.=81.919006m. Speed=0.000000m/h.</desc>
<speed>0.000000</speed>
</trkpt>
<trkpt lat="42.452908" lon="18.534014">
<ele>81.977600</ele>
<time>2012-05-02T08:23:49Z</time>
<desc>lat.=42.452908, lon.=18.534014, Alt.=81.977600m. Speed=0.000000m/h.</desc>
<speed>0.000000</speed>
</trkpt>
<trkpt lat="42.452908" lon="18.534014">
<ele>82.034241</ele>
<time>2012-05-02T08:23:54Z</time>
<desc>lat.=42.452908, lon.=18.534014, Alt.=82.034241m. Speed=0.000000m/h.</desc>
<speed>0.000000</speed>
</trkpt>
<trkpt lat="42.452908" lon="18.534014">
<ele>82.090881</ele>
<time>2012-05-02T08:23:59Z</time>
<desc>lat.=42.452908, lon.=18.534014, Alt.=82.090881m. Speed=0.000000m/h.</desc>
<speed>0.000000</speed>
</trkpt>
<trkpt lat="42.452908" lon="18.534014">
<ele>82.139709</ele>
<time>2012-05-02T08:24:04Z</time>
<desc>lat.=42.452908, lon.=18.534014, Alt.=82.139709m. Speed=0.000000m/h.</desc>
<speed>0.000000</speed>
</trkpt>
<trkpt lat="42.452911" lon="18.534014">
<ele>82.198303</ele>
<time>2012-05-02T08:24:09Z</time>
<desc>lat.=42.452911, lon.=18.534014, Alt.=82.198303m. Speed=0.000000m/h.</desc>
<speed>0.000000</speed>
</trkpt>
<trkpt lat="42.452911" lon="18.534016">
<ele>82.249084</ele>
<time>2012-05-02T08:24:14Z</time>
<desc>lat.=42.452911, lon.=18.534016, Alt.=82.249084m. Speed=0.000000m/h.</desc>
<speed>0.000000</speed>
</trkpt>
<trkpt lat="42.452911" lon="18.534016">
<ele>82.294006</ele>
<time>2012-05-02T08:24:19Z</time>
<desc>lat.=42.452911, lon.=18.534016, Alt.=82.294006m. Speed=0.000000m/h.</desc>
<speed>0.000000</speed>
</trkpt>
<trkpt lat="42.452911" lon="18.534016">
<ele>82.338928</ele>
<time>2012-05-02T08:24:24Z</time>
<desc>lat.=42.452911, lon.=18.534016, Alt.=82.338928m. Speed=0.036000m/h.</desc>
<speed>0.010000</speed>
</trkpt>
<trkpt lat="42.452911" lon="18.534016">
<ele>82.403381</ele>
<time>2012-05-02T08:24:29Z</time>
<desc>lat.=42.452911, lon.=18.534016, Alt.=82.403381m. Speed=0.036000m/h.</desc>
<speed>0.010000</speed>
</trkpt>
<trkpt lat="42.452911" lon="18.534016">
<ele>82.422913</ele>
<time>2012-05-02T08:24:34Z</time>
<desc>lat.=42.452911, lon.=18.534016, Alt.=82.422913m. Speed=0.036000m/h.</desc>
<speed>0.010000</speed>
</trkpt>
<trkpt lat="42.452911" lon="18.534016">
<ele>82.424866</ele>
<time>2012-05-02T08:24:39Z</time>
<desc>lat.=42.452911, lon.=18.534016, Alt.=82.424866m. Speed=0.000000m/h.</desc>
<speed>0.000000</speed>
</trkpt>
<trkpt lat="42.452911" lon="18.534016">
<ele>82.436584</ele>
<time>2012-05-02T08:24:44Z</time>
<desc>lat.=42.452911, lon.=18.534016, Alt.=82.436584m. Speed=0.000000m/h.</desc>
<speed>0.000000</speed>
</trkpt>
<trkpt lat="42.452911" lon="18.534016">
<ele>82.444397</ele>
<time>2012-05-02T08:24:49Z</time>
<desc>lat.=42.452911, lon.=18.534016, Alt.=82.444397m. Speed=0.000000m/h.</desc>
<speed>0.000000</speed>
</trkpt>
<trkpt lat="42.452911" lon="18.534016">
<ele>82.467834</ele>
<time>2012-05-02T08:24:54Z</time>
<desc>lat.=42.452911, lon.=18.534016, Alt.=82.467834m. Speed=0.036000m/h.</desc>
<speed>0.010000</speed>
</trkpt>
<trkpt lat="42.452911" lon="18.534016">
<ele>82.485413</ele>
<time>2012-05-02T08:24:59Z</time>
<desc>lat.=42.452911, lon.=18.534016, Alt.=82.485413m. Speed=0.000000m/h.</desc>
<speed>0.000000</speed>
</trkpt>
<trkpt lat="42.452911" lon="18.534016">
<ele>82.477600</ele>
<time>2012-05-02T08:25:04Z</time>
<desc>lat.=42.452911, lon.=18.534016, Alt.=82.477600m. Speed=0.000000m/h.</desc>
<speed>0.000000</speed>
</trkpt>
<trkpt lat="42.452911" lon="18.534016">
<ele>82.502991</ele>
<time>2012-05-02T08:25:09Z</time>
<desc>lat.=42.452911, lon.=18.534016, Alt.=82.502991m. Speed=0.000000m/h.</desc>
<speed>0.000000</speed>
</trkpt>
<trkpt lat="42.452915" lon="18.534016">
<ele>82.516663</ele>
<time>2012-05-02T08:25:14Z</time>
<desc>lat.=42.452915, lon.=18.534016, Alt.=82.516663m. Speed=0.000000m/h.</desc>
<speed>0.000000</speed>
</trkpt>
<trkpt lat="42.452915" lon="18.534016">
<ele>82.534241</ele>
<time>2012-05-02T08:25:19Z</time>
<desc>lat.=42.452915, lon.=18.534016, Alt.=82.534241m. Speed=0.036000m/h.</desc>
<speed>0.010000</speed>
</trkpt>
<trkpt lat="42.452915" lon="18.534016">
<ele>82.534241</ele>
<time>2012-05-02T08:25:24Z</time>
<desc>lat.=42.452915, lon.=18.534016, Alt.=82.534241m. Speed=0.036000m/h.</desc>
<speed>0.010000</speed>
</trkpt>
<trkpt lat="42.452915" lon="18.534016">
<ele>82.530334</ele>
<time>2012-05-02T08:25:29Z</time>
<desc>lat.=42.452915, lon.=18.534016, Alt.=82.530334m. Speed=0.036000m/h.</desc>
<speed>0.010000</speed>
</trkpt>
<trkpt lat="42.452915" lon="18.534016">
<ele>82.540100</ele>
<time>2012-05-02T08:25:34Z</time>
<desc>lat.=42.452915, lon.=18.534016, Alt.=82.540100m. Speed=0.000000m/h.</desc>
<speed>0.000000</speed>
</trkpt>
<trkpt lat="42.452915" lon="18.534016">
<ele>82.571350</ele>
<time>2012-05-02T08:25:39Z</time>
<desc>lat.=42.452915, lon.=18.534016, Alt.=82.571350m. Speed=0.036000m/h.</desc>
<speed>0.010000</speed>
</trkpt>
<trkpt lat="42.452915" lon="18.534018">
<ele>82.577209</ele>
<time>2012-05-02T08:25:44Z</time>
<desc>lat.=42.452915, lon.=18.534018, Alt.=82.577209m. Speed=0.000000m/h.</desc>
<speed>0.000000</speed>
</trkpt>
<trkpt lat="42.452915" lon="18.534018">
<ele>82.598694</ele>
<time>2012-05-02T08:25:49Z</time>
<desc>lat.=42.452915, lon.=18.534018, Alt.=82.598694m. Speed=0.036000m/h.</desc>
<speed>0.010000</speed>
</trkpt>
<trkpt lat="42.452915" lon="18.534018">
<ele>82.598694</ele>
<time>2012-05-02T08:25:54Z</time>
<desc>lat.=42.452915, lon.=18.534018, Alt.=82.598694m. Speed=0.000000m/h.</desc>
<speed>0.000000</speed>
</trkpt>
<trkpt lat="42.452915" lon="18.534018">
<ele>82.583069</ele>
<time>2012-05-02T08:25:59Z</time>
<desc>lat.=42.452915, lon.=18.534018, Alt.=82.583069m. Speed=0.000000m/h.</desc>
<speed>0.000000</speed>
</trkpt>
<trkpt lat="42.452915" lon="18.534018">
<ele>82.583069</ele>
<time>2012-05-02T08:26:04Z</time>
<desc>lat.=42.452915, lon.=18.534018, Alt.=82.583069m. Speed=0.000000m/h.</desc>
<speed>0.000000</speed>
</trkpt>
<trkpt lat="42.452915" lon="18.534018">
<ele>82.583069</ele>
<time>2012-05-02T08:26:09Z</time>
<desc>lat.=42.452915, lon.=18.534018, Alt.=82.583069m. Speed=0.000000m/h.</desc>
<speed>0.000000</speed>
</trkpt>
<trkpt lat="42.452915" lon="18.534018">
<ele>82.586975</ele>
<time>2012-05-02T08:26:14Z</time>
<desc>lat.=42.452915, lon.=18.534018, Alt.=82.586975m. Speed=0.000000m/h.</desc>
<speed>0.000000</speed>
</trkpt>
<trkpt lat="42.452915" lon="18.534018">
<ele>82.588928</ele>
<time>2012-05-02T08:26:19Z</time>
<desc>lat.=42.452915, lon.=18.534018, Alt.=82.588928m. Speed=0.036000m/h.</desc>
<speed>0.010000</speed>
</trkpt>
<trkpt lat="42.452915" lon="18.534018">
<ele>82.598694</ele>
<time>2012-05-02T08:26:24Z</time>
<desc>lat.=42.452915, lon.=18.534018, Alt.=82.598694m. Speed=0.000000m/h.</desc>
<speed>0.000000</speed>
</trkpt>
<trkpt lat="42.452915" lon="18.534018">
<ele>82.618225</ele>
<time>2012-05-02T08:26:29Z</time>
<desc>lat.=42.452915, lon.=18.534018, Alt.=82.618225m. Speed=0.000000m/h.</desc>
<speed>0.000000</speed>
</trkpt>
<trkpt lat="42.452915" lon="18.534018">
<ele>82.639709</ele>
<time>2012-05-02T08:26:34Z</time>
<desc>lat.=42.452915, lon.=18.534018, Alt.=82.639709m. Speed=0.000000m/h.</desc>
<speed>0.000000</speed>
</trkpt>
<trkpt lat="42.452915" lon="18.534018">
<ele>82.653381</ele>
<time>2012-05-02T08:26:39Z</time>
<desc>lat.=42.452915, lon.=18.534018, Alt.=82.653381m. Speed=0.036000m/h.</desc>
<speed>0.010000</speed>
</trkpt>
<trkpt lat="42.452915" lon="18.534018">
<ele>82.659241</ele>
<time>2012-05-02T08:26:44Z</time>
<desc>lat.=42.452915, lon.=18.534018, Alt.=82.659241m. Speed=0.000000m/h.</desc>
<speed>0.000000</speed>
</trkpt>
<trkpt lat="42.452919" lon="18.534018">
<ele>82.667053</ele>
<time>2012-05-02T08:26:49Z</time>
<desc>lat.=42.452919, lon.=18.534018, Alt.=82.667053m. Speed=0.000000m/h.</desc>
<speed>0.000000</speed>
</trkpt>
<trkpt lat="42.452919" lon="18.534018">
<ele>82.670959</ele>
<time>2012-05-02T08:26:54Z</time>
<desc>lat.=42.452919, lon.=18.534018, Alt.=82.670959m. Speed=0.000000m/h.</desc>
<speed>0.000000</speed>
</trkpt>
<trkpt lat="42.452919" lon="18.534018">
<ele>82.670959</ele>
<time>2012-05-02T08:26:59Z</time>
<desc>lat.=42.452919, lon.=18.534018, Alt.=82.670959m. Speed=0.000000m/h.</desc>
<speed>0.000000</speed>
</trkpt>
<trkpt lat="42.452919" lon="18.534018">
<ele>82.678772</ele>
<time>2012-05-02T08:27:04Z</time>
<desc>lat.=42.452919, lon.=18.534018, Alt.=82.678772m. Speed=0.000000m/h.</desc>
<speed>0.000000</speed>
</trkpt>
<trkpt lat="42.452919" lon="18.534018">
<ele>82.686584</ele>
<time>2012-05-02T08:27:09Z</time>
<desc>lat.=42.452919, lon.=18.534018, Alt.=82.686584m. Speed=0.000000m/h.</desc>
<speed>0.000000</speed>
</trkpt>
<trkpt lat="42.452919" lon="18.534018">
<ele>82.708069</ele>
<time>2012-05-02T08:27:14Z</time>
<desc>lat.=42.452919, lon.=18.534018, Alt.=82.708069m. Speed=0.000000m/h.</desc>
<speed>0.000000</speed>
</trkpt>
<trkpt lat="42.452919" lon="18.534018">
<ele>82.745178</ele>
<time>2012-05-02T08:27:19Z</time>
<desc>lat.=42.452919, lon.=18.534018, Alt.=82.745178m. Speed=0.036000m/h.</desc>
<speed>0.010000</speed>
</trkpt>
<trkpt lat="42.452919" lon="18.534018">
<ele>82.774475</ele>
<time>2012-05-02T08:27:24Z</time>
<desc>lat.=42.452919, lon.=18.534018, Alt.=82.774475m. Speed=0.000000m/h.</desc>
<speed>0.000000</speed>
</trkpt>
<trkpt lat="42.452919" lon="18.534018">
<ele>82.799866</ele>
<time>2012-05-02T08:27:29Z</time>
<desc>lat.=42.452919, lon.=18.534018, Alt.=82.799866m. Speed=0.000000m/h.</desc>
<speed>0.000000</speed>
</trkpt>
<trkpt lat="42.452919" lon="18.534018">
<ele>82.835022</ele>
<time>2012-05-02T08:27:34Z</time>
<desc>lat.=42.452919, lon.=18.534018, Alt.=82.835022m. Speed=0.000000m/h.</desc>
<speed>0.000000</speed>
</trkpt>
<trkpt lat="42.452919" lon="18.534018">
<ele>82.846741</ele>
<time>2012-05-02T08:27:39Z</time>
<desc>lat.=42.452919, lon.=18.534018, Alt.=82.846741m. Speed=0.000000m/h.</desc>
<speed>0.000000</speed>
</trkpt>
<trkpt lat="42.452919" lon="18.534018">
<ele>82.856506</ele>
<time>2012-05-02T08:27:44Z</time>
<desc>lat.=42.452919, lon.=18.534018, Alt.=82.856506m. Speed=0.000000m/h.</desc>
<speed>0.000000</speed>
</trkpt>
<trkpt lat="42.452919" lon="18.534018">
<ele>82.860413</ele>
<time>2012-05-02T08:27:49Z</time>
<desc>lat.=42.452919, lon.=18.534018, Alt.=82.860413m. Speed=0.000000m/h.</desc>
<speed>0.000000</speed>
</trkpt>
<trkpt lat="42.452919" lon="18.534018">
<ele>82.874084</ele>
<time>2012-05-02T08:27:54Z</time>
<desc>lat.=42.452919, lon.=18.534018, Alt.=82.874084m. Speed=0.036000m/h.</desc>
<speed>0.010000</speed>
</trkpt>
<trkpt lat="42.452919" lon="18.534018">
<ele>82.877991</ele>
<time>2012-05-02T08:27:59Z</time>
<desc>lat.=42.452919, lon.=18.534018, Alt.=82.877991m. Speed=0.036000m/h.</desc>
<speed>0.010000</speed>
</trkpt>
<trkpt lat="42.452919" lon="18.534018">
<ele>82.891663</ele>
<time>2012-05-02T08:28:04Z</time>
<desc>lat.=42.452919, lon.=18.534018, Alt.=82.891663m. Speed=0.000000m/h.</desc>
<speed>0.000000</speed>
</trkpt>
<trkpt lat="42.452923" lon="18.534018">
<ele>82.907288</ele>
<time>2012-05-02T08:28:09Z</time>
<desc>lat.=42.452923, lon.=18.534018, Alt.=82.907288m. Speed=0.036000m/h.</desc>
<speed>0.010000</speed>
</trkpt>
<trkpt lat="42.452919" lon="18.534018">
<ele>82.895569</ele>
<time>2012-05-02T08:28:14Z</time>
<desc>lat.=42.452919, lon.=18.534018, Alt.=82.895569m. Speed=0.000000m/h.</desc>
<speed>0.000000</speed>
</trkpt>
<trkpt lat="42.452923" lon="18.534018">
<ele>82.915100</ele>
<time>2012-05-02T08:28:19Z</time>
<desc>lat.=42.452923, lon.=18.534018, Alt.=82.915100m. Speed=0.000000m/h.</desc>
<speed>0.000000</speed>
</trkpt>
<trkpt lat="42.452923" lon="18.534018">
<ele>82.930725</ele>
<time>2012-05-02T08:28:24Z</time>
<desc>lat.=42.452923, lon.=18.534018, Alt.=82.930725m. Speed=0.036000m/h.</desc>
<speed>0.010000</speed>
</trkpt>
<trkpt lat="42.452923" lon="18.534018">
<ele>82.934631</ele>
<time>2012-05-02T08:28:29Z</time>
<desc>lat.=42.452923, lon.=18.534018, Alt.=82.934631m. Speed=0.000000m/h.</desc>
<speed>0.000000</speed>
</trkpt>
<trkpt lat="42.452923" lon="18.534018">
<ele>82.934631</ele>
<time>2012-05-02T08:28:34Z</time>
<desc>lat.=42.452923, lon.=18.534018, Alt.=82.934631m. Speed=0.000000m/h.</desc>
<speed>0.000000</speed>
</trkpt>
<trkpt lat="42.452923" lon="18.534018">
<ele>82.946350</ele>
<time>2012-05-02T08:28:39Z</time>
<desc>lat.=42.452923, lon.=18.534018, Alt.=82.946350m. Speed=0.072000m/h.</desc>
<speed>0.020000</speed>
</trkpt>
<trkpt lat="42.452923" lon="18.534018">
<ele>82.946350</ele>
<time>2012-05-02T08:28:44Z</time>
<desc>lat.=42.452923, lon.=18.534018, Alt.=82.946350m. Speed=0.036000m/h.</desc>
<speed>0.010000</speed>
</trkpt>
<trkpt lat="42.452923" lon="18.534018">
<ele>82.948303</ele>
<time>2012-05-02T08:28:49Z</time>
<desc>lat.=42.452923, lon.=18.534018, Alt.=82.948303m. Speed=0.000000m/h.</desc>
<speed>0.000000</speed>
</trkpt>
<trkpt lat="42.452923" lon="18.534018">
<ele>82.944397</ele>
<time>2012-05-02T08:28:54Z</time>
<desc>lat.=42.452923, lon.=18.534018, Alt.=82.944397m. Speed=0.000000m/h.</desc>
<speed>0.000000</speed>
</trkpt>
<trkpt lat="42.452923" lon="18.534018">
<ele>82.942444</ele>
<time>2012-05-02T08:28:59Z</time>
<desc>lat.=42.452923, lon.=18.534018, Alt.=82.942444m. Speed=0.000000m/h.</desc>
<speed>0.000000</speed>
</trkpt>
<trkpt lat="42.452923" lon="18.534018">
<ele>82.944397</ele>
<time>2012-05-02T08:29:04Z</time>
<desc>lat.=42.452923, lon.=18.534018, Alt.=82.944397m. Speed=0.036000m/h.</desc>
<speed>0.010000</speed>
</trkpt>
<trkpt lat="42.452923" lon="18.534016">
<ele>82.940491</ele>
<time>2012-05-02T08:29:09Z</time>
<desc>lat.=42.452923, lon.=18.534016, Alt.=82.940491m. Speed=0.000000m/h.</desc>
<speed>0.000000</speed>
</trkpt>
<trkpt lat="42.452919" lon="18.534016">
<ele>82.938538</ele>
<time>2012-05-02T08:29:14Z</time>
<desc>lat.=42.452919, lon.=18.534016, Alt.=82.938538m. Speed=0.036000m/h.</desc>
<speed>0.010000</speed>
</trkpt>
<trkpt lat="42.452919" lon="18.534016">
<ele>82.922913</ele>
<time>2012-05-02T08:29:19Z</time>
<desc>lat.=42.452919, lon.=18.534016, Alt.=82.922913m. Speed=0.036000m/h.</desc>
<speed>0.010000</speed>
</trkpt>
<trkpt lat="42.452919" lon="18.534016">
<ele>82.905334</ele>
<time>2012-05-02T08:29:24Z</time>
<desc>lat.=42.452919, lon.=18.534016, Alt.=82.905334m. Speed=0.036000m/h.</desc>
<speed>0.010000</speed>
</trkpt>
<trkpt lat="42.452919" lon="18.534016">
<ele>82.872131</ele>
<time>2012-05-02T08:29:29Z</time>
<desc>lat.=42.452919, lon.=18.534016, Alt.=82.872131m. Speed=0.036000m/h.</desc>
<speed>0.010000</speed>
</trkpt>
<trkpt lat="42.452919" lon="18.534016">
<ele>82.836975</ele>
<time>2012-05-02T08:29:34Z</time>
<desc>lat.=42.452919, lon.=18.534016, Alt.=82.836975m. Speed=0.036000m/h.</desc>
<speed>0.010000</speed>
</trkpt>
<trkpt lat="42.452919" lon="18.534016">
<ele>82.790100</ele>
<time>2012-05-02T08:29:39Z</time>
<desc>lat.=42.452919, lon.=18.534016, Alt.=82.790100m. Speed=0.036000m/h.</desc>
<speed>0.010000</speed>
</trkpt>
<trkpt lat="42.452919" lon="18.534016">
<ele>82.745178</ele>
<time>2012-05-02T08:29:44Z</time>
<desc>lat.=42.452919, lon.=18.534016, Alt.=82.745178m. Speed=0.036000m/h.</desc>
<speed>0.010000</speed>
</trkpt>
<trkpt lat="42.452919" lon="18.534016">
<ele>82.702209</ele>
<time>2012-05-02T08:29:49Z</time>
<desc>lat.=42.452919, lon.=18.534016, Alt.=82.702209m. Speed=0.000000m/h.</desc>
<speed>0.000000</speed>
</trkpt>
<trkpt lat="42.452919" lon="18.534014">
<ele>82.667053</ele>
<time>2012-05-02T08:29:54Z</time>
<desc>lat.=42.452919, lon.=18.534014, Alt.=82.667053m. Speed=0.036000m/h.</desc>
<speed>0.010000</speed>
</trkpt>
<trkpt lat="42.452919" lon="18.534014">
<ele>82.641663</ele>
<time>2012-05-02T08:29:59Z</time>
<desc>lat.=42.452919, lon.=18.534014, Alt.=82.641663m. Speed=0.000000m/h.</desc>
<speed>0.000000</speed>
</trkpt>
<trkpt lat="42.452919" lon="18.534014">
<ele>82.614319</ele>
<time>2012-05-02T08:30:04Z</time>
<desc>lat.=42.452919, lon.=18.534014, Alt.=82.614319m. Speed=0.036000m/h.</desc>
<speed>0.010000</speed>
</trkpt>
<trkpt lat="42.452919" lon="18.534014">
<ele>82.596741</ele>
<time>2012-05-02T08:30:09Z</time>
<desc>lat.=42.452919, lon.=18.534014, Alt.=82.596741m. Speed=0.000000m/h.</desc>
<speed>0.000000</speed>
</trkpt>
<trkpt lat="42.452919" lon="18.534014">
<ele>82.577209</ele>
<time>2012-05-02T08:30:14Z</time>
<desc>lat.=42.452919, lon.=18.534014, Alt.=82.577209m. Speed=0.000000m/h.</desc>
<speed>0.000000</speed>
</trkpt>
<trkpt lat="42.452919" lon="18.534014">
<ele>82.559631</ele>
<time>2012-05-02T08:30:19Z</time>
<desc>lat.=42.452919, lon.=18.534014, Alt.=82.559631m. Speed=0.000000m/h.</desc>
<speed>0.000000</speed>
</trkpt>
<trkpt lat="42.452919" lon="18.534014">
<ele>82.547913</ele>
<time>2012-05-02T08:30:24Z</time>
<desc>lat.=42.452919, lon.=18.534014, Alt.=82.547913m. Speed=0.000000m/h.</desc>
<speed>0.000000</speed>
</trkpt>
<trkpt lat="42.452919" lon="18.534012">
<ele>82.538147</ele>
<time>2012-05-02T08:30:29Z</time>
<desc>lat.=42.452919, lon.=18.534012, Alt.=82.538147m. Speed=0.000000m/h.</desc>
<speed>0.000000</speed>
</trkpt>
<trkpt lat="42.452919" lon="18.534012">
<ele>82.528381</ele>
<time>2012-05-02T08:30:34Z</time>
<desc>lat.=42.452919, lon.=18.534012, Alt.=82.528381m. Speed=0.000000m/h.</desc>
<speed>0.000000</speed>
</trkpt>
<trkpt lat="42.452919" lon="18.534012">
<ele>82.518616</ele>
<time>2012-05-02T08:30:39Z</time>
<desc>lat.=42.452919, lon.=18.534012, Alt.=82.518616m. Speed=0.036000m/h.</desc>
<speed>0.010000</speed>
</trkpt>
<trkpt lat="42.452919" lon="18.534012">
<ele>82.506897</ele>
<time>2012-05-02T08:30:44Z</time>
<desc>lat.=42.452919, lon.=18.534012, Alt.=82.506897m. Speed=0.036000m/h.</desc>
<speed>0.010000</speed>
</trkpt>
<trkpt lat="42.452919" lon="18.534012">
<ele>82.493225</ele>
<time>2012-05-02T08:30:49Z</time>
<desc>lat.=42.452919, lon.=18.534012, Alt.=82.493225m. Speed=0.000000m/h.</desc>
<speed>0.000000</speed>
</trkpt>
<trkpt lat="42.452919" lon="18.534012">
<ele>82.477600</ele>
<time>2012-05-02T08:30:54Z</time>
<desc>lat.=42.452919, lon.=18.534012, Alt.=82.477600m. Speed=0.000000m/h.</desc>
<speed>0.000000</speed>
</trkpt>
<trkpt lat="42.452919" lon="18.534012">
<ele>82.467834</ele>
<time>2012-05-02T08:30:59Z</time>
<desc>lat.=42.452919, lon.=18.534012, Alt.=82.467834m. Speed=0.036000m/h.</desc>
<speed>0.010000</speed>
</trkpt>
<trkpt lat="42.452919" lon="18.534012">
<ele>82.454163</ele>
<time>2012-05-02T08:31:04Z</time>
<desc>lat.=42.452919, lon.=18.534012, Alt.=82.454163m. Speed=0.180000m/h.</desc>
<speed>0.050000</speed>
</trkpt>
<trkpt lat="42.452919" lon="18.534012">
<ele>82.440491</ele>
<time>2012-05-02T08:31:09Z</time>
<desc>lat.=42.452919, lon.=18.534012, Alt.=82.440491m. Speed=0.000000m/h.</desc>
<speed>0.000000</speed>
</trkpt>
<trkpt lat="42.452919" lon="18.534012">
<ele>82.424866</ele>
<time>2012-05-02T08:31:14Z</time>
<desc>lat.=42.452919, lon.=18.534012, Alt.=82.424866m. Speed=0.000000m/h.</desc>
<speed>0.000000</speed>
</trkpt>
<trkpt lat="42.452919" lon="18.534012">
<ele>82.413147</ele>
<time>2012-05-02T08:31:19Z</time>
<desc>lat.=42.452919, lon.=18.534012, Alt.=82.413147m. Speed=0.000000m/h.</desc>
<speed>0.000000</speed>
</trkpt>
<trkpt lat="42.452919" lon="18.534012">
<ele>82.397522</ele>
<time>2012-05-02T08:31:24Z</time>
<desc>lat.=42.452919, lon.=18.534012, Alt.=82.397522m. Speed=0.036000m/h.</desc>
<speed>0.010000</speed>
</trkpt>
<trkpt lat="42.452919" lon="18.534012">
<ele>82.376038</ele>
<time>2012-05-02T08:31:29Z</time>
<desc>lat.=42.452919, lon.=18.534012, Alt.=82.376038m. Speed=0.000000m/h.</desc>
<speed>0.000000</speed>
</trkpt>
<trkpt lat="42.452919" lon="18.534012">
<ele>82.348694</ele>
<time>2012-05-02T08:31:34Z</time>
<desc>lat.=42.452919, lon.=18.534012, Alt.=82.348694m. Speed=0.036000m/h.</desc>
<speed>0.010000</speed>
</trkpt>
<trkpt lat="42.452919" lon="18.534012">
<ele>82.327209</ele>
<time>2012-05-02T08:31:39Z</time>
<desc>lat.=42.452919, lon.=18.534012, Alt.=82.327209m. Speed=0.000000m/h.</desc>
<speed>0.000000</speed>
</trkpt>
<trkpt lat="42.452919" lon="18.534012">
<ele>82.309631</ele>
<time>2012-05-02T08:31:44Z</time>
<desc>lat.=42.452919, lon.=18.534012, Alt.=82.309631m. Speed=0.000000m/h.</desc>
<speed>0.000000</speed>
</trkpt>
<trkpt lat="42.452919" lon="18.534012">
<ele>82.290100</ele>
<time>2012-05-02T08:31:49Z</time>
<desc>lat.=42.452919, lon.=18.534012, Alt.=82.290100m. Speed=0.000000m/h.</desc>
<speed>0.000000</speed>
</trkpt>
<trkpt lat="42.452919" lon="18.534012">
<ele>82.274475</ele>
<time>2012-05-02T08:31:54Z</time>
<desc>lat.=42.452919, lon.=18.534012, Alt.=82.274475m. Speed=0.000000m/h.</desc>
<speed>0.000000</speed>
</trkpt>
<trkpt lat="42.452919" lon="18.534012">
<ele>82.260803</ele>
<time>2012-05-02T08:31:59Z</time>
<desc>lat.=42.452919, lon.=18.534012, Alt.=82.260803m. Speed=0.036000m/h.</desc>
<speed>0.010000</speed>
</trkpt>
<trkpt lat="42.452919" lon="18.534012">
<ele>82.249084</ele>
<time>2012-05-02T08:32:04Z</time>
<desc>lat.=42.452919, lon.=18.534012, Alt.=82.249084m. Speed=0.036000m/h.</desc>
<speed>0.010000</speed>
</trkpt>
<trkpt lat="42.452919" lon="18.534012">
<ele>82.237366</ele>
<time>2012-05-02T08:32:09Z</time>
<desc>lat.=42.452919, lon.=18.534012, Alt.=82.237366m. Speed=0.036000m/h.</desc>
<speed>0.010000</speed>
</trkpt>
<trkpt lat="42.452919" lon="18.534012">
<ele>82.231506</ele>
<time>2012-05-02T08:32:14Z</time>
<desc>lat.=42.452919, lon.=18.534012, Alt.=82.231506m. Speed=0.036000m/h.</desc>
<speed>0.010000</speed>
</trkpt>
<trkpt lat="42.452919" lon="18.534014">
<ele>82.223694</ele>
<time>2012-05-02T08:32:19Z</time>
<desc>lat.=42.452919, lon.=18.534014, Alt.=82.223694m. Speed=0.000000m/h.</desc>
<speed>0.000000</speed>
</trkpt>
<trkpt lat="42.452919" lon="18.534014">
<ele>82.215881</ele>
<time>2012-05-02T08:32:24Z</time>
<desc>lat.=42.452919, lon.=18.534014, Alt.=82.215881m. Speed=0.000000m/h.</desc>
<speed>0.000000</speed>
</trkpt>
<trkpt lat="42.452919" lon="18.534014">
<ele>82.208069</ele>
<time>2012-05-02T08:32:29Z</time>
<desc>lat.=42.452919, lon.=18.534014, Alt.=82.208069m. Speed=0.036000m/h.</desc>
<speed>0.010000</speed>
</trkpt>
<trkpt lat="42.452919" lon="18.534014">
<ele>82.200256</ele>
<time>2012-05-02T08:32:34Z</time>
<desc>lat.=42.452919, lon.=18.534014, Alt.=82.200256m. Speed=0.000000m/h.</desc>
<speed>0.000000</speed>
</trkpt>
<trkpt lat="42.452919" lon="18.534014">
<ele>82.190491</ele>
<time>2012-05-02T08:32:39Z</time>
<desc>lat.=42.452919, lon.=18.534014, Alt.=82.190491m. Speed=0.000000m/h.</desc>
<speed>0.000000</speed>
</trkpt>
<trkpt lat="42.452919" lon="18.534014">
<ele>82.180725</ele>
<time>2012-05-02T08:32:44Z</time>
<desc>lat.=42.452919, lon.=18.534014, Alt.=82.180725m. Speed=0.000000m/h.</desc>
<speed>0.000000</speed>
</trkpt>
<trkpt lat="42.452923" lon="18.534014">
<ele>82.169006</ele>
<time>2012-05-02T08:32:49Z</time>
<desc>lat.=42.452923, lon.=18.534014, Alt.=82.169006m. Speed=0.000000m/h.</desc>
<speed>0.000000</speed>
</trkpt>
<trkpt lat="42.452923" lon="18.534014">
<ele>82.153381</ele>
<time>2012-05-02T08:32:54Z</time>
<desc>lat.=42.452923, lon.=18.534014, Alt.=82.153381m. Speed=0.036000m/h.</desc>
<speed>0.010000</speed>
</trkpt>
<trkpt lat="42.452923" lon="18.534016">
<ele>82.139709</ele>
<time>2012-05-02T08:32:59Z</time>
<desc>lat.=42.452923, lon.=18.534016, Alt.=82.139709m. Speed=0.036000m/h.</desc>
<speed>0.010000</speed>
</trkpt>
<trkpt lat="42.452923" lon="18.534016">
<ele>82.122131</ele>
<time>2012-05-02T08:33:04Z</time>
<desc>lat.=42.452923, lon.=18.534016, Alt.=82.122131m. Speed=0.000000m/h.</desc>
<speed>0.000000</speed>
</trkpt>
<trkpt lat="42.452923" lon="18.534016">
<ele>82.110413</ele>
<time>2012-05-02T08:33:09Z</time>
<desc>lat.=42.452923, lon.=18.534016, Alt.=82.110413m. Speed=0.000000m/h.</desc>
<speed>0.000000</speed>
</trkpt>
<trkpt lat="42.452923" lon="18.534016">
<ele>82.098694</ele>
<time>2012-05-02T08:33:14Z</time>
<desc>lat.=42.452923, lon.=18.534016, Alt.=82.098694m. Speed=0.000000m/h.</desc>
<speed>0.000000</speed>
</trkpt>
<trkpt lat="42.452923" lon="18.534016">
<ele>82.086975</ele>
<time>2012-05-02T08:33:19Z</time>
<desc>lat.=42.452923, lon.=18.534016, Alt.=82.086975m. Speed=0.072000m/h.</desc>
<speed>0.020000</speed>
</trkpt>
<trkpt lat="42.452923" lon="18.534016">
<ele>82.069397</ele>
<time>2012-05-02T08:33:24Z</time>
<desc>lat.=42.452923, lon.=18.534016, Alt.=82.069397m. Speed=0.072000m/h.</desc>
<speed>0.020000</speed>
</trkpt>
<trkpt lat="42.452923" lon="18.534016">
<ele>82.061584</ele>
<time>2012-05-02T08:33:29Z</time>
<desc>lat.=42.452923, lon.=18.534016, Alt.=82.061584m. Speed=0.000000m/h.</desc>
<speed>0.000000</speed>
</trkpt>
<trkpt lat="42.452923" lon="18.534018">
<ele>82.053772</ele>
<time>2012-05-02T08:33:34Z</time>
<desc>lat.=42.452923, lon.=18.534018, Alt.=82.053772m. Speed=0.036000m/h.</desc>
<speed>0.010000</speed>
</trkpt>
<trkpt lat="42.452923" lon="18.534018">
<ele>82.044006</ele>
<time>2012-05-02T08:33:39Z</time>
<desc>lat.=42.452923, lon.=18.534018, Alt.=82.044006m. Speed=0.000000m/h.</desc>
<speed>0.000000</speed>
</trkpt>
<trkpt lat="42.452923" lon="18.534018">
<ele>82.036194</ele>
<time>2012-05-02T08:33:44Z</time>
<desc>lat.=42.452923, lon.=18.534018, Alt.=82.036194m. Speed=0.000000m/h.</desc>
<speed>0.000000</speed>
</trkpt>
<trkpt lat="42.452923" lon="18.534018">
<ele>82.014709</ele>
<time>2012-05-02T08:33:49Z</time>
<desc>lat.=42.452923, lon.=18.534018, Alt.=82.014709m. Speed=0.000000m/h.</desc>
<speed>0.000000</speed>
</trkpt>
<trkpt lat="42.452923" lon="18.534018">
<ele>81.960022</ele>
<time>2012-05-02T08:33:54Z</time>
<desc>lat.=42.452923, lon.=18.534018, Alt.=81.960022m. Speed=0.036000m/h.</desc>
<speed>0.010000</speed>
</trkpt>
<trkpt lat="42.452923" lon="18.534018">
<ele>81.870178</ele>
<time>2012-05-02T08:33:59Z</time>
<desc>lat.=42.452923, lon.=18.534018, Alt.=81.870178m. Speed=0.000000m/h.</desc>
<speed>0.000000</speed>
</trkpt>
<trkpt lat="42.452923" lon="18.534018">
<ele>81.747131</ele>
<time>2012-05-02T08:34:04Z</time>
<desc>lat.=42.452923, lon.=18.534018, Alt.=81.747131m. Speed=0.072000m/h.</desc>
<speed>0.020000</speed>
</trkpt>
<trkpt lat="42.452923" lon="18.534018">
<ele>81.600647</ele>
<time>2012-05-02T08:34:09Z</time>
<desc>lat.=42.452923, lon.=18.534018, Alt.=81.600647m. Speed=0.072000m/h.</desc>
<speed>0.020000</speed>
</trkpt>
<trkpt lat="42.452923" lon="18.534018">
<ele>81.411194</ele>
<time>2012-05-02T08:34:14Z</time>
<desc>lat.=42.452923, lon.=18.534018, Alt.=81.411194m. Speed=0.072000m/h.</desc>
<speed>0.020000</speed>
</trkpt>
<trkpt lat="42.452923" lon="18.534018">
<ele>81.192444</ele>
<time>2012-05-02T08:34:19Z</time>
<desc>lat.=42.452923, lon.=18.534018, Alt.=81.192444m. Speed=0.000000m/h.</desc>
<speed>0.000000</speed>
</trkpt>
<trkpt lat="42.452923" lon="18.534018">
<ele>80.961975</ele>
<time>2012-05-02T08:34:24Z</time>
<desc>lat.=42.452923, lon.=18.534018, Alt.=80.961975m. Speed=0.180000m/h.</desc>
<speed>0.050000</speed>
</trkpt>
<trkpt lat="42.452923" lon="18.534018">
<ele>80.711975</ele>
<time>2012-05-02T08:34:29Z</time>
<desc>lat.=42.452923, lon.=18.534018, Alt.=80.711975m. Speed=0.108000m/h.</desc>
<speed>0.030000</speed>
</trkpt>
<trkpt lat="42.452927" lon="18.534021">
<ele>80.452209</ele>
<time>2012-05-02T08:34:34Z</time>
<desc>lat.=42.452927, lon.=18.534021, Alt.=80.452209m. Speed=0.324000m/h.</desc>
<speed>0.090000</speed>
</trkpt>
<trkpt lat="42.452930" lon="18.534027">
<ele>80.165100</ele>
<time>2012-05-02T08:34:39Z</time>
<desc>lat.=42.452930, lon.=18.534027, Alt.=80.165100m. Speed=0.360000m/h.</desc>
<speed>0.100000</speed>
</trkpt>
<trkpt lat="42.452934" lon="18.534033">
<ele>79.903381</ele>
<time>2012-05-02T08:34:44Z</time>
<desc>lat.=42.452934, lon.=18.534033, Alt.=79.903381m. Speed=0.432000m/h.</desc>
<speed>0.120000</speed>
</trkpt>
<trkpt lat="42.452938" lon="18.534039">
<ele>79.639709</ele>
<time>2012-05-02T08:34:49Z</time>
<desc>lat.=42.452938, lon.=18.534039, Alt.=79.639709m. Speed=0.108000m/h.</desc>
<speed>0.030000</speed>
</trkpt>
<trkpt lat="42.452938" lon="18.534039">
<ele>79.370178</ele>
<time>2012-05-02T08:34:54Z</time>
<desc>lat.=42.452938, lon.=18.534039, Alt.=79.370178m. Speed=0.072000m/h.</desc>
<speed>0.020000</speed>
</trkpt>
<trkpt lat="42.452938" lon="18.534039">
<ele>79.149475</ele>
<time>2012-05-02T08:34:59Z</time>
<desc>lat.=42.452938, lon.=18.534039, Alt.=79.149475m. Speed=0.108000m/h.</desc>
<speed>0.030000</speed>
</trkpt>
<trkpt lat="42.452938" lon="18.534039">
<ele>78.926819</ele>
<time>2012-05-02T08:35:04Z</time>
<desc>lat.=42.452938, lon.=18.534039, Alt.=78.926819m. Speed=0.036000m/h.</desc>
<speed>0.010000</speed>
</trkpt>
<trkpt lat="42.452934" lon="18.534039">
<ele>78.729553</ele>
<time>2012-05-02T08:35:09Z</time>
<desc>lat.=42.452934, lon.=18.534039, Alt.=78.729553m. Speed=0.000000m/h.</desc>
<speed>0.000000</speed>
</trkpt>
<trkpt lat="42.452934" lon="18.534039">
<ele>78.704163</ele>
<time>2012-05-02T08:35:14Z</time>
<desc>lat.=42.452934, lon.=18.534039, Alt.=78.704163m. Speed=0.000000m/h.</desc>
<speed>0.000000</speed>
</trkpt>
<trkpt lat="42.452934" lon="18.534039">
<ele>78.633850</ele>
<time>2012-05-02T08:35:19Z</time>
<desc>lat.=42.452934, lon.=18.534039, Alt.=78.633850m. Speed=0.000000m/h.</desc>
<speed>0.000000</speed>
</trkpt>
<trkpt lat="42.452934" lon="18.534039">
<ele>78.540100</ele>
<time>2012-05-02T08:35:24Z</time>
<desc>lat.=42.452934, lon.=18.534039, Alt.=78.540100m. Speed=0.000000m/h.</desc>
<speed>0.000000</speed>
</trkpt>
<trkpt lat="42.452934" lon="18.534039">
<ele>78.428772</ele>
<time>2012-05-02T08:35:29Z</time>
<desc>lat.=42.452934, lon.=18.534039, Alt.=78.428772m. Speed=0.072000m/h.</desc>
<speed>0.020000</speed>
</trkpt>
<trkpt lat="42.452934" lon="18.534039">
<ele>78.280334</ele>
<time>2012-05-02T08:35:34Z</time>
<desc>lat.=42.452934, lon.=18.534039, Alt.=78.280334m. Speed=0.036000m/h.</desc>
<speed>0.010000</speed>
</trkpt>
<trkpt lat="42.452934" lon="18.534039">
<ele>78.151428</ele>
<time>2012-05-02T08:35:39Z</time>
<desc>lat.=42.452934, lon.=18.534039, Alt.=78.151428m. Speed=0.000000m/h.</desc>
<speed>0.000000</speed>
</trkpt>
<trkpt lat="42.452934" lon="18.534040">
<ele>78.126038</ele>
<time>2012-05-02T08:35:44Z</time>
<desc>lat.=42.452934, lon.=18.534040, Alt.=78.126038m. Speed=0.000000m/h.</desc>
<speed>0.000000</speed>
</trkpt>
<trkpt lat="42.452934" lon="18.534040">
<ele>78.106506</ele>
<time>2012-05-02T08:35:49Z</time>
<desc>lat.=42.452934, lon.=18.534040, Alt.=78.106506m. Speed=0.036000m/h.</desc>
<speed>0.010000</speed>
</trkpt>
<trkpt lat="42.452934" lon="18.534040">
<ele>78.067444</ele>
<time>2012-05-02T08:35:54Z</time>
<desc>lat.=42.452934, lon.=18.534040, Alt.=78.067444m. Speed=0.000000m/h.</desc>
<speed>0.000000</speed>
</trkpt>
<trkpt lat="42.452934" lon="18.534040">
<ele>78.061584</ele>
<time>2012-05-02T08:35:59Z</time>
<desc>lat.=42.452934, lon.=18.534040, Alt.=78.061584m. Speed=0.000000m/h.</desc>
<speed>0.000000</speed>
</trkpt>
<trkpt lat="42.452934" lon="18.534040">
<ele>78.047913</ele>
<time>2012-05-02T08:36:04Z</time>
<desc>lat.=42.452934, lon.=18.534040, Alt.=78.047913m. Speed=0.000000m/h.</desc>
<speed>0.000000</speed>
</trkpt>
<trkpt lat="42.452934" lon="18.534040">
<ele>78.038147</ele>
<time>2012-05-02T08:36:09Z</time>
<desc>lat.=42.452934, lon.=18.534040, Alt.=78.038147m. Speed=0.036000m/h.</desc>
<speed>0.010000</speed>
</trkpt>
<trkpt lat="42.452934" lon="18.534042">
<ele>78.040100</ele>
<time>2012-05-02T08:36:14Z</time>
<desc>lat.=42.452934, lon.=18.534042, Alt.=78.040100m. Speed=0.036000m/h.</desc>
<speed>0.010000</speed>
</trkpt>
<trkpt lat="42.452934" lon="18.534042">
<ele>78.032288</ele>
<time>2012-05-02T08:36:19Z</time>
<desc>lat.=42.452934, lon.=18.534042, Alt.=78.032288m. Speed=0.036000m/h.</desc>
<speed>0.010000</speed>
</trkpt>
<trkpt lat="42.452934" lon="18.534042">
<ele>78.002991</ele>
<time>2012-05-02T08:36:24Z</time>
<desc>lat.=42.452934, lon.=18.534042, Alt.=78.002991m. Speed=0.000000m/h.</desc>
<speed>0.000000</speed>
</trkpt>
<trkpt lat="42.452934" lon="18.534042">
<ele>77.975647</ele>
<time>2012-05-02T08:36:29Z</time>
<desc>lat.=42.452934, lon.=18.534042, Alt.=77.975647m. Speed=0.036000m/h.</desc>
<speed>0.010000</speed>
</trkpt>
<trkpt lat="42.452934" lon="18.534042">
<ele>77.940491</ele>
<time>2012-05-02T08:36:34Z</time>
<desc>lat.=42.452934, lon.=18.534042, Alt.=77.940491m. Speed=0.000000m/h.</desc>
<speed>0.000000</speed>
</trkpt>
<trkpt lat="42.452934" lon="18.534042">
<ele>77.922913</ele>
<time>2012-05-02T08:36:39Z</time>
<desc>lat.=42.452934, lon.=18.534042, Alt.=77.922913m. Speed=0.000000m/h.</desc>
<speed>0.000000</speed>
</trkpt>
<trkpt lat="42.452934" lon="18.534042">
<ele>77.891663</ele>
<time>2012-05-02T08:36:44Z</time>
<desc>lat.=42.452934, lon.=18.534042, Alt.=77.891663m. Speed=0.036000m/h.</desc>
<speed>0.010000</speed>
</trkpt>
<trkpt lat="42.452934" lon="18.534042">
<ele>77.838928</ele>
<time>2012-05-02T08:36:49Z</time>
<desc>lat.=42.452934, lon.=18.534042, Alt.=77.838928m. Speed=0.036000m/h.</desc>
<speed>0.010000</speed>
</trkpt>
<trkpt lat="42.452934" lon="18.534042">
<ele>77.815491</ele>
<time>2012-05-02T08:36:54Z</time>
<desc>lat.=42.452934, lon.=18.534042, Alt.=77.815491m. Speed=0.036000m/h.</desc>
<speed>0.010000</speed>
</trkpt>
<trkpt lat="42.452934" lon="18.534044">
<ele>77.821350</ele>
<time>2012-05-02T08:36:59Z</time>
<desc>lat.=42.452934, lon.=18.534044, Alt.=77.821350m. Speed=0.000000m/h.</desc>
<speed>0.000000</speed>
</trkpt>
<trkpt lat="42.452934" lon="18.534044">
<ele>77.797913</ele>
<time>2012-05-02T08:37:04Z</time>
<desc>lat.=42.452934, lon.=18.534044, Alt.=77.797913m. Speed=0.000000m/h.</desc>
<speed>0.000000</speed>
</trkpt>
<trkpt lat="42.452934" lon="18.534044">
<ele>77.801819</ele>
<time>2012-05-02T08:37:09Z</time>
<desc>lat.=42.452934, lon.=18.534044, Alt.=77.801819m. Speed=0.036000m/h.</desc>
<speed>0.010000</speed>
</trkpt>
<trkpt lat="42.452934" lon="18.534044">
<ele>77.784241</ele>
<time>2012-05-02T08:37:14Z</time>
<desc>lat.=42.452934, lon.=18.534044, Alt.=77.784241m. Speed=0.000000m/h.</desc>
<speed>0.000000</speed>
</trkpt>
<trkpt lat="42.452934" lon="18.534046">
<ele>77.752991</ele>
<time>2012-05-02T08:37:19Z</time>
<desc>lat.=42.452934, lon.=18.534046, Alt.=77.752991m. Speed=0.072000m/h.</desc>
<speed>0.020000</speed>
</trkpt>
<trkpt lat="42.452934" lon="18.534046">
<ele>77.758850</ele>
<time>2012-05-02T08:37:24Z</time>
<desc>lat.=42.452934, lon.=18.534046, Alt.=77.758850m. Speed=0.000000m/h.</desc>
<speed>0.000000</speed>
</trkpt>
<trkpt lat="42.452934" lon="18.534046">
<ele>77.770569</ele>
<time>2012-05-02T08:37:29Z</time>
<desc>lat.=42.452934, lon.=18.534046, Alt.=77.770569m. Speed=0.000000m/h.</desc>
<speed>0.000000</speed>
</trkpt>
<trkpt lat="42.452934" lon="18.534046">
<ele>77.762756</ele>
<time>2012-05-02T08:37:34Z</time>
<desc>lat.=42.452934, lon.=18.534046, Alt.=77.762756m. Speed=0.000000m/h.</desc>
<speed>0.000000</speed>
</trkpt>
<trkpt lat="42.452934" lon="18.534046">
<ele>77.743225</ele>
<time>2012-05-02T08:37:39Z</time>
<desc>lat.=42.452934, lon.=18.534046, Alt.=77.743225m. Speed=0.000000m/h.</desc>
<speed>0.000000</speed>
</trkpt>
<trkpt lat="42.452934" lon="18.534046">
<ele>77.739319</ele>
<time>2012-05-02T08:37:44Z</time>
<desc>lat.=42.452934, lon.=18.534046, Alt.=77.739319m. Speed=0.000000m/h.</desc>
<speed>0.000000</speed>
</trkpt>
<trkpt lat="42.452934" lon="18.534046">
<ele>77.729553</ele>
<time>2012-05-02T08:37:49Z</time>
<desc>lat.=42.452934, lon.=18.534046, Alt.=77.729553m. Speed=0.000000m/h.</desc>
<speed>0.000000</speed>
</trkpt>
<trkpt lat="42.452934" lon="18.534046">
<ele>77.721741</ele>
<time>2012-05-02T08:37:54Z</time>
<desc>lat.=42.452934, lon.=18.534046, Alt.=77.721741m. Speed=0.000000m/h.</desc>
<speed>0.000000</speed>
</trkpt>
<trkpt lat="42.452934" lon="18.534046">
<ele>77.711975</ele>
<time>2012-05-02T08:37:59Z</time>
<desc>lat.=42.452934, lon.=18.534046, Alt.=77.711975m. Speed=0.000000m/h.</desc>
<speed>0.000000</speed>
</trkpt>
<trkpt lat="42.452938" lon="18.534046">
<ele>77.715881</ele>
<time>2012-05-02T08:38:04Z</time>
<desc>lat.=42.452938, lon.=18.534046, Alt.=77.715881m. Speed=0.000000m/h.</desc>
<speed>0.000000</speed>
</trkpt>
<trkpt lat="42.452938" lon="18.534046">
<ele>77.700256</ele>
<time>2012-05-02T08:38:09Z</time>
<desc>lat.=42.452938, lon.=18.534046, Alt.=77.700256m. Speed=0.036000m/h.</desc>
<speed>0.010000</speed>
</trkpt>
<trkpt lat="42.452938" lon="18.534046">
<ele>77.657288</ele>
<time>2012-05-02T08:38:14Z</time>
<desc>lat.=42.452938, lon.=18.534046, Alt.=77.657288m. Speed=0.000000m/h.</desc>
<speed>0.000000</speed>
</trkpt>
<trkpt lat="42.452938" lon="18.534048">
<ele>77.645569</ele>
<time>2012-05-02T08:38:19Z</time>
<desc>lat.=42.452938, lon.=18.534048, Alt.=77.645569m. Speed=0.000000m/h.</desc>
<speed>0.000000</speed>
</trkpt>
<trkpt lat="42.452938" lon="18.534048">
<ele>77.627991</ele>
<time>2012-05-02T08:38:24Z</time>
<desc>lat.=42.452938, lon.=18.534048, Alt.=77.627991m. Speed=0.000000m/h.</desc>
<speed>0.000000</speed>
</trkpt>
<trkpt lat="42.452938" lon="18.534048">
<ele>77.604553</ele>
<time>2012-05-02T08:38:29Z</time>
<desc>lat.=42.452938, lon.=18.534048, Alt.=77.604553m. Speed=0.036000m/h.</desc>
<speed>0.010000</speed>
</trkpt>
<trkpt lat="42.452938" lon="18.534048">
<ele>77.590881</ele>
<time>2012-05-02T08:38:34Z</time>
<desc>lat.=42.452938, lon.=18.534048, Alt.=77.590881m. Speed=0.000000m/h.</desc>
<speed>0.000000</speed>
</trkpt>
<trkpt lat="42.452938" lon="18.534048">
<ele>77.538147</ele>
<time>2012-05-02T08:38:39Z</time>
<desc>lat.=42.452938, lon.=18.534048, Alt.=77.538147m. Speed=0.036000m/h.</desc>
<speed>0.010000</speed>
</trkpt>
<trkpt lat="42.452938" lon="18.534048">
<ele>77.475647</ele>
<time>2012-05-02T08:38:44Z</time>
<desc>lat.=42.452938, lon.=18.534048, Alt.=77.475647m. Speed=0.036000m/h.</desc>
<speed>0.010000</speed>
</trkpt>
<trkpt lat="42.452938" lon="18.534048">
<ele>77.424866</ele>
<time>2012-05-02T08:38:49Z</time>
<desc>lat.=42.452938, lon.=18.534048, Alt.=77.424866m. Speed=0.000000m/h.</desc>
<speed>0.000000</speed>
</trkpt>
<trkpt lat="42.452938" lon="18.534048">
<ele>77.389709</ele>
<time>2012-05-02T08:38:54Z</time>
<desc>lat.=42.452938, lon.=18.534048, Alt.=77.389709m. Speed=0.000000m/h.</desc>
<speed>0.000000</speed>
</trkpt>
<trkpt lat="42.452938" lon="18.534048">
<ele>77.370178</ele>
<time>2012-05-02T08:38:59Z</time>
<desc>lat.=42.452938, lon.=18.534048, Alt.=77.370178m. Speed=0.036000m/h.</desc>
<speed>0.010000</speed>
</trkpt>
<trkpt lat="42.452938" lon="18.534048">
<ele>77.329163</ele>
<time>2012-05-02T08:39:04Z</time>
<desc>lat.=42.452938, lon.=18.534048, Alt.=77.329163m. Speed=0.000000m/h.</desc>
<speed>0.000000</speed>
</trkpt>
<trkpt lat="42.452938" lon="18.534048">
<ele>77.280334</ele>
<time>2012-05-02T08:39:09Z</time>
<desc>lat.=42.452938, lon.=18.534048, Alt.=77.280334m. Speed=0.000000m/h.</desc>
<speed>0.000000</speed>
</trkpt>
<trkpt lat="42.452938" lon="18.534050">
<ele>77.252991</ele>
<time>2012-05-02T08:39:14Z</time>
<desc>lat.=42.452938, lon.=18.534050, Alt.=77.252991m. Speed=0.000000m/h.</desc>
<speed>0.000000</speed>
</trkpt>
<trkpt lat="42.452938" lon="18.534050">
<ele>77.233459</ele>
<time>2012-05-02T08:39:19Z</time>
<desc>lat.=42.452938, lon.=18.534050, Alt.=77.233459m. Speed=0.000000m/h.</desc>
<speed>0.000000</speed>
</trkpt>
<trkpt lat="42.452938" lon="18.534050">
<ele>77.213928</ele>
<time>2012-05-02T08:39:24Z</time>
<desc>lat.=42.452938, lon.=18.534050, Alt.=77.213928m. Speed=0.036000m/h.</desc>
<speed>0.010000</speed>
</trkpt>
<trkpt lat="42.452938" lon="18.534050">
<ele>77.194397</ele>
<time>2012-05-02T08:39:29Z</time>
<desc>lat.=42.452938, lon.=18.534050, Alt.=77.194397m. Speed=0.000000m/h.</desc>
<speed>0.000000</speed>
</trkpt>
<trkpt lat="42.452938" lon="18.534050">
<ele>77.170959</ele>
<time>2012-05-02T08:39:34Z</time>
<desc>lat.=42.452938, lon.=18.534050, Alt.=77.170959m. Speed=0.000000m/h.</desc>
<speed>0.000000</speed>
</trkpt>
<trkpt lat="42.452938" lon="18.534050">
<ele>77.133850</ele>
<time>2012-05-02T08:39:39Z</time>
<desc>lat.=42.452938, lon.=18.534050, Alt.=77.133850m. Speed=0.000000m/h.</desc>
<speed>0.000000</speed>
</trkpt>
<trkpt lat="42.452938" lon="18.534050">
<ele>77.075256</ele>
<time>2012-05-02T08:39:44Z</time>
<desc>lat.=42.452938, lon.=18.534050, Alt.=77.075256m. Speed=0.036000m/h.</desc>
<speed>0.010000</speed>
</trkpt>
<trkpt lat="42.452938" lon="18.534052">
<ele>76.975647</ele>
<time>2012-05-02T08:39:49Z</time>
<desc>lat.=42.452938, lon.=18.534052, Alt.=76.975647m. Speed=0.000000m/h.</desc>
<speed>0.000000</speed>
</trkpt>
<trkpt lat="42.452938" lon="18.534052">
<ele>76.891663</ele>
<time>2012-05-02T08:39:54Z</time>
<desc>lat.=42.452938, lon.=18.534052, Alt.=76.891663m. Speed=0.036000m/h.</desc>
<speed>0.010000</speed>
</trkpt>
<trkpt lat="42.452938" lon="18.534052">
<ele>76.819397</ele>
<time>2012-05-02T08:39:59Z</time>
<desc>lat.=42.452938, lon.=18.534052, Alt.=76.819397m. Speed=0.036000m/h.</desc>
<speed>0.010000</speed>
</trkpt>
<trkpt lat="42.452938" lon="18.534052">
<ele>76.764709</ele>
<time>2012-05-02T08:40:04Z</time>
<desc>lat.=42.452938, lon.=18.534052, Alt.=76.764709m. Speed=0.000000m/h.</desc>
<speed>0.000000</speed>
</trkpt>
<trkpt lat="42.452938" lon="18.534052">
<ele>76.723694</ele>
<time>2012-05-02T08:40:09Z</time>
<desc>lat.=42.452938, lon.=18.534052, Alt.=76.723694m. Speed=0.000000m/h.</desc>
<speed>0.000000</speed>
</trkpt>
<trkpt lat="42.452938" lon="18.534052">
<ele>76.694397</ele>
<time>2012-05-02T08:40:14Z</time>
<desc>lat.=42.452938, lon.=18.534052, Alt.=76.694397m. Speed=0.036000m/h.</desc>
<speed>0.010000</speed>
</trkpt>
<trkpt lat="42.452938" lon="18.534052">
<ele>76.690491</ele>
<time>2012-05-02T08:40:19Z</time>
<desc>lat.=42.452938, lon.=18.534052, Alt.=76.690491m. Speed=0.036000m/h.</desc>
<speed>0.010000</speed>
</trkpt>
<trkpt lat="42.452938" lon="18.534052">
<ele>76.680725</ele>
<time>2012-05-02T08:40:24Z</time>
<desc>lat.=42.452938, lon.=18.534052, Alt.=76.680725m. Speed=0.036000m/h.</desc>
<speed>0.010000</speed>
</trkpt>
<trkpt lat="42.452938" lon="18.534054">
<ele>76.657288</ele>
<time>2012-05-02T08:40:29Z</time>
<desc>lat.=42.452938, lon.=18.534054, Alt.=76.657288m. Speed=0.108000m/h.</desc>
<speed>0.030000</speed>
</trkpt>
<trkpt lat="42.452938" lon="18.534054">
<ele>76.647522</ele>
<time>2012-05-02T08:40:34Z</time>
<desc>lat.=42.452938, lon.=18.534054, Alt.=76.647522m. Speed=0.036000m/h.</desc>
<speed>0.010000</speed>
</trkpt>
<trkpt lat="42.452938" lon="18.534054">
<ele>76.633850</ele>
<time>2012-05-02T08:40:39Z</time>
<desc>lat.=42.452938, lon.=18.534054, Alt.=76.633850m. Speed=0.144000m/h.</desc>
<speed>0.040000</speed>
</trkpt>
<trkpt lat="42.452942" lon="18.534056">
<ele>76.610413</ele>
<time>2012-05-02T08:40:44Z</time>
<desc>lat.=42.452942, lon.=18.534056, Alt.=76.610413m. Speed=0.216000m/h.</desc>
<speed>0.060000</speed>
</trkpt>
<trkpt lat="42.452942" lon="18.534056">
<ele>76.622131</ele>
<time>2012-05-02T08:40:49Z</time>
<desc>lat.=42.452942, lon.=18.534056, Alt.=76.622131m. Speed=0.108000m/h.</desc>
<speed>0.030000</speed>
</trkpt>
<trkpt lat="42.452942" lon="18.534056">
<ele>76.629944</ele>
<time>2012-05-02T08:40:54Z</time>
<desc>lat.=42.452942, lon.=18.534056, Alt.=76.629944m. Speed=0.144000m/h.</desc>
<speed>0.040000</speed>
</trkpt>
<trkpt lat="42.452942" lon="18.534058">
<ele>76.635803</ele>
<time>2012-05-02T08:40:59Z</time>
<desc>lat.=42.452942, lon.=18.534058, Alt.=76.635803m. Speed=0.180000m/h.</desc>
<speed>0.050000</speed>
</trkpt>
<trkpt lat="42.452942" lon="18.534058">
<ele>76.645569</ele>
<time>2012-05-02T08:41:04Z</time>
<desc>lat.=42.452942, lon.=18.534058, Alt.=76.645569m. Speed=0.108000m/h.</desc>
<speed>0.030000</speed>
</trkpt>
<trkpt lat="42.452946" lon="18.534060">
<ele>76.641663</ele>
<time>2012-05-02T08:41:09Z</time>
<desc>lat.=42.452946, lon.=18.534060, Alt.=76.641663m. Speed=0.108000m/h.</desc>
<speed>0.030000</speed>
</trkpt>
<trkpt lat="42.452946" lon="18.534060">
<ele>76.629944</ele>
<time>2012-05-02T08:41:14Z</time>
<desc>lat.=42.452946, lon.=18.534060, Alt.=76.629944m. Speed=0.180000m/h.</desc>
<speed>0.050000</speed>
</trkpt>
<trkpt lat="42.452946" lon="18.534061">
<ele>76.606506</ele>
<time>2012-05-02T08:41:19Z</time>
<desc>lat.=42.452946, lon.=18.534061, Alt.=76.606506m. Speed=0.144000m/h.</desc>
<speed>0.040000</speed>
</trkpt>
<trkpt lat="42.452946" lon="18.534061">
<ele>76.575256</ele>
<time>2012-05-02T08:41:24Z</time>
<desc>lat.=42.452946, lon.=18.534061, Alt.=76.575256m. Speed=0.072000m/h.</desc>
<speed>0.020000</speed>
</trkpt>
<trkpt lat="42.452946" lon="18.534063">
<ele>76.512756</ele>
<time>2012-05-02T08:41:29Z</time>
<desc>lat.=42.452946, lon.=18.534063, Alt.=76.512756m. Speed=0.072000m/h.</desc>
<speed>0.020000</speed>
</trkpt>
<trkpt lat="42.452950" lon="18.534063">
<ele>76.428772</ele>
<time>2012-05-02T08:41:34Z</time>
<desc>lat.=42.452950, lon.=18.534063, Alt.=76.428772m. Speed=0.072000m/h.</desc>
<speed>0.020000</speed>
</trkpt>
<trkpt lat="42.452950" lon="18.534063">
<ele>76.338928</ele>
<time>2012-05-02T08:41:39Z</time>
<desc>lat.=42.452950, lon.=18.534063, Alt.=76.338928m. Speed=0.072000m/h.</desc>
<speed>0.020000</speed>
</trkpt>
<trkpt lat="42.452950" lon="18.534063">
<ele>76.260803</ele>
<time>2012-05-02T08:41:44Z</time>
<desc>lat.=42.452950, lon.=18.534063, Alt.=76.260803m. Speed=0.108000m/h.</desc>
<speed>0.030000</speed>
</trkpt>
<trkpt lat="42.452950" lon="18.534065">
<ele>76.208069</ele>
<time>2012-05-02T08:41:49Z</time>
<desc>lat.=42.452950, lon.=18.534065, Alt.=76.208069m. Speed=0.108000m/h.</desc>
<speed>0.030000</speed>
</trkpt>
<trkpt lat="42.452950" lon="18.534065">
<ele>76.188538</ele>
<time>2012-05-02T08:41:54Z</time>
<desc>lat.=42.452950, lon.=18.534065, Alt.=76.188538m. Speed=0.108000m/h.</desc>
<speed>0.030000</speed>
</trkpt>
<trkpt lat="42.452950" lon="18.534065">
<ele>76.204163</ele>
<time>2012-05-02T08:41:59Z</time>
<desc>lat.=42.452950, lon.=18.534065, Alt.=76.204163m. Speed=0.036000m/h.</desc>
<speed>0.010000</speed>
</trkpt>
<trkpt lat="42.452950" lon="18.534065">
<ele>76.211975</ele>
<time>2012-05-02T08:42:04Z</time>
<desc>lat.=42.452950, lon.=18.534065, Alt.=76.211975m. Speed=0.000000m/h.</desc>
<speed>0.000000</speed>
</trkpt>
<trkpt lat="42.452950" lon="18.534065">
<ele>76.219788</ele>
<time>2012-05-02T08:42:09Z</time>
<desc>lat.=42.452950, lon.=18.534065, Alt.=76.219788m. Speed=0.144000m/h.</desc>
<speed>0.040000</speed>
</trkpt>
<trkpt lat="42.452953" lon="18.534067">
<ele>76.231506</ele>
<time>2012-05-02T08:42:14Z</time>
<desc>lat.=42.452953, lon.=18.534067, Alt.=76.231506m. Speed=0.072000m/h.</desc>
<speed>0.020000</speed>
</trkpt>
<trkpt lat="42.452953" lon="18.534067">
<ele>76.241272</ele>
<time>2012-05-02T08:42:19Z</time>
<desc>lat.=42.452953, lon.=18.534067, Alt.=76.241272m. Speed=0.072000m/h.</desc>
<speed>0.020000</speed>
</trkpt>
<trkpt lat="42.452953" lon="18.534067">
<ele>76.237366</ele>
<time>2012-05-02T08:42:24Z</time>
<desc>lat.=42.452953, lon.=18.534067, Alt.=76.237366m. Speed=0.036000m/h.</desc>
<speed>0.010000</speed>
</trkpt>
<trkpt lat="42.452953" lon="18.534067">
<ele>76.256897</ele>
<time>2012-05-02T08:42:29Z</time>
<desc>lat.=42.452953, lon.=18.534067, Alt.=76.256897m. Speed=0.036000m/h.</desc>
<speed>0.010000</speed>
</trkpt>
<trkpt lat="42.452953" lon="18.534067">
<ele>76.262756</ele>
<time>2012-05-02T08:42:34Z</time>
<desc>lat.=42.452953, lon.=18.534067, Alt.=76.262756m. Speed=0.000000m/h.</desc>
<speed>0.000000</speed>
</trkpt>
<trkpt lat="42.452953" lon="18.534067">
<ele>76.284241</ele>
<time>2012-05-02T08:42:39Z</time>
<desc>lat.=42.452953, lon.=18.534067, Alt.=76.284241m. Speed=0.072000m/h.</desc>
<speed>0.020000</speed>
</trkpt>
<trkpt lat="42.452953" lon="18.534069">
<ele>76.276428</ele>
<time>2012-05-02T08:42:44Z</time>
<desc>lat.=42.452953, lon.=18.534069, Alt.=76.276428m. Speed=0.108000m/h.</desc>
<speed>0.030000</speed>
</trkpt>
<trkpt lat="42.452953" lon="18.534069">
<ele>76.282288</ele>
<time>2012-05-02T08:42:49Z</time>
<desc>lat.=42.452953, lon.=18.534069, Alt.=76.282288m. Speed=0.036000m/h.</desc>
<speed>0.010000</speed>
</trkpt>
<trkpt lat="42.452957" lon="18.534069">
<ele>76.288147</ele>
<time>2012-05-02T08:42:54Z</time>
<desc>lat.=42.452957, lon.=18.534069, Alt.=76.288147m. Speed=0.072000m/h.</desc>
<speed>0.020000</speed>
</trkpt>
<trkpt lat="42.452957" lon="18.534069">
<ele>76.268616</ele>
<time>2012-05-02T08:42:59Z</time>
<desc>lat.=42.452957, lon.=18.534069, Alt.=76.268616m. Speed=0.000000m/h.</desc>
<speed>0.000000</speed>
</trkpt>
<trkpt lat="42.452957" lon="18.534071">
<ele>76.251038</ele>
<time>2012-05-02T08:43:04Z</time>
<desc>lat.=42.452957, lon.=18.534071, Alt.=76.251038m. Speed=0.036000m/h.</desc>
<speed>0.010000</speed>
</trkpt>
<trkpt lat="42.452957" lon="18.534071">
<ele>76.225647</ele>
<time>2012-05-02T08:43:09Z</time>
<desc>lat.=42.452957, lon.=18.534071, Alt.=76.225647m. Speed=0.036000m/h.</desc>
<speed>0.010000</speed>
</trkpt>
<trkpt lat="42.452957" lon="18.534071">
<ele>76.161194</ele>
<time>2012-05-02T08:43:14Z</time>
<desc>lat.=42.452957, lon.=18.534071, Alt.=76.161194m. Speed=0.108000m/h.</desc>
<speed>0.030000</speed>
</trkpt>
<trkpt lat="42.452957" lon="18.534071">
<ele>76.077209</ele>
<time>2012-05-02T08:43:19Z</time>
<desc>lat.=42.452957, lon.=18.534071, Alt.=76.077209m. Speed=0.108000m/h.</desc>
<speed>0.030000</speed>
</trkpt>
<trkpt lat="42.452957" lon="18.534073">
<ele>75.983459</ele>
<time>2012-05-02T08:43:24Z</time>
<desc>lat.=42.452957, lon.=18.534073, Alt.=75.983459m. Speed=0.180000m/h.</desc>
<speed>0.050000</speed>
</trkpt>
<trkpt lat="42.452961" lon="18.534075">
<ele>75.872131</ele>
<time>2012-05-02T08:43:29Z</time>
<desc>lat.=42.452961, lon.=18.534075, Alt.=75.872131m. Speed=0.144000m/h.</desc>
<speed>0.040000</speed>
</trkpt>
<trkpt lat="42.452961" lon="18.534075">
<ele>75.795959</ele>
<time>2012-05-02T08:43:34Z</time>
<desc>lat.=42.452961, lon.=18.534075, Alt.=75.795959m. Speed=0.144000m/h.</desc>
<speed>0.040000</speed>
</trkpt>
<trkpt lat="42.452961" lon="18.534075">
<ele>75.747131</ele>
<time>2012-05-02T08:43:39Z</time>
<desc>lat.=42.452961, lon.=18.534075, Alt.=75.747131m. Speed=0.036000m/h.</desc>
<speed>0.010000</speed>
</trkpt>
<trkpt lat="42.452961" lon="18.534077">
<ele>75.676819</ele>
<time>2012-05-02T08:43:44Z</time>
<desc>lat.=42.452961, lon.=18.534077, Alt.=75.676819m. Speed=0.036000m/h.</desc>
<speed>0.010000</speed>
</trkpt>
<trkpt lat="42.452961" lon="18.534077">
<ele>75.627991</ele>
<time>2012-05-02T08:43:49Z</time>
<desc>lat.=42.452961, lon.=18.534077, Alt.=75.627991m. Speed=0.036000m/h.</desc>
<speed>0.010000</speed>
</trkpt>
<trkpt lat="42.452961" lon="18.534077">
<ele>75.592834</ele>
<time>2012-05-02T08:43:54Z</time>
<desc>lat.=42.452961, lon.=18.534077, Alt.=75.592834m. Speed=0.036000m/h.</desc>
<speed>0.010000</speed>
</trkpt>
<trkpt lat="42.452961" lon="18.534077">
<ele>75.569397</ele>
<time>2012-05-02T08:43:59Z</time>
<desc>lat.=42.452961, lon.=18.534077, Alt.=75.569397m. Speed=0.036000m/h.</desc>
<speed>0.010000</speed>
</trkpt>
<trkpt lat="42.452965" lon="18.534079">
<ele>75.557678</ele>
<time>2012-05-02T08:44:04Z</time>
<desc>lat.=42.452965, lon.=18.534079, Alt.=75.557678m. Speed=0.000000m/h.</desc>
<speed>0.000000</speed>
</trkpt>
<trkpt lat="42.452965" lon="18.534079">
<ele>75.538147</ele>
<time>2012-05-02T08:44:09Z</time>
<desc>lat.=42.452965, lon.=18.534079, Alt.=75.538147m. Speed=0.000000m/h.</desc>
<speed>0.000000</speed>
</trkpt>
<trkpt lat="42.452965" lon="18.534079">
<ele>75.534241</ele>
<time>2012-05-02T08:44:14Z</time>
<desc>lat.=42.452965, lon.=18.534079, Alt.=75.534241m. Speed=0.036000m/h.</desc>
<speed>0.010000</speed>
</trkpt>
<trkpt lat="42.452965" lon="18.534079">
<ele>75.530334</ele>
<time>2012-05-02T08:44:19Z</time>
<desc>lat.=42.452965, lon.=18.534079, Alt.=75.530334m. Speed=0.000000m/h.</desc>
<speed>0.000000</speed>
</trkpt>
<trkpt lat="42.452965" lon="18.534079">
<ele>75.524475</ele>
<time>2012-05-02T08:44:24Z</time>
<desc>lat.=42.452965, lon.=18.534079, Alt.=75.524475m. Speed=0.000000m/h.</desc>
<speed>0.000000</speed>
</trkpt>
<trkpt lat="42.452965" lon="18.534079">
<ele>75.501038</ele>
<time>2012-05-02T08:44:29Z</time>
<desc>lat.=42.452965, lon.=18.534079, Alt.=75.501038m. Speed=0.036000m/h.</desc>
<speed>0.010000</speed>
</trkpt>
<trkpt lat="42.452965" lon="18.534079">
<ele>75.461975</ele>
<time>2012-05-02T08:44:34Z</time>
<desc>lat.=42.452965, lon.=18.534079, Alt.=75.461975m. Speed=0.072000m/h.</desc>
<speed>0.020000</speed>
</trkpt>
<trkpt lat="42.452965" lon="18.534079">
<ele>75.432678</ele>
<time>2012-05-02T08:44:39Z</time>
<desc>lat.=42.452965, lon.=18.534079, Alt.=75.432678m. Speed=0.072000m/h.</desc>
<speed>0.020000</speed>
</trkpt>
<trkpt lat="42.452965" lon="18.534079">
<ele>75.424866</ele>
<time>2012-05-02T08:44:44Z</time>
<desc>lat.=42.452965, lon.=18.534079, Alt.=75.424866m. Speed=0.000000m/h.</desc>
<speed>0.000000</speed>
</trkpt>
<trkpt lat="42.452965" lon="18.534079">
<ele>75.422913</ele>
<time>2012-05-02T08:44:49Z</time>
<desc>lat.=42.452965, lon.=18.534079, Alt.=75.422913m. Speed=0.036000m/h.</desc>
<speed>0.010000</speed>
</trkpt>
<trkpt lat="42.452965" lon="18.534079">
<ele>75.436584</ele>
<time>2012-05-02T08:44:54Z</time>
<desc>lat.=42.452965, lon.=18.534079, Alt.=75.436584m. Speed=0.144000m/h.</desc>
<speed>0.040000</speed>
</trkpt>
<trkpt lat="42.452969" lon="18.534079">
<ele>75.479553</ele>
<time>2012-05-02T08:44:59Z</time>
<desc>lat.=42.452969, lon.=18.534079, Alt.=75.479553m. Speed=0.108000m/h.</desc>
<speed>0.030000</speed>
</trkpt>
<trkpt lat="42.452969" lon="18.534079">
<ele>75.516663</ele>
<time>2012-05-02T08:45:04Z</time>
<desc>lat.=42.452969, lon.=18.534079, Alt.=75.516663m. Speed=0.108000m/h.</desc>
<speed>0.030000</speed>
</trkpt>
<trkpt lat="42.452969" lon="18.534079">
<ele>75.563538</ele>
<time>2012-05-02T08:45:09Z</time>
<desc>lat.=42.452969, lon.=18.534079, Alt.=75.563538m. Speed=0.036000m/h.</desc>
<speed>0.010000</speed>
</trkpt>
<trkpt lat="42.452969" lon="18.534079">
<ele>75.606506</ele>
<time>2012-05-02T08:45:14Z</time>
<desc>lat.=42.452969, lon.=18.534079, Alt.=75.606506m. Speed=0.036000m/h.</desc>
<speed>0.010000</speed>
</trkpt>
<trkpt lat="42.452969" lon="18.534079">
<ele>75.637756</ele>
<time>2012-05-02T08:45:19Z</time>
<desc>lat.=42.452969, lon.=18.534079, Alt.=75.637756m. Speed=0.036000m/h.</desc>
<speed>0.010000</speed>
</trkpt>
<trkpt lat="42.452969" lon="18.534079">
<ele>75.663147</ele>
<time>2012-05-02T08:45:24Z</time>
<desc>lat.=42.452969, lon.=18.534079, Alt.=75.663147m. Speed=0.036000m/h.</desc>
<speed>0.010000</speed>
</trkpt>
<trkpt lat="42.452969" lon="18.534079">
<ele>75.665100</ele>
<time>2012-05-02T08:45:29Z</time>
<desc>lat.=42.452969, lon.=18.534079, Alt.=75.665100m. Speed=0.000000m/h.</desc>
<speed>0.000000</speed>
</trkpt>
<trkpt lat="42.452969" lon="18.534079">
<ele>75.661194</ele>
<time>2012-05-02T08:45:34Z</time>
<desc>lat.=42.452969, lon.=18.534079, Alt.=75.661194m. Speed=0.072000m/h.</desc>
<speed>0.020000</speed>
</trkpt>
<trkpt lat="42.452969" lon="18.534081">
<ele>75.655334</ele>
<time>2012-05-02T08:45:39Z</time>
<desc>lat.=42.452969, lon.=18.534081, Alt.=75.655334m. Speed=0.108000m/h.</desc>
<speed>0.030000</speed>
</trkpt>
<trkpt lat="42.452969" lon="18.534081">
<ele>75.641663</ele>
<time>2012-05-02T08:45:44Z</time>
<desc>lat.=42.452969, lon.=18.534081, Alt.=75.641663m. Speed=0.000000m/h.</desc>
<speed>0.000000</speed>
</trkpt>
<trkpt lat="42.452969" lon="18.534081">
<ele>75.629944</ele>
<time>2012-05-02T08:45:49Z</time>
<desc>lat.=42.452969, lon.=18.534081, Alt.=75.629944m. Speed=0.000000m/h.</desc>
<speed>0.000000</speed>
</trkpt>
<trkpt lat="42.452969" lon="18.534081">
<ele>75.626038</ele>
<time>2012-05-02T08:45:54Z</time>
<desc>lat.=42.452969, lon.=18.534081, Alt.=75.626038m. Speed=0.000000m/h.</desc>
<speed>0.000000</speed>
</trkpt>
<trkpt lat="42.452969" lon="18.534081">
<ele>75.645569</ele>
<time>2012-05-02T08:45:59Z</time>
<desc>lat.=42.452969, lon.=18.534081, Alt.=75.645569m. Speed=0.072000m/h.</desc>
<speed>0.020000</speed>
</trkpt>
<trkpt lat="42.452969" lon="18.534079">
<ele>75.672913</ele>
<time>2012-05-02T08:46:04Z</time>
<desc>lat.=42.452969, lon.=18.534079, Alt.=75.672913m. Speed=0.000000m/h.</desc>
<speed>0.000000</speed>
</trkpt>
<trkpt lat="42.452969" lon="18.534079">
<ele>75.717834</ele>
<time>2012-05-02T08:46:09Z</time>
<desc>lat.=42.452969, lon.=18.534079, Alt.=75.717834m. Speed=0.000000m/h.</desc>
<speed>0.000000</speed>
</trkpt>
<trkpt lat="42.452969" lon="18.534079">
<ele>75.704163</ele>
<time>2012-05-02T08:46:14Z</time>
<desc>lat.=42.452969, lon.=18.534079, Alt.=75.704163m. Speed=0.036000m/h.</desc>
<speed>0.010000</speed>
</trkpt>
<trkpt lat="42.452969" lon="18.534079">
<ele>75.708069</ele>
<time>2012-05-02T08:46:19Z</time>
<desc>lat.=42.452969, lon.=18.534079, Alt.=75.708069m. Speed=0.036000m/h.</desc>
<speed>0.010000</speed>
</trkpt>
<trkpt lat="42.452969" lon="18.534079">
<ele>75.717834</ele>
<time>2012-05-02T08:46:24Z</time>
<desc>lat.=42.452969, lon.=18.534079, Alt.=75.717834m. Speed=0.000000m/h.</desc>
<speed>0.000000</speed>
</trkpt>
<trkpt lat="42.452969" lon="18.534079">
<ele>75.723694</ele>
<time>2012-05-02T08:46:29Z</time>
<desc>lat.=42.452969, lon.=18.534079, Alt.=75.723694m. Speed=0.000000m/h.</desc>
<speed>0.000000</speed>
</trkpt>
<trkpt lat="42.452969" lon="18.534079">
<ele>75.713928</ele>
<time>2012-05-02T08:46:34Z</time>
<desc>lat.=42.452969, lon.=18.534079, Alt.=75.713928m. Speed=0.000000m/h.</desc>
<speed>0.000000</speed>
</trkpt>
<trkpt lat="42.452972" lon="18.534079">
<ele>75.694397</ele>
<time>2012-05-02T08:46:39Z</time>
<desc>lat.=42.452972, lon.=18.534079, Alt.=75.694397m. Speed=0.036000m/h.</desc>
<speed>0.010000</speed>
</trkpt>
<trkpt lat="42.452972" lon="18.534079">
<ele>75.690491</ele>
<time>2012-05-02T08:46:44Z</time>
<desc>lat.=42.452972, lon.=18.534079, Alt.=75.690491m. Speed=0.036000m/h.</desc>
<speed>0.010000</speed>
</trkpt>
<trkpt lat="42.452972" lon="18.534079">
<ele>75.684631</ele>
<time>2012-05-02T08:46:49Z</time>
<desc>lat.=42.452972, lon.=18.534079, Alt.=75.684631m. Speed=0.036000m/h.</desc>
<speed>0.010000</speed>
</trkpt>
<trkpt lat="42.452972" lon="18.534079">
<ele>75.674866</ele>
<time>2012-05-02T08:46:54Z</time>
<desc>lat.=42.452972, lon.=18.534079, Alt.=75.674866m. Speed=0.036000m/h.</desc>
<speed>0.010000</speed>
</trkpt>
<trkpt lat="42.452972" lon="18.534079">
<ele>75.659241</ele>
<time>2012-05-02T08:46:59Z</time>
<desc>lat.=42.452972, lon.=18.534079, Alt.=75.659241m. Speed=0.036000m/h.</desc>
<speed>0.010000</speed>
</trkpt>
<trkpt lat="42.452972" lon="18.534079">
<ele>75.639709</ele>
<time>2012-05-02T08:47:04Z</time>
<desc>lat.=42.452972, lon.=18.534079, Alt.=75.639709m. Speed=0.036000m/h.</desc>
<speed>0.010000</speed>
</trkpt>
<trkpt lat="42.452972" lon="18.534079">
<ele>75.612366</ele>
<time>2012-05-02T08:47:09Z</time>
<desc>lat.=42.452972, lon.=18.534079, Alt.=75.612366m. Speed=0.144000m/h.</desc>
<speed>0.040000</speed>
</trkpt>
<trkpt lat="42.452972" lon="18.534079">
<ele>75.588928</ele>
<time>2012-05-02T08:47:14Z</time>
<desc>lat.=42.452972, lon.=18.534079, Alt.=75.588928m. Speed=0.036000m/h.</desc>
<speed>0.010000</speed>
</trkpt>
<trkpt lat="42.452972" lon="18.534079">
<ele>75.567444</ele>
<time>2012-05-02T08:47:19Z</time>
<desc>lat.=42.452972, lon.=18.534079, Alt.=75.567444m. Speed=0.072000m/h.</desc>
<speed>0.020000</speed>
</trkpt>
<trkpt lat="42.452976" lon="18.534079">
<ele>75.534241</ele>
<time>2012-05-02T08:47:24Z</time>
<desc>lat.=42.452976, lon.=18.534079, Alt.=75.534241m. Speed=0.108000m/h.</desc>
<speed>0.030000</speed>
</trkpt>
<trkpt lat="42.452976" lon="18.534079">
<ele>75.518616</ele>
<time>2012-05-02T08:47:29Z</time>
<desc>lat.=42.452976, lon.=18.534079, Alt.=75.518616m. Speed=0.144000m/h.</desc>
<speed>0.040000</speed>
</trkpt>
<trkpt lat="42.452976" lon="18.534079">
<ele>75.520569</ele>
<time>2012-05-02T08:47:34Z</time>
<desc>lat.=42.452976, lon.=18.534079, Alt.=75.520569m. Speed=0.072000m/h.</desc>
<speed>0.020000</speed>
</trkpt>
<trkpt lat="42.452976" lon="18.534081">
<ele>75.518616</ele>
<time>2012-05-02T08:47:39Z</time>
<desc>lat.=42.452976, lon.=18.534081, Alt.=75.518616m. Speed=0.108000m/h.</desc>
<speed>0.030000</speed>
</trkpt>
<trkpt lat="42.452976" lon="18.534081">
<ele>75.544006</ele>
<time>2012-05-02T08:47:44Z</time>
<desc>lat.=42.452976, lon.=18.534081, Alt.=75.544006m. Speed=0.000000m/h.</desc>
<speed>0.000000</speed>
</trkpt>
<trkpt lat="42.452976" lon="18.534079">
<ele>75.608459</ele>
<time>2012-05-02T08:47:49Z</time>
<desc>lat.=42.452976, lon.=18.534079, Alt.=75.608459m. Speed=0.036000m/h.</desc>
<speed>0.010000</speed>
</trkpt>
<trkpt lat="42.452976" lon="18.534079">
<ele>75.631897</ele>
<time>2012-05-02T08:47:54Z</time>
<desc>lat.=42.452976, lon.=18.534079, Alt.=75.631897m. Speed=0.036000m/h.</desc>
<speed>0.010000</speed>
</trkpt>
<trkpt lat="42.452980" lon="18.534079">
<ele>75.633850</ele>
<time>2012-05-02T08:47:59Z</time>
<desc>lat.=42.452980, lon.=18.534079, Alt.=75.633850m. Speed=0.036000m/h.</desc>
<speed>0.010000</speed>
</trkpt>
<trkpt lat="42.452980" lon="18.534079">
<ele>75.661194</ele>
<time>2012-05-02T08:48:04Z</time>
<desc>lat.=42.452980, lon.=18.534079, Alt.=75.661194m. Speed=0.072000m/h.</desc>
<speed>0.020000</speed>
</trkpt>
<trkpt lat="42.452980" lon="18.534081">
<ele>75.655334</ele>
<time>2012-05-02T08:48:09Z</time>
<desc>lat.=42.452980, lon.=18.534081, Alt.=75.655334m. Speed=0.072000m/h.</desc>
<speed>0.020000</speed>
</trkpt>
<trkpt lat="42.452980" lon="18.534081">
<ele>75.637756</ele>
<time>2012-05-02T08:48:14Z</time>
<desc>lat.=42.452980, lon.=18.534081, Alt.=75.637756m. Speed=0.036000m/h.</desc>
<speed>0.010000</speed>
</trkpt>
<trkpt lat="42.452980" lon="18.534081">
<ele>75.629944</ele>
<time>2012-05-02T08:48:19Z</time>
<desc>lat.=42.452980, lon.=18.534081, Alt.=75.629944m. Speed=0.000000m/h.</desc>
<speed>0.000000</speed>
</trkpt>
<trkpt lat="42.452980" lon="18.534081">
<ele>75.633850</ele>
<time>2012-05-02T08:48:24Z</time>
<desc>lat.=42.452980, lon.=18.534081, Alt.=75.633850m. Speed=0.036000m/h.</desc>
<speed>0.010000</speed>
</trkpt>
<trkpt lat="42.452980" lon="18.534081">
<ele>75.627991</ele>
<time>2012-05-02T08:48:29Z</time>
<desc>lat.=42.452980, lon.=18.534081, Alt.=75.627991m. Speed=0.000000m/h.</desc>
<speed>0.000000</speed>
</trkpt>
<trkpt lat="42.452980" lon="18.534081">
<ele>75.604553</ele>
<time>2012-05-02T08:48:34Z</time>
<desc>lat.=42.452980, lon.=18.534081, Alt.=75.604553m. Speed=0.036000m/h.</desc>
<speed>0.010000</speed>
</trkpt>
<trkpt lat="42.452984" lon="18.534081">
<ele>75.567444</ele>
<time>2012-05-02T08:48:39Z</time>
<desc>lat.=42.452984, lon.=18.534081, Alt.=75.567444m. Speed=0.036000m/h.</desc>
<speed>0.010000</speed>
</trkpt>
<trkpt lat="42.452984" lon="18.534081">
<ele>75.561584</ele>
<time>2012-05-02T08:48:44Z</time>
<desc>lat.=42.452984, lon.=18.534081, Alt.=75.561584m. Speed=0.036000m/h.</desc>
<speed>0.010000</speed>
</trkpt>
<trkpt lat="42.452984" lon="18.534081">
<ele>75.579163</ele>
<time>2012-05-02T08:48:49Z</time>
<desc>lat.=42.452984, lon.=18.534081, Alt.=75.579163m. Speed=0.036000m/h.</desc>
<speed>0.010000</speed>
</trkpt>
<trkpt lat="42.452984" lon="18.534081">
<ele>75.571350</ele>
<time>2012-05-02T08:48:54Z</time>
<desc>lat.=42.452984, lon.=18.534081, Alt.=75.571350m. Speed=0.036000m/h.</desc>
<speed>0.010000</speed>
</trkpt>
<trkpt lat="42.452984" lon="18.534081">
<ele>75.549866</ele>
<time>2012-05-02T08:48:59Z</time>
<desc>lat.=42.452984, lon.=18.534081, Alt.=75.549866m. Speed=0.108000m/h.</desc>
<speed>0.030000</speed>
</trkpt>
<trkpt lat="42.452984" lon="18.534084">
<ele>75.514709</ele>
<time>2012-05-02T08:49:04Z</time>
<desc>lat.=42.452984, lon.=18.534084, Alt.=75.514709m. Speed=0.324000m/h.</desc>
<speed>0.090000</speed>
</trkpt>
<trkpt lat="42.452984" lon="18.534094">
<ele>75.442444</ele>
<time>2012-05-02T08:49:09Z</time>
<desc>lat.=42.452984, lon.=18.534094, Alt.=75.442444m. Speed=0.864000m/h.</desc>
<speed>0.240000</speed>
</trkpt>
<trkpt lat="42.452984" lon="18.534132">
<ele>75.129944</ele>
<time>2012-05-02T08:49:14Z</time>
<desc>lat.=42.452984, lon.=18.534132, Alt.=75.129944m. Speed=1.152000m/h.</desc>
<speed>0.320000</speed>
</trkpt>
<trkpt lat="42.452965" lon="18.534170">
<ele>74.698303</ele>
<time>2012-05-02T08:49:19Z</time>
<desc>lat.=42.452965, lon.=18.534170, Alt.=74.698303m. Speed=1.116000m/h.</desc>
<speed>0.310000</speed>
</trkpt>
<trkpt lat="42.452969" lon="18.534206">
<ele>74.342834</ele>
<time>2012-05-02T08:49:24Z</time>
<desc>lat.=42.452969, lon.=18.534206, Alt.=74.342834m. Speed=0.900000m/h.</desc>
<speed>0.250000</speed>
</trkpt>
<trkpt lat="42.452965" lon="18.534222">
<ele>74.127991</ele>
<time>2012-05-02T08:49:29Z</time>
<desc>lat.=42.452965, lon.=18.534222, Alt.=74.127991m. Speed=0.432000m/h.</desc>
<speed>0.120000</speed>
</trkpt>
<trkpt lat="42.452961" lon="18.534225">
<ele>74.020569</ele>
<time>2012-05-02T08:49:34Z</time>
<desc>lat.=42.452961, lon.=18.534225, Alt.=74.020569m. Speed=0.216000m/h.</desc>
<speed>0.060000</speed>
</trkpt>
<trkpt lat="42.452957" lon="18.534225">
<ele>73.936584</ele>
<time>2012-05-02T08:49:39Z</time>
<desc>lat.=42.452957, lon.=18.534225, Alt.=73.936584m. Speed=0.324000m/h.</desc>
<speed>0.090000</speed>
</trkpt>
<trkpt lat="42.452953" lon="18.534225">
<ele>73.868225</ele>
<time>2012-05-02T08:49:44Z</time>
<desc>lat.=42.452953, lon.=18.534225, Alt.=73.868225m. Speed=0.324000m/h.</desc>
<speed>0.090000</speed>
</trkpt>
<trkpt lat="42.452953" lon="18.534222">
<ele>73.840881</ele>
<time>2012-05-02T08:49:49Z</time>
<desc>lat.=42.452953, lon.=18.534222, Alt.=73.840881m. Speed=0.252000m/h.</desc>
<speed>0.070000</speed>
</trkpt>
<trkpt lat="42.452946" lon="18.534216">
<ele>73.844788</ele>
<time>2012-05-02T08:49:54Z</time>
<desc>lat.=42.452946, lon.=18.534216, Alt.=73.844788m. Speed=0.612000m/h.</desc>
<speed>0.170000</speed>
</trkpt>
<trkpt lat="42.452946" lon="18.534208">
<ele>73.874084</ele>
<time>2012-05-02T08:49:59Z</time>
<desc>lat.=42.452946, lon.=18.534208, Alt.=73.874084m. Speed=0.432000m/h.</desc>
<speed>0.120000</speed>
</trkpt>
<trkpt lat="42.452938" lon="18.534203">
<ele>73.915100</ele>
<time>2012-05-02T08:50:04Z</time>
<desc>lat.=42.452938, lon.=18.534203, Alt.=73.915100m. Speed=0.720000m/h.</desc>
<speed>0.200000</speed>
</trkpt>
<trkpt lat="42.452934" lon="18.534193">
<ele>73.969788</ele>
<time>2012-05-02T08:50:09Z</time>
<desc>lat.=42.452934, lon.=18.534193, Alt.=73.969788m. Speed=0.324000m/h.</desc>
<speed>0.090000</speed>
</trkpt>
<trkpt lat="42.452934" lon="18.534191">
<ele>74.071350</ele>
<time>2012-05-02T08:50:14Z</time>
<desc>lat.=42.452934, lon.=18.534191, Alt.=74.071350m. Speed=0.144000m/h.</desc>
<speed>0.040000</speed>
</trkpt>
<trkpt lat="42.452938" lon="18.534187">
<ele>74.217834</ele>
<time>2012-05-02T08:50:19Z</time>
<desc>lat.=42.452938, lon.=18.534187, Alt.=74.217834m. Speed=0.180000m/h.</desc>
<speed>0.050000</speed>
</trkpt>
<trkpt lat="42.452938" lon="18.534185">
<ele>74.450256</ele>
<time>2012-05-02T08:50:24Z</time>
<desc>lat.=42.452938, lon.=18.534185, Alt.=74.450256m. Speed=0.144000m/h.</desc>
<speed>0.040000</speed>
</trkpt>
<trkpt lat="42.452938" lon="18.534185">
<ele>74.428772</ele>
<time>2012-05-02T08:50:29Z</time>
<desc>lat.=42.452938, lon.=18.534185, Alt.=74.428772m. Speed=0.072000m/h.</desc>
<speed>0.020000</speed>
</trkpt>
<trkpt lat="42.452938" lon="18.534185">
<ele>74.391663</ele>
<time>2012-05-02T08:50:34Z</time>
<desc>lat.=42.452938, lon.=18.534185, Alt.=74.391663m. Speed=0.468000m/h.</desc>
<speed>0.130000</speed>
</trkpt>
<trkpt lat="42.452938" lon="18.534164">
<ele>75.006897</ele>
<time>2012-05-02T08:50:39Z</time>
<desc>lat.=42.452938, lon.=18.534164, Alt.=75.006897m. Speed=1.368000m/h.</desc>
<speed>0.380000</speed>
</trkpt>
<trkpt lat="42.452923" lon="18.534121">
<ele>78.249084</ele>
<time>2012-05-02T08:50:44Z</time>
<desc>lat.=42.452923, lon.=18.534121, Alt.=78.249084m. Speed=0.360000m/h.</desc>
<speed>0.100000</speed>
</trkpt>
<trkpt lat="42.452923" lon="18.534140">
<ele>77.963928</ele>
<time>2012-05-02T08:50:49Z</time>
<desc>lat.=42.452923, lon.=18.534140, Alt.=77.963928m. Speed=2.664000m/h.</desc>
<speed>0.740000</speed>
</trkpt>
<trkpt lat="42.452908" lon="18.534229">
<ele>77.961975</ele>
<time>2012-05-02T08:50:54Z</time>
<desc>lat.=42.452908, lon.=18.534229, Alt.=77.961975m. Speed=6.192000m/h.</desc>
<speed>1.720000</speed>
</trkpt>
<trkpt lat="42.452885" lon="18.534328">
<ele>77.370178</ele>
<time>2012-05-02T08:50:59Z</time>
<desc>lat.=42.452885, lon.=18.534328, Alt.=77.370178m. Speed=4.140000m/h.</desc>
<speed>1.150000</speed>
</trkpt>
<trkpt lat="42.452888" lon="18.534430">
<ele>77.670959</ele>
<time>2012-05-02T08:51:04Z</time>
<desc>lat.=42.452888, lon.=18.534430, Alt.=77.670959m. Speed=3.996000m/h.</desc>
<speed>1.110000</speed>
</trkpt>
<trkpt lat="42.453003" lon="18.534491">
<ele>78.176819</ele>
<time>2012-05-02T08:51:09Z</time>
<desc>lat.=42.453003, lon.=18.534491, Alt.=78.176819m. Speed=13.428000m/h.</desc>
<speed>3.730000</speed>
</trkpt>
<trkpt lat="42.453102" lon="18.534595">
<ele>78.713928</ele>
<time>2012-05-02T08:51:14Z</time>
<desc>lat.=42.453102, lon.=18.534595, Alt.=78.713928m. Speed=3.168000m/h.</desc>
<speed>0.880000</speed>
</trkpt>
<trkpt lat="42.453152" lon="18.534647">
<ele>78.729553</ele>
<time>2012-05-02T08:51:19Z</time>
<desc>lat.=42.453152, lon.=18.534647, Alt.=78.729553m. Speed=11.016000m/h.</desc>
<speed>3.060000</speed>
</trkpt>
<trkpt lat="42.453186" lon="18.534842">
<ele>78.499084</ele>
<time>2012-05-02T08:51:24Z</time>
<desc>lat.=42.453186, lon.=18.534842, Alt.=78.499084m. Speed=11.196000m/h.</desc>
<speed>3.110000</speed>
</trkpt>
<trkpt lat="42.453205" lon="18.534918">
<ele>78.372131</ele>
<time>2012-05-02T08:51:29Z</time>
<desc>lat.=42.453205, lon.=18.534918, Alt.=78.372131m. Speed=0.252000m/h.</desc>
<speed>0.070000</speed>
</trkpt>
<trkpt lat="42.453209" lon="18.534918">
<ele>78.340881</ele>
<time>2012-05-02T08:51:34Z</time>
<desc>lat.=42.453209, lon.=18.534918, Alt.=78.340881m. Speed=0.792000m/h.</desc>
<speed>0.220000</speed>
</trkpt>
<trkpt lat="42.453213" lon="18.534927">
<ele>78.420959</ele>
<time>2012-05-02T08:51:39Z</time>
<desc>lat.=42.453213, lon.=18.534927, Alt.=78.420959m. Speed=1.728000m/h.</desc>
<speed>0.480000</speed>
</trkpt>
<trkpt lat="42.453220" lon="18.534727">
<ele>77.573303</ele>
<time>2012-05-02T08:51:44Z</time>
<desc>lat.=42.453220, lon.=18.534727, Alt.=77.573303m. Speed=15.048000m/h.</desc>
<speed>4.180000</speed>
</trkpt>
<trkpt lat="42.453152" lon="18.534512">
<ele>76.335022</ele>
<time>2012-05-02T08:51:49Z</time>
<desc>lat.=42.453152, lon.=18.534512, Alt.=76.335022m. Speed=16.344000m/h.</desc>
<speed>4.540000</speed>
</trkpt>
<trkpt lat="42.452927" lon="18.534437">
<ele>75.229553</ele>
<time>2012-05-02T08:51:54Z</time>
<desc>lat.=42.452927, lon.=18.534437, Alt.=75.229553m. Speed=18.108000m/h.</desc>
<speed>5.030000</speed>
</trkpt>
<trkpt lat="42.452702" lon="18.534643">
<ele>71.448303</ele>
<time>2012-05-02T08:51:59Z</time>
<desc>lat.=42.452702, lon.=18.534643, Alt.=71.448303m. Speed=15.768000m/h.</desc>
<speed>4.380000</speed>
</trkpt>
<trkpt lat="42.452724" lon="18.534874">
<ele>69.323303</ele>
<time>2012-05-02T08:52:04Z</time>
<desc>lat.=42.452724, lon.=18.534874, Alt.=69.323303m. Speed=11.808000m/h.</desc>
<speed>3.280000</speed>
</trkpt>
<trkpt lat="42.452721" lon="18.535046">
<ele>67.788147</ele>
<time>2012-05-02T08:52:09Z</time>
<desc>lat.=42.452721, lon.=18.535046, Alt.=67.788147m. Speed=3.780000m/h.</desc>
<speed>1.050000</speed>
</trkpt>
<trkpt lat="42.452713" lon="18.535069">
<ele>67.598694</ele>
<time>2012-05-02T08:52:14Z</time>
<desc>lat.=42.452713, lon.=18.535069, Alt.=67.598694m. Speed=0.504000m/h.</desc>
<speed>0.140000</speed>
</trkpt>
<trkpt lat="42.452702" lon="18.535049">
<ele>67.739319</ele>
<time>2012-05-02T08:52:19Z</time>
<desc>lat.=42.452702, lon.=18.535049, Alt.=67.739319m. Speed=1.404000m/h.</desc>
<speed>0.390000</speed>
</trkpt>
<trkpt lat="42.452686" lon="18.534975">
<ele>68.040100</ele>
<time>2012-05-02T08:52:24Z</time>
<desc>lat.=42.452686, lon.=18.534975, Alt.=68.040100m. Speed=8.820000m/h.</desc>
<speed>2.450000</speed>
</trkpt>
<trkpt lat="42.452675" lon="18.534746">
<ele>67.807678</ele>
<time>2012-05-02T08:52:29Z</time>
<desc>lat.=42.452675, lon.=18.534746, Alt.=67.807678m. Speed=10.980000m/h.</desc>
<speed>3.050000</speed>
</trkpt>
<trkpt lat="42.452770" lon="18.534601">
<ele>69.297913</ele>
<time>2012-05-02T08:52:34Z</time>
<desc>lat.=42.452770, lon.=18.534601, Alt.=69.297913m. Speed=8.640000m/h.</desc>
<speed>2.400000</speed>
</trkpt>
<trkpt lat="42.452843" lon="18.534521">
<ele>71.532288</ele>
<time>2012-05-02T08:52:39Z</time>
<desc>lat.=42.452843, lon.=18.534521, Alt.=71.532288m. Speed=6.696000m/h.</desc>
<speed>1.860000</speed>
</trkpt>
<trkpt lat="42.452881" lon="18.534504">
<ele>73.174866</ele>
<time>2012-05-02T08:52:44Z</time>
<desc>lat.=42.452881, lon.=18.534504, Alt.=73.174866m. Speed=2.088000m/h.</desc>
<speed>0.580000</speed>
</trkpt>
<trkpt lat="42.452915" lon="18.534470">
<ele>74.723694</ele>
<time>2012-05-02T08:52:49Z</time>
<desc>lat.=42.452915, lon.=18.534470, Alt.=74.723694m. Speed=2.952000m/h.</desc>
<speed>0.820000</speed>
</trkpt>
<trkpt lat="42.452923" lon="18.534399">
<ele>76.424866</ele>
<time>2012-05-02T08:52:54Z</time>
<desc>lat.=42.452923, lon.=18.534399, Alt.=76.424866m. Speed=3.132000m/h.</desc>
<speed>0.870000</speed>
</trkpt>
<trkpt lat="42.452942" lon="18.534304">
<ele>76.018616</ele>
<time>2012-05-02T08:52:59Z</time>
<desc>lat.=42.452942, lon.=18.534304, Alt.=76.018616m. Speed=4.464000m/h.</desc>
<speed>1.240000</speed>
</trkpt>
<trkpt lat="42.452953" lon="18.534208">
<ele>76.235413</ele>
<time>2012-05-02T08:53:04Z</time>
<desc>lat.=42.452953, lon.=18.534208, Alt.=76.235413m. Speed=5.112000m/h.</desc>
<speed>1.420000</speed>
</trkpt>
<trkpt lat="42.452969" lon="18.534142">
<ele>76.809631</ele>
<time>2012-05-02T08:53:09Z</time>
<desc>lat.=42.452969, lon.=18.534142, Alt.=76.809631m. Speed=3.960000m/h.</desc>
<speed>1.100000</speed>
</trkpt>
<trkpt lat="42.452984" lon="18.534025">
<ele>75.760803</ele>
<time>2012-05-02T08:53:14Z</time>
<desc>lat.=42.452984, lon.=18.534025, Alt.=75.760803m. Speed=4.248000m/h.</desc>
<speed>1.180000</speed>
</trkpt>
<trkpt lat="42.453037" lon="18.534040">
<ele>75.848694</ele>
<time>2012-05-02T08:53:19Z</time>
<desc>lat.=42.453037, lon.=18.534040, Alt.=75.848694m. Speed=1.764000m/h.</desc>
<speed>0.490000</speed>
</trkpt>
<trkpt lat="42.453068" lon="18.534046">
<ele>76.196350</ele>
<time>2012-05-02T08:53:24Z</time>
<desc>lat.=42.453068, lon.=18.534046, Alt.=76.196350m. Speed=3.024000m/h.</desc>
<speed>0.840000</speed>
</trkpt>
<trkpt lat="42.453053" lon="18.534012">
<ele>77.885803</ele>
<time>2012-05-02T08:53:29Z</time>
<desc>lat.=42.453053, lon.=18.534012, Alt.=77.885803m. Speed=0.396000m/h.</desc>
<speed>0.110000</speed>
</trkpt>
<trkpt lat="42.453049" lon="18.534021">
<ele>78.106506</ele>
<time>2012-05-02T08:53:34Z</time>
<desc>lat.=42.453049, lon.=18.534021, Alt.=78.106506m. Speed=0.468000m/h.</desc>
<speed>0.130000</speed>
</trkpt>
<trkpt lat="42.453056" lon="18.534018">
<ele>78.249084</ele>
<time>2012-05-02T08:53:39Z</time>
<desc>lat.=42.453056, lon.=18.534018, Alt.=78.249084m. Speed=0.108000m/h.</desc>
<speed>0.030000</speed>
</trkpt>
<trkpt lat="42.453045" lon="18.534012">
<ele>78.567444</ele>
<time>2012-05-02T08:53:44Z</time>
<desc>lat.=42.453045, lon.=18.534012, Alt.=78.567444m. Speed=0.936000m/h.</desc>
<speed>0.260000</speed>
</trkpt>
<trkpt lat="42.452995" lon="18.534008">
<ele>78.870178</ele>
<time>2012-05-02T08:53:49Z</time>
<desc>lat.=42.452995, lon.=18.534008, Alt.=78.870178m. Speed=4.392000m/h.</desc>
<speed>1.220000</speed>
</trkpt>
<trkpt lat="42.452946" lon="18.534058">
<ele>78.786194</ele>
<time>2012-05-02T08:53:54Z</time>
<desc>lat.=42.452946, lon.=18.534058, Alt.=78.786194m. Speed=5.832000m/h.</desc>
<speed>1.620000</speed>
</trkpt>
<trkpt lat="42.452923" lon="18.534168">
<ele>77.745178</ele>
<time>2012-05-02T08:53:59Z</time>
<desc>lat.=42.452923, lon.=18.534168, Alt.=77.745178m. Speed=7.092000m/h.</desc>
<speed>1.970000</speed>
</trkpt>
<trkpt lat="42.452881" lon="18.534285">
<ele>76.385803</ele>
<time>2012-05-02T08:54:04Z</time>
<desc>lat.=42.452881, lon.=18.534285, Alt.=76.385803m. Speed=7.488000m/h.</desc>
<speed>2.080000</speed>
</trkpt>
<trkpt lat="42.452873" lon="18.534374">
<ele>74.987366</ele>
<time>2012-05-02T08:54:09Z</time>
<desc>lat.=42.452873, lon.=18.534374, Alt.=74.987366m. Speed=0.720000m/h.</desc>
<speed>0.200000</speed>
</trkpt>
<trkpt lat="42.452892" lon="18.534391">
<ele>75.249084</ele>
<time>2012-05-02T08:54:14Z</time>
<desc>lat.=42.452892, lon.=18.534391, Alt.=75.249084m. Speed=0.144000m/h.</desc>
<speed>0.040000</speed>
</trkpt>
<trkpt lat="42.452892" lon="18.534391">
<ele>75.243225</ele>
<time>2012-05-02T08:54:19Z</time>
<desc>lat.=42.452892, lon.=18.534391, Alt.=75.243225m. Speed=0.288000m/h.</desc>
<speed>0.080000</speed>
</trkpt>
<trkpt lat="42.452892" lon="18.534391">
<ele>75.303772</ele>
<time>2012-05-02T08:54:24Z</time>
<desc>lat.=42.452892, lon.=18.534391, Alt.=75.303772m. Speed=0.072000m/h.</desc>
<speed>0.020000</speed>
</trkpt>
<trkpt lat="42.452892" lon="18.534391">
<ele>75.307678</ele>
<time>2012-05-02T08:54:29Z</time>
<desc>lat.=42.452892, lon.=18.534391, Alt.=75.307678m. Speed=0.000000m/h.</desc>
<speed>0.000000</speed>
</trkpt>
<trkpt lat="42.452888" lon="18.534391">
<ele>75.309631</ele>
<time>2012-05-02T08:54:34Z</time>
<desc>lat.=42.452888, lon.=18.534391, Alt.=75.309631m. Speed=0.036000m/h.</desc>
<speed>0.010000</speed>
</trkpt>
<trkpt lat="42.452888" lon="18.534391">
<ele>75.333069</ele>
<time>2012-05-02T08:54:39Z</time>
<desc>lat.=42.452888, lon.=18.534391, Alt.=75.333069m. Speed=0.072000m/h.</desc>
<speed>0.020000</speed>
</trkpt>
<trkpt lat="42.452888" lon="18.534391">
<ele>75.327209</ele>
<time>2012-05-02T08:54:44Z</time>
<desc>lat.=42.452888, lon.=18.534391, Alt.=75.327209m. Speed=0.000000m/h.</desc>
<speed>0.000000</speed>
</trkpt>
<trkpt lat="42.452888" lon="18.534391">
<ele>75.315491</ele>
<time>2012-05-02T08:54:49Z</time>
<desc>lat.=42.452888, lon.=18.534391, Alt.=75.315491m. Speed=0.000000m/h.</desc>
<speed>0.000000</speed>
</trkpt>
<trkpt lat="42.452888" lon="18.534391">
<ele>75.292053</ele>
<time>2012-05-02T08:54:54Z</time>
<desc>lat.=42.452888, lon.=18.534391, Alt.=75.292053m. Speed=0.000000m/h.</desc>
<speed>0.000000</speed>
</trkpt>
<trkpt lat="42.452888" lon="18.534391">
<ele>75.280334</ele>
<time>2012-05-02T08:54:59Z</time>
<desc>lat.=42.452888, lon.=18.534391, Alt.=75.280334m. Speed=0.000000m/h.</desc>
<speed>0.000000</speed>
</trkpt>
<trkpt lat="42.452888" lon="18.534391">
<ele>75.266663</ele>
<time>2012-05-02T08:55:04Z</time>
<desc>lat.=42.452888, lon.=18.534391, Alt.=75.266663m. Speed=0.000000m/h.</desc>
<speed>0.000000</speed>
</trkpt>
<trkpt lat="42.452888" lon="18.534391">
<ele>75.256897</ele>
<time>2012-05-02T08:55:09Z</time>
<desc>lat.=42.452888, lon.=18.534391, Alt.=75.256897m. Speed=0.000000m/h.</desc>
<speed>0.000000</speed>
</trkpt>
<trkpt lat="42.452885" lon="18.534388">
<ele>75.301819</ele>
<time>2012-05-02T08:55:14Z</time>
<desc>lat.=42.452885, lon.=18.534388, Alt.=75.301819m. Speed=0.000000m/h.</desc>
<speed>0.000000</speed>
</trkpt>
<trkpt lat="42.452881" lon="18.534378">
<ele>74.940491</ele>
<time>2012-05-02T08:55:19Z</time>
<desc>lat.=42.452881, lon.=18.534378, Alt.=74.940491m. Speed=0.000000m/h.</desc>
<speed>0.000000</speed>
</trkpt>
<trkpt lat="42.452877" lon="18.534370">
<ele>74.717834</ele>
<time>2012-05-02T08:55:24Z</time>
<desc>lat.=42.452877, lon.=18.534370, Alt.=74.717834m. Speed=0.036000m/h.</desc>
<speed>0.010000</speed>
</trkpt>
<trkpt lat="42.452869" lon="18.534376">
<ele>74.504944</ele>
<time>2012-05-02T08:55:29Z</time>
<desc>lat.=42.452869, lon.=18.534376, Alt.=74.504944m. Speed=0.180000m/h.</desc>
<speed>0.050000</speed>
</trkpt>
<trkpt lat="42.452797" lon="18.534437">
<ele>74.526428</ele>
<time>2012-05-02T08:55:34Z</time>
<desc>lat.=42.452797, lon.=18.534437, Alt.=74.526428m. Speed=15.336000m/h.</desc>
<speed>4.260000</speed>
</trkpt>
<trkpt lat="42.452644" lon="18.534662">
<ele>73.795959</ele>
<time>2012-05-02T08:55:39Z</time>
<desc>lat.=42.452644, lon.=18.534662, Alt.=73.795959m. Speed=18.972000m/h.</desc>
<speed>5.270000</speed>
</trkpt>
<trkpt lat="42.452709" lon="18.535017">
<ele>71.983459</ele>
<time>2012-05-02T08:55:44Z</time>
<desc>lat.=42.452709, lon.=18.535017, Alt.=71.983459m. Speed=20.052000m/h.</desc>
<speed>5.570000</speed>
</trkpt>
<trkpt lat="42.452633" lon="18.535461">
<ele>69.612366</ele>
<time>2012-05-02T08:55:49Z</time>
<desc>lat.=42.452633, lon.=18.535461, Alt.=69.612366m. Speed=27.792000m/h.</desc>
<speed>7.720000</speed>
</trkpt>
<trkpt lat="42.452457" lon="18.535843">
<ele>66.565491</ele>
<time>2012-05-02T08:55:54Z</time>
<desc>lat.=42.452457, lon.=18.535843, Alt.=66.565491m. Speed=22.608000m/h.</desc>
<speed>6.280000</speed>
</trkpt>
<trkpt lat="42.452343" lon="18.536068">
<ele>62.104034</ele>
<time>2012-05-02T08:55:59Z</time>
<desc>lat.=42.452343, lon.=18.536068, Alt.=62.104034m. Speed=14.544000m/h.</desc>
<speed>4.040000</speed>
</trkpt>
<trkpt lat="42.452255" lon="18.536282">
<ele>57.821808</ele>
<time>2012-05-02T08:56:04Z</time>
<desc>lat.=42.452255, lon.=18.536282, Alt.=57.821808m. Speed=15.876000m/h.</desc>
<speed>4.410000</speed>
</trkpt>
<trkpt lat="42.452206" lon="18.536472">
<ele>54.972198</ele>
<time>2012-05-02T08:56:09Z</time>
<desc>lat.=42.452206, lon.=18.536472, Alt.=54.972198m. Speed=9.864000m/h.</desc>
<speed>2.740000</speed>
</trkpt>
<trkpt lat="42.452137" lon="18.536533">
<ele>51.769073</ele>
<time>2012-05-02T08:56:14Z</time>
<desc>lat.=42.452137, lon.=18.536533, Alt.=51.769073m. Speed=3.528000m/h.</desc>
<speed>0.980000</speed>
</trkpt>
<trkpt lat="42.452034" lon="18.536537">
<ele>47.600128</ele>
<time>2012-05-02T08:56:19Z</time>
<desc>lat.=42.452034, lon.=18.536537, Alt.=47.600128m. Speed=3.708000m/h.</desc>
<speed>1.030000</speed>
</trkpt>
<trkpt lat="42.451958" lon="18.536455">
<ele>45.489777</ele>
<time>2012-05-02T08:56:24Z</time>
<desc>lat.=42.451958, lon.=18.536455, Alt.=45.489777m. Speed=9.180000m/h.</desc>
<speed>2.550000</speed>
</trkpt>
<trkpt lat="42.451908" lon="18.536352">
<ele>44.673370</ele>
<time>2012-05-02T08:56:29Z</time>
<desc>lat.=42.451908, lon.=18.536352, Alt.=44.673370m. Speed=7.200000m/h.</desc>
<speed>2.000000</speed>
</trkpt>
<trkpt lat="42.451897" lon="18.536249">
<ele>44.609894</ele>
<time>2012-05-02T08:56:34Z</time>
<desc>lat.=42.451897, lon.=18.536249, Alt.=44.609894m. Speed=5.616000m/h.</desc>
<speed>1.560000</speed>
</trkpt>
<trkpt lat="42.451828" lon="18.536146">
<ele>45.905792</ele>
<time>2012-05-02T08:56:39Z</time>
<desc>lat.=42.451828, lon.=18.536146, Alt.=45.905792m. Speed=7.164000m/h.</desc>
<speed>1.990000</speed>
</trkpt>
<trkpt lat="42.451862" lon="18.536032">
<ele>45.375519</ele>
<time>2012-05-02T08:56:44Z</time>
<desc>lat.=42.451862, lon.=18.536032, Alt.=45.375519m. Speed=6.660000m/h.</desc>
<speed>1.850000</speed>
</trkpt>
<trkpt lat="42.451847" lon="18.535948">
<ele>44.712433</ele>
<time>2012-05-02T08:56:49Z</time>
<desc>lat.=42.451847, lon.=18.535948, Alt.=44.712433m. Speed=4.968000m/h.</desc>
<speed>1.380000</speed>
</trkpt>
<trkpt lat="42.451977" lon="18.535734">
<ele>44.144073</ele>
<time>2012-05-02T08:56:54Z</time>
<desc>lat.=42.451977, lon.=18.535734, Alt.=44.144073m. Speed=14.940000m/h.</desc>
<speed>4.150000</speed>
</trkpt>
<trkpt lat="42.452019" lon="18.535522">
<ele>44.349152</ele>
<time>2012-05-02T08:56:59Z</time>
<desc>lat.=42.452019, lon.=18.535522, Alt.=44.349152m. Speed=10.188000m/h.</desc>
<speed>2.830000</speed>
</trkpt>
<trkpt lat="42.452011" lon="18.535295">
<ele>45.589386</ele>
<time>2012-05-02T08:57:04Z</time>
<desc>lat.=42.452011, lon.=18.535295, Alt.=45.589386m. Speed=8.136000m/h.</desc>
<speed>2.260000</speed>
</trkpt>
<trkpt lat="42.452000" lon="18.535053">
<ele>47.131378</ele>
<time>2012-05-02T08:57:09Z</time>
<desc>lat.=42.452000, lon.=18.535053, Alt.=47.131378m. Speed=9.252000m/h.</desc>
<speed>2.570000</speed>
</trkpt>
<trkpt lat="42.451984" lon="18.534855">
<ele>46.160675</ele>
<time>2012-05-02T08:57:14Z</time>
<desc>lat.=42.451984, lon.=18.534855, Alt.=46.160675m. Speed=5.004000m/h.</desc>
<speed>1.390000</speed>
</trkpt>
<trkpt lat="42.451984" lon="18.534794">
<ele>45.006378</ele>
<time>2012-05-02T08:57:19Z</time>
<desc>lat.=42.451984, lon.=18.534794, Alt.=45.006378m. Speed=0.648000m/h.</desc>
<speed>0.180000</speed>
</trkpt>
<trkpt lat="42.451965" lon="18.534761">
<ele>44.572784</ele>
<time>2012-05-02T08:57:24Z</time>
<desc>lat.=42.451965, lon.=18.534761, Alt.=44.572784m. Speed=3.312000m/h.</desc>
<speed>0.920000</speed>
</trkpt>
<trkpt lat="42.451931" lon="18.534872">
<ele>48.467316</ele>
<time>2012-05-02T08:57:29Z</time>
<desc>lat.=42.451931, lon.=18.534872, Alt.=48.467316m. Speed=9.000000m/h.</desc>
<speed>2.500000</speed>
</trkpt>
<trkpt lat="42.451881" lon="18.535097">
<ele>46.517120</ele>
<time>2012-05-02T08:57:34Z</time>
<desc>lat.=42.451881, lon.=18.535097, Alt.=46.517120m. Speed=20.340000m/h.</desc>
<speed>5.650000</speed>
</trkpt>
<trkpt lat="42.451675" lon="18.535414">
<ele>46.448761</ele>
<time>2012-05-02T08:57:39Z</time>
<desc>lat.=42.451675, lon.=18.535414, Alt.=46.448761m. Speed=18.504000m/h.</desc>
<speed>5.140000</speed>
</trkpt>
<trkpt lat="42.451557" lon="18.535522">
<ele>47.865753</ele>
<time>2012-05-02T08:57:44Z</time>
<desc>lat.=42.451557, lon.=18.535522, Alt.=47.865753m. Speed=7.740000m/h.</desc>
<speed>2.150000</speed>
</trkpt>
<trkpt lat="42.451477" lon="18.535564">
<ele>47.452667</ele>
<time>2012-05-02T08:57:49Z</time>
<desc>lat.=42.451477, lon.=18.535564, Alt.=47.452667m. Speed=5.436000m/h.</desc>
<speed>1.510000</speed>
</trkpt>
<trkpt lat="42.451427" lon="18.535736">
<ele>46.851105</ele>
<time>2012-05-02T08:57:54Z</time>
<desc>lat.=42.451427, lon.=18.535736, Alt.=46.851105m. Speed=10.548000m/h.</desc>
<speed>2.930000</speed>
</trkpt>
<trkpt lat="42.451420" lon="18.535942">
<ele>46.900909</ele>
<time>2012-05-02T08:57:59Z</time>
<desc>lat.=42.451420, lon.=18.535942, Alt.=46.900909m. Speed=13.608000m/h.</desc>
<speed>3.780000</speed>
</trkpt>
<trkpt lat="42.451420" lon="18.536039">
<ele>46.107941</ele>
<time>2012-05-02T08:58:04Z</time>
<desc>lat.=42.451420, lon.=18.536039, Alt.=46.107941m. Speed=1.476000m/h.</desc>
<speed>0.410000</speed>
</trkpt>
<trkpt lat="42.451439" lon="18.536032">
<ele>45.089386</ele>
<time>2012-05-02T08:58:09Z</time>
<desc>lat.=42.451439, lon.=18.536032, Alt.=45.089386m. Speed=0.180000m/h.</desc>
<speed>0.050000</speed>
</trkpt>
<trkpt lat="42.451443" lon="18.536034">
<ele>44.879425</ele>
<time>2012-05-02T08:58:14Z</time>
<desc>lat.=42.451443, lon.=18.536034, Alt.=44.879425m. Speed=0.252000m/h.</desc>
<speed>0.070000</speed>
</trkpt>
<trkpt lat="42.451450" lon="18.536041">
<ele>44.796417</ele>
<time>2012-05-02T08:58:19Z</time>
<desc>lat.=42.451450, lon.=18.536041, Alt.=44.796417m. Speed=0.864000m/h.</desc>
<speed>0.240000</speed>
</trkpt>
<trkpt lat="42.451458" lon="18.536043">
<ele>44.746613</ele>
<time>2012-05-02T08:58:24Z</time>
<desc>lat.=42.451458, lon.=18.536043, Alt.=44.746613m. Speed=0.612000m/h.</desc>
<speed>0.170000</speed>
</trkpt>
<trkpt lat="42.451462" lon="18.536102">
<ele>44.768097</ele>
<time>2012-05-02T08:58:29Z</time>
<desc>lat.=42.451462, lon.=18.536102, Alt.=44.768097m. Speed=4.968000m/h.</desc>
<speed>1.380000</speed>
</trkpt>
<trkpt lat="42.451450" lon="18.536257">
<ele>44.513214</ele>
<time>2012-05-02T08:58:34Z</time>
<desc>lat.=42.451450, lon.=18.536257, Alt.=44.513214m. Speed=6.444000m/h.</desc>
<speed>1.790000</speed>
</trkpt>
<trkpt lat="42.451347" lon="18.536432">
<ele>44.048370</ele>
<time>2012-05-02T08:58:39Z</time>
<desc>lat.=42.451347, lon.=18.536432, Alt.=44.048370m. Speed=10.692000m/h.</desc>
<speed>2.970000</speed>
</trkpt>
<trkpt lat="42.451183" lon="18.536427">
<ele>42.261261</ele>
<time>2012-05-02T08:58:44Z</time>
<desc>lat.=42.451183, lon.=18.536427, Alt.=42.261261m. Speed=8.820000m/h.</desc>
<speed>2.450000</speed>
</trkpt>
<trkpt lat="42.451008" lon="18.536446">
<ele>40.998566</ele>
<time>2012-05-02T08:58:49Z</time>
<desc>lat.=42.451008, lon.=18.536446, Alt.=40.998566m. Speed=12.564000m/h.</desc>
<speed>3.490000</speed>
</trkpt>
<trkpt lat="42.450790" lon="18.536413">
<ele>38.069855</ele>
<time>2012-05-02T08:58:54Z</time>
<desc>lat.=42.450790, lon.=18.536413, Alt.=38.069855m. Speed=20.448000m/h.</desc>
<speed>5.680000</speed>
</trkpt>
<trkpt lat="42.450565" lon="18.536337">
<ele>34.896027</ele>
<time>2012-05-02T08:58:59Z</time>
<desc>lat.=42.450565, lon.=18.536337, Alt.=34.896027m. Speed=16.667999m/h.</desc>
<speed>4.630000</speed>
</trkpt>
<trkpt lat="42.450409" lon="18.536240">
<ele>31.860611</ele>
<time>2012-05-02T08:59:04Z</time>
<desc>lat.=42.450409, lon.=18.536240, Alt.=31.860611m. Speed=9.684000m/h.</desc>
<speed>2.690000</speed>
</trkpt>
<trkpt lat="42.450268" lon="18.536320">
<ele>29.973892</ele>
<time>2012-05-02T08:59:09Z</time>
<desc>lat.=42.450268, lon.=18.536320, Alt.=29.973892m. Speed=14.544000m/h.</desc>
<speed>4.040000</speed>
</trkpt>
<trkpt lat="42.450184" lon="18.536646">
<ele>26.868912</ele>
<time>2012-05-02T08:59:14Z</time>
<desc>lat.=42.450184, lon.=18.536646, Alt.=26.868912m. Speed=26.388000m/h.</desc>
<speed>7.330000</speed>
</trkpt>
<trkpt lat="42.450073" lon="18.537075">
<ele>23.721451</ele>
<time>2012-05-02T08:59:19Z</time>
<desc>lat.=42.450073, lon.=18.537075, Alt.=23.721451m. Speed=18.360001m/h.</desc>
<speed>5.100000</speed>
</trkpt>
<trkpt lat="42.450020" lon="18.537373">
<ele>21.540298</ele>
<time>2012-05-02T08:59:24Z</time>
<desc>lat.=42.450020, lon.=18.537373, Alt.=21.540298m. Speed=16.416000m/h.</desc>
<speed>4.560000</speed>
</trkpt>
<trkpt lat="42.450058" lon="18.537685">
<ele>16.341080</ele>
<time>2012-05-02T08:59:29Z</time>
<desc>lat.=42.450058, lon.=18.537685, Alt.=16.341080m. Speed=20.808001m/h.</desc>
<speed>5.780000</speed>
</trkpt>
<trkpt lat="42.450211" lon="18.537943">
<ele>12.061653</ele>
<time>2012-05-02T08:59:34Z</time>
<desc>lat.=42.450211, lon.=18.537943, Alt.=12.061653m. Speed=17.388000m/h.</desc>
<speed>4.830000</speed>
</trkpt>
<trkpt lat="42.450367" lon="18.538084">
<ele>9.936165</ele>
<time>2012-05-02T08:59:39Z</time>
<desc>lat.=42.450367, lon.=18.538084, Alt.=9.936165m. Speed=8.244000m/h.</desc>
<speed>2.290000</speed>
</trkpt>
<trkpt lat="42.450397" lon="18.538130">
<ele>10.058479</ele>
<time>2012-05-02T08:59:44Z</time>
<desc>lat.=42.450397, lon.=18.538130, Alt.=10.058479m. Speed=2.556000m/h.</desc>
<speed>0.710000</speed>
</trkpt>
<trkpt lat="42.450397" lon="18.538168">
<ele>7.809269</ele>
<time>2012-05-02T08:59:49Z</time>
<desc>lat.=42.450397, lon.=18.538168, Alt.=7.809269m. Speed=0.468000m/h.</desc>
<speed>0.130000</speed>
</trkpt>
<trkpt lat="42.450397" lon="18.538176">
<ele>7.084049</ele>
<time>2012-05-02T08:59:54Z</time>
<desc>lat.=42.450397, lon.=18.538176, Alt.=7.084049m. Speed=0.972000m/h.</desc>
<speed>0.270000</speed>
</trkpt>
<trkpt lat="42.450401" lon="18.538179">
<ele>6.889347</ele>
<time>2012-05-02T08:59:59Z</time>
<desc>lat.=42.450401, lon.=18.538179, Alt.=6.889347m. Speed=0.432000m/h.</desc>
<speed>0.120000</speed>
</trkpt>
<trkpt lat="42.450405" lon="18.538170">
<ele>6.842594</ele>
<time>2012-05-02T09:00:04Z</time>
<desc>lat.=42.450405, lon.=18.538170, Alt.=6.842594m. Speed=0.324000m/h.</desc>
<speed>0.090000</speed>
</trkpt>
<trkpt lat="42.450405" lon="18.538168">
<ele>7.008854</ele>
<time>2012-05-02T09:00:09Z</time>
<desc>lat.=42.450405, lon.=18.538168, Alt.=7.008854m. Speed=0.432000m/h.</desc>
<speed>0.120000</speed>
</trkpt>
<trkpt lat="42.450413" lon="18.538164">
<ele>7.206852</ele>
<time>2012-05-02T09:00:14Z</time>
<desc>lat.=42.450413, lon.=18.538164, Alt.=7.206852m. Speed=0.252000m/h.</desc>
<speed>0.070000</speed>
</trkpt>
<trkpt lat="42.450413" lon="18.538164">
<ele>7.367741</ele>
<time>2012-05-02T09:00:19Z</time>
<desc>lat.=42.450413, lon.=18.538164, Alt.=7.367741m. Speed=0.432000m/h.</desc>
<speed>0.120000</speed>
</trkpt>
<trkpt lat="42.450417" lon="18.538160">
<ele>7.501408</ele>
<time>2012-05-02T09:00:24Z</time>
<desc>lat.=42.450417, lon.=18.538160, Alt.=7.501408m. Speed=0.216000m/h.</desc>
<speed>0.060000</speed>
</trkpt>
<trkpt lat="42.450417" lon="18.538155">
<ele>7.621037</ele>
<time>2012-05-02T09:00:29Z</time>
<desc>lat.=42.450417, lon.=18.538155, Alt.=7.621037m. Speed=0.360000m/h.</desc>
<speed>0.100000</speed>
</trkpt>
<trkpt lat="42.450417" lon="18.538147">
<ele>7.692204</ele>
<time>2012-05-02T09:00:34Z</time>
<desc>lat.=42.450417, lon.=18.538147, Alt.=7.692204m. Speed=0.504000m/h.</desc>
<speed>0.140000</speed>
</trkpt>
<trkpt lat="42.450409" lon="18.538141">
<ele>7.726139</ele>
<time>2012-05-02T09:00:39Z</time>
<desc>lat.=42.450409, lon.=18.538141, Alt.=7.726139m. Speed=0.396000m/h.</desc>
<speed>0.110000</speed>
</trkpt>
<trkpt lat="42.450409" lon="18.538139">
<ele>7.751896</ele>
<time>2012-05-02T09:00:44Z</time>
<desc>lat.=42.450409, lon.=18.538139, Alt.=7.751896m. Speed=0.288000m/h.</desc>
<speed>0.080000</speed>
</trkpt>
<trkpt lat="42.450413" lon="18.538136">
<ele>7.822697</ele>
<time>2012-05-02T09:00:49Z</time>
<desc>lat.=42.450413, lon.=18.538136, Alt.=7.822697m. Speed=0.540000m/h.</desc>
<speed>0.150000</speed>
</trkpt>
<trkpt lat="42.450420" lon="18.538134">
<ele>7.902653</ele>
<time>2012-05-02T09:00:54Z</time>
<desc>lat.=42.450420, lon.=18.538134, Alt.=7.902653m. Speed=0.576000m/h.</desc>
<speed>0.160000</speed>
</trkpt>
<trkpt lat="42.450420" lon="18.538118">
<ele>7.988590</ele>
<time>2012-05-02T09:00:59Z</time>
<desc>lat.=42.450420, lon.=18.538118, Alt.=7.988590m. Speed=0.828000m/h.</desc>
<speed>0.230000</speed>
</trkpt>
<trkpt lat="42.450432" lon="18.538116">
<ele>8.023079</ele>
<time>2012-05-02T09:01:04Z</time>
<desc>lat.=42.450432, lon.=18.538116, Alt.=8.023079m. Speed=0.324000m/h.</desc>
<speed>0.090000</speed>
</trkpt>
<trkpt lat="42.450436" lon="18.538115">
<ele>8.064095</ele>
<time>2012-05-02T09:01:09Z</time>
<desc>lat.=42.450436, lon.=18.538115, Alt.=8.064095m. Speed=0.720000m/h.</desc>
<speed>0.200000</speed>
</trkpt>
<trkpt lat="42.450443" lon="18.538115">
<ele>8.159065</ele>
<time>2012-05-02T09:01:14Z</time>
<desc>lat.=42.450443, lon.=18.538115, Alt.=8.159065m. Speed=0.324000m/h.</desc>
<speed>0.090000</speed>
</trkpt>
<trkpt lat="42.450447" lon="18.538115">
<ele>8.336311</ele>
<time>2012-05-02T09:01:19Z</time>
<desc>lat.=42.450447, lon.=18.538115, Alt.=8.336311m. Speed=0.072000m/h.</desc>
<speed>0.020000</speed>
</trkpt>
<trkpt lat="42.450447" lon="18.538116">
<ele>8.574837</ele>
<time>2012-05-02T09:01:24Z</time>
<desc>lat.=42.450447, lon.=18.538116, Alt.=8.574837m. Speed=0.180000m/h.</desc>
<speed>0.050000</speed>
</trkpt>
<trkpt lat="42.450447" lon="18.538116">
<ele>8.730843</ele>
<time>2012-05-02T09:01:29Z</time>
<desc>lat.=42.450447, lon.=18.538116, Alt.=8.730843m. Speed=0.108000m/h.</desc>
<speed>0.030000</speed>
</trkpt>
<trkpt lat="42.450447" lon="18.538116">
<ele>8.818001</ele>
<time>2012-05-02T09:01:34Z</time>
<desc>lat.=42.450447, lon.=18.538116, Alt.=8.818001m. Speed=0.324000m/h.</desc>
<speed>0.090000</speed>
</trkpt>
<trkpt lat="42.450447" lon="18.538116">
<ele>8.860725</ele>
<time>2012-05-02T09:01:39Z</time>
<desc>lat.=42.450447, lon.=18.538116, Alt.=8.860725m. Speed=0.144000m/h.</desc>
<speed>0.040000</speed>
</trkpt>
<trkpt lat="42.450451" lon="18.538118">
<ele>8.916145</ele>
<time>2012-05-02T09:01:44Z</time>
<desc>lat.=42.450451, lon.=18.538118, Alt.=8.916145m. Speed=2.484000m/h.</desc>
<speed>0.690000</speed>
</trkpt>
<trkpt lat="42.450481" lon="18.538162">
<ele>9.238655</ele>
<time>2012-05-02T09:01:49Z</time>
<desc>lat.=42.450481, lon.=18.538162, Alt.=9.238655m. Speed=5.112000m/h.</desc>
<speed>1.420000</speed>
</trkpt>
<trkpt lat="42.450531" lon="18.538204">
<ele>12.977669</ele>
<time>2012-05-02T09:01:54Z</time>
<desc>lat.=42.450531, lon.=18.538204, Alt.=12.977669m. Speed=2.412000m/h.</desc>
<speed>0.670000</speed>
</trkpt>
<trkpt lat="42.450562" lon="18.538244">
<ele>14.163460</ele>
<time>2012-05-02T09:01:59Z</time>
<desc>lat.=42.450562, lon.=18.538244, Alt.=14.163460m. Speed=3.780000m/h.</desc>
<speed>1.050000</speed>
</trkpt>
<trkpt lat="42.450569" lon="18.538399">
<ele>15.900276</ele>
<time>2012-05-02T09:02:04Z</time>
<desc>lat.=42.450569, lon.=18.538399, Alt.=15.900276m. Speed=7.668000m/h.</desc>
<speed>2.130000</speed>
</trkpt>
<trkpt lat="42.450645" lon="18.538614">
<ele>18.281998</ele>
<time>2012-05-02T09:02:09Z</time>
<desc>lat.=42.450645, lon.=18.538614, Alt.=18.281998m. Speed=10.728000m/h.</desc>
<speed>2.980000</speed>
</trkpt>
<trkpt lat="42.450703" lon="18.538813">
<ele>19.965591</ele>
<time>2012-05-02T09:02:14Z</time>
<desc>lat.=42.450703, lon.=18.538813, Alt.=19.965591m. Speed=13.788000m/h.</desc>
<speed>3.830000</speed>
</trkpt>
<trkpt lat="42.450794" lon="18.539028">
<ele>20.524673</ele>
<time>2012-05-02T09:02:19Z</time>
<desc>lat.=42.450794, lon.=18.539028, Alt.=20.524673m. Speed=12.564000m/h.</desc>
<speed>3.490000</speed>
</trkpt>
<trkpt lat="42.450893" lon="18.539209">
<ele>20.580826</ele>
<time>2012-05-02T09:02:24Z</time>
<desc>lat.=42.450893, lon.=18.539209, Alt.=20.580826m. Speed=15.696000m/h.</desc>
<speed>4.360000</speed>
</trkpt>
<trkpt lat="42.450928" lon="18.539543">
<ele>21.136978</ele>
<time>2012-05-02T09:02:29Z</time>
<desc>lat.=42.450928, lon.=18.539543, Alt.=21.136978m. Speed=15.912000m/h.</desc>
<speed>4.420000</speed>
</trkpt>
<trkpt lat="42.451000" lon="18.539822">
<ele>21.489029</ele>
<time>2012-05-02T09:02:34Z</time>
<desc>lat.=42.451000, lon.=18.539822, Alt.=21.489029m. Speed=15.228000m/h.</desc>
<speed>4.230000</speed>
</trkpt>
<trkpt lat="42.451096" lon="18.540131">
<ele>23.386002</ele>
<time>2012-05-02T09:02:39Z</time>
<desc>lat.=42.451096, lon.=18.540131, Alt.=23.386002m. Speed=19.080000m/h.</desc>
<speed>5.300000</speed>
</trkpt>
<trkpt lat="42.451233" lon="18.540344">
<ele>22.844498</ele>
<time>2012-05-02T09:02:44Z</time>
<desc>lat.=42.451233, lon.=18.540344, Alt.=22.844498m. Speed=12.276000m/h.</desc>
<speed>3.410000</speed>
</trkpt>
<trkpt lat="42.451317" lon="18.540510">
<ele>23.761002</ele>
<time>2012-05-02T09:02:49Z</time>
<desc>lat.=42.451317, lon.=18.540510, Alt.=23.761002m. Speed=12.276000m/h.</desc>
<speed>3.410000</speed>
</trkpt>
<trkpt lat="42.451393" lon="18.540773">
<ele>24.326920</ele>
<time>2012-05-02T09:02:54Z</time>
<desc>lat.=42.451393, lon.=18.540773, Alt.=24.326920m. Speed=15.948000m/h.</desc>
<speed>4.430000</speed>
</trkpt>
<trkpt lat="42.451485" lon="18.541044">
<ele>25.906998</ele>
<time>2012-05-02T09:02:59Z</time>
<desc>lat.=42.451485, lon.=18.541044, Alt.=25.906998m. Speed=16.920000m/h.</desc>
<speed>4.700000</speed>
</trkpt>
<trkpt lat="42.451527" lon="18.541317">
<ele>27.904068</ele>
<time>2012-05-02T09:03:04Z</time>
<desc>lat.=42.451527, lon.=18.541317, Alt.=27.904068m. Speed=14.004000m/h.</desc>
<speed>3.890000</speed>
</trkpt>
<trkpt lat="42.451515" lon="18.541521">
<ele>29.778091</ele>
<time>2012-05-02T09:03:09Z</time>
<desc>lat.=42.451515, lon.=18.541521, Alt.=29.778091m. Speed=12.636000m/h.</desc>
<speed>3.510000</speed>
</trkpt>
<trkpt lat="42.451530" lon="18.541777">
<ele>31.980728</ele>
<time>2012-05-02T09:03:14Z</time>
<desc>lat.=42.451530, lon.=18.541777, Alt.=31.980728m. Speed=13.896000m/h.</desc>
<speed>3.860000</speed>
</trkpt>
<trkpt lat="42.451561" lon="18.541920">
<ele>32.622589</ele>
<time>2012-05-02T09:03:19Z</time>
<desc>lat.=42.451561, lon.=18.541920, Alt.=32.622589m. Speed=7.308000m/h.</desc>
<speed>2.030000</speed>
</trkpt>
<trkpt lat="42.451599" lon="18.542084">
<ele>33.470245</ele>
<time>2012-05-02T09:03:24Z</time>
<desc>lat.=42.451599, lon.=18.542084, Alt.=33.470245m. Speed=9.900000m/h.</desc>
<speed>2.750000</speed>
</trkpt>
<trkpt lat="42.451611" lon="18.542244">
<ele>35.301300</ele>
<time>2012-05-02T09:03:29Z</time>
<desc>lat.=42.451611, lon.=18.542244, Alt.=35.301300m. Speed=7.524000m/h.</desc>
<speed>2.090000</speed>
</trkpt>
<trkpt lat="42.451614" lon="18.542404">
<ele>36.522003</ele>
<time>2012-05-02T09:03:34Z</time>
<desc>lat.=42.451614, lon.=18.542404, Alt.=36.522003m. Speed=8.460000m/h.</desc>
<speed>2.350000</speed>
</trkpt>
<trkpt lat="42.451611" lon="18.542551">
<ele>36.354034</ele>
<time>2012-05-02T09:03:39Z</time>
<desc>lat.=42.451611, lon.=18.542551, Alt.=36.354034m. Speed=7.272000m/h.</desc>
<speed>2.020000</speed>
</trkpt>
<trkpt lat="42.451595" lon="18.542740">
<ele>37.742706</ele>
<time>2012-05-02T09:03:44Z</time>
<desc>lat.=42.451595, lon.=18.542740, Alt.=37.742706m. Speed=11.232000m/h.</desc>
<speed>3.120000</speed>
</trkpt>
<trkpt lat="42.451565" lon="18.542986">
<ele>37.408722</ele>
<time>2012-05-02T09:03:49Z</time>
<desc>lat.=42.451565, lon.=18.542986, Alt.=37.408722m. Speed=10.152000m/h.</desc>
<speed>2.820000</speed>
</trkpt>
<trkpt lat="42.451530" lon="18.543150">
<ele>39.871613</ele>
<time>2012-05-02T09:03:54Z</time>
<desc>lat.=42.451530, lon.=18.543150, Alt.=39.871613m. Speed=9.036000m/h.</desc>
<speed>2.510000</speed>
</trkpt>
<trkpt lat="42.451504" lon="18.543293">
<ele>42.887238</ele>
<time>2012-05-02T09:03:59Z</time>
<desc>lat.=42.451504, lon.=18.543293, Alt.=42.887238m. Speed=9.180000m/h.</desc>
<speed>2.550000</speed>
</trkpt>
<trkpt lat="42.451473" lon="18.543489">
<ele>43.364777</ele>
<time>2012-05-02T09:04:04Z</time>
<desc>lat.=42.451473, lon.=18.543489, Alt.=43.364777m. Speed=14.796000m/h.</desc>
<speed>4.110000</speed>
</trkpt>
<trkpt lat="42.451412" lon="18.543709">
<ele>44.162628</ele>
<time>2012-05-02T09:04:09Z</time>
<desc>lat.=42.451412, lon.=18.543709, Alt.=44.162628m. Speed=6.876000m/h.</desc>
<speed>1.910000</speed>
</trkpt>
<trkpt lat="42.451374" lon="18.543909">
<ele>45.440948</ele>
<time>2012-05-02T09:04:14Z</time>
<desc>lat.=42.451374, lon.=18.543909, Alt.=45.440948m. Speed=10.872000m/h.</desc>
<speed>3.020000</speed>
</trkpt>
<trkpt lat="42.451275" lon="18.544109">
<ele>44.854034</ele>
<time>2012-05-02T09:04:19Z</time>
<desc>lat.=42.451275, lon.=18.544109, Alt.=44.854034m. Speed=11.196000m/h.</desc>
<speed>3.110000</speed>
</trkpt>
<trkpt lat="42.451168" lon="18.544340">
<ele>43.357941</ele>
<time>2012-05-02T09:04:24Z</time>
<desc>lat.=42.451168, lon.=18.544340, Alt.=43.357941m. Speed=14.508000m/h.</desc>
<speed>4.030000</speed>
</trkpt>
<trkpt lat="42.451122" lon="18.544605">
<ele>44.228058</ele>
<time>2012-05-02T09:04:29Z</time>
<desc>lat.=42.451122, lon.=18.544605, Alt.=44.228058m. Speed=13.212000m/h.</desc>
<speed>3.670000</speed>
</trkpt>
<trkpt lat="42.451054" lon="18.544861">
<ele>44.960480</ele>
<time>2012-05-02T09:04:34Z</time>
<desc>lat.=42.451054, lon.=18.544861, Alt.=44.960480m. Speed=16.344000m/h.</desc>
<speed>4.540000</speed>
</trkpt>
<trkpt lat="42.451031" lon="18.545259">
<ele>44.938995</ele>
<time>2012-05-02T09:04:39Z</time>
<desc>lat.=42.451031, lon.=18.545259, Alt.=44.938995m. Speed=20.879999m/h.</desc>
<speed>5.800000</speed>
</trkpt>
<trkpt lat="42.450996" lon="18.545609">
<ele>44.734894</ele>
<time>2012-05-02T09:04:44Z</time>
<desc>lat.=42.450996, lon.=18.545609, Alt.=44.734894m. Speed=19.908001m/h.</desc>
<speed>5.530000</speed>
</trkpt>
<trkpt lat="42.450974" lon="18.545973">
<ele>44.735870</ele>
<time>2012-05-02T09:04:49Z</time>
<desc>lat.=42.450974, lon.=18.545973, Alt.=44.735870m. Speed=18.323999m/h.</desc>
<speed>5.090000</speed>
</trkpt>
<trkpt lat="42.450962" lon="18.546230">
<ele>44.880402</ele>
<time>2012-05-02T09:04:54Z</time>
<desc>lat.=42.450962, lon.=18.546230, Alt.=44.880402m. Speed=14.832000m/h.</desc>
<speed>4.120000</speed>
</trkpt>
<trkpt lat="42.450863" lon="18.546595">
<ele>44.911652</ele>
<time>2012-05-02T09:04:59Z</time>
<desc>lat.=42.450863, lon.=18.546595, Alt.=44.911652m. Speed=20.412001m/h.</desc>
<speed>5.670000</speed>
</trkpt>
<trkpt lat="42.450867" lon="18.546951">
<ele>44.774933</ele>
<time>2012-05-02T09:05:04Z</time>
<desc>lat.=42.450867, lon.=18.546951, Alt.=44.774933m. Speed=20.160000m/h.</desc>
<speed>5.600000</speed>
</trkpt>
<trkpt lat="42.450935" lon="18.547272">
<ele>43.811066</ele>
<time>2012-05-02T09:05:09Z</time>
<desc>lat.=42.450935, lon.=18.547272, Alt.=43.811066m. Speed=12.528000m/h.</desc>
<speed>3.480000</speed>
</trkpt>
<trkpt lat="42.450996" lon="18.547552">
<ele>43.747589</ele>
<time>2012-05-02T09:05:14Z</time>
<desc>lat.=42.450996, lon.=18.547552, Alt.=43.747589m. Speed=17.459999m/h.</desc>
<speed>4.850000</speed>
</trkpt>
<trkpt lat="42.450939" lon="18.547894">
<ele>43.595245</ele>
<time>2012-05-02T09:05:19Z</time>
<desc>lat.=42.450939, lon.=18.547894, Alt.=43.595245m. Speed=17.639999m/h.</desc>
<speed>4.900000</speed>
</trkpt>
<trkpt lat="42.450821" lon="18.548193">
<ele>42.827667</ele>
<time>2012-05-02T09:05:24Z</time>
<desc>lat.=42.450821, lon.=18.548193, Alt.=42.827667m. Speed=19.584000m/h.</desc>
<speed>5.440000</speed>
</trkpt>
<trkpt lat="42.450733" lon="18.548536">
<ele>43.120636</ele>
<time>2012-05-02T09:05:29Z</time>
<desc>lat.=42.450733, lon.=18.548536, Alt.=43.120636m. Speed=21.348000m/h.</desc>
<speed>5.930000</speed>
</trkpt>
<trkpt lat="42.450703" lon="18.548927">
<ele>44.163605</ele>
<time>2012-05-02T09:05:34Z</time>
<desc>lat.=42.450703, lon.=18.548927, Alt.=44.163605m. Speed=22.068001m/h.</desc>
<speed>6.130000</speed>
</trkpt>
<trkpt lat="42.450607" lon="18.549307">
<ele>44.621613</ele>
<time>2012-05-02T09:05:39Z</time>
<desc>lat.=42.450607, lon.=18.549307, Alt.=44.621613m. Speed=22.860001m/h.</desc>
<speed>6.350000</speed>
</trkpt>
<trkpt lat="42.450500" lon="18.549686">
<ele>44.361847</ele>
<time>2012-05-02T09:05:44Z</time>
<desc>lat.=42.450500, lon.=18.549686, Alt.=44.361847m. Speed=20.988001m/h.</desc>
<speed>5.830000</speed>
</trkpt>
<trkpt lat="42.450520" lon="18.550081">
<ele>44.188019</ele>
<time>2012-05-02T09:05:49Z</time>
<desc>lat.=42.450520, lon.=18.550081, Alt.=44.188019m. Speed=23.148001m/h.</desc>
<speed>6.430000</speed>
</trkpt>
<trkpt lat="42.450497" lon="18.550528">
<ele>43.297394</ele>
<time>2012-05-02T09:05:54Z</time>
<desc>lat.=42.450497, lon.=18.550528, Alt.=43.297394m. Speed=28.656000m/h.</desc>
<speed>7.960000</speed>
</trkpt>
<trkpt lat="42.450439" lon="18.551025">
<ele>42.478058</ele>
<time>2012-05-02T09:05:59Z</time>
<desc>lat.=42.450439, lon.=18.551025, Alt.=42.478058m. Speed=29.016001m/h.</desc>
<speed>8.060000</speed>
</trkpt>
<trkpt lat="42.450558" lon="18.551519">
<ele>41.527863</ele>
<time>2012-05-02T09:06:04Z</time>
<desc>lat.=42.450558, lon.=18.551519, Alt.=41.527863m. Speed=30.563999m/h.</desc>
<speed>8.490000</speed>
</trkpt>
<trkpt lat="42.450745" lon="18.551983">
<ele>40.841339</ele>
<time>2012-05-02T09:06:09Z</time>
<desc>lat.=42.450745, lon.=18.551983, Alt.=40.841339m. Speed=29.591999m/h.</desc>
<speed>8.220000</speed>
</trkpt>
<trkpt lat="42.450836" lon="18.552454">
<ele>40.990753</ele>
<time>2012-05-02T09:06:14Z</time>
<desc>lat.=42.450836, lon.=18.552454, Alt.=40.990753m. Speed=27.792000m/h.</desc>
<speed>7.720000</speed>
</trkpt>
<trkpt lat="42.450966" lon="18.552876">
<ele>39.795441</ele>
<time>2012-05-02T09:06:19Z</time>
<desc>lat.=42.450966, lon.=18.552876, Alt.=39.795441m. Speed=24.191999m/h.</desc>
<speed>6.720000</speed>
</trkpt>
<trkpt lat="42.451172" lon="18.553127">
<ele>40.140167</ele>
<time>2012-05-02T09:06:24Z</time>
<desc>lat.=42.451172, lon.=18.553127, Alt.=40.140167m. Speed=20.304001m/h.</desc>
<speed>5.640000</speed>
</trkpt>
<trkpt lat="42.451359" lon="18.553301">
<ele>39.526886</ele>
<time>2012-05-02T09:06:29Z</time>
<desc>lat.=42.451359, lon.=18.553301, Alt.=39.526886m. Speed=16.271999m/h.</desc>
<speed>4.520000</speed>
</trkpt>
<trkpt lat="42.451488" lon="18.553505">
<ele>39.003448</ele>
<time>2012-05-02T09:06:34Z</time>
<desc>lat.=42.451488, lon.=18.553505, Alt.=39.003448m. Speed=17.459999m/h.</desc>
<speed>4.850000</speed>
</trkpt>
<trkpt lat="42.451572" lon="18.553802">
<ele>37.229034</ele>
<time>2012-05-02T09:06:39Z</time>
<desc>lat.=42.451572, lon.=18.553802, Alt.=37.229034m. Speed=19.296000m/h.</desc>
<speed>5.360000</speed>
</trkpt>
<trkpt lat="42.451584" lon="18.554131">
<ele>35.422394</ele>
<time>2012-05-02T09:06:44Z</time>
<desc>lat.=42.451584, lon.=18.554131, Alt.=35.422394m. Speed=21.816000m/h.</desc>
<speed>6.060000</speed>
</trkpt>
<trkpt lat="42.451660" lon="18.554586">
<ele>33.945831</ele>
<time>2012-05-02T09:06:49Z</time>
<desc>lat.=42.451660, lon.=18.554586, Alt.=33.945831m. Speed=28.620001m/h.</desc>
<speed>7.950000</speed>
</trkpt>
<trkpt lat="42.451736" lon="18.555088">
<ele>32.515167</ele>
<time>2012-05-02T09:06:54Z</time>
<desc>lat.=42.451736, lon.=18.555088, Alt.=32.515167m. Speed=30.636000m/h.</desc>
<speed>8.510000</speed>
</trkpt>
<trkpt lat="42.451813" lon="18.555611">
<ele>31.144791</ele>
<time>2012-05-02T09:06:59Z</time>
<desc>lat.=42.451813, lon.=18.555611, Alt.=31.144791m. Speed=31.356001m/h.</desc>
<speed>8.710000</speed>
</trkpt>
<trkpt lat="42.451992" lon="18.556135">
<ele>27.835709</ele>
<time>2012-05-02T09:07:04Z</time>
<desc>lat.=42.451992, lon.=18.556135, Alt.=27.835709m. Speed=34.812000m/h.</desc>
<speed>9.670000</speed>
</trkpt>
<trkpt lat="42.452263" lon="18.556564">
<ele>25.072525</ele>
<time>2012-05-02T09:07:09Z</time>
<desc>lat.=42.452263, lon.=18.556564, Alt.=25.072525m. Speed=31.427999m/h.</desc>
<speed>8.730000</speed>
</trkpt>
<trkpt lat="42.452503" lon="18.556942">
<ele>24.406021</ele>
<time>2012-05-02T09:07:14Z</time>
<desc>lat.=42.452503, lon.=18.556942, Alt.=24.406021m. Speed=26.927999m/h.</desc>
<speed>7.480000</speed>
</trkpt>
<trkpt lat="42.452679" lon="18.557318">
<ele>24.296158</ele>
<time>2012-05-02T09:07:19Z</time>
<desc>lat.=42.452679, lon.=18.557318, Alt.=24.296158m. Speed=26.028000m/h.</desc>
<speed>7.230000</speed>
</trkpt>
<trkpt lat="42.452843" lon="18.557728">
<ele>22.636490</ele>
<time>2012-05-02T09:07:24Z</time>
<desc>lat.=42.452843, lon.=18.557728, Alt.=22.636490m. Speed=29.124001m/h.</desc>
<speed>8.090000</speed>
</trkpt>
<trkpt lat="42.453110" lon="18.558069">
<ele>20.452408</ele>
<time>2012-05-02T09:07:29Z</time>
<desc>lat.=42.453110, lon.=18.558069, Alt.=20.452408m. Speed=31.788000m/h.</desc>
<speed>8.830000</speed>
</trkpt>
<trkpt lat="42.453465" lon="18.558390">
<ele>17.031509</ele>
<time>2012-05-02T09:07:34Z</time>
<desc>lat.=42.453465, lon.=18.558390, Alt.=17.031509m. Speed=35.820000m/h.</desc>
<speed>9.950000</speed>
</trkpt>
<trkpt lat="42.453907" lon="18.558592">
<ele>13.684944</ele>
<time>2012-05-02T09:07:39Z</time>
<desc>lat.=42.453907, lon.=18.558592, Alt.=13.684944m. Speed=37.872002m/h.</desc>
<speed>10.520000</speed>
</trkpt>
<trkpt lat="42.454361" lon="18.558617">
<ele>13.405647</ele>
<time>2012-05-02T09:07:44Z</time>
<desc>lat.=42.454361, lon.=18.558617, Alt.=13.405647m. Speed=32.076000m/h.</desc>
<speed>8.910000</speed>
</trkpt>
<trkpt lat="42.454712" lon="18.558573">
<ele>12.599007</ele>
<time>2012-05-02T09:07:49Z</time>
<desc>lat.=42.454712, lon.=18.558573, Alt.=12.599007m. Speed=25.056000m/h.</desc>
<speed>6.960000</speed>
</trkpt>
<trkpt lat="42.454945" lon="18.558578">
<ele>12.078499</ele>
<time>2012-05-02T09:07:54Z</time>
<desc>lat.=42.454945, lon.=18.558578, Alt.=12.078499m. Speed=22.176001m/h.</desc>
<speed>6.160000</speed>
</trkpt>
<trkpt lat="42.455120" lon="18.558723">
<ele>17.185318</ele>
<time>2012-05-02T09:07:59Z</time>
<desc>lat.=42.455120, lon.=18.558723, Alt.=17.185318m. Speed=18.000000m/h.</desc>
<speed>5.000000</speed>
</trkpt>
<trkpt lat="42.455246" lon="18.559025">
<ele>17.291763</ele>
<time>2012-05-02T09:08:04Z</time>
<desc>lat.=42.455246, lon.=18.559025, Alt.=17.291763m. Speed=21.708000m/h.</desc>
<speed>6.030000</speed>
</trkpt>
<trkpt lat="42.455257" lon="18.559414">
<ele>12.807991</ele>
<time>2012-05-02T09:08:09Z</time>
<desc>lat.=42.455257, lon.=18.559414, Alt.=12.807991m. Speed=21.780001m/h.</desc>
<speed>6.050000</speed>
</trkpt>
<trkpt lat="42.455257" lon="18.559761">
<ele>10.302376</ele>
<time>2012-05-02T09:08:14Z</time>
<desc>lat.=42.455257, lon.=18.559761, Alt.=10.302376m. Speed=16.740000m/h.</desc>
<speed>4.650000</speed>
</trkpt>
<trkpt lat="42.455250" lon="18.560022">
<ele>8.627815</ele>
<time>2012-05-02T09:08:19Z</time>
<desc>lat.=42.455250, lon.=18.560022, Alt.=8.627815m. Speed=16.091999m/h.</desc>
<speed>4.470000</speed>
</trkpt>
<trkpt lat="42.455265" lon="18.560349">
<ele>7.423649</ele>
<time>2012-05-02T09:08:24Z</time>
<desc>lat.=42.455265, lon.=18.560349, Alt.=7.423649m. Speed=22.752001m/h.</desc>
<speed>6.320000</speed>
</trkpt>
<trkpt lat="42.455246" lon="18.560694">
<ele>6.127384</ele>
<time>2012-05-02T09:08:29Z</time>
<desc>lat.=42.455246, lon.=18.560694, Alt.=6.127384m. Speed=20.736000m/h.</desc>
<speed>5.760000</speed>
</trkpt>
<trkpt lat="42.455227" lon="18.561052">
<ele>3.520113</ele>
<time>2012-05-02T09:08:34Z</time>
<desc>lat.=42.455227, lon.=18.561052, Alt.=3.520113m. Speed=20.483999m/h.</desc>
<speed>5.690000</speed>
</trkpt>
<trkpt lat="42.455193" lon="18.561411">
<ele>0.517327</ele>
<time>2012-05-02T09:08:39Z</time>
<desc>lat.=42.455193, lon.=18.561411, Alt.=0.517327m. Speed=20.016001m/h.</desc>
<speed>5.560000</speed>
</trkpt>
<trkpt lat="42.455181" lon="18.561792">
<ele>-1.788194</ele>
<time>2012-05-02T09:08:44Z</time>
<desc>lat.=42.455181, lon.=18.561792, Alt.=-1.788194m. Speed=21.528000m/h.</desc>
<speed>5.980000</speed>
</trkpt>
<trkpt lat="42.455189" lon="18.562172">
<ele>-3.410128</ele>
<time>2012-05-02T09:08:49Z</time>
<desc>lat.=42.455189, lon.=18.562172, Alt.=-3.410128m. Speed=20.520000m/h.</desc>
<speed>5.700000</speed>
</trkpt>
<trkpt lat="42.455223" lon="18.562513">
<ele>-4.084293</ele>
<time>2012-05-02T09:08:54Z</time>
<desc>lat.=42.455223, lon.=18.562513, Alt.=-4.084293m. Speed=19.080000m/h.</desc>
<speed>5.300000</speed>
</trkpt>
<trkpt lat="42.455257" lon="18.562790">
<ele>-3.897676</ele>
<time>2012-05-02T09:08:59Z</time>
<desc>lat.=42.455257, lon.=18.562790, Alt.=-3.897676m. Speed=14.148000m/h.</desc>
<speed>3.930000</speed>
</trkpt>
<trkpt lat="42.455303" lon="18.563103">
<ele>-1.974076</ele>
<time>2012-05-02T09:09:04Z</time>
<desc>lat.=42.455303, lon.=18.563103, Alt.=-1.974076m. Speed=19.080000m/h.</desc>
<speed>5.300000</speed>
</trkpt>
<trkpt lat="42.455376" lon="18.563425">
<ele>-1.021317</ele>
<time>2012-05-02T09:09:09Z</time>
<desc>lat.=42.455376, lon.=18.563425, Alt.=-1.021317m. Speed=16.236000m/h.</desc>
<speed>4.510000</speed>
</trkpt>
<trkpt lat="42.455429" lon="18.563702">
<ele>0.740563</ele>
<time>2012-05-02T09:09:14Z</time>
<desc>lat.=42.455429, lon.=18.563702, Alt.=0.740563m. Speed=15.156000m/h.</desc>
<speed>4.210000</speed>
</trkpt>
<trkpt lat="42.455505" lon="18.563995">
<ele>1.993058</ele>
<time>2012-05-02T09:09:19Z</time>
<desc>lat.=42.455505, lon.=18.563995, Alt.=1.993058m. Speed=15.516000m/h.</desc>
<speed>4.310000</speed>
</trkpt>
<trkpt lat="42.455616" lon="18.564201">
<ele>4.870914</ele>
<time>2012-05-02T09:09:24Z</time>
<desc>lat.=42.455616, lon.=18.564201, Alt.=4.870914m. Speed=15.624000m/h.</desc>
<speed>4.340000</speed>
</trkpt>
<trkpt lat="42.455627" lon="18.564489">
<ele>9.209602</ele>
<time>2012-05-02T09:09:29Z</time>
<desc>lat.=42.455627, lon.=18.564489, Alt.=9.209602m. Speed=12.492000m/h.</desc>
<speed>3.470000</speed>
</trkpt>
<trkpt lat="42.455681" lon="18.564726">
<ele>11.988899</ele>
<time>2012-05-02T09:09:34Z</time>
<desc>lat.=42.455681, lon.=18.564726, Alt.=11.988899m. Speed=14.760000m/h.</desc>
<speed>4.100000</speed>
</trkpt>
<trkpt lat="42.455730" lon="18.564976">
<ele>13.790901</ele>
<time>2012-05-02T09:09:39Z</time>
<desc>lat.=42.455730, lon.=18.564976, Alt.=13.790901m. Speed=11.628000m/h.</desc>
<speed>3.230000</speed>
</trkpt>
<trkpt lat="42.455730" lon="18.565189">
<ele>15.509895</ele>
<time>2012-05-02T09:09:44Z</time>
<desc>lat.=42.455730, lon.=18.565189, Alt.=15.509895m. Speed=11.232000m/h.</desc>
<speed>3.120000</speed>
</trkpt>
<trkpt lat="42.455738" lon="18.565449">
<ele>16.306412</ele>
<time>2012-05-02T09:09:49Z</time>
<desc>lat.=42.455738, lon.=18.565449, Alt.=16.306412m. Speed=12.600000m/h.</desc>
<speed>3.500000</speed>
</trkpt>
<trkpt lat="42.455708" lon="18.565725">
<ele>16.953873</ele>
<time>2012-05-02T09:09:54Z</time>
<desc>lat.=42.455708, lon.=18.565725, Alt.=16.953873m. Speed=15.228000m/h.</desc>
<speed>4.230000</speed>
</trkpt>
<trkpt lat="42.455662" lon="18.566044">
<ele>16.039322</ele>
<time>2012-05-02T09:09:59Z</time>
<desc>lat.=42.455662, lon.=18.566044, Alt.=16.039322m. Speed=20.844000m/h.</desc>
<speed>5.790000</speed>
</trkpt>
<trkpt lat="42.455589" lon="18.566378">
<ele>16.474380</ele>
<time>2012-05-02T09:10:04Z</time>
<desc>lat.=42.455589, lon.=18.566378, Alt.=16.474380m. Speed=18.288000m/h.</desc>
<speed>5.080000</speed>
</trkpt>
<trkpt lat="42.455494" lon="18.566673">
<ele>17.304947</ele>
<time>2012-05-02T09:10:09Z</time>
<desc>lat.=42.455494, lon.=18.566673, Alt.=17.304947m. Speed=20.412001m/h.</desc>
<speed>5.670000</speed>
</trkpt>
<trkpt lat="42.455433" lon="18.567019">
<ele>17.301529</ele>
<time>2012-05-02T09:10:14Z</time>
<desc>lat.=42.455433, lon.=18.567019, Alt.=17.301529m. Speed=23.256001m/h.</desc>
<speed>6.460000</speed>
</trkpt>
<trkpt lat="42.455467" lon="18.567497">
<ele>17.003677</ele>
<time>2012-05-02T09:10:19Z</time>
<desc>lat.=42.455467, lon.=18.567497, Alt.=17.003677m. Speed=28.980000m/h.</desc>
<speed>8.050000</speed>
</trkpt>
<trkpt lat="42.454372" lon="18.568270">
<ele>14.485237</ele>
<time>2012-05-02T09:10:35Z</time>
<desc>lat.=42.454372, lon.=18.568270, Alt.=14.485237m. Speed=30.888000m/h.</desc>
<speed>8.580000</speed>
</trkpt>
<trkpt lat="42.454044" lon="18.568661">
<ele>16.537369</ele>
<time>2012-05-02T09:10:40Z</time>
<desc>lat.=42.454044, lon.=18.568661, Alt.=16.537369m. Speed=34.596001m/h.</desc>
<speed>9.610000</speed>
</trkpt>
<trkpt lat="42.453705" lon="18.569077">
<ele>14.132210</ele>
<time>2012-05-02T09:10:45Z</time>
<desc>lat.=42.453705, lon.=18.569077, Alt.=14.132210m. Speed=33.624001m/h.</desc>
<speed>9.340000</speed>
</trkpt>
<trkpt lat="42.453354" lon="18.569443">
<ele>10.642220</ele>
<time>2012-05-02T09:10:50Z</time>
<desc>lat.=42.453354, lon.=18.569443, Alt.=10.642220m. Speed=37.512001m/h.</desc>
<speed>10.420000</speed>
</trkpt>
<trkpt lat="42.453003" lon="18.569830">
<ele>10.118782</ele>
<time>2012-05-02T09:10:55Z</time>
<desc>lat.=42.453003, lon.=18.569830, Alt.=10.118782m. Speed=36.647999m/h.</desc>
<speed>10.180000</speed>
</trkpt>
<trkpt lat="42.452667" lon="18.570124">
<ele>9.714729</ele>
<time>2012-05-02T09:11:00Z</time>
<desc>lat.=42.452667, lon.=18.570124, Alt.=9.714729m. Speed=31.500000m/h.</desc>
<speed>8.750000</speed>
</trkpt>
<trkpt lat="42.452351" lon="18.570410">
<ele>8.034065</ele>
<time>2012-05-02T09:11:05Z</time>
<desc>lat.=42.452351, lon.=18.570410, Alt.=8.034065m. Speed=32.472000m/h.</desc>
<speed>9.020000</speed>
</trkpt>
<trkpt lat="42.452065" lon="18.570770">
<ele>8.313606</ele>
<time>2012-05-02T09:11:10Z</time>
<desc>lat.=42.452065, lon.=18.570770, Alt.=8.313606m. Speed=29.591999m/h.</desc>
<speed>8.220000</speed>
</trkpt>
<trkpt lat="42.451851" lon="18.571182">
<ele>8.498421</ele>
<time>2012-05-02T09:11:15Z</time>
<desc>lat.=42.451851, lon.=18.571182, Alt.=8.498421m. Speed=31.535999m/h.</desc>
<speed>8.760000</speed>
</trkpt>
<trkpt lat="42.451656" lon="18.571632">
<ele>8.802376</ele>
<time>2012-05-02T09:11:20Z</time>
<desc>lat.=42.451656, lon.=18.571632, Alt.=8.802376m. Speed=30.132000m/h.</desc>
<speed>8.370000</speed>
</trkpt>
<trkpt lat="42.451481" lon="18.572113">
<ele>9.379280</ele>
<time>2012-05-02T09:11:25Z</time>
<desc>lat.=42.451481, lon.=18.572113, Alt.=9.379280m. Speed=28.403999m/h.</desc>
<speed>7.890000</speed>
</trkpt>
<trkpt lat="42.451275" lon="18.572519">
<ele>8.686165</ele>
<time>2012-05-02T09:11:30Z</time>
<desc>lat.=42.451275, lon.=18.572519, Alt.=8.686165m. Speed=28.980000m/h.</desc>
<speed>8.050000</speed>
</trkpt>
<trkpt lat="42.450996" lon="18.572832">
<ele>7.425358</ele>
<time>2012-05-02T09:11:35Z</time>
<desc>lat.=42.450996, lon.=18.572832, Alt.=7.425358m. Speed=30.204000m/h.</desc>
<speed>8.390000</speed>
</trkpt>
<trkpt lat="42.450699" lon="18.573149">
<ele>6.603580</ele>
<time>2012-05-02T09:11:40Z</time>
<desc>lat.=42.450699, lon.=18.573149, Alt.=6.603580m. Speed=30.743999m/h.</desc>
<speed>8.540000</speed>
</trkpt>
<trkpt lat="42.450375" lon="18.573381">
<ele>6.317692</ele>
<time>2012-05-02T09:11:45Z</time>
<desc>lat.=42.450375, lon.=18.573381, Alt.=6.317692m. Speed=28.332001m/h.</desc>
<speed>7.870000</speed>
</trkpt>
<trkpt lat="42.450047" lon="18.573544">
<ele>4.529240</ele>
<time>2012-05-02T09:11:50Z</time>
<desc>lat.=42.450047, lon.=18.573544, Alt.=4.529240m. Speed=28.260000m/h.</desc>
<speed>7.850000</speed>
</trkpt>
<trkpt lat="42.449696" lon="18.573669">
<ele>4.915592</ele>
<time>2012-05-02T09:11:55Z</time>
<desc>lat.=42.449696, lon.=18.573669, Alt.=4.915592m. Speed=25.632000m/h.</desc>
<speed>7.120000</speed>
</trkpt>
<trkpt lat="42.449390" lon="18.573858">
<ele>5.478458</ele>
<time>2012-05-02T09:12:00Z</time>
<desc>lat.=42.449390, lon.=18.573858, Alt.=5.478458m. Speed=28.188000m/h.</desc>
<speed>7.830000</speed>
</trkpt>
<trkpt lat="42.449120" lon="18.574116">
<ele>3.799593</ele>
<time>2012-05-02T09:12:05Z</time>
<desc>lat.=42.449120, lon.=18.574116, Alt.=3.799593m. Speed=26.028000m/h.</desc>
<speed>7.230000</speed>
</trkpt>
<trkpt lat="42.448849" lon="18.574389">
<ele>3.512545</ele>
<time>2012-05-02T09:12:10Z</time>
<desc>lat.=42.448849, lon.=18.574389, Alt.=3.512545m. Speed=24.587999m/h.</desc>
<speed>6.830000</speed>
</trkpt>
<trkpt lat="42.448601" lon="18.574646">
<ele>2.187532</ele>
<time>2012-05-02T09:12:15Z</time>
<desc>lat.=42.448601, lon.=18.574646, Alt.=2.187532m. Speed=24.983999m/h.</desc>
<speed>6.940000</speed>
</trkpt>
<trkpt lat="42.448334" lon="18.574898">
<ele>0.658410</ele>
<time>2012-05-02T09:12:20Z</time>
<desc>lat.=42.448334, lon.=18.574898, Alt.=0.658410m. Speed=28.152000m/h.</desc>
<speed>7.820000</speed>
</trkpt>
<trkpt lat="42.448071" lon="18.575182">
<ele>-1.355210</ele>
<time>2012-05-02T09:12:25Z</time>
<desc>lat.=42.448071, lon.=18.575182, Alt.=-1.355210m. Speed=28.007999m/h.</desc>
<speed>7.780000</speed>
</trkpt>
<trkpt lat="42.447796" lon="18.575472">
<ele>-2.577303</ele>
<time>2012-05-02T09:12:30Z</time>
<desc>lat.=42.447796, lon.=18.575472, Alt.=-2.577303m. Speed=26.820000m/h.</desc>
<speed>7.450000</speed>
</trkpt>
<trkpt lat="42.447506" lon="18.575737">
<ele>-1.186326</ele>
<time>2012-05-02T09:12:35Z</time>
<desc>lat.=42.447506, lon.=18.575737, Alt.=-1.186326m. Speed=28.440001m/h.</desc>
<speed>7.900000</speed>
</trkpt>
<trkpt lat="42.447231" lon="18.576054">
<ele>-1.537980</ele>
<time>2012-05-02T09:12:40Z</time>
<desc>lat.=42.447231, lon.=18.576054, Alt.=-1.537980m. Speed=29.520000m/h.</desc>
<speed>8.200000</speed>
</trkpt>
<trkpt lat="42.446938" lon="18.576355">
<ele>-0.555169</ele>
<time>2012-05-02T09:12:45Z</time>
<desc>lat.=42.446938, lon.=18.576355, Alt.=-0.555169m. Speed=27.035999m/h.</desc>
<speed>7.510000</speed>
</trkpt>
<trkpt lat="42.446667" lon="18.576612">
<ele>-0.887490</ele>
<time>2012-05-02T09:12:50Z</time>
<desc>lat.=42.446667, lon.=18.576612, Alt.=-0.887490m. Speed=25.992001m/h.</desc>
<speed>7.220000</speed>
</trkpt>
<trkpt lat="42.446384" lon="18.576889">
<ele>-1.864305</ele>
<time>2012-05-02T09:12:55Z</time>
<desc>lat.=42.446384, lon.=18.576889, Alt.=-1.864305m. Speed=28.260000m/h.</desc>
<speed>7.850000</speed>
</trkpt>
<trkpt lat="42.446117" lon="18.577143">
<ele>-2.060762</ele>
<time>2012-05-02T09:13:00Z</time>
<desc>lat.=42.446117, lon.=18.577143, Alt.=-2.060762m. Speed=25.488001m/h.</desc>
<speed>7.080000</speed>
</trkpt>
<trkpt lat="42.445885" lon="18.577360">
<ele>-1.844682</ele>
<time>2012-05-02T09:13:05Z</time>
<desc>lat.=42.445885, lon.=18.577360, Alt.=-1.844682m. Speed=17.424000m/h.</desc>
<speed>4.840000</speed>
</trkpt>
<trkpt lat="42.445644" lon="18.577499">
<ele>-2.051363</ele>
<time>2012-05-02T09:13:10Z</time>
<desc>lat.=42.445644, lon.=18.577499, Alt.=-2.051363m. Speed=19.980000m/h.</desc>
<speed>5.550000</speed>
</trkpt>
<trkpt lat="42.445419" lon="18.577635">
<ele>-1.518083</ele>
<time>2012-05-02T09:13:15Z</time>
<desc>lat.=42.445419, lon.=18.577635, Alt.=-1.518083m. Speed=19.260000m/h.</desc>
<speed>5.350000</speed>
</trkpt>
<trkpt lat="42.445206" lon="18.577768">
<ele>-0.014068</ele>
<time>2012-05-02T09:13:20Z</time>
<desc>lat.=42.445206, lon.=18.577768, Alt.=-0.014068m. Speed=18.431999m/h.</desc>
<speed>5.120000</speed>
</trkpt>
<trkpt lat="42.445019" lon="18.577900">
<ele>1.853684</ele>
<time>2012-05-02T09:13:25Z</time>
<desc>lat.=42.445019, lon.=18.577900, Alt.=1.853684m. Speed=14.832000m/h.</desc>
<speed>4.120000</speed>
</trkpt>
<trkpt lat="42.444836" lon="18.578062">
<ele>1.976579</ele>
<time>2012-05-02T09:13:30Z</time>
<desc>lat.=42.444836, lon.=18.578062, Alt.=1.976579m. Speed=18.792000m/h.</desc>
<speed>5.220000</speed>
</trkpt>
<trkpt lat="42.444618" lon="18.578365">
<ele>1.330216</ele>
<time>2012-05-02T09:13:35Z</time>
<desc>lat.=42.444618, lon.=18.578365, Alt.=1.330216m. Speed=26.100000m/h.</desc>
<speed>7.250000</speed>
</trkpt>
<trkpt lat="42.444382" lon="18.578680">
<ele>0.672463</ele>
<time>2012-05-02T09:13:40Z</time>
<desc>lat.=42.444382, lon.=18.578680, Alt.=0.672463m. Speed=24.372000m/h.</desc>
<speed>6.770000</speed>
</trkpt>
<trkpt lat="42.444191" lon="18.579008">
<ele>1.323472</ele>
<time>2012-05-02T09:13:45Z</time>
<desc>lat.=42.444191, lon.=18.579008, Alt.=1.323472m. Speed=24.624001m/h.</desc>
<speed>6.840000</speed>
</trkpt>
<trkpt lat="42.443985" lon="18.579395">
<ele>0.464955</ele>
<time>2012-05-02T09:13:50Z</time>
<desc>lat.=42.443985, lon.=18.579395, Alt.=0.464955m. Speed=22.356001m/h.</desc>
<speed>6.210000</speed>
</trkpt>
<trkpt lat="42.443871" lon="18.579720">
<ele>-1.198075</ele>
<time>2012-05-02T09:13:55Z</time>
<desc>lat.=42.443871, lon.=18.579720, Alt.=-1.198075m. Speed=17.712000m/h.</desc>
<speed>4.920000</speed>
</trkpt>
<trkpt lat="42.443832" lon="18.579861">
<ele>-2.347383</ele>
<time>2012-05-02T09:14:00Z</time>
<desc>lat.=42.443832, lon.=18.579861, Alt.=-2.347383m. Speed=1.944000m/h.</desc>
<speed>0.540000</speed>
</trkpt>
<trkpt lat="42.443840" lon="18.579866">
<ele>-1.990617</ele>
<time>2012-05-02T09:14:05Z</time>
<desc>lat.=42.443840, lon.=18.579866, Alt.=-1.990617m. Speed=0.540000m/h.</desc>
<speed>0.150000</speed>
</trkpt>
<trkpt lat="42.443844" lon="18.579868">
<ele>-2.208590</ele>
<time>2012-05-02T09:14:10Z</time>
<desc>lat.=42.443844, lon.=18.579868, Alt.=-2.208590m. Speed=0.648000m/h.</desc>
<speed>0.180000</speed>
</trkpt>
<trkpt lat="42.443855" lon="18.579876">
<ele>-2.312838</ele>
<time>2012-05-02T09:14:15Z</time>
<desc>lat.=42.443855, lon.=18.579876, Alt.=-2.312838m. Speed=1.080000m/h.</desc>
<speed>0.300000</speed>
</trkpt>
<trkpt lat="42.443859" lon="18.579874">
<ele>-2.360445</ele>
<time>2012-05-02T09:14:20Z</time>
<desc>lat.=42.443859, lon.=18.579874, Alt.=-2.360445m. Speed=0.180000m/h.</desc>
<speed>0.050000</speed>
</trkpt>
<trkpt lat="42.443859" lon="18.579870">
<ele>-2.356234</ele>
<time>2012-05-02T09:14:25Z</time>
<desc>lat.=42.443859, lon.=18.579870, Alt.=-2.356234m. Speed=0.432000m/h.</desc>
<speed>0.120000</speed>
</trkpt>
<trkpt lat="42.443855" lon="18.579868">
<ele>-2.325289</ele>
<time>2012-05-02T09:14:30Z</time>
<desc>lat.=42.443855, lon.=18.579868, Alt.=-2.325289m. Speed=0.180000m/h.</desc>
<speed>0.050000</speed>
</trkpt>
<trkpt lat="42.443851" lon="18.579865">
<ele>-2.282137</ele>
<time>2012-05-02T09:14:35Z</time>
<desc>lat.=42.443851, lon.=18.579865, Alt.=-2.282137m. Speed=0.396000m/h.</desc>
<speed>0.110000</speed>
</trkpt>
<trkpt lat="42.443848" lon="18.579863">
<ele>-2.246798</ele>
<time>2012-05-02T09:14:40Z</time>
<desc>lat.=42.443848, lon.=18.579863, Alt.=-2.246798m. Speed=0.360000m/h.</desc>
<speed>0.100000</speed>
</trkpt>
<trkpt lat="42.443844" lon="18.579861">
<ele>-2.231783</ele>
<time>2012-05-02T09:14:45Z</time>
<desc>lat.=42.443844, lon.=18.579861, Alt.=-2.231783m. Speed=0.144000m/h.</desc>
<speed>0.040000</speed>
</trkpt>
<trkpt lat="42.443844" lon="18.579859">
<ele>-2.211580</ele>
<time>2012-05-02T09:14:50Z</time>
<desc>lat.=42.443844, lon.=18.579859, Alt.=-2.211580m. Speed=0.252000m/h.</desc>
<speed>0.070000</speed>
</trkpt>
<trkpt lat="42.443840" lon="18.579855">
<ele>-2.201815</ele>
<time>2012-05-02T09:14:55Z</time>
<desc>lat.=42.443840, lon.=18.579855, Alt.=-2.201815m. Speed=0.216000m/h.</desc>
<speed>0.060000</speed>
</trkpt>
<trkpt lat="42.443844" lon="18.579855">
<ele>-2.150423</ele>
<time>2012-05-02T09:15:00Z</time>
<desc>lat.=42.443844, lon.=18.579855, Alt.=-2.150423m. Speed=0.360000m/h.</desc>
<speed>0.100000</speed>
</trkpt>
<trkpt lat="42.443844" lon="18.579855">
<ele>-2.079805</ele>
<time>2012-05-02T09:15:05Z</time>
<desc>lat.=42.443844, lon.=18.579855, Alt.=-2.079805m. Speed=0.144000m/h.</desc>
<speed>0.040000</speed>
</trkpt>
<trkpt lat="42.443848" lon="18.579851">
<ele>-1.965226</ele>
<time>2012-05-02T09:15:10Z</time>
<desc>lat.=42.443848, lon.=18.579851, Alt.=-1.965226m. Speed=0.108000m/h.</desc>
<speed>0.030000</speed>
</trkpt>
<trkpt lat="42.443848" lon="18.579853">
<ele>-1.873643</ele>
<time>2012-05-02T09:15:15Z</time>
<desc>lat.=42.443848, lon.=18.579853, Alt.=-1.873643m. Speed=0.036000m/h.</desc>
<speed>0.010000</speed>
</trkpt>
<trkpt lat="42.443848" lon="18.579853">
<ele>-1.781846</ele>
<time>2012-05-02T09:15:20Z</time>
<desc>lat.=42.443848, lon.=18.579853, Alt.=-1.781846m. Speed=0.072000m/h.</desc>
<speed>0.020000</speed>
</trkpt>
<trkpt lat="42.443848" lon="18.579853">
<ele>-1.688310</ele>
<time>2012-05-02T09:15:25Z</time>
<desc>lat.=42.443848, lon.=18.579853, Alt.=-1.688310m. Speed=0.000000m/h.</desc>
<speed>0.000000</speed>
</trkpt>
<trkpt lat="42.443832" lon="18.579859">
<ele>-0.000161</ele>
<time>2012-05-02T09:15:30Z</time>
<desc>lat.=42.443832, lon.=18.579859, Alt.=-0.000161m. Speed=0.000000m/h.</desc>
<speed>0.000000</speed>
</trkpt>
<trkpt lat="42.443817" lon="18.579853">
<ele>2.544588</ele>
<time>2012-05-02T09:15:35Z</time>
<desc>lat.=42.443817, lon.=18.579853, Alt.=2.544588m. Speed=0.036000m/h.</desc>
<speed>0.010000</speed>
</trkpt>
<trkpt lat="42.443806" lon="18.579849">
<ele>3.966829</ele>
<time>2012-05-02T09:15:40Z</time>
<desc>lat.=42.443806, lon.=18.579849, Alt.=3.966829m. Speed=0.036000m/h.</desc>
<speed>0.010000</speed>
</trkpt>
<trkpt lat="42.443787" lon="18.579861">
<ele>4.529118</ele>
<time>2012-05-02T09:15:45Z</time>
<desc>lat.=42.443787, lon.=18.579861, Alt.=4.529118m. Speed=0.036000m/h.</desc>
<speed>0.010000</speed>
</trkpt>
<trkpt lat="42.443779" lon="18.579865">
<ele>5.495792</ele>
<time>2012-05-02T09:15:50Z</time>
<desc>lat.=42.443779, lon.=18.579865, Alt.=5.495792m. Speed=0.000000m/h.</desc>
<speed>0.000000</speed>
</trkpt>
<trkpt lat="42.443775" lon="18.579849">
<ele>7.438908</ele>
<time>2012-05-02T09:15:55Z</time>
<desc>lat.=42.443775, lon.=18.579849, Alt.=7.438908m. Speed=0.036000m/h.</desc>
<speed>0.010000</speed>
</trkpt>
<trkpt lat="42.443760" lon="18.579840">
<ele>8.743294</ele>
<time>2012-05-02T09:16:00Z</time>
<desc>lat.=42.443760, lon.=18.579840, Alt.=8.743294m. Speed=0.000000m/h.</desc>
<speed>0.000000</speed>
</trkpt>
<trkpt lat="42.443752" lon="18.579845">
<ele>9.014046</ele>
<time>2012-05-02T09:16:05Z</time>
<desc>lat.=42.443752, lon.=18.579845, Alt.=9.014046m. Speed=0.036000m/h.</desc>
<speed>0.010000</speed>
</trkpt>
<trkpt lat="42.443748" lon="18.579849">
<ele>10.123177</ele>
<time>2012-05-02T09:16:10Z</time>
<desc>lat.=42.443748, lon.=18.579849, Alt.=10.123177m. Speed=0.000000m/h.</desc>
<speed>0.000000</speed>
</trkpt>
<trkpt lat="42.443748" lon="18.579849">
<ele>10.141975</ele>
<time>2012-05-02T09:16:15Z</time>
<desc>lat.=42.443748, lon.=18.579849, Alt.=10.141975m. Speed=0.000000m/h.</desc>
<speed>0.000000</speed>
</trkpt>
<trkpt lat="42.443748" lon="18.579849">
<ele>10.164192</ele>
<time>2012-05-02T09:16:20Z</time>
<desc>lat.=42.443748, lon.=18.579849, Alt.=10.164192m. Speed=0.000000m/h.</desc>
<speed>0.000000</speed>
</trkpt>
<trkpt lat="42.443748" lon="18.579849">
<ele>10.174202</ele>
<time>2012-05-02T09:16:25Z</time>
<desc>lat.=42.443748, lon.=18.579849, Alt.=10.174202m. Speed=0.000000m/h.</desc>
<speed>0.000000</speed>
</trkpt>
<trkpt lat="42.443748" lon="18.579849">
<ele>10.182503</ele>
<time>2012-05-02T09:16:30Z</time>
<desc>lat.=42.443748, lon.=18.579849, Alt.=10.182503m. Speed=0.000000m/h.</desc>
<speed>0.000000</speed>
</trkpt>
<trkpt lat="42.443748" lon="18.579849">
<ele>10.201790</ele>
<time>2012-05-02T09:16:35Z</time>
<desc>lat.=42.443748, lon.=18.579849, Alt.=10.201790m. Speed=0.000000m/h.</desc>
<speed>0.000000</speed>
</trkpt>
<trkpt lat="42.443748" lon="18.579849">
<ele>10.224007</ele>
<time>2012-05-02T09:16:40Z</time>
<desc>lat.=42.443748, lon.=18.579849, Alt.=10.224007m. Speed=0.000000m/h.</desc>
<speed>0.000000</speed>
</trkpt>
<trkpt lat="42.443748" lon="18.579849">
<ele>10.238655</ele>
<time>2012-05-02T09:16:45Z</time>
<desc>lat.=42.443748, lon.=18.579849, Alt.=10.238655m. Speed=0.036000m/h.</desc>
<speed>0.010000</speed>
</trkpt>
<trkpt lat="42.443748" lon="18.579849">
<ele>10.260628</ele>
<time>2012-05-02T09:16:50Z</time>
<desc>lat.=42.443748, lon.=18.579849, Alt.=10.260628m. Speed=0.000000m/h.</desc>
<speed>0.000000</speed>
</trkpt>
<trkpt lat="42.443748" lon="18.579849">
<ele>10.286018</ele>
<time>2012-05-02T09:16:55Z</time>
<desc>lat.=42.443748, lon.=18.579849, Alt.=10.286018m. Speed=0.000000m/h.</desc>
<speed>0.000000</speed>
</trkpt>
<trkpt lat="42.443748" lon="18.579851">
<ele>10.318001</ele>
<time>2012-05-02T09:17:00Z</time>
<desc>lat.=42.443748, lon.=18.579851, Alt.=10.318001m. Speed=0.036000m/h.</desc>
<speed>0.010000</speed>
</trkpt>
<trkpt lat="42.443748" lon="18.579851">
<ele>10.367561</ele>
<time>2012-05-02T09:17:05Z</time>
<desc>lat.=42.443748, lon.=18.579851, Alt.=10.367561m. Speed=0.036000m/h.</desc>
<speed>0.010000</speed>
</trkpt>
<trkpt lat="42.443748" lon="18.579851">
<ele>10.388802</ele>
<time>2012-05-02T09:17:10Z</time>
<desc>lat.=42.443748, lon.=18.579851, Alt.=10.388802m. Speed=0.000000m/h.</desc>
<speed>0.000000</speed>
</trkpt>
<trkpt lat="42.443748" lon="18.579851">
<ele>10.405403</ele>
<time>2012-05-02T09:17:15Z</time>
<desc>lat.=42.443748, lon.=18.579851, Alt.=10.405403m. Speed=0.072000m/h.</desc>
<speed>0.020000</speed>
</trkpt>
<trkpt lat="42.443748" lon="18.579851">
<ele>10.423958</ele>
<time>2012-05-02T09:17:20Z</time>
<desc>lat.=42.443748, lon.=18.579851, Alt.=10.423958m. Speed=0.000000m/h.</desc>
<speed>0.000000</speed>
</trkpt>
<trkpt lat="42.443748" lon="18.579851">
<ele>10.478889</ele>
<time>2012-05-02T09:17:25Z</time>
<desc>lat.=42.443748, lon.=18.579851, Alt.=10.478889m. Speed=0.000000m/h.</desc>
<speed>0.000000</speed>
</trkpt>
<trkpt lat="42.443748" lon="18.579851">
<ele>10.516975</ele>
<time>2012-05-02T09:17:30Z</time>
<desc>lat.=42.443748, lon.=18.579851, Alt.=10.516975m. Speed=0.000000m/h.</desc>
<speed>0.000000</speed>
</trkpt>
<trkpt lat="42.443748" lon="18.579851">
<ele>10.531136</ele>
<time>2012-05-02T09:17:35Z</time>
<desc>lat.=42.443748, lon.=18.579851, Alt.=10.531136m. Speed=0.036000m/h.</desc>
<speed>0.010000</speed>
</trkpt>
<trkpt lat="42.443745" lon="18.579853">
<ele>10.556526</ele>
<time>2012-05-02T09:17:40Z</time>
<desc>lat.=42.443745, lon.=18.579853, Alt.=10.556526m. Speed=0.036000m/h.</desc>
<speed>0.010000</speed>
</trkpt>
<trkpt lat="42.443745" lon="18.579853">
<ele>10.594612</ele>
<time>2012-05-02T09:17:45Z</time>
<desc>lat.=42.443745, lon.=18.579853, Alt.=10.594612m. Speed=0.000000m/h.</desc>
<speed>0.000000</speed>
</trkpt>
<trkpt lat="42.443745" lon="18.579853">
<ele>10.609016</ele>
<time>2012-05-02T09:17:50Z</time>
<desc>lat.=42.443745, lon.=18.579853, Alt.=10.609016m. Speed=0.000000m/h.</desc>
<speed>0.000000</speed>
</trkpt>
<trkpt lat="42.443745" lon="18.579853">
<ele>10.630013</ele>
<time>2012-05-02T09:17:55Z</time>
<desc>lat.=42.443745, lon.=18.579853, Alt.=10.630013m. Speed=0.000000m/h.</desc>
<speed>0.000000</speed>
</trkpt>
<trkpt lat="42.443745" lon="18.579853">
<ele>10.643684</ele>
<time>2012-05-02T09:18:00Z</time>
<desc>lat.=42.443745, lon.=18.579853, Alt.=10.643684m. Speed=0.000000m/h.</desc>
<speed>0.000000</speed>
</trkpt>
<trkpt lat="42.443745" lon="18.579853">
<ele>10.645149</ele>
<time>2012-05-02T09:18:05Z</time>
<desc>lat.=42.443745, lon.=18.579853, Alt.=10.645149m. Speed=0.000000m/h.</desc>
<speed>0.000000</speed>
</trkpt>
<trkpt lat="42.443745" lon="18.579853">
<ele>10.660042</ele>
<time>2012-05-02T09:18:10Z</time>
<desc>lat.=42.443745, lon.=18.579853, Alt.=10.660042m. Speed=0.000000m/h.</desc>
<speed>0.000000</speed>
</trkpt>
<trkpt lat="42.443745" lon="18.579855">
<ele>10.686653</ele>
<time>2012-05-02T09:18:15Z</time>
<desc>lat.=42.443745, lon.=18.579855, Alt.=10.686653m. Speed=0.036000m/h.</desc>
<speed>0.010000</speed>
</trkpt>
<trkpt lat="42.443745" lon="18.579855">
<ele>10.704231</ele>
<time>2012-05-02T09:18:20Z</time>
<desc>lat.=42.443745, lon.=18.579855, Alt.=10.704231m. Speed=0.036000m/h.</desc>
<speed>0.010000</speed>
</trkpt>
<trkpt lat="42.443745" lon="18.579855">
<ele>10.728645</ele>
<time>2012-05-02T09:18:25Z</time>
<desc>lat.=42.443745, lon.=18.579855, Alt.=10.728645m. Speed=0.000000m/h.</desc>
<speed>0.000000</speed>
</trkpt>
<trkpt lat="42.443745" lon="18.579855">
<ele>10.769173</ele>
<time>2012-05-02T09:18:30Z</time>
<desc>lat.=42.443745, lon.=18.579855, Alt.=10.769173m. Speed=0.000000m/h.</desc>
<speed>0.000000</speed>
</trkpt>
<trkpt lat="42.443745" lon="18.579855">
<ele>10.819466</ele>
<time>2012-05-02T09:18:35Z</time>
<desc>lat.=42.443745, lon.=18.579855, Alt.=10.819466m. Speed=0.000000m/h.</desc>
<speed>0.000000</speed>
</trkpt>
<trkpt lat="42.443745" lon="18.579855">
<ele>10.813118</ele>
<time>2012-05-02T09:18:40Z</time>
<desc>lat.=42.443745, lon.=18.579855, Alt.=10.813118m. Speed=0.036000m/h.</desc>
<speed>0.010000</speed>
</trkpt>
<trkpt lat="42.443745" lon="18.579855">
<ele>10.788704</ele>
<time>2012-05-02T09:18:45Z</time>
<desc>lat.=42.443745, lon.=18.579855, Alt.=10.788704m. Speed=0.000000m/h.</desc>
<speed>0.000000</speed>
</trkpt>
<trkpt lat="42.443745" lon="18.579855">
<ele>10.754768</ele>
<time>2012-05-02T09:18:50Z</time>
<desc>lat.=42.443745, lon.=18.579855, Alt.=10.754768m. Speed=0.000000m/h.</desc>
<speed>0.000000</speed>
</trkpt>
<trkpt lat="42.443745" lon="18.579855">
<ele>10.744270</ele>
<time>2012-05-02T09:18:55Z</time>
<desc>lat.=42.443745, lon.=18.579855, Alt.=10.744270m. Speed=0.000000m/h.</desc>
<speed>0.000000</speed>
</trkpt>
<trkpt lat="42.443748" lon="18.579855">
<ele>10.724739</ele>
<time>2012-05-02T09:19:00Z</time>
<desc>lat.=42.443748, lon.=18.579855, Alt.=10.724739m. Speed=0.000000m/h.</desc>
<speed>0.000000</speed>
</trkpt>
<trkpt lat="42.443748" lon="18.579855">
<ele>10.711800</ele>
<time>2012-05-02T09:19:05Z</time>
<desc>lat.=42.443748, lon.=18.579855, Alt.=10.711800m. Speed=0.000000m/h.</desc>
<speed>0.000000</speed>
</trkpt>
<trkpt lat="42.443748" lon="18.579855">
<ele>10.709602</ele>
<time>2012-05-02T09:19:10Z</time>
<desc>lat.=42.443748, lon.=18.579855, Alt.=10.709602m. Speed=0.000000m/h.</desc>
<speed>0.000000</speed>
</trkpt>
<trkpt lat="42.443748" lon="18.579855">
<ele>10.712044</ele>
<time>2012-05-02T09:19:15Z</time>
<desc>lat.=42.443748, lon.=18.579855, Alt.=10.712044m. Speed=0.000000m/h.</desc>
<speed>0.000000</speed>
</trkpt>
<trkpt lat="42.443748" lon="18.579855">
<ele>10.709358</ele>
<time>2012-05-02T09:19:20Z</time>
<desc>lat.=42.443748, lon.=18.579855, Alt.=10.709358m. Speed=0.000000m/h.</desc>
<speed>0.000000</speed>
</trkpt>
<trkpt lat="42.443748" lon="18.579855">
<ele>10.701790</ele>
<time>2012-05-02T09:19:25Z</time>
<desc>lat.=42.443748, lon.=18.579855, Alt.=10.701790m. Speed=0.000000m/h.</desc>
<speed>0.000000</speed>
</trkpt>
<trkpt lat="42.443748" lon="18.579855">
<ele>10.695198</ele>
<time>2012-05-02T09:19:30Z</time>
<desc>lat.=42.443748, lon.=18.579855, Alt.=10.695198m. Speed=0.000000m/h.</desc>
<speed>0.000000</speed>
</trkpt>
<trkpt lat="42.443748" lon="18.579855">
<ele>10.702278</ele>
<time>2012-05-02T09:19:35Z</time>
<desc>lat.=42.443748, lon.=18.579855, Alt.=10.702278m. Speed=0.036000m/h.</desc>
<speed>0.010000</speed>
</trkpt>
<trkpt lat="42.443748" lon="18.579855">
<ele>10.720589</ele>
<time>2012-05-02T09:19:40Z</time>
<desc>lat.=42.443748, lon.=18.579855, Alt.=10.720589m. Speed=0.000000m/h.</desc>
<speed>0.000000</speed>
</trkpt>
<trkpt lat="42.443748" lon="18.579855">
<ele>10.721077</ele>
<time>2012-05-02T09:19:45Z</time>
<desc>lat.=42.443748, lon.=18.579855, Alt.=10.721077m. Speed=0.000000m/h.</desc>
<speed>0.000000</speed>
</trkpt>
<trkpt lat="42.443748" lon="18.579855">
<ele>10.727180</ele>
<time>2012-05-02T09:19:50Z</time>
<desc>lat.=42.443748, lon.=18.579855, Alt.=10.727180m. Speed=0.036000m/h.</desc>
<speed>0.010000</speed>
</trkpt>
<trkpt lat="42.443748" lon="18.579855">
<ele>10.735481</ele>
<time>2012-05-02T09:19:55Z</time>
<desc>lat.=42.443748, lon.=18.579855, Alt.=10.735481m. Speed=0.000000m/h.</desc>
<speed>0.000000</speed>
</trkpt>
<trkpt lat="42.443748" lon="18.579855">
<ele>10.740608</ele>
<time>2012-05-02T09:20:00Z</time>
<desc>lat.=42.443748, lon.=18.579855, Alt.=10.740608m. Speed=0.000000m/h.</desc>
<speed>0.000000</speed>
</trkpt>
<trkpt lat="42.443748" lon="18.579855">
<ele>10.742073</ele>
<time>2012-05-02T09:20:05Z</time>
<desc>lat.=42.443748, lon.=18.579855, Alt.=10.742073m. Speed=0.000000m/h.</desc>
<speed>0.000000</speed>
</trkpt>
<trkpt lat="42.443748" lon="18.579855">
<ele>10.731819</ele>
<time>2012-05-02T09:20:10Z</time>
<desc>lat.=42.443748, lon.=18.579855, Alt.=10.731819m. Speed=0.000000m/h.</desc>
<speed>0.000000</speed>
</trkpt>
<trkpt lat="42.443748" lon="18.579855">
<ele>10.741341</ele>
<time>2012-05-02T09:20:15Z</time>
<desc>lat.=42.443748, lon.=18.579855, Alt.=10.741341m. Speed=0.000000m/h.</desc>
<speed>0.000000</speed>
</trkpt>
<trkpt lat="42.443748" lon="18.579855">
<ele>10.746956</ele>
<time>2012-05-02T09:20:20Z</time>
<desc>lat.=42.443748, lon.=18.579855, Alt.=10.746956m. Speed=0.000000m/h.</desc>
<speed>0.000000</speed>
</trkpt>
<trkpt lat="42.443748" lon="18.579855">
<ele>10.752571</ele>
<time>2012-05-02T09:20:25Z</time>
<desc>lat.=42.443748, lon.=18.579855, Alt.=10.752571m. Speed=0.000000m/h.</desc>
<speed>0.000000</speed>
</trkpt>
<trkpt lat="42.443748" lon="18.579857">
<ele>10.749641</ele>
<time>2012-05-02T09:20:30Z</time>
<desc>lat.=42.443748, lon.=18.579857, Alt.=10.749641m. Speed=0.000000m/h.</desc>
<speed>0.000000</speed>
</trkpt>
<trkpt lat="42.443748" lon="18.579857">
<ele>10.751595</ele>
<time>2012-05-02T09:20:35Z</time>
<desc>lat.=42.443748, lon.=18.579857, Alt.=10.751595m. Speed=0.000000m/h.</desc>
<speed>0.000000</speed>
</trkpt>
<trkpt lat="42.443756" lon="18.579870">
<ele>10.734505</ele>
<time>2012-05-02T09:20:40Z</time>
<desc>lat.=42.443756, lon.=18.579870, Alt.=10.734505m. Speed=1.404000m/h.</desc>
<speed>0.390000</speed>
</trkpt>
<trkpt lat="42.443760" lon="18.579906">
<ele>10.620491</ele>
<time>2012-05-02T09:20:45Z</time>
<desc>lat.=42.443760, lon.=18.579906, Alt.=10.620491m. Speed=1.512000m/h.</desc>
<speed>0.420000</speed>
</trkpt>
<trkpt lat="42.443756" lon="18.579935">
<ele>10.381233</ele>
<time>2012-05-02T09:20:50Z</time>
<desc>lat.=42.443756, lon.=18.579935, Alt.=10.381233m. Speed=1.296000m/h.</desc>
<speed>0.360000</speed>
</trkpt>
<trkpt lat="42.443752" lon="18.579971">
<ele>10.148079</ele>
<time>2012-05-02T09:20:55Z</time>
<desc>lat.=42.443752, lon.=18.579971, Alt.=10.148079m. Speed=1.908000m/h.</desc>
<speed>0.530000</speed>
</trkpt>
<trkpt lat="42.443752" lon="18.579979">
<ele>10.812386</ele>
<time>2012-05-02T09:21:00Z</time>
<desc>lat.=42.443752, lon.=18.579979, Alt.=10.812386m. Speed=0.396000m/h.</desc>
<speed>0.110000</speed>
</trkpt>
<trkpt lat="42.443752" lon="18.579994">
<ele>10.642464</ele>
<time>2012-05-02T09:21:05Z</time>
<desc>lat.=42.443752, lon.=18.579994, Alt.=10.642464m. Speed=0.432000m/h.</desc>
<speed>0.120000</speed>
</trkpt>
<trkpt lat="42.443748" lon="18.579996">
<ele>10.144661</ele>
<time>2012-05-02T09:21:10Z</time>
<desc>lat.=42.443748, lon.=18.579996, Alt.=10.144661m. Speed=1.800000m/h.</desc>
<speed>0.500000</speed>
</trkpt>
<trkpt lat="42.443752" lon="18.579990">
<ele>8.880257</ele>
<time>2012-05-02T09:21:15Z</time>
<desc>lat.=42.443752, lon.=18.579990, Alt.=8.880257m. Speed=0.216000m/h.</desc>
<speed>0.060000</speed>
</trkpt>
<trkpt lat="42.443756" lon="18.579990">
<ele>8.150764</ele>
<time>2012-05-02T09:21:20Z</time>
<desc>lat.=42.443756, lon.=18.579990, Alt.=8.150764m. Speed=0.288000m/h.</desc>
<speed>0.080000</speed>
</trkpt>
<trkpt lat="42.443756" lon="18.579988">
<ele>7.842716</ele>
<time>2012-05-02T09:21:25Z</time>
<desc>lat.=42.443756, lon.=18.579988, Alt.=7.842716m. Speed=0.072000m/h.</desc>
<speed>0.020000</speed>
</trkpt>
<trkpt lat="42.443756" lon="18.579988">
<ele>7.840275</ele>
<time>2012-05-02T09:21:30Z</time>
<desc>lat.=42.443756, lon.=18.579988, Alt.=7.840275m. Speed=0.036000m/h.</desc>
<speed>0.010000</speed>
</trkpt>
<trkpt lat="42.443756" lon="18.579988">
<ele>7.834049</ele>
<time>2012-05-02T09:21:35Z</time>
<desc>lat.=42.443756, lon.=18.579988, Alt.=7.834049m. Speed=0.072000m/h.</desc>
<speed>0.020000</speed>
</trkpt>
<trkpt lat="42.443760" lon="18.579990">
<ele>7.824772</ele>
<time>2012-05-02T09:21:40Z</time>
<desc>lat.=42.443760, lon.=18.579990, Alt.=7.824772m. Speed=0.000000m/h.</desc>
<speed>0.000000</speed>
</trkpt>
<trkpt lat="42.443760" lon="18.579988">
<ele>7.815739</ele>
<time>2012-05-02T09:21:45Z</time>
<desc>lat.=42.443760, lon.=18.579988, Alt.=7.815739m. Speed=0.000000m/h.</desc>
<speed>0.000000</speed>
</trkpt>
<trkpt lat="42.443760" lon="18.579988">
<ele>7.805363</ele>
<time>2012-05-02T09:21:50Z</time>
<desc>lat.=42.443760, lon.=18.579988, Alt.=7.805363m. Speed=0.072000m/h.</desc>
<speed>0.020000</speed>
</trkpt>
<trkpt lat="42.443760" lon="18.579988">
<ele>7.806217</ele>
<time>2012-05-02T09:21:55Z</time>
<desc>lat.=42.443760, lon.=18.579988, Alt.=7.806217m. Speed=0.000000m/h.</desc>
<speed>0.000000</speed>
</trkpt>
<trkpt lat="42.443760" lon="18.579988">
<ele>7.822575</ele>
<time>2012-05-02T09:22:00Z</time>
<desc>lat.=42.443760, lon.=18.579988, Alt.=7.822575m. Speed=0.144000m/h.</desc>
<speed>0.040000</speed>
</trkpt>
<trkpt lat="42.443760" lon="18.579988">
<ele>7.832462</ele>
<time>2012-05-02T09:22:05Z</time>
<desc>lat.=42.443760, lon.=18.579988, Alt.=7.832462m. Speed=0.036000m/h.</desc>
<speed>0.010000</speed>
</trkpt>
<trkpt lat="42.443760" lon="18.579988">
<ele>7.806583</ele>
<time>2012-05-02T09:22:10Z</time>
<desc>lat.=42.443760, lon.=18.579988, Alt.=7.806583m. Speed=0.144000m/h.</desc>
<speed>0.040000</speed>
</trkpt>
<trkpt lat="42.443760" lon="18.579988">
<ele>7.759464</ele>
<time>2012-05-02T09:22:15Z</time>
<desc>lat.=42.443760, lon.=18.579988, Alt.=7.759464m. Speed=0.000000m/h.</desc>
<speed>0.000000</speed>
</trkpt>
<trkpt lat="42.443760" lon="18.579988">
<ele>7.701115</ele>
<time>2012-05-02T09:22:20Z</time>
<desc>lat.=42.443760, lon.=18.579988, Alt.=7.701115m. Speed=0.072000m/h.</desc>
<speed>0.020000</speed>
</trkpt>
<trkpt lat="42.443760" lon="18.579990">
<ele>7.622013</ele>
<time>2012-05-02T09:22:25Z</time>
<desc>lat.=42.443760, lon.=18.579990, Alt.=7.622013m. Speed=0.072000m/h.</desc>
<speed>0.020000</speed>
</trkpt>
<trkpt lat="42.443760" lon="18.579990">
<ele>7.551334</ele>
<time>2012-05-02T09:22:30Z</time>
<desc>lat.=42.443760, lon.=18.579990, Alt.=7.551334m. Speed=0.072000m/h.</desc>
<speed>0.020000</speed>
</trkpt>
<trkpt lat="42.443760" lon="18.579990">
<ele>7.515568</ele>
<time>2012-05-02T09:22:35Z</time>
<desc>lat.=42.443760, lon.=18.579990, Alt.=7.515568m. Speed=0.036000m/h.</desc>
<speed>0.010000</speed>
</trkpt>
<trkpt lat="42.443760" lon="18.579990">
<ele>7.496891</ele>
<time>2012-05-02T09:22:40Z</time>
<desc>lat.=42.443760, lon.=18.579990, Alt.=7.496891m. Speed=0.000000m/h.</desc>
<speed>0.000000</speed>
</trkpt>
<trkpt lat="42.443760" lon="18.579990">
<ele>7.460636</ele>
<time>2012-05-02T09:22:45Z</time>
<desc>lat.=42.443760, lon.=18.579990, Alt.=7.460636m. Speed=0.000000m/h.</desc>
<speed>0.000000</speed>
</trkpt>
<trkpt lat="42.443760" lon="18.579990">
<ele>7.452946</ele>
<time>2012-05-02T09:22:50Z</time>
<desc>lat.=42.443760, lon.=18.579990, Alt.=7.452946m. Speed=0.000000m/h.</desc>
<speed>0.000000</speed>
</trkpt>
<trkpt lat="42.443760" lon="18.579990">
<ele>7.469547</ele>
<time>2012-05-02T09:22:55Z</time>
<desc>lat.=42.443760, lon.=18.579990, Alt.=7.469547m. Speed=0.036000m/h.</desc>
<speed>0.010000</speed>
</trkpt>
<trkpt lat="42.443760" lon="18.579990">
<ele>7.477482</ele>
<time>2012-05-02T09:23:00Z</time>
<desc>lat.=42.443760, lon.=18.579990, Alt.=7.477482m. Speed=0.000000m/h.</desc>
<speed>0.000000</speed>
</trkpt>
<trkpt lat="42.443760" lon="18.579990">
<ele>7.463322</ele>
<time>2012-05-02T09:23:05Z</time>
<desc>lat.=42.443760, lon.=18.579990, Alt.=7.463322m. Speed=0.036000m/h.</desc>
<speed>0.010000</speed>
</trkpt>
<trkpt lat="42.443760" lon="18.579990">
<ele>7.426212</ele>
<time>2012-05-02T09:23:10Z</time>
<desc>lat.=42.443760, lon.=18.579990, Alt.=7.426212m. Speed=0.108000m/h.</desc>
<speed>0.030000</speed>
</trkpt>
<trkpt lat="42.443760" lon="18.579990">
<ele>7.375065</ele>
<time>2012-05-02T09:23:15Z</time>
<desc>lat.=42.443760, lon.=18.579990, Alt.=7.375065m. Speed=0.072000m/h.</desc>
<speed>0.020000</speed>
</trkpt>
<trkpt lat="42.443760" lon="18.579992">
<ele>7.355656</ele>
<time>2012-05-02T09:23:20Z</time>
<desc>lat.=42.443760, lon.=18.579992, Alt.=7.355656m. Speed=0.000000m/h.</desc>
<speed>0.000000</speed>
</trkpt>
<trkpt lat="42.443760" lon="18.579992">
<ele>7.381657</ele>
<time>2012-05-02T09:23:25Z</time>
<desc>lat.=42.443760, lon.=18.579992, Alt.=7.381657m. Speed=0.072000m/h.</desc>
<speed>0.020000</speed>
</trkpt>
<trkpt lat="42.443760" lon="18.579992">
<ele>7.379093</ele>
<time>2012-05-02T09:23:30Z</time>
<desc>lat.=42.443760, lon.=18.579992, Alt.=7.379093m. Speed=0.108000m/h.</desc>
<speed>0.030000</speed>
</trkpt>
<trkpt lat="42.443760" lon="18.579992">
<ele>7.323307</ele>
<time>2012-05-02T09:23:35Z</time>
<desc>lat.=42.443760, lon.=18.579992, Alt.=7.323307m. Speed=0.072000m/h.</desc>
<speed>0.020000</speed>
</trkpt>
<trkpt lat="42.443760" lon="18.579992">
<ele>7.264835</ele>
<time>2012-05-02T09:23:40Z</time>
<desc>lat.=42.443760, lon.=18.579992, Alt.=7.264835m. Speed=0.036000m/h.</desc>
<speed>0.010000</speed>
</trkpt>
<trkpt lat="42.443760" lon="18.579992">
<ele>7.211613</ele>
<time>2012-05-02T09:23:45Z</time>
<desc>lat.=42.443760, lon.=18.579992, Alt.=7.211613m. Speed=0.036000m/h.</desc>
<speed>0.010000</speed>
</trkpt>
<trkpt lat="42.443760" lon="18.579992">
<ele>7.182560</ele>
<time>2012-05-02T09:23:50Z</time>
<desc>lat.=42.443760, lon.=18.579992, Alt.=7.182560m. Speed=0.000000m/h.</desc>
<speed>0.000000</speed>
</trkpt>
<trkpt lat="42.443760" lon="18.579992">
<ele>7.178532</ele>
<time>2012-05-02T09:23:55Z</time>
<desc>lat.=42.443760, lon.=18.579992, Alt.=7.178532m. Speed=0.000000m/h.</desc>
<speed>0.000000</speed>
</trkpt>
<trkpt lat="42.443760" lon="18.579992">
<ele>7.174381</ele>
<time>2012-05-02T09:24:00Z</time>
<desc>lat.=42.443760, lon.=18.579992, Alt.=7.174381m. Speed=0.036000m/h.</desc>
<speed>0.010000</speed>
</trkpt>
<trkpt lat="42.443760" lon="18.579992">
<ele>7.183170</ele>
<time>2012-05-02T09:24:05Z</time>
<desc>lat.=42.443760, lon.=18.579992, Alt.=7.183170m. Speed=0.036000m/h.</desc>
<speed>0.010000</speed>
</trkpt>
<trkpt lat="42.443760" lon="18.579992">
<ele>7.203922</ele>
<time>2012-05-02T09:24:10Z</time>
<desc>lat.=42.443760, lon.=18.579992, Alt.=7.203922m. Speed=0.036000m/h.</desc>
<speed>0.010000</speed>
</trkpt>
<trkpt lat="42.443760" lon="18.579992">
<ele>7.267521</ele>
<time>2012-05-02T09:24:15Z</time>
<desc>lat.=42.443760, lon.=18.579992, Alt.=7.267521m. Speed=0.108000m/h.</desc>
<speed>0.030000</speed>
</trkpt>
<trkpt lat="42.443756" lon="18.579994">
<ele>7.320621</ele>
<time>2012-05-02T09:24:20Z</time>
<desc>lat.=42.443756, lon.=18.579994, Alt.=7.320621m. Speed=0.900000m/h.</desc>
<speed>0.250000</speed>
</trkpt>
<trkpt lat="42.443748" lon="18.580008">
<ele>8.138069</ele>
<time>2012-05-02T09:24:25Z</time>
<desc>lat.=42.443748, lon.=18.580008, Alt.=8.138069m. Speed=0.072000m/h.</desc>
<speed>0.020000</speed>
</trkpt>
<trkpt lat="42.443745" lon="18.580021">
<ele>9.163460</ele>
<time>2012-05-02T09:24:30Z</time>
<desc>lat.=42.443745, lon.=18.580021, Alt.=9.163460m. Speed=2.484000m/h.</desc>
<speed>0.690000</speed>
</trkpt>
<trkpt lat="42.443733" lon="18.580025">
<ele>8.862190</ele>
<time>2012-05-02T09:24:35Z</time>
<desc>lat.=42.443733, lon.=18.580025, Alt.=8.862190m. Speed=0.108000m/h.</desc>
<speed>0.030000</speed>
</trkpt>
<trkpt lat="42.443733" lon="18.580025">
<ele>8.757698</ele>
<time>2012-05-02T09:24:40Z</time>
<desc>lat.=42.443733, lon.=18.580025, Alt.=8.757698m. Speed=0.036000m/h.</desc>
<speed>0.010000</speed>
</trkpt>
<trkpt lat="42.443737" lon="18.580027">
<ele>8.721809</ele>
<time>2012-05-02T09:24:45Z</time>
<desc>lat.=42.443737, lon.=18.580027, Alt.=8.721809m. Speed=0.216000m/h.</desc>
<speed>0.060000</speed>
</trkpt>
<trkpt lat="42.443733" lon="18.580027">
<ele>8.735237</ele>
<time>2012-05-02T09:24:50Z</time>
<desc>lat.=42.443733, lon.=18.580027, Alt.=8.735237m. Speed=0.396000m/h.</desc>
<speed>0.110000</speed>
</trkpt>
<trkpt lat="42.443714" lon="18.580109">
<ele>9.373909</ele>
<time>2012-05-02T09:24:55Z</time>
<desc>lat.=42.443714, lon.=18.580109, Alt.=9.373909m. Speed=7.812000m/h.</desc>
<speed>2.170000</speed>
</trkpt>
<trkpt lat="42.443634" lon="18.580362">
<ele>8.806770</ele>
<time>2012-05-02T09:25:00Z</time>
<desc>lat.=42.443634, lon.=18.580362, Alt.=8.806770m. Speed=18.756001m/h.</desc>
<speed>5.210000</speed>
</trkpt>
<trkpt lat="42.443516" lon="18.580744">
<ele>6.711002</ele>
<time>2012-05-02T09:25:05Z</time>
<desc>lat.=42.443516, lon.=18.580744, Alt.=6.711002m. Speed=24.732000m/h.</desc>
<speed>6.870000</speed>
</trkpt>
<trkpt lat="42.443405" lon="18.581213">
<ele>3.883699</ele>
<time>2012-05-02T09:25:10Z</time>
<desc>lat.=42.443405, lon.=18.581213, Alt.=3.883699m. Speed=32.040001m/h.</desc>
<speed>8.900000</speed>
</trkpt>
<trkpt lat="42.443268" lon="18.581707">
<ele>1.346269</ele>
<time>2012-05-02T09:25:15Z</time>
<desc>lat.=42.443268, lon.=18.581707, Alt.=1.346269m. Speed=29.771999m/h.</desc>
<speed>8.270000</speed>
</trkpt>
<trkpt lat="42.442986" lon="18.582041">
<ele>0.642174</ele>
<time>2012-05-02T09:25:20Z</time>
<desc>lat.=42.442986, lon.=18.582041, Alt.=0.642174m. Speed=28.115999m/h.</desc>
<speed>7.810000</speed>
</trkpt>
<trkpt lat="42.442741" lon="18.582283">
<ele>0.502602</ele>
<time>2012-05-02T09:25:25Z</time>
<desc>lat.=42.442741, lon.=18.582283, Alt.=0.502602m. Speed=22.104000m/h.</desc>
<speed>6.140000</speed>
</trkpt>
<trkpt lat="42.442543" lon="18.582544">
<ele>1.877030</ele>
<time>2012-05-02T09:25:30Z</time>
<desc>lat.=42.442543, lon.=18.582544, Alt.=1.877030m. Speed=20.844000m/h.</desc>
<speed>5.790000</speed>
</trkpt>
<trkpt lat="42.442360" lon="18.582745">
<ele>1.349595</ele>
<time>2012-05-02T09:25:35Z</time>
<desc>lat.=42.442360, lon.=18.582745, Alt.=1.349595m. Speed=9.432000m/h.</desc>
<speed>2.620000</speed>
</trkpt>
<trkpt lat="42.442329" lon="18.582766">
<ele>-1.017259</ele>
<time>2012-05-02T09:25:40Z</time>
<desc>lat.=42.442329, lon.=18.582766, Alt.=-1.017259m. Speed=3.060000m/h.</desc>
<speed>0.850000</speed>
</trkpt>
<trkpt lat="42.442249" lon="18.582832">
<ele>-0.479313</ele>
<time>2012-05-02T09:25:45Z</time>
<desc>lat.=42.442249, lon.=18.582832, Alt.=-0.479313m. Speed=9.576000m/h.</desc>
<speed>2.660000</speed>
</trkpt>
<trkpt lat="42.442154" lon="18.582941">
<ele>0.222647</ele>
<time>2012-05-02T09:25:50Z</time>
<desc>lat.=42.442154, lon.=18.582941, Alt.=0.222647m. Speed=11.376000m/h.</desc>
<speed>3.160000</speed>
</trkpt>
<trkpt lat="42.441986" lon="18.583054">
<ele>1.600236</ele>
<time>2012-05-02T09:25:55Z</time>
<desc>lat.=42.441986, lon.=18.583054, Alt.=1.600236m. Speed=17.100000m/h.</desc>
<speed>4.750000</speed>
</trkpt>
<trkpt lat="42.441769" lon="18.583183">
<ele>2.621859</ele>
<time>2012-05-02T09:26:00Z</time>
<desc>lat.=42.441769, lon.=18.583183, Alt.=2.621859m. Speed=19.728001m/h.</desc>
<speed>5.480000</speed>
</trkpt>
<trkpt lat="42.441536" lon="18.583302">
<ele>3.569246</ele>
<time>2012-05-02T09:26:05Z</time>
<desc>lat.=42.441536, lon.=18.583302, Alt.=3.569246m. Speed=19.260000m/h.</desc>
<speed>5.350000</speed>
</trkpt>
<trkpt lat="42.441299" lon="18.583418">
<ele>3.675631</ele>
<time>2012-05-02T09:26:10Z</time>
<desc>lat.=42.441299, lon.=18.583418, Alt.=3.675631m. Speed=21.275999m/h.</desc>
<speed>5.910000</speed>
</trkpt>
<trkpt lat="42.441135" lon="18.583595">
<ele>3.257967</ele>
<time>2012-05-02T09:26:15Z</time>
<desc>lat.=42.441135, lon.=18.583595, Alt.=3.257967m. Speed=18.143999m/h.</desc>
<speed>5.040000</speed>
</trkpt>
<trkpt lat="42.440910" lon="18.583828">
<ele>1.880479</ele>
<time>2012-05-02T09:26:20Z</time>
<desc>lat.=42.440910, lon.=18.583828, Alt.=1.880479m. Speed=22.788000m/h.</desc>
<speed>6.330000</speed>
</trkpt>
<trkpt lat="42.440723" lon="18.584085">
<ele>1.371232</ele>
<time>2012-05-02T09:26:25Z</time>
<desc>lat.=42.440723, lon.=18.584085, Alt.=1.371232m. Speed=21.959999m/h.</desc>
<speed>6.100000</speed>
</trkpt>
<trkpt lat="42.440510" lon="18.584387">
<ele>1.158982</ele>
<time>2012-05-02T09:26:30Z</time>
<desc>lat.=42.440510, lon.=18.584387, Alt.=1.158982m. Speed=23.112000m/h.</desc>
<speed>6.420000</speed>
</trkpt>
<trkpt lat="42.440311" lon="18.584639">
<ele>-0.010574</ele>
<time>2012-05-02T09:26:35Z</time>
<desc>lat.=42.440311, lon.=18.584639, Alt.=-0.010574m. Speed=19.115999m/h.</desc>
<speed>5.310000</speed>
</trkpt>
<trkpt lat="42.440159" lon="18.584944">
<ele>-0.287800</ele>
<time>2012-05-02T09:26:40Z</time>
<desc>lat.=42.440159, lon.=18.584944, Alt.=-0.287800m. Speed=22.680000m/h.</desc>
<speed>6.300000</speed>
</trkpt>
<trkpt lat="42.440018" lon="18.585302">
<ele>0.562951</ele>
<time>2012-05-02T09:26:45Z</time>
<desc>lat.=42.440018, lon.=18.585302, Alt.=0.562951m. Speed=22.284000m/h.</desc>
<speed>6.190000</speed>
</trkpt>
<trkpt lat="42.439850" lon="18.585581">
<ele>-0.089049</ele>
<time>2012-05-02T09:26:50Z</time>
<desc>lat.=42.439850, lon.=18.585581, Alt.=-0.089049m. Speed=20.771999m/h.</desc>
<speed>5.770000</speed>
</trkpt>
<trkpt lat="42.439659" lon="18.585873">
<ele>-0.349201</ele>
<time>2012-05-02T09:26:55Z</time>
<desc>lat.=42.439659, lon.=18.585873, Alt.=-0.349201m. Speed=24.228001m/h.</desc>
<speed>6.730000</speed>
</trkpt>
<trkpt lat="42.439461" lon="18.586176">
<ele>0.209978</ele>
<time>2012-05-02T09:27:00Z</time>
<desc>lat.=42.439461, lon.=18.586176, Alt.=0.209978m. Speed=23.364000m/h.</desc>
<speed>6.490000</speed>
</trkpt>
<trkpt lat="42.439255" lon="18.586462">
<ele>-0.686226</ele>
<time>2012-05-02T09:27:05Z</time>
<desc>lat.=42.439255, lon.=18.586462, Alt.=-0.686226m. Speed=25.056000m/h.</desc>
<speed>6.960000</speed>
</trkpt>
<trkpt lat="42.439072" lon="18.586786">
<ele>0.317326</ele>
<time>2012-05-02T09:27:10Z</time>
<desc>lat.=42.439072, lon.=18.586786, Alt.=0.317326m. Speed=24.587999m/h.</desc>
<speed>6.830000</speed>
</trkpt>
<trkpt lat="42.438866" lon="18.587063">
<ele>-1.204637</ele>
<time>2012-05-02T09:27:15Z</time>
<desc>lat.=42.438866, lon.=18.587063, Alt.=-1.204637m. Speed=21.743999m/h.</desc>
<speed>6.040000</speed>
</trkpt>
<trkpt lat="42.438713" lon="18.587292">
<ele>-1.681840</ele>
<time>2012-05-02T09:27:20Z</time>
<desc>lat.=42.438713, lon.=18.587292, Alt.=-1.681840m. Speed=16.775999m/h.</desc>
<speed>4.660000</speed>
</trkpt>
<trkpt lat="42.438599" lon="18.587507">
<ele>-2.177279</ele>
<time>2012-05-02T09:27:25Z</time>
<desc>lat.=42.438599, lon.=18.587507, Alt.=-2.177279m. Speed=11.772000m/h.</desc>
<speed>3.270000</speed>
</trkpt>
<trkpt lat="42.438541" lon="18.587694">
<ele>-2.902437</ele>
<time>2012-05-02T09:27:30Z</time>
<desc>lat.=42.438541, lon.=18.587694, Alt.=-2.902437m. Speed=12.924000m/h.</desc>
<speed>3.590000</speed>
</trkpt>
<trkpt lat="42.438473" lon="18.587906">
<ele>-2.721834</ele>
<time>2012-05-02T09:27:35Z</time>
<desc>lat.=42.438473, lon.=18.587906, Alt.=-2.721834m. Speed=15.228000m/h.</desc>
<speed>4.230000</speed>
</trkpt>
<trkpt lat="42.438377" lon="18.588112">
<ele>-1.171861</ele>
<time>2012-05-02T09:27:40Z</time>
<desc>lat.=42.438377, lon.=18.588112, Alt.=-1.171861m. Speed=13.356000m/h.</desc>
<speed>3.710000</speed>
</trkpt>
<trkpt lat="42.438259" lon="18.588308">
<ele>-1.178147</ele>
<time>2012-05-02T09:27:45Z</time>
<desc>lat.=42.438259, lon.=18.588308, Alt.=-1.178147m. Speed=15.408000m/h.</desc>
<speed>4.280000</speed>
</trkpt>
<trkpt lat="42.438145" lon="18.588552">
<ele>-0.717217</ele>
<time>2012-05-02T09:27:50Z</time>
<desc>lat.=42.438145, lon.=18.588552, Alt.=-0.717217m. Speed=17.459999m/h.</desc>
<speed>4.850000</speed>
</trkpt>
<trkpt lat="42.438034" lon="18.588789">
<ele>-0.326847</ele>
<time>2012-05-02T09:27:55Z</time>
<desc>lat.=42.438034, lon.=18.588789, Alt.=-0.326847m. Speed=13.608000m/h.</desc>
<speed>3.780000</speed>
</trkpt>
<trkpt lat="42.437965" lon="18.588995">
<ele>-0.084996</ele>
<time>2012-05-02T09:28:00Z</time>
<desc>lat.=42.437965, lon.=18.588995, Alt.=-0.084996m. Speed=13.500000m/h.</desc>
<speed>3.750000</speed>
</trkpt>
<trkpt lat="42.437908" lon="18.589258">
<ele>-0.840523</ele>
<time>2012-05-02T09:28:05Z</time>
<desc>lat.=42.437908, lon.=18.589258, Alt.=-0.840523m. Speed=16.164000m/h.</desc>
<speed>4.490000</speed>
</trkpt>
<trkpt lat="42.437820" lon="18.589550">
<ele>-1.907670</ele>
<time>2012-05-02T09:28:10Z</time>
<desc>lat.=42.437820, lon.=18.589550, Alt.=-1.907670m. Speed=20.664000m/h.</desc>
<speed>5.740000</speed>
</trkpt>
<trkpt lat="42.437710" lon="18.589874">
<ele>-0.776925</ele>
<time>2012-05-02T09:28:15Z</time>
<desc>lat.=42.437710, lon.=18.589874, Alt.=-0.776925m. Speed=20.952000m/h.</desc>
<speed>5.820000</speed>
</trkpt>
<trkpt lat="42.437603" lon="18.590200">
<ele>-0.698708</ele>
<time>2012-05-02T09:28:20Z</time>
<desc>lat.=42.437603, lon.=18.590200, Alt.=-0.698708m. Speed=20.268000m/h.</desc>
<speed>5.630000</speed>
</trkpt>
<trkpt lat="42.437489" lon="18.590540">
<ele>-0.744195</ele>
<time>2012-05-02T09:28:25Z</time>
<desc>lat.=42.437489, lon.=18.590540, Alt.=-0.744195m. Speed=22.320000m/h.</desc>
<speed>6.200000</speed>
</trkpt>
<trkpt lat="42.437378" lon="18.590874">
<ele>-1.607438</ele>
<time>2012-05-02T09:28:30Z</time>
<desc>lat.=42.437378, lon.=18.590874, Alt.=-1.607438m. Speed=20.988001m/h.</desc>
<speed>5.830000</speed>
</trkpt>
<trkpt lat="42.437397" lon="18.591225">
<ele>-1.500871</ele>
<time>2012-05-02T09:28:35Z</time>
<desc>lat.=42.437397, lon.=18.591225, Alt.=-1.500871m. Speed=22.464001m/h.</desc>
<speed>6.240000</speed>
</trkpt>
<trkpt lat="42.437572" lon="18.591467">
<ele>-1.223954</ele>
<time>2012-05-02T09:28:40Z</time>
<desc>lat.=42.437572, lon.=18.591467, Alt.=-1.223954m. Speed=17.747999m/h.</desc>
<speed>4.930000</speed>
</trkpt>
<trkpt lat="42.437729" lon="18.591579">
<ele>0.427120</ele>
<time>2012-05-02T09:28:45Z</time>
<desc>lat.=42.437729, lon.=18.591579, Alt.=0.427120m. Speed=16.271999m/h.</desc>
<speed>4.520000</speed>
</trkpt>
<trkpt lat="42.437912" lon="18.591681">
<ele>2.106050</ele>
<time>2012-05-02T09:28:50Z</time>
<desc>lat.=42.437912, lon.=18.591681, Alt.=2.106050m. Speed=15.192000m/h.</desc>
<speed>4.220000</speed>
</trkpt>
<trkpt lat="42.438057" lon="18.591837">
<ele>2.435396</ele>
<time>2012-05-02T09:28:55Z</time>
<desc>lat.=42.438057, lon.=18.591837, Alt.=2.435396m. Speed=13.212000m/h.</desc>
<speed>3.670000</speed>
</trkpt>
<trkpt lat="42.438160" lon="18.591993">
<ele>1.157487</ele>
<time>2012-05-02T09:29:00Z</time>
<desc>lat.=42.438160, lon.=18.591993, Alt.=1.157487m. Speed=11.484000m/h.</desc>
<speed>3.190000</speed>
</trkpt>
<trkpt lat="42.438217" lon="18.592161">
<ele>1.331529</ele>
<time>2012-05-02T09:29:05Z</time>
<desc>lat.=42.438217, lon.=18.592161, Alt.=1.331529m. Speed=12.708000m/h.</desc>
<speed>3.530000</speed>
</trkpt>
<trkpt lat="42.438282" lon="18.592352">
<ele>1.571733</ele>
<time>2012-05-02T09:29:10Z</time>
<desc>lat.=42.438282, lon.=18.592352, Alt.=1.571733m. Speed=12.420000m/h.</desc>
<speed>3.450000</speed>
</trkpt>
<trkpt lat="42.438309" lon="18.592554">
<ele>3.074068</ele>
<time>2012-05-02T09:29:15Z</time>
<desc>lat.=42.438309, lon.=18.592554, Alt.=3.074068m. Speed=12.564000m/h.</desc>
<speed>3.490000</speed>
</trkpt>
<trkpt lat="42.438297" lon="18.592735">
<ele>4.343204</ele>
<time>2012-05-02T09:29:20Z</time>
<desc>lat.=42.438297, lon.=18.592735, Alt.=4.343204m. Speed=10.008000m/h.</desc>
<speed>2.780000</speed>
</trkpt>
<trkpt lat="42.438259" lon="18.592932">
<ele>4.597233</ele>
<time>2012-05-02T09:29:25Z</time>
<desc>lat.=42.438259, lon.=18.592932, Alt.=4.597233m. Speed=9.972000m/h.</desc>
<speed>2.770000</speed>
</trkpt>
<trkpt lat="42.438232" lon="18.593107">
<ele>6.311344</ele>
<time>2012-05-02T09:29:30Z</time>
<desc>lat.=42.438232, lon.=18.593107, Alt.=6.311344m. Speed=11.556000m/h.</desc>
<speed>3.210000</speed>
</trkpt>
<trkpt lat="42.438206" lon="18.593309">
<ele>8.172737</ele>
<time>2012-05-02T09:29:35Z</time>
<desc>lat.=42.438206, lon.=18.593309, Alt.=8.172737m. Speed=10.692000m/h.</desc>
<speed>2.970000</speed>
</trkpt>
<trkpt lat="42.438171" lon="18.593481">
<ele>9.657600</ele>
<time>2012-05-02T09:29:40Z</time>
<desc>lat.=42.438171, lon.=18.593481, Alt.=9.657600m. Speed=12.060000m/h.</desc>
<speed>3.350000</speed>
</trkpt>
<trkpt lat="42.438152" lon="18.593657">
<ele>11.315559</ele>
<time>2012-05-02T09:29:45Z</time>
<desc>lat.=42.438152, lon.=18.593657, Alt.=11.315559m. Speed=11.196000m/h.</desc>
<speed>3.110000</speed>
</trkpt>
<trkpt lat="42.438114" lon="18.593863">
<ele>12.447151</ele>
<time>2012-05-02T09:29:50Z</time>
<desc>lat.=42.438114, lon.=18.593863, Alt.=12.447151m. Speed=13.212000m/h.</desc>
<speed>3.670000</speed>
</trkpt>
<trkpt lat="42.438068" lon="18.594090">
<ele>14.693977</ele>
<time>2012-05-02T09:29:55Z</time>
<desc>lat.=42.438068, lon.=18.594090, Alt.=14.693977m. Speed=13.716000m/h.</desc>
<speed>3.810000</speed>
</trkpt>
<trkpt lat="42.438023" lon="18.594336">
<ele>16.490494</ele>
<time>2012-05-02T09:30:00Z</time>
<desc>lat.=42.438023, lon.=18.594336, Alt.=16.490494m. Speed=17.459999m/h.</desc>
<speed>4.850000</speed>
</trkpt>
<trkpt lat="42.437950" lon="18.594652">
<ele>13.577278</ele>
<time>2012-05-02T09:30:05Z</time>
<desc>lat.=42.437950, lon.=18.594652, Alt.=13.577278m. Speed=19.403999m/h.</desc>
<speed>5.390000</speed>
</trkpt>
<trkpt lat="42.437832" lon="18.595045">
<ele>11.989876</ele>
<time>2012-05-02T09:30:10Z</time>
<desc>lat.=42.437832, lon.=18.595045, Alt.=11.989876m. Speed=27.576000m/h.</desc>
<speed>7.660000</speed>
</trkpt>
<trkpt lat="42.437675" lon="18.595524">
<ele>10.859505</ele>
<time>2012-05-02T09:30:15Z</time>
<desc>lat.=42.437675, lon.=18.595524, Alt.=10.859505m. Speed=33.372002m/h.</desc>
<speed>9.270000</speed>
</trkpt>
<trkpt lat="42.437523" lon="18.596041">
<ele>7.927799</ele>
<time>2012-05-02T09:30:20Z</time>
<desc>lat.=42.437523, lon.=18.596041, Alt.=7.927799m. Speed=28.403999m/h.</desc>
<speed>7.890000</speed>
</trkpt>
<trkpt lat="42.437382" lon="18.596523">
<ele>7.589664</ele>
<time>2012-05-02T09:30:25Z</time>
<desc>lat.=42.437382, lon.=18.596523, Alt.=7.589664m. Speed=28.152000m/h.</desc>
<speed>7.820000</speed>
</trkpt>
<trkpt lat="42.437214" lon="18.597008">
<ele>15.598274</ele>
<time>2012-05-02T09:30:30Z</time>
<desc>lat.=42.437214, lon.=18.597008, Alt.=15.598274m. Speed=28.080000m/h.</desc>
<speed>7.800000</speed>
</trkpt>
<trkpt lat="42.437050" lon="18.597473">
<ele>20.401138</ele>
<time>2012-05-02T09:30:35Z</time>
<desc>lat.=42.437050, lon.=18.597473, Alt.=20.401138m. Speed=26.820000m/h.</desc>
<speed>7.450000</speed>
</trkpt>
<trkpt lat="42.436954" lon="18.597813">
<ele>27.711197</ele>
<time>2012-05-02T09:30:40Z</time>
<desc>lat.=42.436954, lon.=18.597813, Alt.=27.711197m. Speed=18.396000m/h.</desc>
<speed>5.110000</speed>
</trkpt>
<trkpt lat="42.436859" lon="18.598152">
<ele>31.479752</ele>
<time>2012-05-02T09:30:45Z</time>
<desc>lat.=42.436859, lon.=18.598152, Alt.=31.479752m. Speed=15.336000m/h.</desc>
<speed>4.260000</speed>
</trkpt>
<trkpt lat="42.436756" lon="18.598410">
<ele>33.117706</ele>
<time>2012-05-02T09:30:50Z</time>
<desc>lat.=42.436756, lon.=18.598410, Alt.=33.117706m. Speed=16.416000m/h.</desc>
<speed>4.560000</speed>
</trkpt>
<trkpt lat="42.436699" lon="18.598698">
<ele>29.437271</ele>
<time>2012-05-02T09:30:55Z</time>
<desc>lat.=42.436699, lon.=18.598698, Alt.=29.437271m. Speed=15.624000m/h.</desc>
<speed>4.340000</speed>
</trkpt>
<trkpt lat="42.436638" lon="18.598957">
<ele>28.115982</ele>
<time>2012-05-02T09:31:00Z</time>
<desc>lat.=42.436638, lon.=18.598957, Alt.=28.115982m. Speed=17.351999m/h.</desc>
<speed>4.820000</speed>
</trkpt>
<trkpt lat="42.436558" lon="18.599236">
<ele>30.722916</ele>
<time>2012-05-02T09:31:05Z</time>
<desc>lat.=42.436558, lon.=18.599236, Alt.=30.722916m. Speed=17.388000m/h.</desc>
<speed>4.830000</speed>
</trkpt>
<trkpt lat="42.436474" lon="18.599518">
<ele>30.825455</ele>
<time>2012-05-02T09:31:10Z</time>
<desc>lat.=42.436474, lon.=18.599518, Alt.=30.825455m. Speed=16.740000m/h.</desc>
<speed>4.650000</speed>
</trkpt>
<trkpt lat="42.436390" lon="18.599825">
<ele>29.726334</ele>
<time>2012-05-02T09:31:15Z</time>
<desc>lat.=42.436390, lon.=18.599825, Alt.=29.726334m. Speed=19.728001m/h.</desc>
<speed>5.480000</speed>
</trkpt>
<trkpt lat="42.436298" lon="18.600124">
<ele>28.705338</ele>
<time>2012-05-02T09:31:20Z</time>
<desc>lat.=42.436298, lon.=18.600124, Alt.=28.705338m. Speed=17.892000m/h.</desc>
<speed>4.970000</speed>
</trkpt>
<trkpt lat="42.436211" lon="18.600378">
<ele>30.011978</ele>
<time>2012-05-02T09:31:25Z</time>
<desc>lat.=42.436211, lon.=18.600378, Alt.=30.011978m. Speed=15.444000m/h.</desc>
<speed>4.290000</speed>
</trkpt>
<trkpt lat="42.436146" lon="18.600622">
<ele>29.130630</ele>
<time>2012-05-02T09:31:30Z</time>
<desc>lat.=42.436146, lon.=18.600622, Alt.=29.130630m. Speed=14.256000m/h.</desc>
<speed>3.960000</speed>
</trkpt>
<trkpt lat="42.436073" lon="18.600878">
<ele>30.349869</ele>
<time>2012-05-02T09:31:35Z</time>
<desc>lat.=42.436073, lon.=18.600878, Alt.=30.349869m. Speed=18.540001m/h.</desc>
<speed>5.150000</speed>
</trkpt>
<trkpt lat="42.435993" lon="18.601208">
<ele>29.860123</ele>
<time>2012-05-02T09:31:40Z</time>
<desc>lat.=42.435993, lon.=18.601208, Alt.=29.860123m. Speed=22.788000m/h.</desc>
<speed>6.330000</speed>
</trkpt>
<trkpt lat="42.435879" lon="18.601639">
<ele>27.058853</ele>
<time>2012-05-02T09:31:45Z</time>
<desc>lat.=42.435879, lon.=18.601639, Alt.=27.058853m. Speed=31.032000m/h.</desc>
<speed>8.620000</speed>
</trkpt>
<trkpt lat="42.435730" lon="18.602217">
<ele>20.543716</ele>
<time>2012-05-02T09:31:50Z</time>
<desc>lat.=42.435730, lon.=18.602217, Alt.=20.543716m. Speed=33.660000m/h.</desc>
<speed>9.350000</speed>
</trkpt>
<trkpt lat="42.435612" lon="18.602633">
<ele>14.766487</ele>
<time>2012-05-02T09:31:55Z</time>
<desc>lat.=42.435612, lon.=18.602633, Alt.=14.766487m. Speed=21.348000m/h.</desc>
<speed>5.930000</speed>
</trkpt>
<trkpt lat="42.435379" lon="18.602734">
<ele>11.135628</ele>
<time>2012-05-02T09:32:00Z</time>
<desc>lat.=42.435379, lon.=18.602734, Alt.=11.135628m. Speed=21.780001m/h.</desc>
<speed>6.050000</speed>
</trkpt>
<trkpt lat="42.435184" lon="18.602949">
<ele>12.980354</ele>
<time>2012-05-02T09:32:05Z</time>
<desc>lat.=42.435184, lon.=18.602949, Alt.=12.980354m. Speed=23.796000m/h.</desc>
<speed>6.610000</speed>
</trkpt>
<trkpt lat="42.435207" lon="18.603399">
<ele>8.871956</ele>
<time>2012-05-02T09:32:10Z</time>
<desc>lat.=42.435207, lon.=18.603399, Alt.=8.871956m. Speed=23.832001m/h.</desc>
<speed>6.620000</speed>
</trkpt>
<trkpt lat="42.435204" lon="18.603806">
<ele>8.472054</ele>
<time>2012-05-02T09:32:15Z</time>
<desc>lat.=42.435204, lon.=18.603806, Alt.=8.472054m. Speed=23.184000m/h.</desc>
<speed>6.440000</speed>
</trkpt>
<trkpt lat="42.435188" lon="18.604174">
<ele>9.477180</ele>
<time>2012-05-02T09:32:20Z</time>
<desc>lat.=42.435188, lon.=18.604174, Alt.=9.477180m. Speed=21.420000m/h.</desc>
<speed>5.950000</speed>
</trkpt>
<trkpt lat="42.435123" lon="18.604500">
<ele>9.754524</ele>
<time>2012-05-02T09:32:25Z</time>
<desc>lat.=42.435123, lon.=18.604500, Alt.=9.754524m. Speed=17.316000m/h.</desc>
<speed>4.810000</speed>
</trkpt>
<trkpt lat="42.434956" lon="18.604792">
<ele>7.547062</ele>
<time>2012-05-02T09:32:30Z</time>
<desc>lat.=42.434956, lon.=18.604792, Alt.=7.547062m. Speed=21.996000m/h.</desc>
<speed>6.110000</speed>
</trkpt>
<trkpt lat="42.434879" lon="18.605156">
<ele>7.543034</ele>
<time>2012-05-02T09:32:35Z</time>
<desc>lat.=42.434879, lon.=18.605156, Alt.=7.543034m. Speed=21.528000m/h.</desc>
<speed>5.980000</speed>
</trkpt>
<trkpt lat="42.434872" lon="18.605515">
<ele>6.233585</ele>
<time>2012-05-02T09:32:40Z</time>
<desc>lat.=42.434872, lon.=18.605515, Alt.=6.233585m. Speed=18.468000m/h.</desc>
<speed>5.130000</speed>
</trkpt>
<trkpt lat="42.435009" lon="18.605751">
<ele>6.054630</ele>
<time>2012-05-02T09:32:45Z</time>
<desc>lat.=42.435009, lon.=18.605751, Alt.=6.054630m. Speed=16.596001m/h.</desc>
<speed>4.610000</speed>
</trkpt>
<trkpt lat="42.435131" lon="18.605961">
<ele>4.649723</ele>
<time>2012-05-02T09:32:50Z</time>
<desc>lat.=42.435131, lon.=18.605961, Alt.=4.649723m. Speed=18.288000m/h.</desc>
<speed>5.080000</speed>
</trkpt>
<trkpt lat="42.435200" lon="18.606277">
<ele>3.922884</ele>
<time>2012-05-02T09:32:55Z</time>
<desc>lat.=42.435200, lon.=18.606277, Alt.=3.922884m. Speed=20.664000m/h.</desc>
<speed>5.740000</speed>
</trkpt>
<trkpt lat="42.435150" lon="18.606606">
<ele>3.122957</ele>
<time>2012-05-02T09:33:00Z</time>
<desc>lat.=42.435150, lon.=18.606606, Alt.=3.122957m. Speed=19.584000m/h.</desc>
<speed>5.440000</speed>
</trkpt>
<trkpt lat="42.435028" lon="18.606888">
<ele>1.884385</ele>
<time>2012-05-02T09:33:05Z</time>
<desc>lat.=42.435028, lon.=18.606888, Alt.=1.884385m. Speed=20.412001m/h.</desc>
<speed>5.670000</speed>
</trkpt>
<trkpt lat="42.435005" lon="18.607203">
<ele>1.607774</ele>
<time>2012-05-02T09:33:10Z</time>
<desc>lat.=42.435005, lon.=18.607203, Alt.=1.607774m. Speed=17.568001m/h.</desc>
<speed>4.880000</speed>
</trkpt>
<trkpt lat="42.435024" lon="18.607471">
<ele>2.886141</ele>
<time>2012-05-02T09:33:15Z</time>
<desc>lat.=42.435024, lon.=18.607471, Alt.=2.886141m. Speed=17.459999m/h.</desc>
<speed>4.850000</speed>
</trkpt>
<trkpt lat="42.435093" lon="18.607809">
<ele>1.020005</ele>
<time>2012-05-02T09:33:20Z</time>
<desc>lat.=42.435093, lon.=18.607809, Alt.=1.020005m. Speed=20.087999m/h.</desc>
<speed>5.580000</speed>
</trkpt>
<trkpt lat="42.435165" lon="18.608196">
<ele>-1.455033</ele>
<time>2012-05-02T09:33:25Z</time>
<desc>lat.=42.435165, lon.=18.608196, Alt.=-1.455033m. Speed=23.364000m/h.</desc>
<speed>6.490000</speed>
</trkpt>
<trkpt lat="42.435215" lon="18.608583">
<ele>-2.407503</ele>
<time>2012-05-02T09:33:30Z</time>
<desc>lat.=42.435215, lon.=18.608583, Alt.=-2.407503m. Speed=21.348000m/h.</desc>
<speed>5.930000</speed>
</trkpt>
<trkpt lat="42.435219" lon="18.608971">
<ele>-0.268025</ele>
<time>2012-05-02T09:33:35Z</time>
<desc>lat.=42.435219, lon.=18.608971, Alt.=-0.268025m. Speed=23.184000m/h.</desc>
<speed>6.440000</speed>
</trkpt>
<trkpt lat="42.435207" lon="18.609343">
<ele>1.610520</ele>
<time>2012-05-02T09:33:40Z</time>
<desc>lat.=42.435207, lon.=18.609343, Alt.=1.610520m. Speed=21.312000m/h.</desc>
<speed>5.920000</speed>
</trkpt>
<trkpt lat="42.435234" lon="18.609699">
<ele>1.604234</ele>
<time>2012-05-02T09:33:45Z</time>
<desc>lat.=42.435234, lon.=18.609699, Alt.=1.604234m. Speed=20.664000m/h.</desc>
<speed>5.740000</speed>
</trkpt>
<trkpt lat="42.435371" lon="18.610004">
<ele>1.692185</ele>
<time>2012-05-02T09:33:50Z</time>
<desc>lat.=42.435371, lon.=18.610004, Alt.=1.692185m. Speed=25.524000m/h.</desc>
<speed>7.090000</speed>
</trkpt>
<trkpt lat="42.435635" lon="18.610168">
<ele>2.231295</ele>
<time>2012-05-02T09:33:55Z</time>
<desc>lat.=42.435635, lon.=18.610168, Alt.=2.231295m. Speed=22.788000m/h.</desc>
<speed>6.330000</speed>
</trkpt>
<trkpt lat="42.435841" lon="18.610390">
<ele>3.069124</ele>
<time>2012-05-02T09:34:00Z</time>
<desc>lat.=42.435841, lon.=18.610390, Alt.=3.069124m. Speed=19.728001m/h.</desc>
<speed>5.480000</speed>
</trkpt>
<trkpt lat="42.436069" lon="18.610544">
<ele>5.035221</ele>
<time>2012-05-02T09:34:05Z</time>
<desc>lat.=42.436069, lon.=18.610544, Alt.=5.035221m. Speed=21.959999m/h.</desc>
<speed>6.100000</speed>
</trkpt>
<trkpt lat="42.436253" lon="18.610802">
<ele>6.736027</ele>
<time>2012-05-02T09:34:10Z</time>
<desc>lat.=42.436253, lon.=18.610802, Alt.=6.736027m. Speed=20.916000m/h.</desc>
<speed>5.810000</speed>
</trkpt>
<trkpt lat="42.436344" lon="18.610971">
<ele>8.485725</ele>
<time>2012-05-02T09:34:15Z</time>
<desc>lat.=42.436344, lon.=18.610971, Alt.=8.485725m. Speed=5.040000m/h.</desc>
<speed>1.400000</speed>
</trkpt>
<trkpt lat="42.436344" lon="18.610998">
<ele>7.200626</ele>
<time>2012-05-02T09:34:20Z</time>
<desc>lat.=42.436344, lon.=18.610998, Alt.=7.200626m. Speed=0.684000m/h.</desc>
<speed>0.190000</speed>
</trkpt>
<trkpt lat="42.436363" lon="18.611052">
<ele>7.442204</ele>
<time>2012-05-02T09:34:25Z</time>
<desc>lat.=42.436363, lon.=18.611052, Alt.=7.442204m. Speed=10.440000m/h.</desc>
<speed>2.900000</speed>
</trkpt>
<trkpt lat="42.436455" lon="18.611284">
<ele>7.402897</ele>
<time>2012-05-02T09:34:30Z</time>
<desc>lat.=42.436455, lon.=18.611284, Alt.=7.402897m. Speed=18.504000m/h.</desc>
<speed>5.140000</speed>
</trkpt>
<trkpt lat="42.436531" lon="18.611601">
<ele>6.173038</ele>
<time>2012-05-02T09:34:35Z</time>
<desc>lat.=42.436531, lon.=18.611601, Alt.=6.173038m. Speed=19.511999m/h.</desc>
<speed>5.420000</speed>
</trkpt>
<trkpt lat="42.436569" lon="18.611919">
<ele>5.899845</ele>
<time>2012-05-02T09:34:40Z</time>
<desc>lat.=42.436569, lon.=18.611919, Alt.=5.899845m. Speed=17.856001m/h.</desc>
<speed>4.960000</speed>
</trkpt>
<trkpt lat="42.436642" lon="18.612261">
<ele>6.870182</ele>
<time>2012-05-02T09:34:45Z</time>
<desc>lat.=42.436642, lon.=18.612261, Alt.=6.870182m. Speed=21.348000m/h.</desc>
<speed>5.930000</speed>
</trkpt>
<trkpt lat="42.436752" lon="18.612589">
<ele>6.744694</ele>
<time>2012-05-02T09:34:50Z</time>
<desc>lat.=42.436752, lon.=18.612589, Alt.=6.744694m. Speed=21.240000m/h.</desc>
<speed>5.900000</speed>
</trkpt>
<trkpt lat="42.436848" lon="18.612932">
<ele>5.916080</ele>
<time>2012-05-02T09:34:55Z</time>
<desc>lat.=42.436848, lon.=18.612932, Alt.=5.916080m. Speed=21.348000m/h.</desc>
<speed>5.930000</speed>
</trkpt>
<trkpt lat="42.436928" lon="18.613293">
<ele>6.270573</ele>
<time>2012-05-02T09:35:00Z</time>
<desc>lat.=42.436928, lon.=18.613293, Alt.=6.270573m. Speed=21.780001m/h.</desc>
<speed>6.050000</speed>
</trkpt>
<trkpt lat="42.437042" lon="18.613615">
<ele>6.759098</ele>
<time>2012-05-02T09:35:05Z</time>
<desc>lat.=42.437042, lon.=18.613615, Alt.=6.759098m. Speed=22.464001m/h.</desc>
<speed>6.240000</speed>
</trkpt>
<trkpt lat="42.437191" lon="18.613926">
<ele>9.189095</ele>
<time>2012-05-02T09:35:10Z</time>
<desc>lat.=42.437191, lon.=18.613926, Alt.=9.189095m. Speed=22.284000m/h.</desc>
<speed>6.190000</speed>
</trkpt>
<trkpt lat="42.437443" lon="18.614079">
<ele>7.793766</ele>
<time>2012-05-02T09:35:15Z</time>
<desc>lat.=42.437443, lon.=18.614079, Alt.=7.793766m. Speed=23.040001m/h.</desc>
<speed>6.400000</speed>
</trkpt>
<trkpt lat="42.437706" lon="18.614187">
<ele>7.067326</ele>
<time>2012-05-02T09:35:20Z</time>
<desc>lat.=42.437706, lon.=18.614187, Alt.=7.067326m. Speed=20.700001m/h.</desc>
<speed>5.750000</speed>
</trkpt>
<trkpt lat="42.437977" lon="18.614300">
<ele>7.567570</ele>
<time>2012-05-02T09:35:25Z</time>
<desc>lat.=42.437977, lon.=18.614300, Alt.=7.567570m. Speed=21.384001m/h.</desc>
<speed>5.940000</speed>
</trkpt>
<trkpt lat="42.438179" lon="18.614460">
<ele>5.531681</ele>
<time>2012-05-02T09:35:30Z</time>
<desc>lat.=42.438179, lon.=18.614460, Alt.=5.531681m. Speed=19.691999m/h.</desc>
<speed>5.470000</speed>
</trkpt>
<trkpt lat="42.438347" lon="18.614689">
<ele>5.949772</ele>
<time>2012-05-02T09:35:35Z</time>
<desc>lat.=42.438347, lon.=18.614689, Alt.=5.949772m. Speed=17.388000m/h.</desc>
<speed>4.830000</speed>
</trkpt>
<trkpt lat="42.438438" lon="18.614998">
<ele>7.226017</ele>
<time>2012-05-02T09:35:40Z</time>
<desc>lat.=42.438438, lon.=18.614998, Alt.=7.226017m. Speed=21.708000m/h.</desc>
<speed>6.030000</speed>
</trkpt>
<trkpt lat="42.438412" lon="18.615376">
<ele>8.534309</ele>
<time>2012-05-02T09:35:45Z</time>
<desc>lat.=42.438412, lon.=18.615376, Alt.=8.534309m. Speed=22.212000m/h.</desc>
<speed>6.170000</speed>
</trkpt>
<trkpt lat="42.438320" lon="18.615694">
<ele>6.464664</ele>
<time>2012-05-02T09:35:50Z</time>
<desc>lat.=42.438320, lon.=18.615694, Alt.=6.464664m. Speed=19.836000m/h.</desc>
<speed>5.510000</speed>
</trkpt>
<trkpt lat="42.438240" lon="18.616104">
<ele>6.113712</ele>
<time>2012-05-02T09:35:55Z</time>
<desc>lat.=42.438240, lon.=18.616104, Alt.=6.113712m. Speed=23.436001m/h.</desc>
<speed>6.510000</speed>
</trkpt>
<trkpt lat="42.438282" lon="18.616510">
<ele>7.075504</ele>
<time>2012-05-02T09:36:00Z</time>
<desc>lat.=42.438282, lon.=18.616510, Alt.=7.075504m. Speed=22.464001m/h.</desc>
<speed>6.240000</speed>
</trkpt>
<trkpt lat="42.438396" lon="18.616894">
<ele>7.718937</ele>
<time>2012-05-02T09:36:05Z</time>
<desc>lat.=42.438396, lon.=18.616894, Alt.=7.718937m. Speed=24.264000m/h.</desc>
<speed>6.740000</speed>
</trkpt>
<trkpt lat="42.438492" lon="18.617270">
<ele>6.252262</ele>
<time>2012-05-02T09:36:10Z</time>
<desc>lat.=42.438492, lon.=18.617270, Alt.=6.252262m. Speed=22.247999m/h.</desc>
<speed>6.180000</speed>
</trkpt>
<trkpt lat="42.438496" lon="18.617638">
<ele>5.950626</ele>
<time>2012-05-02T09:36:15Z</time>
<desc>lat.=42.438496, lon.=18.617638, Alt.=5.950626m. Speed=23.652000m/h.</desc>
<speed>6.570000</speed>
</trkpt>
<trkpt lat="42.438560" lon="18.618046">
<ele>4.356510</ele>
<time>2012-05-02T09:36:20Z</time>
<desc>lat.=42.438560, lon.=18.618046, Alt.=4.356510m. Speed=23.903999m/h.</desc>
<speed>6.640000</speed>
</trkpt>
<trkpt lat="42.438652" lon="18.618422">
<ele>3.675570</ele>
<time>2012-05-02T09:36:25Z</time>
<desc>lat.=42.438652, lon.=18.618422, Alt.=3.675570m. Speed=22.212000m/h.</desc>
<speed>6.170000</speed>
</trkpt>
<trkpt lat="42.438694" lon="18.618792">
<ele>1.490312</ele>
<time>2012-05-02T09:36:30Z</time>
<desc>lat.=42.438694, lon.=18.618792, Alt.=1.490312m. Speed=23.976000m/h.</desc>
<speed>6.660000</speed>
</trkpt>
<trkpt lat="42.438686" lon="18.619183">
<ele>-0.747994</ele>
<time>2012-05-02T09:36:35Z</time>
<desc>lat.=42.438686, lon.=18.619183, Alt.=-0.747994m. Speed=21.924000m/h.</desc>
<speed>6.090000</speed>
</trkpt>
<trkpt lat="42.438610" lon="18.619535">
<ele>-1.382798</ele>
<time>2012-05-02T09:36:40Z</time>
<desc>lat.=42.438610, lon.=18.619535, Alt.=-1.382798m. Speed=20.448000m/h.</desc>
<speed>5.680000</speed>
</trkpt>
<trkpt lat="42.438652" lon="18.619888">
<ele>-3.120394</ele>
<time>2012-05-02T09:36:45Z</time>
<desc>lat.=42.438652, lon.=18.619888, Alt.=-3.120394m. Speed=22.896000m/h.</desc>
<speed>6.360000</speed>
</trkpt>
<trkpt lat="42.438786" lon="18.620197">
<ele>-0.914422</ele>
<time>2012-05-02T09:36:50Z</time>
<desc>lat.=42.438786, lon.=18.620197, Alt.=-0.914422m. Speed=22.931999m/h.</desc>
<speed>6.370000</speed>
</trkpt>
<trkpt lat="42.438988" lon="18.620499">
<ele>0.848519</ele>
<time>2012-05-02T09:36:55Z</time>
<desc>lat.=42.438988, lon.=18.620499, Alt.=0.848519m. Speed=23.976000m/h.</desc>
<speed>6.660000</speed>
</trkpt>
<trkpt lat="42.439152" lon="18.620802">
<ele>1.124040</ele>
<time>2012-05-02T09:37:00Z</time>
<desc>lat.=42.439152, lon.=18.620802, Alt.=1.124040m. Speed=21.563999m/h.</desc>
<speed>5.990000</speed>
</trkpt>
<trkpt lat="42.439262" lon="18.621166">
<ele>1.446183</ele>
<time>2012-05-02T09:37:05Z</time>
<desc>lat.=42.439262, lon.=18.621166, Alt.=1.446183m. Speed=25.812000m/h.</desc>
<speed>7.170000</speed>
</trkpt>
<trkpt lat="42.439346" lon="18.621576">
<ele>1.693803</ele>
<time>2012-05-02T09:37:10Z</time>
<desc>lat.=42.439346, lon.=18.621576, Alt.=1.693803m. Speed=22.860001m/h.</desc>
<speed>6.350000</speed>
</trkpt>
<trkpt lat="42.439396" lon="18.621956">
<ele>1.786363</ele>
<time>2012-05-02T09:37:15Z</time>
<desc>lat.=42.439396, lon.=18.621956, Alt.=1.786363m. Speed=23.219999m/h.</desc>
<speed>6.450000</speed>
</trkpt>
<trkpt lat="42.439442" lon="18.622356">
<ele>3.565340</ele>
<time>2012-05-02T09:37:20Z</time>
<desc>lat.=42.439442, lon.=18.622356, Alt.=3.565340m. Speed=23.364000m/h.</desc>
<speed>6.490000</speed>
</trkpt>
<trkpt lat="42.439560" lon="18.622700">
<ele>3.451204</ele>
<time>2012-05-02T09:37:25Z</time>
<desc>lat.=42.439560, lon.=18.622700, Alt.=3.451204m. Speed=20.879999m/h.</desc>
<speed>5.800000</speed>
</trkpt>
<trkpt lat="42.439655" lon="18.623001">
<ele>2.115267</ele>
<time>2012-05-02T09:37:30Z</time>
<desc>lat.=42.439655, lon.=18.623001, Alt.=2.115267m. Speed=19.115999m/h.</desc>
<speed>5.310000</speed>
</trkpt>
<trkpt lat="42.439648" lon="18.623386">
<ele>2.343843</ele>
<time>2012-05-02T09:37:35Z</time>
<desc>lat.=42.439648, lon.=18.623386, Alt.=2.343843m. Speed=24.048000m/h.</desc>
<speed>6.680000</speed>
</trkpt>
<trkpt lat="42.439560" lon="18.623810">
<ele>2.435579</ele>
<time>2012-05-02T09:37:40Z</time>
<desc>lat.=42.439560, lon.=18.623810, Alt.=2.435579m. Speed=22.752001m/h.</desc>
<speed>6.320000</speed>
</trkpt>
<trkpt lat="42.439495" lon="18.624201">
<ele>1.485581</ele>
<time>2012-05-02T09:37:45Z</time>
<desc>lat.=42.439495, lon.=18.624201, Alt.=1.485581m. Speed=23.868000m/h.</desc>
<speed>6.630000</speed>
</trkpt>
<trkpt lat="42.439499" lon="18.624596">
<ele>2.141878</ele>
<time>2012-05-02T09:37:50Z</time>
<desc>lat.=42.439499, lon.=18.624596, Alt.=2.141878m. Speed=20.304001m/h.</desc>
<speed>5.640000</speed>
</trkpt>
<trkpt lat="42.439655" lon="18.624949">
<ele>4.952824</ele>
<time>2012-05-02T09:37:55Z</time>
<desc>lat.=42.439655, lon.=18.624949, Alt.=4.952824m. Speed=25.955999m/h.</desc>
<speed>7.210000</speed>
</trkpt>
<trkpt lat="42.439846" lon="18.625307">
<ele>6.458927</ele>
<time>2012-05-02T09:38:00Z</time>
<desc>lat.=42.439846, lon.=18.625307, Alt.=6.458927m. Speed=25.091999m/h.</desc>
<speed>6.970000</speed>
</trkpt>
<trkpt lat="42.439960" lon="18.625690">
<ele>9.373665</ele>
<time>2012-05-02T09:38:05Z</time>
<desc>lat.=42.439960, lon.=18.625690, Alt.=9.373665m. Speed=23.544001m/h.</desc>
<speed>6.540000</speed>
</trkpt>
<trkpt lat="42.440056" lon="18.626040">
<ele>10.417610</ele>
<time>2012-05-02T09:38:10Z</time>
<desc>lat.=42.440056, lon.=18.626040, Alt.=10.417610m. Speed=20.916000m/h.</desc>
<speed>5.810000</speed>
</trkpt>
<trkpt lat="42.440155" lon="18.626394">
<ele>10.903938</ele>
<time>2012-05-02T09:38:15Z</time>
<desc>lat.=42.440155, lon.=18.626394, Alt.=10.903938m. Speed=21.959999m/h.</desc>
<speed>6.100000</speed>
</trkpt>
<trkpt lat="42.440220" lon="18.626732">
<ele>14.912971</ele>
<time>2012-05-02T09:38:20Z</time>
<desc>lat.=42.440220, lon.=18.626732, Alt.=14.912971m. Speed=20.448000m/h.</desc>
<speed>5.680000</speed>
</trkpt>
<trkpt lat="42.440266" lon="18.627077">
<ele>16.919205</ele>
<time>2012-05-02T09:38:25Z</time>
<desc>lat.=42.440266, lon.=18.627077, Alt.=16.919205m. Speed=21.348000m/h.</desc>
<speed>5.930000</speed>
</trkpt>
<trkpt lat="42.440304" lon="18.627489">
<ele>17.397720</ele>
<time>2012-05-02T09:38:30Z</time>
<desc>lat.=42.440304, lon.=18.627489, Alt.=17.397720m. Speed=23.076000m/h.</desc>
<speed>6.410000</speed>
</trkpt>
<trkpt lat="42.440434" lon="18.627802">
<ele>16.909439</ele>
<time>2012-05-02T09:38:35Z</time>
<desc>lat.=42.440434, lon.=18.627802, Alt.=16.909439m. Speed=18.431999m/h.</desc>
<speed>5.120000</speed>
</trkpt>
<trkpt lat="42.440514" lon="18.628149">
<ele>17.420181</ele>
<time>2012-05-02T09:38:40Z</time>
<desc>lat.=42.440514, lon.=18.628149, Alt.=17.420181m. Speed=21.636000m/h.</desc>
<speed>6.010000</speed>
</trkpt>
<trkpt lat="42.440598" lon="18.628550">
<ele>17.119888</ele>
<time>2012-05-02T09:38:45Z</time>
<desc>lat.=42.440598, lon.=18.628550, Alt.=17.119888m. Speed=24.336000m/h.</desc>
<speed>6.760000</speed>
</trkpt>
<trkpt lat="42.440697" lon="18.628918">
<ele>17.351822</ele>
<time>2012-05-02T09:38:50Z</time>
<desc>lat.=42.440697, lon.=18.628918, Alt.=17.351822m. Speed=21.240000m/h.</desc>
<speed>5.900000</speed>
</trkpt>
<trkpt lat="42.440796" lon="18.629299">
<ele>14.493538</ele>
<time>2012-05-02T09:38:55Z</time>
<desc>lat.=42.440796, lon.=18.629299, Alt.=14.493538m. Speed=23.796000m/h.</desc>
<speed>6.610000</speed>
</trkpt>
<trkpt lat="42.440910" lon="18.629683">
<ele>12.038460</ele>
<time>2012-05-02T09:39:00Z</time>
<desc>lat.=42.440910, lon.=18.629683, Alt.=12.038460m. Speed=23.148001m/h.</desc>
<speed>6.430000</speed>
</trkpt>
<trkpt lat="42.441059" lon="18.630018">
<ele>10.065804</ele>
<time>2012-05-02T09:39:05Z</time>
<desc>lat.=42.441059, lon.=18.630018, Alt.=10.065804m. Speed=23.184000m/h.</desc>
<speed>6.440000</speed>
</trkpt>
<trkpt lat="42.441158" lon="18.630363">
<ele>8.688850</ele>
<time>2012-05-02T09:39:10Z</time>
<desc>lat.=42.441158, lon.=18.630363, Alt.=8.688850m. Speed=21.132000m/h.</desc>
<speed>5.870000</speed>
</trkpt>
<trkpt lat="42.441154" lon="18.630753">
<ele>7.308537</ele>
<time>2012-05-02T09:39:15Z</time>
<desc>lat.=42.441154, lon.=18.630753, Alt.=7.308537m. Speed=24.084000m/h.</desc>
<speed>6.690000</speed>
</trkpt>
<trkpt lat="42.441097" lon="18.631126">
<ele>6.341373</ele>
<time>2012-05-02T09:39:20Z</time>
<desc>lat.=42.441097, lon.=18.631126, Alt.=6.341373m. Speed=21.600000m/h.</desc>
<speed>6.000000</speed>
</trkpt>
<trkpt lat="42.441090" lon="18.631451">
<ele>6.414005</ele>
<time>2012-05-02T09:39:25Z</time>
<desc>lat.=42.441090, lon.=18.631451, Alt.=6.414005m. Speed=19.764000m/h.</desc>
<speed>5.490000</speed>
</trkpt>
<trkpt lat="42.441174" lon="18.631718">
<ele>7.595280</ele>
<time>2012-05-02T09:39:30Z</time>
<desc>lat.=42.441174, lon.=18.631718, Alt.=7.595280m. Speed=17.459999m/h.</desc>
<speed>4.850000</speed>
</trkpt>
<trkpt lat="42.441353" lon="18.631954">
<ele>6.938541</ele>
<time>2012-05-02T09:39:35Z</time>
<desc>lat.=42.441353, lon.=18.631954, Alt.=6.938541m. Speed=24.011999m/h.</desc>
<speed>6.670000</speed>
</trkpt>
<trkpt lat="42.441639" lon="18.632143">
<ele>6.289738</ele>
<time>2012-05-02T09:39:40Z</time>
<desc>lat.=42.441639, lon.=18.632143, Alt.=6.289738m. Speed=23.976000m/h.</desc>
<speed>6.660000</speed>
</trkpt>
<trkpt lat="42.441837" lon="18.632406">
<ele>4.965031</ele>
<time>2012-05-02T09:39:45Z</time>
<desc>lat.=42.441837, lon.=18.632406, Alt.=4.965031m. Speed=20.700001m/h.</desc>
<speed>5.750000</speed>
</trkpt>
<trkpt lat="42.441948" lon="18.632750">
<ele>4.050114</ele>
<time>2012-05-02T09:39:50Z</time>
<desc>lat.=42.441948, lon.=18.632750, Alt.=4.050114m. Speed=22.608000m/h.</desc>
<speed>6.280000</speed>
</trkpt>
<trkpt lat="42.442127" lon="18.633045">
<ele>4.028263</ele>
<time>2012-05-02T09:39:55Z</time>
<desc>lat.=42.442127, lon.=18.633045, Alt.=4.028263m. Speed=23.868000m/h.</desc>
<speed>6.630000</speed>
</trkpt>
<trkpt lat="42.442356" lon="18.633272">
<ele>3.956575</ele>
<time>2012-05-02T09:40:00Z</time>
<desc>lat.=42.442356, lon.=18.633272, Alt.=3.956575m. Speed=20.988001m/h.</desc>
<speed>5.830000</speed>
</trkpt>
<trkpt lat="42.442539" lon="18.633511">
<ele>4.296452</ele>
<time>2012-05-02T09:40:05Z</time>
<desc>lat.=42.442539, lon.=18.633511, Alt.=4.296452m. Speed=21.204000m/h.</desc>
<speed>5.890000</speed>
</trkpt>
<trkpt lat="42.442719" lon="18.633799">
<ele>3.676180</ele>
<time>2012-05-02T09:40:10Z</time>
<desc>lat.=42.442719, lon.=18.633799, Alt.=3.676180m. Speed=22.320000m/h.</desc>
<speed>6.200000</speed>
</trkpt>
<trkpt lat="42.442879" lon="18.634073">
<ele>2.312410</ele>
<time>2012-05-02T09:40:15Z</time>
<desc>lat.=42.442879, lon.=18.634073, Alt.=2.312410m. Speed=18.612000m/h.</desc>
<speed>5.170000</speed>
</trkpt>
<trkpt lat="42.442974" lon="18.634430">
<ele>2.631319</ele>
<time>2012-05-02T09:40:20Z</time>
<desc>lat.=42.442974, lon.=18.634430, Alt.=2.631319m. Speed=24.732000m/h.</desc>
<speed>6.870000</speed>
</trkpt>
<trkpt lat="42.442944" lon="18.634817">
<ele>2.354769</ele>
<time>2012-05-02T09:40:25Z</time>
<desc>lat.=42.442944, lon.=18.634817, Alt.=2.354769m. Speed=21.851999m/h.</desc>
<speed>6.070000</speed>
</trkpt>
<trkpt lat="42.442963" lon="18.635166">
<ele>2.317720</ele>
<time>2012-05-02T09:40:30Z</time>
<desc>lat.=42.442963, lon.=18.635166, Alt.=2.317720m. Speed=21.312000m/h.</desc>
<speed>5.920000</speed>
</trkpt>
<trkpt lat="42.443092" lon="18.635517">
<ele>1.573167</ele>
<time>2012-05-02T09:40:35Z</time>
<desc>lat.=42.443092, lon.=18.635517, Alt.=1.573167m. Speed=25.379999m/h.</desc>
<speed>7.050000</speed>
</trkpt>
<trkpt lat="42.443211" lon="18.635921">
<ele>1.785233</ele>
<time>2012-05-02T09:40:40Z</time>
<desc>lat.=42.443211, lon.=18.635921, Alt.=1.785233m. Speed=24.516001m/h.</desc>
<speed>6.810000</speed>
</trkpt>
<trkpt lat="42.443260" lon="18.636309">
<ele>2.040499</ele>
<time>2012-05-02T09:40:45Z</time>
<desc>lat.=42.443260, lon.=18.636309, Alt.=2.040499m. Speed=24.875999m/h.</desc>
<speed>6.910000</speed>
</trkpt>
<trkpt lat="42.443336" lon="18.636702">
<ele>2.193575</ele>
<time>2012-05-02T09:40:50Z</time>
<desc>lat.=42.443336, lon.=18.636702, Alt.=2.193575m. Speed=22.320000m/h.</desc>
<speed>6.200000</speed>
</trkpt>
<trkpt lat="42.443436" lon="18.637026">
<ele>3.164461</ele>
<time>2012-05-02T09:40:55Z</time>
<desc>lat.=42.443436, lon.=18.637026, Alt.=3.164461m. Speed=19.656000m/h.</desc>
<speed>5.460000</speed>
</trkpt>
<trkpt lat="42.443611" lon="18.637342">
<ele>7.428043</ele>
<time>2012-05-02T09:41:00Z</time>
<desc>lat.=42.443611, lon.=18.637342, Alt.=7.428043m. Speed=24.804001m/h.</desc>
<speed>6.890000</speed>
</trkpt>
<trkpt lat="42.443737" lon="18.637728">
<ele>6.524479</ele>
<time>2012-05-02T09:41:05Z</time>
<desc>lat.=42.443737, lon.=18.637728, Alt.=6.524479m. Speed=22.860001m/h.</desc>
<speed>6.350000</speed>
</trkpt>
<trkpt lat="42.443844" lon="18.638075">
<ele>5.345280</ele>
<time>2012-05-02T09:41:10Z</time>
<desc>lat.=42.443844, lon.=18.638075, Alt.=5.345280m. Speed=23.724001m/h.</desc>
<speed>6.590000</speed>
</trkpt>
<trkpt lat="42.443943" lon="18.638418">
<ele>5.176090</ele>
<time>2012-05-02T09:41:15Z</time>
<desc>lat.=42.443943, lon.=18.638418, Alt.=5.176090m. Speed=21.384001m/h.</desc>
<speed>5.940000</speed>
</trkpt>
<trkpt lat="42.444008" lon="18.638771">
<ele>6.918644</ele>
<time>2012-05-02T09:41:20Z</time>
<desc>lat.=42.444008, lon.=18.638771, Alt.=6.918644m. Speed=19.080000m/h.</desc>
<speed>5.300000</speed>
</trkpt>
<trkpt lat="42.444077" lon="18.639074">
<ele>6.952213</ele>
<time>2012-05-02T09:41:25Z</time>
<desc>lat.=42.444077, lon.=18.639074, Alt.=6.952213m. Speed=18.035999m/h.</desc>
<speed>5.010000</speed>
</trkpt>
<trkpt lat="42.444225" lon="18.639347">
<ele>5.771305</ele>
<time>2012-05-02T09:41:30Z</time>
<desc>lat.=42.444225, lon.=18.639347, Alt.=5.771305m. Speed=20.195999m/h.</desc>
<speed>5.610000</speed>
</trkpt>
<trkpt lat="42.444382" lon="18.639620">
<ele>3.976046</ele>
<time>2012-05-02T09:41:35Z</time>
<desc>lat.=42.444382, lon.=18.639620, Alt.=3.976046m. Speed=19.152000m/h.</desc>
<speed>5.320000</speed>
</trkpt>
<trkpt lat="42.444519" lon="18.639866">
<ele>3.695223</ele>
<time>2012-05-02T09:41:40Z</time>
<desc>lat.=42.444519, lon.=18.639866, Alt.=3.695223m. Speed=17.424000m/h.</desc>
<speed>4.840000</speed>
</trkpt>
<trkpt lat="42.444653" lon="18.640087">
<ele>3.343294</ele>
<time>2012-05-02T09:41:45Z</time>
<desc>lat.=42.444653, lon.=18.640087, Alt.=3.343294m. Speed=19.007999m/h.</desc>
<speed>5.280000</speed>
</trkpt>
<trkpt lat="42.444817" lon="18.640308">
<ele>3.028170</ele>
<time>2012-05-02T09:41:50Z</time>
<desc>lat.=42.444817, lon.=18.640308, Alt.=3.028170m. Speed=19.224001m/h.</desc>
<speed>5.340000</speed>
</trkpt>
<trkpt lat="42.444973" lon="18.640589">
<ele>2.456392</ele>
<time>2012-05-02T09:41:55Z</time>
<desc>lat.=42.444973, lon.=18.640589, Alt.=2.456392m. Speed=20.988001m/h.</desc>
<speed>5.830000</speed>
</trkpt>
<trkpt lat="42.445145" lon="18.640860">
<ele>2.210543</ele>
<time>2012-05-02T09:42:00Z</time>
<desc>lat.=42.445145, lon.=18.640860, Alt.=2.210543m. Speed=19.080000m/h.</desc>
<speed>5.300000</speed>
</trkpt>
<trkpt lat="42.445328" lon="18.641066">
<ele>1.762010</ele>
<time>2012-05-02T09:42:05Z</time>
<desc>lat.=42.445328, lon.=18.641066, Alt.=1.762010m. Speed=19.440001m/h.</desc>
<speed>5.400000</speed>
</trkpt>
<trkpt lat="42.445515" lon="18.641300">
<ele>1.483323</ele>
<time>2012-05-02T09:42:10Z</time>
<desc>lat.=42.445515, lon.=18.641300, Alt.=1.483323m. Speed=21.240000m/h.</desc>
<speed>5.900000</speed>
</trkpt>
<trkpt lat="42.445702" lon="18.641621">
<ele>0.837151</ele>
<time>2012-05-02T09:42:15Z</time>
<desc>lat.=42.445702, lon.=18.641621, Alt.=0.837151m. Speed=27.396000m/h.</desc>
<speed>7.610000</speed>
</trkpt>
<trkpt lat="42.445919" lon="18.641972">
<ele>0.449528</ele>
<time>2012-05-02T09:42:20Z</time>
<desc>lat.=42.445919, lon.=18.641972, Alt.=0.449528m. Speed=25.667999m/h.</desc>
<speed>7.130000</speed>
</trkpt>
<trkpt lat="42.446125" lon="18.642307">
<ele>0.352368</ele>
<time>2012-05-02T09:42:25Z</time>
<desc>lat.=42.446125, lon.=18.642307, Alt.=0.352368m. Speed=27.648001m/h.</desc>
<speed>7.680000</speed>
</trkpt>
<trkpt lat="42.446350" lon="18.642673">
<ele>0.000255</ele>
<time>2012-05-02T09:42:30Z</time>
<desc>lat.=42.446350, lon.=18.642673, Alt.=0.000255m. Speed=25.524000m/h.</desc>
<speed>7.090000</speed>
</trkpt>
<trkpt lat="42.446564" lon="18.643024">
<ele>0.267948</ele>
<time>2012-05-02T09:42:35Z</time>
<desc>lat.=42.446564, lon.=18.643024, Alt.=0.267948m. Speed=28.260000m/h.</desc>
<speed>7.850000</speed>
</trkpt>
<trkpt lat="42.446774" lon="18.643372">
<ele>0.232554</ele>
<time>2012-05-02T09:42:40Z</time>
<desc>lat.=42.446774, lon.=18.643372, Alt.=0.232554m. Speed=24.408001m/h.</desc>
<speed>6.780000</speed>
</trkpt>
<trkpt lat="42.446976" lon="18.643709">
<ele>0.329296</ele>
<time>2012-05-02T09:42:45Z</time>
<desc>lat.=42.446976, lon.=18.643709, Alt.=0.329296m. Speed=27.936001m/h.</desc>
<speed>7.760000</speed>
</trkpt>
<trkpt lat="42.447189" lon="18.644058">
<ele>0.014513</ele>
<time>2012-05-02T09:42:50Z</time>
<desc>lat.=42.447189, lon.=18.644058, Alt.=0.014513m. Speed=24.840000m/h.</desc>
<speed>6.900000</speed>
</trkpt>
<trkpt lat="42.447395" lon="18.644405">
<ele>0.058881</ele>
<time>2012-05-02T09:42:55Z</time>
<desc>lat.=42.447395, lon.=18.644405, Alt.=0.058881m. Speed=29.124001m/h.</desc>
<speed>8.090000</speed>
</trkpt>
<trkpt lat="42.447605" lon="18.644796">
<ele>-0.027554</ele>
<time>2012-05-02T09:43:00Z</time>
<desc>lat.=42.447605, lon.=18.644796, Alt.=-0.027554m. Speed=26.747999m/h.</desc>
<speed>7.430000</speed>
</trkpt>
<trkpt lat="42.447777" lon="18.645145">
<ele>0.845849</ele>
<time>2012-05-02T09:43:05Z</time>
<desc>lat.=42.447777, lon.=18.645145, Alt.=0.845849m. Speed=23.507999m/h.</desc>
<speed>6.530000</speed>
</trkpt>
<trkpt lat="42.447948" lon="18.645487">
<ele>1.209825</ele>
<time>2012-05-02T09:43:10Z</time>
<desc>lat.=42.447948, lon.=18.645487, Alt.=1.209825m. Speed=25.524000m/h.</desc>
<speed>7.090000</speed>
</trkpt>
<trkpt lat="42.448105" lon="18.645857">
<ele>1.954728</ele>
<time>2012-05-02T09:43:15Z</time>
<desc>lat.=42.448105, lon.=18.645857, Alt.=1.954728m. Speed=25.524000m/h.</desc>
<speed>7.090000</speed>
</trkpt>
<trkpt lat="42.448200" lon="18.646246">
<ele>2.221163</ele>
<time>2012-05-02T09:43:20Z</time>
<desc>lat.=42.448200, lon.=18.646246, Alt.=2.221163m. Speed=22.968000m/h.</desc>
<speed>6.380000</speed>
</trkpt>
<trkpt lat="42.448292" lon="18.646578">
<ele>2.213289</ele>
<time>2012-05-02T09:43:25Z</time>
<desc>lat.=42.448292, lon.=18.646578, Alt.=2.213289m. Speed=19.620001m/h.</desc>
<speed>5.450000</speed>
</trkpt>
<trkpt lat="42.448395" lon="18.646816">
<ele>2.947603</ele>
<time>2012-05-02T09:43:30Z</time>
<desc>lat.=42.448395, lon.=18.646816, Alt.=2.947603m. Speed=10.044000m/h.</desc>
<speed>2.790000</speed>
</trkpt>
<trkpt lat="42.448402" lon="18.646879">
<ele>3.556063</ele>
<time>2012-05-02T09:43:35Z</time>
<desc>lat.=42.448402, lon.=18.646879, Alt.=3.556063m. Speed=1.080000m/h.</desc>
<speed>0.300000</speed>
</trkpt>
<trkpt lat="42.448395" lon="18.646870">
<ele>3.866488</ele>
<time>2012-05-02T09:43:40Z</time>
<desc>lat.=42.448395, lon.=18.646870, Alt.=3.866488m. Speed=0.108000m/h.</desc>
<speed>0.030000</speed>
</trkpt>
<trkpt lat="42.448395" lon="18.646870">
<ele>3.961214</ele>
<time>2012-05-02T09:43:45Z</time>
<desc>lat.=42.448395, lon.=18.646870, Alt.=3.961214m. Speed=0.324000m/h.</desc>
<speed>0.090000</speed>
</trkpt>
<trkpt lat="42.448395" lon="18.646870">
<ele>4.059147</ele>
<time>2012-05-02T09:43:50Z</time>
<desc>lat.=42.448395, lon.=18.646870, Alt.=4.059147m. Speed=0.288000m/h.</desc>
<speed>0.080000</speed>
</trkpt>
<trkpt lat="42.448395" lon="18.646868">
<ele>4.189762</ele>
<time>2012-05-02T09:43:55Z</time>
<desc>lat.=42.448395, lon.=18.646868, Alt.=4.189762m. Speed=0.288000m/h.</desc>
<speed>0.080000</speed>
</trkpt>
<trkpt lat="42.448391" lon="18.646868">
<ele>4.299015</ele>
<time>2012-05-02T09:44:00Z</time>
<desc>lat.=42.448391, lon.=18.646868, Alt.=4.299015m. Speed=0.072000m/h.</desc>
<speed>0.020000</speed>
</trkpt>
<trkpt lat="42.448391" lon="18.646866">
<ele>4.263737</ele>
<time>2012-05-02T09:44:05Z</time>
<desc>lat.=42.448391, lon.=18.646866, Alt.=4.263737m. Speed=0.216000m/h.</desc>
<speed>0.060000</speed>
</trkpt>
<trkpt lat="42.448391" lon="18.646872">
<ele>3.944063</ele>
<time>2012-05-02T09:44:10Z</time>
<desc>lat.=42.448391, lon.=18.646872, Alt.=3.944063m. Speed=0.036000m/h.</desc>
<speed>0.010000</speed>
</trkpt>
<trkpt lat="42.448391" lon="18.646872">
<ele>3.890352</ele>
<time>2012-05-02T09:44:15Z</time>
<desc>lat.=42.448391, lon.=18.646872, Alt.=3.890352m. Speed=0.000000m/h.</desc>
<speed>0.000000</speed>
</trkpt>
<trkpt lat="42.448391" lon="18.646872">
<ele>3.896334</ele>
<time>2012-05-02T09:44:20Z</time>
<desc>lat.=42.448391, lon.=18.646872, Alt.=3.896334m. Speed=0.036000m/h.</desc>
<speed>0.010000</speed>
</trkpt>
<trkpt lat="42.448391" lon="18.646872">
<ele>3.899508</ele>
<time>2012-05-02T09:44:25Z</time>
<desc>lat.=42.448391, lon.=18.646872, Alt.=3.899508m. Speed=0.072000m/h.</desc>
<speed>0.020000</speed>
</trkpt>
<trkpt lat="42.448391" lon="18.646872">
<ele>3.899385</ele>
<time>2012-05-02T09:44:30Z</time>
<desc>lat.=42.448391, lon.=18.646872, Alt.=3.899385m. Speed=0.036000m/h.</desc>
<speed>0.010000</speed>
</trkpt>
<trkpt lat="42.448391" lon="18.646870">
<ele>3.905062</ele>
<time>2012-05-02T09:44:35Z</time>
<desc>lat.=42.448391, lon.=18.646870, Alt.=3.905062m. Speed=0.216000m/h.</desc>
<speed>0.060000</speed>
</trkpt>
<trkpt lat="42.448391" lon="18.646870">
<ele>3.905245</ele>
<time>2012-05-02T09:44:40Z</time>
<desc>lat.=42.448391, lon.=18.646870, Alt.=3.905245m. Speed=0.000000m/h.</desc>
<speed>0.000000</speed>
</trkpt>
<trkpt lat="42.448391" lon="18.646870">
<ele>3.913118</ele>
<time>2012-05-02T09:44:45Z</time>
<desc>lat.=42.448391, lon.=18.646870, Alt.=3.913118m. Speed=0.072000m/h.</desc>
<speed>0.020000</speed>
</trkpt>
<trkpt lat="42.448391" lon="18.646870">
<ele>3.914949</ele>
<time>2012-05-02T09:44:50Z</time>
<desc>lat.=42.448391, lon.=18.646870, Alt.=3.914949m. Speed=0.108000m/h.</desc>
<speed>0.030000</speed>
</trkpt>
<trkpt lat="42.448391" lon="18.646870">
<ele>3.911470</ele>
<time>2012-05-02T09:44:55Z</time>
<desc>lat.=42.448391, lon.=18.646870, Alt.=3.911470m. Speed=0.144000m/h.</desc>
<speed>0.040000</speed>
</trkpt>
<trkpt lat="42.448391" lon="18.646870">
<ele>3.919100</ele>
<time>2012-05-02T09:45:00Z</time>
<desc>lat.=42.448391, lon.=18.646870, Alt.=3.919100m. Speed=0.000000m/h.</desc>
<speed>0.000000</speed>
</trkpt>
<trkpt lat="42.448391" lon="18.646870">
<ele>3.919771</ele>
<time>2012-05-02T09:45:05Z</time>
<desc>lat.=42.448391, lon.=18.646870, Alt.=3.919771m. Speed=0.036000m/h.</desc>
<speed>0.010000</speed>
</trkpt>
<trkpt lat="42.448391" lon="18.646870">
<ele>3.917635</ele>
<time>2012-05-02T09:45:10Z</time>
<desc>lat.=42.448391, lon.=18.646870, Alt.=3.917635m. Speed=0.000000m/h.</desc>
<speed>0.000000</speed>
</trkpt>
<trkpt lat="42.448391" lon="18.646868">
<ele>3.920931</ele>
<time>2012-05-02T09:45:15Z</time>
<desc>lat.=42.448391, lon.=18.646868, Alt.=3.920931m. Speed=0.000000m/h.</desc>
<speed>0.000000</speed>
</trkpt>
<trkpt lat="42.448391" lon="18.646870">
<ele>3.919283</ele>
<time>2012-05-02T09:45:20Z</time>
<desc>lat.=42.448391, lon.=18.646870, Alt.=3.919283m. Speed=0.000000m/h.</desc>
<speed>0.000000</speed>
</trkpt>
<trkpt lat="42.448391" lon="18.646870">
<ele>3.921480</ele>
<time>2012-05-02T09:45:25Z</time>
<desc>lat.=42.448391, lon.=18.646870, Alt.=3.921480m. Speed=0.000000m/h.</desc>
<speed>0.000000</speed>
</trkpt>
<trkpt lat="42.448391" lon="18.646870">
<ele>3.915621</ele>
<time>2012-05-02T09:45:30Z</time>
<desc>lat.=42.448391, lon.=18.646870, Alt.=3.915621m. Speed=0.000000m/h.</desc>
<speed>0.000000</speed>
</trkpt>
<trkpt lat="42.448391" lon="18.646870">
<ele>3.914400</ele>
<time>2012-05-02T09:45:35Z</time>
<desc>lat.=42.448391, lon.=18.646870, Alt.=3.914400m. Speed=0.000000m/h.</desc>
<speed>0.000000</speed>
</trkpt>
<trkpt lat="42.448391" lon="18.646868">
<ele>3.914278</ele>
<time>2012-05-02T09:45:40Z</time>
<desc>lat.=42.448391, lon.=18.646868, Alt.=3.914278m. Speed=0.000000m/h.</desc>
<speed>0.000000</speed>
</trkpt>
<trkpt lat="42.448391" lon="18.646868">
<ele>3.914339</ele>
<time>2012-05-02T09:45:45Z</time>
<desc>lat.=42.448391, lon.=18.646868, Alt.=3.914339m. Speed=0.000000m/h.</desc>
<speed>0.000000</speed>
</trkpt>
<trkpt lat="42.448391" lon="18.646868">
<ele>3.909334</ele>
<time>2012-05-02T09:45:50Z</time>
<desc>lat.=42.448391, lon.=18.646868, Alt.=3.909334m. Speed=0.000000m/h.</desc>
<speed>0.000000</speed>
</trkpt>
<trkpt lat="42.448391" lon="18.646868">
<ele>3.902254</ele>
<time>2012-05-02T09:45:55Z</time>
<desc>lat.=42.448391, lon.=18.646868, Alt.=3.902254m. Speed=0.000000m/h.</desc>
<speed>0.000000</speed>
</trkpt>
<trkpt lat="42.448391" lon="18.646868">
<ele>3.894930</ele>
<time>2012-05-02T09:46:00Z</time>
<desc>lat.=42.448391, lon.=18.646868, Alt.=3.894930m. Speed=0.000000m/h.</desc>
<speed>0.000000</speed>
</trkpt>
<trkpt lat="42.448391" lon="18.646868">
<ele>3.887606</ele>
<time>2012-05-02T09:46:05Z</time>
<desc>lat.=42.448391, lon.=18.646868, Alt.=3.887606m. Speed=0.000000m/h.</desc>
<speed>0.000000</speed>
</trkpt>
<trkpt lat="42.448391" lon="18.646868">
<ele>3.881746</ele>
<time>2012-05-02T09:46:10Z</time>
<desc>lat.=42.448391, lon.=18.646868, Alt.=3.881746m. Speed=0.000000m/h.</desc>
<speed>0.000000</speed>
</trkpt>
<trkpt lat="42.448391" lon="18.646868">
<ele>3.876802</ele>
<time>2012-05-02T09:46:15Z</time>
<desc>lat.=42.448391, lon.=18.646868, Alt.=3.876802m. Speed=0.036000m/h.</desc>
<speed>0.010000</speed>
</trkpt>
<trkpt lat="42.448391" lon="18.646868">
<ele>3.876863</ele>
<time>2012-05-02T09:46:20Z</time>
<desc>lat.=42.448391, lon.=18.646868, Alt.=3.876863m. Speed=0.036000m/h.</desc>
<speed>0.010000</speed>
</trkpt>
<trkpt lat="42.448391" lon="18.646868">
<ele>3.875948</ele>
<time>2012-05-02T09:46:25Z</time>
<desc>lat.=42.448391, lon.=18.646868, Alt.=3.875948m. Speed=0.000000m/h.</desc>
<speed>0.000000</speed>
</trkpt>
<trkpt lat="42.448391" lon="18.646868">
<ele>3.876131</ele>
<time>2012-05-02T09:46:30Z</time>
<desc>lat.=42.448391, lon.=18.646868, Alt.=3.876131m. Speed=0.000000m/h.</desc>
<speed>0.000000</speed>
</trkpt>
<trkpt lat="42.448391" lon="18.646868">
<ele>3.884066</ele>
<time>2012-05-02T09:46:35Z</time>
<desc>lat.=42.448391, lon.=18.646868, Alt.=3.884066m. Speed=0.324000m/h.</desc>
<speed>0.090000</speed>
</trkpt>
<trkpt lat="42.448444" lon="18.646891">
<ele>4.679020</ele>
<time>2012-05-02T09:46:40Z</time>
<desc>lat.=42.448444, lon.=18.646891, Alt.=4.679020m. Speed=9.864000m/h.</desc>
<speed>2.740000</speed>
</trkpt>
<trkpt lat="42.448574" lon="18.647066">
<ele>4.249088</ele>
<time>2012-05-02T09:46:45Z</time>
<desc>lat.=42.448574, lon.=18.647066, Alt.=4.249088m. Speed=17.028000m/h.</desc>
<speed>4.730000</speed>
</trkpt>
<trkpt lat="42.448772" lon="18.647280">
<ele>4.356754</ele>
<time>2012-05-02T09:46:50Z</time>
<desc>lat.=42.448772, lon.=18.647280, Alt.=4.356754m. Speed=20.304001m/h.</desc>
<speed>5.640000</speed>
</trkpt>
<trkpt lat="42.448959" lon="18.647509">
<ele>3.690096</ele>
<time>2012-05-02T09:46:55Z</time>
<desc>lat.=42.448959, lon.=18.647509, Alt.=3.690096m. Speed=18.396000m/h.</desc>
<speed>5.110000</speed>
</trkpt>
<trkpt lat="42.449108" lon="18.647772">
<ele>3.363680</ele>
<time>2012-05-02T09:47:00Z</time>
<desc>lat.=42.449108, lon.=18.647772, Alt.=3.363680m. Speed=18.216000m/h.</desc>
<speed>5.060000</speed>
</trkpt>
<trkpt lat="42.449242" lon="18.648060">
<ele>3.562288</ele>
<time>2012-05-02T09:47:05Z</time>
<desc>lat.=42.449242, lon.=18.648060, Alt.=3.562288m. Speed=21.240000m/h.</desc>
<speed>5.900000</speed>
</trkpt>
<trkpt lat="42.449383" lon="18.648371">
<ele>3.385897</ele>
<time>2012-05-02T09:47:10Z</time>
<desc>lat.=42.449383, lon.=18.648371, Alt.=3.385897m. Speed=22.032000m/h.</desc>
<speed>6.120000</speed>
</trkpt>
<trkpt lat="42.449512" lon="18.648727">
<ele>3.500032</ele>
<time>2012-05-02T09:47:15Z</time>
<desc>lat.=42.449512, lon.=18.648727, Alt.=3.500032m. Speed=21.708000m/h.</desc>
<speed>6.030000</speed>
</trkpt>
<trkpt lat="42.449642" lon="18.649038">
<ele>3.136568</ele>
<time>2012-05-02T09:47:20Z</time>
<desc>lat.=42.449642, lon.=18.649038, Alt.=3.136568m. Speed=18.972000m/h.</desc>
<speed>5.270000</speed>
</trkpt>
<trkpt lat="42.449764" lon="18.649328">
<ele>2.633883</ele>
<time>2012-05-02T09:47:25Z</time>
<desc>lat.=42.449764, lon.=18.649328, Alt.=2.633883m. Speed=20.988001m/h.</desc>
<speed>5.830000</speed>
</trkpt>
<trkpt lat="42.449879" lon="18.649664">
<ele>3.087862</ele>
<time>2012-05-02T09:47:30Z</time>
<desc>lat.=42.449879, lon.=18.649664, Alt.=3.087862m. Speed=22.572001m/h.</desc>
<speed>6.270000</speed>
</trkpt>
<trkpt lat="42.449989" lon="18.650007">
<ele>2.624971</ele>
<time>2012-05-02T09:47:35Z</time>
<desc>lat.=42.449989, lon.=18.650007, Alt.=2.624971m. Speed=21.996000m/h.</desc>
<speed>6.110000</speed>
</trkpt>
<trkpt lat="42.450092" lon="18.650349">
<ele>2.733797</ele>
<time>2012-05-02T09:47:40Z</time>
<desc>lat.=42.450092, lon.=18.650349, Alt.=2.733797m. Speed=23.327999m/h.</desc>
<speed>6.480000</speed>
</trkpt>
<trkpt lat="42.450195" lon="18.650711">
<ele>5.027653</ele>
<time>2012-05-02T09:47:45Z</time>
<desc>lat.=42.450195, lon.=18.650711, Alt.=5.027653m. Speed=22.139999m/h.</desc>
<speed>6.150000</speed>
</trkpt>
<trkpt lat="42.450272" lon="18.651087">
<ele>7.235416</ele>
<time>2012-05-02T09:47:50Z</time>
<desc>lat.=42.450272, lon.=18.651087, Alt.=7.235416m. Speed=24.264000m/h.</desc>
<speed>6.740000</speed>
</trkpt>
<trkpt lat="42.450367" lon="18.651472">
<ele>9.384895</ele>
<time>2012-05-02T09:47:55Z</time>
<desc>lat.=42.450367, lon.=18.651472, Alt.=9.384895m. Speed=22.823999m/h.</desc>
<speed>6.340000</speed>
</trkpt>
<trkpt lat="42.450558" lon="18.651598">
<ele>11.096077</ele>
<time>2012-05-02T09:48:00Z</time>
<desc>lat.=42.450558, lon.=18.651598, Alt.=11.096077m. Speed=16.308001m/h.</desc>
<speed>4.530000</speed>
</trkpt>
<trkpt lat="42.450840" lon="18.651609">
<ele>13.125374</ele>
<time>2012-05-02T09:48:05Z</time>
<desc>lat.=42.450840, lon.=18.651609, Alt.=13.125374m. Speed=21.816000m/h.</desc>
<speed>6.060000</speed>
</trkpt>
<trkpt lat="42.451073" lon="18.651562">
<ele>15.212776</ele>
<time>2012-05-02T09:48:10Z</time>
<desc>lat.=42.451073, lon.=18.651562, Alt.=15.212776m. Speed=17.100000m/h.</desc>
<speed>4.750000</speed>
</trkpt>
<trkpt lat="42.451294" lon="18.651432">
<ele>17.668228</ele>
<time>2012-05-02T09:48:15Z</time>
<desc>lat.=42.451294, lon.=18.651432, Alt.=17.668228m. Speed=17.676001m/h.</desc>
<speed>4.910000</speed>
</trkpt>
<trkpt lat="42.451530" lon="18.651503">
<ele>16.864517</ele>
<time>2012-05-02T09:48:20Z</time>
<desc>lat.=42.451530, lon.=18.651503, Alt.=16.864517m. Speed=18.108000m/h.</desc>
<speed>5.030000</speed>
</trkpt>
<trkpt lat="42.451740" lon="18.651752">
<ele>16.036880</ele>
<time>2012-05-02T09:48:25Z</time>
<desc>lat.=42.451740, lon.=18.651752, Alt.=16.036880m. Speed=24.048000m/h.</desc>
<speed>6.680000</speed>
</trkpt>
<trkpt lat="42.451958" lon="18.652018">
<ele>15.720345</ele>
<time>2012-05-02T09:48:30Z</time>
<desc>lat.=42.451958, lon.=18.652018, Alt.=15.720345m. Speed=22.968000m/h.</desc>
<speed>6.380000</speed>
</trkpt>
<trkpt lat="42.452175" lon="18.652313">
<ele>15.413216</ele>
<time>2012-05-02T09:48:35Z</time>
<desc>lat.=42.452175, lon.=18.652313, Alt.=15.413216m. Speed=23.507999m/h.</desc>
<speed>6.530000</speed>
</trkpt>
<trkpt lat="42.452381" lon="18.652534">
<ele>14.930550</ele>
<time>2012-05-02T09:48:40Z</time>
<desc>lat.=42.452381, lon.=18.652534, Alt.=14.930550m. Speed=22.464001m/h.</desc>
<speed>6.240000</speed>
</trkpt>
<trkpt lat="42.452633" lon="18.652746">
<ele>14.627815</ele>
<time>2012-05-02T09:48:45Z</time>
<desc>lat.=42.452633, lon.=18.652746, Alt.=14.627815m. Speed=21.563999m/h.</desc>
<speed>5.990000</speed>
</trkpt>
<trkpt lat="42.452858" lon="18.652901">
<ele>15.817757</ele>
<time>2012-05-02T09:48:50Z</time>
<desc>lat.=42.452858, lon.=18.652901, Alt.=15.817757m. Speed=20.087999m/h.</desc>
<speed>5.580000</speed>
</trkpt>
<trkpt lat="42.453110" lon="18.653097">
<ele>15.831429</ele>
<time>2012-05-02T09:48:55Z</time>
<desc>lat.=42.453110, lon.=18.653097, Alt.=15.831429m. Speed=23.976000m/h.</desc>
<speed>6.660000</speed>
</trkpt>
<trkpt lat="42.453335" lon="18.653320">
<ele>15.083626</ele>
<time>2012-05-02T09:49:00Z</time>
<desc>lat.=42.453335, lon.=18.653320, Alt.=15.083626m. Speed=21.851999m/h.</desc>
<speed>6.070000</speed>
</trkpt>
<trkpt lat="42.453476" lon="18.653645">
<ele>15.205208</ele>
<time>2012-05-02T09:49:05Z</time>
<desc>lat.=42.453476, lon.=18.653645, Alt.=15.205208m. Speed=21.275999m/h.</desc>
<speed>5.910000</speed>
</trkpt>
<trkpt lat="42.453621" lon="18.653940">
<ele>15.857796</ele>
<time>2012-05-02T09:49:10Z</time>
<desc>lat.=42.453621, lon.=18.653940, Alt.=15.857796m. Speed=20.556000m/h.</desc>
<speed>5.710000</speed>
</trkpt>
<trkpt lat="42.453751" lon="18.654251">
<ele>16.118423</ele>
<time>2012-05-02T09:49:15Z</time>
<desc>lat.=42.453751, lon.=18.654251, Alt.=16.118423m. Speed=19.224001m/h.</desc>
<speed>5.340000</speed>
</trkpt>
<trkpt lat="42.453762" lon="18.654480">
<ele>16.208755</ele>
<time>2012-05-02T09:49:20Z</time>
<desc>lat.=42.453762, lon.=18.654480, Alt.=16.208755m. Speed=13.176000m/h.</desc>
<speed>3.660000</speed>
</trkpt>
<trkpt lat="42.453583" lon="18.654633">
<ele>16.041275</ele>
<time>2012-05-02T09:49:25Z</time>
<desc>lat.=42.453583, lon.=18.654633, Alt.=16.041275m. Speed=17.243999m/h.</desc>
<speed>4.790000</speed>
</trkpt>
<trkpt lat="42.453491" lon="18.654915">
<ele>15.690315</ele>
<time>2012-05-02T09:49:30Z</time>
<desc>lat.=42.453491, lon.=18.654915, Alt.=15.690315m. Speed=22.392000m/h.</desc>
<speed>6.220000</speed>
</trkpt>
<trkpt lat="42.453598" lon="18.655293">
<ele>15.320442</ele>
<time>2012-05-02T09:49:35Z</time>
<desc>lat.=42.453598, lon.=18.655293, Alt.=15.320442m. Speed=23.004000m/h.</desc>
<speed>6.390000</speed>
</trkpt>
<trkpt lat="42.453743" lon="18.655672">
<ele>14.121712</ele>
<time>2012-05-02T09:49:40Z</time>
<desc>lat.=42.453743, lon.=18.655672, Alt.=14.121712m. Speed=24.732000m/h.</desc>
<speed>6.870000</speed>
</trkpt>
<trkpt lat="42.453793" lon="18.655981">
<ele>11.143684</ele>
<time>2012-05-02T09:49:45Z</time>
<desc>lat.=42.453793, lon.=18.655981, Alt.=11.143684m. Speed=17.280001m/h.</desc>
<speed>4.800000</speed>
</trkpt>
<trkpt lat="42.453564" lon="18.656210">
<ele>9.225716</ele>
<time>2012-05-02T09:49:50Z</time>
<desc>lat.=42.453564, lon.=18.656210, Alt.=9.225716m. Speed=21.132000m/h.</desc>
<speed>5.870000</speed>
</trkpt>
<trkpt lat="42.453262" lon="18.656445">
<ele>5.585270</ele>
<time>2012-05-02T09:49:55Z</time>
<desc>lat.=42.453262, lon.=18.656445, Alt.=5.585270m. Speed=23.940001m/h.</desc>
<speed>6.650000</speed>
</trkpt>
<trkpt lat="42.453026" lon="18.656765">
<ele>9.010384</ele>
<time>2012-05-02T09:50:00Z</time>
<desc>lat.=42.453026, lon.=18.656765, Alt.=9.010384m. Speed=26.424000m/h.</desc>
<speed>7.340000</speed>
</trkpt>
<trkpt lat="42.452862" lon="18.657093">
<ele>9.393196</ele>
<time>2012-05-02T09:50:05Z</time>
<desc>lat.=42.452862, lon.=18.657093, Alt.=9.393196m. Speed=24.011999m/h.</desc>
<speed>6.670000</speed>
</trkpt>
<trkpt lat="42.452667" lon="18.657440">
<ele>10.567757</ele>
<time>2012-05-02T09:50:10Z</time>
<desc>lat.=42.452667, lon.=18.657440, Alt.=10.567757m. Speed=33.299999m/h.</desc>
<speed>9.250000</speed>
</trkpt>
<trkpt lat="42.452564" lon="18.657764">
<ele>12.917366</ele>
<time>2012-05-02T09:50:15Z</time>
<desc>lat.=42.452564, lon.=18.657764, Alt.=12.917366m. Speed=22.500000m/h.</desc>
<speed>6.250000</speed>
</trkpt>
<trkpt lat="42.452553" lon="18.658100">
<ele>14.576302</ele>
<time>2012-05-02T09:50:20Z</time>
<desc>lat.=42.452553, lon.=18.658100, Alt.=14.576302m. Speed=20.520000m/h.</desc>
<speed>5.700000</speed>
</trkpt>
<trkpt lat="42.452709" lon="18.658407">
<ele>15.764046</ele>
<time>2012-05-02T09:50:25Z</time>
<desc>lat.=42.452709, lon.=18.658407, Alt.=15.764046m. Speed=21.240000m/h.</desc>
<speed>5.900000</speed>
</trkpt>
<trkpt lat="42.452953" lon="18.658680">
<ele>16.341080</ele>
<time>2012-05-02T09:50:30Z</time>
<desc>lat.=42.452953, lon.=18.658680, Alt.=16.341080m. Speed=20.556000m/h.</desc>
<speed>5.710000</speed>
</trkpt>
<trkpt lat="42.453175" lon="18.658932">
<ele>14.998421</ele>
<time>2012-05-02T09:50:35Z</time>
<desc>lat.=42.453175, lon.=18.658932, Alt.=14.998421m. Speed=20.700001m/h.</desc>
<speed>5.750000</speed>
</trkpt>
<trkpt lat="42.453407" lon="18.659184">
<ele>13.305794</ele>
<time>2012-05-02T09:50:40Z</time>
<desc>lat.=42.453407, lon.=18.659184, Alt.=13.305794m. Speed=22.284000m/h.</desc>
<speed>6.190000</speed>
</trkpt>
<trkpt lat="42.453655" lon="18.659405">
<ele>10.795296</ele>
<time>2012-05-02T09:50:45Z</time>
<desc>lat.=42.453655, lon.=18.659405, Alt.=10.795296m. Speed=23.688000m/h.</desc>
<speed>6.580000</speed>
</trkpt>
<trkpt lat="42.453911" lon="18.659603">
<ele>8.959358</ele>
<time>2012-05-02T09:50:50Z</time>
<desc>lat.=42.453911, lon.=18.659603, Alt.=8.959358m. Speed=22.535999m/h.</desc>
<speed>6.260000</speed>
</trkpt>
<trkpt lat="42.454128" lon="18.659801">
<ele>8.622444</ele>
<time>2012-05-02T09:50:55Z</time>
<desc>lat.=42.454128, lon.=18.659801, Alt.=8.622444m. Speed=18.252001m/h.</desc>
<speed>5.070000</speed>
</trkpt>
<trkpt lat="42.454296" lon="18.659998">
<ele>8.049690</ele>
<time>2012-05-02T09:51:00Z</time>
<desc>lat.=42.454296, lon.=18.659998, Alt.=8.049690m. Speed=16.775999m/h.</desc>
<speed>4.660000</speed>
</trkpt>
<trkpt lat="42.454464" lon="18.660221">
<ele>7.103703</ele>
<time>2012-05-02T09:51:05Z</time>
<desc>lat.=42.454464, lon.=18.660221, Alt.=7.103703m. Speed=22.068001m/h.</desc>
<speed>6.130000</speed>
</trkpt>
<trkpt lat="42.454639" lon="18.660446">
<ele>7.125919</ele>
<time>2012-05-02T09:51:10Z</time>
<desc>lat.=42.454639, lon.=18.660446, Alt.=7.125919m. Speed=19.980000m/h.</desc>
<speed>5.550000</speed>
</trkpt>
<trkpt lat="42.454815" lon="18.660673">
<ele>5.560490</ele>
<time>2012-05-02T09:51:15Z</time>
<desc>lat.=42.454815, lon.=18.660673, Alt.=5.560490m. Speed=19.368000m/h.</desc>
<speed>5.380000</speed>
</trkpt>
<trkpt lat="42.454987" lon="18.660881">
<ele>5.286320</ele>
<time>2012-05-02T09:51:20Z</time>
<desc>lat.=42.454987, lon.=18.660881, Alt.=5.286320m. Speed=18.000000m/h.</desc>
<speed>5.000000</speed>
</trkpt>
<trkpt lat="42.455147" lon="18.661087">
<ele>5.207462</ele>
<time>2012-05-02T09:51:25Z</time>
<desc>lat.=42.455147, lon.=18.661087, Alt.=5.207462m. Speed=21.959999m/h.</desc>
<speed>6.100000</speed>
</trkpt>
<trkpt lat="42.455364" lon="18.661322">
<ele>5.519718</ele>
<time>2012-05-02T09:51:30Z</time>
<desc>lat.=42.455364, lon.=18.661322, Alt.=5.519718m. Speed=21.348000m/h.</desc>
<speed>5.930000</speed>
</trkpt>
<trkpt lat="42.455551" lon="18.661575">
<ele>5.339298</ele>
<time>2012-05-02T09:51:35Z</time>
<desc>lat.=42.455551, lon.=18.661575, Alt.=5.339298m. Speed=21.672001m/h.</desc>
<speed>6.020000</speed>
</trkpt>
<trkpt lat="42.455734" lon="18.661825">
<ele>5.132145</ele>
<time>2012-05-02T09:51:40Z</time>
<desc>lat.=42.455734, lon.=18.661825, Alt.=5.132145m. Speed=20.016001m/h.</desc>
<speed>5.560000</speed>
</trkpt>
<trkpt lat="42.455906" lon="18.662148">
<ele>2.839510</ele>
<time>2012-05-02T09:51:45Z</time>
<desc>lat.=42.455906, lon.=18.662148, Alt.=2.839510m. Speed=25.128000m/h.</desc>
<speed>6.980000</speed>
</trkpt>
<trkpt lat="42.456112" lon="18.662497">
<ele>1.334550</ele>
<time>2012-05-02T09:51:50Z</time>
<desc>lat.=42.456112, lon.=18.662497, Alt.=1.334550m. Speed=24.191999m/h.</desc>
<speed>6.720000</speed>
</trkpt>
<trkpt lat="42.456188" lon="18.662889">
<ele>0.609307</ele>
<time>2012-05-02T09:51:55Z</time>
<desc>lat.=42.456188, lon.=18.662889, Alt.=0.609307m. Speed=24.084000m/h.</desc>
<speed>6.690000</speed>
</trkpt>
<trkpt lat="42.456318" lon="18.663273">
<ele>0.409977</ele>
<time>2012-05-02T09:52:00Z</time>
<desc>lat.=42.456318, lon.=18.663273, Alt.=0.409977m. Speed=26.712000m/h.</desc>
<speed>7.420000</speed>
</trkpt>
<trkpt lat="42.456432" lon="18.663685">
<ele>0.017959</ele>
<time>2012-05-02T09:52:05Z</time>
<desc>lat.=42.456432, lon.=18.663685, Alt.=0.017959m. Speed=22.680000m/h.</desc>
<speed>6.300000</speed>
</trkpt>
<trkpt lat="42.456604" lon="18.663992">
<ele>0.852242</ele>
<time>2012-05-02T09:52:10Z</time>
<desc>lat.=42.456604, lon.=18.663992, Alt.=0.852242m. Speed=25.164000m/h.</desc>
<speed>6.990000</speed>
</trkpt>
<trkpt lat="42.456688" lon="18.664404">
<ele>1.312150</ele>
<time>2012-05-02T09:52:15Z</time>
<desc>lat.=42.456688, lon.=18.664404, Alt.=1.312150m. Speed=23.472000m/h.</desc>
<speed>6.520000</speed>
</trkpt>
<trkpt lat="42.456768" lon="18.664808">
<ele>2.134493</ele>
<time>2012-05-02T09:52:20Z</time>
<desc>lat.=42.456768, lon.=18.664808, Alt.=2.134493m. Speed=27.288000m/h.</desc>
<speed>7.580000</speed>
</trkpt>
<trkpt lat="42.456871" lon="18.665232">
<ele>2.788118</ele>
<time>2012-05-02T09:52:25Z</time>
<desc>lat.=42.456871, lon.=18.665232, Alt.=2.788118m. Speed=26.028000m/h.</desc>
<speed>7.230000</speed>
</trkpt>
<trkpt lat="42.456944" lon="18.665674">
<ele>3.747225</ele>
<time>2012-05-02T09:52:30Z</time>
<desc>lat.=42.456944, lon.=18.665674, Alt.=3.747225m. Speed=26.280001m/h.</desc>
<speed>7.300000</speed>
</trkpt>
<trkpt lat="42.457039" lon="18.666092">
<ele>1.878312</ele>
<time>2012-05-02T09:52:35Z</time>
<desc>lat.=42.457039, lon.=18.666092, Alt.=1.878312m. Speed=23.256001m/h.</desc>
<speed>6.460000</speed>
</trkpt>
<trkpt lat="42.457096" lon="18.666502">
<ele>0.753457</ele>
<time>2012-05-02T09:52:40Z</time>
<desc>lat.=42.457096, lon.=18.666502, Alt.=0.753457m. Speed=22.643999m/h.</desc>
<speed>6.290000</speed>
</trkpt>
<trkpt lat="42.457146" lon="18.666861">
<ele>0.293255</ele>
<time>2012-05-02T09:52:45Z</time>
<desc>lat.=42.457146, lon.=18.666861, Alt.=0.293255m. Speed=19.944000m/h.</desc>
<speed>5.540000</speed>
</trkpt>
<trkpt lat="42.457195" lon="18.667185">
<ele>0.202871</ele>
<time>2012-05-02T09:52:50Z</time>
<desc>lat.=42.457195, lon.=18.667185, Alt.=0.202871m. Speed=19.152000m/h.</desc>
<speed>5.320000</speed>
</trkpt>
<trkpt lat="42.457245" lon="18.667542">
<ele>0.808678</ele>
<time>2012-05-02T09:52:55Z</time>
<desc>lat.=42.457245, lon.=18.667542, Alt.=0.808678m. Speed=24.011999m/h.</desc>
<speed>6.670000</speed>
</trkpt>
<trkpt lat="42.457302" lon="18.667944">
<ele>0.564721</ele>
<time>2012-05-02T09:53:00Z</time>
<desc>lat.=42.457302, lon.=18.667944, Alt.=0.564721m. Speed=25.236000m/h.</desc>
<speed>7.010000</speed>
</trkpt>
<trkpt lat="42.457520" lon="18.668320">
<ele>0.403889</ele>
<time>2012-05-02T09:53:05Z</time>
<desc>lat.=42.457520, lon.=18.668320, Alt.=0.403889m. Speed=31.788000m/h.</desc>
<speed>8.830000</speed>
</trkpt>
<trkpt lat="42.457737" lon="18.668734">
<ele>-1.245133</ele>
<time>2012-05-02T09:53:10Z</time>
<desc>lat.=42.457737, lon.=18.668734, Alt.=-1.245133m. Speed=30.420000m/h.</desc>
<speed>8.450000</speed>
</trkpt>
<trkpt lat="42.457962" lon="18.669128">
<ele>-1.086686</ele>
<time>2012-05-02T09:53:15Z</time>
<desc>lat.=42.457962, lon.=18.669128, Alt.=-1.086686m. Speed=28.007999m/h.</desc>
<speed>7.780000</speed>
</trkpt>
<trkpt lat="42.458164" lon="18.669485">
<ele>-1.175950</ele>
<time>2012-05-02T09:53:20Z</time>
<desc>lat.=42.458164, lon.=18.669485, Alt.=-1.175950m. Speed=25.091999m/h.</desc>
<speed>6.970000</speed>
</trkpt>
<trkpt lat="42.458355" lon="18.669800">
<ele>-0.564431</ele>
<time>2012-05-02T09:53:25Z</time>
<desc>lat.=42.458355, lon.=18.669800, Alt.=-0.564431m. Speed=24.768000m/h.</desc>
<speed>6.880000</speed>
</trkpt>
<trkpt lat="42.458591" lon="18.670010">
<ele>0.719964</ele>
<time>2012-05-02T09:53:30Z</time>
<desc>lat.=42.458591, lon.=18.670010, Alt.=0.719964m. Speed=20.664000m/h.</desc>
<speed>5.740000</speed>
</trkpt>
<trkpt lat="42.458797" lon="18.670244">
<ele>1.921525</ele>
<time>2012-05-02T09:53:35Z</time>
<desc>lat.=42.458797, lon.=18.670244, Alt.=1.921525m. Speed=21.636000m/h.</desc>
<speed>6.010000</speed>
</trkpt>
<trkpt lat="42.458946" lon="18.670572">
<ele>3.061678</ele>
<time>2012-05-02T09:53:40Z</time>
<desc>lat.=42.458946, lon.=18.670572, Alt.=3.061678m. Speed=23.076000m/h.</desc>
<speed>6.410000</speed>
</trkpt>
<trkpt lat="42.459087" lon="18.670916">
<ele>3.033236</ele>
<time>2012-05-02T09:53:45Z</time>
<desc>lat.=42.459087, lon.=18.670916, Alt.=3.033236m. Speed=21.708000m/h.</desc>
<speed>6.030000</speed>
</trkpt>
<trkpt lat="42.459236" lon="18.671242">
<ele>2.600008</ele>
<time>2012-05-02T09:53:50Z</time>
<desc>lat.=42.459236, lon.=18.671242, Alt.=2.600008m. Speed=24.084000m/h.</desc>
<speed>6.690000</speed>
</trkpt>
<trkpt lat="42.459377" lon="18.671640">
<ele>1.761277</ele>
<time>2012-05-02T09:53:55Z</time>
<desc>lat.=42.459377, lon.=18.671640, Alt.=1.761277m. Speed=28.188000m/h.</desc>
<speed>7.830000</speed>
</trkpt>
<trkpt lat="42.459476" lon="18.672075">
<ele>1.629624</ele>
<time>2012-05-02T09:54:00Z</time>
<desc>lat.=42.459476, lon.=18.672075, Alt.=1.629624m. Speed=26.388000m/h.</desc>
<speed>7.330000</speed>
</trkpt>
<trkpt lat="42.459507" lon="18.672512">
<ele>0.556954</ele>
<time>2012-05-02T09:54:05Z</time>
<desc>lat.=42.459507, lon.=18.672512, Alt.=0.556954m. Speed=25.632000m/h.</desc>
<speed>7.120000</speed>
</trkpt>
<trkpt lat="42.459507" lon="18.672937">
<ele>-0.019360</ele>
<time>2012-05-02T09:54:10Z</time>
<desc>lat.=42.459507, lon.=18.672937, Alt.=-0.019360m. Speed=26.459999m/h.</desc>
<speed>7.350000</speed>
</trkpt>
<trkpt lat="42.459511" lon="18.673389">
<ele>0.537789</ele>
<time>2012-05-02T09:54:15Z</time>
<desc>lat.=42.459511, lon.=18.673389, Alt.=0.537789m. Speed=25.848000m/h.</desc>
<speed>7.180000</speed>
</trkpt>
<trkpt lat="42.459518" lon="18.673805">
<ele>0.113969</ele>
<time>2012-05-02T09:54:20Z</time>
<desc>lat.=42.459518, lon.=18.673805, Alt.=0.113969m. Speed=23.580000m/h.</desc>
<speed>6.550000</speed>
</trkpt>
<trkpt lat="42.459526" lon="18.674210">
<ele>0.369175</ele>
<time>2012-05-02T09:54:25Z</time>
<desc>lat.=42.459526, lon.=18.674210, Alt.=0.369175m. Speed=26.243999m/h.</desc>
<speed>7.290000</speed>
</trkpt>
<trkpt lat="42.459549" lon="18.674685">
<ele>-0.208311</ele>
<time>2012-05-02T09:54:30Z</time>
<desc>lat.=42.459549, lon.=18.674685, Alt.=-0.208311m. Speed=26.856001m/h.</desc>
<speed>7.460000</speed>
</trkpt>
<trkpt lat="42.459614" lon="18.675102">
<ele>-0.240656</ele>
<time>2012-05-02T09:54:35Z</time>
<desc>lat.=42.459614, lon.=18.675102, Alt.=-0.240656m. Speed=25.416000m/h.</desc>
<speed>7.060000</speed>
</trkpt>
<trkpt lat="42.459797" lon="18.675425">
<ele>-0.367077</ele>
<time>2012-05-02T09:54:40Z</time>
<desc>lat.=42.459797, lon.=18.675425, Alt.=-0.367077m. Speed=27.288000m/h.</desc>
<speed>7.580000</speed>
</trkpt>
<trkpt lat="42.460117" lon="18.675550">
<ele>-1.070786</ele>
<time>2012-05-02T09:54:45Z</time>
<desc>lat.=42.460117, lon.=18.675550, Alt.=-1.070786m. Speed=27.756001m/h.</desc>
<speed>7.710000</speed>
</trkpt>
<trkpt lat="42.460430" lon="18.675447">
<ele>0.025427</ele>
<time>2012-05-02T09:54:50Z</time>
<desc>lat.=42.460430, lon.=18.675447, Alt.=0.025427m. Speed=24.444000m/h.</desc>
<speed>6.790000</speed>
</trkpt>
<trkpt lat="42.460705" lon="18.675226">
<ele>1.246995</ele>
<time>2012-05-02T09:54:55Z</time>
<desc>lat.=42.460705, lon.=18.675226, Alt.=1.246995m. Speed=27.756001m/h.</desc>
<speed>7.710000</speed>
</trkpt>
<trkpt lat="42.460934" lon="18.674892">
<ele>3.042208</ele>
<time>2012-05-02T09:55:00Z</time>
<desc>lat.=42.460934, lon.=18.674892, Alt.=3.042208m. Speed=25.704000m/h.</desc>
<speed>7.140000</speed>
</trkpt>
<trkpt lat="42.460987" lon="18.674774">
<ele>5.354557</ele>
<time>2012-05-02T09:55:05Z</time>
<desc>lat.=42.460987, lon.=18.674774, Alt.=5.354557m. Speed=0.684000m/h.</desc>
<speed>0.190000</speed>
</trkpt>
<trkpt lat="42.460983" lon="18.674776">
<ele>5.569157</ele>
<time>2012-05-02T09:55:10Z</time>
<desc>lat.=42.460983, lon.=18.674776, Alt.=5.569157m. Speed=0.108000m/h.</desc>
<speed>0.030000</speed>
</trkpt>
<trkpt lat="42.460983" lon="18.674778">
<ele>5.722599</ele>
<time>2012-05-02T09:55:15Z</time>
<desc>lat.=42.460983, lon.=18.674778, Alt.=5.722599m. Speed=0.108000m/h.</desc>
<speed>0.030000</speed>
</trkpt>
<trkpt lat="42.460983" lon="18.674778">
<ele>5.785831</ele>
<time>2012-05-02T09:55:20Z</time>
<desc>lat.=42.460983, lon.=18.674778, Alt.=5.785831m. Speed=0.000000m/h.</desc>
<speed>0.000000</speed>
</trkpt>
<trkpt lat="42.460983" lon="18.674778">
<ele>5.870304</ele>
<time>2012-05-02T09:55:25Z</time>
<desc>lat.=42.460983, lon.=18.674778, Alt.=5.870304m. Speed=0.000000m/h.</desc>
<speed>0.000000</speed>
</trkpt>
<trkpt lat="42.460979" lon="18.674780">
<ele>5.886295</ele>
<time>2012-05-02T09:55:30Z</time>
<desc>lat.=42.460979, lon.=18.674780, Alt.=5.886295m. Speed=0.072000m/h.</desc>
<speed>0.020000</speed>
</trkpt>
<trkpt lat="42.460979" lon="18.674780">
<ele>5.943424</ele>
<time>2012-05-02T09:55:35Z</time>
<desc>lat.=42.460979, lon.=18.674780, Alt.=5.943424m. Speed=0.000000m/h.</desc>
<speed>0.000000</speed>
</trkpt>
<trkpt lat="42.460979" lon="18.674780">
<ele>5.943913</ele>
<time>2012-05-02T09:55:40Z</time>
<desc>lat.=42.460979, lon.=18.674780, Alt.=5.943913m. Speed=0.072000m/h.</desc>
<speed>0.020000</speed>
</trkpt>
<trkpt lat="42.460979" lon="18.674780">
<ele>5.940739</ele>
<time>2012-05-02T09:55:45Z</time>
<desc>lat.=42.460979, lon.=18.674780, Alt.=5.940739m. Speed=0.072000m/h.</desc>
<speed>0.020000</speed>
</trkpt>
<trkpt lat="42.460979" lon="18.674780">
<ele>5.929142</ele>
<time>2012-05-02T09:55:50Z</time>
<desc>lat.=42.460979, lon.=18.674780, Alt.=5.929142m. Speed=0.000000m/h.</desc>
<speed>0.000000</speed>
</trkpt>
<trkpt lat="42.460979" lon="18.674780">
<ele>5.926456</ele>
<time>2012-05-02T09:55:55Z</time>
<desc>lat.=42.460979, lon.=18.674780, Alt.=5.926456m. Speed=0.000000m/h.</desc>
<speed>0.000000</speed>
</trkpt>
<trkpt lat="42.460979" lon="18.674780">
<ele>5.935001</ele>
<time>2012-05-02T09:56:00Z</time>
<desc>lat.=42.460979, lon.=18.674780, Alt.=5.935001m. Speed=0.036000m/h.</desc>
<speed>0.010000</speed>
</trkpt>
<trkpt lat="42.460979" lon="18.674780">
<ele>5.935246</ele>
<time>2012-05-02T09:56:05Z</time>
<desc>lat.=42.460979, lon.=18.674780, Alt.=5.935246m. Speed=0.000000m/h.</desc>
<speed>0.000000</speed>
</trkpt>
<trkpt lat="42.460979" lon="18.674780">
<ele>5.931583</ele>
<time>2012-05-02T09:56:10Z</time>
<desc>lat.=42.460979, lon.=18.674780, Alt.=5.931583m. Speed=0.000000m/h.</desc>
<speed>0.000000</speed>
</trkpt>
<trkpt lat="42.460979" lon="18.674780">
<ele>5.922672</ele>
<time>2012-05-02T09:56:15Z</time>
<desc>lat.=42.460979, lon.=18.674780, Alt.=5.922672m. Speed=0.000000m/h.</desc>
<speed>0.000000</speed>
</trkpt>
<trkpt lat="42.460979" lon="18.674780">
<ele>5.913517</ele>
<time>2012-05-02T09:56:20Z</time>
<desc>lat.=42.460979, lon.=18.674780, Alt.=5.913517m. Speed=0.000000m/h.</desc>
<speed>0.000000</speed>
</trkpt>
<trkpt lat="42.460979" lon="18.674780">
<ele>5.910221</ele>
<time>2012-05-02T09:56:25Z</time>
<desc>lat.=42.460979, lon.=18.674780, Alt.=5.910221m. Speed=0.000000m/h.</desc>
<speed>0.000000</speed>
</trkpt>
<trkpt lat="42.460979" lon="18.674780">
<ele>5.937321</ele>
<time>2012-05-02T09:56:30Z</time>
<desc>lat.=42.460979, lon.=18.674780, Alt.=5.937321m. Speed=0.036000m/h.</desc>
<speed>0.010000</speed>
</trkpt>
<trkpt lat="42.460983" lon="18.674765">
<ele>6.074162</ele>
<time>2012-05-02T09:56:35Z</time>
<desc>lat.=42.460983, lon.=18.674765, Alt.=6.074162m. Speed=4.572000m/h.</desc>
<speed>1.270000</speed>
</trkpt>
<trkpt lat="42.461037" lon="18.674593">
<ele>5.647160</ele>
<time>2012-05-02T09:56:40Z</time>
<desc>lat.=42.461037, lon.=18.674593, Alt.=5.647160m. Speed=13.752000m/h.</desc>
<speed>3.820000</speed>
</trkpt>
<trkpt lat="42.461086" lon="18.674435">
<ele>4.513493</ele>
<time>2012-05-02T09:56:45Z</time>
<desc>lat.=42.461086, lon.=18.674435, Alt.=4.513493m. Speed=7.416000m/h.</desc>
<speed>2.060000</speed>
</trkpt>
<trkpt lat="42.461170" lon="18.674200">
<ele>4.986637</ele>
<time>2012-05-02T09:56:50Z</time>
<desc>lat.=42.461170, lon.=18.674200, Alt.=4.986637m. Speed=21.240000m/h.</desc>
<speed>5.900000</speed>
</trkpt>
<trkpt lat="42.461330" lon="18.673880">
<ele>6.148380</ele>
<time>2012-05-02T09:56:55Z</time>
<desc>lat.=42.461330, lon.=18.673880, Alt.=6.148380m. Speed=24.983999m/h.</desc>
<speed>6.940000</speed>
</trkpt>
<trkpt lat="42.461567" lon="18.673607">
<ele>7.108585</ele>
<time>2012-05-02T09:57:00Z</time>
<desc>lat.=42.461567, lon.=18.673607, Alt.=7.108585m. Speed=24.444000m/h.</desc>
<speed>6.790000</speed>
</trkpt>
<trkpt lat="42.461849" lon="18.673330">
<ele>4.915714</ele>
<time>2012-05-02T09:57:05Z</time>
<desc>lat.=42.461849, lon.=18.673330, Alt.=4.915714m. Speed=25.308001m/h.</desc>
<speed>7.030000</speed>
</trkpt>
<trkpt lat="42.462112" lon="18.673143">
<ele>5.534611</ele>
<time>2012-05-02T09:57:10Z</time>
<desc>lat.=42.462112, lon.=18.673143, Alt.=5.534611m. Speed=20.304001m/h.</desc>
<speed>5.640000</speed>
</trkpt>
<trkpt lat="42.462406" lon="18.673019">
<ele>7.281437</ele>
<time>2012-05-02T09:57:15Z</time>
<desc>lat.=42.462406, lon.=18.673019, Alt.=7.281437m. Speed=25.488001m/h.</desc>
<speed>7.080000</speed>
</trkpt>
<trkpt lat="42.462746" lon="18.672997">
<ele>8.271614</ele>
<time>2012-05-02T09:57:20Z</time>
<desc>lat.=42.462746, lon.=18.672997, Alt.=8.271614m. Speed=27.972000m/h.</desc>
<speed>7.770000</speed>
</trkpt>
<trkpt lat="42.463043" lon="18.673086">
<ele>8.869514</ele>
<time>2012-05-02T09:57:25Z</time>
<desc>lat.=42.463043, lon.=18.673086, Alt.=8.869514m. Speed=20.952000m/h.</desc>
<speed>5.820000</speed>
</trkpt>
<trkpt lat="42.463234" lon="18.673241">
<ele>9.344612</ele>
<time>2012-05-02T09:57:30Z</time>
<desc>lat.=42.463234, lon.=18.673241, Alt.=9.344612m. Speed=15.840000m/h.</desc>
<speed>4.400000</speed>
</trkpt>
<trkpt lat="42.463371" lon="18.673346">
<ele>9.709114</ele>
<time>2012-05-02T09:57:35Z</time>
<desc>lat.=42.463371, lon.=18.673346, Alt.=9.709114m. Speed=12.312000m/h.</desc>
<speed>3.420000</speed>
</trkpt>
<trkpt lat="42.463554" lon="18.673433">
<ele>10.213997</ele>
<time>2012-05-02T09:57:40Z</time>
<desc>lat.=42.463554, lon.=18.673433, Alt.=10.213997m. Speed=19.511999m/h.</desc>
<speed>5.420000</speed>
</trkpt>
<trkpt lat="42.463829" lon="18.673500">
<ele>9.948616</ele>
<time>2012-05-02T09:57:45Z</time>
<desc>lat.=42.463829, lon.=18.673500, Alt.=9.948616m. Speed=22.643999m/h.</desc>
<speed>6.290000</speed>
</trkpt>
<trkpt lat="42.464111" lon="18.673485">
<ele>9.431282</ele>
<time>2012-05-02T09:57:50Z</time>
<desc>lat.=42.464111, lon.=18.673485, Alt.=9.431282m. Speed=23.327999m/h.</desc>
<speed>6.480000</speed>
</trkpt>
<trkpt lat="42.464417" lon="18.673458">
<ele>8.054329</ele>
<time>2012-05-02T09:57:55Z</time>
<desc>lat.=42.464417, lon.=18.673458, Alt.=8.054329m. Speed=25.559999m/h.</desc>
<speed>7.100000</speed>
</trkpt>
<trkpt lat="42.464741" lon="18.673456">
<ele>7.366764</ele>
<time>2012-05-02T09:58:00Z</time>
<desc>lat.=42.464741, lon.=18.673456, Alt.=7.366764m. Speed=26.280001m/h.</desc>
<speed>7.300000</speed>
</trkpt>
<trkpt lat="42.465065" lon="18.673460">
<ele>6.581120</ele>
<time>2012-05-02T09:58:05Z</time>
<desc>lat.=42.465065, lon.=18.673460, Alt.=6.581120m. Speed=25.920000m/h.</desc>
<speed>7.200000</speed>
</trkpt>
<trkpt lat="42.465405" lon="18.673498">
<ele>6.700626</ele>
<time>2012-05-02T09:58:10Z</time>
<desc>lat.=42.465405, lon.=18.673498, Alt.=6.700626m. Speed=26.459999m/h.</desc>
<speed>7.350000</speed>
</trkpt>
<trkpt lat="42.465729" lon="18.673510">
<ele>6.299625</ele>
<time>2012-05-02T09:58:15Z</time>
<desc>lat.=42.465729, lon.=18.673510, Alt.=6.299625m. Speed=25.559999m/h.</desc>
<speed>7.100000</speed>
</trkpt>
<trkpt lat="42.466038" lon="18.673540">
<ele>6.108219</ele>
<time>2012-05-02T09:58:20Z</time>
<desc>lat.=42.466038, lon.=18.673540, Alt.=6.108219m. Speed=23.615999m/h.</desc>
<speed>6.560000</speed>
</trkpt>
<trkpt lat="42.466297" lon="18.673676">
<ele>6.600773</ele>
<time>2012-05-02T09:58:25Z</time>
<desc>lat.=42.466297, lon.=18.673676, Alt.=6.600773m. Speed=21.348000m/h.</desc>
<speed>5.930000</speed>
</trkpt>
<trkpt lat="42.466450" lon="18.673916">
<ele>6.727848</ele>
<time>2012-05-02T09:58:30Z</time>
<desc>lat.=42.466450, lon.=18.673916, Alt.=6.727848m. Speed=12.672000m/h.</desc>
<speed>3.520000</speed>
</trkpt>
<trkpt lat="42.466522" lon="18.674013">
<ele>7.149357</ele>
<time>2012-05-02T09:58:35Z</time>
<desc>lat.=42.466522, lon.=18.674013, Alt.=7.149357m. Speed=7.920000m/h.</desc>
<speed>2.200000</speed>
</trkpt>
<trkpt lat="42.466587" lon="18.674219">
<ele>7.027531</ele>
<time>2012-05-02T09:58:40Z</time>
<desc>lat.=42.466587, lon.=18.674219, Alt.=7.027531m. Speed=16.056000m/h.</desc>
<speed>4.460000</speed>
</trkpt>
<trkpt lat="42.466717" lon="18.674427">
<ele>7.754459</ele>
<time>2012-05-02T09:58:45Z</time>
<desc>lat.=42.466717, lon.=18.674427, Alt.=7.754459m. Speed=14.364000m/h.</desc>
<speed>3.990000</speed>
</trkpt>
<trkpt lat="42.466831" lon="18.674490">
<ele>7.708073</ele>
<time>2012-05-02T09:58:50Z</time>
<desc>lat.=42.466831, lon.=18.674490, Alt.=7.708073m. Speed=3.960000m/h.</desc>
<speed>1.100000</speed>
</trkpt>
<trkpt lat="42.466835" lon="18.674503">
<ele>6.313908</ele>
<time>2012-05-02T09:58:55Z</time>
<desc>lat.=42.466835, lon.=18.674503, Alt.=6.313908m. Speed=0.864000m/h.</desc>
<speed>0.240000</speed>
</trkpt>
<trkpt lat="42.466835" lon="18.674511">
<ele>5.484562</ele>
<time>2012-05-02T09:59:00Z</time>
<desc>lat.=42.466835, lon.=18.674511, Alt.=5.484562m. Speed=0.252000m/h.</desc>
<speed>0.070000</speed>
</trkpt>
<trkpt lat="42.466831" lon="18.674511">
<ele>5.203922</ele>
<time>2012-05-02T09:59:05Z</time>
<desc>lat.=42.466831, lon.=18.674511, Alt.=5.203922m. Speed=0.180000m/h.</desc>
<speed>0.050000</speed>
</trkpt>
<trkpt lat="42.466831" lon="18.674511">
<ele>5.145939</ele>
<time>2012-05-02T09:59:10Z</time>
<desc>lat.=42.466831, lon.=18.674511, Alt.=5.145939m. Speed=0.108000m/h.</desc>
<speed>0.030000</speed>
</trkpt>
<trkpt lat="42.466827" lon="18.674509">
<ele>5.168522</ele>
<time>2012-05-02T09:59:15Z</time>
<desc>lat.=42.466827, lon.=18.674509, Alt.=5.168522m. Speed=0.180000m/h.</desc>
<speed>0.050000</speed>
</trkpt>
<trkpt lat="42.466827" lon="18.674507">
<ele>5.312565</ele>
<time>2012-05-02T09:59:20Z</time>
<desc>lat.=42.466827, lon.=18.674507, Alt.=5.312565m. Speed=0.360000m/h.</desc>
<speed>0.100000</speed>
</trkpt>
<trkpt lat="42.466835" lon="18.674511">
<ele>5.549992</ele>
<time>2012-05-02T09:59:25Z</time>
<desc>lat.=42.466835, lon.=18.674511, Alt.=5.549992m. Speed=0.108000m/h.</desc>
<speed>0.030000</speed>
</trkpt>
<trkpt lat="42.466827" lon="18.674509">
<ele>5.679020</ele>
<time>2012-05-02T09:59:30Z</time>
<desc>lat.=42.466827, lon.=18.674509, Alt.=5.679020m. Speed=0.072000m/h.</desc>
<speed>0.020000</speed>
</trkpt>
<trkpt lat="42.466827" lon="18.674511">
<ele>5.687687</ele>
<time>2012-05-02T09:59:35Z</time>
<desc>lat.=42.466827, lon.=18.674511, Alt.=5.687687m. Speed=0.000000m/h.</desc>
<speed>0.000000</speed>
</trkpt>
<trkpt lat="42.466827" lon="18.674509">
<ele>5.676334</ele>
<time>2012-05-02T09:59:40Z</time>
<desc>lat.=42.466827, lon.=18.674509, Alt.=5.676334m. Speed=0.036000m/h.</desc>
<speed>0.010000</speed>
</trkpt>
<trkpt lat="42.466827" lon="18.674509">
<ele>5.657169</ele>
<time>2012-05-02T09:59:45Z</time>
<desc>lat.=42.466827, lon.=18.674509, Alt.=5.657169m. Speed=0.072000m/h.</desc>
<speed>0.020000</speed>
</trkpt>
<trkpt lat="42.466827" lon="18.674509">
<ele>5.658512</ele>
<time>2012-05-02T09:59:50Z</time>
<desc>lat.=42.466827, lon.=18.674509, Alt.=5.658512m. Speed=0.072000m/h.</desc>
<speed>0.020000</speed>
</trkpt>
<trkpt lat="42.466827" lon="18.674509">
<ele>5.667545</ele>
<time>2012-05-02T09:59:55Z</time>
<desc>lat.=42.466827, lon.=18.674509, Alt.=5.667545m. Speed=0.036000m/h.</desc>
<speed>0.010000</speed>
</trkpt>
<trkpt lat="42.466827" lon="18.674509">
<ele>5.691471</ele>
<time>2012-05-02T10:00:00Z</time>
<desc>lat.=42.466827, lon.=18.674509, Alt.=5.691471m. Speed=0.036000m/h.</desc>
<speed>0.010000</speed>
</trkpt>
<trkpt lat="42.466827" lon="18.674509">
<ele>5.693546</ele>
<time>2012-05-02T10:00:05Z</time>
<desc>lat.=42.466827, lon.=18.674509, Alt.=5.693546m. Speed=0.072000m/h.</desc>
<speed>0.020000</speed>
</trkpt>
<trkpt lat="42.466827" lon="18.674509">
<ele>5.693913</ele>
<time>2012-05-02T10:00:10Z</time>
<desc>lat.=42.466827, lon.=18.674509, Alt.=5.693913m. Speed=0.000000m/h.</desc>
<speed>0.000000</speed>
</trkpt>
<trkpt lat="42.466827" lon="18.674509">
<ele>5.687809</ele>
<time>2012-05-02T10:00:15Z</time>
<desc>lat.=42.466827, lon.=18.674509, Alt.=5.687809m. Speed=0.036000m/h.</desc>
<speed>0.010000</speed>
</trkpt>
<trkpt lat="42.466827" lon="18.674509">
<ele>5.686588</ele>
<time>2012-05-02T10:00:20Z</time>
<desc>lat.=42.466827, lon.=18.674509, Alt.=5.686588m. Speed=0.000000m/h.</desc>
<speed>0.000000</speed>
</trkpt>
<trkpt lat="42.466827" lon="18.674509">
<ele>5.677433</ele>
<time>2012-05-02T10:00:25Z</time>
<desc>lat.=42.466827, lon.=18.674509, Alt.=5.677433m. Speed=0.036000m/h.</desc>
<speed>0.010000</speed>
</trkpt>
<trkpt lat="42.466827" lon="18.674509">
<ele>5.667545</ele>
<time>2012-05-02T10:00:30Z</time>
<desc>lat.=42.466827, lon.=18.674509, Alt.=5.667545m. Speed=0.000000m/h.</desc>
<speed>0.000000</speed>
</trkpt>
<trkpt lat="42.466827" lon="18.674509">
<ele>5.653996</ele>
<time>2012-05-02T10:00:35Z</time>
<desc>lat.=42.466827, lon.=18.674509, Alt.=5.653996m. Speed=0.000000m/h.</desc>
<speed>0.000000</speed>
</trkpt>
<trkpt lat="42.466827" lon="18.674509">
<ele>5.666691</ele>
<time>2012-05-02T10:00:40Z</time>
<desc>lat.=42.466827, lon.=18.674509, Alt.=5.666691m. Speed=0.144000m/h.</desc>
<speed>0.040000</speed>
</trkpt>
<trkpt lat="42.466827" lon="18.674507">
<ele>5.668034</ele>
<time>2012-05-02T10:00:45Z</time>
<desc>lat.=42.466827, lon.=18.674507, Alt.=5.668034m. Speed=0.036000m/h.</desc>
<speed>0.010000</speed>
</trkpt>
<trkpt lat="42.466827" lon="18.674507">
<ele>5.661808</ele>
<time>2012-05-02T10:00:50Z</time>
<desc>lat.=42.466827, lon.=18.674507, Alt.=5.661808m. Speed=0.036000m/h.</desc>
<speed>0.010000</speed>
</trkpt>
<trkpt lat="42.466827" lon="18.674507">
<ele>5.650089</ele>
<time>2012-05-02T10:00:55Z</time>
<desc>lat.=42.466827, lon.=18.674507, Alt.=5.650089m. Speed=0.036000m/h.</desc>
<speed>0.010000</speed>
</trkpt>
<trkpt lat="42.466827" lon="18.674507">
<ele>5.642521</ele>
<time>2012-05-02T10:01:00Z</time>
<desc>lat.=42.466827, lon.=18.674507, Alt.=5.642521m. Speed=0.108000m/h.</desc>
<speed>0.030000</speed>
</trkpt>
<trkpt lat="42.466827" lon="18.674507">
<ele>5.645451</ele>
<time>2012-05-02T10:01:05Z</time>
<desc>lat.=42.466827, lon.=18.674507, Alt.=5.645451m. Speed=0.108000m/h.</desc>
<speed>0.030000</speed>
</trkpt>
<trkpt lat="42.466824" lon="18.674484">
<ele>5.706974</ele>
<time>2012-05-02T10:01:10Z</time>
<desc>lat.=42.466824, lon.=18.674484, Alt.=5.706974m. Speed=2.052000m/h.</desc>
<speed>0.570000</speed>
</trkpt>
<trkpt lat="42.466824" lon="18.674461">
<ele>6.299381</ele>
<time>2012-05-02T10:01:15Z</time>
<desc>lat.=42.466824, lon.=18.674461, Alt.=6.299381m. Speed=1.368000m/h.</desc>
<speed>0.380000</speed>
</trkpt>
<trkpt lat="42.466812" lon="18.674448">
<ele>6.979069</ele>
<time>2012-05-02T10:01:20Z</time>
<desc>lat.=42.466812, lon.=18.674448, Alt.=6.979069m. Speed=0.720000m/h.</desc>
<speed>0.200000</speed>
</trkpt>
<trkpt lat="42.466816" lon="18.674448">
<ele>7.535954</ele>
<time>2012-05-02T10:01:25Z</time>
<desc>lat.=42.466816, lon.=18.674448, Alt.=7.535954m. Speed=1.368000m/h.</desc>
<speed>0.380000</speed>
</trkpt>
<trkpt lat="42.466801" lon="18.674448">
<ele>7.971378</ele>
<time>2012-05-02T10:01:30Z</time>
<desc>lat.=42.466801, lon.=18.674448, Alt.=7.971378m. Speed=0.396000m/h.</desc>
<speed>0.110000</speed>
</trkpt>
<trkpt lat="42.466805" lon="18.674427">
<ele>8.102425</ele>
<time>2012-05-02T10:01:35Z</time>
<desc>lat.=42.466805, lon.=18.674427, Alt.=8.102425m. Speed=0.900000m/h.</desc>
<speed>0.250000</speed>
</trkpt>
<trkpt lat="42.466812" lon="18.674404">
<ele>8.201790</ele>
<time>2012-05-02T10:01:40Z</time>
<desc>lat.=42.466812, lon.=18.674404, Alt.=8.201790m. Speed=1.044000m/h.</desc>
<speed>0.290000</speed>
</trkpt>
<trkpt lat="42.466820" lon="18.674398">
<ele>8.190559</ele>
<time>2012-05-02T10:01:45Z</time>
<desc>lat.=42.466820, lon.=18.674398, Alt.=8.190559m. Speed=0.072000m/h.</desc>
<speed>0.020000</speed>
</trkpt>
<trkpt lat="42.466820" lon="18.674397">
<ele>8.220589</ele>
<time>2012-05-02T10:01:50Z</time>
<desc>lat.=42.466820, lon.=18.674397, Alt.=8.220589m. Speed=0.432000m/h.</desc>
<speed>0.120000</speed>
</trkpt>
<trkpt lat="42.466816" lon="18.674395">
<ele>8.242073</ele>
<time>2012-05-02T10:01:55Z</time>
<desc>lat.=42.466816, lon.=18.674395, Alt.=8.242073m. Speed=0.504000m/h.</desc>
<speed>0.140000</speed>
</trkpt>
<trkpt lat="42.466812" lon="18.674391">
<ele>8.257698</ele>
<time>2012-05-02T10:02:00Z</time>
<desc>lat.=42.466812, lon.=18.674391, Alt.=8.257698m. Speed=0.324000m/h.</desc>
<speed>0.090000</speed>
</trkpt>
<trkpt lat="42.466808" lon="18.674383">
<ele>8.274788</ele>
<time>2012-05-02T10:02:05Z</time>
<desc>lat.=42.466808, lon.=18.674383, Alt.=8.274788m. Speed=0.252000m/h.</desc>
<speed>0.070000</speed>
</trkpt>
<trkpt lat="42.466808" lon="18.674377">
<ele>8.290657</ele>
<time>2012-05-02T10:02:10Z</time>
<desc>lat.=42.466808, lon.=18.674377, Alt.=8.290657m. Speed=0.720000m/h.</desc>
<speed>0.200000</speed>
</trkpt>
<trkpt lat="42.466812" lon="18.674368">
<ele>8.308968</ele>
<time>2012-05-02T10:02:15Z</time>
<desc>lat.=42.466812, lon.=18.674368, Alt.=8.308968m. Speed=0.252000m/h.</desc>
<speed>0.070000</speed>
</trkpt>
<trkpt lat="42.466805" lon="18.674372">
<ele>8.322884</ele>
<time>2012-05-02T10:02:20Z</time>
<desc>lat.=42.466805, lon.=18.674372, Alt.=8.322884m. Speed=0.288000m/h.</desc>
<speed>0.080000</speed>
</trkpt>
<trkpt lat="42.466805" lon="18.674366">
<ele>8.345833</ele>
<time>2012-05-02T10:02:25Z</time>
<desc>lat.=42.466805, lon.=18.674366, Alt.=8.345833m. Speed=0.144000m/h.</desc>
<speed>0.040000</speed>
</trkpt>
<trkpt lat="42.466801" lon="18.674368">
<ele>8.365364</ele>
<time>2012-05-02T10:02:30Z</time>
<desc>lat.=42.466801, lon.=18.674368, Alt.=8.365364m. Speed=0.036000m/h.</desc>
<speed>0.010000</speed>
</trkpt>
<trkpt lat="42.466805" lon="18.674370">
<ele>8.388557</ele>
<time>2012-05-02T10:02:35Z</time>
<desc>lat.=42.466805, lon.=18.674370, Alt.=8.388557m. Speed=0.324000m/h.</desc>
<speed>0.090000</speed>
</trkpt>
<trkpt lat="42.466805" lon="18.674370">
<ele>8.390755</ele>
<time>2012-05-02T10:02:40Z</time>
<desc>lat.=42.466805, lon.=18.674370, Alt.=8.390755m. Speed=0.000000m/h.</desc>
<speed>0.000000</speed>
</trkpt>
<trkpt lat="42.466805" lon="18.674370">
<ele>8.390999</ele>
<time>2012-05-02T10:02:45Z</time>
<desc>lat.=42.466805, lon.=18.674370, Alt.=8.390999m. Speed=0.036000m/h.</desc>
<speed>0.010000</speed>
</trkpt>
<trkpt lat="42.466805" lon="18.674370">
<ele>8.390755</ele>
<time>2012-05-02T10:02:50Z</time>
<desc>lat.=42.466805, lon.=18.674370, Alt.=8.390755m. Speed=0.036000m/h.</desc>
<speed>0.010000</speed>
</trkpt>
<trkpt lat="42.466805" lon="18.674370">
<ele>8.390999</ele>
<time>2012-05-02T10:02:55Z</time>
<desc>lat.=42.466805, lon.=18.674370, Alt.=8.390999m. Speed=0.072000m/h.</desc>
<speed>0.020000</speed>
</trkpt>
<trkpt lat="42.466805" lon="18.674372">
<ele>8.389290</ele>
<time>2012-05-02T10:03:00Z</time>
<desc>lat.=42.466805, lon.=18.674372, Alt.=8.389290m. Speed=0.072000m/h.</desc>
<speed>0.020000</speed>
</trkpt>
<trkpt lat="42.466805" lon="18.674372">
<ele>8.389046</ele>
<time>2012-05-02T10:03:05Z</time>
<desc>lat.=42.466805, lon.=18.674372, Alt.=8.389046m. Speed=0.000000m/h.</desc>
<speed>0.000000</speed>
</trkpt>
<trkpt lat="42.466805" lon="18.674372">
<ele>8.391487</ele>
<time>2012-05-02T10:03:10Z</time>
<desc>lat.=42.466805, lon.=18.674372, Alt.=8.391487m. Speed=0.072000m/h.</desc>
<speed>0.020000</speed>
</trkpt>
<trkpt lat="42.466805" lon="18.674372">
<ele>8.396126</ele>
<time>2012-05-02T10:03:15Z</time>
<desc>lat.=42.466805, lon.=18.674372, Alt.=8.396126m. Speed=0.036000m/h.</desc>
<speed>0.010000</speed>
</trkpt>
<trkpt lat="42.466805" lon="18.674372">
<ele>8.400276</ele>
<time>2012-05-02T10:03:20Z</time>
<desc>lat.=42.466805, lon.=18.674372, Alt.=8.400276m. Speed=0.000000m/h.</desc>
<speed>0.000000</speed>
</trkpt>
<trkpt lat="42.466805" lon="18.674372">
<ele>8.403938</ele>
<time>2012-05-02T10:03:25Z</time>
<desc>lat.=42.466805, lon.=18.674372, Alt.=8.403938m. Speed=0.180000m/h.</desc>
<speed>0.050000</speed>
</trkpt>
<trkpt lat="42.466801" lon="18.674374">
<ele>8.408333</ele>
<time>2012-05-02T10:03:30Z</time>
<desc>lat.=42.466801, lon.=18.674374, Alt.=8.408333m. Speed=0.108000m/h.</desc>
<speed>0.030000</speed>
</trkpt>
<trkpt lat="42.466801" lon="18.674374">
<ele>8.407112</ele>
<time>2012-05-02T10:03:35Z</time>
<desc>lat.=42.466801, lon.=18.674374, Alt.=8.407112m. Speed=0.036000m/h.</desc>
<speed>0.010000</speed>
</trkpt>
<trkpt lat="42.466801" lon="18.674374">
<ele>8.412239</ele>
<time>2012-05-02T10:03:40Z</time>
<desc>lat.=42.466801, lon.=18.674374, Alt.=8.412239m. Speed=0.036000m/h.</desc>
<speed>0.010000</speed>
</trkpt>
<trkpt lat="42.466801" lon="18.674374">
<ele>8.416878</ele>
<time>2012-05-02T10:03:45Z</time>
<desc>lat.=42.466801, lon.=18.674374, Alt.=8.416878m. Speed=0.036000m/h.</desc>
<speed>0.010000</speed>
</trkpt>
<trkpt lat="42.466801" lon="18.674372">
<ele>8.439095</ele>
<time>2012-05-02T10:03:50Z</time>
<desc>lat.=42.466801, lon.=18.674372, Alt.=8.439095m. Speed=0.108000m/h.</desc>
<speed>0.030000</speed>
</trkpt>
<trkpt lat="42.466805" lon="18.674372">
<ele>8.455696</ele>
<time>2012-05-02T10:03:55Z</time>
<desc>lat.=42.466805, lon.=18.674372, Alt.=8.455696m. Speed=0.144000m/h.</desc>
<speed>0.040000</speed>
</trkpt>
<trkpt lat="42.466801" lon="18.674370">
<ele>8.479378</ele>
<time>2012-05-02T10:04:00Z</time>
<desc>lat.=42.466801, lon.=18.674370, Alt.=8.479378m. Speed=0.000000m/h.</desc>
<speed>0.000000</speed>
</trkpt>
<trkpt lat="42.466801" lon="18.674370">
<ele>8.494759</ele>
<time>2012-05-02T10:04:05Z</time>
<desc>lat.=42.466801, lon.=18.674370, Alt.=8.494759m. Speed=0.072000m/h.</desc>
<speed>0.020000</speed>
</trkpt>
<trkpt lat="42.466801" lon="18.674372">
<ele>8.508186</ele>
<time>2012-05-02T10:04:10Z</time>
<desc>lat.=42.466801, lon.=18.674372, Alt.=8.508186m. Speed=0.036000m/h.</desc>
<speed>0.010000</speed>
</trkpt>
<trkpt lat="42.466801" lon="18.674372">
<ele>8.536507</ele>
<time>2012-05-02T10:04:15Z</time>
<desc>lat.=42.466801, lon.=18.674372, Alt.=8.536507m. Speed=0.036000m/h.</desc>
<speed>0.010000</speed>
</trkpt>
<trkpt lat="42.466801" lon="18.674370">
<ele>8.539925</ele>
<time>2012-05-02T10:04:20Z</time>
<desc>lat.=42.466801, lon.=18.674370, Alt.=8.539925m. Speed=0.144000m/h.</desc>
<speed>0.040000</speed>
</trkpt>
<trkpt lat="42.466801" lon="18.674370">
<ele>8.558968</ele>
<time>2012-05-02T10:04:25Z</time>
<desc>lat.=42.466801, lon.=18.674370, Alt.=8.558968m. Speed=0.180000m/h.</desc>
<speed>0.050000</speed>
</trkpt>
<trkpt lat="42.466801" lon="18.674370">
<ele>8.590462</ele>
<time>2012-05-02T10:04:30Z</time>
<desc>lat.=42.466801, lon.=18.674370, Alt.=8.590462m. Speed=0.000000m/h.</desc>
<speed>0.000000</speed>
</trkpt>
<trkpt lat="42.466801" lon="18.674368">
<ele>8.633430</ele>
<time>2012-05-02T10:04:35Z</time>
<desc>lat.=42.466801, lon.=18.674368, Alt.=8.633430m. Speed=0.072000m/h.</desc>
<speed>0.020000</speed>
</trkpt>
<trkpt lat="42.466801" lon="18.674368">
<ele>8.700813</ele>
<time>2012-05-02T10:04:40Z</time>
<desc>lat.=42.466801, lon.=18.674368, Alt.=8.700813m. Speed=0.108000m/h.</desc>
<speed>0.030000</speed>
</trkpt>
<trkpt lat="42.466801" lon="18.674370">
<ele>8.735970</ele>
<time>2012-05-02T10:04:45Z</time>
<desc>lat.=42.466801, lon.=18.674370, Alt.=8.735970m. Speed=0.036000m/h.</desc>
<speed>0.010000</speed>
</trkpt>
<trkpt lat="42.466801" lon="18.674370">
<ele>8.767708</ele>
<time>2012-05-02T10:04:50Z</time>
<desc>lat.=42.466801, lon.=18.674370, Alt.=8.767708m. Speed=0.036000m/h.</desc>
<speed>0.010000</speed>
</trkpt>
<trkpt lat="42.466801" lon="18.674370">
<ele>8.752083</ele>
<time>2012-05-02T10:04:55Z</time>
<desc>lat.=42.466801, lon.=18.674370, Alt.=8.752083m. Speed=0.036000m/h.</desc>
<speed>0.010000</speed>
</trkpt>
<trkpt lat="42.466801" lon="18.674370">
<ele>8.748177</ele>
<time>2012-05-02T10:05:00Z</time>
<desc>lat.=42.466801, lon.=18.674370, Alt.=8.748177m. Speed=0.036000m/h.</desc>
<speed>0.010000</speed>
</trkpt>
<trkpt lat="42.466801" lon="18.674368">
<ele>8.755989</ele>
<time>2012-05-02T10:05:05Z</time>
<desc>lat.=42.466801, lon.=18.674368, Alt.=8.755989m. Speed=0.108000m/h.</desc>
<speed>0.030000</speed>
</trkpt>
<trkpt lat="42.466801" lon="18.674368">
<ele>8.731331</ele>
<time>2012-05-02T10:05:10Z</time>
<desc>lat.=42.466801, lon.=18.674368, Alt.=8.731331m. Speed=0.072000m/h.</desc>
<speed>0.020000</speed>
</trkpt>
<trkpt lat="42.466801" lon="18.674368">
<ele>8.715706</ele>
<time>2012-05-02T10:05:15Z</time>
<desc>lat.=42.466801, lon.=18.674368, Alt.=8.715706m. Speed=0.144000m/h.</desc>
<speed>0.040000</speed>
</trkpt>
<trkpt lat="42.466801" lon="18.674366">
<ele>8.780403</ele>
<time>2012-05-02T10:05:20Z</time>
<desc>lat.=42.466801, lon.=18.674366, Alt.=8.780403m. Speed=1.872000m/h.</desc>
<speed>0.520000</speed>
</trkpt>
<trkpt lat="42.466915" lon="18.674461">
<ele>9.339485</ele>
<time>2012-05-02T10:05:25Z</time>
<desc>lat.=42.466915, lon.=18.674461, Alt.=9.339485m. Speed=16.091999m/h.</desc>
<speed>4.470000</speed>
</trkpt>
<trkpt lat="42.467072" lon="18.674801">
<ele>6.533268</ele>
<time>2012-05-02T10:05:30Z</time>
<desc>lat.=42.467072, lon.=18.674801, Alt.=6.533268m. Speed=22.680000m/h.</desc>
<speed>6.300000</speed>
</trkpt>
<trkpt lat="42.467270" lon="18.675182">
<ele>5.627628</ele>
<time>2012-05-02T10:05:35Z</time>
<desc>lat.=42.467270, lon.=18.675182, Alt.=5.627628m. Speed=26.532000m/h.</desc>
<speed>7.370000</speed>
</trkpt>
<trkpt lat="42.467506" lon="18.675491">
<ele>5.217228</ele>
<time>2012-05-02T10:05:40Z</time>
<desc>lat.=42.467506, lon.=18.675491, Alt.=5.217228m. Speed=22.860001m/h.</desc>
<speed>6.350000</speed>
</trkpt>
<trkpt lat="42.467762" lon="18.675571">
<ele>3.022615</ele>
<time>2012-05-02T10:05:45Z</time>
<desc>lat.=42.467762, lon.=18.675571, Alt.=3.022615m. Speed=19.872000m/h.</desc>
<speed>5.520000</speed>
</trkpt>
<trkpt lat="42.468060" lon="18.675564">
<ele>0.041311</ele>
<time>2012-05-02T10:05:50Z</time>
<desc>lat.=42.468060, lon.=18.675564, Alt.=0.041311m. Speed=26.964001m/h.</desc>
<speed>7.490000</speed>
</trkpt>
<trkpt lat="42.468403" lon="18.675611">
<ele>-2.096895</ele>
<time>2012-05-02T10:05:55Z</time>
<desc>lat.=42.468403, lon.=18.675611, Alt.=-2.096895m. Speed=26.747999m/h.</desc>
<speed>7.430000</speed>
</trkpt>
<trkpt lat="42.468693" lon="18.675821">
<ele>-1.465592</ele>
<time>2012-05-02T10:06:00Z</time>
<desc>lat.=42.468693, lon.=18.675821, Alt.=-1.465592m. Speed=24.444000m/h.</desc>
<speed>6.790000</speed>
</trkpt>
<trkpt lat="42.468872" lon="18.676107">
<ele>-1.633592</ele>
<time>2012-05-02T10:06:05Z</time>
<desc>lat.=42.468872, lon.=18.676107, Alt.=-1.633592m. Speed=21.708000m/h.</desc>
<speed>6.030000</speed>
</trkpt>
<trkpt lat="42.469013" lon="18.676460">
<ele>-0.898949</ele>
<time>2012-05-02T10:06:10Z</time>
<desc>lat.=42.469013, lon.=18.676460, Alt.=-0.898949m. Speed=24.228001m/h.</desc>
<speed>6.730000</speed>
</trkpt>
<trkpt lat="42.469158" lon="18.676775">
<ele>-0.930611</ele>
<time>2012-05-02T10:06:15Z</time>
<desc>lat.=42.469158, lon.=18.676775, Alt.=-0.930611m. Speed=18.792000m/h.</desc>
<speed>5.220000</speed>
</trkpt>
<trkpt lat="42.469345" lon="18.677036">
<ele>-0.917565</ele>
<time>2012-05-02T10:06:20Z</time>
<desc>lat.=42.469345, lon.=18.677036, Alt.=-0.917565m. Speed=24.768000m/h.</desc>
<speed>6.880000</speed>
</trkpt>
<trkpt lat="42.469639" lon="18.677292">
<ele>-0.117711</ele>
<time>2012-05-02T10:06:25Z</time>
<desc>lat.=42.469639, lon.=18.677292, Alt.=-0.117711m. Speed=25.740000m/h.</desc>
<speed>7.150000</speed>
</trkpt>
<trkpt lat="42.469929" lon="18.677486">
<ele>0.036277</ele>
<time>2012-05-02T10:06:30Z</time>
<desc>lat.=42.469929, lon.=18.677486, Alt.=0.036277m. Speed=25.091999m/h.</desc>
<speed>6.970000</speed>
</trkpt>
<trkpt lat="42.470238" lon="18.677692">
<ele>0.534539</ele>
<time>2012-05-02T10:06:35Z</time>
<desc>lat.=42.470238, lon.=18.677692, Alt.=0.534539m. Speed=28.044001m/h.</desc>
<speed>7.790000</speed>
</trkpt>
<trkpt lat="42.470509" lon="18.677933">
<ele>1.046739</ele>
<time>2012-05-02T10:06:40Z</time>
<desc>lat.=42.470509, lon.=18.677933, Alt.=1.046739m. Speed=23.184000m/h.</desc>
<speed>6.440000</speed>
</trkpt>
<trkpt lat="42.470638" lon="18.678259">
<ele>0.264897</ele>
<time>2012-05-02T10:06:45Z</time>
<desc>lat.=42.470638, lon.=18.678259, Alt.=0.264897m. Speed=23.219999m/h.</desc>
<speed>6.450000</speed>
</trkpt>
<trkpt lat="42.470726" lon="18.678677">
<ele>-0.601052</ele>
<time>2012-05-02T10:06:50Z</time>
<desc>lat.=42.470726, lon.=18.678677, Alt.=-0.601052m. Speed=25.704000m/h.</desc>
<speed>7.140000</speed>
</trkpt>
<trkpt lat="42.470825" lon="18.679083">
<ele>-1.857926</ele>
<time>2012-05-02T10:06:55Z</time>
<desc>lat.=42.470825, lon.=18.679083, Alt.=-1.857926m. Speed=24.372000m/h.</desc>
<speed>6.770000</speed>
</trkpt>
<trkpt lat="42.470924" lon="18.679485">
<ele>-3.836397</ele>
<time>2012-05-02T10:07:00Z</time>
<desc>lat.=42.470924, lon.=18.679485, Alt.=-3.836397m. Speed=26.351999m/h.</desc>
<speed>7.320000</speed>
</trkpt>
<trkpt lat="42.471035" lon="18.679924">
<ele>-5.686100</ele>
<time>2012-05-02T10:07:05Z</time>
<desc>lat.=42.471035, lon.=18.679924, Alt.=-5.686100m. Speed=28.332001m/h.</desc>
<speed>7.870000</speed>
</trkpt>
<trkpt lat="42.471237" lon="18.680344">
<ele>-6.629948</ele>
<time>2012-05-02T10:07:10Z</time>
<desc>lat.=42.471237, lon.=18.680344, Alt.=-6.629948m. Speed=29.016001m/h.</desc>
<speed>8.060000</speed>
</trkpt>
<trkpt lat="42.471550" lon="18.680580">
<ele>-5.249332</ele>
<time>2012-05-02T10:07:15Z</time>
<desc>lat.=42.471550, lon.=18.680580, Alt.=-5.249332m. Speed=30.528000m/h.</desc>
<speed>8.480000</speed>
</trkpt>
<trkpt lat="42.471958" lon="18.680658">
<ele>-3.783297</ele>
<time>2012-05-02T10:07:20Z</time>
<desc>lat.=42.471958, lon.=18.680658, Alt.=-3.783297m. Speed=36.287998m/h.</desc>
<speed>10.079999</speed>
</trkpt>
<trkpt lat="42.472389" lon="18.680618">
<ele>-4.458927</ele>
<time>2012-05-02T10:07:25Z</time>
<desc>lat.=42.472389, lon.=18.680618, Alt.=-4.458927m. Speed=33.840000m/h.</desc>
<speed>9.400000</speed>
</trkpt>
<trkpt lat="42.472778" lon="18.680567">
<ele>-3.492586</ele>
<time>2012-05-02T10:07:30Z</time>
<desc>lat.=42.472778, lon.=18.680567, Alt.=-3.492586m. Speed=32.076000m/h.</desc>
<speed>8.910000</speed>
</trkpt>
<trkpt lat="42.473148" lon="18.680721">
<ele>-3.818697</ele>
<time>2012-05-02T10:07:35Z</time>
<desc>lat.=42.473148, lon.=18.680721, Alt.=-3.818697m. Speed=31.139999m/h.</desc>
<speed>8.650000</speed>
</trkpt>
<trkpt lat="42.473499" lon="18.680895">
<ele>-2.004671</ele>
<time>2012-05-02T10:07:40Z</time>
<desc>lat.=42.473499, lon.=18.680895, Alt.=-2.004671m. Speed=27.900000m/h.</desc>
<speed>7.750000</speed>
</trkpt>
<trkpt lat="42.473801" lon="18.681137">
<ele>1.764695</ele>
<time>2012-05-02T10:07:45Z</time>
<desc>lat.=42.473801, lon.=18.681137, Alt.=1.764695m. Speed=28.368000m/h.</desc>
<speed>7.880000</speed>
</trkpt>
<trkpt lat="42.474064" lon="18.681452">
<ele>-0.085641</ele>
<time>2012-05-02T10:07:50Z</time>
<desc>lat.=42.474064, lon.=18.681452, Alt.=-0.085641m. Speed=26.208000m/h.</desc>
<speed>7.280000</speed>
</trkpt>
<trkpt lat="42.474281" lon="18.681774">
<ele>1.734208</ele>
<time>2012-05-02T10:07:55Z</time>
<desc>lat.=42.474281, lon.=18.681774, Alt.=1.734208m. Speed=26.351999m/h.</desc>
<speed>7.320000</speed>
</trkpt>
<trkpt lat="42.474514" lon="18.682117">
<ele>1.890885</ele>
<time>2012-05-02T10:08:00Z</time>
<desc>lat.=42.474514, lon.=18.682117, Alt.=1.890885m. Speed=26.388000m/h.</desc>
<speed>7.330000</speed>
</trkpt>
<trkpt lat="42.474731" lon="18.682436">
<ele>1.717698</ele>
<time>2012-05-02T10:08:05Z</time>
<desc>lat.=42.474731, lon.=18.682436, Alt.=1.717698m. Speed=25.091999m/h.</desc>
<speed>6.970000</speed>
</trkpt>
<trkpt lat="42.474983" lon="18.682732">
<ele>3.196932</ele>
<time>2012-05-02T10:08:10Z</time>
<desc>lat.=42.474983, lon.=18.682732, Alt.=3.196932m. Speed=27.360001m/h.</desc>
<speed>7.600000</speed>
</trkpt>
<trkpt lat="42.475262" lon="18.683022">
<ele>3.905367</ele>
<time>2012-05-02T10:08:15Z</time>
<desc>lat.=42.475262, lon.=18.683022, Alt.=3.905367m. Speed=26.136000m/h.</desc>
<speed>7.260000</speed>
</trkpt>
<trkpt lat="42.475502" lon="18.683245">
<ele>4.136295</ele>
<time>2012-05-02T10:08:20Z</time>
<desc>lat.=42.475502, lon.=18.683245, Alt.=4.136295m. Speed=20.052000m/h.</desc>
<speed>5.570000</speed>
</trkpt>
<trkpt lat="42.475708" lon="18.683411">
<ele>5.410221</ele>
<time>2012-05-02T10:08:25Z</time>
<desc>lat.=42.475708, lon.=18.683411, Alt.=5.410221m. Speed=20.988001m/h.</desc>
<speed>5.830000</speed>
</trkpt>
<trkpt lat="42.475941" lon="18.683638">
<ele>6.372990</ele>
<time>2012-05-02T10:08:30Z</time>
<desc>lat.=42.475941, lon.=18.683638, Alt.=6.372990m. Speed=21.275999m/h.</desc>
<speed>5.910000</speed>
</trkpt>
<trkpt lat="42.476101" lon="18.683846">
<ele>8.170052</ele>
<time>2012-05-02T10:08:35Z</time>
<desc>lat.=42.476101, lon.=18.683846, Alt.=8.170052m. Speed=18.900000m/h.</desc>
<speed>5.250000</speed>
</trkpt>
<trkpt lat="42.476349" lon="18.683964">
<ele>8.040169</ele>
<time>2012-05-02T10:08:40Z</time>
<desc>lat.=42.476349, lon.=18.683964, Alt.=8.040169m. Speed=21.924000m/h.</desc>
<speed>6.090000</speed>
</trkpt>
<trkpt lat="42.476608" lon="18.683916">
<ele>8.992561</ele>
<time>2012-05-02T10:08:45Z</time>
<desc>lat.=42.476608, lon.=18.683916, Alt.=8.992561m. Speed=22.356001m/h.</desc>
<speed>6.210000</speed>
</trkpt>
<trkpt lat="42.476864" lon="18.683886">
<ele>8.965462</ele>
<time>2012-05-02T10:08:50Z</time>
<desc>lat.=42.476864, lon.=18.683886, Alt.=8.965462m. Speed=20.195999m/h.</desc>
<speed>5.610000</speed>
</trkpt>
<trkpt lat="42.477127" lon="18.684080">
<ele>9.537239</ele>
<time>2012-05-02T10:08:55Z</time>
<desc>lat.=42.477127, lon.=18.684080, Alt.=9.537239m. Speed=25.128000m/h.</desc>
<speed>6.980000</speed>
</trkpt>
<trkpt lat="42.477360" lon="18.684366">
<ele>8.813850</ele>
<time>2012-05-02T10:09:00Z</time>
<desc>lat.=42.477360, lon.=18.684366, Alt.=8.813850m. Speed=26.063999m/h.</desc>
<speed>7.240000</speed>
</trkpt>
<trkpt lat="42.477592" lon="18.684713">
<ele>8.352180</ele>
<time>2012-05-02T10:09:05Z</time>
<desc>lat.=42.477592, lon.=18.684713, Alt.=8.352180m. Speed=26.747999m/h.</desc>
<speed>7.430000</speed>
</trkpt>
<trkpt lat="42.477753" lon="18.685095">
<ele>8.190559</ele>
<time>2012-05-02T10:09:10Z</time>
<desc>lat.=42.477753, lon.=18.685095, Alt.=8.190559m. Speed=24.840000m/h.</desc>
<speed>6.900000</speed>
</trkpt>
<trkpt lat="42.477959" lon="18.685457">
<ele>7.316715</ele>
<time>2012-05-02T10:09:15Z</time>
<desc>lat.=42.477959, lon.=18.685457, Alt.=7.316715m. Speed=27.431999m/h.</desc>
<speed>7.620000</speed>
</trkpt>
<trkpt lat="42.478241" lon="18.685715">
<ele>6.108097</ele>
<time>2012-05-02T10:09:20Z</time>
<desc>lat.=42.478241, lon.=18.685715, Alt.=6.108097m. Speed=26.856001m/h.</desc>
<speed>7.460000</speed>
</trkpt>
<trkpt lat="42.478432" lon="18.686090">
<ele>5.316105</ele>
<time>2012-05-02T10:09:25Z</time>
<desc>lat.=42.478432, lon.=18.686090, Alt.=5.316105m. Speed=25.596001m/h.</desc>
<speed>7.110000</speed>
</trkpt>
<trkpt lat="42.478630" lon="18.686420">
<ele>6.430729</ele>
<time>2012-05-02T10:09:30Z</time>
<desc>lat.=42.478630, lon.=18.686420, Alt.=6.430729m. Speed=27.323999m/h.</desc>
<speed>7.590000</speed>
</trkpt>
<trkpt lat="42.478947" lon="18.686432">
<ele>6.257023</ele>
<time>2012-05-02T10:09:35Z</time>
<desc>lat.=42.478947, lon.=18.686432, Alt.=6.257023m. Speed=26.063999m/h.</desc>
<speed>7.240000</speed>
</trkpt>
<trkpt lat="42.479225" lon="18.686138">
<ele>6.121159</ele>
<time>2012-05-02T10:09:40Z</time>
<desc>lat.=42.479225, lon.=18.686138, Alt.=6.121159m. Speed=29.556000m/h.</desc>
<speed>8.210000</speed>
</trkpt>
<trkpt lat="42.479458" lon="18.685743">
<ele>5.924870</ele>
<time>2012-05-02T10:09:45Z</time>
<desc>lat.=42.479458, lon.=18.685743, Alt.=5.924870m. Speed=27.252001m/h.</desc>
<speed>7.570000</speed>
</trkpt>
<trkpt lat="42.479675" lon="18.685335">
<ele>5.650822</ele>
<time>2012-05-02T10:09:50Z</time>
<desc>lat.=42.479675, lon.=18.685335, Alt.=5.650822m. Speed=31.535999m/h.</desc>
<speed>8.760000</speed>
</trkpt>
<trkpt lat="42.479885" lon="18.684898">
<ele>4.879826</ele>
<time>2012-05-02T10:09:55Z</time>
<desc>lat.=42.479885, lon.=18.684898, Alt.=4.879826m. Speed=28.332001m/h.</desc>
<speed>7.870000</speed>
</trkpt>
<trkpt lat="42.480068" lon="18.684526">
<ele>4.172672</ele>
<time>2012-05-02T10:10:00Z</time>
<desc>lat.=42.480068, lon.=18.684526, Alt.=4.172672m. Speed=24.516001m/h.</desc>
<speed>6.810000</speed>
</trkpt>
<trkpt lat="42.480194" lon="18.684175">
<ele>3.059542</ele>
<time>2012-05-02T10:10:05Z</time>
<desc>lat.=42.480194, lon.=18.684175, Alt.=3.059542m. Speed=24.084000m/h.</desc>
<speed>6.690000</speed>
</trkpt>
<trkpt lat="42.480373" lon="18.683817">
<ele>2.745394</ele>
<time>2012-05-02T10:10:10Z</time>
<desc>lat.=42.480373, lon.=18.683817, Alt.=2.745394m. Speed=26.316000m/h.</desc>
<speed>7.310000</speed>
</trkpt>
<trkpt lat="42.480537" lon="18.683437">
<ele>1.664598</ele>
<time>2012-05-02T10:10:15Z</time>
<desc>lat.=42.480537, lon.=18.683437, Alt.=1.664598m. Speed=25.812000m/h.</desc>
<speed>7.170000</speed>
</trkpt>
<trkpt lat="42.480701" lon="18.683077">
<ele>0.990410</ele>
<time>2012-05-02T10:10:20Z</time>
<desc>lat.=42.480701, lon.=18.683077, Alt.=0.990410m. Speed=24.660000m/h.</desc>
<speed>6.850000</speed>
</trkpt>
<trkpt lat="42.480858" lon="18.682669">
<ele>0.016446</ele>
<time>2012-05-02T10:10:25Z</time>
<desc>lat.=42.480858, lon.=18.682669, Alt.=0.016446m. Speed=29.556000m/h.</desc>
<speed>8.210000</speed>
</trkpt>
<trkpt lat="42.481026" lon="18.682226">
<ele>-1.262467</ele>
<time>2012-05-02T10:10:30Z</time>
<desc>lat.=42.481026, lon.=18.682226, Alt.=-1.262467m. Speed=28.332001m/h.</desc>
<speed>7.870000</speed>
</trkpt>
<trkpt lat="42.481194" lon="18.681831">
<ele>-0.394696</ele>
<time>2012-05-02T10:10:35Z</time>
<desc>lat.=42.481194, lon.=18.681831, Alt.=-0.394696m. Speed=25.992001m/h.</desc>
<speed>7.220000</speed>
</trkpt>
<trkpt lat="42.481342" lon="18.681425">
<ele>-0.985650</ele>
<time>2012-05-02T10:10:40Z</time>
<desc>lat.=42.481342, lon.=18.681425, Alt.=-0.985650m. Speed=27.864000m/h.</desc>
<speed>7.740000</speed>
</trkpt>
<trkpt lat="42.481472" lon="18.681019">
<ele>-1.572679</ele>
<time>2012-05-02T10:10:45Z</time>
<desc>lat.=42.481472, lon.=18.681019, Alt.=-1.572679m. Speed=24.912001m/h.</desc>
<speed>6.920000</speed>
</trkpt>
<trkpt lat="42.481613" lon="18.680656">
<ele>-2.329012</ele>
<time>2012-05-02T10:10:50Z</time>
<desc>lat.=42.481613, lon.=18.680656, Alt.=-2.329012m. Speed=23.760000m/h.</desc>
<speed>6.600000</speed>
</trkpt>
<trkpt lat="42.481747" lon="18.680271">
<ele>-3.066011</ele>
<time>2012-05-02T10:10:55Z</time>
<desc>lat.=42.481747, lon.=18.680271, Alt.=-3.066011m. Speed=26.784000m/h.</desc>
<speed>7.440000</speed>
</trkpt>
<trkpt lat="42.481899" lon="18.679884">
<ele>-4.521183</ele>
<time>2012-05-02T10:11:00Z</time>
<desc>lat.=42.481899, lon.=18.679884, Alt.=-4.521183m. Speed=25.416000m/h.</desc>
<speed>7.060000</speed>
</trkpt>
<trkpt lat="42.482040" lon="18.679533">
<ele>-5.022038</ele>
<time>2012-05-02T10:11:05Z</time>
<desc>lat.=42.482040, lon.=18.679533, Alt.=-5.022038m. Speed=23.940001m/h.</desc>
<speed>6.650000</speed>
</trkpt>
<trkpt lat="42.482193" lon="18.679186">
<ele>-6.285343</ele>
<time>2012-05-02T10:11:10Z</time>
<desc>lat.=42.482193, lon.=18.679186, Alt.=-6.285343m. Speed=25.056000m/h.</desc>
<speed>6.960000</speed>
</trkpt>
<trkpt lat="42.482372" lon="18.678808">
<ele>-6.939030</ele>
<time>2012-05-02T10:11:15Z</time>
<desc>lat.=42.482372, lon.=18.678808, Alt.=-6.939030m. Speed=26.351999m/h.</desc>
<speed>7.320000</speed>
</trkpt>
<trkpt lat="42.482540" lon="18.678442">
<ele>-7.666813</ele>
<time>2012-05-02T10:11:20Z</time>
<desc>lat.=42.482540, lon.=18.678442, Alt.=-7.666813m. Speed=24.624001m/h.</desc>
<speed>6.840000</speed>
</trkpt>
<trkpt lat="42.482681" lon="18.678089">
<ele>-9.423714</ele>
<time>2012-05-02T10:11:25Z</time>
<desc>lat.=42.482681, lon.=18.678089, Alt.=-9.423714m. Speed=24.444000m/h.</desc>
<speed>6.790000</speed>
</trkpt>
<trkpt lat="42.482838" lon="18.677696">
<ele>-12.223274</ele>
<time>2012-05-02T10:11:30Z</time>
<desc>lat.=42.482838, lon.=18.677696, Alt.=-12.223274m. Speed=26.856001m/h.</desc>
<speed>7.460000</speed>
</trkpt>
<trkpt lat="42.482952" lon="18.677305">
<ele>-13.858528</ele>
<time>2012-05-02T10:11:35Z</time>
<desc>lat.=42.482952, lon.=18.677305, Alt.=-13.858528m. Speed=23.436001m/h.</desc>
<speed>6.510000</speed>
</trkpt>
<trkpt lat="42.483055" lon="18.676956">
<ele>-15.329720</ele>
<time>2012-05-02T10:11:40Z</time>
<desc>lat.=42.483055, lon.=18.676956, Alt.=-15.329720m. Speed=21.851999m/h.</desc>
<speed>6.070000</speed>
</trkpt>
<trkpt lat="42.483162" lon="18.676582">
<ele>-16.376236</ele>
<time>2012-05-02T10:11:45Z</time>
<desc>lat.=42.483162, lon.=18.676582, Alt.=-16.376236m. Speed=25.416000m/h.</desc>
<speed>7.060000</speed>
</trkpt>
<trkpt lat="42.483280" lon="18.676186">
<ele>-17.194595</ele>
<time>2012-05-02T10:11:50Z</time>
<desc>lat.=42.483280, lon.=18.676186, Alt.=-17.194595m. Speed=24.336000m/h.</desc>
<speed>6.760000</speed>
</trkpt>
<trkpt lat="42.483429" lon="18.675827">
<ele>-15.593880</ele>
<time>2012-05-02T10:11:55Z</time>
<desc>lat.=42.483429, lon.=18.675827, Alt.=-15.593880m. Speed=26.459999m/h.</desc>
<speed>7.350000</speed>
</trkpt>
<trkpt lat="42.483608" lon="18.675447">
<ele>-15.511360</ele>
<time>2012-05-02T10:12:00Z</time>
<desc>lat.=42.483608, lon.=18.675447, Alt.=-15.511360m. Speed=27.216000m/h.</desc>
<speed>7.560000</speed>
</trkpt>
<trkpt lat="42.483845" lon="18.675037">
<ele>-16.398209</ele>
<time>2012-05-02T10:12:05Z</time>
<desc>lat.=42.483845, lon.=18.675037, Alt.=-16.398209m. Speed=31.320000m/h.</desc>
<speed>8.700000</speed>
</trkpt>
<trkpt lat="42.484097" lon="18.674603">
<ele>-17.274673</ele>
<time>2012-05-02T10:12:10Z</time>
<desc>lat.=42.484097, lon.=18.674603, Alt.=-17.274673m. Speed=31.176001m/h.</desc>
<speed>8.660000</speed>
</trkpt>
<trkpt lat="42.484287" lon="18.674170">
<ele>-18.257095</ele>
<time>2012-05-02T10:12:15Z</time>
<desc>lat.=42.484287, lon.=18.674170, Alt.=-18.257095m. Speed=30.384001m/h.</desc>
<speed>8.440000</speed>
</trkpt>
<trkpt lat="42.484444" lon="18.673714">
<ele>-18.792252</ele>
<time>2012-05-02T10:12:20Z</time>
<desc>lat.=42.484444, lon.=18.673714, Alt.=-18.792252m. Speed=29.591999m/h.</desc>
<speed>8.220000</speed>
</trkpt>
<trkpt lat="42.484528" lon="18.673231">
<ele>-19.344009</ele>
<time>2012-05-02T10:12:25Z</time>
<desc>lat.=42.484528, lon.=18.673231, Alt.=-19.344009m. Speed=29.016001m/h.</desc>
<speed>8.060000</speed>
</trkpt>
<trkpt lat="42.484566" lon="18.672754">
<ele>-19.289322</ele>
<time>2012-05-02T10:12:30Z</time>
<desc>lat.=42.484566, lon.=18.672754, Alt.=-19.289322m. Speed=28.476000m/h.</desc>
<speed>7.910000</speed>
</trkpt>
<trkpt lat="42.484570" lon="18.672285">
<ele>-19.183853</ele>
<time>2012-05-02T10:12:35Z</time>
<desc>lat.=42.484570, lon.=18.672285, Alt.=-19.183853m. Speed=25.740000m/h.</desc>
<speed>7.150000</speed>
</trkpt>
<trkpt lat="42.484566" lon="18.671854">
<ele>-18.665298</ele>
<time>2012-05-02T10:12:40Z</time>
<desc>lat.=42.484566, lon.=18.671854, Alt.=-18.665298m. Speed=26.208000m/h.</desc>
<speed>7.280000</speed>
</trkpt>
<trkpt lat="42.484627" lon="18.671389">
<ele>-17.829361</ele>
<time>2012-05-02T10:12:45Z</time>
<desc>lat.=42.484627, lon.=18.671389, Alt.=-17.829361m. Speed=28.440001m/h.</desc>
<speed>7.900000</speed>
</trkpt>
<trkpt lat="42.484703" lon="18.670954">
<ele>-17.765396</ele>
<time>2012-05-02T10:12:50Z</time>
<desc>lat.=42.484703, lon.=18.670954, Alt.=-17.765396m. Speed=24.516001m/h.</desc>
<speed>6.810000</speed>
</trkpt>
<trkpt lat="42.484837" lon="18.670626">
<ele>-13.725227</ele>
<time>2012-05-02T10:12:55Z</time>
<desc>lat.=42.484837, lon.=18.670626, Alt.=-13.725227m. Speed=23.436001m/h.</desc>
<speed>6.510000</speed>
</trkpt>
<trkpt lat="42.484989" lon="18.670250">
<ele>-13.171028</ele>
<time>2012-05-02T10:13:00Z</time>
<desc>lat.=42.484989, lon.=18.670250, Alt.=-13.171028m. Speed=26.532000m/h.</desc>
<speed>7.370000</speed>
</trkpt>
<trkpt lat="42.485134" lon="18.669888">
<ele>-12.056770</ele>
<time>2012-05-02T10:13:05Z</time>
<desc>lat.=42.485134, lon.=18.669888, Alt.=-12.056770m. Speed=22.572001m/h.</desc>
<speed>6.270000</speed>
</trkpt>
<trkpt lat="42.485264" lon="18.669514">
<ele>-11.032356</ele>
<time>2012-05-02T10:13:10Z</time>
<desc>lat.=42.485264, lon.=18.669514, Alt.=-11.032356m. Speed=26.568001m/h.</desc>
<speed>7.380000</speed>
</trkpt>
<trkpt lat="42.485413" lon="18.669102">
<ele>-10.147346</ele>
<time>2012-05-02T10:13:15Z</time>
<desc>lat.=42.485413, lon.=18.669102, Alt.=-10.147346m. Speed=27.431999m/h.</desc>
<speed>7.620000</speed>
</trkpt>
<trkpt lat="42.485580" lon="18.668730">
<ele>-9.660042</ele>
<time>2012-05-02T10:13:20Z</time>
<desc>lat.=42.485580, lon.=18.668730, Alt.=-9.660042m. Speed=24.191999m/h.</desc>
<speed>6.720000</speed>
</trkpt>
<trkpt lat="42.485760" lon="18.668409">
<ele>-9.316536</ele>
<time>2012-05-02T10:13:25Z</time>
<desc>lat.=42.485760, lon.=18.668409, Alt.=-9.316536m. Speed=24.156000m/h.</desc>
<speed>6.710000</speed>
</trkpt>
<trkpt lat="42.485977" lon="18.668066">
<ele>-10.024544</ele>
<time>2012-05-02T10:13:30Z</time>
<desc>lat.=42.485977, lon.=18.668066, Alt.=-10.024544m. Speed=27.719999m/h.</desc>
<speed>7.700000</speed>
</trkpt>
<trkpt lat="42.486168" lon="18.667698">
<ele>-10.123909</ele>
<time>2012-05-02T10:13:35Z</time>
<desc>lat.=42.486168, lon.=18.667698, Alt.=-10.123909m. Speed=24.875999m/h.</desc>
<speed>6.910000</speed>
</trkpt>
<trkpt lat="42.486298" lon="18.667336">
<ele>-10.403450</ele>
<time>2012-05-02T10:13:40Z</time>
<desc>lat.=42.486298, lon.=18.667336, Alt.=-10.403450m. Speed=23.940001m/h.</desc>
<speed>6.650000</speed>
</trkpt>
<trkpt lat="42.486374" lon="18.666903">
<ele>-10.035774</ele>
<time>2012-05-02T10:13:45Z</time>
<desc>lat.=42.486374, lon.=18.666903, Alt.=-10.035774m. Speed=28.944000m/h.</desc>
<speed>8.040000</speed>
</trkpt>
<trkpt lat="42.486401" lon="18.666409">
<ele>-10.676399</ele>
<time>2012-05-02T10:13:50Z</time>
<desc>lat.=42.486401, lon.=18.666409, Alt.=-10.676399m. Speed=28.584000m/h.</desc>
<speed>7.940000</speed>
</trkpt>
<trkpt lat="42.486332" lon="18.665989">
<ele>-10.224007</ele>
<time>2012-05-02T10:13:55Z</time>
<desc>lat.=42.486332, lon.=18.665989, Alt.=-10.224007m. Speed=25.308001m/h.</desc>
<speed>7.030000</speed>
</trkpt>
<trkpt lat="42.486286" lon="18.665585">
<ele>-9.402229</ele>
<time>2012-05-02T10:14:00Z</time>
<desc>lat.=42.486286, lon.=18.665585, Alt.=-9.402229m. Speed=23.760000m/h.</desc>
<speed>6.600000</speed>
</trkpt>
<trkpt lat="42.486332" lon="18.665171">
<ele>-8.671028</ele>
<time>2012-05-02T10:14:05Z</time>
<desc>lat.=42.486332, lon.=18.665171, Alt.=-8.671028m. Speed=27.000000m/h.</desc>
<speed>7.500000</speed>
</trkpt>
<trkpt lat="42.486465" lon="18.664728">
<ele>-8.169319</ele>
<time>2012-05-02T10:14:10Z</time>
<desc>lat.=42.486465, lon.=18.664728, Alt.=-8.169319m. Speed=29.916000m/h.</desc>
<speed>8.310000</speed>
</trkpt>
<trkpt lat="42.486641" lon="18.664310">
<ele>-8.074837</ele>
<time>2012-05-02T10:14:15Z</time>
<desc>lat.=42.486641, lon.=18.664310, Alt.=-8.074837m. Speed=25.884001m/h.</desc>
<speed>7.190000</speed>
</trkpt>
<trkpt lat="42.486732" lon="18.663921">
<ele>-7.609074</ele>
<time>2012-05-02T10:14:20Z</time>
<desc>lat.=42.486732, lon.=18.663921, Alt.=-7.609074m. Speed=24.732000m/h.</desc>
<speed>6.870000</speed>
</trkpt>
<trkpt lat="42.486786" lon="18.663477">
<ele>-7.346256</ele>
<time>2012-05-02T10:14:25Z</time>
<desc>lat.=42.486786, lon.=18.663477, Alt.=-7.346256m. Speed=27.612000m/h.</desc>
<speed>7.670000</speed>
</trkpt>
<trkpt lat="42.486858" lon="18.663063">
<ele>-7.458317</ele>
<time>2012-05-02T10:14:30Z</time>
<desc>lat.=42.486858, lon.=18.663063, Alt.=-7.458317m. Speed=23.580000m/h.</desc>
<speed>6.550000</speed>
</trkpt>
<trkpt lat="42.486946" lon="18.662687">
<ele>-8.137581</ele>
<time>2012-05-02T10:14:35Z</time>
<desc>lat.=42.486946, lon.=18.662687, Alt.=-8.137581m. Speed=24.552000m/h.</desc>
<speed>6.820000</speed>
</trkpt>
<trkpt lat="42.487041" lon="18.662277">
<ele>-11.118294</ele>
<time>2012-05-02T10:14:40Z</time>
<desc>lat.=42.487041, lon.=18.662277, Alt.=-11.118294m. Speed=24.983999m/h.</desc>
<speed>6.940000</speed>
</trkpt>
<trkpt lat="42.487133" lon="18.661900">
<ele>-12.403694</ele>
<time>2012-05-02T10:14:45Z</time>
<desc>lat.=42.487133, lon.=18.661900, Alt.=-12.403694m. Speed=21.563999m/h.</desc>
<speed>5.990000</speed>
</trkpt>
<trkpt lat="42.487186" lon="18.661505">
<ele>-13.568001</ele>
<time>2012-05-02T10:14:50Z</time>
<desc>lat.=42.487186, lon.=18.661505, Alt.=-13.568001m. Speed=25.524000m/h.</desc>
<speed>7.090000</speed>
</trkpt>
<trkpt lat="42.487175" lon="18.661068">
<ele>-14.262337</ele>
<time>2012-05-02T10:14:55Z</time>
<desc>lat.=42.487175, lon.=18.661068, Alt.=-14.262337m. Speed=27.576000m/h.</desc>
<speed>7.660000</speed>
</trkpt>
<trkpt lat="42.487068" lon="18.660645">
<ele>-13.636360</ele>
<time>2012-05-02T10:15:00Z</time>
<desc>lat.=42.487068, lon.=18.660645, Alt.=-13.636360m. Speed=26.424000m/h.</desc>
<speed>7.340000</speed>
</trkpt>
<trkpt lat="42.486961" lon="18.660273">
<ele>-12.356331</ele>
<time>2012-05-02T10:15:05Z</time>
<desc>lat.=42.486961, lon.=18.660273, Alt.=-12.356331m. Speed=24.120001m/h.</desc>
<speed>6.700000</speed>
</trkpt>
<trkpt lat="42.486847" lon="18.659943">
<ele>-11.671516</ele>
<time>2012-05-02T10:15:10Z</time>
<desc>lat.=42.486847, lon.=18.659943, Alt.=-11.671516m. Speed=20.952000m/h.</desc>
<speed>5.820000</speed>
</trkpt>
<trkpt lat="42.486805" lon="18.659601">
<ele>-10.815315</ele>
<time>2012-05-02T10:15:15Z</time>
<desc>lat.=42.486805, lon.=18.659601, Alt.=-10.815315m. Speed=19.332001m/h.</desc>
<speed>5.370000</speed>
</trkpt>
<trkpt lat="42.486851" lon="18.659256">
<ele>-9.681526</ele>
<time>2012-05-02T10:15:20Z</time>
<desc>lat.=42.486851, lon.=18.659256, Alt.=-9.681526m. Speed=23.400000m/h.</desc>
<speed>6.500000</speed>
</trkpt>
<trkpt lat="42.486950" lon="18.658831">
<ele>-8.550423</ele>
<time>2012-05-02T10:15:25Z</time>
<desc>lat.=42.486950, lon.=18.658831, Alt.=-8.550423m. Speed=26.712000m/h.</desc>
<speed>7.420000</speed>
</trkpt>
<trkpt lat="42.487061" lon="18.658367">
<ele>-7.512760</ele>
<time>2012-05-02T10:15:30Z</time>
<desc>lat.=42.487061, lon.=18.658367, Alt.=-7.512760m. Speed=26.676001m/h.</desc>
<speed>7.410000</speed>
</trkpt>
<trkpt lat="42.487103" lon="18.657936">
<ele>-5.911808</ele>
<time>2012-05-02T10:15:35Z</time>
<desc>lat.=42.487103, lon.=18.657936, Alt.=-5.911808m. Speed=25.128000m/h.</desc>
<speed>6.980000</speed>
</trkpt>
<trkpt lat="42.487068" lon="18.657560">
<ele>-4.462711</ele>
<time>2012-05-02T10:15:40Z</time>
<desc>lat.=42.487068, lon.=18.657560, Alt.=-4.462711m. Speed=22.464001m/h.</desc>
<speed>6.240000</speed>
</trkpt>
<trkpt lat="42.487000" lon="18.657206">
<ele>-2.641817</ele>
<time>2012-05-02T10:15:45Z</time>
<desc>lat.=42.487000, lon.=18.657206, Alt.=-2.641817m. Speed=23.436001m/h.</desc>
<speed>6.510000</speed>
</trkpt>
<trkpt lat="42.486935" lon="18.656776">
<ele>-0.769204</ele>
<time>2012-05-02T10:15:50Z</time>
<desc>lat.=42.486935, lon.=18.656776, Alt.=-0.769204m. Speed=26.604000m/h.</desc>
<speed>7.390000</speed>
</trkpt>
<trkpt lat="42.486946" lon="18.656343">
<ele>1.029954</ele>
<time>2012-05-02T10:15:55Z</time>
<desc>lat.=42.486946, lon.=18.656343, Alt.=1.029954m. Speed=25.308001m/h.</desc>
<speed>7.030000</speed>
</trkpt>
<trkpt lat="42.486988" lon="18.655874">
<ele>2.552279</ele>
<time>2012-05-02T10:16:00Z</time>
<desc>lat.=42.486988, lon.=18.655874, Alt.=2.552279m. Speed=28.296000m/h.</desc>
<speed>7.860000</speed>
</trkpt>
<trkpt lat="42.487026" lon="18.655457">
<ele>3.968294</ele>
<time>2012-05-02T10:16:05Z</time>
<desc>lat.=42.487026, lon.=18.655457, Alt.=3.968294m. Speed=28.332001m/h.</desc>
<speed>7.870000</speed>
</trkpt>
<trkpt lat="42.487080" lon="18.654999">
<ele>4.837589</ele>
<time>2012-05-02T10:16:10Z</time>
<desc>lat.=42.487080, lon.=18.654999, Alt.=4.837589m. Speed=28.007999m/h.</desc>
<speed>7.780000</speed>
</trkpt>
<trkpt lat="42.487118" lon="18.654528">
<ele>6.022648</ele>
<time>2012-05-02T10:16:15Z</time>
<desc>lat.=42.487118, lon.=18.654528, Alt.=6.022648m. Speed=26.568001m/h.</desc>
<speed>7.380000</speed>
</trkpt>
<trkpt lat="42.487160" lon="18.654100">
<ele>7.145329</ele>
<time>2012-05-02T10:16:20Z</time>
<desc>lat.=42.487160, lon.=18.654100, Alt.=7.145329m. Speed=24.299999m/h.</desc>
<speed>6.750000</speed>
</trkpt>
<trkpt lat="42.487179" lon="18.653711">
<ele>9.128792</ele>
<time>2012-05-02T10:16:25Z</time>
<desc>lat.=42.487179, lon.=18.653711, Alt.=9.128792m. Speed=22.823999m/h.</desc>
<speed>6.340000</speed>
</trkpt>
<trkpt lat="42.487186" lon="18.653334">
<ele>10.320686</ele>
<time>2012-05-02T10:16:30Z</time>
<desc>lat.=42.487186, lon.=18.653334, Alt.=10.320686m. Speed=22.284000m/h.</desc>
<speed>6.190000</speed>
</trkpt>
<trkpt lat="42.487183" lon="18.652927">
<ele>11.665657</ele>
<time>2012-05-02T10:16:35Z</time>
<desc>lat.=42.487183, lon.=18.652927, Alt.=11.665657m. Speed=24.948000m/h.</desc>
<speed>6.930000</speed>
</trkpt>
<trkpt lat="42.487125" lon="18.652517">
<ele>12.255989</ele>
<time>2012-05-02T10:16:40Z</time>
<desc>lat.=42.487125, lon.=18.652517, Alt.=12.255989m. Speed=23.760000m/h.</desc>
<speed>6.600000</speed>
</trkpt>
<trkpt lat="42.487068" lon="18.652086">
<ele>12.826057</ele>
<time>2012-05-02T10:16:45Z</time>
<desc>lat.=42.487068, lon.=18.652086, Alt.=12.826057m. Speed=27.072001m/h.</desc>
<speed>7.520000</speed>
</trkpt>
<trkpt lat="42.487183" lon="18.651737">
<ele>11.475960</ele>
<time>2012-05-02T10:16:50Z</time>
<desc>lat.=42.487183, lon.=18.651737, Alt.=11.475960m. Speed=17.136000m/h.</desc>
<speed>4.760000</speed>
</trkpt>
<trkpt lat="42.487400" lon="18.651487">
<ele>10.468147</ele>
<time>2012-05-02T10:16:55Z</time>
<desc>lat.=42.487400, lon.=18.651487, Alt.=10.468147m. Speed=33.911999m/h.</desc>
<speed>9.420000</speed>
</trkpt>
<trkpt lat="42.487690" lon="18.651224">
<ele>9.771370</ele>
<time>2012-05-02T10:17:00Z</time>
<desc>lat.=42.487690, lon.=18.651224, Alt.=9.771370m. Speed=27.252001m/h.</desc>
<speed>7.570000</speed>
</trkpt>
<trkpt lat="42.488010" lon="18.650951">
<ele>10.501106</ele>
<time>2012-05-02T10:17:05Z</time>
<desc>lat.=42.488010, lon.=18.650951, Alt.=10.501106m. Speed=27.180000m/h.</desc>
<speed>7.550000</speed>
</trkpt>
<trkpt lat="42.488285" lon="18.650669">
<ele>10.581673</ele>
<time>2012-05-02T10:17:10Z</time>
<desc>lat.=42.488285, lon.=18.650669, Alt.=10.581673m. Speed=24.804001m/h.</desc>
<speed>6.890000</speed>
</trkpt>
<trkpt lat="42.488575" lon="18.650351">
<ele>10.734261</ele>
<time>2012-05-02T10:17:15Z</time>
<desc>lat.=42.488575, lon.=18.650351, Alt.=10.734261m. Speed=21.600000m/h.</desc>
<speed>6.000000</speed>
</trkpt>
<trkpt lat="42.488792" lon="18.650043">
<ele>11.273323</ele>
<time>2012-05-02T10:17:20Z</time>
<desc>lat.=42.488792, lon.=18.650043, Alt.=11.273323m. Speed=24.191999m/h.</desc>
<speed>6.720000</speed>
</trkpt>
<trkpt lat="42.488979" lon="18.649675">
<ele>11.256721</ele>
<time>2012-05-02T10:17:25Z</time>
<desc>lat.=42.488979, lon.=18.649675, Alt.=11.256721m. Speed=26.172001m/h.</desc>
<speed>7.270000</speed>
</trkpt>
<trkpt lat="42.489174" lon="18.649342">
<ele>8.796516</ele>
<time>2012-05-02T10:17:30Z</time>
<desc>lat.=42.489174, lon.=18.649342, Alt.=8.796516m. Speed=23.940001m/h.</desc>
<speed>6.650000</speed>
</trkpt>
<trkpt lat="42.489300" lon="18.649097">
<ele>6.594425</ele>
<time>2012-05-02T10:17:35Z</time>
<desc>lat.=42.489300, lon.=18.649097, Alt.=6.594425m. Speed=18.864000m/h.</desc>
<speed>5.240000</speed>
</trkpt>
<trkpt lat="42.489540" lon="18.648987">
<ele>5.557194</ele>
<time>2012-05-02T10:17:40Z</time>
<desc>lat.=42.489540, lon.=18.648987, Alt.=5.557194m. Speed=21.455999m/h.</desc>
<speed>5.960000</speed>
</trkpt>
<trkpt lat="42.489815" lon="18.649061">
<ele>4.954899</ele>
<time>2012-05-02T10:17:45Z</time>
<desc>lat.=42.489815, lon.=18.649061, Alt.=4.954899m. Speed=22.896000m/h.</desc>
<speed>6.360000</speed>
</trkpt>
<trkpt lat="42.490017" lon="18.649330">
<ele>1.556840</ele>
<time>2012-05-02T10:17:50Z</time>
<desc>lat.=42.490017, lon.=18.649330, Alt.=1.556840m. Speed=22.500000m/h.</desc>
<speed>6.250000</speed>
</trkpt>
<trkpt lat="42.490166" lon="18.649601">
<ele>-1.650468</ele>
<time>2012-05-02T10:17:55Z</time>
<desc>lat.=42.490166, lon.=18.649601, Alt.=-1.650468m. Speed=16.884001m/h.</desc>
<speed>4.690000</speed>
</trkpt>
<trkpt lat="42.490303" lon="18.649805">
<ele>-3.497896</ele>
<time>2012-05-02T10:18:00Z</time>
<desc>lat.=42.490303, lon.=18.649805, Alt.=-3.497896m. Speed=15.084000m/h.</desc>
<speed>4.190000</speed>
</trkpt>
<trkpt lat="42.490417" lon="18.649994">
<ele>-4.426823</ele>
<time>2012-05-02T10:18:05Z</time>
<desc>lat.=42.490417, lon.=18.649994, Alt.=-4.426823m. Speed=16.775999m/h.</desc>
<speed>4.660000</speed>
</trkpt>
<trkpt lat="42.490612" lon="18.650171">
<ele>-3.243135</ele>
<time>2012-05-02T10:18:10Z</time>
<desc>lat.=42.490612, lon.=18.650171, Alt.=-3.243135m. Speed=18.900000m/h.</desc>
<speed>5.250000</speed>
</trkpt>
<trkpt lat="42.490833" lon="18.650312">
<ele>-1.706346</ele>
<time>2012-05-02T10:18:15Z</time>
<desc>lat.=42.490833, lon.=18.650312, Alt.=-1.706346m. Speed=16.056000m/h.</desc>
<speed>4.460000</speed>
</trkpt>
<trkpt lat="42.491016" lon="18.650412">
<ele>0.217337</ele>
<time>2012-05-02T10:18:20Z</time>
<desc>lat.=42.491016, lon.=18.650412, Alt.=0.217337m. Speed=12.456000m/h.</desc>
<speed>3.460000</speed>
</trkpt>
<trkpt lat="42.491066" lon="18.650450">
<ele>0.105702</ele>
<time>2012-05-02T10:18:25Z</time>
<desc>lat.=42.491066, lon.=18.650450, Alt.=0.105702m. Speed=0.972000m/h.</desc>
<speed>0.270000</speed>
</trkpt>
<trkpt lat="42.491047" lon="18.650469">
<ele>0.932457</ele>
<time>2012-05-02T10:18:30Z</time>
<desc>lat.=42.491047, lon.=18.650469, Alt.=0.932457m. Speed=0.864000m/h.</desc>
<speed>0.240000</speed>
</trkpt>
<trkpt lat="42.491039" lon="18.650471">
<ele>1.170487</ele>
<time>2012-05-02T10:18:35Z</time>
<desc>lat.=42.491039, lon.=18.650471, Alt.=1.170487m. Speed=0.180000m/h.</desc>
<speed>0.050000</speed>
</trkpt>
<trkpt lat="42.491039" lon="18.650471">
<ele>1.238847</ele>
<time>2012-05-02T10:18:40Z</time>
<desc>lat.=42.491039, lon.=18.650471, Alt.=1.238847m. Speed=1.260000m/h.</desc>
<speed>0.350000</speed>
</trkpt>
<trkpt lat="42.491035" lon="18.650490">
<ele>1.020036</ele>
<time>2012-05-02T10:18:45Z</time>
<desc>lat.=42.491035, lon.=18.650490, Alt.=1.020036m. Speed=0.144000m/h.</desc>
<speed>0.040000</speed>
</trkpt>
<trkpt lat="42.491043" lon="18.650492">
<ele>0.802834</ele>
<time>2012-05-02T10:18:50Z</time>
<desc>lat.=42.491043, lon.=18.650492, Alt.=0.802834m. Speed=0.720000m/h.</desc>
<speed>0.200000</speed>
</trkpt>
<trkpt lat="42.491051" lon="18.650492">
<ele>0.558068</ele>
<time>2012-05-02T10:18:55Z</time>
<desc>lat.=42.491051, lon.=18.650492, Alt.=0.558068m. Speed=0.396000m/h.</desc>
<speed>0.110000</speed>
</trkpt>
<trkpt lat="42.491055" lon="18.650494">
<ele>0.363148</ele>
<time>2012-05-02T10:19:00Z</time>
<desc>lat.=42.491055, lon.=18.650494, Alt.=0.363148m. Speed=0.324000m/h.</desc>
<speed>0.090000</speed>
</trkpt>
<trkpt lat="42.491062" lon="18.650496">
<ele>0.270214</ele>
<time>2012-05-02T10:19:05Z</time>
<desc>lat.=42.491062, lon.=18.650496, Alt.=0.270214m. Speed=0.180000m/h.</desc>
<speed>0.050000</speed>
</trkpt>
<trkpt lat="42.491066" lon="18.650496">
<ele>0.220694</ele>
<time>2012-05-02T10:19:10Z</time>
<desc>lat.=42.491066, lon.=18.650496, Alt.=0.220694m. Speed=0.252000m/h.</desc>
<speed>0.070000</speed>
</trkpt>
<trkpt lat="42.491066" lon="18.650496">
<ele>0.183859</ele>
<time>2012-05-02T10:19:15Z</time>
<desc>lat.=42.491066, lon.=18.650496, Alt.=0.183859m. Speed=0.036000m/h.</desc>
<speed>0.010000</speed>
</trkpt>
<trkpt lat="42.491066" lon="18.650494">
<ele>0.158690</ele>
<time>2012-05-02T10:19:20Z</time>
<desc>lat.=42.491066, lon.=18.650494, Alt.=0.158690m. Speed=0.072000m/h.</desc>
<speed>0.020000</speed>
</trkpt>
<trkpt lat="42.491066" lon="18.650494">
<ele>0.130743</ele>
<time>2012-05-02T10:19:25Z</time>
<desc>lat.=42.491066, lon.=18.650494, Alt.=0.130743m. Speed=0.360000m/h.</desc>
<speed>0.100000</speed>
</trkpt>
<trkpt lat="42.491070" lon="18.650496">
<ele>0.099895</ele>
<time>2012-05-02T10:19:30Z</time>
<desc>lat.=42.491070, lon.=18.650496, Alt.=0.099895m. Speed=0.360000m/h.</desc>
<speed>0.100000</speed>
</trkpt>
<trkpt lat="42.491074" lon="18.650490">
<ele>0.089948</ele>
<time>2012-05-02T10:19:35Z</time>
<desc>lat.=42.491074, lon.=18.650490, Alt.=0.089948m. Speed=0.540000m/h.</desc>
<speed>0.150000</speed>
</trkpt>
<trkpt lat="42.491085" lon="18.650492">
<ele>0.106750</ele>
<time>2012-05-02T10:19:40Z</time>
<desc>lat.=42.491085, lon.=18.650492, Alt.=0.106750m. Speed=0.648000m/h.</desc>
<speed>0.180000</speed>
</trkpt>
<trkpt lat="42.491089" lon="18.650492">
<ele>0.161539</ele>
<time>2012-05-02T10:19:45Z</time>
<desc>lat.=42.491089, lon.=18.650492, Alt.=0.161539m. Speed=0.360000m/h.</desc>
<speed>0.100000</speed>
</trkpt>
<trkpt lat="42.491093" lon="18.650492">
<ele>0.193373</ele>
<time>2012-05-02T10:19:50Z</time>
<desc>lat.=42.491093, lon.=18.650492, Alt.=0.193373m. Speed=0.180000m/h.</desc>
<speed>0.050000</speed>
</trkpt>
<trkpt lat="42.491096" lon="18.650492">
<ele>0.208029</ele>
<time>2012-05-02T10:19:55Z</time>
<desc>lat.=42.491096, lon.=18.650492, Alt.=0.208029m. Speed=0.396000m/h.</desc>
<speed>0.110000</speed>
</trkpt>
<trkpt lat="42.491100" lon="18.650496">
<ele>0.193415</ele>
<time>2012-05-02T10:20:00Z</time>
<desc>lat.=42.491100, lon.=18.650496, Alt.=0.193415m. Speed=0.180000m/h.</desc>
<speed>0.050000</speed>
</trkpt>
<trkpt lat="42.491100" lon="18.650496">
<ele>0.165075</ele>
<time>2012-05-02T10:20:05Z</time>
<desc>lat.=42.491100, lon.=18.650496, Alt.=0.165075m. Speed=0.216000m/h.</desc>
<speed>0.060000</speed>
</trkpt>
<trkpt lat="42.491100" lon="18.650494">
<ele>0.148371</ele>
<time>2012-05-02T10:20:10Z</time>
<desc>lat.=42.491100, lon.=18.650494, Alt.=0.148371m. Speed=0.468000m/h.</desc>
<speed>0.130000</speed>
</trkpt>
<trkpt lat="42.491104" lon="18.650494">
<ele>0.124177</ele>
<time>2012-05-02T10:20:15Z</time>
<desc>lat.=42.491104, lon.=18.650494, Alt.=0.124177m. Speed=0.252000m/h.</desc>
<speed>0.070000</speed>
</trkpt>
<trkpt lat="42.491104" lon="18.650494">
<ele>0.120116</ele>
<time>2012-05-02T10:20:20Z</time>
<desc>lat.=42.491104, lon.=18.650494, Alt.=0.120116m. Speed=0.216000m/h.</desc>
<speed>0.060000</speed>
</trkpt>
<trkpt lat="42.491100" lon="18.650490">
<ele>0.130079</ele>
<time>2012-05-02T10:20:25Z</time>
<desc>lat.=42.491100, lon.=18.650490, Alt.=0.130079m. Speed=0.396000m/h.</desc>
<speed>0.110000</speed>
</trkpt>
<trkpt lat="42.491100" lon="18.650486">
<ele>0.180872</ele>
<time>2012-05-02T10:20:30Z</time>
<desc>lat.=42.491100, lon.=18.650486, Alt.=0.180872m. Speed=0.432000m/h.</desc>
<speed>0.120000</speed>
</trkpt>
<trkpt lat="42.491100" lon="18.650490">
<ele>0.333279</ele>
<time>2012-05-02T10:20:35Z</time>
<desc>lat.=42.491100, lon.=18.650490, Alt.=0.333279m. Speed=0.756000m/h.</desc>
<speed>0.210000</speed>
</trkpt>
<trkpt lat="42.491116" lon="18.650488">
<ele>0.445492</ele>
<time>2012-05-02T10:20:40Z</time>
<desc>lat.=42.491116, lon.=18.650488, Alt.=0.445492m. Speed=1.260000m/h.</desc>
<speed>0.350000</speed>
</trkpt>
<trkpt lat="42.491135" lon="18.650486">
<ele>0.564599</ele>
<time>2012-05-02T10:20:45Z</time>
<desc>lat.=42.491135, lon.=18.650486, Alt.=0.564599m. Speed=1.224000m/h.</desc>
<speed>0.340000</speed>
</trkpt>
<trkpt lat="42.491150" lon="18.650484">
<ele>0.682824</ele>
<time>2012-05-02T10:20:50Z</time>
<desc>lat.=42.491150, lon.=18.650484, Alt.=0.682824m. Speed=0.900000m/h.</desc>
<speed>0.250000</speed>
</trkpt>
<trkpt lat="42.491161" lon="18.650490">
<ele>0.733422</ele>
<time>2012-05-02T10:20:55Z</time>
<desc>lat.=42.491161, lon.=18.650490, Alt.=0.733422m. Speed=0.864000m/h.</desc>
<speed>0.240000</speed>
</trkpt>
<trkpt lat="42.491173" lon="18.650496">
<ele>0.790764</ele>
<time>2012-05-02T10:21:00Z</time>
<desc>lat.=42.491173, lon.=18.650496, Alt.=0.790764m. Speed=1.080000m/h.</desc>
<speed>0.300000</speed>
</trkpt>
<trkpt lat="42.491184" lon="18.650499">
<ele>0.820336</ele>
<time>2012-05-02T10:21:05Z</time>
<desc>lat.=42.491184, lon.=18.650499, Alt.=0.820336m. Speed=0.576000m/h.</desc>
<speed>0.160000</speed>
</trkpt>
<trkpt lat="42.491192" lon="18.650503">
<ele>0.862191</ele>
<time>2012-05-02T10:21:10Z</time>
<desc>lat.=42.491192, lon.=18.650503, Alt.=0.862191m. Speed=0.720000m/h.</desc>
<speed>0.200000</speed>
</trkpt>
<trkpt lat="42.491199" lon="18.650507">
<ele>0.906670</ele>
<time>2012-05-02T10:21:15Z</time>
<desc>lat.=42.491199, lon.=18.650507, Alt.=0.906670m. Speed=0.360000m/h.</desc>
<speed>0.100000</speed>
</trkpt>
<trkpt lat="42.491203" lon="18.650507">
<ele>0.937798</ele>
<time>2012-05-02T10:21:20Z</time>
<desc>lat.=42.491203, lon.=18.650507, Alt.=0.937798m. Speed=0.072000m/h.</desc>
<speed>0.020000</speed>
</trkpt>
<trkpt lat="42.491203" lon="18.650507">
<ele>0.935448</ele>
<time>2012-05-02T10:21:25Z</time>
<desc>lat.=42.491203, lon.=18.650507, Alt.=0.935448m. Speed=0.072000m/h.</desc>
<speed>0.020000</speed>
</trkpt>
<trkpt lat="42.491203" lon="18.650507">
<ele>0.944649</ele>
<time>2012-05-02T10:21:30Z</time>
<desc>lat.=42.491203, lon.=18.650507, Alt.=0.944649m. Speed=0.072000m/h.</desc>
<speed>0.020000</speed>
</trkpt>
<trkpt lat="42.491199" lon="18.650507">
<ele>0.937630</ele>
<time>2012-05-02T10:21:35Z</time>
<desc>lat.=42.491199, lon.=18.650507, Alt.=0.937630m. Speed=0.072000m/h.</desc>
<speed>0.020000</speed>
</trkpt>
<trkpt lat="42.491199" lon="18.650505">
<ele>0.907494</ele>
<time>2012-05-02T10:21:40Z</time>
<desc>lat.=42.491199, lon.=18.650505, Alt.=0.907494m. Speed=0.036000m/h.</desc>
<speed>0.010000</speed>
</trkpt>
<trkpt lat="42.491199" lon="18.650505">
<ele>0.895501</ele>
<time>2012-05-02T10:21:45Z</time>
<desc>lat.=42.491199, lon.=18.650505, Alt.=0.895501m. Speed=0.000000m/h.</desc>
<speed>0.000000</speed>
</trkpt>
<trkpt lat="42.491199" lon="18.650505">
<ele>0.892159</ele>
<time>2012-05-02T10:21:50Z</time>
<desc>lat.=42.491199, lon.=18.650505, Alt.=0.892159m. Speed=0.000000m/h.</desc>
<speed>0.000000</speed>
</trkpt>
<trkpt lat="42.491199" lon="18.650505">
<ele>0.883629</ele>
<time>2012-05-02T10:21:55Z</time>
<desc>lat.=42.491199, lon.=18.650505, Alt.=0.883629m. Speed=0.072000m/h.</desc>
<speed>0.020000</speed>
</trkpt>
<trkpt lat="42.491199" lon="18.650505">
<ele>0.880333</ele>
<time>2012-05-02T10:22:00Z</time>
<desc>lat.=42.491199, lon.=18.650505, Alt.=0.880333m. Speed=0.036000m/h.</desc>
<speed>0.010000</speed>
</trkpt>
<trkpt lat="42.491199" lon="18.650503">
<ele>0.870018</ele>
<time>2012-05-02T10:22:05Z</time>
<desc>lat.=42.491199, lon.=18.650503, Alt.=0.870018m. Speed=0.036000m/h.</desc>
<speed>0.010000</speed>
</trkpt>
<trkpt lat="42.491199" lon="18.650503">
<ele>0.848168</ele>
<time>2012-05-02T10:22:10Z</time>
<desc>lat.=42.491199, lon.=18.650503, Alt.=0.848168m. Speed=0.036000m/h.</desc>
<speed>0.010000</speed>
</trkpt>
<trkpt lat="42.491199" lon="18.650503">
<ele>0.832299</ele>
<time>2012-05-02T10:22:15Z</time>
<desc>lat.=42.491199, lon.=18.650503, Alt.=0.832299m. Speed=0.036000m/h.</desc>
<speed>0.010000</speed>
</trkpt>
<trkpt lat="42.491199" lon="18.650503">
<ele>0.821373</ele>
<time>2012-05-02T10:22:20Z</time>
<desc>lat.=42.491199, lon.=18.650503, Alt.=0.821373m. Speed=0.036000m/h.</desc>
<speed>0.010000</speed>
</trkpt>
<trkpt lat="42.491199" lon="18.650501">
<ele>0.794610</ele>
<time>2012-05-02T10:22:25Z</time>
<desc>lat.=42.491199, lon.=18.650501, Alt.=0.794610m. Speed=0.000000m/h.</desc>
<speed>0.000000</speed>
</trkpt>
<trkpt lat="42.491199" lon="18.650501">
<ele>0.767449</ele>
<time>2012-05-02T10:22:30Z</time>
<desc>lat.=42.491199, lon.=18.650501, Alt.=0.767449m. Speed=0.000000m/h.</desc>
<speed>0.000000</speed>
</trkpt>
<trkpt lat="42.491199" lon="18.650501">
<ele>0.743660</ele>
<time>2012-05-02T10:22:35Z</time>
<desc>lat.=42.491199, lon.=18.650501, Alt.=0.743660m. Speed=0.000000m/h.</desc>
<speed>0.000000</speed>
</trkpt>
<trkpt lat="42.491199" lon="18.650501">
<ele>0.719643</ele>
<time>2012-05-02T10:22:40Z</time>
<desc>lat.=42.491199, lon.=18.650501, Alt.=0.719643m. Speed=0.000000m/h.</desc>
<speed>0.000000</speed>
</trkpt>
<trkpt lat="42.491199" lon="18.650499">
<ele>0.696434</ele>
<time>2012-05-02T10:22:45Z</time>
<desc>lat.=42.491199, lon.=18.650499, Alt.=0.696434m. Speed=0.000000m/h.</desc>
<speed>0.000000</speed>
</trkpt>
<trkpt lat="42.491199" lon="18.650499">
<ele>0.672997</ele>
<time>2012-05-02T10:22:50Z</time>
<desc>lat.=42.491199, lon.=18.650499, Alt.=0.672997m. Speed=0.000000m/h.</desc>
<speed>0.000000</speed>
</trkpt>
<trkpt lat="42.491199" lon="18.650499">
<ele>0.677636</ele>
<time>2012-05-02T10:22:55Z</time>
<desc>lat.=42.491199, lon.=18.650499, Alt.=0.677636m. Speed=0.000000m/h.</desc>
<speed>0.000000</speed>
</trkpt>
<trkpt lat="42.491199" lon="18.650499">
<ele>0.696633</ele>
<time>2012-05-02T10:23:00Z</time>
<desc>lat.=42.491199, lon.=18.650499, Alt.=0.696633m. Speed=0.000000m/h.</desc>
<speed>0.000000</speed>
</trkpt>
<trkpt lat="42.491199" lon="18.650499">
<ele>0.700982</ele>
<time>2012-05-02T10:23:05Z</time>
<desc>lat.=42.491199, lon.=18.650499, Alt.=0.700982m. Speed=0.000000m/h.</desc>
<speed>0.000000</speed>
</trkpt>
<trkpt lat="42.491199" lon="18.650499">
<ele>0.696923</ele>
<time>2012-05-02T10:23:10Z</time>
<desc>lat.=42.491199, lon.=18.650499, Alt.=0.696923m. Speed=0.036000m/h.</desc>
<speed>0.010000</speed>
</trkpt>
<trkpt lat="42.491199" lon="18.650499">
<ele>0.685341</ele>
<time>2012-05-02T10:23:15Z</time>
<desc>lat.=42.491199, lon.=18.650499, Alt.=0.685341m. Speed=0.000000m/h.</desc>
<speed>0.000000</speed>
</trkpt>
<trkpt lat="42.491199" lon="18.650497">
<ele>0.655175</ele>
<time>2012-05-02T10:23:20Z</time>
<desc>lat.=42.491199, lon.=18.650497, Alt.=0.655175m. Speed=0.108000m/h.</desc>
<speed>0.030000</speed>
</trkpt>
<trkpt lat="42.491199" lon="18.650497">
<ele>0.626198</ele>
<time>2012-05-02T10:23:25Z</time>
<desc>lat.=42.491199, lon.=18.650497, Alt.=0.626198m. Speed=0.000000m/h.</desc>
<speed>0.000000</speed>
</trkpt>
<trkpt lat="42.491199" lon="18.650497">
<ele>0.596627</ele>
<time>2012-05-02T10:23:30Z</time>
<desc>lat.=42.491199, lon.=18.650497, Alt.=0.596627m. Speed=0.072000m/h.</desc>
<speed>0.020000</speed>
</trkpt>
<trkpt lat="42.491199" lon="18.650496">
<ele>0.556664</ele>
<time>2012-05-02T10:23:35Z</time>
<desc>lat.=42.491199, lon.=18.650496, Alt.=0.556664m. Speed=0.036000m/h.</desc>
<speed>0.010000</speed>
</trkpt>
<trkpt lat="42.491199" lon="18.650496">
<ele>0.531273</ele>
<time>2012-05-02T10:23:40Z</time>
<desc>lat.=42.491199, lon.=18.650496, Alt.=0.531273m. Speed=0.036000m/h.</desc>
<speed>0.010000</speed>
</trkpt>
<trkpt lat="42.491196" lon="18.650496">
<ele>0.511055</ele>
<time>2012-05-02T10:23:45Z</time>
<desc>lat.=42.491196, lon.=18.650496, Alt.=0.511055m. Speed=0.036000m/h.</desc>
<speed>0.010000</speed>
</trkpt>
<trkpt lat="42.491196" lon="18.650496">
<ele>0.469387</ele>
<time>2012-05-02T10:23:50Z</time>
<desc>lat.=42.491196, lon.=18.650496, Alt.=0.469387m. Speed=0.108000m/h.</desc>
<speed>0.030000</speed>
</trkpt>
<trkpt lat="42.491196" lon="18.650496">
<ele>0.457196</ele>
<time>2012-05-02T10:23:55Z</time>
<desc>lat.=42.491196, lon.=18.650496, Alt.=0.457196m. Speed=0.036000m/h.</desc>
<speed>0.010000</speed>
</trkpt>
<trkpt lat="42.491196" lon="18.650496">
<ele>0.447727</ele>
<time>2012-05-02T10:24:00Z</time>
<desc>lat.=42.491196, lon.=18.650496, Alt.=0.447727m. Speed=0.000000m/h.</desc>
<speed>0.000000</speed>
</trkpt>
<trkpt lat="42.491196" lon="18.650496">
<ele>0.439663</ele>
<time>2012-05-02T10:24:05Z</time>
<desc>lat.=42.491196, lon.=18.650496, Alt.=0.439663m. Speed=0.036000m/h.</desc>
<speed>0.010000</speed>
</trkpt>
<trkpt lat="42.491196" lon="18.650494">
<ele>0.401226</ele>
<time>2012-05-02T10:24:10Z</time>
<desc>lat.=42.491196, lon.=18.650494, Alt.=0.401226m. Speed=0.036000m/h.</desc>
<speed>0.010000</speed>
</trkpt>
<trkpt lat="42.491196" lon="18.650494">
<ele>0.355267</ele>
<time>2012-05-02T10:24:15Z</time>
<desc>lat.=42.491196, lon.=18.650494, Alt.=0.355267m. Speed=0.072000m/h.</desc>
<speed>0.020000</speed>
</trkpt>
<trkpt lat="42.491196" lon="18.650494">
<ele>0.302708</ele>
<time>2012-05-02T10:24:20Z</time>
<desc>lat.=42.491196, lon.=18.650494, Alt.=0.302708m. Speed=0.072000m/h.</desc>
<speed>0.020000</speed>
</trkpt>
<trkpt lat="42.491196" lon="18.650492">
<ele>0.251461</ele>
<time>2012-05-02T10:24:25Z</time>
<desc>lat.=42.491196, lon.=18.650492, Alt.=0.251461m. Speed=0.036000m/h.</desc>
<speed>0.010000</speed>
</trkpt>
<trkpt lat="42.491196" lon="18.650492">
<ele>0.239775</ele>
<time>2012-05-02T10:24:30Z</time>
<desc>lat.=42.491196, lon.=18.650492, Alt.=0.239775m. Speed=0.036000m/h.</desc>
<speed>0.010000</speed>
</trkpt>
<trkpt lat="42.491196" lon="18.650492">
<ele>0.227862</ele>
<time>2012-05-02T10:24:35Z</time>
<desc>lat.=42.491196, lon.=18.650492, Alt.=0.227862m. Speed=0.072000m/h.</desc>
<speed>0.020000</speed>
</trkpt>
<trkpt lat="42.491192" lon="18.650492">
<ele>0.228361</ele>
<time>2012-05-02T10:24:40Z</time>
<desc>lat.=42.491192, lon.=18.650492, Alt.=0.228361m. Speed=0.108000m/h.</desc>
<speed>0.030000</speed>
</trkpt>
<trkpt lat="42.491192" lon="18.650492">
<ele>0.225092</ele>
<time>2012-05-02T10:24:45Z</time>
<desc>lat.=42.491192, lon.=18.650492, Alt.=0.225092m. Speed=0.000000m/h.</desc>
<speed>0.000000</speed>
</trkpt>
<trkpt lat="42.491192" lon="18.650492">
<ele>0.225508</ele>
<time>2012-05-02T10:24:50Z</time>
<desc>lat.=42.491192, lon.=18.650492, Alt.=0.225508m. Speed=0.000000m/h.</desc>
<speed>0.000000</speed>
</trkpt>
<trkpt lat="42.491192" lon="18.650492">
<ele>0.215811</ele>
<time>2012-05-02T10:24:55Z</time>
<desc>lat.=42.491192, lon.=18.650492, Alt.=0.215811m. Speed=0.072000m/h.</desc>
<speed>0.020000</speed>
</trkpt>
<trkpt lat="42.491192" lon="18.650492">
<ele>0.204519</ele>
<time>2012-05-02T10:25:00Z</time>
<desc>lat.=42.491192, lon.=18.650492, Alt.=0.204519m. Speed=0.144000m/h.</desc>
<speed>0.040000</speed>
</trkpt>
<trkpt lat="42.491192" lon="18.650492">
<ele>0.192309</ele>
<time>2012-05-02T10:25:05Z</time>
<desc>lat.=42.491192, lon.=18.650492, Alt.=0.192309m. Speed=0.000000m/h.</desc>
<speed>0.000000</speed>
</trkpt>
<trkpt lat="42.491192" lon="18.650490">
<ele>0.182436</ele>
<time>2012-05-02T10:25:10Z</time>
<desc>lat.=42.491192, lon.=18.650490, Alt.=0.182436m. Speed=0.036000m/h.</desc>
<speed>0.010000</speed>
</trkpt>
<trkpt lat="42.491192" lon="18.650492">
<ele>0.177351</ele>
<time>2012-05-02T10:25:15Z</time>
<desc>lat.=42.491192, lon.=18.650492, Alt.=0.177351m. Speed=0.036000m/h.</desc>
<speed>0.010000</speed>
</trkpt>
<trkpt lat="42.491192" lon="18.650490">
<ele>0.178297</ele>
<time>2012-05-02T10:25:20Z</time>
<desc>lat.=42.491192, lon.=18.650490, Alt.=0.178297m. Speed=0.000000m/h.</desc>
<speed>0.000000</speed>
</trkpt>
<trkpt lat="42.491192" lon="18.650490">
<ele>0.179365</ele>
<time>2012-05-02T10:25:25Z</time>
<desc>lat.=42.491192, lon.=18.650490, Alt.=0.179365m. Speed=0.036000m/h.</desc>
<speed>0.010000</speed>
</trkpt>
<trkpt lat="42.491192" lon="18.650490">
<ele>0.172903</ele>
<time>2012-05-02T10:25:30Z</time>
<desc>lat.=42.491192, lon.=18.650490, Alt.=0.172903m. Speed=0.108000m/h.</desc>
<speed>0.030000</speed>
</trkpt>
<trkpt lat="42.491192" lon="18.650490">
<ele>0.168005</ele>
<time>2012-05-02T10:25:35Z</time>
<desc>lat.=42.491192, lon.=18.650490, Alt.=0.168005m. Speed=0.036000m/h.</desc>
<speed>0.010000</speed>
</trkpt>
<trkpt lat="42.491192" lon="18.650490">
<ele>0.141279</ele>
<time>2012-05-02T10:25:40Z</time>
<desc>lat.=42.491192, lon.=18.650490, Alt.=0.141279m. Speed=0.108000m/h.</desc>
<speed>0.030000</speed>
</trkpt>
<trkpt lat="42.491192" lon="18.650488">
<ele>0.112022</ele>
<time>2012-05-02T10:25:45Z</time>
<desc>lat.=42.491192, lon.=18.650488, Alt.=0.112022m. Speed=0.072000m/h.</desc>
<speed>0.020000</speed>
</trkpt>
<trkpt lat="42.491188" lon="18.650488">
<ele>0.095552</ele>
<time>2012-05-02T10:25:50Z</time>
<desc>lat.=42.491188, lon.=18.650488, Alt.=0.095552m. Speed=0.036000m/h.</desc>
<speed>0.010000</speed>
</trkpt>
<trkpt lat="42.491188" lon="18.650488">
<ele>0.084058</ele>
<time>2012-05-02T10:25:55Z</time>
<desc>lat.=42.491188, lon.=18.650488, Alt.=0.084058m. Speed=0.036000m/h.</desc>
<speed>0.010000</speed>
</trkpt>
<trkpt lat="42.491188" lon="18.650488">
<ele>0.084964</ele>
<time>2012-05-02T10:26:00Z</time>
<desc>lat.=42.491188, lon.=18.650488, Alt.=0.084964m. Speed=0.072000m/h.</desc>
<speed>0.020000</speed>
</trkpt>
<trkpt lat="42.491188" lon="18.650488">
<ele>0.079942</ele>
<time>2012-05-02T10:26:05Z</time>
<desc>lat.=42.491188, lon.=18.650488, Alt.=0.079942m. Speed=0.036000m/h.</desc>
<speed>0.010000</speed>
</trkpt>
<trkpt lat="42.491188" lon="18.650488">
<ele>0.068200</ele>
<time>2012-05-02T10:26:10Z</time>
<desc>lat.=42.491188, lon.=18.650488, Alt.=0.068200m. Speed=0.036000m/h.</desc>
<speed>0.010000</speed>
</trkpt>
<trkpt lat="42.491188" lon="18.650488">
<ele>0.065059</ele>
<time>2012-05-02T10:26:15Z</time>
<desc>lat.=42.491188, lon.=18.650488, Alt.=0.065059m. Speed=0.036000m/h.</desc>
<speed>0.010000</speed>
</trkpt>
<trkpt lat="42.491188" lon="18.650488">
<ele>0.045480</ele>
<time>2012-05-02T10:26:20Z</time>
<desc>lat.=42.491188, lon.=18.650488, Alt.=0.045480m. Speed=0.072000m/h.</desc>
<speed>0.020000</speed>
</trkpt>
<trkpt lat="42.491188" lon="18.650488">
<ele>0.032441</ele>
<time>2012-05-02T10:26:25Z</time>
<desc>lat.=42.491188, lon.=18.650488, Alt.=0.032441m. Speed=0.180000m/h.</desc>
<speed>0.050000</speed>
</trkpt>
<trkpt lat="42.491188" lon="18.650488">
<ele>0.014252</ele>
<time>2012-05-02T10:26:30Z</time>
<desc>lat.=42.491188, lon.=18.650488, Alt.=0.014252m. Speed=0.036000m/h.</desc>
<speed>0.010000</speed>
</trkpt>
<trkpt lat="42.491188" lon="18.650488">
<ele>0.005054</ele>
<time>2012-05-02T10:26:35Z</time>
<desc>lat.=42.491188, lon.=18.650488, Alt.=0.005054m. Speed=0.000000m/h.</desc>
<speed>0.000000</speed>
</trkpt>
<trkpt lat="42.491188" lon="18.650488">
<ele>-0.010767</ele>
<time>2012-05-02T10:26:40Z</time>
<desc>lat.=42.491188, lon.=18.650488, Alt.=-0.010767m. Speed=0.036000m/h.</desc>
<speed>0.010000</speed>
</trkpt>
<trkpt lat="42.491188" lon="18.650488">
<ele>-0.019855</ele>
<time>2012-05-02T10:26:45Z</time>
<desc>lat.=42.491188, lon.=18.650488, Alt.=-0.019855m. Speed=0.036000m/h.</desc>
<speed>0.010000</speed>
</trkpt>
<trkpt lat="42.491188" lon="18.650488">
<ele>-0.027148</ele>
<time>2012-05-02T10:26:50Z</time>
<desc>lat.=42.491188, lon.=18.650488, Alt.=-0.027148m. Speed=0.036000m/h.</desc>
<speed>0.010000</speed>
</trkpt>
<trkpt lat="42.491188" lon="18.650488">
<ele>-0.029895</ele>
<time>2012-05-02T10:26:55Z</time>
<desc>lat.=42.491188, lon.=18.650488, Alt.=-0.029895m. Speed=0.036000m/h.</desc>
<speed>0.010000</speed>
</trkpt>
<trkpt lat="42.491188" lon="18.650488">
<ele>-0.030266</ele>
<time>2012-05-02T10:27:00Z</time>
<desc>lat.=42.491188, lon.=18.650488, Alt.=-0.030266m. Speed=0.036000m/h.</desc>
<speed>0.010000</speed>
</trkpt>
<trkpt lat="42.491184" lon="18.650488">
<ele>-0.026701</ele>
<time>2012-05-02T10:27:05Z</time>
<desc>lat.=42.491184, lon.=18.650488, Alt.=-0.026701m. Speed=0.036000m/h.</desc>
<speed>0.010000</speed>
</trkpt>
<trkpt lat="42.491184" lon="18.650488">
<ele>-0.026984</ele>
<time>2012-05-02T10:27:10Z</time>
<desc>lat.=42.491184, lon.=18.650488, Alt.=-0.026984m. Speed=0.072000m/h.</desc>
<speed>0.020000</speed>
</trkpt>
<trkpt lat="42.491184" lon="18.650486">
<ele>-0.048228</ele>
<time>2012-05-02T10:27:15Z</time>
<desc>lat.=42.491184, lon.=18.650486, Alt.=-0.048228m. Speed=0.036000m/h.</desc>
<speed>0.010000</speed>
</trkpt>
<trkpt lat="42.491184" lon="18.650486">
<ele>-0.050351</ele>
<time>2012-05-02T10:27:20Z</time>
<desc>lat.=42.491184, lon.=18.650486, Alt.=-0.050351m. Speed=0.108000m/h.</desc>
<speed>0.030000</speed>
</trkpt>
<trkpt lat="42.491184" lon="18.650488">
<ele>-0.037431</ele>
<time>2012-05-02T10:27:25Z</time>
<desc>lat.=42.491184, lon.=18.650488, Alt.=-0.037431m. Speed=0.036000m/h.</desc>
<speed>0.010000</speed>
</trkpt>
<trkpt lat="42.491184" lon="18.650488">
<ele>-0.022525</ele>
<time>2012-05-02T10:27:30Z</time>
<desc>lat.=42.491184, lon.=18.650488, Alt.=-0.022525m. Speed=0.000000m/h.</desc>
<speed>0.000000</speed>
</trkpt>
<trkpt lat="42.491184" lon="18.650488">
<ele>-0.015044</ele>
<time>2012-05-02T10:27:35Z</time>
<desc>lat.=42.491184, lon.=18.650488, Alt.=-0.015044m. Speed=0.000000m/h.</desc>
<speed>0.000000</speed>
</trkpt>
<trkpt lat="42.491184" lon="18.650488">
<ele>0.002797</ele>
<time>2012-05-02T10:27:40Z</time>
<desc>lat.=42.491184, lon.=18.650488, Alt.=0.002797m. Speed=0.216000m/h.</desc>
<speed>0.060000</speed>
</trkpt>
<trkpt lat="42.491184" lon="18.650488">
<ele>0.003270</ele>
<time>2012-05-02T10:27:45Z</time>
<desc>lat.=42.491184, lon.=18.650488, Alt.=0.003270m. Speed=0.108000m/h.</desc>
<speed>0.030000</speed>
</trkpt>
<trkpt lat="42.491184" lon="18.650488">
<ele>0.007857</ele>
<time>2012-05-02T10:27:50Z</time>
<desc>lat.=42.491184, lon.=18.650488, Alt.=0.007857m. Speed=0.144000m/h.</desc>
<speed>0.040000</speed>
</trkpt>
<trkpt lat="42.491184" lon="18.650488">
<ele>0.012730</ele>
<time>2012-05-02T10:27:55Z</time>
<desc>lat.=42.491184, lon.=18.650488, Alt.=0.012730m. Speed=0.072000m/h.</desc>
<speed>0.020000</speed>
</trkpt>
<trkpt lat="42.491184" lon="18.650488">
<ele>0.032805</ele>
<time>2012-05-02T10:28:00Z</time>
<desc>lat.=42.491184, lon.=18.650488, Alt.=0.032805m. Speed=0.144000m/h.</desc>
<speed>0.040000</speed>
</trkpt>
<trkpt lat="42.491184" lon="18.650488">
<ele>0.055791</ele>
<time>2012-05-02T10:28:05Z</time>
<desc>lat.=42.491184, lon.=18.650488, Alt.=0.055791m. Speed=0.000000m/h.</desc>
<speed>0.000000</speed>
</trkpt>
<trkpt lat="42.491180" lon="18.650488">
<ele>0.050143</ele>
<time>2012-05-02T10:28:10Z</time>
<desc>lat.=42.491180, lon.=18.650488, Alt.=0.050143m. Speed=0.144000m/h.</desc>
<speed>0.040000</speed>
</trkpt>
<trkpt lat="42.491180" lon="18.650486">
<ele>0.013719</ele>
<time>2012-05-02T10:28:15Z</time>
<desc>lat.=42.491180, lon.=18.650486, Alt.=0.013719m. Speed=0.180000m/h.</desc>
<speed>0.050000</speed>
</trkpt>
<trkpt lat="42.491180" lon="18.650486">
<ele>-0.008594</ele>
<time>2012-05-02T10:28:20Z</time>
<desc>lat.=42.491180, lon.=18.650486, Alt.=-0.008594m. Speed=0.036000m/h.</desc>
<speed>0.010000</speed>
</trkpt>
<trkpt lat="42.491180" lon="18.650486">
<ele>-0.069619</ele>
<time>2012-05-02T10:28:25Z</time>
<desc>lat.=42.491180, lon.=18.650486, Alt.=-0.069619m. Speed=0.144000m/h.</desc>
<speed>0.040000</speed>
</trkpt>
<trkpt lat="42.491180" lon="18.650486">
<ele>-0.117112</ele>
<time>2012-05-02T10:28:30Z</time>
<desc>lat.=42.491180, lon.=18.650486, Alt.=-0.117112m. Speed=0.144000m/h.</desc>
<speed>0.040000</speed>
</trkpt>
<trkpt lat="42.491177" lon="18.650486">
<ele>-0.143515</ele>
<time>2012-05-02T10:28:35Z</time>
<desc>lat.=42.491177, lon.=18.650486, Alt.=-0.143515m. Speed=0.000000m/h.</desc>
<speed>0.000000</speed>
</trkpt>
<trkpt lat="42.491177" lon="18.650486">
<ele>-0.149881</ele>
<time>2012-05-02T10:28:40Z</time>
<desc>lat.=42.491177, lon.=18.650486, Alt.=-0.149881m. Speed=0.036000m/h.</desc>
<speed>0.010000</speed>
</trkpt>
<trkpt lat="42.491177" lon="18.650486">
<ele>-0.153429</ele>
<time>2012-05-02T10:28:45Z</time>
<desc>lat.=42.491177, lon.=18.650486, Alt.=-0.153429m. Speed=0.072000m/h.</desc>
<speed>0.020000</speed>
</trkpt>
<trkpt lat="42.491177" lon="18.650486">
<ele>-0.157660</ele>
<time>2012-05-02T10:28:50Z</time>
<desc>lat.=42.491177, lon.=18.650486, Alt.=-0.157660m. Speed=0.072000m/h.</desc>
<speed>0.020000</speed>
</trkpt>
<trkpt lat="42.491177" lon="18.650486">
<ele>-0.178850</ele>
<time>2012-05-02T10:28:55Z</time>
<desc>lat.=42.491177, lon.=18.650486, Alt.=-0.178850m. Speed=0.072000m/h.</desc>
<speed>0.020000</speed>
</trkpt>
<trkpt lat="42.491177" lon="18.650486">
<ele>-0.202299</ele>
<time>2012-05-02T10:29:00Z</time>
<desc>lat.=42.491177, lon.=18.650486, Alt.=-0.202299m. Speed=0.072000m/h.</desc>
<speed>0.020000</speed>
</trkpt>
<trkpt lat="42.491177" lon="18.650486">
<ele>-0.216726</ele>
<time>2012-05-02T10:29:05Z</time>
<desc>lat.=42.491177, lon.=18.650486, Alt.=-0.216726m. Speed=0.036000m/h.</desc>
<speed>0.010000</speed>
</trkpt>
<trkpt lat="42.491177" lon="18.650486">
<ele>-0.251873</ele>
<time>2012-05-02T10:29:10Z</time>
<desc>lat.=42.491177, lon.=18.650486, Alt.=-0.251873m. Speed=0.000000m/h.</desc>
<speed>0.000000</speed>
</trkpt>
<trkpt lat="42.491177" lon="18.650486">
<ele>-0.297306</ele>
<time>2012-05-02T10:29:15Z</time>
<desc>lat.=42.491177, lon.=18.650486, Alt.=-0.297306m. Speed=0.036000m/h.</desc>
<speed>0.010000</speed>
</trkpt>
<trkpt lat="42.491177" lon="18.650486">
<ele>-0.312229</ele>
<time>2012-05-02T10:29:20Z</time>
<desc>lat.=42.491177, lon.=18.650486, Alt.=-0.312229m. Speed=0.072000m/h.</desc>
<speed>0.020000</speed>
</trkpt>
<trkpt lat="42.491177" lon="18.650486">
<ele>-0.332974</ele>
<time>2012-05-02T10:29:25Z</time>
<desc>lat.=42.491177, lon.=18.650486, Alt.=-0.332974m. Speed=0.000000m/h.</desc>
<speed>0.000000</speed>
</trkpt>
<trkpt lat="42.491177" lon="18.650486">
<ele>-0.343037</ele>
<time>2012-05-02T10:29:30Z</time>
<desc>lat.=42.491177, lon.=18.650486, Alt.=-0.343037m. Speed=0.036000m/h.</desc>
<speed>0.010000</speed>
</trkpt>
<trkpt lat="42.491177" lon="18.650486">
<ele>-0.354267</ele>
<time>2012-05-02T10:29:35Z</time>
<desc>lat.=42.491177, lon.=18.650486, Alt.=-0.354267m. Speed=0.036000m/h.</desc>
<speed>0.010000</speed>
</trkpt>
<trkpt lat="42.491177" lon="18.650484">
<ele>-0.368412</ele>
<time>2012-05-02T10:29:40Z</time>
<desc>lat.=42.491177, lon.=18.650484, Alt.=-0.368412m. Speed=0.036000m/h.</desc>
<speed>0.010000</speed>
</trkpt>
<trkpt lat="42.491177" lon="18.650484">
<ele>-0.374157</ele>
<time>2012-05-02T10:29:45Z</time>
<desc>lat.=42.491177, lon.=18.650484, Alt.=-0.374157m. Speed=0.036000m/h.</desc>
<speed>0.010000</speed>
</trkpt>
<trkpt lat="42.491177" lon="18.650484">
<ele>-0.371014</ele>
<time>2012-05-02T10:29:50Z</time>
<desc>lat.=42.491177, lon.=18.650484, Alt.=-0.371014m. Speed=0.036000m/h.</desc>
<speed>0.010000</speed>
</trkpt>
<trkpt lat="42.491173" lon="18.650484">
<ele>-0.384068</ele>
<time>2012-05-02T10:29:55Z</time>
<desc>lat.=42.491173, lon.=18.650484, Alt.=-0.384068m. Speed=0.000000m/h.</desc>
<speed>0.000000</speed>
</trkpt>
<trkpt lat="42.491173" lon="18.650484">
<ele>-0.402973</ele>
<time>2012-05-02T10:30:00Z</time>
<desc>lat.=42.491173, lon.=18.650484, Alt.=-0.402973m. Speed=0.036000m/h.</desc>
<speed>0.010000</speed>
</trkpt>
<trkpt lat="42.491173" lon="18.650484">
<ele>-0.418438</ele>
<time>2012-05-02T10:30:05Z</time>
<desc>lat.=42.491173, lon.=18.650484, Alt.=-0.418438m. Speed=0.036000m/h.</desc>
<speed>0.010000</speed>
</trkpt>
<trkpt lat="42.491173" lon="18.650484">
<ele>-0.427754</ele>
<time>2012-05-02T10:30:10Z</time>
<desc>lat.=42.491173, lon.=18.650484, Alt.=-0.427754m. Speed=0.000000m/h.</desc>
<speed>0.000000</speed>
</trkpt>
<trkpt lat="42.491173" lon="18.650484">
<ele>-0.427563</ele>
<time>2012-05-02T10:30:15Z</time>
<desc>lat.=42.491173, lon.=18.650484, Alt.=-0.427563m. Speed=0.108000m/h.</desc>
<speed>0.030000</speed>
</trkpt>
<trkpt lat="42.491173" lon="18.650484">
<ele>-0.419010</ele>
<time>2012-05-02T10:30:20Z</time>
<desc>lat.=42.491173, lon.=18.650484, Alt.=-0.419010m. Speed=0.000000m/h.</desc>
<speed>0.000000</speed>
</trkpt>
<trkpt lat="42.491173" lon="18.650484">
<ele>-0.411358</ele>
<time>2012-05-02T10:30:25Z</time>
<desc>lat.=42.491173, lon.=18.650484, Alt.=-0.411358m. Speed=0.108000m/h.</desc>
<speed>0.030000</speed>
</trkpt>
<trkpt lat="42.491173" lon="18.650482">
<ele>-0.398220</ele>
<time>2012-05-02T10:30:30Z</time>
<desc>lat.=42.491173, lon.=18.650482, Alt.=-0.398220m. Speed=0.000000m/h.</desc>
<speed>0.000000</speed>
</trkpt>
<trkpt lat="42.491169" lon="18.650482">
<ele>-0.396092</ele>
<time>2012-05-02T10:30:35Z</time>
<desc>lat.=42.491169, lon.=18.650482, Alt.=-0.396092m. Speed=0.036000m/h.</desc>
<speed>0.010000</speed>
</trkpt>
<trkpt lat="42.491169" lon="18.650482">
<ele>-0.370396</ele>
<time>2012-05-02T10:30:40Z</time>
<desc>lat.=42.491169, lon.=18.650482, Alt.=-0.370396m. Speed=0.036000m/h.</desc>
<speed>0.010000</speed>
</trkpt>
<trkpt lat="42.491169" lon="18.650482">
<ele>-0.363537</ele>
<time>2012-05-02T10:30:45Z</time>
<desc>lat.=42.491169, lon.=18.650482, Alt.=-0.363537m. Speed=0.072000m/h.</desc>
<speed>0.020000</speed>
</trkpt>
<trkpt lat="42.491169" lon="18.650482">
<ele>-0.351902</ele>
<time>2012-05-02T10:30:50Z</time>
<desc>lat.=42.491169, lon.=18.650482, Alt.=-0.351902m. Speed=0.036000m/h.</desc>
<speed>0.010000</speed>
</trkpt>
<trkpt lat="42.491169" lon="18.650482">
<ele>-0.340054</ele>
<time>2012-05-02T10:30:55Z</time>
<desc>lat.=42.491169, lon.=18.650482, Alt.=-0.340054m. Speed=0.036000m/h.</desc>
<speed>0.010000</speed>
</trkpt>
<trkpt lat="42.491169" lon="18.650482">
<ele>-0.321682</ele>
<time>2012-05-02T10:31:00Z</time>
<desc>lat.=42.491169, lon.=18.650482, Alt.=-0.321682m. Speed=0.072000m/h.</desc>
<speed>0.020000</speed>
</trkpt>
<trkpt lat="42.491169" lon="18.650482">
<ele>-0.307888</ele>
<time>2012-05-02T10:31:05Z</time>
<desc>lat.=42.491169, lon.=18.650482, Alt.=-0.307888m. Speed=0.072000m/h.</desc>
<speed>0.020000</speed>
</trkpt>
<trkpt lat="42.491169" lon="18.650482">
<ele>-0.310719</ele>
<time>2012-05-02T10:31:10Z</time>
<desc>lat.=42.491169, lon.=18.650482, Alt.=-0.310719m. Speed=0.072000m/h.</desc>
<speed>0.020000</speed>
</trkpt>
<trkpt lat="42.491169" lon="18.650480">
<ele>-0.313519</ele>
<time>2012-05-02T10:31:15Z</time>
<desc>lat.=42.491169, lon.=18.650480, Alt.=-0.313519m. Speed=0.036000m/h.</desc>
<speed>0.010000</speed>
</trkpt>
<trkpt lat="42.491169" lon="18.650480">
<ele>-0.316639</ele>
<time>2012-05-02T10:31:20Z</time>
<desc>lat.=42.491169, lon.=18.650480, Alt.=-0.316639m. Speed=0.108000m/h.</desc>
<speed>0.030000</speed>
</trkpt>
<trkpt lat="42.491165" lon="18.650480">
<ele>-0.327137</ele>
<time>2012-05-02T10:31:25Z</time>
<desc>lat.=42.491165, lon.=18.650480, Alt.=-0.327137m. Speed=0.036000m/h.</desc>
<speed>0.010000</speed>
</trkpt>
<trkpt lat="42.491165" lon="18.650478">
<ele>-0.321247</ele>
<time>2012-05-02T10:31:30Z</time>
<desc>lat.=42.491165, lon.=18.650478, Alt.=-0.321247m. Speed=0.000000m/h.</desc>
<speed>0.000000</speed>
</trkpt>
<trkpt lat="42.491165" lon="18.650478">
<ele>-0.333164</ele>
<time>2012-05-02T10:31:35Z</time>
<desc>lat.=42.491165, lon.=18.650478, Alt.=-0.333164m. Speed=0.036000m/h.</desc>
<speed>0.010000</speed>
</trkpt>
<trkpt lat="42.491165" lon="18.650478">
<ele>-0.332196</ele>
<time>2012-05-02T10:31:40Z</time>
<desc>lat.=42.491165, lon.=18.650478, Alt.=-0.332196m. Speed=0.000000m/h.</desc>
<speed>0.000000</speed>
</trkpt>
<trkpt lat="42.491165" lon="18.650478">
<ele>-0.337612</ele>
<time>2012-05-02T10:31:45Z</time>
<desc>lat.=42.491165, lon.=18.650478, Alt.=-0.337612m. Speed=0.072000m/h.</desc>
<speed>0.020000</speed>
</trkpt>
<trkpt lat="42.491165" lon="18.650476">
<ele>-0.348568</ele>
<time>2012-05-02T10:31:50Z</time>
<desc>lat.=42.491165, lon.=18.650476, Alt.=-0.348568m. Speed=0.072000m/h.</desc>
<speed>0.020000</speed>
</trkpt>
<trkpt lat="42.491165" lon="18.650476">
<ele>-0.343418</ele>
<time>2012-05-02T10:31:55Z</time>
<desc>lat.=42.491165, lon.=18.650476, Alt.=-0.343418m. Speed=0.036000m/h.</desc>
<speed>0.010000</speed>
</trkpt>
<trkpt lat="42.491165" lon="18.650476">
<ele>-0.350201</ele>
<time>2012-05-02T10:32:00Z</time>
<desc>lat.=42.491165, lon.=18.650476, Alt.=-0.350201m. Speed=0.000000m/h.</desc>
<speed>0.000000</speed>
</trkpt>
<trkpt lat="42.491165" lon="18.650476">
<ele>-0.361622</ele>
<time>2012-05-02T10:32:05Z</time>
<desc>lat.=42.491165, lon.=18.650476, Alt.=-0.361622m. Speed=0.000000m/h.</desc>
<speed>0.000000</speed>
</trkpt>
<trkpt lat="42.491165" lon="18.650476">
<ele>-0.382939</ele>
<time>2012-05-02T10:32:10Z</time>
<desc>lat.=42.491165, lon.=18.650476, Alt.=-0.382939m. Speed=0.036000m/h.</desc>
<speed>0.010000</speed>
</trkpt>
<trkpt lat="42.491161" lon="18.650476">
<ele>-0.394703</ele>
<time>2012-05-02T10:32:15Z</time>
<desc>lat.=42.491161, lon.=18.650476, Alt.=-0.394703m. Speed=0.072000m/h.</desc>
<speed>0.020000</speed>
</trkpt>
<trkpt lat="42.491161" lon="18.650476">
<ele>-0.388745</ele>
<time>2012-05-02T10:32:20Z</time>
<desc>lat.=42.491161, lon.=18.650476, Alt.=-0.388745m. Speed=0.036000m/h.</desc>
<speed>0.010000</speed>
</trkpt>
<trkpt lat="42.491161" lon="18.650475">
<ele>-0.406109</ele>
<time>2012-05-02T10:32:25Z</time>
<desc>lat.=42.491161, lon.=18.650475, Alt.=-0.406109m. Speed=0.000000m/h.</desc>
<speed>0.000000</speed>
</trkpt>
<trkpt lat="42.491161" lon="18.650475">
<ele>-0.402073</ele>
<time>2012-05-02T10:32:30Z</time>
<desc>lat.=42.491161, lon.=18.650475, Alt.=-0.402073m. Speed=0.072000m/h.</desc>
<speed>0.020000</speed>
</trkpt>
<trkpt lat="42.491161" lon="18.650475">
<ele>-0.411984</ele>
<time>2012-05-02T10:32:35Z</time>
<desc>lat.=42.491161, lon.=18.650475, Alt.=-0.411984m. Speed=0.000000m/h.</desc>
<speed>0.000000</speed>
</trkpt>
<trkpt lat="42.491161" lon="18.650475">
<ele>-0.397579</ele>
<time>2012-05-02T10:32:40Z</time>
<desc>lat.=42.491161, lon.=18.650475, Alt.=-0.397579m. Speed=0.036000m/h.</desc>
<speed>0.010000</speed>
</trkpt>
<trkpt lat="42.491161" lon="18.650475">
<ele>-0.403752</ele>
<time>2012-05-02T10:32:45Z</time>
<desc>lat.=42.491161, lon.=18.650475, Alt.=-0.403752m. Speed=0.036000m/h.</desc>
<speed>0.010000</speed>
</trkpt>
<trkpt lat="42.491161" lon="18.650475">
<ele>-0.419247</ele>
<time>2012-05-02T10:32:50Z</time>
<desc>lat.=42.491161, lon.=18.650475, Alt.=-0.419247m. Speed=0.036000m/h.</desc>
<speed>0.010000</speed>
</trkpt>
<trkpt lat="42.491161" lon="18.650475">
<ele>-0.421154</ele>
<time>2012-05-02T10:32:55Z</time>
<desc>lat.=42.491161, lon.=18.650475, Alt.=-0.421154m. Speed=0.000000m/h.</desc>
<speed>0.000000</speed>
</trkpt>
<trkpt lat="42.491161" lon="18.650475">
<ele>-0.440624</ele>
<time>2012-05-02T10:33:00Z</time>
<desc>lat.=42.491161, lon.=18.650475, Alt.=-0.440624m. Speed=0.000000m/h.</desc>
<speed>0.000000</speed>
</trkpt>
<trkpt lat="42.491161" lon="18.650473">
<ele>-0.454426</ele>
<time>2012-05-02T10:33:05Z</time>
<desc>lat.=42.491161, lon.=18.650473, Alt.=-0.454426m. Speed=0.000000m/h.</desc>
<speed>0.000000</speed>
</trkpt>
<trkpt lat="42.491161" lon="18.650473">
<ele>-0.464482</ele>
<time>2012-05-02T10:33:10Z</time>
<desc>lat.=42.491161, lon.=18.650473, Alt.=-0.464482m. Speed=0.000000m/h.</desc>
<speed>0.000000</speed>
</trkpt>
<trkpt lat="42.491161" lon="18.650473">
<ele>-0.481510</ele>
<time>2012-05-02T10:33:15Z</time>
<desc>lat.=42.491161, lon.=18.650473, Alt.=-0.481510m. Speed=0.000000m/h.</desc>
<speed>0.000000</speed>
</trkpt>
<trkpt lat="42.491161" lon="18.650473">
<ele>-0.495602</ele>
<time>2012-05-02T10:33:20Z</time>
<desc>lat.=42.491161, lon.=18.650473, Alt.=-0.495602m. Speed=0.036000m/h.</desc>
<speed>0.010000</speed>
</trkpt>
<trkpt lat="42.491161" lon="18.650473">
<ele>-0.522576</ele>
<time>2012-05-02T10:33:25Z</time>
<desc>lat.=42.491161, lon.=18.650473, Alt.=-0.522576m. Speed=0.036000m/h.</desc>
<speed>0.010000</speed>
</trkpt>
<trkpt lat="42.491161" lon="18.650473">
<ele>-0.525673</ele>
<time>2012-05-02T10:33:30Z</time>
<desc>lat.=42.491161, lon.=18.650473, Alt.=-0.525673m. Speed=0.000000m/h.</desc>
<speed>0.000000</speed>
</trkpt>
<trkpt lat="42.491161" lon="18.650473">
<ele>-0.534859</ele>
<time>2012-05-02T10:33:35Z</time>
<desc>lat.=42.491161, lon.=18.650473, Alt.=-0.534859m. Speed=0.036000m/h.</desc>
<speed>0.010000</speed>
</trkpt>
<trkpt lat="42.491161" lon="18.650473">
<ele>-0.546151</ele>
<time>2012-05-02T10:33:40Z</time>
<desc>lat.=42.491161, lon.=18.650473, Alt.=-0.546151m. Speed=0.036000m/h.</desc>
<speed>0.010000</speed>
</trkpt>
<trkpt lat="42.491161" lon="18.650471">
<ele>-0.552956</ele>
<time>2012-05-02T10:33:45Z</time>
<desc>lat.=42.491161, lon.=18.650471, Alt.=-0.552956m. Speed=0.036000m/h.</desc>
<speed>0.010000</speed>
</trkpt>
<trkpt lat="42.491161" lon="18.650471">
<ele>-0.561471</ele>
<time>2012-05-02T10:33:50Z</time>
<desc>lat.=42.491161, lon.=18.650471, Alt.=-0.561471m. Speed=0.108000m/h.</desc>
<speed>0.030000</speed>
</trkpt>
<trkpt lat="42.491161" lon="18.650471">
<ele>-0.567284</ele>
<time>2012-05-02T10:33:55Z</time>
<desc>lat.=42.491161, lon.=18.650471, Alt.=-0.567284m. Speed=0.000000m/h.</desc>
<speed>0.000000</speed>
</trkpt>
<trkpt lat="42.491161" lon="18.650471">
<ele>-0.570946</ele>
<time>2012-05-02T10:34:00Z</time>
<desc>lat.=42.491161, lon.=18.650471, Alt.=-0.570946m. Speed=0.108000m/h.</desc>
<speed>0.030000</speed>
</trkpt>
<trkpt lat="42.491158" lon="18.650471">
<ele>-0.582314</ele>
<time>2012-05-02T10:34:05Z</time>
<desc>lat.=42.491158, lon.=18.650471, Alt.=-0.582314m. Speed=0.036000m/h.</desc>
<speed>0.010000</speed>
</trkpt>
<trkpt lat="42.491158" lon="18.650471">
<ele>-0.584008</ele>
<time>2012-05-02T10:34:10Z</time>
<desc>lat.=42.491158, lon.=18.650471, Alt.=-0.584008m. Speed=0.000000m/h.</desc>
<speed>0.000000</speed>
</trkpt>
<trkpt lat="42.491158" lon="18.650471">
<ele>-0.592492</ele>
<time>2012-05-02T10:34:15Z</time>
<desc>lat.=42.491158, lon.=18.650471, Alt.=-0.592492m. Speed=0.036000m/h.</desc>
<speed>0.010000</speed>
</trkpt>
<trkpt lat="42.491158" lon="18.650471">
<ele>-0.592293</ele>
<time>2012-05-02T10:34:20Z</time>
<desc>lat.=42.491158, lon.=18.650471, Alt.=-0.592293m. Speed=0.036000m/h.</desc>
<speed>0.010000</speed>
</trkpt>
<trkpt lat="42.491158" lon="18.650471">
<ele>-0.624032</ele>
<time>2012-05-02T10:34:25Z</time>
<desc>lat.=42.491158, lon.=18.650471, Alt.=-0.624032m. Speed=0.072000m/h.</desc>
<speed>0.020000</speed>
</trkpt>
<trkpt lat="42.491158" lon="18.650471">
<ele>-0.657265</ele>
<time>2012-05-02T10:34:30Z</time>
<desc>lat.=42.491158, lon.=18.650471, Alt.=-0.657265m. Speed=0.036000m/h.</desc>
<speed>0.010000</speed>
</trkpt>
<trkpt lat="42.491158" lon="18.650469">
<ele>-0.697426</ele>
<time>2012-05-02T10:34:35Z</time>
<desc>lat.=42.491158, lon.=18.650469, Alt.=-0.697426m. Speed=0.072000m/h.</desc>
<speed>0.020000</speed>
</trkpt>
<trkpt lat="42.491158" lon="18.650469">
<ele>-0.757714</ele>
<time>2012-05-02T10:34:40Z</time>
<desc>lat.=42.491158, lon.=18.650469, Alt.=-0.757714m. Speed=0.072000m/h.</desc>
<speed>0.020000</speed>
</trkpt>
<trkpt lat="42.491158" lon="18.650469">
<ele>-0.790673</ele>
<time>2012-05-02T10:34:45Z</time>
<desc>lat.=42.491158, lon.=18.650469, Alt.=-0.790673m. Speed=0.036000m/h.</desc>
<speed>0.010000</speed>
</trkpt>
<trkpt lat="42.491158" lon="18.650469">
<ele>-0.790459</ele>
<time>2012-05-02T10:34:50Z</time>
<desc>lat.=42.491158, lon.=18.650469, Alt.=-0.790459m. Speed=0.000000m/h.</desc>
<speed>0.000000</speed>
</trkpt>
<trkpt lat="42.491154" lon="18.650469">
<ele>-0.803490</ele>
<time>2012-05-02T10:34:55Z</time>
<desc>lat.=42.491154, lon.=18.650469, Alt.=-0.803490m. Speed=0.036000m/h.</desc>
<speed>0.010000</speed>
</trkpt>
<trkpt lat="42.491154" lon="18.650467">
<ele>-0.835961</ele>
<time>2012-05-02T10:35:00Z</time>
<desc>lat.=42.491154, lon.=18.650467, Alt.=-0.835961m. Speed=0.036000m/h.</desc>
<speed>0.010000</speed>
</trkpt>
<trkpt lat="42.491154" lon="18.650467">
<ele>-0.866158</ele>
<time>2012-05-02T10:35:05Z</time>
<desc>lat.=42.491154, lon.=18.650467, Alt.=-0.866158m. Speed=0.036000m/h.</desc>
<speed>0.010000</speed>
</trkpt>
<trkpt lat="42.491154" lon="18.650467">
<ele>-0.885705</ele>
<time>2012-05-02T10:35:10Z</time>
<desc>lat.=42.491154, lon.=18.650467, Alt.=-0.885705m. Speed=0.000000m/h.</desc>
<speed>0.000000</speed>
</trkpt>
<trkpt lat="42.491154" lon="18.650467">
<ele>-0.910576</ele>
<time>2012-05-02T10:35:15Z</time>
<desc>lat.=42.491154, lon.=18.650467, Alt.=-0.910576m. Speed=0.072000m/h.</desc>
<speed>0.020000</speed>
</trkpt>
<trkpt lat="42.491154" lon="18.650467">
<ele>-0.946709</ele>
<time>2012-05-02T10:35:20Z</time>
<desc>lat.=42.491154, lon.=18.650467, Alt.=-0.946709m. Speed=0.036000m/h.</desc>
<speed>0.010000</speed>
</trkpt>
<trkpt lat="42.491154" lon="18.650467">
<ele>-0.978371</ele>
<time>2012-05-02T10:35:25Z</time>
<desc>lat.=42.491154, lon.=18.650467, Alt.=-0.978371m. Speed=0.036000m/h.</desc>
<speed>0.010000</speed>
</trkpt>
<trkpt lat="42.491154" lon="18.650465">
<ele>-0.976052</ele>
<time>2012-05-02T10:35:30Z</time>
<desc>lat.=42.491154, lon.=18.650465, Alt.=-0.976052m. Speed=0.072000m/h.</desc>
<speed>0.020000</speed>
</trkpt>
<trkpt lat="42.491154" lon="18.650465">
<ele>-0.973824</ele>
<time>2012-05-02T10:35:35Z</time>
<desc>lat.=42.491154, lon.=18.650465, Alt.=-0.973824m. Speed=0.036000m/h.</desc>
<speed>0.010000</speed>
</trkpt>
<trkpt lat="42.491154" lon="18.650465">
<ele>-0.969018</ele>
<time>2012-05-02T10:35:40Z</time>
<desc>lat.=42.491154, lon.=18.650465, Alt.=-0.969018m. Speed=0.000000m/h.</desc>
<speed>0.000000</speed>
</trkpt>
<trkpt lat="42.491154" lon="18.650465">
<ele>-0.950249</ele>
<time>2012-05-02T10:35:45Z</time>
<desc>lat.=42.491154, lon.=18.650465, Alt.=-0.950249m. Speed=0.000000m/h.</desc>
<speed>0.000000</speed>
</trkpt>
<trkpt lat="42.491154" lon="18.650467">
<ele>-0.937645</ele>
<time>2012-05-02T10:35:50Z</time>
<desc>lat.=42.491154, lon.=18.650467, Alt.=-0.937645m. Speed=0.036000m/h.</desc>
<speed>0.010000</speed>
</trkpt>
<trkpt lat="42.491154" lon="18.650467">
<ele>-0.931008</ele>
<time>2012-05-02T10:35:55Z</time>
<desc>lat.=42.491154, lon.=18.650467, Alt.=-0.931008m. Speed=0.036000m/h.</desc>
<speed>0.010000</speed>
</trkpt>
<trkpt lat="42.491154" lon="18.650467">
<ele>-0.936028</ele>
<time>2012-05-02T10:36:00Z</time>
<desc>lat.=42.491154, lon.=18.650467, Alt.=-0.936028m. Speed=0.036000m/h.</desc>
<speed>0.010000</speed>
</trkpt>
<trkpt lat="42.491154" lon="18.650467">
<ele>-0.928292</ele>
<time>2012-05-02T10:36:05Z</time>
<desc>lat.=42.491154, lon.=18.650467, Alt.=-0.928292m. Speed=0.036000m/h.</desc>
<speed>0.010000</speed>
</trkpt>
<trkpt lat="42.491154" lon="18.650467">
<ele>-0.937310</ele>
<time>2012-05-02T10:36:10Z</time>
<desc>lat.=42.491154, lon.=18.650467, Alt.=-0.937310m. Speed=0.036000m/h.</desc>
<speed>0.010000</speed>
</trkpt>
<trkpt lat="42.491154" lon="18.650467">
<ele>-0.927239</ele>
<time>2012-05-02T10:36:15Z</time>
<desc>lat.=42.491154, lon.=18.650467, Alt.=-0.927239m. Speed=0.000000m/h.</desc>
<speed>0.000000</speed>
</trkpt>
<trkpt lat="42.491154" lon="18.650467">
<ele>-0.916924</ele>
<time>2012-05-02T10:36:20Z</time>
<desc>lat.=42.491154, lon.=18.650467, Alt.=-0.916924m. Speed=0.036000m/h.</desc>
<speed>0.010000</speed>
</trkpt>
<trkpt lat="42.491154" lon="18.650467">
<ele>-0.916466</ele>
<time>2012-05-02T10:36:25Z</time>
<desc>lat.=42.491154, lon.=18.650467, Alt.=-0.916466m. Speed=0.000000m/h.</desc>
<speed>0.000000</speed>
</trkpt>
<trkpt lat="42.491154" lon="18.650467">
<ele>-0.940697</ele>
<time>2012-05-02T10:36:30Z</time>
<desc>lat.=42.491154, lon.=18.650467, Alt.=-0.940697m. Speed=0.000000m/h.</desc>
<speed>0.000000</speed>
</trkpt>
<trkpt lat="42.491150" lon="18.650465">
<ele>-1.008561</ele>
<time>2012-05-02T10:36:35Z</time>
<desc>lat.=42.491150, lon.=18.650465, Alt.=-1.008561m. Speed=0.036000m/h.</desc>
<speed>0.010000</speed>
</trkpt>
<trkpt lat="42.491150" lon="18.650465">
<ele>-1.104234</ele>
<time>2012-05-02T10:36:40Z</time>
<desc>lat.=42.491150, lon.=18.650465, Alt.=-1.104234m. Speed=0.036000m/h.</desc>
<speed>0.010000</speed>
</trkpt>
<trkpt lat="42.491150" lon="18.650465">
<ele>-1.196122</ele>
<time>2012-05-02T10:36:45Z</time>
<desc>lat.=42.491150, lon.=18.650465, Alt.=-1.196122m. Speed=0.036000m/h.</desc>
<speed>0.010000</speed>
</trkpt>
<trkpt lat="42.491150" lon="18.650465">
<ele>-1.272233</ele>
<time>2012-05-02T10:36:50Z</time>
<desc>lat.=42.491150, lon.=18.650465, Alt.=-1.272233m. Speed=0.036000m/h.</desc>
<speed>0.010000</speed>
</trkpt>
<trkpt lat="42.491150" lon="18.650465">
<ele>-1.342881</ele>
<time>2012-05-02T10:36:55Z</time>
<desc>lat.=42.491150, lon.=18.650465, Alt.=-1.342881m. Speed=0.108000m/h.</desc>
<speed>0.030000</speed>
</trkpt>
<trkpt lat="42.491150" lon="18.650463">
<ele>-1.431535</ele>
<time>2012-05-02T10:37:00Z</time>
<desc>lat.=42.491150, lon.=18.650463, Alt.=-1.431535m. Speed=0.072000m/h.</desc>
<speed>0.020000</speed>
</trkpt>
<trkpt lat="42.491150" lon="18.650463">
<ele>-1.471879</ele>
<time>2012-05-02T10:37:05Z</time>
<desc>lat.=42.491150, lon.=18.650463, Alt.=-1.471879m. Speed=0.504000m/h.</desc>
<speed>0.140000</speed>
</trkpt>
<trkpt lat="42.491238" lon="18.650431">
<ele>0.450062</ele>
<time>2012-05-02T10:37:10Z</time>
<desc>lat.=42.491238, lon.=18.650431, Alt.=0.450062m. Speed=10.440000m/h.</desc>
<speed>2.900000</speed>
</trkpt>
<trkpt lat="42.491425" lon="18.650364">
<ele>2.917330</ele>
<time>2012-05-02T10:37:15Z</time>
<desc>lat.=42.491425, lon.=18.650364, Alt.=2.917330m. Speed=18.252001m/h.</desc>
<speed>5.070000</speed>
</trkpt>
<trkpt lat="42.491676" lon="18.650309">
<ele>4.988590</ele>
<time>2012-05-02T10:37:20Z</time>
<desc>lat.=42.491676, lon.=18.650309, Alt.=4.988590m. Speed=20.087999m/h.</desc>
<speed>5.580000</speed>
</trkpt>
<trkpt lat="42.491909" lon="18.650433">
<ele>5.323307</ele>
<time>2012-05-02T10:37:25Z</time>
<desc>lat.=42.491909, lon.=18.650433, Alt.=5.323307m. Speed=25.308001m/h.</desc>
<speed>7.030000</speed>
</trkpt>
<trkpt lat="42.492142" lon="18.650633">
<ele>6.891056</ele>
<time>2012-05-02T10:37:30Z</time>
<desc>lat.=42.492142, lon.=18.650633, Alt.=6.891056m. Speed=20.664000m/h.</desc>
<speed>5.740000</speed>
</trkpt>
<trkpt lat="42.492386" lon="18.650860">
<ele>10.057991</ele>
<time>2012-05-02T10:37:35Z</time>
<desc>lat.=42.492386, lon.=18.650860, Alt.=10.057991m. Speed=24.228001m/h.</desc>
<speed>6.730000</speed>
</trkpt>
<trkpt lat="42.492695" lon="18.651100">
<ele>12.987434</ele>
<time>2012-05-02T10:37:40Z</time>
<desc>lat.=42.492695, lon.=18.651100, Alt.=12.987434m. Speed=28.007999m/h.</desc>
<speed>7.780000</speed>
</trkpt>
<trkpt lat="42.492912" lon="18.651340">
<ele>12.641243</ele>
<time>2012-05-02T10:37:45Z</time>
<desc>lat.=42.492912, lon.=18.651340, Alt.=12.641243m. Speed=21.708000m/h.</desc>
<speed>6.030000</speed>
</trkpt>
<trkpt lat="42.493103" lon="18.651577">
<ele>11.655403</ele>
<time>2012-05-02T10:37:50Z</time>
<desc>lat.=42.493103, lon.=18.651577, Alt.=11.655403m. Speed=19.872000m/h.</desc>
<speed>5.520000</speed>
</trkpt>
<trkpt lat="42.493332" lon="18.651814">
<ele>12.439827</ele>
<time>2012-05-02T10:37:55Z</time>
<desc>lat.=42.493332, lon.=18.651814, Alt.=12.439827m. Speed=23.112000m/h.</desc>
<speed>6.420000</speed>
</trkpt>
<trkpt lat="42.493645" lon="18.651918">
<ele>13.925667</ele>
<time>2012-05-02T10:38:00Z</time>
<desc>lat.=42.493645, lon.=18.651918, Alt.=13.925667m. Speed=28.332001m/h.</desc>
<speed>7.870000</speed>
</trkpt>
<trkpt lat="42.493946" lon="18.651871">
<ele>12.569954</ele>
<time>2012-05-02T10:38:05Z</time>
<desc>lat.=42.493946, lon.=18.651871, Alt.=12.569954m. Speed=21.204000m/h.</desc>
<speed>5.890000</speed>
</trkpt>
<trkpt lat="42.494213" lon="18.651810">
<ele>9.914192</ele>
<time>2012-05-02T10:38:10Z</time>
<desc>lat.=42.494213, lon.=18.651810, Alt.=9.914192m. Speed=21.600000m/h.</desc>
<speed>6.000000</speed>
</trkpt>
<trkpt lat="42.494480" lon="18.651966">
<ele>7.917912</ele>
<time>2012-05-02T10:38:15Z</time>
<desc>lat.=42.494480, lon.=18.651966, Alt.=7.917912m. Speed=25.452000m/h.</desc>
<speed>7.070000</speed>
</trkpt>
<trkpt lat="42.494690" lon="18.652313">
<ele>8.460335</ele>
<time>2012-05-02T10:38:20Z</time>
<desc>lat.=42.494690, lon.=18.652313, Alt.=8.460335m. Speed=26.028000m/h.</desc>
<speed>7.230000</speed>
</trkpt>
<trkpt lat="42.494865" lon="18.652689">
<ele>9.044319</ele>
<time>2012-05-02T10:38:25Z</time>
<desc>lat.=42.494865, lon.=18.652689, Alt.=9.044319m. Speed=27.972000m/h.</desc>
<speed>7.770000</speed>
</trkpt>
<trkpt lat="42.494980" lon="18.653137">
<ele>9.405159</ele>
<time>2012-05-02T10:38:30Z</time>
<desc>lat.=42.494980, lon.=18.653137, Alt.=9.405159m. Speed=26.388000m/h.</desc>
<speed>7.330000</speed>
</trkpt>
<trkpt lat="42.495056" lon="18.653559">
<ele>8.031136</ele>
<time>2012-05-02T10:38:35Z</time>
<desc>lat.=42.495056, lon.=18.653559, Alt.=8.031136m. Speed=24.120001m/h.</desc>
<speed>6.700000</speed>
</trkpt>
<trkpt lat="42.495136" lon="18.653959">
<ele>7.333683</ele>
<time>2012-05-02T10:38:40Z</time>
<desc>lat.=42.495136, lon.=18.653959, Alt.=7.333683m. Speed=24.732000m/h.</desc>
<speed>6.870000</speed>
</trkpt>
<trkpt lat="42.495239" lon="18.654350">
<ele>5.822086</ele>
<time>2012-05-02T10:38:45Z</time>
<desc>lat.=42.495239, lon.=18.654350, Alt.=5.822086m. Speed=23.292000m/h.</desc>
<speed>6.470000</speed>
</trkpt>
<trkpt lat="42.495403" lon="18.654667">
<ele>5.312077</ele>
<time>2012-05-02T10:38:50Z</time>
<desc>lat.=42.495403, lon.=18.654667, Alt.=5.312077m. Speed=23.292000m/h.</desc>
<speed>6.470000</speed>
</trkpt>
<trkpt lat="42.495693" lon="18.654865">
<ele>3.881197</ele>
<time>2012-05-02T10:38:55Z</time>
<desc>lat.=42.495693, lon.=18.654865, Alt.=3.881197m. Speed=26.424000m/h.</desc>
<speed>7.340000</speed>
</trkpt>
<trkpt lat="42.495995" lon="18.655043">
<ele>2.884066</ele>
<time>2012-05-02T10:39:00Z</time>
<desc>lat.=42.495995, lon.=18.655043, Alt.=2.884066m. Speed=26.136000m/h.</desc>
<speed>7.260000</speed>
</trkpt>
<trkpt lat="42.496258" lon="18.655361">
<ele>3.177095</ele>
<time>2012-05-02T10:39:05Z</time>
<desc>lat.=42.496258, lon.=18.655361, Alt.=3.177095m. Speed=28.764000m/h.</desc>
<speed>7.990000</speed>
</trkpt>
<trkpt lat="42.496387" lon="18.655777">
<ele>4.007999</ele>
<time>2012-05-02T10:39:10Z</time>
<desc>lat.=42.496387, lon.=18.655777, Alt.=4.007999m. Speed=25.488001m/h.</desc>
<speed>7.080000</speed>
</trkpt>
<trkpt lat="42.496449" lon="18.656204">
<ele>2.444613</ele>
<time>2012-05-02T10:39:15Z</time>
<desc>lat.=42.496449, lon.=18.656204, Alt.=2.444613m. Speed=25.920000m/h.</desc>
<speed>7.200000</speed>
</trkpt>
<trkpt lat="42.496544" lon="18.656618">
<ele>1.611222</ele>
<time>2012-05-02T10:39:20Z</time>
<desc>lat.=42.496544, lon.=18.656618, Alt.=1.611222m. Speed=23.688000m/h.</desc>
<speed>6.580000</speed>
</trkpt>
<trkpt lat="42.496632" lon="18.656992">
<ele>1.482041</ele>
<time>2012-05-02T10:39:25Z</time>
<desc>lat.=42.496632, lon.=18.656992, Alt.=1.482041m. Speed=24.264000m/h.</desc>
<speed>6.740000</speed>
</trkpt>
<trkpt lat="42.496765" lon="18.657352">
<ele>2.252169</ele>
<time>2012-05-02T10:39:30Z</time>
<desc>lat.=42.496765, lon.=18.657352, Alt.=2.252169m. Speed=23.004000m/h.</desc>
<speed>6.390000</speed>
</trkpt>
<trkpt lat="42.496883" lon="18.657684">
<ele>3.469576</ele>
<time>2012-05-02T10:39:35Z</time>
<desc>lat.=42.496883, lon.=18.657684, Alt.=3.469576m. Speed=22.788000m/h.</desc>
<speed>6.330000</speed>
</trkpt>
<trkpt lat="42.497025" lon="18.657990">
<ele>4.929508</ele>
<time>2012-05-02T10:39:40Z</time>
<desc>lat.=42.497025, lon.=18.657990, Alt.=4.929508m. Speed=19.152000m/h.</desc>
<speed>5.320000</speed>
</trkpt>
<trkpt lat="42.497196" lon="18.658226">
<ele>6.710636</ele>
<time>2012-05-02T10:39:45Z</time>
<desc>lat.=42.497196, lon.=18.658226, Alt.=6.710636m. Speed=22.392000m/h.</desc>
<speed>6.220000</speed>
</trkpt>
<trkpt lat="42.497433" lon="18.658413">
<ele>9.333382</ele>
<time>2012-05-02T10:39:50Z</time>
<desc>lat.=42.497433, lon.=18.658413, Alt.=9.333382m. Speed=20.016001m/h.</desc>
<speed>5.560000</speed>
</trkpt>
<trkpt lat="42.497696" lon="18.658485">
<ele>9.651009</ele>
<time>2012-05-02T10:39:55Z</time>
<desc>lat.=42.497696, lon.=18.658485, Alt.=9.651009m. Speed=21.851999m/h.</desc>
<speed>6.070000</speed>
</trkpt>
<trkpt lat="42.497959" lon="18.658672">
<ele>10.348030</ele>
<time>2012-05-02T10:40:00Z</time>
<desc>lat.=42.497959, lon.=18.658672, Alt.=10.348030m. Speed=25.452000m/h.</desc>
<speed>7.070000</speed>
</trkpt>
<trkpt lat="42.498207" lon="18.658976">
<ele>10.615364</ele>
<time>2012-05-02T10:40:05Z</time>
<desc>lat.=42.498207, lon.=18.658976, Alt.=10.615364m. Speed=27.360001m/h.</desc>
<speed>7.600000</speed>
</trkpt>
<trkpt lat="42.498451" lon="18.659321">
<ele>10.455208</ele>
<time>2012-05-02T10:40:10Z</time>
<desc>lat.=42.498451, lon.=18.659321, Alt.=10.455208m. Speed=27.504000m/h.</desc>
<speed>7.640000</speed>
</trkpt>
<trkpt lat="42.498661" lon="18.659676">
<ele>9.916145</ele>
<time>2012-05-02T10:40:15Z</time>
<desc>lat.=42.498661, lon.=18.659676, Alt.=9.916145m. Speed=26.676001m/h.</desc>
<speed>7.410000</speed>
</trkpt>
<trkpt lat="42.498871" lon="18.660038">
<ele>11.377327</ele>
<time>2012-05-02T10:40:20Z</time>
<desc>lat.=42.498871, lon.=18.660038, Alt.=11.377327m. Speed=27.035999m/h.</desc>
<speed>7.510000</speed>
</trkpt>
<trkpt lat="42.499111" lon="18.660372">
<ele>11.449837</ele>
<time>2012-05-02T10:40:25Z</time>
<desc>lat.=42.499111, lon.=18.660372, Alt.=11.449837m. Speed=25.920000m/h.</desc>
<speed>7.200000</speed>
</trkpt>
<trkpt lat="42.499367" lon="18.660620">
<ele>11.807503</ele>
<time>2012-05-02T10:40:30Z</time>
<desc>lat.=42.499367, lon.=18.660620, Alt.=11.807503m. Speed=22.572001m/h.</desc>
<speed>6.270000</speed>
</trkpt>
<trkpt lat="42.499596" lon="18.660788">
<ele>12.404427</ele>
<time>2012-05-02T10:40:35Z</time>
<desc>lat.=42.499596, lon.=18.660788, Alt.=12.404427m. Speed=22.643999m/h.</desc>
<speed>6.290000</speed>
</trkpt>
<trkpt lat="42.499870" lon="18.660925">
<ele>12.923470</ele>
<time>2012-05-02T10:40:40Z</time>
<desc>lat.=42.499870, lon.=18.660925, Alt.=12.923470m. Speed=24.299999m/h.</desc>
<speed>6.750000</speed>
</trkpt>
<trkpt lat="42.500130" lon="18.661064">
<ele>13.582161</ele>
<time>2012-05-02T10:40:45Z</time>
<desc>lat.=42.500130, lon.=18.661064, Alt.=13.582161m. Speed=21.563999m/h.</desc>
<speed>5.990000</speed>
</trkpt>
<trkpt lat="42.500381" lon="18.661234">
<ele>13.484993</ele>
<time>2012-05-02T10:40:50Z</time>
<desc>lat.=42.500381, lon.=18.661234, Alt.=13.484993m. Speed=23.688000m/h.</desc>
<speed>6.580000</speed>
</trkpt>
<trkpt lat="42.500607" lon="18.661516">
<ele>14.756721</ele>
<time>2012-05-02T10:40:55Z</time>
<desc>lat.=42.500607, lon.=18.661516, Alt.=14.756721m. Speed=25.091999m/h.</desc>
<speed>6.970000</speed>
</trkpt>
<trkpt lat="42.500755" lon="18.661856">
<ele>14.760139</ele>
<time>2012-05-02T10:41:00Z</time>
<desc>lat.=42.500755, lon.=18.661856, Alt.=14.760139m. Speed=21.132000m/h.</desc>
<speed>5.870000</speed>
</trkpt>
<trkpt lat="42.500832" lon="18.662199">
<ele>13.969856</ele>
<time>2012-05-02T10:41:05Z</time>
<desc>lat.=42.500832, lon.=18.662199, Alt.=13.969856m. Speed=22.284000m/h.</desc>
<speed>6.190000</speed>
</trkpt>
<trkpt lat="42.500843" lon="18.662567">
<ele>13.285286</ele>
<time>2012-05-02T10:41:10Z</time>
<desc>lat.=42.500843, lon.=18.662567, Alt.=13.285286m. Speed=21.528000m/h.</desc>
<speed>5.980000</speed>
</trkpt>
<trkpt lat="42.500877" lon="18.662924">
<ele>12.758186</ele>
<time>2012-05-02T10:41:15Z</time>
<desc>lat.=42.500877, lon.=18.662924, Alt.=12.758186m. Speed=22.104000m/h.</desc>
<speed>6.140000</speed>
</trkpt>
<trkpt lat="42.500988" lon="18.663288">
<ele>12.549202</ele>
<time>2012-05-02T10:41:20Z</time>
<desc>lat.=42.500988, lon.=18.663288, Alt.=12.549202m. Speed=23.580000m/h.</desc>
<speed>6.550000</speed>
</trkpt>
<trkpt lat="42.501198" lon="18.663597">
<ele>12.232307</ele>
<time>2012-05-02T10:41:25Z</time>
<desc>lat.=42.501198, lon.=18.663597, Alt.=12.232307m. Speed=25.632000m/h.</desc>
<speed>7.120000</speed>
</trkpt>
<trkpt lat="42.501488" lon="18.663866">
<ele>12.261360</ele>
<time>2012-05-02T10:41:30Z</time>
<desc>lat.=42.501488, lon.=18.663866, Alt.=12.261360m. Speed=30.096001m/h.</desc>
<speed>8.360000</speed>
</trkpt>
<trkpt lat="42.501801" lon="18.664154">
<ele>12.144417</ele>
<time>2012-05-02T10:41:35Z</time>
<desc>lat.=42.501801, lon.=18.664154, Alt.=12.144417m. Speed=29.628000m/h.</desc>
<speed>8.230000</speed>
</trkpt>
<trkpt lat="42.502083" lon="18.664461">
<ele>12.477913</ele>
<time>2012-05-02T10:41:40Z</time>
<desc>lat.=42.502083, lon.=18.664461, Alt.=12.477913m. Speed=27.900000m/h.</desc>
<speed>7.750000</speed>
</trkpt>
<trkpt lat="42.502361" lon="18.664797">
<ele>11.806526</ele>
<time>2012-05-02T10:41:45Z</time>
<desc>lat.=42.502361, lon.=18.664797, Alt.=11.806526m. Speed=31.823999m/h.</desc>
<speed>8.840000</speed>
</trkpt>
<trkpt lat="42.502621" lon="18.665167">
<ele>11.562141</ele>
<time>2012-05-02T10:41:50Z</time>
<desc>lat.=42.502621, lon.=18.665167, Alt.=11.562141m. Speed=28.224001m/h.</desc>
<speed>7.840000</speed>
</trkpt>
<trkpt lat="42.502831" lon="18.665506">
<ele>11.846809</ele>
<time>2012-05-02T10:41:55Z</time>
<desc>lat.=42.502831, lon.=18.665506, Alt.=11.846809m. Speed=25.992001m/h.</desc>
<speed>7.220000</speed>
</trkpt>
<trkpt lat="42.503010" lon="18.665911">
<ele>11.949593</ele>
<time>2012-05-02T10:42:00Z</time>
<desc>lat.=42.503010, lon.=18.665911, Alt.=11.949593m. Speed=28.620001m/h.</desc>
<speed>7.950000</speed>
</trkpt>
<trkpt lat="42.503143" lon="18.666348">
<ele>11.899055</ele>
<time>2012-05-02T10:42:05Z</time>
<desc>lat.=42.503143, lon.=18.666348, Alt.=11.899055m. Speed=25.704000m/h.</desc>
<speed>7.140000</speed>
</trkpt>
<trkpt lat="42.503281" lon="18.666721">
<ele>11.609016</ele>
<time>2012-05-02T10:42:10Z</time>
<desc>lat.=42.503281, lon.=18.666721, Alt.=11.609016m. Speed=25.271999m/h.</desc>
<speed>7.020000</speed>
</trkpt>
<trkpt lat="42.503490" lon="18.667051">
<ele>10.532356</ele>
<time>2012-05-02T10:42:15Z</time>
<desc>lat.=42.503490, lon.=18.667051, Alt.=10.532356m. Speed=25.488001m/h.</desc>
<speed>7.080000</speed>
</trkpt>
<trkpt lat="42.503723" lon="18.667301">
<ele>9.990364</ele>
<time>2012-05-02T10:42:20Z</time>
<desc>lat.=42.503723, lon.=18.667301, Alt.=9.990364m. Speed=22.356001m/h.</desc>
<speed>6.210000</speed>
</trkpt>
<trkpt lat="42.503994" lon="18.667484">
<ele>9.380501</ele>
<time>2012-05-02T10:42:25Z</time>
<desc>lat.=42.503994, lon.=18.667484, Alt.=9.380501m. Speed=25.704000m/h.</desc>
<speed>7.140000</speed>
</trkpt>
<trkpt lat="42.504292" lon="18.667616">
<ele>9.484749</ele>
<time>2012-05-02T10:42:30Z</time>
<desc>lat.=42.504292, lon.=18.667616, Alt.=9.484749m. Speed=25.559999m/h.</desc>
<speed>7.100000</speed>
</trkpt>
<trkpt lat="42.504559" lon="18.667789">
<ele>8.873177</ele>
<time>2012-05-02T10:42:35Z</time>
<desc>lat.=42.504559, lon.=18.667789, Alt.=8.873177m. Speed=24.264000m/h.</desc>
<speed>6.740000</speed>
</trkpt>
<trkpt lat="42.504707" lon="18.668140">
<ele>9.525276</ele>
<time>2012-05-02T10:42:40Z</time>
<desc>lat.=42.504707, lon.=18.668140, Alt.=9.525276m. Speed=25.704000m/h.</desc>
<speed>7.140000</speed>
</trkpt>
<trkpt lat="42.504665" lon="18.668591">
<ele>10.118538</ele>
<time>2012-05-02T10:42:45Z</time>
<desc>lat.=42.504665, lon.=18.668591, Alt.=10.118538m. Speed=27.468000m/h.</desc>
<speed>7.630000</speed>
</trkpt>
<trkpt lat="42.504578" lon="18.669016">
<ele>10.543343</ele>
<time>2012-05-02T10:42:50Z</time>
<desc>lat.=42.504578, lon.=18.669016, Alt.=10.543343m. Speed=24.768000m/h.</desc>
<speed>6.880000</speed>
</trkpt>
<trkpt lat="42.504551" lon="18.669453">
<ele>9.051643</ele>
<time>2012-05-02T10:42:55Z</time>
<desc>lat.=42.504551, lon.=18.669453, Alt.=9.051643m. Speed=25.164000m/h.</desc>
<speed>6.990000</speed>
</trkpt>
<trkpt lat="42.504581" lon="18.669870">
<ele>7.666569</ele>
<time>2012-05-02T10:43:00Z</time>
<desc>lat.=42.504581, lon.=18.669870, Alt.=7.666569m. Speed=25.091999m/h.</desc>
<speed>6.970000</speed>
</trkpt>
<trkpt lat="42.504620" lon="18.670311">
<ele>6.274967</ele>
<time>2012-05-02T10:43:05Z</time>
<desc>lat.=42.504620, lon.=18.670311, Alt.=6.274967m. Speed=26.136000m/h.</desc>
<speed>7.260000</speed>
</trkpt>
<trkpt lat="42.504662" lon="18.670736">
<ele>5.614689</ele>
<time>2012-05-02T10:43:10Z</time>
<desc>lat.=42.504662, lon.=18.670736, Alt.=5.614689m. Speed=25.740000m/h.</desc>
<speed>7.150000</speed>
</trkpt>
<trkpt lat="42.504772" lon="18.671165">
<ele>5.808170</ele>
<time>2012-05-02T10:43:15Z</time>
<desc>lat.=42.504772, lon.=18.671165, Alt.=5.808170m. Speed=26.964001m/h.</desc>
<speed>7.490000</speed>
</trkpt>
<trkpt lat="42.504929" lon="18.671532">
<ele>5.912540</ele>
<time>2012-05-02T10:43:20Z</time>
<desc>lat.=42.504929, lon.=18.671532, Alt.=5.912540m. Speed=23.076000m/h.</desc>
<speed>6.410000</speed>
</trkpt>
<trkpt lat="42.505081" lon="18.671850">
<ele>5.662296</ele>
<time>2012-05-02T10:43:25Z</time>
<desc>lat.=42.505081, lon.=18.671850, Alt.=5.662296m. Speed=24.408001m/h.</desc>
<speed>6.780000</speed>
</trkpt>
<trkpt lat="42.505253" lon="18.672209">
<ele>5.239811</ele>
<time>2012-05-02T10:43:30Z</time>
<desc>lat.=42.505253, lon.=18.672209, Alt.=5.239811m. Speed=25.056000m/h.</desc>
<speed>6.960000</speed>
</trkpt>
<trkpt lat="42.505348" lon="18.672590">
<ele>4.336613</ele>
<time>2012-05-02T10:43:35Z</time>
<desc>lat.=42.505348, lon.=18.672590, Alt.=4.336613m. Speed=24.228001m/h.</desc>
<speed>6.730000</speed>
</trkpt>
<trkpt lat="42.505238" lon="18.673023">
<ele>3.397188</ele>
<time>2012-05-02T10:43:40Z</time>
<desc>lat.=42.505238, lon.=18.673023, Alt.=3.397188m. Speed=27.684000m/h.</desc>
<speed>7.690000</speed>
</trkpt>
<trkpt lat="42.505074" lon="18.673416">
<ele>2.837740</ele>
<time>2012-05-02T10:43:45Z</time>
<desc>lat.=42.505074, lon.=18.673416, Alt.=2.837740m. Speed=24.084000m/h.</desc>
<speed>6.690000</speed>
</trkpt>
<trkpt lat="42.504929" lon="18.673775">
<ele>1.812852</ele>
<time>2012-05-02T10:43:50Z</time>
<desc>lat.=42.504929, lon.=18.673775, Alt.=1.812852m. Speed=24.660000m/h.</desc>
<speed>6.850000</speed>
</trkpt>
<trkpt lat="42.504810" lon="18.674192">
<ele>0.874093</ele>
<time>2012-05-02T10:43:55Z</time>
<desc>lat.=42.504810, lon.=18.674192, Alt.=0.874093m. Speed=26.028000m/h.</desc>
<speed>7.230000</speed>
</trkpt>
<trkpt lat="42.504757" lon="18.674620">
<ele>-0.049769</ele>
<time>2012-05-02T10:44:00Z</time>
<desc>lat.=42.504757, lon.=18.674620, Alt.=-0.049769m. Speed=26.063999m/h.</desc>
<speed>7.240000</speed>
</trkpt>
<trkpt lat="42.504780" lon="18.675034">
<ele>-0.684517</ele>
<time>2012-05-02T10:44:05Z</time>
<desc>lat.=42.504780, lon.=18.675034, Alt.=-0.684517m. Speed=23.940001m/h.</desc>
<speed>6.650000</speed>
</trkpt>
<trkpt lat="42.504887" lon="18.675446">
<ele>-1.246079</ele>
<time>2012-05-02T10:44:10Z</time>
<desc>lat.=42.504887, lon.=18.675446, Alt.=-1.246079m. Speed=27.252001m/h.</desc>
<speed>7.570000</speed>
</trkpt>
<trkpt lat="42.505043" lon="18.675840">
<ele>-1.823655</ele>
<time>2012-05-02T10:44:15Z</time>
<desc>lat.=42.505043, lon.=18.675840, Alt.=-1.823655m. Speed=24.983999m/h.</desc>
<speed>6.940000</speed>
</trkpt>
<trkpt lat="42.505211" lon="18.676176">
<ele>-2.122591</ele>
<time>2012-05-02T10:44:20Z</time>
<desc>lat.=42.505211, lon.=18.676176, Alt.=-2.122591m. Speed=25.091999m/h.</desc>
<speed>6.970000</speed>
</trkpt>
<trkpt lat="42.505428" lon="18.676491">
<ele>-1.402421</ele>
<time>2012-05-02T10:44:25Z</time>
<desc>lat.=42.505428, lon.=18.676491, Alt.=-1.402421m. Speed=27.072001m/h.</desc>
<speed>7.520000</speed>
</trkpt>
<trkpt lat="42.505699" lon="18.676722">
<ele>0.260647</ele>
<time>2012-05-02T10:44:30Z</time>
<desc>lat.=42.505699, lon.=18.676722, Alt.=0.260647m. Speed=22.931999m/h.</desc>
<speed>6.370000</speed>
</trkpt>
<trkpt lat="42.505939" lon="18.676844">
<ele>2.699251</ele>
<time>2012-05-02T10:44:35Z</time>
<desc>lat.=42.505939, lon.=18.676844, Alt.=2.699251m. Speed=21.600000m/h.</desc>
<speed>6.000000</speed>
</trkpt>
<trkpt lat="42.506195" lon="18.676891">
<ele>5.354435</ele>
<time>2012-05-02T10:44:40Z</time>
<desc>lat.=42.506195, lon.=18.676891, Alt.=5.354435m. Speed=21.420000m/h.</desc>
<speed>5.950000</speed>
</trkpt>
<trkpt lat="42.506435" lon="18.676876">
<ele>6.422794</ele>
<time>2012-05-02T10:44:45Z</time>
<desc>lat.=42.506435, lon.=18.676876, Alt.=6.422794m. Speed=17.280001m/h.</desc>
<speed>4.800000</speed>
</trkpt>
<trkpt lat="42.506653" lon="18.676870">
<ele>7.331364</ele>
<time>2012-05-02T10:44:50Z</time>
<desc>lat.=42.506653, lon.=18.676870, Alt.=7.331364m. Speed=19.511999m/h.</desc>
<speed>5.420000</speed>
</trkpt>
<trkpt lat="42.506912" lon="18.676891">
<ele>8.607063</ele>
<time>2012-05-02T10:44:55Z</time>
<desc>lat.=42.506912, lon.=18.676891, Alt.=8.607063m. Speed=21.888000m/h.</desc>
<speed>6.080000</speed>
</trkpt>
<trkpt lat="42.507187" lon="18.676962">
<ele>9.932503</ele>
<time>2012-05-02T10:45:00Z</time>
<desc>lat.=42.507187, lon.=18.676962, Alt.=9.932503m. Speed=22.176001m/h.</desc>
<speed>6.160000</speed>
</trkpt>
<trkpt lat="42.507416" lon="18.677031">
<ele>10.650276</ele>
<time>2012-05-02T10:45:05Z</time>
<desc>lat.=42.507416, lon.=18.677031, Alt.=10.650276m. Speed=18.000000m/h.</desc>
<speed>5.000000</speed>
</trkpt>
<trkpt lat="42.507633" lon="18.677105">
<ele>11.523079</ele>
<time>2012-05-02T10:45:10Z</time>
<desc>lat.=42.507633, lon.=18.677105, Alt.=11.523079m. Speed=18.612000m/h.</desc>
<speed>5.170000</speed>
</trkpt>
<trkpt lat="42.507847" lon="18.677235">
<ele>9.846809</ele>
<time>2012-05-02T10:45:15Z</time>
<desc>lat.=42.507847, lon.=18.677235, Alt.=9.846809m. Speed=19.007999m/h.</desc>
<speed>5.280000</speed>
</trkpt>
<trkpt lat="42.508049" lon="18.677433">
<ele>8.938362</ele>
<time>2012-05-02T10:45:20Z</time>
<desc>lat.=42.508049, lon.=18.677433, Alt.=8.938362m. Speed=18.468000m/h.</desc>
<speed>5.130000</speed>
</trkpt>
<trkpt lat="42.508209" lon="18.677650">
<ele>8.120735</ele>
<time>2012-05-02T10:45:25Z</time>
<desc>lat.=42.508209, lon.=18.677650, Alt.=8.120735m. Speed=15.624000m/h.</desc>
<speed>4.340000</speed>
</trkpt>
<trkpt lat="42.508354" lon="18.677866">
<ele>8.100716</ele>
<time>2012-05-02T10:45:30Z</time>
<desc>lat.=42.508354, lon.=18.677866, Alt.=8.100716m. Speed=19.260000m/h.</desc>
<speed>5.350000</speed>
</trkpt>
<trkpt lat="42.508533" lon="18.678091">
<ele>8.345833</ele>
<time>2012-05-02T10:45:35Z</time>
<desc>lat.=42.508533, lon.=18.678091, Alt.=8.345833m. Speed=17.639999m/h.</desc>
<speed>4.900000</speed>
</trkpt>
<trkpt lat="42.508720" lon="18.678276">
<ele>8.172981</ele>
<time>2012-05-02T10:45:40Z</time>
<desc>lat.=42.508720, lon.=18.678276, Alt.=8.172981m. Speed=18.431999m/h.</desc>
<speed>5.120000</speed>
</trkpt>
<trkpt lat="42.508907" lon="18.678455">
<ele>7.957462</ele>
<time>2012-05-02T10:45:45Z</time>
<desc>lat.=42.508907, lon.=18.678455, Alt.=7.957462m. Speed=16.920000m/h.</desc>
<speed>4.700000</speed>
</trkpt>
<trkpt lat="42.509106" lon="18.678614">
<ele>9.565071</ele>
<time>2012-05-02T10:45:50Z</time>
<desc>lat.=42.509106, lon.=18.678614, Alt.=9.565071m. Speed=21.024000m/h.</desc>
<speed>5.840000</speed>
</trkpt>
<trkpt lat="42.509380" lon="18.678741">
<ele>10.710335</ele>
<time>2012-05-02T10:45:55Z</time>
<desc>lat.=42.509380, lon.=18.678741, Alt.=10.710335m. Speed=25.559999m/h.</desc>
<speed>7.100000</speed>
</trkpt>
<trkpt lat="42.509701" lon="18.678753">
<ele>11.573372</ele>
<time>2012-05-02T10:46:00Z</time>
<desc>lat.=42.509701, lon.=18.678753, Alt.=11.573372m. Speed=26.351999m/h.</desc>
<speed>7.320000</speed>
</trkpt>
<trkpt lat="42.510033" lon="18.678656">
<ele>12.661995</ele>
<time>2012-05-02T10:46:05Z</time>
<desc>lat.=42.510033, lon.=18.678656, Alt.=12.661995m. Speed=27.216000m/h.</desc>
<speed>7.560000</speed>
</trkpt>
<trkpt lat="42.510353" lon="18.678596">
<ele>13.809456</ele>
<time>2012-05-02T10:46:10Z</time>
<desc>lat.=42.510353, lon.=18.678596, Alt.=13.809456m. Speed=25.775999m/h.</desc>
<speed>7.160000</speed>
</trkpt>
<trkpt lat="42.510654" lon="18.678719">
<ele>15.779182</ele>
<time>2012-05-02T10:46:15Z</time>
<desc>lat.=42.510654, lon.=18.678719, Alt.=15.779182m. Speed=25.524000m/h.</desc>
<speed>7.090000</speed>
</trkpt>
<trkpt lat="42.510933" lon="18.678926">
<ele>18.095963</ele>
<time>2012-05-02T10:46:20Z</time>
<desc>lat.=42.510933, lon.=18.678926, Alt.=18.095963m. Speed=25.020000m/h.</desc>
<speed>6.950000</speed>
</trkpt>
<trkpt lat="42.511139" lon="18.679224">
<ele>20.016861</ele>
<time>2012-05-02T10:46:25Z</time>
<desc>lat.=42.511139, lon.=18.679224, Alt.=20.016861m. Speed=20.556000m/h.</desc>
<speed>5.710000</speed>
</trkpt>
<trkpt lat="42.511227" lon="18.679527">
<ele>21.535416</ele>
<time>2012-05-02T10:46:30Z</time>
<desc>lat.=42.511227, lon.=18.679527, Alt.=21.535416m. Speed=19.152000m/h.</desc>
<speed>5.320000</speed>
</trkpt>
<trkpt lat="42.511303" lon="18.679846">
<ele>22.538345</ele>
<time>2012-05-02T10:46:35Z</time>
<desc>lat.=42.511303, lon.=18.679846, Alt.=22.538345m. Speed=16.344000m/h.</desc>
<speed>4.540000</speed>
</trkpt>
<trkpt lat="42.511414" lon="18.680103">
<ele>23.461685</ele>
<time>2012-05-02T10:46:40Z</time>
<desc>lat.=42.511414, lon.=18.680103, Alt.=23.461685m. Speed=16.524000m/h.</desc>
<speed>4.590000</speed>
</trkpt>
<trkpt lat="42.511486" lon="18.680351">
<ele>24.303482</ele>
<time>2012-05-02T10:46:45Z</time>
<desc>lat.=42.511486, lon.=18.680351, Alt.=24.303482m. Speed=13.716000m/h.</desc>
<speed>3.810000</speed>
</trkpt>
<trkpt lat="42.511566" lon="18.680555">
<ele>24.679947</ele>
<time>2012-05-02T10:46:50Z</time>
<desc>lat.=42.511566, lon.=18.680555, Alt.=24.679947m. Speed=12.600000m/h.</desc>
<speed>3.500000</speed>
</trkpt>
<trkpt lat="42.511642" lon="18.680742">
<ele>24.282974</ele>
<time>2012-05-02T10:46:55Z</time>
<desc>lat.=42.511642, lon.=18.680742, Alt.=24.282974m. Speed=12.456000m/h.</desc>
<speed>3.460000</speed>
</trkpt>
<trkpt lat="42.511765" lon="18.680918">
<ele>24.292740</ele>
<time>2012-05-02T10:47:00Z</time>
<desc>lat.=42.511765, lon.=18.680918, Alt.=24.292740m. Speed=15.156000m/h.</desc>
<speed>4.210000</speed>
</trkpt>
<trkpt lat="42.511864" lon="18.681093">
<ele>23.769302</ele>
<time>2012-05-02T10:47:05Z</time>
<desc>lat.=42.511864, lon.=18.681093, Alt.=23.769302m. Speed=13.284000m/h.</desc>
<speed>3.690000</speed>
</trkpt>
<trkpt lat="42.511967" lon="18.681252">
<ele>24.191666</ele>
<time>2012-05-02T10:47:10Z</time>
<desc>lat.=42.511967, lon.=18.681252, Alt.=24.191666m. Speed=13.284000m/h.</desc>
<speed>3.690000</speed>
</trkpt>
<trkpt lat="42.512096" lon="18.681402">
<ele>24.758560</ele>
<time>2012-05-02T10:47:15Z</time>
<desc>lat.=42.512096, lon.=18.681402, Alt.=24.758560m. Speed=13.752000m/h.</desc>
<speed>3.820000</speed>
</trkpt>
<trkpt lat="42.512234" lon="18.681488">
<ele>26.070572</ele>
<time>2012-05-02T10:47:20Z</time>
<desc>lat.=42.512234, lon.=18.681488, Alt.=26.070572m. Speed=13.572000m/h.</desc>
<speed>3.770000</speed>
</trkpt>
<trkpt lat="42.512394" lon="18.681507">
<ele>27.161880</ele>
<time>2012-05-02T10:47:25Z</time>
<desc>lat.=42.512394, lon.=18.681507, Alt.=27.161880m. Speed=13.968000m/h.</desc>
<speed>3.880000</speed>
</trkpt>
<trkpt lat="42.512562" lon="18.681496">
<ele>28.051041</ele>
<time>2012-05-02T10:47:30Z</time>
<desc>lat.=42.512562, lon.=18.681496, Alt.=28.051041m. Speed=14.652000m/h.</desc>
<speed>4.070000</speed>
</trkpt>
<trkpt lat="42.512730" lon="18.681431">
<ele>29.346451</ele>
<time>2012-05-02T10:47:35Z</time>
<desc>lat.=42.512730, lon.=18.681431, Alt.=29.346451m. Speed=13.392000m/h.</desc>
<speed>3.720000</speed>
</trkpt>
<trkpt lat="42.512905" lon="18.681337">
<ele>29.752213</ele>
<time>2012-05-02T10:47:40Z</time>
<desc>lat.=42.512905, lon.=18.681337, Alt.=29.752213m. Speed=17.136000m/h.</desc>
<speed>4.760000</speed>
</trkpt>
<trkpt lat="42.513107" lon="18.681311">
<ele>30.471939</ele>
<time>2012-05-02T10:47:45Z</time>
<desc>lat.=42.513107, lon.=18.681311, Alt.=30.471939m. Speed=16.056000m/h.</desc>
<speed>4.460000</speed>
</trkpt>
<trkpt lat="42.513271" lon="18.681393">
<ele>32.146027</ele>
<time>2012-05-02T10:47:50Z</time>
<desc>lat.=42.513271, lon.=18.681393, Alt.=32.146027m. Speed=14.904000m/h.</desc>
<speed>4.140000</speed>
</trkpt>
<trkpt lat="42.513412" lon="18.681465">
<ele>33.242706</ele>
<time>2012-05-02T10:47:55Z</time>
<desc>lat.=42.513412, lon.=18.681465, Alt.=33.242706m. Speed=11.700000m/h.</desc>
<speed>3.250000</speed>
</trkpt>
<trkpt lat="42.513557" lon="18.681561">
<ele>33.723175</ele>
<time>2012-05-02T10:48:00Z</time>
<desc>lat.=42.513557, lon.=18.681561, Alt.=33.723175m. Speed=13.428000m/h.</desc>
<speed>3.730000</speed>
</trkpt>
<trkpt lat="42.513687" lon="18.681684">
<ele>33.710480</ele>
<time>2012-05-02T10:48:05Z</time>
<desc>lat.=42.513687, lon.=18.681684, Alt.=33.710480m. Speed=9.144000m/h.</desc>
<speed>2.540000</speed>
</trkpt>
<trkpt lat="42.513718" lon="18.681698">
<ele>33.648956</ele>
<time>2012-05-02T10:48:10Z</time>
<desc>lat.=42.513718, lon.=18.681698, Alt.=33.648956m. Speed=1.908000m/h.</desc>
<speed>0.530000</speed>
</trkpt>
<trkpt lat="42.513729" lon="18.681694">
<ele>34.194855</ele>
<time>2012-05-02T10:48:15Z</time>
<desc>lat.=42.513729, lon.=18.681694, Alt.=34.194855m. Speed=3.024000m/h.</desc>
<speed>0.840000</speed>
</trkpt>
<trkpt lat="42.513737" lon="18.681648">
<ele>34.894073</ele>
<time>2012-05-02T10:48:20Z</time>
<desc>lat.=42.513737, lon.=18.681648, Alt.=34.894073m. Speed=2.196000m/h.</desc>
<speed>0.610000</speed>
</trkpt>
<trkpt lat="42.513744" lon="18.681648">
<ele>34.978058</ele>
<time>2012-05-02T10:48:25Z</time>
<desc>lat.=42.513744, lon.=18.681648, Alt.=34.978058m. Speed=0.432000m/h.</desc>
<speed>0.120000</speed>
</trkpt>
<trkpt lat="42.513744" lon="18.681650">
<ele>35.147980</ele>
<time>2012-05-02T10:48:30Z</time>
<desc>lat.=42.513744, lon.=18.681650, Alt.=35.147980m. Speed=1.044000m/h.</desc>
<speed>0.290000</speed>
</trkpt>
<trkpt lat="42.513721" lon="18.681664">
<ele>35.113800</ele>
<time>2012-05-02T10:48:35Z</time>
<desc>lat.=42.513721, lon.=18.681664, Alt.=35.113800m. Speed=1.080000m/h.</desc>
<speed>0.300000</speed>
</trkpt>
<trkpt lat="42.513699" lon="18.681677">
<ele>34.991730</ele>
<time>2012-05-02T10:48:40Z</time>
<desc>lat.=42.513699, lon.=18.681677, Alt.=34.991730m. Speed=0.756000m/h.</desc>
<speed>0.210000</speed>
</trkpt>
<trkpt lat="42.513699" lon="18.681684">
<ele>35.069855</ele>
<time>2012-05-02T10:48:45Z</time>
<desc>lat.=42.513699, lon.=18.681684, Alt.=35.069855m. Speed=0.144000m/h.</desc>
<speed>0.040000</speed>
</trkpt>
<trkpt lat="42.513699" lon="18.681683">
<ele>35.134308</ele>
<time>2012-05-02T10:48:50Z</time>
<desc>lat.=42.513699, lon.=18.681683, Alt.=35.134308m. Speed=0.144000m/h.</desc>
<speed>0.040000</speed>
</trkpt>
<trkpt lat="42.513695" lon="18.681683">
<ele>35.194855</ele>
<time>2012-05-02T10:48:55Z</time>
<desc>lat.=42.513695, lon.=18.681683, Alt.=35.194855m. Speed=0.036000m/h.</desc>
<speed>0.010000</speed>
</trkpt>
<trkpt lat="42.513695" lon="18.681683">
<ele>35.205597</ele>
<time>2012-05-02T10:49:00Z</time>
<desc>lat.=42.513695, lon.=18.681683, Alt.=35.205597m. Speed=0.036000m/h.</desc>
<speed>0.010000</speed>
</trkpt>
<trkpt lat="42.513695" lon="18.681683">
<ele>35.205597</ele>
<time>2012-05-02T10:49:05Z</time>
<desc>lat.=42.513695, lon.=18.681683, Alt.=35.205597m. Speed=0.000000m/h.</desc>
<speed>0.000000</speed>
</trkpt>
<trkpt lat="42.513695" lon="18.681683">
<ele>35.204620</ele>
<time>2012-05-02T10:49:10Z</time>
<desc>lat.=42.513695, lon.=18.681683, Alt.=35.204620m. Speed=0.036000m/h.</desc>
<speed>0.010000</speed>
</trkpt>
<trkpt lat="42.513699" lon="18.681681">
<ele>35.218292</ele>
<time>2012-05-02T10:49:15Z</time>
<desc>lat.=42.513699, lon.=18.681681, Alt.=35.218292m. Speed=0.072000m/h.</desc>
<speed>0.020000</speed>
</trkpt>
<trkpt lat="42.513699" lon="18.681681">
<ele>35.230988</ele>
<time>2012-05-02T10:49:20Z</time>
<desc>lat.=42.513699, lon.=18.681681, Alt.=35.230988m. Speed=0.036000m/h.</desc>
<speed>0.010000</speed>
</trkpt>
<trkpt lat="42.513699" lon="18.681683">
<ele>35.236847</ele>
<time>2012-05-02T10:49:25Z</time>
<desc>lat.=42.513699, lon.=18.681683, Alt.=35.236847m. Speed=0.000000m/h.</desc>
<speed>0.000000</speed>
</trkpt>
<trkpt lat="42.513699" lon="18.681683">
<ele>35.244659</ele>
<time>2012-05-02T10:49:30Z</time>
<desc>lat.=42.513699, lon.=18.681683, Alt.=35.244659m. Speed=0.072000m/h.</desc>
<speed>0.020000</speed>
</trkpt>
<trkpt lat="42.513699" lon="18.681683">
<ele>35.267120</ele>
<time>2012-05-02T10:49:35Z</time>
<desc>lat.=42.513699, lon.=18.681683, Alt.=35.267120m. Speed=0.036000m/h.</desc>
<speed>0.010000</speed>
</trkpt>
<trkpt lat="42.513699" lon="18.681683">
<ele>35.299347</ele>
<time>2012-05-02T10:49:40Z</time>
<desc>lat.=42.513699, lon.=18.681683, Alt.=35.299347m. Speed=0.108000m/h.</desc>
<speed>0.030000</speed>
</trkpt>
<trkpt lat="42.513699" lon="18.681683">
<ele>35.321808</ele>
<time>2012-05-02T10:49:45Z</time>
<desc>lat.=42.513699, lon.=18.681683, Alt.=35.321808m. Speed=0.000000m/h.</desc>
<speed>0.000000</speed>
</trkpt>
<trkpt lat="42.513699" lon="18.681683">
<ele>35.343292</ele>
<time>2012-05-02T10:49:50Z</time>
<desc>lat.=42.513699, lon.=18.681683, Alt.=35.343292m. Speed=0.108000m/h.</desc>
<speed>0.030000</speed>
</trkpt>
<trkpt lat="42.513702" lon="18.681683">
<ele>35.370636</ele>
<time>2012-05-02T10:49:55Z</time>
<desc>lat.=42.513702, lon.=18.681683, Alt.=35.370636m. Speed=0.000000m/h.</desc>
<speed>0.000000</speed>
</trkpt>
<trkpt lat="42.513702" lon="18.681683">
<ele>35.367706</ele>
<time>2012-05-02T10:50:00Z</time>
<desc>lat.=42.513702, lon.=18.681683, Alt.=35.367706m. Speed=0.072000m/h.</desc>
<speed>0.020000</speed>
</trkpt>
<trkpt lat="42.513702" lon="18.681683">
<ele>35.374542</ele>
<time>2012-05-02T10:50:05Z</time>
<desc>lat.=42.513702, lon.=18.681683, Alt.=35.374542m. Speed=0.036000m/h.</desc>
<speed>0.010000</speed>
</trkpt>
<trkpt lat="42.513702" lon="18.681684">
<ele>35.385284</ele>
<time>2012-05-02T10:50:10Z</time>
<desc>lat.=42.513702, lon.=18.681684, Alt.=35.385284m. Speed=0.036000m/h.</desc>
<speed>0.010000</speed>
</trkpt>
<trkpt lat="42.513702" lon="18.681684">
<ele>35.373566</ele>
<time>2012-05-02T10:50:15Z</time>
<desc>lat.=42.513702, lon.=18.681684, Alt.=35.373566m. Speed=0.036000m/h.</desc>
<speed>0.010000</speed>
</trkpt>
<trkpt lat="42.513702" lon="18.681684">
<ele>35.375519</ele>
<time>2012-05-02T10:50:20Z</time>
<desc>lat.=42.513702, lon.=18.681684, Alt.=35.375519m. Speed=0.036000m/h.</desc>
<speed>0.010000</speed>
</trkpt>
<trkpt lat="42.513702" lon="18.681684">
<ele>35.381378</ele>
<time>2012-05-02T10:50:25Z</time>
<desc>lat.=42.513702, lon.=18.681684, Alt.=35.381378m. Speed=0.000000m/h.</desc>
<speed>0.000000</speed>
</trkpt>
<trkpt lat="42.513702" lon="18.681684">
<ele>35.370636</ele>
<time>2012-05-02T10:50:30Z</time>
<desc>lat.=42.513702, lon.=18.681684, Alt.=35.370636m. Speed=0.036000m/h.</desc>
<speed>0.010000</speed>
</trkpt>
<trkpt lat="42.513702" lon="18.681684">
<ele>35.355988</ele>
<time>2012-05-02T10:50:35Z</time>
<desc>lat.=42.513702, lon.=18.681684, Alt.=35.355988m. Speed=0.000000m/h.</desc>
<speed>0.000000</speed>
</trkpt>
<trkpt lat="42.513702" lon="18.681684">
<ele>35.342316</ele>
<time>2012-05-02T10:50:40Z</time>
<desc>lat.=42.513702, lon.=18.681684, Alt.=35.342316m. Speed=0.036000m/h.</desc>
<speed>0.010000</speed>
</trkpt>
<trkpt lat="42.513702" lon="18.681684">
<ele>35.330597</ele>
<time>2012-05-02T10:50:45Z</time>
<desc>lat.=42.513702, lon.=18.681684, Alt.=35.330597m. Speed=0.000000m/h.</desc>
<speed>0.000000</speed>
</trkpt>
<trkpt lat="42.513702" lon="18.681686">
<ele>35.306183</ele>
<time>2012-05-02T10:50:50Z</time>
<desc>lat.=42.513702, lon.=18.681686, Alt.=35.306183m. Speed=0.036000m/h.</desc>
<speed>0.010000</speed>
</trkpt>
<trkpt lat="42.513702" lon="18.681686">
<ele>35.261261</ele>
<time>2012-05-02T10:50:55Z</time>
<desc>lat.=42.513702, lon.=18.681686, Alt.=35.261261m. Speed=0.036000m/h.</desc>
<speed>0.010000</speed>
</trkpt>
<trkpt lat="42.513702" lon="18.681686">
<ele>35.220245</ele>
<time>2012-05-02T10:51:00Z</time>
<desc>lat.=42.513702, lon.=18.681686, Alt.=35.220245m. Speed=0.000000m/h.</desc>
<speed>0.000000</speed>
</trkpt>
<trkpt lat="42.513702" lon="18.681686">
<ele>35.178253</ele>
<time>2012-05-02T10:51:05Z</time>
<desc>lat.=42.513702, lon.=18.681686, Alt.=35.178253m. Speed=0.000000m/h.</desc>
<speed>0.000000</speed>
</trkpt>
<trkpt lat="42.513702" lon="18.681688">
<ele>35.142120</ele>
<time>2012-05-02T10:51:10Z</time>
<desc>lat.=42.513702, lon.=18.681688, Alt.=35.142120m. Speed=0.036000m/h.</desc>
<speed>0.010000</speed>
</trkpt>
<trkpt lat="42.513706" lon="18.681688">
<ele>35.114777</ele>
<time>2012-05-02T10:51:15Z</time>
<desc>lat.=42.513706, lon.=18.681688, Alt.=35.114777m. Speed=0.036000m/h.</desc>
<speed>0.010000</speed>
</trkpt>
<trkpt lat="42.513706" lon="18.681688">
<ele>35.118683</ele>
<time>2012-05-02T10:51:20Z</time>
<desc>lat.=42.513706, lon.=18.681688, Alt.=35.118683m. Speed=0.000000m/h.</desc>
<speed>0.000000</speed>
</trkpt>
<trkpt lat="42.513706" lon="18.681688">
<ele>35.114777</ele>
<time>2012-05-02T10:51:25Z</time>
<desc>lat.=42.513706, lon.=18.681688, Alt.=35.114777m. Speed=0.000000m/h.</desc>
<speed>0.000000</speed>
</trkpt>
<trkpt lat="42.513706" lon="18.681688">
<ele>35.115753</ele>
<time>2012-05-02T10:51:30Z</time>
<desc>lat.=42.513706, lon.=18.681688, Alt.=35.115753m. Speed=0.000000m/h.</desc>
<speed>0.000000</speed>
</trkpt>
<trkpt lat="42.513706" lon="18.681690">
<ele>35.105988</ele>
<time>2012-05-02T10:51:35Z</time>
<desc>lat.=42.513706, lon.=18.681690, Alt.=35.105988m. Speed=0.072000m/h.</desc>
<speed>0.020000</speed>
</trkpt>
<trkpt lat="42.513706" lon="18.681690">
<ele>35.095245</ele>
<time>2012-05-02T10:51:40Z</time>
<desc>lat.=42.513706, lon.=18.681690, Alt.=35.095245m. Speed=0.036000m/h.</desc>
<speed>0.010000</speed>
</trkpt>
<trkpt lat="42.513706" lon="18.681690">
<ele>35.088409</ele>
<time>2012-05-02T10:51:45Z</time>
<desc>lat.=42.513706, lon.=18.681690, Alt.=35.088409m. Speed=0.000000m/h.</desc>
<speed>0.000000</speed>
</trkpt>
<trkpt lat="42.513706" lon="18.681690">
<ele>35.091339</ele>
<time>2012-05-02T10:51:50Z</time>
<desc>lat.=42.513706, lon.=18.681690, Alt.=35.091339m. Speed=0.036000m/h.</desc>
<speed>0.010000</speed>
</trkpt>
<trkpt lat="42.513706" lon="18.681688">
<ele>35.083527</ele>
<time>2012-05-02T10:51:55Z</time>
<desc>lat.=42.513706, lon.=18.681688, Alt.=35.083527m. Speed=0.000000m/h.</desc>
<speed>0.000000</speed>
</trkpt>
<trkpt lat="42.513706" lon="18.681688">
<ele>35.063019</ele>
<time>2012-05-02T10:52:00Z</time>
<desc>lat.=42.513706, lon.=18.681688, Alt.=35.063019m. Speed=0.000000m/h.</desc>
<speed>0.000000</speed>
</trkpt>
<trkpt lat="42.513706" lon="18.681688">
<ele>35.053253</ele>
<time>2012-05-02T10:52:05Z</time>
<desc>lat.=42.513706, lon.=18.681688, Alt.=35.053253m. Speed=0.000000m/h.</desc>
<speed>0.000000</speed>
</trkpt>
<trkpt lat="42.513706" lon="18.681688">
<ele>35.051300</ele>
<time>2012-05-02T10:52:10Z</time>
<desc>lat.=42.513706, lon.=18.681688, Alt.=35.051300m. Speed=0.000000m/h.</desc>
<speed>0.000000</speed>
</trkpt>
<trkpt lat="42.513706" lon="18.681688">
<ele>35.048370</ele>
<time>2012-05-02T10:52:15Z</time>
<desc>lat.=42.513706, lon.=18.681688, Alt.=35.048370m. Speed=0.000000m/h.</desc>
<speed>0.000000</speed>
</trkpt>
<trkpt lat="42.513706" lon="18.681688">
<ele>35.044464</ele>
<time>2012-05-02T10:52:20Z</time>
<desc>lat.=42.513706, lon.=18.681688, Alt.=35.044464m. Speed=0.000000m/h.</desc>
<speed>0.000000</speed>
</trkpt>
<trkpt lat="42.513706" lon="18.681688">
<ele>35.032745</ele>
<time>2012-05-02T10:52:25Z</time>
<desc>lat.=42.513706, lon.=18.681688, Alt.=35.032745m. Speed=0.000000m/h.</desc>
<speed>0.000000</speed>
</trkpt>
<trkpt lat="42.513706" lon="18.681688">
<ele>35.028839</ele>
<time>2012-05-02T10:52:30Z</time>
<desc>lat.=42.513706, lon.=18.681688, Alt.=35.028839m. Speed=0.072000m/h.</desc>
<speed>0.020000</speed>
</trkpt>
<trkpt lat="42.513706" lon="18.681688">
<ele>35.029816</ele>
<time>2012-05-02T10:52:35Z</time>
<desc>lat.=42.513706, lon.=18.681688, Alt.=35.029816m. Speed=0.072000m/h.</desc>
<speed>0.020000</speed>
</trkpt>
<trkpt lat="42.513706" lon="18.681688">
<ele>35.008331</ele>
<time>2012-05-02T10:52:40Z</time>
<desc>lat.=42.513706, lon.=18.681688, Alt.=35.008331m. Speed=0.036000m/h.</desc>
<speed>0.010000</speed>
</trkpt>
<trkpt lat="42.513706" lon="18.681688">
<ele>34.997589</ele>
<time>2012-05-02T10:52:45Z</time>
<desc>lat.=42.513706, lon.=18.681688, Alt.=34.997589m. Speed=0.000000m/h.</desc>
<speed>0.000000</speed>
</trkpt>
<trkpt lat="42.513706" lon="18.681688">
<ele>34.985870</ele>
<time>2012-05-02T10:52:50Z</time>
<desc>lat.=42.513706, lon.=18.681688, Alt.=34.985870m. Speed=0.036000m/h.</desc>
<speed>0.010000</speed>
</trkpt>
<trkpt lat="42.513706" lon="18.681688">
<ele>34.969269</ele>
<time>2012-05-02T10:52:55Z</time>
<desc>lat.=42.513706, lon.=18.681688, Alt.=34.969269m. Speed=0.000000m/h.</desc>
<speed>0.000000</speed>
</trkpt>
<trkpt lat="42.513706" lon="18.681688">
<ele>34.947784</ele>
<time>2012-05-02T10:53:00Z</time>
<desc>lat.=42.513706, lon.=18.681688, Alt.=34.947784m. Speed=0.000000m/h.</desc>
<speed>0.000000</speed>
</trkpt>
<trkpt lat="42.513706" lon="18.681688">
<ele>34.934113</ele>
<time>2012-05-02T10:53:05Z</time>
<desc>lat.=42.513706, lon.=18.681688, Alt.=34.934113m. Speed=0.000000m/h.</desc>
<speed>0.000000</speed>
</trkpt>
<trkpt lat="42.513706" lon="18.681688">
<ele>34.908722</ele>
<time>2012-05-02T10:53:10Z</time>
<desc>lat.=42.513706, lon.=18.681688, Alt.=34.908722m. Speed=0.000000m/h.</desc>
<speed>0.000000</speed>
</trkpt>
<trkpt lat="42.513706" lon="18.681688">
<ele>34.884308</ele>
<time>2012-05-02T10:53:15Z</time>
<desc>lat.=42.513706, lon.=18.681688, Alt.=34.884308m. Speed=0.036000m/h.</desc>
<speed>0.010000</speed>
</trkpt>
<trkpt lat="42.513706" lon="18.681688">
<ele>34.879425</ele>
<time>2012-05-02T10:53:20Z</time>
<desc>lat.=42.513706, lon.=18.681688, Alt.=34.879425m. Speed=0.000000m/h.</desc>
<speed>0.000000</speed>
</trkpt>
<trkpt lat="42.513706" lon="18.681688">
<ele>34.865753</ele>
<time>2012-05-02T10:53:25Z</time>
<desc>lat.=42.513706, lon.=18.681688, Alt.=34.865753m. Speed=0.036000m/h.</desc>
<speed>0.010000</speed>
</trkpt>
<trkpt lat="42.513706" lon="18.681688">
<ele>34.841339</ele>
<time>2012-05-02T10:53:30Z</time>
<desc>lat.=42.513706, lon.=18.681688, Alt.=34.841339m. Speed=0.000000m/h.</desc>
<speed>0.000000</speed>
</trkpt>
<trkpt lat="42.513706" lon="18.681688">
<ele>34.804230</ele>
<time>2012-05-02T10:53:35Z</time>
<desc>lat.=42.513706, lon.=18.681688, Alt.=34.804230m. Speed=0.000000m/h.</desc>
<speed>0.000000</speed>
</trkpt>
<trkpt lat="42.513706" lon="18.681688">
<ele>34.771027</ele>
<time>2012-05-02T10:53:40Z</time>
<desc>lat.=42.513706, lon.=18.681688, Alt.=34.771027m. Speed=0.036000m/h.</desc>
<speed>0.010000</speed>
</trkpt>
<trkpt lat="42.513706" lon="18.681688">
<ele>34.769073</ele>
<time>2012-05-02T10:53:45Z</time>
<desc>lat.=42.513706, lon.=18.681688, Alt.=34.769073m. Speed=0.036000m/h.</desc>
<speed>0.010000</speed>
</trkpt>
<trkpt lat="42.513706" lon="18.681688">
<ele>34.752472</ele>
<time>2012-05-02T10:53:50Z</time>
<desc>lat.=42.513706, lon.=18.681688, Alt.=34.752472m. Speed=0.072000m/h.</desc>
<speed>0.020000</speed>
</trkpt>
<trkpt lat="42.513706" lon="18.681688">
<ele>34.750519</ele>
<time>2012-05-02T10:53:55Z</time>
<desc>lat.=42.513706, lon.=18.681688, Alt.=34.750519m. Speed=0.000000m/h.</desc>
<speed>0.000000</speed>
</trkpt>
<trkpt lat="42.513706" lon="18.681688">
<ele>34.779816</ele>
<time>2012-05-02T10:54:00Z</time>
<desc>lat.=42.513706, lon.=18.681688, Alt.=34.779816m. Speed=0.036000m/h.</desc>
<speed>0.010000</speed>
</trkpt>
<trkpt lat="42.513706" lon="18.681688">
<ele>34.810089</ele>
<time>2012-05-02T10:54:05Z</time>
<desc>lat.=42.513706, lon.=18.681688, Alt.=34.810089m. Speed=0.036000m/h.</desc>
<speed>0.010000</speed>
</trkpt>
<trkpt lat="42.513706" lon="18.681688">
<ele>34.814972</ele>
<time>2012-05-02T10:54:10Z</time>
<desc>lat.=42.513706, lon.=18.681688, Alt.=34.814972m. Speed=0.036000m/h.</desc>
<speed>0.010000</speed>
</trkpt>
<trkpt lat="42.513706" lon="18.681688">
<ele>34.820831</ele>
<time>2012-05-02T10:54:15Z</time>
<desc>lat.=42.513706, lon.=18.681688, Alt.=34.820831m. Speed=0.000000m/h.</desc>
<speed>0.000000</speed>
</trkpt>
<trkpt lat="42.513706" lon="18.681688">
<ele>34.798370</ele>
<time>2012-05-02T10:54:20Z</time>
<desc>lat.=42.513706, lon.=18.681688, Alt.=34.798370m. Speed=0.036000m/h.</desc>
<speed>0.010000</speed>
</trkpt>
<trkpt lat="42.513706" lon="18.681688">
<ele>34.769073</ele>
<time>2012-05-02T10:54:25Z</time>
<desc>lat.=42.513706, lon.=18.681688, Alt.=34.769073m. Speed=0.000000m/h.</desc>
<speed>0.000000</speed>
</trkpt>
<trkpt lat="42.513706" lon="18.681688">
<ele>34.772003</ele>
<time>2012-05-02T10:54:30Z</time>
<desc>lat.=42.513706, lon.=18.681688, Alt.=34.772003m. Speed=0.108000m/h.</desc>
<speed>0.030000</speed>
</trkpt>
<trkpt lat="42.513725" lon="18.681664">
<ele>35.126495</ele>
<time>2012-05-02T10:54:35Z</time>
<desc>lat.=42.513725, lon.=18.681664, Alt.=35.126495m. Speed=2.808000m/h.</desc>
<speed>0.780000</speed>
</trkpt>
<trkpt lat="42.513741" lon="18.681664">
<ele>33.789581</ele>
<time>2012-05-02T10:54:40Z</time>
<desc>lat.=42.513741, lon.=18.681664, Alt.=33.789581m. Speed=1.692000m/h.</desc>
<speed>0.470000</speed>
</trkpt>
<trkpt lat="42.513737" lon="18.681660">
<ele>32.243683</ele>
<time>2012-05-02T10:54:45Z</time>
<desc>lat.=42.513737, lon.=18.681660, Alt.=32.243683m. Speed=0.108000m/h.</desc>
<speed>0.030000</speed>
</trkpt>
<trkpt lat="42.513741" lon="18.681662">
<ele>32.111847</ele>
<time>2012-05-02T10:54:50Z</time>
<desc>lat.=42.513741, lon.=18.681662, Alt.=32.111847m. Speed=0.504000m/h.</desc>
<speed>0.140000</speed>
</trkpt>
<trkpt lat="42.513737" lon="18.681673">
<ele>32.133331</ele>
<time>2012-05-02T10:54:55Z</time>
<desc>lat.=42.513737, lon.=18.681673, Alt.=32.133331m. Speed=0.432000m/h.</desc>
<speed>0.120000</speed>
</trkpt>
<trkpt lat="42.513741" lon="18.681679">
<ele>32.222198</ele>
<time>2012-05-02T10:55:00Z</time>
<desc>lat.=42.513741, lon.=18.681679, Alt.=32.222198m. Speed=0.288000m/h.</desc>
<speed>0.080000</speed>
</trkpt>
<trkpt lat="42.513744" lon="18.681679">
<ele>32.292511</ele>
<time>2012-05-02T10:55:05Z</time>
<desc>lat.=42.513744, lon.=18.681679, Alt.=32.292511m. Speed=0.144000m/h.</desc>
<speed>0.040000</speed>
</trkpt>
<trkpt lat="42.513748" lon="18.681681">
<ele>32.349152</ele>
<time>2012-05-02T10:55:10Z</time>
<desc>lat.=42.513748, lon.=18.681681, Alt.=32.349152m. Speed=0.252000m/h.</desc>
<speed>0.070000</speed>
</trkpt>
<trkpt lat="42.513752" lon="18.681707">
<ele>32.509308</ele>
<time>2012-05-02T10:55:15Z</time>
<desc>lat.=42.513752, lon.=18.681707, Alt.=32.509308m. Speed=4.392000m/h.</desc>
<speed>1.220000</speed>
</trkpt>
<trkpt lat="42.513771" lon="18.681850">
<ele>33.485870</ele>
<time>2012-05-02T10:55:20Z</time>
<desc>lat.=42.513771, lon.=18.681850, Alt.=33.485870m. Speed=9.756000m/h.</desc>
<speed>2.710000</speed>
</trkpt>
<trkpt lat="42.513885" lon="18.682028">
<ele>33.559113</ele>
<time>2012-05-02T10:55:25Z</time>
<desc>lat.=42.513885, lon.=18.682028, Alt.=33.559113m. Speed=18.900000m/h.</desc>
<speed>5.250000</speed>
</trkpt>
<trkpt lat="42.514046" lon="18.682301">
<ele>33.666534</ele>
<time>2012-05-02T10:55:30Z</time>
<desc>lat.=42.514046, lon.=18.682301, Alt.=33.666534m. Speed=23.615999m/h.</desc>
<speed>6.560000</speed>
</trkpt>
<trkpt lat="42.514294" lon="18.682606">
<ele>31.958755</ele>
<time>2012-05-02T10:55:35Z</time>
<desc>lat.=42.514294, lon.=18.682606, Alt.=31.958755m. Speed=28.511999m/h.</desc>
<speed>7.920000</speed>
</trkpt>
<trkpt lat="42.514645" lon="18.682816">
<ele>31.067642</ele>
<time>2012-05-02T10:55:40Z</time>
<desc>lat.=42.514645, lon.=18.682816, Alt.=31.067642m. Speed=34.667999m/h.</desc>
<speed>9.630000</speed>
</trkpt>
<trkpt lat="42.515118" lon="18.682831">
<ele>28.586197</ele>
<time>2012-05-02T10:55:45Z</time>
<desc>lat.=42.515118, lon.=18.682831, Alt.=28.586197m. Speed=42.551998m/h.</desc>
<speed>11.819999</speed>
</trkpt>
<trkpt lat="42.515511" lon="18.683348">
<ele>26.283463</ele>
<time>2012-05-02T10:55:50Z</time>
<desc>lat.=42.515511, lon.=18.683348, Alt.=26.283463m. Speed=48.312000m/h.</desc>
<speed>13.420000</speed>
</trkpt>
<trkpt lat="42.515800" lon="18.684107">
<ele>23.349869</ele>
<time>2012-05-02T10:55:55Z</time>
<desc>lat.=42.515800, lon.=18.684107, Alt.=23.349869m. Speed=50.868000m/h.</desc>
<speed>14.130000</speed>
</trkpt>
<trkpt lat="42.516079" lon="18.684858">
<ele>19.933853</ele>
<time>2012-05-02T10:56:00Z</time>
<desc>lat.=42.516079, lon.=18.684858, Alt.=19.933853m. Speed=49.248001m/h.</desc>
<speed>13.680000</speed>
</trkpt>
<trkpt lat="42.516098" lon="18.685658">
<ele>14.546761</ele>
<time>2012-05-02T10:56:05Z</time>
<desc>lat.=42.516098, lon.=18.685658, Alt.=14.546761m. Speed=44.891998m/h.</desc>
<speed>12.470000</speed>
</trkpt>
<trkpt lat="42.516357" lon="18.686310">
<ele>10.824837</ele>
<time>2012-05-02T10:56:10Z</time>
<desc>lat.=42.516357, lon.=18.686310, Alt.=10.824837m. Speed=44.028000m/h.</desc>
<speed>12.230000</speed>
</trkpt>
<trkpt lat="42.516754" lon="18.686779">
<ele>8.716438</ele>
<time>2012-05-02T10:56:15Z</time>
<desc>lat.=42.516754, lon.=18.686779, Alt.=8.716438m. Speed=40.032001m/h.</desc>
<speed>11.120000</speed>
</trkpt>
<trkpt lat="42.517097" lon="18.687233">
<ele>6.816349</ele>
<time>2012-05-02T10:56:20Z</time>
<desc>lat.=42.517097, lon.=18.687233, Alt.=6.816349m. Speed=37.007999m/h.</desc>
<speed>10.280000</speed>
</trkpt>
<trkpt lat="42.517246" lon="18.687769">
<ele>5.533146</ele>
<time>2012-05-02T10:56:25Z</time>
<desc>lat.=42.517246, lon.=18.687769, Alt.=5.533146m. Speed=30.851999m/h.</desc>
<speed>8.570000</speed>
</trkpt>
<trkpt lat="42.517284" lon="18.688288">
<ele>2.703768</ele>
<time>2012-05-02T10:56:30Z</time>
<desc>lat.=42.517284, lon.=18.688288, Alt.=2.703768m. Speed=31.176001m/h.</desc>
<speed>8.660000</speed>
</trkpt>
<trkpt lat="42.517281" lon="18.688820">
<ele>0.491719</ele>
<time>2012-05-02T10:56:35Z</time>
<desc>lat.=42.517281, lon.=18.688820, Alt.=0.491719m. Speed=31.356001m/h.</desc>
<speed>8.710000</speed>
</trkpt>
<trkpt lat="42.517269" lon="18.689318">
<ele>-1.229692</ele>
<time>2012-05-02T10:56:40Z</time>
<desc>lat.=42.517269, lon.=18.689318, Alt.=-1.229692m. Speed=27.612000m/h.</desc>
<speed>7.670000</speed>
</trkpt>
<trkpt lat="42.517246" lon="18.689754">
<ele>-1.573655</ele>
<time>2012-05-02T10:56:45Z</time>
<desc>lat.=42.517246, lon.=18.689754, Alt.=-1.573655m. Speed=25.704000m/h.</desc>
<speed>7.140000</speed>
</trkpt>
<trkpt lat="42.517189" lon="18.690168">
<ele>-2.249544</ele>
<time>2012-05-02T10:56:50Z</time>
<desc>lat.=42.517189, lon.=18.690168, Alt.=-2.249544m. Speed=22.500000m/h.</desc>
<speed>6.250000</speed>
</trkpt>
<trkpt lat="42.517136" lon="18.690525">
<ele>-1.894273</ele>
<time>2012-05-02T10:56:55Z</time>
<desc>lat.=42.517136, lon.=18.690525, Alt.=-1.894273m. Speed=22.823999m/h.</desc>
<speed>6.340000</speed>
</trkpt>
<trkpt lat="42.517056" lon="18.690897">
<ele>-0.299389</ele>
<time>2012-05-02T10:57:00Z</time>
<desc>lat.=42.517056, lon.=18.690897, Alt.=-0.299389m. Speed=23.400000m/h.</desc>
<speed>6.500000</speed>
</trkpt>
<trkpt lat="42.516930" lon="18.691286">
<ele>2.122774</ele>
<time>2012-05-02T10:57:05Z</time>
<desc>lat.=42.516930, lon.=18.691286, Alt.=2.122774m. Speed=26.459999m/h.</desc>
<speed>7.350000</speed>
</trkpt>
<trkpt lat="42.516788" lon="18.691628">
<ele>3.361116</ele>
<time>2012-05-02T10:57:10Z</time>
<desc>lat.=42.516788, lon.=18.691628, Alt.=3.361116m. Speed=20.304001m/h.</desc>
<speed>5.640000</speed>
</trkpt>
<trkpt lat="42.516640" lon="18.691944">
<ele>3.588045</ele>
<time>2012-05-02T10:57:15Z</time>
<desc>lat.=42.516640, lon.=18.691944, Alt.=3.588045m. Speed=21.132000m/h.</desc>
<speed>5.870000</speed>
</trkpt>
<trkpt lat="42.516506" lon="18.692228">
<ele>4.233463</ele>
<time>2012-05-02T10:57:20Z</time>
<desc>lat.=42.516506, lon.=18.692228, Alt.=4.233463m. Speed=21.132000m/h.</desc>
<speed>5.870000</speed>
</trkpt>
<trkpt lat="42.516304" lon="18.692562">
<ele>4.920231</ele>
<time>2012-05-02T10:57:25Z</time>
<desc>lat.=42.516304, lon.=18.692562, Alt.=4.920231m. Speed=24.372000m/h.</desc>
<speed>6.770000</speed>
</trkpt>
<trkpt lat="42.516109" lon="18.692894">
<ele>6.016911</ele>
<time>2012-05-02T10:57:30Z</time>
<desc>lat.=42.516109, lon.=18.692894, Alt.=6.016911m. Speed=24.804001m/h.</desc>
<speed>6.890000</speed>
</trkpt>
<trkpt lat="42.515873" lon="18.693226">
<ele>6.773258</ele>
<time>2012-05-02T10:57:35Z</time>
<desc>lat.=42.515873, lon.=18.693226, Alt.=6.773258m. Speed=22.572001m/h.</desc>
<speed>6.270000</speed>
</trkpt>
<trkpt lat="42.515625" lon="18.693487">
<ele>7.158390</ele>
<time>2012-05-02T10:57:40Z</time>
<desc>lat.=42.515625, lon.=18.693487, Alt.=7.158390m. Speed=24.299999m/h.</desc>
<speed>6.750000</speed>
</trkpt>
<trkpt lat="42.515373" lon="18.693722">
<ele>7.016178</ele>
<time>2012-05-02T10:57:45Z</time>
<desc>lat.=42.515373, lon.=18.693722, Alt.=7.016178m. Speed=24.336000m/h.</desc>
<speed>6.760000</speed>
</trkpt>
<trkpt lat="42.515121" lon="18.693916">
<ele>7.246891</ele>
<time>2012-05-02T10:57:50Z</time>
<desc>lat.=42.515121, lon.=18.693916, Alt.=7.246891m. Speed=25.955999m/h.</desc>
<speed>7.210000</speed>
</trkpt>
<trkpt lat="42.514847" lon="18.694141">
<ele>6.091740</ele>
<time>2012-05-02T10:57:55Z</time>
<desc>lat.=42.514847, lon.=18.694141, Alt.=6.091740m. Speed=27.252001m/h.</desc>
<speed>7.570000</speed>
</trkpt>
<trkpt lat="42.514565" lon="18.694361">
<ele>5.863590</ele>
<time>2012-05-02T10:58:00Z</time>
<desc>lat.=42.514565, lon.=18.694361, Alt.=5.863590m. Speed=25.308001m/h.</desc>
<speed>7.030000</speed>
</trkpt>
<trkpt lat="42.514294" lon="18.694544">
<ele>6.332829</ele>
<time>2012-05-02T10:58:05Z</time>
<desc>lat.=42.514294, lon.=18.694544, Alt.=6.332829m. Speed=22.572001m/h.</desc>
<speed>6.270000</speed>
</trkpt>
<trkpt lat="42.514050" lon="18.694695">
<ele>5.954044</ele>
<time>2012-05-02T10:58:10Z</time>
<desc>lat.=42.514050, lon.=18.694695, Alt.=5.954044m. Speed=19.403999m/h.</desc>
<speed>5.390000</speed>
</trkpt>
<trkpt lat="42.513908" lon="18.694767">
<ele>5.543888</ele>
<time>2012-05-02T10:58:15Z</time>
<desc>lat.=42.513908, lon.=18.694767, Alt.=5.543888m. Speed=4.248000m/h.</desc>
<speed>1.180000</speed>
</trkpt>
<trkpt lat="42.513882" lon="18.694809">
<ele>4.397038</ele>
<time>2012-05-02T10:58:20Z</time>
<desc>lat.=42.513882, lon.=18.694809, Alt.=4.397038m. Speed=0.468000m/h.</desc>
<speed>0.130000</speed>
</trkpt>
<trkpt lat="42.513878" lon="18.694799">
<ele>4.021061</ele>
<time>2012-05-02T10:58:25Z</time>
<desc>lat.=42.513878, lon.=18.694799, Alt.=4.021061m. Speed=0.036000m/h.</desc>
<speed>0.010000</speed>
</trkpt>
<trkpt lat="42.513878" lon="18.694799">
<ele>3.961397</ele>
<time>2012-05-02T10:58:30Z</time>
<desc>lat.=42.513878, lon.=18.694799, Alt.=3.961397m. Speed=0.036000m/h.</desc>
<speed>0.010000</speed>
</trkpt>
<trkpt lat="42.513882" lon="18.694799">
<ele>3.885042</ele>
<time>2012-05-02T10:58:35Z</time>
<desc>lat.=42.513882, lon.=18.694799, Alt.=3.885042m. Speed=0.000000m/h.</desc>
<speed>0.000000</speed>
</trkpt>
<trkpt lat="42.513882" lon="18.694799">
<ele>3.829744</ele>
<time>2012-05-02T10:58:40Z</time>
<desc>lat.=42.513882, lon.=18.694799, Alt.=3.829744m. Speed=0.000000m/h.</desc>
<speed>0.000000</speed>
</trkpt>
<trkpt lat="42.513878" lon="18.694818">
<ele>3.291964</ele>
<time>2012-05-02T10:58:45Z</time>
<desc>lat.=42.513878, lon.=18.694818, Alt.=3.291964m. Speed=4.032000m/h.</desc>
<speed>1.120000</speed>
</trkpt>
<trkpt lat="42.513916" lon="18.694874">
<ele>1.940080</ele>
<time>2012-05-02T10:58:50Z</time>
<desc>lat.=42.513916, lon.=18.694874, Alt.=1.940080m. Speed=7.632000m/h.</desc>
<speed>2.120000</speed>
</trkpt>
<trkpt lat="42.514023" lon="18.694818">
<ele>-1.191087</ele>
<time>2012-05-02T10:58:55Z</time>
<desc>lat.=42.514023, lon.=18.694818, Alt.=-1.191087m. Speed=10.980000m/h.</desc>
<speed>3.050000</speed>
</trkpt>
<trkpt lat="42.514141" lon="18.694771">
<ele>-2.034029</ele>
<time>2012-05-02T10:59:00Z</time>
<desc>lat.=42.514141, lon.=18.694771, Alt.=-2.034029m. Speed=11.844000m/h.</desc>
<speed>3.290000</speed>
</trkpt>
<trkpt lat="42.514259" lon="18.694725">
<ele>-2.052156</ele>
<time>2012-05-02T10:59:05Z</time>
<desc>lat.=42.514259, lon.=18.694725, Alt.=-2.052156m. Speed=9.072000m/h.</desc>
<speed>2.520000</speed>
</trkpt>
<trkpt lat="42.514339" lon="18.694767">
<ele>-2.372530</ele>
<time>2012-05-02T10:59:10Z</time>
<desc>lat.=42.514339, lon.=18.694767, Alt.=-2.372530m. Speed=6.084000m/h.</desc>
<speed>1.690000</speed>
</trkpt>
<trkpt lat="42.514416" lon="18.694862">
<ele>-2.327181</ele>
<time>2012-05-02T10:59:15Z</time>
<desc>lat.=42.514416, lon.=18.694862, Alt.=-2.327181m. Speed=11.088000m/h.</desc>
<speed>3.080000</speed>
</trkpt>
<trkpt lat="42.514431" lon="18.695000">
<ele>-1.521592</ele>
<time>2012-05-02T10:59:20Z</time>
<desc>lat.=42.514431, lon.=18.695000, Alt.=-1.521592m. Speed=8.964000m/h.</desc>
<speed>2.490000</speed>
</trkpt>
<trkpt lat="42.514431" lon="18.695158">
<ele>-0.336521</ele>
<time>2012-05-02T10:59:25Z</time>
<desc>lat.=42.514431, lon.=18.695158, Alt.=-0.336521m. Speed=7.020000m/h.</desc>
<speed>1.950000</speed>
</trkpt>
<trkpt lat="42.514439" lon="18.695257">
<ele>1.819047</ele>
<time>2012-05-02T10:59:30Z</time>
<desc>lat.=42.514439, lon.=18.695257, Alt.=1.819047m. Speed=2.412000m/h.</desc>
<speed>0.670000</speed>
</trkpt>
<trkpt lat="42.514435" lon="18.695282">
<ele>3.814547</ele>
<time>2012-05-02T10:59:35Z</time>
<desc>lat.=42.514435, lon.=18.695282, Alt.=3.814547m. Speed=2.772000m/h.</desc>
<speed>0.770000</speed>
</trkpt>
<trkpt lat="42.514462" lon="18.695311">
<ele>5.449039</ele>
<time>2012-05-02T10:59:40Z</time>
<desc>lat.=42.514462, lon.=18.695311, Alt.=5.449039m. Speed=2.916000m/h.</desc>
<speed>0.810000</speed>
</trkpt>
<trkpt lat="42.514488" lon="18.695339">
<ele>7.092960</ele>
<time>2012-05-02T10:59:45Z</time>
<desc>lat.=42.514488, lon.=18.695339, Alt.=7.092960m. Speed=2.880000m/h.</desc>
<speed>0.800000</speed>
</trkpt>
<trkpt lat="42.514511" lon="18.695381">
<ele>8.730598</ele>
<time>2012-05-02T10:59:50Z</time>
<desc>lat.=42.514511, lon.=18.695381, Alt.=8.730598m. Speed=3.708000m/h.</desc>
<speed>1.030000</speed>
</trkpt>
<trkpt lat="42.514549" lon="18.695488">
<ele>9.877327</ele>
<time>2012-05-02T10:59:55Z</time>
<desc>lat.=42.514549, lon.=18.695488, Alt.=9.877327m. Speed=4.860000m/h.</desc>
<speed>1.350000</speed>
</trkpt>
<trkpt lat="42.514565" lon="18.695583">
<ele>11.405891</ele>
<time>2012-05-02T11:00:00Z</time>
<desc>lat.=42.514565, lon.=18.695583, Alt.=11.405891m. Speed=4.824000m/h.</desc>
<speed>1.340000</speed>
</trkpt>
<trkpt lat="42.514595" lon="18.695667">
<ele>12.893440</ele>
<time>2012-05-02T11:00:05Z</time>
<desc>lat.=42.514595, lon.=18.695667, Alt.=12.893440m. Speed=4.536000m/h.</desc>
<speed>1.260000</speed>
</trkpt>
<trkpt lat="42.514606" lon="18.695784">
<ele>14.234016</ele>
<time>2012-05-02T11:00:10Z</time>
<desc>lat.=42.514606, lon.=18.695784, Alt.=14.234016m. Speed=5.436000m/h.</desc>
<speed>1.510000</speed>
</trkpt>
<trkpt lat="42.514633" lon="18.695879">
<ele>15.478401</ele>
<time>2012-05-02T11:00:15Z</time>
<desc>lat.=42.514633, lon.=18.695879, Alt.=15.478401m. Speed=5.040000m/h.</desc>
<speed>1.400000</speed>
</trkpt>
<trkpt lat="42.514652" lon="18.695942">
<ele>16.336197</ele>
<time>2012-05-02T11:00:20Z</time>
<desc>lat.=42.514652, lon.=18.695942, Alt.=16.336197m. Speed=3.924000m/h.</desc>
<speed>1.090000</speed>
</trkpt>
<trkpt lat="42.514656" lon="18.696049">
<ele>17.418716</ele>
<time>2012-05-02T11:00:25Z</time>
<desc>lat.=42.514656, lon.=18.696049, Alt.=17.418716m. Speed=3.816000m/h.</desc>
<speed>1.060000</speed>
</trkpt>
<trkpt lat="42.514671" lon="18.696138">
<ele>18.476822</ele>
<time>2012-05-02T11:00:30Z</time>
<desc>lat.=42.514671, lon.=18.696138, Alt.=18.476822m. Speed=2.196000m/h.</desc>
<speed>0.610000</speed>
</trkpt>
<trkpt lat="42.514698" lon="18.696186">
<ele>19.636490</ele>
<time>2012-05-02T11:00:35Z</time>
<desc>lat.=42.514698, lon.=18.696186, Alt.=19.636490m. Speed=1.764000m/h.</desc>
<speed>0.490000</speed>
</trkpt>
<trkpt lat="42.514687" lon="18.696182">
<ele>20.291275</ele>
<time>2012-05-02T11:00:40Z</time>
<desc>lat.=42.514687, lon.=18.696182, Alt.=20.291275m. Speed=1.152000m/h.</desc>
<speed>0.320000</speed>
</trkpt>
<trkpt lat="42.514698" lon="18.696192">
<ele>20.741470</ele>
<time>2012-05-02T11:00:45Z</time>
<desc>lat.=42.514698, lon.=18.696192, Alt.=20.741470m. Speed=0.792000m/h.</desc>
<speed>0.220000</speed>
</trkpt>
<trkpt lat="42.514702" lon="18.696203">
<ele>21.561295</ele>
<time>2012-05-02T11:00:50Z</time>
<desc>lat.=42.514702, lon.=18.696203, Alt.=21.561295m. Speed=0.792000m/h.</desc>
<speed>0.220000</speed>
</trkpt>
<trkpt lat="42.514709" lon="18.696215">
<ele>22.048111</ele>
<time>2012-05-02T11:00:55Z</time>
<desc>lat.=42.514709, lon.=18.696215, Alt.=22.048111m. Speed=1.116000m/h.</desc>
<speed>0.310000</speed>
</trkpt>
<trkpt lat="42.514713" lon="18.696228">
<ele>21.874771</ele>
<time>2012-05-02T11:01:00Z</time>
<desc>lat.=42.514713, lon.=18.696228, Alt.=21.874771m. Speed=0.720000m/h.</desc>
<speed>0.200000</speed>
</trkpt>
<trkpt lat="42.514732" lon="18.696253">
<ele>21.010025</ele>
<time>2012-05-02T11:01:05Z</time>
<desc>lat.=42.514732, lon.=18.696253, Alt.=21.010025m. Speed=0.180000m/h.</desc>
<speed>0.050000</speed>
</trkpt>
<trkpt lat="42.514740" lon="18.696264">
<ele>20.913834</ele>
<time>2012-05-02T11:01:10Z</time>
<desc>lat.=42.514740, lon.=18.696264, Alt.=20.913834m. Speed=0.396000m/h.</desc>
<speed>0.110000</speed>
</trkpt>
<trkpt lat="42.514748" lon="18.696270">
<ele>20.882095</ele>
<time>2012-05-02T11:01:15Z</time>
<desc>lat.=42.514748, lon.=18.696270, Alt.=20.882095m. Speed=0.432000m/h.</desc>
<speed>0.120000</speed>
</trkpt>
<trkpt lat="42.514755" lon="18.696276">
<ele>20.933365</ele>
<time>2012-05-02T11:01:20Z</time>
<desc>lat.=42.514755, lon.=18.696276, Alt.=20.933365m. Speed=0.324000m/h.</desc>
<speed>0.090000</speed>
</trkpt>
<trkpt lat="42.514759" lon="18.696280">
<ele>20.861588</ele>
<time>2012-05-02T11:01:25Z</time>
<desc>lat.=42.514759, lon.=18.696280, Alt.=20.861588m. Speed=0.576000m/h.</desc>
<speed>0.160000</speed>
</trkpt>
<trkpt lat="42.514767" lon="18.696285">
<ele>20.806900</ele>
<time>2012-05-02T11:01:30Z</time>
<desc>lat.=42.514767, lon.=18.696285, Alt.=20.806900m. Speed=0.972000m/h.</desc>
<speed>0.270000</speed>
</trkpt>
<trkpt lat="42.514801" lon="18.696310">
<ele>21.607681</ele>
<time>2012-05-02T11:01:35Z</time>
<desc>lat.=42.514801, lon.=18.696310, Alt.=21.607681m. Speed=1.692000m/h.</desc>
<speed>0.470000</speed>
</trkpt>
<trkpt lat="42.514816" lon="18.696331">
<ele>22.894791</ele>
<time>2012-05-02T11:01:40Z</time>
<desc>lat.=42.514816, lon.=18.696331, Alt.=22.894791m. Speed=1.404000m/h.</desc>
<speed>0.390000</speed>
</trkpt>
<trkpt lat="42.514851" lon="18.696350">
<ele>23.952408</ele>
<time>2012-05-02T11:01:45Z</time>
<desc>lat.=42.514851, lon.=18.696350, Alt.=23.952408m. Speed=1.728000m/h.</desc>
<speed>0.480000</speed>
</trkpt>
<trkpt lat="42.514904" lon="18.696386">
<ele>25.242935</ele>
<time>2012-05-02T11:01:50Z</time>
<desc>lat.=42.514904, lon.=18.696386, Alt.=25.242935m. Speed=2.232000m/h.</desc>
<speed>0.620000</speed>
</trkpt>
<trkpt lat="42.514973" lon="18.696424">
<ele>26.095963</ele>
<time>2012-05-02T11:01:55Z</time>
<desc>lat.=42.514973, lon.=18.696424, Alt.=26.095963m. Speed=2.700000m/h.</desc>
<speed>0.750000</speed>
</trkpt>
<trkpt lat="42.515007" lon="18.696445">
<ele>27.018814</ele>
<time>2012-05-02T11:02:00Z</time>
<desc>lat.=42.515007, lon.=18.696445, Alt.=27.018814m. Speed=1.692000m/h.</desc>
<speed>0.470000</speed>
</trkpt>
<trkpt lat="42.515057" lon="18.696472">
<ele>27.925552</ele>
<time>2012-05-02T11:02:05Z</time>
<desc>lat.=42.515057, lon.=18.696472, Alt.=27.925552m. Speed=1.908000m/h.</desc>
<speed>0.530000</speed>
</trkpt>
<trkpt lat="42.515045" lon="18.696447">
<ele>28.996841</ele>
<time>2012-05-02T11:02:10Z</time>
<desc>lat.=42.515045, lon.=18.696447, Alt.=28.996841m. Speed=1.116000m/h.</desc>
<speed>0.310000</speed>
</trkpt>
<trkpt lat="42.514988" lon="18.696375">
<ele>28.924088</ele>
<time>2012-05-02T11:02:15Z</time>
<desc>lat.=42.514988, lon.=18.696375, Alt.=28.924088m. Speed=0.216000m/h.</desc>
<speed>0.060000</speed>
</trkpt>
<trkpt lat="42.514988" lon="18.696371">
<ele>28.969986</ele>
<time>2012-05-02T11:02:20Z</time>
<desc>lat.=42.514988, lon.=18.696371, Alt.=28.969986m. Speed=0.756000m/h.</desc>
<speed>0.210000</speed>
</trkpt>
<trkpt lat="42.514950" lon="18.696302">
<ele>28.008072</ele>
<time>2012-05-02T11:02:25Z</time>
<desc>lat.=42.514950, lon.=18.696302, Alt.=28.008072m. Speed=1.764000m/h.</desc>
<speed>0.490000</speed>
</trkpt>
<trkpt lat="42.514904" lon="18.696241">
<ele>27.083267</ele>
<time>2012-05-02T11:02:30Z</time>
<desc>lat.=42.514904, lon.=18.696241, Alt.=27.083267m. Speed=2.016000m/h.</desc>
<speed>0.560000</speed>
</trkpt>
<trkpt lat="42.514866" lon="18.696196">
<ele>25.768326</ele>
<time>2012-05-02T11:02:35Z</time>
<desc>lat.=42.514866, lon.=18.696196, Alt.=25.768326m. Speed=1.476000m/h.</desc>
<speed>0.410000</speed>
</trkpt>
<trkpt lat="42.514847" lon="18.696184">
<ele>24.248795</ele>
<time>2012-05-02T11:02:40Z</time>
<desc>lat.=42.514847, lon.=18.696184, Alt.=24.248795m. Speed=1.332000m/h.</desc>
<speed>0.370000</speed>
</trkpt>
<trkpt lat="42.514843" lon="18.696199">
<ele>22.539322</ele>
<time>2012-05-02T11:02:45Z</time>
<desc>lat.=42.514843, lon.=18.696199, Alt.=22.539322m. Speed=1.332000m/h.</desc>
<speed>0.370000</speed>
</trkpt>
<trkpt lat="42.514881" lon="18.696270">
<ele>20.589127</ele>
<time>2012-05-02T11:02:50Z</time>
<desc>lat.=42.514881, lon.=18.696270, Alt.=20.589127m. Speed=0.900000m/h.</desc>
<speed>0.250000</speed>
</trkpt>
<trkpt lat="42.514870" lon="18.696276">
<ele>20.385025</ele>
<time>2012-05-02T11:02:55Z</time>
<desc>lat.=42.514870, lon.=18.696276, Alt.=20.385025m. Speed=0.900000m/h.</desc>
<speed>0.250000</speed>
</trkpt>
<trkpt lat="42.514862" lon="18.696285">
<ele>20.178970</ele>
<time>2012-05-02T11:03:00Z</time>
<desc>lat.=42.514862, lon.=18.696285, Alt.=20.178970m. Speed=0.972000m/h.</desc>
<speed>0.270000</speed>
</trkpt>
<trkpt lat="42.514851" lon="18.696295">
<ele>19.972916</ele>
<time>2012-05-02T11:03:05Z</time>
<desc>lat.=42.514851, lon.=18.696295, Alt.=19.972916m. Speed=0.864000m/h.</desc>
<speed>0.240000</speed>
</trkpt>
<trkpt lat="42.514843" lon="18.696306">
<ele>19.766861</ele>
<time>2012-05-02T11:03:10Z</time>
<desc>lat.=42.514843, lon.=18.696306, Alt.=19.766861m. Speed=1.008000m/h.</desc>
<speed>0.280000</speed>
</trkpt>
<trkpt lat="42.514835" lon="18.696318">
<ele>19.559830</ele>
<time>2012-05-02T11:03:15Z</time>
<desc>lat.=42.514835, lon.=18.696318, Alt.=19.559830m. Speed=1.080000m/h.</desc>
<speed>0.300000</speed>
</trkpt>
<trkpt lat="42.514824" lon="18.696337">
<ele>19.378189</ele>
<time>2012-05-02T11:03:20Z</time>
<desc>lat.=42.514824, lon.=18.696337, Alt.=19.378189m. Speed=1.044000m/h.</desc>
<speed>0.290000</speed>
</trkpt>
<trkpt lat="42.514786" lon="18.696360">
<ele>19.175064</ele>
<time>2012-05-02T11:03:25Z</time>
<desc>lat.=42.514786, lon.=18.696360, Alt.=19.175064m. Speed=1.476000m/h.</desc>
<speed>0.410000</speed>
</trkpt>
<trkpt lat="42.514771" lon="18.696375">
<ele>18.974380</ele>
<time>2012-05-02T11:03:30Z</time>
<desc>lat.=42.514771, lon.=18.696375, Alt.=18.974380m. Speed=1.440000m/h.</desc>
<speed>0.400000</speed>
</trkpt>
<trkpt lat="42.514748" lon="18.696386">
<ele>18.764420</ele>
<time>2012-05-02T11:03:35Z</time>
<desc>lat.=42.514748, lon.=18.696386, Alt.=18.764420m. Speed=1.512000m/h.</desc>
<speed>0.420000</speed>
</trkpt>
<trkpt lat="42.514713" lon="18.696388">
<ele>18.556900</ele>
<time>2012-05-02T11:03:40Z</time>
<desc>lat.=42.514713, lon.=18.696388, Alt.=18.556900m. Speed=1.656000m/h.</desc>
<speed>0.460000</speed>
</trkpt>
<trkpt lat="42.514717" lon="18.696398">
<ele>18.347916</ele>
<time>2012-05-02T11:03:45Z</time>
<desc>lat.=42.514717, lon.=18.696398, Alt.=18.347916m. Speed=1.404000m/h.</desc>
<speed>0.390000</speed>
</trkpt>
<trkpt lat="42.514713" lon="18.696398">
<ele>18.135513</ele>
<time>2012-05-02T11:03:50Z</time>
<desc>lat.=42.514713, lon.=18.696398, Alt.=18.135513m. Speed=1.296000m/h.</desc>
<speed>0.360000</speed>
</trkpt>
<trkpt lat="42.514690" lon="18.696409">
<ele>17.925552</ele>
<time>2012-05-02T11:03:55Z</time>
<desc>lat.=42.514690, lon.=18.696409, Alt.=17.925552m. Speed=1.332000m/h.</desc>
<speed>0.370000</speed>
</trkpt>
<trkpt lat="42.514713" lon="18.696394">
<ele>17.727310</ele>
<time>2012-05-02T11:04:00Z</time>
<desc>lat.=42.514713, lon.=18.696394, Alt.=17.727310m. Speed=0.864000m/h.</desc>
<speed>0.240000</speed>
</trkpt>
<trkpt lat="42.514736" lon="18.696398">
<ele>17.520767</ele>
<time>2012-05-02T11:04:05Z</time>
<desc>lat.=42.514736, lon.=18.696398, Alt.=17.520767m. Speed=0.108000m/h.</desc>
<speed>0.030000</speed>
</trkpt>
<trkpt lat="42.514736" lon="18.696400">
<ele>17.306412</ele>
<time>2012-05-02T11:04:10Z</time>
<desc>lat.=42.514736, lon.=18.696400, Alt.=17.306412m. Speed=0.180000m/h.</desc>
<speed>0.050000</speed>
</trkpt>
<trkpt lat="42.514740" lon="18.696404">
<ele>17.093521</ele>
<time>2012-05-02T11:04:15Z</time>
<desc>lat.=42.514740, lon.=18.696404, Alt.=17.093521m. Speed=0.468000m/h.</desc>
<speed>0.130000</speed>
</trkpt>
<trkpt lat="42.514748" lon="18.696404">
<ele>16.886978</ele>
<time>2012-05-02T11:04:20Z</time>
<desc>lat.=42.514748, lon.=18.696404, Alt.=16.886978m. Speed=1.080000m/h.</desc>
<speed>0.300000</speed>
</trkpt>
<trkpt lat="42.514782" lon="18.696394">
<ele>16.749283</ele>
<time>2012-05-02T11:04:25Z</time>
<desc>lat.=42.514782, lon.=18.696394, Alt.=16.749283m. Speed=1.440000m/h.</desc>
<speed>0.400000</speed>
</trkpt>
<trkpt lat="42.514812" lon="18.696386">
<ele>16.600845</ele>
<time>2012-05-02T11:04:30Z</time>
<desc>lat.=42.514812, lon.=18.696386, Alt.=16.600845m. Speed=1.440000m/h.</desc>
<speed>0.400000</speed>
</trkpt>
<trkpt lat="42.514835" lon="18.696377">
<ele>16.477798</ele>
<time>2012-05-02T11:04:35Z</time>
<desc>lat.=42.514835, lon.=18.696377, Alt.=16.477798m. Speed=1.440000m/h.</desc>
<speed>0.400000</speed>
</trkpt>
<trkpt lat="42.514854" lon="18.696352">
<ele>16.435806</ele>
<time>2012-05-02T11:04:40Z</time>
<desc>lat.=42.514854, lon.=18.696352, Alt.=16.435806m. Speed=1.620000m/h.</desc>
<speed>0.450000</speed>
</trkpt>
<trkpt lat="42.514889" lon="18.696341">
<ele>16.370377</ele>
<time>2012-05-02T11:04:45Z</time>
<desc>lat.=42.514889, lon.=18.696341, Alt.=16.370377m. Speed=1.620000m/h.</desc>
<speed>0.450000</speed>
</trkpt>
<trkpt lat="42.514885" lon="18.696337">
<ele>16.338638</ele>
<time>2012-05-02T11:04:50Z</time>
<desc>lat.=42.514885, lon.=18.696337, Alt.=16.338638m. Speed=1.368000m/h.</desc>
<speed>0.380000</speed>
</trkpt>
<trkpt lat="42.514870" lon="18.696363">
<ele>16.322525</ele>
<time>2012-05-02T11:04:55Z</time>
<desc>lat.=42.514870, lon.=18.696363, Alt.=16.322525m. Speed=1.080000m/h.</desc>
<speed>0.300000</speed>
</trkpt>
<trkpt lat="42.514870" lon="18.696362">
<ele>16.219498</ele>
<time>2012-05-02T11:05:00Z</time>
<desc>lat.=42.514870, lon.=18.696362, Alt.=16.219498m. Speed=0.864000m/h.</desc>
<speed>0.240000</speed>
</trkpt>
<trkpt lat="42.514881" lon="18.696362">
<ele>16.106705</ele>
<time>2012-05-02T11:05:05Z</time>
<desc>lat.=42.514881, lon.=18.696362, Alt.=16.106705m. Speed=0.828000m/h.</desc>
<speed>0.230000</speed>
</trkpt>
<trkpt lat="42.514889" lon="18.696363">
<ele>15.995491</ele>
<time>2012-05-02T11:05:10Z</time>
<desc>lat.=42.514889, lon.=18.696363, Alt.=15.995491m. Speed=0.828000m/h.</desc>
<speed>0.230000</speed>
</trkpt>
<trkpt lat="42.514900" lon="18.696367">
<ele>15.885384</ele>
<time>2012-05-02T11:05:15Z</time>
<desc>lat.=42.514900, lon.=18.696367, Alt.=15.885384m. Speed=0.756000m/h.</desc>
<speed>0.210000</speed>
</trkpt>
<trkpt lat="42.514908" lon="18.696371">
<ele>15.778938</ele>
<time>2012-05-02T11:05:20Z</time>
<desc>lat.=42.514908, lon.=18.696371, Alt.=15.778938m. Speed=0.684000m/h.</desc>
<speed>0.190000</speed>
</trkpt>
<trkpt lat="42.514915" lon="18.696381">
<ele>15.674690</ele>
<time>2012-05-02T11:05:25Z</time>
<desc>lat.=42.514915, lon.=18.696381, Alt.=15.674690m. Speed=0.756000m/h.</desc>
<speed>0.210000</speed>
</trkpt>
<trkpt lat="42.514915" lon="18.696390">
<ele>15.572151</ele>
<time>2012-05-02T11:05:30Z</time>
<desc>lat.=42.514915, lon.=18.696390, Alt.=15.572151m. Speed=0.504000m/h.</desc>
<speed>0.140000</speed>
</trkpt>
<trkpt lat="42.514912" lon="18.696396">
<ele>15.471565</ele>
<time>2012-05-02T11:05:35Z</time>
<desc>lat.=42.514912, lon.=18.696396, Alt.=15.471565m. Speed=0.432000m/h.</desc>
<speed>0.120000</speed>
</trkpt>
<trkpt lat="42.514904" lon="18.696394">
<ele>15.371956</ele>
<time>2012-05-02T11:05:40Z</time>
<desc>lat.=42.514904, lon.=18.696394, Alt.=15.371956m. Speed=0.648000m/h.</desc>
<speed>0.180000</speed>
</trkpt>
<trkpt lat="42.514896" lon="18.696390">
<ele>15.273567</ele>
<time>2012-05-02T11:05:45Z</time>
<desc>lat.=42.514896, lon.=18.696390, Alt.=15.273567m. Speed=0.612000m/h.</desc>
<speed>0.170000</speed>
</trkpt>
<trkpt lat="42.514889" lon="18.696383">
<ele>15.180550</ele>
<time>2012-05-02T11:05:50Z</time>
<desc>lat.=42.514889, lon.=18.696383, Alt.=15.180550m. Speed=0.648000m/h.</desc>
<speed>0.180000</speed>
</trkpt>
<trkpt lat="42.514885" lon="18.696379">
<ele>15.093391</ele>
<time>2012-05-02T11:05:55Z</time>
<desc>lat.=42.514885, lon.=18.696379, Alt.=15.093391m. Speed=0.684000m/h.</desc>
<speed>0.190000</speed>
</trkpt>
<trkpt lat="42.514874" lon="18.696375">
<ele>15.004768</ele>
<time>2012-05-02T11:06:00Z</time>
<desc>lat.=42.514874, lon.=18.696375, Alt.=15.004768m. Speed=0.972000m/h.</desc>
<speed>0.270000</speed>
</trkpt>
<trkpt lat="42.514812" lon="18.696379">
<ele>14.984993</ele>
<time>2012-05-02T11:06:05Z</time>
<desc>lat.=42.514812, lon.=18.696379, Alt.=14.984993m. Speed=1.224000m/h.</desc>
<speed>0.340000</speed>
</trkpt>
<trkpt lat="42.514782" lon="18.696388">
<ele>14.990608</ele>
<time>2012-05-02T11:06:10Z</time>
<desc>lat.=42.514782, lon.=18.696388, Alt.=14.990608m. Speed=1.044000m/h.</desc>
<speed>0.290000</speed>
</trkpt>
<trkpt lat="42.514763" lon="18.696392">
<ele>15.029427</ele>
<time>2012-05-02T11:06:15Z</time>
<desc>lat.=42.514763, lon.=18.696392, Alt.=15.029427m. Speed=1.044000m/h.</desc>
<speed>0.290000</speed>
</trkpt>
<trkpt lat="42.514748" lon="18.696386">
<ele>15.013313</ele>
<time>2012-05-02T11:06:20Z</time>
<desc>lat.=42.514748, lon.=18.696386, Alt.=15.013313m. Speed=1.080000m/h.</desc>
<speed>0.300000</speed>
</trkpt>
<trkpt lat="42.514748" lon="18.696383">
<ele>14.990364</ele>
<time>2012-05-02T11:06:25Z</time>
<desc>lat.=42.514748, lon.=18.696383, Alt.=14.990364m. Speed=0.972000m/h.</desc>
<speed>0.270000</speed>
</trkpt>
<trkpt lat="42.514744" lon="18.696377">
<ele>14.996956</ele>
<time>2012-05-02T11:06:30Z</time>
<desc>lat.=42.514744, lon.=18.696377, Alt.=14.996956m. Speed=0.684000m/h.</desc>
<speed>0.190000</speed>
</trkpt>
<trkpt lat="42.514740" lon="18.696373">
<ele>14.987923</ele>
<time>2012-05-02T11:06:35Z</time>
<desc>lat.=42.514740, lon.=18.696373, Alt.=14.987923m. Speed=0.252000m/h.</desc>
<speed>0.070000</speed>
</trkpt>
<trkpt lat="42.514736" lon="18.696373">
<ele>14.969368</ele>
<time>2012-05-02T11:06:40Z</time>
<desc>lat.=42.514736, lon.=18.696373, Alt.=14.969368m. Speed=0.252000m/h.</desc>
<speed>0.070000</speed>
</trkpt>
<trkpt lat="42.514748" lon="18.696373">
<ele>14.942268</ele>
<time>2012-05-02T11:06:45Z</time>
<desc>lat.=42.514748, lon.=18.696373, Alt.=14.942268m. Speed=0.864000m/h.</desc>
<speed>0.240000</speed>
</trkpt>
<trkpt lat="42.514759" lon="18.696371">
<ele>14.929329</ele>
<time>2012-05-02T11:06:50Z</time>
<desc>lat.=42.514759, lon.=18.696371, Alt.=14.929329m. Speed=0.792000m/h.</desc>
<speed>0.220000</speed>
</trkpt>
<trkpt lat="42.514801" lon="18.696383">
<ele>14.947884</ele>
<time>2012-05-02T11:06:55Z</time>
<desc>lat.=42.514801, lon.=18.696383, Alt.=14.947884m. Speed=1.476000m/h.</desc>
<speed>0.410000</speed>
</trkpt>
<trkpt lat="42.514843" lon="18.696398">
<ele>15.035774</ele>
<time>2012-05-02T11:07:00Z</time>
<desc>lat.=42.514843, lon.=18.696398, Alt.=15.035774m. Speed=1.764000m/h.</desc>
<speed>0.490000</speed>
</trkpt>
<trkpt lat="42.514828" lon="18.696373">
<ele>15.230110</ele>
<time>2012-05-02T11:07:05Z</time>
<desc>lat.=42.514828, lon.=18.696373, Alt.=15.230110m. Speed=0.828000m/h.</desc>
<speed>0.230000</speed>
</trkpt>
<trkpt lat="42.514820" lon="18.696388">
<ele>15.419319</ele>
<time>2012-05-02T11:07:10Z</time>
<desc>lat.=42.514820, lon.=18.696388, Alt.=15.419319m. Speed=1.224000m/h.</desc>
<speed>0.340000</speed>
</trkpt>
<trkpt lat="42.514774" lon="18.696404">
<ele>15.325325</ele>
<time>2012-05-02T11:07:15Z</time>
<desc>lat.=42.514774, lon.=18.696404, Alt.=15.325325m. Speed=1.728000m/h.</desc>
<speed>0.480000</speed>
</trkpt>
<trkpt lat="42.514751" lon="18.696428">
<ele>15.270149</ele>
<time>2012-05-02T11:07:20Z</time>
<desc>lat.=42.514751, lon.=18.696428, Alt.=15.270149m. Speed=1.800000m/h.</desc>
<speed>0.500000</speed>
</trkpt>
<trkpt lat="42.514755" lon="18.696503">
<ele>15.181038</ele>
<time>2012-05-02T11:07:25Z</time>
<desc>lat.=42.514755, lon.=18.696503, Alt.=15.181038m. Speed=1.980000m/h.</desc>
<speed>0.550000</speed>
</trkpt>
<trkpt lat="42.514740" lon="18.696566">
<ele>15.265755</ele>
<time>2012-05-02T11:07:30Z</time>
<desc>lat.=42.514740, lon.=18.696566, Alt.=15.265755m. Speed=2.268000m/h.</desc>
<speed>0.630000</speed>
</trkpt>
<trkpt lat="42.514763" lon="18.696627">
<ele>15.342415</ele>
<time>2012-05-02T11:07:35Z</time>
<desc>lat.=42.514763, lon.=18.696627, Alt.=15.342415m. Speed=3.816000m/h.</desc>
<speed>1.060000</speed>
</trkpt>
<trkpt lat="42.514648" lon="18.696705">
<ele>15.591682</ele>
<time>2012-05-02T11:07:40Z</time>
<desc>lat.=42.514648, lon.=18.696705, Alt.=15.591682m. Speed=11.988000m/h.</desc>
<speed>3.330000</speed>
</trkpt>
<trkpt lat="42.514503" lon="18.696815">
<ele>16.875259</ele>
<time>2012-05-02T11:07:45Z</time>
<desc>lat.=42.514503, lon.=18.696815, Alt.=16.875259m. Speed=9.612000m/h.</desc>
<speed>2.670000</speed>
</trkpt>
<trkpt lat="42.514393" lon="18.696907">
<ele>19.154068</ele>
<time>2012-05-02T11:07:50Z</time>
<desc>lat.=42.514393, lon.=18.696907, Alt.=19.154068m. Speed=9.540000m/h.</desc>
<speed>2.650000</speed>
</trkpt>
<trkpt lat="42.514317" lon="18.696955">
<ele>21.439713</ele>
<time>2012-05-02T11:07:55Z</time>
<desc>lat.=42.514317, lon.=18.696955, Alt.=21.439713m. Speed=4.608000m/h.</desc>
<speed>1.280000</speed>
</trkpt>
<trkpt lat="42.514210" lon="18.696970">
<ele>22.557388</ele>
<time>2012-05-02T11:08:00Z</time>
<desc>lat.=42.514210, lon.=18.696970, Alt.=22.557388m. Speed=7.560000m/h.</desc>
<speed>2.100000</speed>
</trkpt>
<trkpt lat="42.514103" lon="18.696947">
<ele>20.766861</ele>
<time>2012-05-02T11:08:05Z</time>
<desc>lat.=42.514103, lon.=18.696947, Alt.=20.766861m. Speed=8.172000m/h.</desc>
<speed>2.270000</speed>
</trkpt>
<trkpt lat="42.514107" lon="18.696875">
<ele>19.660416</ele>
<time>2012-05-02T11:08:10Z</time>
<desc>lat.=42.514107, lon.=18.696875, Alt.=19.660416m. Speed=7.488000m/h.</desc>
<speed>2.080000</speed>
</trkpt>
<trkpt lat="42.514061" lon="18.696920">
<ele>21.406998</ele>
<time>2012-05-02T11:08:15Z</time>
<desc>lat.=42.514061, lon.=18.696920, Alt.=21.406998m. Speed=6.840000m/h.</desc>
<speed>1.900000</speed>
</trkpt>
<trkpt lat="42.514103" lon="18.697035">
<ele>21.038834</ele>
<time>2012-05-02T11:08:20Z</time>
<desc>lat.=42.514103, lon.=18.697035, Alt.=21.038834m. Speed=3.996000m/h.</desc>
<speed>1.110000</speed>
</trkpt>
<trkpt lat="42.514137" lon="18.697046">
<ele>20.777603</ele>
<time>2012-05-02T11:08:25Z</time>
<desc>lat.=42.514137, lon.=18.697046, Alt.=20.777603m. Speed=3.204000m/h.</desc>
<speed>0.890000</speed>
</trkpt>
<trkpt lat="42.514191" lon="18.696978">
<ele>19.690689</ele>
<time>2012-05-02T11:08:30Z</time>
<desc>lat.=42.514191, lon.=18.696978, Alt.=19.690689m. Speed=5.940000m/h.</desc>
<speed>1.650000</speed>
</trkpt>
<trkpt lat="42.514286" lon="18.696997">
<ele>18.829849</ele>
<time>2012-05-02T11:08:35Z</time>
<desc>lat.=42.514286, lon.=18.696997, Alt.=18.829849m. Speed=5.472000m/h.</desc>
<speed>1.520000</speed>
</trkpt>
<trkpt lat="42.514343" lon="18.697016">
<ele>17.783951</ele>
<time>2012-05-02T11:08:40Z</time>
<desc>lat.=42.514343, lon.=18.697016, Alt.=17.783951m. Speed=3.024000m/h.</desc>
<speed>0.840000</speed>
</trkpt>
<trkpt lat="42.514328" lon="18.697060">
<ele>19.506119</ele>
<time>2012-05-02T11:08:45Z</time>
<desc>lat.=42.514328, lon.=18.697060, Alt.=19.506119m. Speed=0.684000m/h.</desc>
<speed>0.190000</speed>
</trkpt>
<trkpt lat="42.514328" lon="18.697069">
<ele>19.502213</ele>
<time>2012-05-02T11:08:50Z</time>
<desc>lat.=42.514328, lon.=18.697069, Alt.=19.502213m. Speed=0.540000m/h.</desc>
<speed>0.150000</speed>
</trkpt>
<trkpt lat="42.514328" lon="18.697073">
<ele>19.490494</ele>
<time>2012-05-02T11:08:55Z</time>
<desc>lat.=42.514328, lon.=18.697073, Alt.=19.490494m. Speed=4.104000m/h.</desc>
<speed>1.140000</speed>
</trkpt>
<trkpt lat="42.514500" lon="18.696947">
<ele>17.425064</ele>
<time>2012-05-02T11:09:00Z</time>
<desc>lat.=42.514500, lon.=18.696947, Alt.=17.425064m. Speed=17.351999m/h.</desc>
<speed>4.820000</speed>
</trkpt>
<trkpt lat="42.514687" lon="18.696842">
<ele>16.803482</ele>
<time>2012-05-02T11:09:05Z</time>
<desc>lat.=42.514687, lon.=18.696842, Alt.=16.803482m. Speed=10.332000m/h.</desc>
<speed>2.870000</speed>
</trkpt>
<trkpt lat="42.514774" lon="18.696768">
<ele>16.714127</ele>
<time>2012-05-02T11:09:10Z</time>
<desc>lat.=42.514774, lon.=18.696768, Alt.=16.714127m. Speed=2.412000m/h.</desc>
<speed>0.670000</speed>
</trkpt>
<trkpt lat="42.514790" lon="18.696741">
<ele>16.445572</ele>
<time>2012-05-02T11:09:15Z</time>
<desc>lat.=42.514790, lon.=18.696741, Alt.=16.445572m. Speed=1.908000m/h.</desc>
<speed>0.530000</speed>
</trkpt>
<trkpt lat="42.514809" lon="18.696735">
<ele>16.277115</ele>
<time>2012-05-02T11:09:20Z</time>
<desc>lat.=42.514809, lon.=18.696735, Alt.=16.277115m. Speed=1.296000m/h.</desc>
<speed>0.360000</speed>
</trkpt>
<trkpt lat="42.514816" lon="18.696726">
<ele>16.113052</ele>
<time>2012-05-02T11:09:25Z</time>
<desc>lat.=42.514816, lon.=18.696726, Alt.=16.113052m. Speed=0.396000m/h.</desc>
<speed>0.110000</speed>
</trkpt>
<trkpt lat="42.514816" lon="18.696718">
<ele>16.061295</ele>
<time>2012-05-02T11:09:30Z</time>
<desc>lat.=42.514816, lon.=18.696718, Alt.=16.061295m. Speed=0.540000m/h.</desc>
<speed>0.150000</speed>
</trkpt>
<trkpt lat="42.514820" lon="18.696701">
<ele>16.080338</ele>
<time>2012-05-02T11:09:35Z</time>
<desc>lat.=42.514820, lon.=18.696701, Alt.=16.080338m. Speed=1.332000m/h.</desc>
<speed>0.370000</speed>
</trkpt>
<trkpt lat="42.514812" lon="18.696640">
<ele>17.342056</ele>
<time>2012-05-02T11:09:40Z</time>
<desc>lat.=42.514812, lon.=18.696640, Alt.=17.342056m. Speed=4.752000m/h.</desc>
<speed>1.320000</speed>
</trkpt>
<trkpt lat="42.514847" lon="18.696503">
<ele>17.806412</ele>
<time>2012-05-02T11:09:45Z</time>
<desc>lat.=42.514847, lon.=18.696503, Alt.=17.806412m. Speed=9.468000m/h.</desc>
<speed>2.630000</speed>
</trkpt>
<trkpt lat="42.514893" lon="18.696383">
<ele>19.071548</ele>
<time>2012-05-02T11:09:50Z</time>
<desc>lat.=42.514893, lon.=18.696383, Alt.=19.071548m. Speed=4.680000m/h.</desc>
<speed>1.300000</speed>
</trkpt>
<trkpt lat="42.514847" lon="18.696333">
<ele>19.865494</ele>
<time>2012-05-02T11:09:55Z</time>
<desc>lat.=42.514847, lon.=18.696333, Alt.=19.865494m. Speed=4.500000m/h.</desc>
<speed>1.250000</speed>
</trkpt>
<trkpt lat="42.514820" lon="18.696228">
<ele>20.835220</ele>
<time>2012-05-02T11:10:00Z</time>
<desc>lat.=42.514820, lon.=18.696228, Alt.=20.835220m. Speed=3.816000m/h.</desc>
<speed>1.060000</speed>
</trkpt>
<trkpt lat="42.514893" lon="18.696024">
<ele>22.892349</ele>
<time>2012-05-02T11:10:05Z</time>
<desc>lat.=42.514893, lon.=18.696024, Alt.=22.892349m. Speed=9.072000m/h.</desc>
<speed>2.520000</speed>
</trkpt>
<trkpt lat="42.514870" lon="18.695921">
<ele>25.690201</ele>
<time>2012-05-02T11:10:10Z</time>
<desc>lat.=42.514870, lon.=18.695921, Alt.=25.690201m. Speed=4.248000m/h.</desc>
<speed>1.180000</speed>
</trkpt>
<trkpt lat="42.514816" lon="18.695873">
<ele>29.056412</ele>
<time>2012-05-02T11:10:15Z</time>
<desc>lat.=42.514816, lon.=18.695873, Alt.=29.056412m. Speed=5.220000m/h.</desc>
<speed>1.450000</speed>
</trkpt>
<trkpt lat="42.514797" lon="18.695847">
<ele>31.936783</ele>
<time>2012-05-02T11:10:20Z</time>
<desc>lat.=42.514797, lon.=18.695847, Alt.=31.936783m. Speed=1.224000m/h.</desc>
<speed>0.340000</speed>
</trkpt>
<trkpt lat="42.514797" lon="18.695852">
<ele>34.385284</ele>
<time>2012-05-02T11:10:25Z</time>
<desc>lat.=42.514797, lon.=18.695852, Alt.=34.385284m. Speed=1.836000m/h.</desc>
<speed>0.510000</speed>
</trkpt>
<trkpt lat="42.514736" lon="18.695717">
<ele>35.939972</ele>
<time>2012-05-02T11:10:30Z</time>
<desc>lat.=42.514736, lon.=18.695717, Alt.=35.939972m. Speed=2.088000m/h.</desc>
<speed>0.580000</speed>
</trkpt>
<trkpt lat="42.514622" lon="18.695728">
<ele>38.297394</ele>
<time>2012-05-02T11:10:35Z</time>
<desc>lat.=42.514622, lon.=18.695728, Alt.=38.297394m. Speed=4.140000m/h.</desc>
<speed>1.150000</speed>
</trkpt>
<trkpt lat="42.514568" lon="18.695738">
<ele>40.398956</ele>
<time>2012-05-02T11:10:40Z</time>
<desc>lat.=42.514568, lon.=18.695738, Alt.=40.398956m. Speed=2.448000m/h.</desc>
<speed>0.680000</speed>
</trkpt>
<trkpt lat="42.514557" lon="18.695723">
<ele>41.752472</ele>
<time>2012-05-02T11:10:45Z</time>
<desc>lat.=42.514557, lon.=18.695723, Alt.=41.752472m. Speed=0.252000m/h.</desc>
<speed>0.070000</speed>
</trkpt>
<trkpt lat="42.514420" lon="18.695723">
<ele>42.442902</ele>
<time>2012-05-02T11:10:50Z</time>
<desc>lat.=42.514420, lon.=18.695723, Alt.=42.442902m. Speed=1.404000m/h.</desc>
<speed>0.390000</speed>
</trkpt>
<trkpt lat="42.514378" lon="18.695677">
<ele>42.513214</ele>
<time>2012-05-02T11:10:55Z</time>
<desc>lat.=42.514378, lon.=18.695677, Alt.=42.513214m. Speed=1.008000m/h.</desc>
<speed>0.280000</speed>
</trkpt>
<trkpt lat="42.514359" lon="18.695639">
<ele>42.253448</ele>
<time>2012-05-02T11:11:00Z</time>
<desc>lat.=42.514359, lon.=18.695639, Alt.=42.253448m. Speed=1.008000m/h.</desc>
<speed>0.280000</speed>
</trkpt>
<trkpt lat="42.514252" lon="18.695610">
<ele>40.976105</ele>
<time>2012-05-02T11:11:05Z</time>
<desc>lat.=42.514252, lon.=18.695610, Alt.=40.976105m. Speed=3.600000m/h.</desc>
<speed>1.000000</speed>
</trkpt>
<trkpt lat="42.514324" lon="18.695629">
<ele>39.769073</ele>
<time>2012-05-02T11:11:10Z</time>
<desc>lat.=42.514324, lon.=18.695629, Alt.=39.769073m. Speed=2.124000m/h.</desc>
<speed>0.590000</speed>
</trkpt>
<trkpt lat="42.514156" lon="18.695709">
<ele>41.824738</ele>
<time>2012-05-02T11:11:15Z</time>
<desc>lat.=42.514156, lon.=18.695709, Alt.=41.824738m. Speed=4.896000m/h.</desc>
<speed>1.360000</speed>
</trkpt>
<trkpt lat="42.514099" lon="18.695677">
<ele>42.523956</ele>
<time>2012-05-02T11:11:20Z</time>
<desc>lat.=42.514099, lon.=18.695677, Alt.=42.523956m. Speed=0.324000m/h.</desc>
<speed>0.090000</speed>
</trkpt>
<trkpt lat="42.514084" lon="18.695675">
<ele>40.683136</ele>
<time>2012-05-02T11:11:25Z</time>
<desc>lat.=42.514084, lon.=18.695675, Alt.=40.683136m. Speed=8.820000m/h.</desc>
<speed>2.450000</speed>
</trkpt>
<trkpt lat="42.514000" lon="18.695763">
<ele>37.091339</ele>
<time>2012-05-02T11:11:30Z</time>
<desc>lat.=42.514000, lon.=18.695763, Alt.=37.091339m. Speed=10.836000m/h.</desc>
<speed>3.010000</speed>
</trkpt>
<trkpt lat="42.513912" lon="18.695868">
<ele>36.148956</ele>
<time>2012-05-02T11:11:35Z</time>
<desc>lat.=42.513912, lon.=18.695868, Alt.=36.148956m. Speed=8.424000m/h.</desc>
<speed>2.340000</speed>
</trkpt>
<trkpt lat="42.513817" lon="18.695930">
<ele>33.736847</ele>
<time>2012-05-02T11:11:40Z</time>
<desc>lat.=42.513817, lon.=18.695930, Alt.=33.736847m. Speed=7.704000m/h.</desc>
<speed>2.140000</speed>
</trkpt>
<trkpt lat="42.513760" lon="18.695992">
<ele>32.610870</ele>
<time>2012-05-02T11:11:45Z</time>
<desc>lat.=42.513760, lon.=18.695992, Alt.=32.610870m. Speed=5.364000m/h.</desc>
<speed>1.490000</speed>
</trkpt>
<trkpt lat="42.513767" lon="18.695934">
<ele>28.455826</ele>
<time>2012-05-02T11:11:50Z</time>
<desc>lat.=42.513767, lon.=18.695934, Alt.=28.455826m. Speed=3.960000m/h.</desc>
<speed>1.100000</speed>
</trkpt>
<trkpt lat="42.513741" lon="18.695917">
<ele>25.731216</ele>
<time>2012-05-02T11:11:55Z</time>
<desc>lat.=42.513741, lon.=18.695917, Alt.=25.731216m. Speed=0.612000m/h.</desc>
<speed>0.170000</speed>
</trkpt>
<trkpt lat="42.513657" lon="18.695885">
<ele>23.855240</ele>
<time>2012-05-02T11:12:00Z</time>
<desc>lat.=42.513657, lon.=18.695885, Alt.=23.855240m. Speed=2.772000m/h.</desc>
<speed>0.770000</speed>
</trkpt>
<trkpt lat="42.513649" lon="18.695837">
<ele>21.934830</ele>
<time>2012-05-02T11:12:05Z</time>
<desc>lat.=42.513649, lon.=18.695837, Alt.=21.934830m. Speed=1.080000m/h.</desc>
<speed>0.300000</speed>
</trkpt>
<trkpt lat="42.513645" lon="18.695822">
<ele>21.104752</ele>
<time>2012-05-02T11:12:10Z</time>
<desc>lat.=42.513645, lon.=18.695822, Alt.=21.104752m. Speed=1.044000m/h.</desc>
<speed>0.290000</speed>
</trkpt>
<trkpt lat="42.513638" lon="18.695805">
<ele>19.682877</ele>
<time>2012-05-02T11:12:15Z</time>
<desc>lat.=42.513638, lon.=18.695805, Alt.=19.682877m. Speed=0.468000m/h.</desc>
<speed>0.130000</speed>
</trkpt>
<trkpt lat="42.513638" lon="18.695807">
<ele>19.240982</ele>
<time>2012-05-02T11:12:20Z</time>
<desc>lat.=42.513638, lon.=18.695807, Alt.=19.240982m. Speed=0.108000m/h.</desc>
<speed>0.030000</speed>
</trkpt>
<trkpt lat="42.513630" lon="18.695807">
<ele>19.133072</ele>
<time>2012-05-02T11:12:25Z</time>
<desc>lat.=42.513630, lon.=18.695807, Alt.=19.133072m. Speed=0.612000m/h.</desc>
<speed>0.170000</speed>
</trkpt>
<trkpt lat="42.513592" lon="18.695799">
<ele>18.302994</ele>
<time>2012-05-02T11:12:30Z</time>
<desc>lat.=42.513592, lon.=18.695799, Alt.=18.302994m. Speed=1.692000m/h.</desc>
<speed>0.470000</speed>
</trkpt>
<trkpt lat="42.513542" lon="18.695841">
<ele>16.995377</ele>
<time>2012-05-02T11:12:35Z</time>
<desc>lat.=42.513542, lon.=18.695841, Alt.=16.995377m. Speed=1.656000m/h.</desc>
<speed>0.460000</speed>
</trkpt>
<trkpt lat="42.513512" lon="18.695866">
<ele>15.176399</ele>
<time>2012-05-02T11:12:40Z</time>
<desc>lat.=42.513512, lon.=18.695866, Alt.=15.176399m. Speed=1.368000m/h.</desc>
<speed>0.380000</speed>
</trkpt>
<trkpt lat="42.513493" lon="18.695862">
<ele>15.169075</ele>
<time>2012-05-02T11:12:45Z</time>
<desc>lat.=42.513493, lon.=18.695862, Alt.=15.169075m. Speed=0.396000m/h.</desc>
<speed>0.110000</speed>
</trkpt>
<trkpt lat="42.513489" lon="18.695862">
<ele>15.150764</ele>
<time>2012-05-02T11:12:50Z</time>
<desc>lat.=42.513489, lon.=18.695862, Alt.=15.150764m. Speed=0.360000m/h.</desc>
<speed>0.100000</speed>
</trkpt>
<trkpt lat="42.513485" lon="18.695856">
<ele>15.185921</ele>
<time>2012-05-02T11:12:55Z</time>
<desc>lat.=42.513485, lon.=18.695856, Alt.=15.185921m. Speed=0.684000m/h.</desc>
<speed>0.190000</speed>
</trkpt>
<trkpt lat="42.513474" lon="18.695852">
<ele>15.231087</ele>
<time>2012-05-02T11:13:00Z</time>
<desc>lat.=42.513474, lon.=18.695852, Alt.=15.231087m. Speed=0.756000m/h.</desc>
<speed>0.210000</speed>
</trkpt>
<trkpt lat="42.513470" lon="18.695850">
<ele>15.270393</ele>
<time>2012-05-02T11:13:05Z</time>
<desc>lat.=42.513470, lon.=18.695850, Alt.=15.270393m. Speed=0.108000m/h.</desc>
<speed>0.030000</speed>
</trkpt>
<trkpt lat="42.513466" lon="18.695848">
<ele>15.314339</ele>
<time>2012-05-02T11:13:10Z</time>
<desc>lat.=42.513466, lon.=18.695848, Alt.=15.314339m. Speed=0.288000m/h.</desc>
<speed>0.080000</speed>
</trkpt>
<trkpt lat="42.513458" lon="18.695852">
<ele>15.325081</ele>
<time>2012-05-02T11:13:15Z</time>
<desc>lat.=42.513458, lon.=18.695852, Alt.=15.325081m. Speed=0.504000m/h.</desc>
<speed>0.140000</speed>
</trkpt>
<trkpt lat="42.513454" lon="18.695858">
<ele>15.314583</ele>
<time>2012-05-02T11:13:20Z</time>
<desc>lat.=42.513454, lon.=18.695858, Alt.=15.314583m. Speed=0.432000m/h.</desc>
<speed>0.120000</speed>
</trkpt>
<trkpt lat="42.513432" lon="18.695869">
<ele>15.041634</ele>
<time>2012-05-02T11:13:25Z</time>
<desc>lat.=42.513432, lon.=18.695869, Alt.=15.041634m. Speed=1.260000m/h.</desc>
<speed>0.350000</speed>
</trkpt>
<trkpt lat="42.513416" lon="18.695879">
<ele>14.282356</ele>
<time>2012-05-02T11:13:30Z</time>
<desc>lat.=42.513416, lon.=18.695879, Alt.=14.282356m. Speed=0.828000m/h.</desc>
<speed>0.230000</speed>
</trkpt>
<trkpt lat="42.513405" lon="18.695892">
<ele>13.670784</ele>
<time>2012-05-02T11:13:35Z</time>
<desc>lat.=42.513405, lon.=18.695892, Alt.=13.670784m. Speed=0.576000m/h.</desc>
<speed>0.160000</speed>
</trkpt>
<trkpt lat="42.513401" lon="18.695898">
<ele>13.459114</ele>
<time>2012-05-02T11:13:40Z</time>
<desc>lat.=42.513401, lon.=18.695898, Alt.=13.459114m. Speed=0.396000m/h.</desc>
<speed>0.110000</speed>
</trkpt>
<trkpt lat="42.513397" lon="18.695904">
<ele>13.201302</ele>
<time>2012-05-02T11:13:45Z</time>
<desc>lat.=42.513397, lon.=18.695904, Alt.=13.201302m. Speed=0.504000m/h.</desc>
<speed>0.140000</speed>
</trkpt>
<trkpt lat="42.513393" lon="18.695911">
<ele>12.853157</ele>
<time>2012-05-02T11:13:50Z</time>
<desc>lat.=42.513393, lon.=18.695911, Alt.=12.853157m. Speed=0.576000m/h.</desc>
<speed>0.160000</speed>
</trkpt>
<trkpt lat="42.513390" lon="18.695917">
<ele>12.389290</ele>
<time>2012-05-02T11:13:55Z</time>
<desc>lat.=42.513390, lon.=18.695917, Alt.=12.389290m. Speed=0.216000m/h.</desc>
<speed>0.060000</speed>
</trkpt>
<trkpt lat="42.513393" lon="18.695919">
<ele>11.805550</ele>
<time>2012-05-02T11:14:00Z</time>
<desc>lat.=42.513393, lon.=18.695919, Alt.=11.805550m. Speed=0.252000m/h.</desc>
<speed>0.070000</speed>
</trkpt>
<trkpt lat="42.513393" lon="18.695921">
<ele>11.029671</ele>
<time>2012-05-02T11:14:05Z</time>
<desc>lat.=42.513393, lon.=18.695921, Alt.=11.029671m. Speed=0.072000m/h.</desc>
<speed>0.020000</speed>
</trkpt>
<trkpt lat="42.513397" lon="18.695921">
<ele>10.937630</ele>
<time>2012-05-02T11:14:10Z</time>
<desc>lat.=42.513397, lon.=18.695921, Alt.=10.937630m. Speed=0.180000m/h.</desc>
<speed>0.050000</speed>
</trkpt>
<trkpt lat="42.513397" lon="18.695921">
<ele>10.878059</ele>
<time>2012-05-02T11:14:15Z</time>
<desc>lat.=42.513397, lon.=18.695921, Alt.=10.878059m. Speed=0.144000m/h.</desc>
<speed>0.040000</speed>
</trkpt>
<trkpt lat="42.513397" lon="18.695921">
<ele>10.817268</ele>
<time>2012-05-02T11:14:20Z</time>
<desc>lat.=42.513397, lon.=18.695921, Alt.=10.817268m. Speed=0.072000m/h.</desc>
<speed>0.020000</speed>
</trkpt>
<trkpt lat="42.513397" lon="18.695921">
<ele>10.735970</ele>
<time>2012-05-02T11:14:25Z</time>
<desc>lat.=42.513397, lon.=18.695921, Alt.=10.735970m. Speed=0.108000m/h.</desc>
<speed>0.030000</speed>
</trkpt>
<trkpt lat="42.513397" lon="18.695921">
<ele>10.640511</ele>
<time>2012-05-02T11:14:30Z</time>
<desc>lat.=42.513397, lon.=18.695921, Alt.=10.640511m. Speed=0.072000m/h.</desc>
<speed>0.020000</speed>
</trkpt>
<trkpt lat="42.513397" lon="18.695921">
<ele>10.561165</ele>
<time>2012-05-02T11:14:35Z</time>
<desc>lat.=42.513397, lon.=18.695921, Alt.=10.561165m. Speed=0.072000m/h.</desc>
<speed>0.020000</speed>
</trkpt>
<trkpt lat="42.513397" lon="18.695919">
<ele>10.466194</ele>
<time>2012-05-02T11:14:40Z</time>
<desc>lat.=42.513397, lon.=18.695919, Alt.=10.466194m. Speed=0.036000m/h.</desc>
<speed>0.010000</speed>
</trkpt>
<trkpt lat="42.513401" lon="18.695919">
<ele>10.430794</ele>
<time>2012-05-02T11:14:45Z</time>
<desc>lat.=42.513401, lon.=18.695919, Alt.=10.430794m. Speed=0.072000m/h.</desc>
<speed>0.020000</speed>
</trkpt>
<trkpt lat="42.513397" lon="18.695917">
<ele>10.377327</ele>
<time>2012-05-02T11:14:50Z</time>
<desc>lat.=42.513397, lon.=18.695917, Alt.=10.377327m. Speed=0.108000m/h.</desc>
<speed>0.030000</speed>
</trkpt>
<trkpt lat="42.513401" lon="18.695917">
<ele>10.163460</ele>
<time>2012-05-02T11:14:55Z</time>
<desc>lat.=42.513401, lon.=18.695917, Alt.=10.163460m. Speed=0.180000m/h.</desc>
<speed>0.050000</speed>
</trkpt>
<trkpt lat="42.513401" lon="18.695917">
<ele>9.956429</ele>
<time>2012-05-02T11:15:00Z</time>
<desc>lat.=42.513401, lon.=18.695917, Alt.=9.956429m. Speed=0.108000m/h.</desc>
<speed>0.030000</speed>
</trkpt>
<trkpt lat="42.513401" lon="18.695915">
<ele>9.813118</ele>
<time>2012-05-02T11:15:05Z</time>
<desc>lat.=42.513401, lon.=18.695915, Alt.=9.813118m. Speed=0.108000m/h.</desc>
<speed>0.030000</speed>
</trkpt>
<trkpt lat="42.513405" lon="18.695915">
<ele>9.706429</ele>
<time>2012-05-02T11:15:10Z</time>
<desc>lat.=42.513405, lon.=18.695915, Alt.=9.706429m. Speed=0.108000m/h.</desc>
<speed>0.030000</speed>
</trkpt>
<trkpt lat="42.513405" lon="18.695915">
<ele>9.614388</ele>
<time>2012-05-02T11:15:15Z</time>
<desc>lat.=42.513405, lon.=18.695915, Alt.=9.614388m. Speed=0.180000m/h.</desc>
<speed>0.050000</speed>
</trkpt>
<trkpt lat="42.513405" lon="18.695913">
<ele>9.536751</ele>
<time>2012-05-02T11:15:20Z</time>
<desc>lat.=42.513405, lon.=18.695913, Alt.=9.536751m. Speed=0.072000m/h.</desc>
<speed>0.020000</speed>
</trkpt>
<trkpt lat="42.513405" lon="18.695913">
<ele>9.448372</ele>
<time>2012-05-02T11:15:25Z</time>
<desc>lat.=42.513405, lon.=18.695913, Alt.=9.448372m. Speed=0.072000m/h.</desc>
<speed>0.020000</speed>
</trkpt>
<trkpt lat="42.513405" lon="18.695913">
<ele>9.348030</ele>
<time>2012-05-02T11:15:30Z</time>
<desc>lat.=42.513405, lon.=18.695913, Alt.=9.348030m. Speed=0.072000m/h.</desc>
<speed>0.020000</speed>
</trkpt>
<trkpt lat="42.513405" lon="18.695913">
<ele>9.202522</ele>
<time>2012-05-02T11:15:35Z</time>
<desc>lat.=42.513405, lon.=18.695913, Alt.=9.202522m. Speed=0.036000m/h.</desc>
<speed>0.010000</speed>
</trkpt>
<trkpt lat="42.513405" lon="18.695913">
<ele>9.111946</ele>
<time>2012-05-02T11:15:40Z</time>
<desc>lat.=42.513405, lon.=18.695913, Alt.=9.111946m. Speed=0.072000m/h.</desc>
<speed>0.020000</speed>
</trkpt>
<trkpt lat="42.513405" lon="18.695913">
<ele>9.012093</ele>
<time>2012-05-02T11:15:45Z</time>
<desc>lat.=42.513405, lon.=18.695913, Alt.=9.012093m. Speed=0.036000m/h.</desc>
<speed>0.010000</speed>
</trkpt>
<trkpt lat="42.513405" lon="18.695913">
<ele>8.949837</ele>
<time>2012-05-02T11:15:50Z</time>
<desc>lat.=42.513405, lon.=18.695913, Alt.=8.949837m. Speed=0.108000m/h.</desc>
<speed>0.030000</speed>
</trkpt>
<trkpt lat="42.513405" lon="18.695913">
<ele>8.899788</ele>
<time>2012-05-02T11:15:55Z</time>
<desc>lat.=42.513405, lon.=18.695913, Alt.=8.899788m. Speed=0.144000m/h.</desc>
<speed>0.040000</speed>
</trkpt>
<trkpt lat="42.513405" lon="18.695911">
<ele>8.842659</ele>
<time>2012-05-02T11:16:00Z</time>
<desc>lat.=42.513405, lon.=18.695911, Alt.=8.842659m. Speed=0.072000m/h.</desc>
<speed>0.020000</speed>
</trkpt>
<trkpt lat="42.513405" lon="18.695911">
<ele>8.798470</ele>
<time>2012-05-02T11:16:05Z</time>
<desc>lat.=42.513405, lon.=18.695911, Alt.=8.798470m. Speed=0.108000m/h.</desc>
<speed>0.030000</speed>
</trkpt>
<trkpt lat="42.513405" lon="18.695911">
<ele>8.734749</ele>
<time>2012-05-02T11:16:10Z</time>
<desc>lat.=42.513405, lon.=18.695911, Alt.=8.734749m. Speed=0.108000m/h.</desc>
<speed>0.030000</speed>
</trkpt>
<trkpt lat="42.513405" lon="18.695910">
<ele>8.677132</ele>
<time>2012-05-02T11:16:15Z</time>
<desc>lat.=42.513405, lon.=18.695910, Alt.=8.677132m. Speed=0.108000m/h.</desc>
<speed>0.030000</speed>
</trkpt>
<trkpt lat="42.513405" lon="18.695910">
<ele>8.630989</ele>
<time>2012-05-02T11:16:20Z</time>
<desc>lat.=42.513405, lon.=18.695910, Alt.=8.630989m. Speed=0.288000m/h.</desc>
<speed>0.080000</speed>
</trkpt>
<trkpt lat="42.513405" lon="18.695910">
<ele>8.592171</ele>
<time>2012-05-02T11:16:25Z</time>
<desc>lat.=42.513405, lon.=18.695910, Alt.=8.592171m. Speed=0.108000m/h.</desc>
<speed>0.030000</speed>
</trkpt>
<trkpt lat="42.513405" lon="18.695910">
<ele>8.598763</ele>
<time>2012-05-02T11:16:30Z</time>
<desc>lat.=42.513405, lon.=18.695910, Alt.=8.598763m. Speed=0.180000m/h.</desc>
<speed>0.050000</speed>
</trkpt>
<trkpt lat="42.513409" lon="18.695910">
<ele>8.653694</ele>
<time>2012-05-02T11:16:35Z</time>
<desc>lat.=42.513409, lon.=18.695910, Alt.=8.653694m. Speed=0.072000m/h.</desc>
<speed>0.020000</speed>
</trkpt>
<trkpt lat="42.513409" lon="18.695910">
<ele>8.708382</ele>
<time>2012-05-02T11:16:40Z</time>
<desc>lat.=42.513409, lon.=18.695910, Alt.=8.708382m. Speed=0.144000m/h.</desc>
<speed>0.040000</speed>
</trkpt>
<trkpt lat="42.513409" lon="18.695908">
<ele>8.721077</ele>
<time>2012-05-02T11:16:45Z</time>
<desc>lat.=42.513409, lon.=18.695908, Alt.=8.721077m. Speed=0.072000m/h.</desc>
<speed>0.020000</speed>
</trkpt>
<trkpt lat="42.513409" lon="18.695908">
<ele>8.649544</ele>
<time>2012-05-02T11:16:50Z</time>
<desc>lat.=42.513409, lon.=18.695908, Alt.=8.649544m. Speed=0.000000m/h.</desc>
<speed>0.000000</speed>
</trkpt>
<trkpt lat="42.513412" lon="18.695908">
<ele>8.582161</ele>
<time>2012-05-02T11:16:55Z</time>
<desc>lat.=42.513412, lon.=18.695908, Alt.=8.582161m. Speed=0.108000m/h.</desc>
<speed>0.030000</speed>
</trkpt>
<trkpt lat="42.513412" lon="18.695908">
<ele>8.485237</ele>
<time>2012-05-02T11:17:00Z</time>
<desc>lat.=42.513412, lon.=18.695908, Alt.=8.485237m. Speed=0.144000m/h.</desc>
<speed>0.040000</speed>
</trkpt>
<trkpt lat="42.513412" lon="18.695906">
<ele>8.451057</ele>
<time>2012-05-02T11:17:05Z</time>
<desc>lat.=42.513412, lon.=18.695906, Alt.=8.451057m. Speed=0.108000m/h.</desc>
<speed>0.030000</speed>
</trkpt>
<trkpt lat="42.513412" lon="18.695906">
<ele>8.397346</ele>
<time>2012-05-02T11:17:10Z</time>
<desc>lat.=42.513412, lon.=18.695906, Alt.=8.397346m. Speed=0.216000m/h.</desc>
<speed>0.060000</speed>
</trkpt>
<trkpt lat="42.513412" lon="18.695904">
<ele>8.329475</ele>
<time>2012-05-02T11:17:15Z</time>
<desc>lat.=42.513412, lon.=18.695904, Alt.=8.329475m. Speed=0.036000m/h.</desc>
<speed>0.010000</speed>
</trkpt>
<trkpt lat="42.513412" lon="18.695904">
<ele>8.266243</ele>
<time>2012-05-02T11:17:20Z</time>
<desc>lat.=42.513412, lon.=18.695904, Alt.=8.266243m. Speed=0.072000m/h.</desc>
<speed>0.020000</speed>
</trkpt>
<trkpt lat="42.513412" lon="18.695904">
<ele>8.252815</ele>
<time>2012-05-02T11:17:25Z</time>
<desc>lat.=42.513412, lon.=18.695904, Alt.=8.252815m. Speed=0.036000m/h.</desc>
<speed>0.010000</speed>
</trkpt>
<trkpt lat="42.513412" lon="18.695904">
<ele>8.272591</ele>
<time>2012-05-02T11:17:30Z</time>
<desc>lat.=42.513412, lon.=18.695904, Alt.=8.272591m. Speed=0.000000m/h.</desc>
<speed>0.000000</speed>
</trkpt>
<trkpt lat="42.513412" lon="18.695904">
<ele>8.288460</ele>
<time>2012-05-02T11:17:35Z</time>
<desc>lat.=42.513412, lon.=18.695904, Alt.=8.288460m. Speed=0.036000m/h.</desc>
<speed>0.010000</speed>
</trkpt>
<trkpt lat="42.513412" lon="18.695904">
<ele>8.338020</ele>
<time>2012-05-02T11:17:40Z</time>
<desc>lat.=42.513412, lon.=18.695904, Alt.=8.338020m. Speed=0.000000m/h.</desc>
<speed>0.000000</speed>
</trkpt>
<trkpt lat="42.513412" lon="18.695904">
<ele>8.443733</ele>
<time>2012-05-02T11:17:45Z</time>
<desc>lat.=42.513412, lon.=18.695904, Alt.=8.443733m. Speed=0.000000m/h.</desc>
<speed>0.000000</speed>
</trkpt>
<trkpt lat="42.513412" lon="18.695904">
<ele>8.443977</ele>
<time>2012-05-02T11:17:50Z</time>
<desc>lat.=42.513412, lon.=18.695904, Alt.=8.443977m. Speed=0.288000m/h.</desc>
<speed>0.080000</speed>
</trkpt>
<trkpt lat="42.513424" lon="18.695860">
<ele>9.772102</ele>
<time>2012-05-02T11:17:55Z</time>
<desc>lat.=42.513424, lon.=18.695860, Alt.=9.772102m. Speed=7.380000m/h.</desc>
<speed>2.050000</speed>
</trkpt>
<trkpt lat="42.513409" lon="18.695707">
<ele>9.161507</ele>
<time>2012-05-02T11:18:00Z</time>
<desc>lat.=42.513409, lon.=18.695707, Alt.=9.161507m. Speed=4.464000m/h.</desc>
<speed>1.240000</speed>
</trkpt>
<trkpt lat="42.513439" lon="18.695532">
<ele>9.468880</ele>
<time>2012-05-02T11:18:05Z</time>
<desc>lat.=42.513439, lon.=18.695532, Alt.=9.468880m. Speed=7.704000m/h.</desc>
<speed>2.140000</speed>
</trkpt>
<trkpt lat="42.513348" lon="18.695414">
<ele>8.772102</ele>
<time>2012-05-02T11:18:10Z</time>
<desc>lat.=42.513348, lon.=18.695414, Alt.=8.772102m. Speed=9.792000m/h.</desc>
<speed>2.720000</speed>
</trkpt>
<trkpt lat="42.513145" lon="18.695400">
<ele>7.591373</ele>
<time>2012-05-02T11:18:15Z</time>
<desc>lat.=42.513145, lon.=18.695400, Alt.=7.591373m. Speed=11.340000m/h.</desc>
<speed>3.150000</speed>
</trkpt>
<trkpt lat="42.512981" lon="18.695396">
<ele>7.907780</ele>
<time>2012-05-02T11:18:20Z</time>
<desc>lat.=42.512981, lon.=18.695396, Alt.=7.907780m. Speed=10.440000m/h.</desc>
<speed>2.900000</speed>
</trkpt>
<trkpt lat="42.512779" lon="18.695547">
<ele>8.889534</ele>
<time>2012-05-02T11:18:25Z</time>
<desc>lat.=42.512779, lon.=18.695547, Alt.=8.889534m. Speed=18.576000m/h.</desc>
<speed>5.160000</speed>
</trkpt>
<trkpt lat="42.512558" lon="18.695639">
<ele>9.985481</ele>
<time>2012-05-02T11:18:30Z</time>
<desc>lat.=42.512558, lon.=18.695639, Alt.=9.985481m. Speed=15.696000m/h.</desc>
<speed>4.360000</speed>
</trkpt>
<trkpt lat="42.512360" lon="18.695704">
<ele>11.441292</ele>
<time>2012-05-02T11:18:35Z</time>
<desc>lat.=42.512360, lon.=18.695704, Alt.=11.441292m. Speed=14.112000m/h.</desc>
<speed>3.920000</speed>
</trkpt>
<trkpt lat="42.512150" lon="18.695738">
<ele>12.817024</ele>
<time>2012-05-02T11:18:40Z</time>
<desc>lat.=42.512150, lon.=18.695738, Alt.=12.817024m. Speed=15.768000m/h.</desc>
<speed>4.380000</speed>
</trkpt>
<trkpt lat="42.511982" lon="18.695805">
<ele>14.570442</ele>
<time>2012-05-02T11:18:45Z</time>
<desc>lat.=42.511982, lon.=18.695805, Alt.=14.570442m. Speed=15.660000m/h.</desc>
<speed>4.350000</speed>
</trkpt>
<trkpt lat="42.511738" lon="18.695845">
<ele>16.924088</ele>
<time>2012-05-02T11:18:50Z</time>
<desc>lat.=42.511738, lon.=18.695845, Alt.=16.924088m. Speed=9.252000m/h.</desc>
<speed>2.570000</speed>
</trkpt>
<trkpt lat="42.511494" lon="18.695906">
<ele>18.927994</ele>
<time>2012-05-02T11:18:55Z</time>
<desc>lat.=42.511494, lon.=18.695906, Alt.=18.927994m. Speed=17.712000m/h.</desc>
<speed>4.920000</speed>
</trkpt>
<trkpt lat="42.511242" lon="18.695988">
<ele>21.027115</ele>
<time>2012-05-02T11:19:00Z</time>
<desc>lat.=42.511242, lon.=18.695988, Alt.=21.027115m. Speed=21.996000m/h.</desc>
<speed>6.110000</speed>
</trkpt>
<trkpt lat="42.510952" lon="18.696062">
<ele>22.864029</ele>
<time>2012-05-02T11:19:05Z</time>
<desc>lat.=42.510952, lon.=18.696062, Alt.=22.864029m. Speed=19.403999m/h.</desc>
<speed>5.390000</speed>
</trkpt>
<trkpt lat="42.510735" lon="18.696190">
<ele>24.257584</ele>
<time>2012-05-02T11:19:10Z</time>
<desc>lat.=42.510735, lon.=18.696190, Alt.=24.257584m. Speed=19.440001m/h.</desc>
<speed>5.400000</speed>
</trkpt>
<trkpt lat="42.510452" lon="18.696264">
<ele>23.966568</ele>
<time>2012-05-02T11:19:15Z</time>
<desc>lat.=42.510452, lon.=18.696264, Alt.=23.966568m. Speed=20.195999m/h.</desc>
<speed>5.610000</speed>
</trkpt>
<trkpt lat="42.510174" lon="18.696365">
<ele>22.635025</ele>
<time>2012-05-02T11:19:20Z</time>
<desc>lat.=42.510174, lon.=18.696365, Alt.=22.635025m. Speed=22.320000m/h.</desc>
<speed>6.200000</speed>
</trkpt>
<trkpt lat="42.509914" lon="18.696491">
<ele>22.559830</ele>
<time>2012-05-02T11:19:25Z</time>
<desc>lat.=42.509914, lon.=18.696491, Alt.=22.559830m. Speed=22.427999m/h.</desc>
<speed>6.230000</speed>
</trkpt>
<trkpt lat="42.509632" lon="18.696543">
<ele>22.700455</ele>
<time>2012-05-02T11:19:30Z</time>
<desc>lat.=42.509632, lon.=18.696543, Alt.=22.700455m. Speed=24.156000m/h.</desc>
<speed>6.710000</speed>
</trkpt>
<trkpt lat="42.509380" lon="18.696554">
<ele>23.530045</ele>
<time>2012-05-02T11:19:35Z</time>
<desc>lat.=42.509380, lon.=18.696554, Alt.=23.530045m. Speed=20.375999m/h.</desc>
<speed>5.660000</speed>
</trkpt>
<trkpt lat="42.509155" lon="18.696545">
<ele>25.187271</ele>
<time>2012-05-02T11:19:40Z</time>
<desc>lat.=42.509155, lon.=18.696545, Alt.=25.187271m. Speed=30.204000m/h.</desc>
<speed>8.390000</speed>
</trkpt>
<trkpt lat="42.508953" lon="18.696447">
<ele>27.658463</ele>
<time>2012-05-02T11:19:45Z</time>
<desc>lat.=42.508953, lon.=18.696447, Alt.=27.658463m. Speed=19.944000m/h.</desc>
<speed>5.540000</speed>
</trkpt>
<trkpt lat="42.508644" lon="18.696213">
<ele>27.228287</ele>
<time>2012-05-02T11:19:50Z</time>
<desc>lat.=42.508644, lon.=18.696213, Alt.=27.228287m. Speed=23.219999m/h.</desc>
<speed>6.450000</speed>
</trkpt>
<trkpt lat="42.508396" lon="18.695993">
<ele>25.623306</ele>
<time>2012-05-02T11:19:55Z</time>
<desc>lat.=42.508396, lon.=18.695993, Alt.=25.623306m. Speed=19.368000m/h.</desc>
<speed>5.380000</speed>
</trkpt>
<trkpt lat="42.508114" lon="18.695818">
<ele>24.924088</ele>
<time>2012-05-02T11:20:00Z</time>
<desc>lat.=42.508114, lon.=18.695818, Alt.=24.924088m. Speed=22.104000m/h.</desc>
<speed>6.140000</speed>
</trkpt>
<trkpt lat="42.507793" lon="18.695673">
<ele>22.520279</ele>
<time>2012-05-02T11:20:05Z</time>
<desc>lat.=42.507793, lon.=18.695673, Alt.=22.520279m. Speed=28.044001m/h.</desc>
<speed>7.790000</speed>
</trkpt>
<trkpt lat="42.507515" lon="18.695545">
<ele>19.915298</ele>
<time>2012-05-02T11:20:10Z</time>
<desc>lat.=42.507515, lon.=18.695545, Alt.=19.915298m. Speed=22.535999m/h.</desc>
<speed>6.260000</speed>
</trkpt>
<trkpt lat="42.507240" lon="18.695345">
<ele>18.637955</ele>
<time>2012-05-02T11:20:15Z</time>
<desc>lat.=42.507240, lon.=18.695345, Alt.=18.637955m. Speed=24.624001m/h.</desc>
<speed>6.840000</speed>
</trkpt>
<trkpt lat="42.507008" lon="18.695053">
<ele>17.163345</ele>
<time>2012-05-02T11:20:20Z</time>
<desc>lat.=42.507008, lon.=18.695053, Alt.=17.163345m. Speed=20.879999m/h.</desc>
<speed>5.800000</speed>
</trkpt>
<trkpt lat="42.506836" lon="18.694799">
<ele>16.216568</ele>
<time>2012-05-02T11:20:25Z</time>
<desc>lat.=42.506836, lon.=18.694799, Alt.=16.216568m. Speed=20.448000m/h.</desc>
<speed>5.680000</speed>
</trkpt>
<trkpt lat="42.506660" lon="18.694529">
<ele>15.175667</ele>
<time>2012-05-02T11:20:30Z</time>
<desc>lat.=42.506660, lon.=18.694529, Alt.=15.175667m. Speed=22.752001m/h.</desc>
<speed>6.320000</speed>
</trkpt>
<trkpt lat="42.506512" lon="18.694273">
<ele>13.579475</ele>
<time>2012-05-02T11:20:35Z</time>
<desc>lat.=42.506512, lon.=18.694273, Alt.=13.579475m. Speed=18.108000m/h.</desc>
<speed>5.030000</speed>
</trkpt>
<trkpt lat="42.506401" lon="18.694096">
<ele>12.711800</ele>
<time>2012-05-02T11:20:40Z</time>
<desc>lat.=42.506401, lon.=18.694096, Alt.=12.711800m. Speed=13.140000m/h.</desc>
<speed>3.650000</speed>
</trkpt>
<trkpt lat="42.506302" lon="18.693945">
<ele>12.124153</ele>
<time>2012-05-02T11:20:45Z</time>
<desc>lat.=42.506302, lon.=18.693945, Alt.=12.124153m. Speed=14.148000m/h.</desc>
<speed>3.930000</speed>
</trkpt>
<trkpt lat="42.506191" lon="18.693800">
<ele>11.814095</ele>
<time>2012-05-02T11:20:50Z</time>
<desc>lat.=42.506191, lon.=18.693800, Alt.=11.814095m. Speed=13.608000m/h.</desc>
<speed>3.780000</speed>
</trkpt>
<trkpt lat="42.506027" lon="18.693657">
<ele>11.331673</ele>
<time>2012-05-02T11:20:55Z</time>
<desc>lat.=42.506027, lon.=18.693657, Alt.=11.331673m. Speed=18.827999m/h.</desc>
<speed>5.230000</speed>
</trkpt>
<trkpt lat="42.505806" lon="18.693552">
<ele>10.880989</ele>
<time>2012-05-02T11:21:00Z</time>
<desc>lat.=42.505806, lon.=18.693552, Alt.=10.880989m. Speed=19.296000m/h.</desc>
<speed>5.360000</speed>
</trkpt>
<trkpt lat="42.505569" lon="18.693542">
<ele>9.301399</ele>
<time>2012-05-02T11:21:05Z</time>
<desc>lat.=42.505569, lon.=18.693542, Alt.=9.301399m. Speed=18.035999m/h.</desc>
<speed>5.010000</speed>
</trkpt>
<trkpt lat="42.505306" lon="18.693638">
<ele>7.628971</ele>
<time>2012-05-02T11:21:10Z</time>
<desc>lat.=42.505306, lon.=18.693638, Alt.=7.628971m. Speed=19.728001m/h.</desc>
<speed>5.480000</speed>
</trkpt>
<trkpt lat="42.505081" lon="18.693787">
<ele>5.561222</ele>
<time>2012-05-02T11:21:15Z</time>
<desc>lat.=42.505081, lon.=18.693787, Alt.=5.561222m. Speed=21.780001m/h.</desc>
<speed>6.050000</speed>
</trkpt>
<trkpt lat="42.504818" lon="18.693964">
<ele>3.971407</ele>
<time>2012-05-02T11:21:20Z</time>
<desc>lat.=42.504818, lon.=18.693964, Alt.=3.971407m. Speed=24.480000m/h.</desc>
<speed>6.800000</speed>
</trkpt>
<trkpt lat="42.504517" lon="18.694149">
<ele>1.688523</ele>
<time>2012-05-02T11:21:25Z</time>
<desc>lat.=42.504517, lon.=18.694149, Alt.=1.688523m. Speed=28.764000m/h.</desc>
<speed>7.990000</speed>
</trkpt>
<trkpt lat="42.504162" lon="18.694368">
<ele>-1.035752</ele>
<time>2012-05-02T11:21:30Z</time>
<desc>lat.=42.504162, lon.=18.694368, Alt.=-1.035752m. Speed=31.643999m/h.</desc>
<speed>8.790000</speed>
</trkpt>
<trkpt lat="42.503780" lon="18.694498">
<ele>-3.622103</ele>
<time>2012-05-02T11:21:35Z</time>
<desc>lat.=42.503780, lon.=18.694498, Alt.=-3.622103m. Speed=31.427999m/h.</desc>
<speed>8.730000</speed>
</trkpt>
<trkpt lat="42.503403" lon="18.694382">
<ele>-5.007999</ele>
<time>2012-05-02T11:21:40Z</time>
<desc>lat.=42.503403, lon.=18.694382, Alt.=-5.007999m. Speed=31.500000m/h.</desc>
<speed>8.750000</speed>
</trkpt>
<trkpt lat="42.503052" lon="18.694124">
<ele>-6.022770</ele>
<time>2012-05-02T11:21:45Z</time>
<desc>lat.=42.503052, lon.=18.694124, Alt.=-6.022770m. Speed=30.312000m/h.</desc>
<speed>8.420000</speed>
</trkpt>
<trkpt lat="42.502747" lon="18.693806">
<ele>-5.612736</ele>
<time>2012-05-02T11:21:50Z</time>
<desc>lat.=42.502747, lon.=18.693806, Alt.=-5.612736m. Speed=30.348000m/h.</desc>
<speed>8.430000</speed>
</trkpt>
<trkpt lat="42.502617" lon="18.693386">
<ele>-5.692570</ele>
<time>2012-05-02T11:21:55Z</time>
<desc>lat.=42.502617, lon.=18.693386, Alt.=-5.692570m. Speed=24.191999m/h.</desc>
<speed>6.720000</speed>
</trkpt>
<trkpt lat="42.502583" lon="18.692955">
<ele>-4.627995</ele>
<time>2012-05-02T11:22:00Z</time>
<desc>lat.=42.502583, lon.=18.692955, Alt.=-4.627995m. Speed=25.271999m/h.</desc>
<speed>7.020000</speed>
</trkpt>
<trkpt lat="42.502487" lon="18.692545">
<ele>-3.432894</ele>
<time>2012-05-02T11:22:05Z</time>
<desc>lat.=42.502487, lon.=18.692545, Alt.=-3.432894m. Speed=26.351999m/h.</desc>
<speed>7.320000</speed>
</trkpt>
<trkpt lat="42.502296" lon="18.692238">
<ele>-3.429720</ele>
<time>2012-05-02T11:22:10Z</time>
<desc>lat.=42.502296, lon.=18.692238, Alt.=-3.429720m. Speed=19.260000m/h.</desc>
<speed>5.350000</speed>
</trkpt>
<trkpt lat="42.502056" lon="18.692093">
<ele>-3.187288</ele>
<time>2012-05-02T11:22:15Z</time>
<desc>lat.=42.502056, lon.=18.692093, Alt.=-3.187288m. Speed=21.780001m/h.</desc>
<speed>6.050000</speed>
</trkpt>
<trkpt lat="42.501785" lon="18.692080">
<ele>-3.363985</ele>
<time>2012-05-02T11:22:20Z</time>
<desc>lat.=42.501785, lon.=18.692080, Alt.=-3.363985m. Speed=21.240000m/h.</desc>
<speed>5.900000</speed>
</trkpt>
<trkpt lat="42.501495" lon="18.692114">
<ele>-3.200289</ele>
<time>2012-05-02T11:22:25Z</time>
<desc>lat.=42.501495, lon.=18.692114, Alt.=-3.200289m. Speed=24.299999m/h.</desc>
<speed>6.750000</speed>
</trkpt>
<trkpt lat="42.501186" lon="18.692230">
<ele>-3.034761</ele>
<time>2012-05-02T11:22:30Z</time>
<desc>lat.=42.501186, lon.=18.692230, Alt.=-3.034761m. Speed=25.812000m/h.</desc>
<speed>7.170000</speed>
</trkpt>
<trkpt lat="42.500908" lon="18.692451">
<ele>-3.968599</ele>
<time>2012-05-02T11:22:35Z</time>
<desc>lat.=42.500908, lon.=18.692451, Alt.=-3.968599m. Speed=23.580000m/h.</desc>
<speed>6.550000</speed>
</trkpt>
<trkpt lat="42.500614" lon="18.692633">
<ele>-4.809757</ele>
<time>2012-05-02T11:22:40Z</time>
<desc>lat.=42.500614, lon.=18.692633, Alt.=-4.809757m. Speed=28.548000m/h.</desc>
<speed>7.930000</speed>
</trkpt>
<trkpt lat="42.500271" lon="18.692616">
<ele>-4.047916</ele>
<time>2012-05-02T11:22:45Z</time>
<desc>lat.=42.500271, lon.=18.692616, Alt.=-4.047916m. Speed=26.280001m/h.</desc>
<speed>7.300000</speed>
</trkpt>
<trkpt lat="42.499962" lon="18.692486">
<ele>-2.069063</ele>
<time>2012-05-02T11:22:50Z</time>
<desc>lat.=42.499962, lon.=18.692486, Alt.=-2.069063m. Speed=23.724001m/h.</desc>
<speed>6.590000</speed>
</trkpt>
<trkpt lat="42.499668" lon="18.692387">
<ele>-0.757943</ele>
<time>2012-05-02T11:22:55Z</time>
<desc>lat.=42.499668, lon.=18.692387, Alt.=-0.757943m. Speed=21.312000m/h.</desc>
<speed>5.920000</speed>
</trkpt>
<trkpt lat="42.499359" lon="18.692291">
<ele>-0.058527</ele>
<time>2012-05-02T11:23:00Z</time>
<desc>lat.=42.499359, lon.=18.692291, Alt.=-0.058527m. Speed=28.224001m/h.</desc>
<speed>7.840000</speed>
</trkpt>
<trkpt lat="42.498997" lon="18.692221">
<ele>0.903054</ele>
<time>2012-05-02T11:23:05Z</time>
<desc>lat.=42.498997, lon.=18.692221, Alt.=0.903054m. Speed=25.955999m/h.</desc>
<speed>7.210000</speed>
</trkpt>
<trkpt lat="42.498730" lon="18.692162">
<ele>1.435380</ele>
<time>2012-05-02T11:23:10Z</time>
<desc>lat.=42.498730, lon.=18.692162, Alt.=1.435380m. Speed=20.087999m/h.</desc>
<speed>5.580000</speed>
</trkpt>
<trkpt lat="42.498497" lon="18.692129">
<ele>1.884721</ele>
<time>2012-05-02T11:23:15Z</time>
<desc>lat.=42.498497, lon.=18.692129, Alt.=1.884721m. Speed=16.632000m/h.</desc>
<speed>4.620000</speed>
</trkpt>
<trkpt lat="42.498203" lon="18.692078">
<ele>2.555208</ele>
<time>2012-05-02T11:23:20Z</time>
<desc>lat.=42.498203, lon.=18.692078, Alt.=2.555208m. Speed=23.652000m/h.</desc>
<speed>6.570000</speed>
</trkpt>
<trkpt lat="42.497921" lon="18.692003">
<ele>3.424593</ele>
<time>2012-05-02T11:23:25Z</time>
<desc>lat.=42.497921, lon.=18.692003, Alt.=3.424593m. Speed=20.520000m/h.</desc>
<speed>5.700000</speed>
</trkpt>
<trkpt lat="42.497681" lon="18.691914">
<ele>4.009953</ele>
<time>2012-05-02T11:23:30Z</time>
<desc>lat.=42.497681, lon.=18.691914, Alt.=4.009953m. Speed=20.879999m/h.</desc>
<speed>5.800000</speed>
</trkpt>
<trkpt lat="42.497425" lon="18.691763">
<ele>3.996920</ele>
<time>2012-05-02T11:23:35Z</time>
<desc>lat.=42.497425, lon.=18.691763, Alt.=3.996920m. Speed=23.219999m/h.</desc>
<speed>6.450000</speed>
</trkpt>
<trkpt lat="42.497177" lon="18.691605">
<ele>4.823673</ele>
<time>2012-05-02T11:23:40Z</time>
<desc>lat.=42.497177, lon.=18.691605, Alt.=4.823673m. Speed=21.348000m/h.</desc>
<speed>5.930000</speed>
</trkpt>
<trkpt lat="42.496933" lon="18.691433">
<ele>5.548649</ele>
<time>2012-05-02T11:23:45Z</time>
<desc>lat.=42.496933, lon.=18.691433, Alt.=5.548649m. Speed=23.507999m/h.</desc>
<speed>6.530000</speed>
</trkpt>
<trkpt lat="42.496674" lon="18.691259">
<ele>6.622746</ele>
<time>2012-05-02T11:23:50Z</time>
<desc>lat.=42.496674, lon.=18.691259, Alt.=6.622746m. Speed=22.572001m/h.</desc>
<speed>6.270000</speed>
</trkpt>
<trkpt lat="42.496403" lon="18.691105">
<ele>7.240299</ele>
<time>2012-05-02T11:23:55Z</time>
<desc>lat.=42.496403, lon.=18.691105, Alt.=7.240299m. Speed=25.667999m/h.</desc>
<speed>7.130000</speed>
</trkpt>
<trkpt lat="42.496105" lon="18.691019">
<ele>8.553841</ele>
<time>2012-05-02T11:24:00Z</time>
<desc>lat.=42.496105, lon.=18.691019, Alt.=8.553841m. Speed=22.320000m/h.</desc>
<speed>6.200000</speed>
</trkpt>
<trkpt lat="42.495842" lon="18.690990">
<ele>9.188850</ele>
<time>2012-05-02T11:24:05Z</time>
<desc>lat.=42.495842, lon.=18.690990, Alt.=9.188850m. Speed=19.511999m/h.</desc>
<speed>5.420000</speed>
</trkpt>
<trkpt lat="42.495594" lon="18.691006">
<ele>11.047493</ele>
<time>2012-05-02T11:24:10Z</time>
<desc>lat.=42.495594, lon.=18.691006, Alt.=11.047493m. Speed=20.879999m/h.</desc>
<speed>5.800000</speed>
</trkpt>
<trkpt lat="42.495323" lon="18.691080">
<ele>11.304817</ele>
<time>2012-05-02T11:24:15Z</time>
<desc>lat.=42.495323, lon.=18.691080, Alt.=11.304817m. Speed=22.139999m/h.</desc>
<speed>6.150000</speed>
</trkpt>
<trkpt lat="42.495045" lon="18.691248">
<ele>12.018684</ele>
<time>2012-05-02T11:24:20Z</time>
<desc>lat.=42.495045, lon.=18.691248, Alt.=12.018684m. Speed=23.688000m/h.</desc>
<speed>6.580000</speed>
</trkpt>
<trkpt lat="42.494778" lon="18.691385">
<ele>12.153938</ele>
<time>2012-05-02T11:24:25Z</time>
<desc>lat.=42.494778, lon.=18.691385, Alt.=12.153938m. Speed=22.212000m/h.</desc>
<speed>6.170000</speed>
</trkpt>
<trkpt lat="42.494522" lon="18.691507">
<ele>12.832649</ele>
<time>2012-05-02T11:24:30Z</time>
<desc>lat.=42.494522, lon.=18.691507, Alt.=12.832649m. Speed=20.916000m/h.</desc>
<speed>5.810000</speed>
</trkpt>
<trkpt lat="42.494228" lon="18.691513">
<ele>12.369514</ele>
<time>2012-05-02T11:24:35Z</time>
<desc>lat.=42.494228, lon.=18.691513, Alt.=12.369514m. Speed=24.228001m/h.</desc>
<speed>6.730000</speed>
</trkpt>
<trkpt lat="42.493931" lon="18.691473">
<ele>12.651985</ele>
<time>2012-05-02T11:24:40Z</time>
<desc>lat.=42.493931, lon.=18.691473, Alt.=12.651985m. Speed=22.500000m/h.</desc>
<speed>6.250000</speed>
</trkpt>
<trkpt lat="42.493652" lon="18.691404">
<ele>13.166634</ele>
<time>2012-05-02T11:24:45Z</time>
<desc>lat.=42.493652, lon.=18.691404, Alt.=13.166634m. Speed=22.500000m/h.</desc>
<speed>6.250000</speed>
</trkpt>
<trkpt lat="42.493324" lon="18.691418">
<ele>13.595100</ele>
<time>2012-05-02T11:24:50Z</time>
<desc>lat.=42.493324, lon.=18.691418, Alt.=13.595100m. Speed=24.912001m/h.</desc>
<speed>6.920000</speed>
</trkpt>
<trkpt lat="42.492996" lon="18.691471">
<ele>14.287971</ele>
<time>2012-05-02T11:24:55Z</time>
<desc>lat.=42.492996, lon.=18.691471, Alt.=14.287971m. Speed=25.812000m/h.</desc>
<speed>7.170000</speed>
</trkpt>
<trkpt lat="42.492664" lon="18.691475">
<ele>15.324348</ele>
<time>2012-05-02T11:25:00Z</time>
<desc>lat.=42.492664, lon.=18.691475, Alt.=15.324348m. Speed=25.812000m/h.</desc>
<speed>7.170000</speed>
</trkpt>
<trkpt lat="42.492336" lon="18.691500">
<ele>14.240120</ele>
<time>2012-05-02T11:25:05Z</time>
<desc>lat.=42.492336, lon.=18.691500, Alt.=14.240120m. Speed=28.440001m/h.</desc>
<speed>7.900000</speed>
</trkpt>
<trkpt lat="42.492001" lon="18.691607">
<ele>13.449348</ele>
<time>2012-05-02T11:25:10Z</time>
<desc>lat.=42.492001, lon.=18.691607, Alt.=13.449348m. Speed=28.656000m/h.</desc>
<speed>7.960000</speed>
</trkpt>
<trkpt lat="42.491665" lon="18.691767">
<ele>12.524544</ele>
<time>2012-05-02T11:25:15Z</time>
<desc>lat.=42.491665, lon.=18.691767, Alt.=12.524544m. Speed=26.424000m/h.</desc>
<speed>7.340000</speed>
</trkpt>
<trkpt lat="42.491364" lon="18.691929">
<ele>10.971809</ele>
<time>2012-05-02T11:25:20Z</time>
<desc>lat.=42.491364, lon.=18.691929, Alt.=10.971809m. Speed=25.955999m/h.</desc>
<speed>7.210000</speed>
</trkpt>
<trkpt lat="42.491062" lon="18.692104">
<ele>11.247200</ele>
<time>2012-05-02T11:25:25Z</time>
<desc>lat.=42.491062, lon.=18.692104, Alt.=11.247200m. Speed=25.091999m/h.</desc>
<speed>6.970000</speed>
</trkpt>
<trkpt lat="42.490810" lon="18.692211">
<ele>11.192757</ele>
<time>2012-05-02T11:25:30Z</time>
<desc>lat.=42.490810, lon.=18.692211, Alt.=11.192757m. Speed=14.400000m/h.</desc>
<speed>4.000000</speed>
</trkpt>
<trkpt lat="42.490734" lon="18.692284">
<ele>10.563850</ele>
<time>2012-05-02T11:25:35Z</time>
<desc>lat.=42.490734, lon.=18.692284, Alt.=10.563850m. Speed=4.752000m/h.</desc>
<speed>1.320000</speed>
</trkpt>
<trkpt lat="42.490723" lon="18.692276">
<ele>10.390022</ele>
<time>2012-05-02T11:25:40Z</time>
<desc>lat.=42.490723, lon.=18.692276, Alt.=10.390022m. Speed=0.144000m/h.</desc>
<speed>0.040000</speed>
</trkpt>
<trkpt lat="42.490723" lon="18.692276">
<ele>10.321907</ele>
<time>2012-05-02T11:25:45Z</time>
<desc>lat.=42.490723, lon.=18.692276, Alt.=10.321907m. Speed=0.144000m/h.</desc>
<speed>0.040000</speed>
</trkpt>
<trkpt lat="42.490723" lon="18.692278">
<ele>10.351692</ele>
<time>2012-05-02T11:25:50Z</time>
<desc>lat.=42.490723, lon.=18.692278, Alt.=10.351692m. Speed=1.188000m/h.</desc>
<speed>0.330000</speed>
</trkpt>
<trkpt lat="42.490692" lon="18.692301">
<ele>9.805794</ele>
<time>2012-05-02T11:25:55Z</time>
<desc>lat.=42.490692, lon.=18.692301, Alt.=9.805794m. Speed=5.112000m/h.</desc>
<speed>1.420000</speed>
</trkpt>
<trkpt lat="42.490627" lon="18.692373">
<ele>8.902962</ele>
<time>2012-05-02T11:26:00Z</time>
<desc>lat.=42.490627, lon.=18.692373, Alt.=8.902962m. Speed=8.388000m/h.</desc>
<speed>2.330000</speed>
</trkpt>
<trkpt lat="42.490532" lon="18.692450">
<ele>7.683170</ele>
<time>2012-05-02T11:26:05Z</time>
<desc>lat.=42.490532, lon.=18.692450, Alt.=7.683170m. Speed=9.972000m/h.</desc>
<speed>2.770000</speed>
</trkpt>
<trkpt lat="42.490421" lon="18.692528">
<ele>7.094913</ele>
<time>2012-05-02T11:26:10Z</time>
<desc>lat.=42.490421, lon.=18.692528, Alt.=7.094913m. Speed=9.612000m/h.</desc>
<speed>2.670000</speed>
</trkpt>
<trkpt lat="42.490387" lon="18.692602">
<ele>5.236393</ele>
<time>2012-05-02T11:26:15Z</time>
<desc>lat.=42.490387, lon.=18.692602, Alt.=5.236393m. Speed=0.720000m/h.</desc>
<speed>0.200000</speed>
</trkpt>
<trkpt lat="42.490364" lon="18.692625">
<ele>5.866154</ele>
<time>2012-05-02T11:26:20Z</time>
<desc>lat.=42.490364, lon.=18.692625, Alt.=5.866154m. Speed=2.916000m/h.</desc>
<speed>0.810000</speed>
</trkpt>
<trkpt lat="42.490334" lon="18.692667">
<ele>5.458805</ele>
<time>2012-05-02T11:26:25Z</time>
<desc>lat.=42.490334, lon.=18.692667, Alt.=5.458805m. Speed=3.852000m/h.</desc>
<speed>1.070000</speed>
</trkpt>
<trkpt lat="42.490303" lon="18.692730">
<ele>5.401066</ele>
<time>2012-05-02T11:26:30Z</time>
<desc>lat.=42.490303, lon.=18.692730, Alt.=5.401066m. Speed=4.104000m/h.</desc>
<speed>1.140000</speed>
</trkpt>
<trkpt lat="42.490299" lon="18.692764">
<ele>5.875309</ele>
<time>2012-05-02T11:26:35Z</time>
<desc>lat.=42.490299, lon.=18.692764, Alt.=5.875309m. Speed=0.468000m/h.</desc>
<speed>0.130000</speed>
</trkpt>
<trkpt lat="42.490307" lon="18.692766">
<ele>5.883121</ele>
<time>2012-05-02T11:26:40Z</time>
<desc>lat.=42.490307, lon.=18.692766, Alt.=5.883121m. Speed=0.144000m/h.</desc>
<speed>0.040000</speed>
</trkpt>
<trkpt lat="42.490307" lon="18.692768">
<ele>5.833805</ele>
<time>2012-05-02T11:26:45Z</time>
<desc>lat.=42.490307, lon.=18.692768, Alt.=5.833805m. Speed=0.072000m/h.</desc>
<speed>0.020000</speed>
</trkpt>
<trkpt lat="42.490307" lon="18.692770">
<ele>5.856510</ele>
<time>2012-05-02T11:26:50Z</time>
<desc>lat.=42.490307, lon.=18.692770, Alt.=5.856510m. Speed=0.072000m/h.</desc>
<speed>0.020000</speed>
</trkpt>
<trkpt lat="42.490307" lon="18.692770">
<ele>5.848576</ele>
<time>2012-05-02T11:26:55Z</time>
<desc>lat.=42.490307, lon.=18.692770, Alt.=5.848576m. Speed=0.072000m/h.</desc>
<speed>0.020000</speed>
</trkpt>
<trkpt lat="42.490307" lon="18.692770">
<ele>5.836124</ele>
<time>2012-05-02T11:27:00Z</time>
<desc>lat.=42.490307, lon.=18.692770, Alt.=5.836124m. Speed=0.036000m/h.</desc>
<speed>0.010000</speed>
</trkpt>
<trkpt lat="42.490307" lon="18.692770">
<ele>5.853336</ele>
<time>2012-05-02T11:27:05Z</time>
<desc>lat.=42.490307, lon.=18.692770, Alt.=5.853336m. Speed=0.216000m/h.</desc>
<speed>0.060000</speed>
</trkpt>
<trkpt lat="42.490288" lon="18.692804">
<ele>6.452579</ele>
<time>2012-05-02T11:27:10Z</time>
<desc>lat.=42.490288, lon.=18.692804, Alt.=6.452579m. Speed=5.940000m/h.</desc>
<speed>1.650000</speed>
</trkpt>
<trkpt lat="42.490189" lon="18.692909">
<ele>7.267399</ele>
<time>2012-05-02T11:27:15Z</time>
<desc>lat.=42.490189, lon.=18.692909, Alt.=7.267399m. Speed=12.420000m/h.</desc>
<speed>3.450000</speed>
</trkpt>
<trkpt lat="42.490059" lon="18.693022">
<ele>7.580021</ele>
<time>2012-05-02T11:27:20Z</time>
<desc>lat.=42.490059, lon.=18.693022, Alt.=7.580021m. Speed=12.240000m/h.</desc>
<speed>3.400000</speed>
</trkpt>
<trkpt lat="42.489937" lon="18.693157">
<ele>7.594669</ele>
<time>2012-05-02T11:27:25Z</time>
<desc>lat.=42.489937, lon.=18.693157, Alt.=7.594669m. Speed=12.276000m/h.</desc>
<speed>3.410000</speed>
</trkpt>
<trkpt lat="42.489803" lon="18.693296">
<ele>8.033333</ele>
<time>2012-05-02T11:27:30Z</time>
<desc>lat.=42.489803, lon.=18.693296, Alt.=8.033333m. Speed=10.980000m/h.</desc>
<speed>3.050000</speed>
</trkpt>
<trkpt lat="42.489719" lon="18.693378">
<ele>8.793587</ele>
<time>2012-05-02T11:27:35Z</time>
<desc>lat.=42.489719, lon.=18.693378, Alt.=8.793587m. Speed=7.344000m/h.</desc>
<speed>2.040000</speed>
</trkpt>
<trkpt lat="42.489662" lon="18.693401">
<ele>8.808968</ele>
<time>2012-05-02T11:27:40Z</time>
<desc>lat.=42.489662, lon.=18.693401, Alt.=8.808968m. Speed=2.052000m/h.</desc>
<speed>0.570000</speed>
</trkpt>
<trkpt lat="42.489658" lon="18.693407">
<ele>8.900276</ele>
<time>2012-05-02T11:27:45Z</time>
<desc>lat.=42.489658, lon.=18.693407, Alt.=8.900276m. Speed=0.360000m/h.</desc>
<speed>0.100000</speed>
</trkpt>
<trkpt lat="42.489662" lon="18.693407">
<ele>8.930061</ele>
<time>2012-05-02T11:27:50Z</time>
<desc>lat.=42.489662, lon.=18.693407, Alt.=8.930061m. Speed=0.252000m/h.</desc>
<speed>0.070000</speed>
</trkpt>
<trkpt lat="42.489666" lon="18.693405">
<ele>8.995491</ele>
<time>2012-05-02T11:27:55Z</time>
<desc>lat.=42.489666, lon.=18.693405, Alt.=8.995491m. Speed=0.576000m/h.</desc>
<speed>0.160000</speed>
</trkpt>
<trkpt lat="42.489666" lon="18.693411">
<ele>9.074104</ele>
<time>2012-05-02T11:28:00Z</time>
<desc>lat.=42.489666, lon.=18.693411, Alt.=9.074104m. Speed=0.108000m/h.</desc>
<speed>0.030000</speed>
</trkpt>
<trkpt lat="42.489670" lon="18.693415">
<ele>9.141731</ele>
<time>2012-05-02T11:28:05Z</time>
<desc>lat.=42.489670, lon.=18.693415, Alt.=9.141731m. Speed=0.288000m/h.</desc>
<speed>0.080000</speed>
</trkpt>
<trkpt lat="42.489670" lon="18.693422">
<ele>9.182991</ele>
<time>2012-05-02T11:28:10Z</time>
<desc>lat.=42.489670, lon.=18.693422, Alt.=9.182991m. Speed=0.792000m/h.</desc>
<speed>0.220000</speed>
</trkpt>
<trkpt lat="42.489670" lon="18.693432">
<ele>9.225227</ele>
<time>2012-05-02T11:28:15Z</time>
<desc>lat.=42.489670, lon.=18.693432, Alt.=9.225227m. Speed=0.072000m/h.</desc>
<speed>0.020000</speed>
</trkpt>
<trkpt lat="42.489670" lon="18.693434">
<ele>9.239632</ele>
<time>2012-05-02T11:28:20Z</time>
<desc>lat.=42.489670, lon.=18.693434, Alt.=9.239632m. Speed=0.432000m/h.</desc>
<speed>0.120000</speed>
</trkpt>
<trkpt lat="42.489674" lon="18.693441">
<ele>9.261848</ele>
<time>2012-05-02T11:28:25Z</time>
<desc>lat.=42.489674, lon.=18.693441, Alt.=9.261848m. Speed=0.360000m/h.</desc>
<speed>0.100000</speed>
</trkpt>
<trkpt lat="42.489674" lon="18.693441">
<ele>9.269905</ele>
<time>2012-05-02T11:28:30Z</time>
<desc>lat.=42.489674, lon.=18.693441, Alt.=9.269905m. Speed=0.288000m/h.</desc>
<speed>0.080000</speed>
</trkpt>
<trkpt lat="42.489670" lon="18.693445">
<ele>9.276009</ele>
<time>2012-05-02T11:28:35Z</time>
<desc>lat.=42.489670, lon.=18.693445, Alt.=9.276009m. Speed=0.108000m/h.</desc>
<speed>0.030000</speed>
</trkpt>
<trkpt lat="42.489666" lon="18.693445">
<ele>9.254280</ele>
<time>2012-05-02T11:28:40Z</time>
<desc>lat.=42.489666, lon.=18.693445, Alt.=9.254280m. Speed=0.360000m/h.</desc>
<speed>0.100000</speed>
</trkpt>
<trkpt lat="42.489666" lon="18.693441">
<ele>9.213020</ele>
<time>2012-05-02T11:28:45Z</time>
<desc>lat.=42.489666, lon.=18.693441, Alt.=9.213020m. Speed=0.540000m/h.</desc>
<speed>0.150000</speed>
</trkpt>
<trkpt lat="42.489662" lon="18.693443">
<ele>9.196419</ele>
<time>2012-05-02T11:28:50Z</time>
<desc>lat.=42.489662, lon.=18.693443, Alt.=9.196419m. Speed=0.072000m/h.</desc>
<speed>0.020000</speed>
</trkpt>
<trkpt lat="42.489662" lon="18.693443">
<ele>9.180061</ele>
<time>2012-05-02T11:28:55Z</time>
<desc>lat.=42.489662, lon.=18.693443, Alt.=9.180061m. Speed=0.072000m/h.</desc>
<speed>0.020000</speed>
</trkpt>
<trkpt lat="42.489662" lon="18.693443">
<ele>9.172737</ele>
<time>2012-05-02T11:29:00Z</time>
<desc>lat.=42.489662, lon.=18.693443, Alt.=9.172737m. Speed=0.072000m/h.</desc>
<speed>0.020000</speed>
</trkpt>
<trkpt lat="42.489662" lon="18.693443">
<ele>9.168098</ele>
<time>2012-05-02T11:29:05Z</time>
<desc>lat.=42.489662, lon.=18.693443, Alt.=9.168098m. Speed=0.036000m/h.</desc>
<speed>0.010000</speed>
</trkpt>
<trkpt lat="42.489662" lon="18.693443">
<ele>9.154915</ele>
<time>2012-05-02T11:29:10Z</time>
<desc>lat.=42.489662, lon.=18.693443, Alt.=9.154915m. Speed=0.072000m/h.</desc>
<speed>0.020000</speed>
</trkpt>
<trkpt lat="42.489666" lon="18.693443">
<ele>9.167122</ele>
<time>2012-05-02T11:29:15Z</time>
<desc>lat.=42.489666, lon.=18.693443, Alt.=9.167122m. Speed=0.036000m/h.</desc>
<speed>0.010000</speed>
</trkpt>
<trkpt lat="42.489666" lon="18.693443">
<ele>9.178596</ele>
<time>2012-05-02T11:29:20Z</time>
<desc>lat.=42.489666, lon.=18.693443, Alt.=9.178596m. Speed=0.000000m/h.</desc>
<speed>0.000000</speed>
</trkpt>
<trkpt lat="42.489666" lon="18.693443">
<ele>9.181526</ele>
<time>2012-05-02T11:29:25Z</time>
<desc>lat.=42.489666, lon.=18.693443, Alt.=9.181526m. Speed=0.000000m/h.</desc>
<speed>0.000000</speed>
</trkpt>
<trkpt lat="42.489666" lon="18.693445">
<ele>9.181526</ele>
<time>2012-05-02T11:29:30Z</time>
<desc>lat.=42.489666, lon.=18.693445, Alt.=9.181526m. Speed=0.000000m/h.</desc>
<speed>0.000000</speed>
</trkpt>
<trkpt lat="42.489666" lon="18.693445">
<ele>9.206429</ele>
<time>2012-05-02T11:29:35Z</time>
<desc>lat.=42.489666, lon.=18.693445, Alt.=9.206429m. Speed=0.072000m/h.</desc>
<speed>0.020000</speed>
</trkpt>
<trkpt lat="42.489666" lon="18.693445">
<ele>9.203255</ele>
<time>2012-05-02T11:29:40Z</time>
<desc>lat.=42.489666, lon.=18.693445, Alt.=9.203255m. Speed=0.036000m/h.</desc>
<speed>0.010000</speed>
</trkpt>
<trkpt lat="42.489666" lon="18.693445">
<ele>9.216682</ele>
<time>2012-05-02T11:29:45Z</time>
<desc>lat.=42.489666, lon.=18.693445, Alt.=9.216682m. Speed=0.036000m/h.</desc>
<speed>0.010000</speed>
</trkpt>
<trkpt lat="42.489666" lon="18.693445">
<ele>9.238899</ele>
<time>2012-05-02T11:29:50Z</time>
<desc>lat.=42.489666, lon.=18.693445, Alt.=9.238899m. Speed=0.072000m/h.</desc>
<speed>0.020000</speed>
</trkpt>
<trkpt lat="42.489666" lon="18.693445">
<ele>9.235481</ele>
<time>2012-05-02T11:29:55Z</time>
<desc>lat.=42.489666, lon.=18.693445, Alt.=9.235481m. Speed=0.036000m/h.</desc>
<speed>0.010000</speed>
</trkpt>
<trkpt lat="42.489666" lon="18.693445">
<ele>9.200569</ele>
<time>2012-05-02T11:30:00Z</time>
<desc>lat.=42.489666, lon.=18.693445, Alt.=9.200569m. Speed=0.072000m/h.</desc>
<speed>0.020000</speed>
</trkpt>
<trkpt lat="42.489635" lon="18.693529">
<ele>9.514290</ele>
<time>2012-05-02T11:30:05Z</time>
<desc>lat.=42.489635, lon.=18.693529, Alt.=9.514290m. Speed=11.988000m/h.</desc>
<speed>3.330000</speed>
</trkpt>
<trkpt lat="42.489559" lon="18.693668">
<ele>9.112190</ele>
<time>2012-05-02T11:30:10Z</time>
<desc>lat.=42.489559, lon.=18.693668, Alt.=9.112190m. Speed=11.844000m/h.</desc>
<speed>3.290000</speed>
</trkpt>
<trkpt lat="42.489483" lon="18.693823">
<ele>8.567024</ele>
<time>2012-05-02T11:30:15Z</time>
<desc>lat.=42.489483, lon.=18.693823, Alt.=8.567024m. Speed=11.736000m/h.</desc>
<speed>3.260000</speed>
</trkpt>
<trkpt lat="42.489361" lon="18.693996">
<ele>9.117317</ele>
<time>2012-05-02T11:30:20Z</time>
<desc>lat.=42.489361, lon.=18.693996, Alt.=9.117317m. Speed=13.608000m/h.</desc>
<speed>3.780000</speed>
</trkpt>
<trkpt lat="42.489174" lon="18.694183">
<ele>11.011116</ele>
<time>2012-05-02T11:30:25Z</time>
<desc>lat.=42.489174, lon.=18.694183, Alt.=11.011116m. Speed=18.612000m/h.</desc>
<speed>5.170000</speed>
</trkpt>
<trkpt lat="42.488949" lon="18.694414">
<ele>11.437386</ele>
<time>2012-05-02T11:30:30Z</time>
<desc>lat.=42.488949, lon.=18.694414, Alt.=11.437386m. Speed=23.724001m/h.</desc>
<speed>6.590000</speed>
</trkpt>
<trkpt lat="42.488667" lon="18.694630">
<ele>12.695686</ele>
<time>2012-05-02T11:30:35Z</time>
<desc>lat.=42.488667, lon.=18.694630, Alt.=12.695686m. Speed=23.184000m/h.</desc>
<speed>6.440000</speed>
</trkpt>
<trkpt lat="42.488430" lon="18.694733">
<ele>16.235611</ele>
<time>2012-05-02T11:30:40Z</time>
<desc>lat.=42.488430, lon.=18.694733, Alt.=16.235611m. Speed=15.300000m/h.</desc>
<speed>4.250000</speed>
</trkpt>
<trkpt lat="42.488262" lon="18.694883">
<ele>13.679573</ele>
<time>2012-05-02T11:30:45Z</time>
<desc>lat.=42.488262, lon.=18.694883, Alt.=13.679573m. Speed=14.652000m/h.</desc>
<speed>4.070000</speed>
</trkpt>
<trkpt lat="42.488098" lon="18.695034">
<ele>11.744026</ele>
<time>2012-05-02T11:30:50Z</time>
<desc>lat.=42.488098, lon.=18.695034, Alt.=11.744026m. Speed=14.904000m/h.</desc>
<speed>4.140000</speed>
</trkpt>
<trkpt lat="42.487968" lon="18.695261">
<ele>10.599007</ele>
<time>2012-05-02T11:30:55Z</time>
<desc>lat.=42.487968, lon.=18.695261, Alt.=10.599007m. Speed=14.796000m/h.</desc>
<speed>4.110000</speed>
</trkpt>
<trkpt lat="42.487915" lon="18.695351">
<ele>9.782600</ele>
<time>2012-05-02T11:31:00Z</time>
<desc>lat.=42.487915, lon.=18.695351, Alt.=9.782600m. Speed=2.160000m/h.</desc>
<speed>0.600000</speed>
</trkpt>
<trkpt lat="42.487930" lon="18.695339">
<ele>8.218391</ele>
<time>2012-05-02T11:31:05Z</time>
<desc>lat.=42.487930, lon.=18.695339, Alt.=8.218391m. Speed=0.072000m/h.</desc>
<speed>0.020000</speed>
</trkpt>
<trkpt lat="42.487930" lon="18.695335">
<ele>8.111946</ele>
<time>2012-05-02T11:31:10Z</time>
<desc>lat.=42.487930, lon.=18.695335, Alt.=8.111946m. Speed=0.180000m/h.</desc>
<speed>0.050000</speed>
</trkpt>
<trkpt lat="42.487919" lon="18.695345">
<ele>8.160042</ele>
<time>2012-05-02T11:31:15Z</time>
<desc>lat.=42.487919, lon.=18.695345, Alt.=8.160042m. Speed=2.016000m/h.</desc>
<speed>0.560000</speed>
</trkpt>
<trkpt lat="42.487881" lon="18.695393">
<ele>8.259651</ele>
<time>2012-05-02T11:31:20Z</time>
<desc>lat.=42.487881, lon.=18.695393, Alt.=8.259651m. Speed=6.768000m/h.</desc>
<speed>1.880000</speed>
</trkpt>
<trkpt lat="42.487816" lon="18.695545">
<ele>7.237370</ele>
<time>2012-05-02T11:31:25Z</time>
<desc>lat.=42.487816, lon.=18.695545, Alt.=7.237370m. Speed=11.664000m/h.</desc>
<speed>3.240000</speed>
</trkpt>
<trkpt lat="42.487770" lon="18.695835">
<ele>4.749577</ele>
<time>2012-05-02T11:31:30Z</time>
<desc>lat.=42.487770, lon.=18.695835, Alt.=4.749577m. Speed=15.372000m/h.</desc>
<speed>4.270000</speed>
</trkpt>
<trkpt lat="42.487751" lon="18.696106">
<ele>2.127657</ele>
<time>2012-05-02T11:31:35Z</time>
<desc>lat.=42.487751, lon.=18.696106, Alt.=2.127657m. Speed=13.464000m/h.</desc>
<speed>3.740000</speed>
</trkpt>
<trkpt lat="42.487743" lon="18.696335">
<ele>1.031480</ele>
<time>2012-05-02T11:31:40Z</time>
<desc>lat.=42.487743, lon.=18.696335, Alt.=1.031480m. Speed=11.988000m/h.</desc>
<speed>3.330000</speed>
</trkpt>
<trkpt lat="42.487709" lon="18.696533">
<ele>0.832283</ele>
<time>2012-05-02T11:31:45Z</time>
<desc>lat.=42.487709, lon.=18.696533, Alt.=0.832283m. Speed=15.444000m/h.</desc>
<speed>4.290000</speed>
</trkpt>
<trkpt lat="42.487587" lon="18.696749">
<ele>-0.691063</ele>
<time>2012-05-02T11:31:50Z</time>
<desc>lat.=42.487587, lon.=18.696749, Alt.=-0.691063m. Speed=16.344000m/h.</desc>
<speed>4.540000</speed>
</trkpt>
<trkpt lat="42.487404" lon="18.696899">
<ele>-0.664330</ele>
<time>2012-05-02T11:31:55Z</time>
<desc>lat.=42.487404, lon.=18.696899, Alt.=-0.664330m. Speed=17.459999m/h.</desc>
<speed>4.850000</speed>
</trkpt>
<trkpt lat="42.487263" lon="18.697018">
<ele>0.245779</ele>
<time>2012-05-02T11:32:00Z</time>
<desc>lat.=42.487263, lon.=18.697018, Alt.=0.245779m. Speed=6.120000m/h.</desc>
<speed>1.700000</speed>
</trkpt>
<trkpt lat="42.487160" lon="18.697073">
<ele>2.476778</ele>
<time>2012-05-02T11:32:05Z</time>
<desc>lat.=42.487160, lon.=18.697073, Alt.=2.476778m. Speed=9.828000m/h.</desc>
<speed>2.730000</speed>
</trkpt>
<trkpt lat="42.486988" lon="18.697147">
<ele>3.887789</ele>
<time>2012-05-02T11:32:10Z</time>
<desc>lat.=42.486988, lon.=18.697147, Alt.=3.887789m. Speed=15.012000m/h.</desc>
<speed>4.170000</speed>
</trkpt>
<trkpt lat="42.486805" lon="18.697237">
<ele>3.083834</ele>
<time>2012-05-02T11:32:15Z</time>
<desc>lat.=42.486805, lon.=18.697237, Alt.=3.083834m. Speed=16.020000m/h.</desc>
<speed>4.450000</speed>
</trkpt>
<trkpt lat="42.486660" lon="18.697420">
<ele>2.243074</ele>
<time>2012-05-02T11:32:20Z</time>
<desc>lat.=42.486660, lon.=18.697420, Alt.=2.243074m. Speed=15.768000m/h.</desc>
<speed>4.380000</speed>
</trkpt>
<trkpt lat="42.486469" lon="18.697578">
<ele>3.989840</ele>
<time>2012-05-02T11:32:25Z</time>
<desc>lat.=42.486469, lon.=18.697578, Alt.=3.989840m. Speed=17.243999m/h.</desc>
<speed>4.790000</speed>
</trkpt>
<trkpt lat="42.486286" lon="18.697756">
<ele>2.038363</ele>
<time>2012-05-02T11:32:30Z</time>
<desc>lat.=42.486286, lon.=18.697756, Alt.=2.038363m. Speed=17.208000m/h.</desc>
<speed>4.780000</speed>
</trkpt>
<trkpt lat="42.486126" lon="18.697971">
<ele>1.484483</ele>
<time>2012-05-02T11:32:35Z</time>
<desc>lat.=42.486126, lon.=18.697971, Alt.=1.484483m. Speed=18.143999m/h.</desc>
<speed>5.040000</speed>
</trkpt>
<trkpt lat="42.486000" lon="18.698200">
<ele>3.683992</ele>
<time>2012-05-02T11:32:40Z</time>
<desc>lat.=42.486000, lon.=18.698200, Alt.=3.683992m. Speed=16.559999m/h.</desc>
<speed>4.600000</speed>
</trkpt>
<trkpt lat="42.485909" lon="18.698399">
<ele>5.610050</ele>
<time>2012-05-02T11:32:45Z</time>
<desc>lat.=42.485909, lon.=18.698399, Alt.=5.610050m. Speed=11.124000m/h.</desc>
<speed>3.090000</speed>
</trkpt>
<trkpt lat="42.485809" lon="18.698494">
<ele>5.674381</ele>
<time>2012-05-02T11:32:50Z</time>
<desc>lat.=42.485809, lon.=18.698494, Alt.=5.674381m. Speed=10.728000m/h.</desc>
<speed>2.980000</speed>
</trkpt>
<trkpt lat="42.485729" lon="18.698624">
<ele>7.077946</ele>
<time>2012-05-02T11:32:55Z</time>
<desc>lat.=42.485729, lon.=18.698624, Alt.=7.077946m. Speed=9.288000m/h.</desc>
<speed>2.580000</speed>
</trkpt>
<trkpt lat="42.485641" lon="18.698799">
<ele>10.971565</ele>
<time>2012-05-02T11:33:00Z</time>
<desc>lat.=42.485641, lon.=18.698799, Alt.=10.971565m. Speed=12.636000m/h.</desc>
<speed>3.510000</speed>
</trkpt>
<trkpt lat="42.485569" lon="18.699039">
<ele>10.716682</ele>
<time>2012-05-02T11:33:05Z</time>
<desc>lat.=42.485569, lon.=18.699039, Alt.=10.716682m. Speed=14.076000m/h.</desc>
<speed>3.910000</speed>
</trkpt>
<trkpt lat="42.485455" lon="18.699272">
<ele>11.846321</ele>
<time>2012-05-02T11:33:10Z</time>
<desc>lat.=42.485455, lon.=18.699272, Alt.=11.846321m. Speed=17.856001m/h.</desc>
<speed>4.960000</speed>
</trkpt>
<trkpt lat="42.485378" lon="18.699488">
<ele>12.364876</ele>
<time>2012-05-02T11:33:15Z</time>
<desc>lat.=42.485378, lon.=18.699488, Alt.=12.364876m. Speed=9.180000m/h.</desc>
<speed>2.550000</speed>
</trkpt>
<trkpt lat="42.485424" lon="18.699514">
<ele>12.091438</ele>
<time>2012-05-02T11:33:20Z</time>
<desc>lat.=42.485424, lon.=18.699514, Alt.=12.091438m. Speed=4.860000m/h.</desc>
<speed>1.350000</speed>
</trkpt>
<trkpt lat="42.485466" lon="18.699497">
<ele>11.426155</ele>
<time>2012-05-02T11:33:25Z</time>
<desc>lat.=42.485466, lon.=18.699497, Alt.=11.426155m. Speed=1.440000m/h.</desc>
<speed>0.400000</speed>
</trkpt>
<trkpt lat="42.485462" lon="18.699507">
<ele>12.671761</ele>
<time>2012-05-02T11:33:30Z</time>
<desc>lat.=42.485462, lon.=18.699507, Alt.=12.671761m. Speed=0.360000m/h.</desc>
<speed>0.100000</speed>
</trkpt>
<trkpt lat="42.485462" lon="18.699503">
<ele>13.074348</ele>
<time>2012-05-02T11:33:35Z</time>
<desc>lat.=42.485462, lon.=18.699503, Alt.=13.074348m. Speed=0.144000m/h.</desc>
<speed>0.040000</speed>
</trkpt>
<trkpt lat="42.485458" lon="18.699495">
<ele>13.217659</ele>
<time>2012-05-02T11:33:40Z</time>
<desc>lat.=42.485458, lon.=18.699495, Alt.=13.217659m. Speed=0.324000m/h.</desc>
<speed>0.090000</speed>
</trkpt>
<trkpt lat="42.485455" lon="18.699490">
<ele>13.267708</ele>
<time>2012-05-02T11:33:45Z</time>
<desc>lat.=42.485455, lon.=18.699490, Alt.=13.267708m. Speed=0.288000m/h.</desc>
<speed>0.080000</speed>
</trkpt>
<trkpt lat="42.485451" lon="18.699482">
<ele>13.300423</ele>
<time>2012-05-02T11:33:50Z</time>
<desc>lat.=42.485451, lon.=18.699482, Alt.=13.300423m. Speed=0.108000m/h.</desc>
<speed>0.030000</speed>
</trkpt>
<trkpt lat="42.485447" lon="18.699474">
<ele>13.351936</ele>
<time>2012-05-02T11:33:55Z</time>
<desc>lat.=42.485447, lon.=18.699474, Alt.=13.351936m. Speed=2.952000m/h.</desc>
<speed>0.820000</speed>
</trkpt>
<trkpt lat="42.485435" lon="18.699455">
<ele>13.387825</ele>
<time>2012-05-02T11:34:00Z</time>
<desc>lat.=42.485435, lon.=18.699455, Alt.=13.387825m. Speed=1.512000m/h.</desc>
<speed>0.420000</speed>
</trkpt>
<trkpt lat="42.485420" lon="18.699509">
<ele>13.297005</ele>
<time>2012-05-02T11:34:05Z</time>
<desc>lat.=42.485420, lon.=18.699509, Alt.=13.297005m. Speed=5.076000m/h.</desc>
<speed>1.410000</speed>
</trkpt>
<trkpt lat="42.485371" lon="18.699690">
<ele>11.086067</ele>
<time>2012-05-02T11:34:10Z</time>
<desc>lat.=42.485371, lon.=18.699690, Alt.=11.086067m. Speed=10.368000m/h.</desc>
<speed>2.880000</speed>
</trkpt>
<trkpt lat="42.485268" lon="18.699879">
<ele>10.322884</ele>
<time>2012-05-02T11:34:15Z</time>
<desc>lat.=42.485268, lon.=18.699879, Alt.=10.322884m. Speed=13.752000m/h.</desc>
<speed>3.820000</speed>
</trkpt>
<trkpt lat="42.485161" lon="18.700064">
<ele>10.600960</ele>
<time>2012-05-02T11:34:20Z</time>
<desc>lat.=42.485161, lon.=18.700064, Alt.=10.600960m. Speed=13.356000m/h.</desc>
<speed>3.710000</speed>
</trkpt>
<trkpt lat="42.485069" lon="18.700283">
<ele>9.267220</ele>
<time>2012-05-02T11:34:25Z</time>
<desc>lat.=42.485069, lon.=18.700283, Alt.=9.267220m. Speed=16.884001m/h.</desc>
<speed>4.690000</speed>
</trkpt>
<trkpt lat="42.485001" lon="18.700575">
<ele>8.483284</ele>
<time>2012-05-02T11:34:30Z</time>
<desc>lat.=42.485001, lon.=18.700575, Alt.=8.483284m. Speed=15.912000m/h.</desc>
<speed>4.420000</speed>
</trkpt>
<trkpt lat="42.484989" lon="18.700857">
<ele>3.914461</ele>
<time>2012-05-02T11:34:35Z</time>
<desc>lat.=42.484989, lon.=18.700857, Alt.=3.914461m. Speed=15.336000m/h.</desc>
<speed>4.260000</speed>
</trkpt>
<trkpt lat="42.485016" lon="18.701157">
<ele>1.387803</ele>
<time>2012-05-02T11:34:40Z</time>
<desc>lat.=42.485016, lon.=18.701157, Alt.=1.387803m. Speed=17.243999m/h.</desc>
<speed>4.790000</speed>
</trkpt>
<trkpt lat="42.485039" lon="18.701435">
<ele>-0.388462</ele>
<time>2012-05-02T11:34:45Z</time>
<desc>lat.=42.485039, lon.=18.701435, Alt.=-0.388462m. Speed=14.184000m/h.</desc>
<speed>3.940000</speed>
</trkpt>
<trkpt lat="42.485043" lon="18.701681">
<ele>-2.099825</ele>
<time>2012-05-02T11:34:50Z</time>
<desc>lat.=42.485043, lon.=18.701681, Alt.=-2.099825m. Speed=13.788000m/h.</desc>
<speed>3.830000</speed>
</trkpt>
<trkpt lat="42.485073" lon="18.701944">
<ele>-3.341097</ele>
<time>2012-05-02T11:34:55Z</time>
<desc>lat.=42.485073, lon.=18.701944, Alt.=-3.341097m. Speed=19.152000m/h.</desc>
<speed>5.320000</speed>
</trkpt>
<trkpt lat="42.485126" lon="18.702290">
<ele>-0.740624</ele>
<time>2012-05-02T11:35:00Z</time>
<desc>lat.=42.485126, lon.=18.702290, Alt.=-0.740624m. Speed=18.468000m/h.</desc>
<speed>5.130000</speed>
</trkpt>
<trkpt lat="42.485191" lon="18.702570">
<ele>-0.395695</ele>
<time>2012-05-02T11:35:05Z</time>
<desc>lat.=42.485191, lon.=18.702570, Alt.=-0.395695m. Speed=17.747999m/h.</desc>
<speed>4.930000</speed>
</trkpt>
<trkpt lat="42.485229" lon="18.702822">
<ele>0.514397</ele>
<time>2012-05-02T11:35:10Z</time>
<desc>lat.=42.485229, lon.=18.702822, Alt.=0.514397m. Speed=14.364000m/h.</desc>
<speed>3.990000</speed>
</trkpt>
<trkpt lat="42.485199" lon="18.703039">
<ele>0.813607</ele>
<time>2012-05-02T11:35:15Z</time>
<desc>lat.=42.485199, lon.=18.703039, Alt.=0.813607m. Speed=12.276000m/h.</desc>
<speed>3.410000</speed>
</trkpt>
<trkpt lat="42.485058" lon="18.703236">
<ele>1.185014</ele>
<time>2012-05-02T11:35:20Z</time>
<desc>lat.=42.485058, lon.=18.703236, Alt.=1.185014m. Speed=16.740000m/h.</desc>
<speed>4.650000</speed>
</trkpt>
<trkpt lat="42.484875" lon="18.703394">
<ele>2.463900</ele>
<time>2012-05-02T11:35:25Z</time>
<desc>lat.=42.484875, lon.=18.703394, Alt.=2.463900m. Speed=17.243999m/h.</desc>
<speed>4.790000</speed>
</trkpt>
<trkpt lat="42.484680" lon="18.703592">
<ele>3.059237</ele>
<time>2012-05-02T11:35:30Z</time>
<desc>lat.=42.484680, lon.=18.703592, Alt.=3.059237m. Speed=19.764000m/h.</desc>
<speed>5.490000</speed>
</trkpt>
<trkpt lat="42.484497" lon="18.703802">
<ele>3.538729</ele>
<time>2012-05-02T11:35:35Z</time>
<desc>lat.=42.484497, lon.=18.703802, Alt.=3.538729m. Speed=17.243999m/h.</desc>
<speed>4.790000</speed>
</trkpt>
<trkpt lat="42.484360" lon="18.704035">
<ele>3.813143</ele>
<time>2012-05-02T11:35:40Z</time>
<desc>lat.=42.484360, lon.=18.704035, Alt.=3.813143m. Speed=16.775999m/h.</desc>
<speed>4.660000</speed>
</trkpt>
<trkpt lat="42.484238" lon="18.704279">
<ele>4.334415</ele>
<time>2012-05-02T11:35:45Z</time>
<desc>lat.=42.484238, lon.=18.704279, Alt.=4.334415m. Speed=18.000000m/h.</desc>
<speed>5.000000</speed>
</trkpt>
<trkpt lat="42.484200" lon="18.704573">
<ele>5.168766</ele>
<time>2012-05-02T11:35:50Z</time>
<desc>lat.=42.484200, lon.=18.704573, Alt.=5.168766m. Speed=17.496000m/h.</desc>
<speed>4.860000</speed>
</trkpt>
<trkpt lat="42.484180" lon="18.704819">
<ele>5.745060</ele>
<time>2012-05-02T11:35:55Z</time>
<desc>lat.=42.484180, lon.=18.704819, Alt.=5.745060m. Speed=15.120000m/h.</desc>
<speed>4.200000</speed>
</trkpt>
<trkpt lat="42.484154" lon="18.705076">
<ele>6.206486</ele>
<time>2012-05-02T11:36:00Z</time>
<desc>lat.=42.484154, lon.=18.705076, Alt.=6.206486m. Speed=14.328000m/h.</desc>
<speed>3.980000</speed>
</trkpt>
<trkpt lat="42.484161" lon="18.705467">
<ele>5.926823</ele>
<time>2012-05-02T11:36:05Z</time>
<desc>lat.=42.484161, lon.=18.705467, Alt.=5.926823m. Speed=18.143999m/h.</desc>
<speed>5.040000</speed>
</trkpt>
<trkpt lat="42.484188" lon="18.705786">
<ele>7.638493</ele>
<time>2012-05-02T11:36:10Z</time>
<desc>lat.=42.484188, lon.=18.705786, Alt.=7.638493m. Speed=12.852000m/h.</desc>
<speed>3.570000</speed>
</trkpt>
<trkpt lat="42.484268" lon="18.706079">
<ele>6.312199</ele>
<time>2012-05-02T11:36:15Z</time>
<desc>lat.=42.484268, lon.=18.706079, Alt.=6.312199m. Speed=18.360001m/h.</desc>
<speed>5.100000</speed>
</trkpt>
<trkpt lat="42.484360" lon="18.706379">
<ele>6.312321</ele>
<time>2012-05-02T11:36:20Z</time>
<desc>lat.=42.484360, lon.=18.706379, Alt.=6.312321m. Speed=18.719999m/h.</desc>
<speed>5.200000</speed>
</trkpt>
<trkpt lat="42.484341" lon="18.706650">
<ele>6.247746</ele>
<time>2012-05-02T11:36:25Z</time>
<desc>lat.=42.484341, lon.=18.706650, Alt.=6.247746m. Speed=15.912000m/h.</desc>
<speed>4.420000</speed>
</trkpt>
<trkpt lat="42.484303" lon="18.706837">
<ele>6.242496</ele>
<time>2012-05-02T11:36:30Z</time>
<desc>lat.=42.484303, lon.=18.706837, Alt.=6.242496m. Speed=10.584000m/h.</desc>
<speed>2.940000</speed>
</trkpt>
<trkpt lat="42.484264" lon="18.706976">
<ele>6.297184</ele>
<time>2012-05-02T11:36:35Z</time>
<desc>lat.=42.484264, lon.=18.706976, Alt.=6.297184m. Speed=7.344000m/h.</desc>
<speed>2.040000</speed>
</trkpt>
<trkpt lat="42.484249" lon="18.707092">
<ele>6.299747</ele>
<time>2012-05-02T11:36:40Z</time>
<desc>lat.=42.484249, lon.=18.707092, Alt.=6.299747m. Speed=5.760000m/h.</desc>
<speed>1.600000</speed>
</trkpt>
<trkpt lat="42.484249" lon="18.707161">
<ele>6.205875</ele>
<time>2012-05-02T11:36:45Z</time>
<desc>lat.=42.484249, lon.=18.707161, Alt.=6.205875m. Speed=1.080000m/h.</desc>
<speed>0.300000</speed>
</trkpt>
<trkpt lat="42.484241" lon="18.707174">
<ele>5.882755</ele>
<time>2012-05-02T11:36:50Z</time>
<desc>lat.=42.484241, lon.=18.707174, Alt.=5.882755m. Speed=0.144000m/h.</desc>
<speed>0.040000</speed>
</trkpt>
<trkpt lat="42.484245" lon="18.707172">
<ele>5.726871</ele>
<time>2012-05-02T11:36:55Z</time>
<desc>lat.=42.484245, lon.=18.707172, Alt.=5.726871m. Speed=0.288000m/h.</desc>
<speed>0.080000</speed>
</trkpt>
<trkpt lat="42.484241" lon="18.707184">
<ele>5.633488</ele>
<time>2012-05-02T11:37:00Z</time>
<desc>lat.=42.484241, lon.=18.707184, Alt.=5.633488m. Speed=1.008000m/h.</desc>
<speed>0.280000</speed>
</trkpt>
<trkpt lat="42.484241" lon="18.707193">
<ele>5.601871</ele>
<time>2012-05-02T11:37:05Z</time>
<desc>lat.=42.484241, lon.=18.707193, Alt.=5.601871m. Speed=0.288000m/h.</desc>
<speed>0.080000</speed>
</trkpt>
<trkpt lat="42.484241" lon="18.707197">
<ele>5.587711</ele>
<time>2012-05-02T11:37:10Z</time>
<desc>lat.=42.484241, lon.=18.707197, Alt.=5.587711m. Speed=0.396000m/h.</desc>
<speed>0.110000</speed>
</trkpt>
<trkpt lat="42.484241" lon="18.707205">
<ele>5.573185</ele>
<time>2012-05-02T11:37:15Z</time>
<desc>lat.=42.484241, lon.=18.707205, Alt.=5.573185m. Speed=0.360000m/h.</desc>
<speed>0.100000</speed>
</trkpt>
<trkpt lat="42.484241" lon="18.707214">
<ele>5.566227</ele>
<time>2012-05-02T11:37:20Z</time>
<desc>lat.=42.484241, lon.=18.707214, Alt.=5.566227m. Speed=0.720000m/h.</desc>
<speed>0.200000</speed>
</trkpt>
<trkpt lat="42.484241" lon="18.707230">
<ele>5.549992</ele>
<time>2012-05-02T11:37:25Z</time>
<desc>lat.=42.484241, lon.=18.707230, Alt.=5.549992m. Speed=1.008000m/h.</desc>
<speed>0.280000</speed>
</trkpt>
<trkpt lat="42.484234" lon="18.707247">
<ele>5.531803</ele>
<time>2012-05-02T11:37:30Z</time>
<desc>lat.=42.484234, lon.=18.707247, Alt.=5.531803m. Speed=0.936000m/h.</desc>
<speed>0.260000</speed>
</trkpt>
<trkpt lat="42.484230" lon="18.707253">
<ele>5.520451</ele>
<time>2012-05-02T11:37:35Z</time>
<desc>lat.=42.484230, lon.=18.707253, Alt.=5.520451m. Speed=0.288000m/h.</desc>
<speed>0.080000</speed>
</trkpt>
<trkpt lat="42.484226" lon="18.707247">
<ele>5.498600</ele>
<time>2012-05-02T11:37:40Z</time>
<desc>lat.=42.484226, lon.=18.707247, Alt.=5.498600m. Speed=0.180000m/h.</desc>
<speed>0.050000</speed>
</trkpt>
<trkpt lat="42.484230" lon="18.707245">
<ele>5.452824</ele>
<time>2012-05-02T11:37:45Z</time>
<desc>lat.=42.484230, lon.=18.707245, Alt.=5.452824m. Speed=0.288000m/h.</desc>
<speed>0.080000</speed>
</trkpt>
<trkpt lat="42.484234" lon="18.707245">
<ele>5.394718</ele>
<time>2012-05-02T11:37:50Z</time>
<desc>lat.=42.484234, lon.=18.707245, Alt.=5.394718m. Speed=0.036000m/h.</desc>
<speed>0.010000</speed>
</trkpt>
<trkpt lat="42.484234" lon="18.707245">
<ele>5.382511</ele>
<time>2012-05-02T11:37:55Z</time>
<desc>lat.=42.484234, lon.=18.707245, Alt.=5.382511m. Speed=0.036000m/h.</desc>
<speed>0.010000</speed>
</trkpt>
<trkpt lat="42.484234" lon="18.707245">
<ele>5.408024</ele>
<time>2012-05-02T11:38:00Z</time>
<desc>lat.=42.484234, lon.=18.707245, Alt.=5.408024m. Speed=0.072000m/h.</desc>
<speed>0.020000</speed>
</trkpt>
<trkpt lat="42.484234" lon="18.707245">
<ele>5.407536</ele>
<time>2012-05-02T11:38:05Z</time>
<desc>lat.=42.484234, lon.=18.707245, Alt.=5.407536m. Speed=0.036000m/h.</desc>
<speed>0.010000</speed>
</trkpt>
<trkpt lat="42.484234" lon="18.707245">
<ele>5.402409</ele>
<time>2012-05-02T11:38:10Z</time>
<desc>lat.=42.484234, lon.=18.707245, Alt.=5.402409m. Speed=0.036000m/h.</desc>
<speed>0.010000</speed>
</trkpt>
<trkpt lat="42.484234" lon="18.707245">
<ele>5.409733</ele>
<time>2012-05-02T11:38:15Z</time>
<desc>lat.=42.484234, lon.=18.707245, Alt.=5.409733m. Speed=0.036000m/h.</desc>
<speed>0.010000</speed>
</trkpt>
<trkpt lat="42.484234" lon="18.707243">
<ele>5.406193</ele>
<time>2012-05-02T11:38:20Z</time>
<desc>lat.=42.484234, lon.=18.707243, Alt.=5.406193m. Speed=0.036000m/h.</desc>
<speed>0.010000</speed>
</trkpt>
<trkpt lat="42.484234" lon="18.707243">
<ele>5.400944</ele>
<time>2012-05-02T11:38:25Z</time>
<desc>lat.=42.484234, lon.=18.707243, Alt.=5.400944m. Speed=0.072000m/h.</desc>
<speed>0.020000</speed>
</trkpt>
<trkpt lat="42.484234" lon="18.707245">
<ele>5.391788</ele>
<time>2012-05-02T11:38:30Z</time>
<desc>lat.=42.484234, lon.=18.707245, Alt.=5.391788m. Speed=0.072000m/h.</desc>
<speed>0.020000</speed>
</trkpt>
<trkpt lat="42.484234" lon="18.707243">
<ele>5.441105</ele>
<time>2012-05-02T11:38:35Z</time>
<desc>lat.=42.484234, lon.=18.707243, Alt.=5.441105m. Speed=0.072000m/h.</desc>
<speed>0.020000</speed>
</trkpt>
<trkpt lat="42.484234" lon="18.707243">
<ele>5.434635</ele>
<time>2012-05-02T11:38:40Z</time>
<desc>lat.=42.484234, lon.=18.707243, Alt.=5.434635m. Speed=0.036000m/h.</desc>
<speed>0.010000</speed>
</trkpt>
<trkpt lat="42.484234" lon="18.707243">
<ele>5.445011</ele>
<time>2012-05-02T11:38:45Z</time>
<desc>lat.=42.484234, lon.=18.707243, Alt.=5.445011m. Speed=0.072000m/h.</desc>
<speed>0.020000</speed>
</trkpt>
<trkpt lat="42.484234" lon="18.707243">
<ele>5.476505</ele>
<time>2012-05-02T11:38:50Z</time>
<desc>lat.=42.484234, lon.=18.707243, Alt.=5.476505m. Speed=0.036000m/h.</desc>
<speed>0.010000</speed>
</trkpt>
<trkpt lat="42.484230" lon="18.707241">
<ele>5.515079</ele>
<time>2012-05-02T11:38:55Z</time>
<desc>lat.=42.484230, lon.=18.707241, Alt.=5.515079m. Speed=0.000000m/h.</desc>
<speed>0.000000</speed>
</trkpt>
<trkpt lat="42.484234" lon="18.707241">
<ele>5.494572</ele>
<time>2012-05-02T11:39:00Z</time>
<desc>lat.=42.484234, lon.=18.707241, Alt.=5.494572m. Speed=0.036000m/h.</desc>
<speed>0.010000</speed>
</trkpt>
<trkpt lat="42.484234" lon="18.707241">
<ele>5.518864</ele>
<time>2012-05-02T11:39:05Z</time>
<desc>lat.=42.484234, lon.=18.707241, Alt.=5.518864m. Speed=0.036000m/h.</desc>
<speed>0.010000</speed>
</trkpt>
<trkpt lat="42.484234" lon="18.707241">
<ele>5.557804</ele>
<time>2012-05-02T11:39:10Z</time>
<desc>lat.=42.484234, lon.=18.707241, Alt.=5.557804m. Speed=0.072000m/h.</desc>
<speed>0.020000</speed>
</trkpt>
<trkpt lat="42.484234" lon="18.707241">
<ele>5.595768</ele>
<time>2012-05-02T11:39:15Z</time>
<desc>lat.=42.484234, lon.=18.707241, Alt.=5.595768m. Speed=0.036000m/h.</desc>
<speed>0.010000</speed>
</trkpt>
<trkpt lat="42.484234" lon="18.707241">
<ele>5.651432</ele>
<time>2012-05-02T11:39:20Z</time>
<desc>lat.=42.484234, lon.=18.707241, Alt.=5.651432m. Speed=0.108000m/h.</desc>
<speed>0.030000</speed>
</trkpt>
<trkpt lat="42.484234" lon="18.707243">
<ele>5.670475</ele>
<time>2012-05-02T11:39:25Z</time>
<desc>lat.=42.484234, lon.=18.707243, Alt.=5.670475m. Speed=0.000000m/h.</desc>
<speed>0.000000</speed>
</trkpt>
<trkpt lat="42.484234" lon="18.707243">
<ele>5.685856</ele>
<time>2012-05-02T11:39:30Z</time>
<desc>lat.=42.484234, lon.=18.707243, Alt.=5.685856m. Speed=0.036000m/h.</desc>
<speed>0.010000</speed>
</trkpt>
<trkpt lat="42.484234" lon="18.707243">
<ele>5.724064</ele>
<time>2012-05-02T11:39:35Z</time>
<desc>lat.=42.484234, lon.=18.707243, Alt.=5.724064m. Speed=0.072000m/h.</desc>
<speed>0.020000</speed>
</trkpt>
<trkpt lat="42.484234" lon="18.707241">
<ele>5.655704</ele>
<time>2012-05-02T11:39:40Z</time>
<desc>lat.=42.484234, lon.=18.707241, Alt.=5.655704m. Speed=0.108000m/h.</desc>
<speed>0.030000</speed>
</trkpt>
<trkpt lat="42.484234" lon="18.707241">
<ele>5.657902</ele>
<time>2012-05-02T11:39:45Z</time>
<desc>lat.=42.484234, lon.=18.707241, Alt.=5.657902m. Speed=0.000000m/h.</desc>
<speed>0.000000</speed>
</trkpt>
<trkpt lat="42.484234" lon="18.707239">
<ele>5.663395</ele>
<time>2012-05-02T11:39:50Z</time>
<desc>lat.=42.484234, lon.=18.707239, Alt.=5.663395m. Speed=0.072000m/h.</desc>
<speed>0.020000</speed>
</trkpt>
<trkpt lat="42.484234" lon="18.707239">
<ele>5.649723</ele>
<time>2012-05-02T11:39:55Z</time>
<desc>lat.=42.484234, lon.=18.707239, Alt.=5.649723m. Speed=0.108000m/h.</desc>
<speed>0.030000</speed>
</trkpt>
<trkpt lat="42.484234" lon="18.707239">
<ele>5.672306</ele>
<time>2012-05-02T11:40:00Z</time>
<desc>lat.=42.484234, lon.=18.707239, Alt.=5.672306m. Speed=0.072000m/h.</desc>
<speed>0.020000</speed>
</trkpt>
<trkpt lat="42.484234" lon="18.707239">
<ele>5.684147</ele>
<time>2012-05-02T11:40:05Z</time>
<desc>lat.=42.484234, lon.=18.707239, Alt.=5.684147m. Speed=0.036000m/h.</desc>
<speed>0.010000</speed>
</trkpt>
<trkpt lat="42.484234" lon="18.707237">
<ele>5.699284</ele>
<time>2012-05-02T11:40:10Z</time>
<desc>lat.=42.484234, lon.=18.707237, Alt.=5.699284m. Speed=0.000000m/h.</desc>
<speed>0.000000</speed>
</trkpt>
<trkpt lat="42.484234" lon="18.707237">
<ele>5.701725</ele>
<time>2012-05-02T11:40:15Z</time>
<desc>lat.=42.484234, lon.=18.707237, Alt.=5.701725m. Speed=0.072000m/h.</desc>
<speed>0.020000</speed>
</trkpt>
<trkpt lat="42.484234" lon="18.707237">
<ele>5.688908</ele>
<time>2012-05-02T11:40:20Z</time>
<desc>lat.=42.484234, lon.=18.707237, Alt.=5.688908m. Speed=0.000000m/h.</desc>
<speed>0.000000</speed>
</trkpt>
<trkpt lat="42.484234" lon="18.707237">
<ele>5.669987</ele>
<time>2012-05-02T11:40:25Z</time>
<desc>lat.=42.484234, lon.=18.707237, Alt.=5.669987m. Speed=0.036000m/h.</desc>
<speed>0.010000</speed>
</trkpt>
<trkpt lat="42.484234" lon="18.707237">
<ele>5.621403</ele>
<time>2012-05-02T11:40:30Z</time>
<desc>lat.=42.484234, lon.=18.707237, Alt.=5.621403m. Speed=0.108000m/h.</desc>
<speed>0.030000</speed>
</trkpt>
<trkpt lat="42.484230" lon="18.707237">
<ele>5.643497</ele>
<time>2012-05-02T11:40:35Z</time>
<desc>lat.=42.484230, lon.=18.707237, Alt.=5.643497m. Speed=0.072000m/h.</desc>
<speed>0.020000</speed>
</trkpt>
<trkpt lat="42.484230" lon="18.707237">
<ele>5.658512</ele>
<time>2012-05-02T11:40:40Z</time>
<desc>lat.=42.484230, lon.=18.707237, Alt.=5.658512m. Speed=0.036000m/h.</desc>
<speed>0.010000</speed>
</trkpt>
<trkpt lat="42.484230" lon="18.707237">
<ele>5.627262</ele>
<time>2012-05-02T11:40:45Z</time>
<desc>lat.=42.484230, lon.=18.707237, Alt.=5.627262m. Speed=0.072000m/h.</desc>
<speed>0.020000</speed>
</trkpt>
<trkpt lat="42.484230" lon="18.707237">
<ele>5.595524</ele>
<time>2012-05-02T11:40:50Z</time>
<desc>lat.=42.484230, lon.=18.707237, Alt.=5.595524m. Speed=0.072000m/h.</desc>
<speed>0.020000</speed>
</trkpt>
<trkpt lat="42.484230" lon="18.707237">
<ele>5.594425</ele>
<time>2012-05-02T11:40:55Z</time>
<desc>lat.=42.484230, lon.=18.707237, Alt.=5.594425m. Speed=0.000000m/h.</desc>
<speed>0.000000</speed>
</trkpt>
<trkpt lat="42.484230" lon="18.707237">
<ele>5.575993</ele>
<time>2012-05-02T11:41:00Z</time>
<desc>lat.=42.484230, lon.=18.707237, Alt.=5.575993m. Speed=0.036000m/h.</desc>
<speed>0.010000</speed>
</trkpt>
<trkpt lat="42.484230" lon="18.707237">
<ele>5.584904</ele>
<time>2012-05-02T11:41:05Z</time>
<desc>lat.=42.484230, lon.=18.707237, Alt.=5.584904m. Speed=0.036000m/h.</desc>
<speed>0.010000</speed>
</trkpt>
<trkpt lat="42.484230" lon="18.707237">
<ele>5.590641</ele>
<time>2012-05-02T11:41:10Z</time>
<desc>lat.=42.484230, lon.=18.707237, Alt.=5.590641m. Speed=0.072000m/h.</desc>
<speed>0.020000</speed>
</trkpt>
<trkpt lat="42.484230" lon="18.707237">
<ele>5.573063</ele>
<time>2012-05-02T11:41:15Z</time>
<desc>lat.=42.484230, lon.=18.707237, Alt.=5.573063m. Speed=0.036000m/h.</desc>
<speed>0.010000</speed>
</trkpt>
<trkpt lat="42.484230" lon="18.707237">
<ele>5.592472</ele>
<time>2012-05-02T11:41:20Z</time>
<desc>lat.=42.484230, lon.=18.707237, Alt.=5.592472m. Speed=0.036000m/h.</desc>
<speed>0.010000</speed>
</trkpt>
<trkpt lat="42.484230" lon="18.707237">
<ele>5.611393</ele>
<time>2012-05-02T11:41:25Z</time>
<desc>lat.=42.484230, lon.=18.707237, Alt.=5.611393m. Speed=0.036000m/h.</desc>
<speed>0.010000</speed>
</trkpt>
<trkpt lat="42.484230" lon="18.707237">
<ele>5.629581</ele>
<time>2012-05-02T11:41:30Z</time>
<desc>lat.=42.484230, lon.=18.707237, Alt.=5.629581m. Speed=0.000000m/h.</desc>
<speed>0.000000</speed>
</trkpt>
<trkpt lat="42.484230" lon="18.707237">
<ele>5.616764</ele>
<time>2012-05-02T11:41:35Z</time>
<desc>lat.=42.484230, lon.=18.707237, Alt.=5.616764m. Speed=0.036000m/h.</desc>
<speed>0.010000</speed>
</trkpt>
<trkpt lat="42.484230" lon="18.707237">
<ele>5.616154</ele>
<time>2012-05-02T11:41:40Z</time>
<desc>lat.=42.484230, lon.=18.707237, Alt.=5.616154m. Speed=0.072000m/h.</desc>
<speed>0.020000</speed>
</trkpt>
<trkpt lat="42.484230" lon="18.707237">
<ele>5.621037</ele>
<time>2012-05-02T11:41:45Z</time>
<desc>lat.=42.484230, lon.=18.707237, Alt.=5.621037m. Speed=0.072000m/h.</desc>
<speed>0.020000</speed>
</trkpt>
<trkpt lat="42.484230" lon="18.707237">
<ele>5.641422</ele>
<time>2012-05-02T11:41:50Z</time>
<desc>lat.=42.484230, lon.=18.707237, Alt.=5.641422m. Speed=0.144000m/h.</desc>
<speed>0.040000</speed>
</trkpt>
<trkpt lat="42.484230" lon="18.707237">
<ele>5.656437</ele>
<time>2012-05-02T11:41:55Z</time>
<desc>lat.=42.484230, lon.=18.707237, Alt.=5.656437m. Speed=0.000000m/h.</desc>
<speed>0.000000</speed>
</trkpt>
<trkpt lat="42.484203" lon="18.707336">
<ele>4.953678</ele>
<time>2012-05-02T11:42:00Z</time>
<desc>lat.=42.484203, lon.=18.707336, Alt.=4.953678m. Speed=14.076000m/h.</desc>
<speed>3.910000</speed>
</trkpt>
<trkpt lat="42.484123" lon="18.707668">
<ele>5.456852</ele>
<time>2012-05-02T11:42:05Z</time>
<desc>lat.=42.484123, lon.=18.707668, Alt.=5.456852m. Speed=19.296000m/h.</desc>
<speed>5.360000</speed>
</trkpt>
<trkpt lat="42.484032" lon="18.708029">
<ele>4.877140</ele>
<time>2012-05-02T11:42:10Z</time>
<desc>lat.=42.484032, lon.=18.708029, Alt.=4.877140m. Speed=22.500000m/h.</desc>
<speed>6.250000</speed>
</trkpt>
<trkpt lat="42.483982" lon="18.708477">
<ele>4.986759</ele>
<time>2012-05-02T11:42:15Z</time>
<desc>lat.=42.483982, lon.=18.708477, Alt.=4.986759m. Speed=25.379999m/h.</desc>
<speed>7.050000</speed>
</trkpt>
<trkpt lat="42.483959" lon="18.708961">
<ele>3.346956</ele>
<time>2012-05-02T11:42:20Z</time>
<desc>lat.=42.483959, lon.=18.708961, Alt.=3.346956m. Speed=27.648001m/h.</desc>
<speed>7.680000</speed>
</trkpt>
<trkpt lat="42.483929" lon="18.709423">
<ele>2.259615</ele>
<time>2012-05-02T11:42:25Z</time>
<desc>lat.=42.483929, lon.=18.709423, Alt.=2.259615m. Speed=26.172001m/h.</desc>
<speed>7.270000</speed>
</trkpt>
<trkpt lat="42.483894" lon="18.709902">
<ele>3.358309</ele>
<time>2012-05-02T11:42:30Z</time>
<desc>lat.=42.483894, lon.=18.709902, Alt.=3.358309m. Speed=27.288000m/h.</desc>
<speed>7.580000</speed>
</trkpt>
<trkpt lat="42.483879" lon="18.710354">
<ele>4.292179</ele>
<time>2012-05-02T11:42:35Z</time>
<desc>lat.=42.483879, lon.=18.710354, Alt.=4.292179m. Speed=26.028000m/h.</desc>
<speed>7.230000</speed>
</trkpt>
<trkpt lat="42.483891" lon="18.710812">
<ele>4.163151</ele>
<time>2012-05-02T11:42:40Z</time>
<desc>lat.=42.483891, lon.=18.710812, Alt.=4.163151m. Speed=28.440001m/h.</desc>
<speed>7.900000</speed>
</trkpt>
<trkpt lat="42.483917" lon="18.711294">
<ele>3.964815</ele>
<time>2012-05-02T11:42:45Z</time>
<desc>lat.=42.483917, lon.=18.711294, Alt.=3.964815m. Speed=25.992001m/h.</desc>
<speed>7.220000</speed>
</trkpt>
<trkpt lat="42.483925" lon="18.711712">
<ele>6.711613</ele>
<time>2012-05-02T11:42:50Z</time>
<desc>lat.=42.483925, lon.=18.711712, Alt.=6.711613m. Speed=21.600000m/h.</desc>
<speed>6.000000</speed>
</trkpt>
<trkpt lat="42.483910" lon="18.712095">
<ele>8.291145</ele>
<time>2012-05-02T11:42:55Z</time>
<desc>lat.=42.483910, lon.=18.712095, Alt.=8.291145m. Speed=23.688000m/h.</desc>
<speed>6.580000</speed>
</trkpt>
<trkpt lat="42.483879" lon="18.712519">
<ele>10.212044</ele>
<time>2012-05-02T11:43:00Z</time>
<desc>lat.=42.483879, lon.=18.712519, Alt.=10.212044m. Speed=26.424000m/h.</desc>
<speed>7.340000</speed>
</trkpt>
<trkpt lat="42.483841" lon="18.712933">
<ele>11.399788</ele>
<time>2012-05-02T11:43:05Z</time>
<desc>lat.=42.483841, lon.=18.712933, Alt.=11.399788m. Speed=24.156000m/h.</desc>
<speed>6.710000</speed>
</trkpt>
<trkpt lat="42.483795" lon="18.713356">
<ele>13.688362</ele>
<time>2012-05-02T11:43:10Z</time>
<desc>lat.=42.483795, lon.=18.713356, Alt.=13.688362m. Speed=22.716000m/h.</desc>
<speed>6.310000</speed>
</trkpt>
<trkpt lat="42.483753" lon="18.713768">
<ele>13.722542</ele>
<time>2012-05-02T11:43:15Z</time>
<desc>lat.=42.483753, lon.=18.713768, Alt.=13.722542m. Speed=25.667999m/h.</desc>
<speed>7.130000</speed>
</trkpt>
<trkpt lat="42.483730" lon="18.714199">
<ele>13.424446</ele>
<time>2012-05-02T11:43:20Z</time>
<desc>lat.=42.483730, lon.=18.714199, Alt.=13.424446m. Speed=24.191999m/h.</desc>
<speed>6.720000</speed>
</trkpt>
<trkpt lat="42.483711" lon="18.714634">
<ele>14.574837</ele>
<time>2012-05-02T11:43:25Z</time>
<desc>lat.=42.483711, lon.=18.714634, Alt.=14.574837m. Speed=25.416000m/h.</desc>
<speed>7.060000</speed>
</trkpt>
<trkpt lat="42.483707" lon="18.715046">
<ele>11.255501</ele>
<time>2012-05-02T11:43:30Z</time>
<desc>lat.=42.483707, lon.=18.715046, Alt.=11.255501m. Speed=24.299999m/h.</desc>
<speed>6.750000</speed>
</trkpt>
<trkpt lat="42.483707" lon="18.715452">
<ele>9.276009</ele>
<time>2012-05-02T11:43:35Z</time>
<desc>lat.=42.483707, lon.=18.715452, Alt.=9.276009m. Speed=25.848000m/h.</desc>
<speed>7.180000</speed>
</trkpt>
<trkpt lat="42.483707" lon="18.715912">
<ele>10.696663</ele>
<time>2012-05-02T11:43:40Z</time>
<desc>lat.=42.483707, lon.=18.715912, Alt.=10.696663m. Speed=28.584000m/h.</desc>
<speed>7.940000</speed>
</trkpt>
<trkpt lat="42.483730" lon="18.716419">
<ele>10.095833</ele>
<time>2012-05-02T11:43:45Z</time>
<desc>lat.=42.483730, lon.=18.716419, Alt.=10.095833m. Speed=29.232000m/h.</desc>
<speed>8.120000</speed>
</trkpt>
<trkpt lat="42.483772" lon="18.716921">
<ele>9.544807</ele>
<time>2012-05-02T11:43:50Z</time>
<desc>lat.=42.483772, lon.=18.716921, Alt.=9.544807m. Speed=28.980000m/h.</desc>
<speed>8.050000</speed>
</trkpt>
<trkpt lat="42.483814" lon="18.717390">
<ele>8.521126</ele>
<time>2012-05-02T11:43:55Z</time>
<desc>lat.=42.483814, lon.=18.717390, Alt.=8.521126m. Speed=28.260000m/h.</desc>
<speed>7.850000</speed>
</trkpt>
<trkpt lat="42.483864" lon="18.717834">
<ele>6.919621</ele>
<time>2012-05-02T11:44:00Z</time>
<desc>lat.=42.483864, lon.=18.717834, Alt.=6.919621m. Speed=27.972000m/h.</desc>
<speed>7.770000</speed>
</trkpt>
<trkpt lat="42.483932" lon="18.718334">
<ele>5.614201</ele>
<time>2012-05-02T11:44:05Z</time>
<desc>lat.=42.483932, lon.=18.718334, Alt.=5.614201m. Speed=30.996000m/h.</desc>
<speed>8.610000</speed>
</trkpt>
<trkpt lat="42.484005" lon="18.718832">
<ele>5.285831</ele>
<time>2012-05-02T11:44:10Z</time>
<desc>lat.=42.484005, lon.=18.718832, Alt.=5.285831m. Speed=29.160000m/h.</desc>
<speed>8.100000</speed>
</trkpt>
<trkpt lat="42.484070" lon="18.719318">
<ele>7.341129</ele>
<time>2012-05-02T11:44:15Z</time>
<desc>lat.=42.484070, lon.=18.719318, Alt.=7.341129m. Speed=29.483999m/h.</desc>
<speed>8.190000</speed>
</trkpt>
<trkpt lat="42.484127" lon="18.719831">
<ele>10.024300</ele>
<time>2012-05-02T11:44:20Z</time>
<desc>lat.=42.484127, lon.=18.719831, Alt.=10.024300m. Speed=30.420000m/h.</desc>
<speed>8.450000</speed>
</trkpt>
<trkpt lat="42.484177" lon="18.720303">
<ele>11.287483</ele>
<time>2012-05-02T11:44:25Z</time>
<desc>lat.=42.484177, lon.=18.720303, Alt.=11.287483m. Speed=26.424000m/h.</desc>
<speed>7.340000</speed>
</trkpt>
<trkpt lat="42.484207" lon="18.720764">
<ele>11.411507</ele>
<time>2012-05-02T11:44:30Z</time>
<desc>lat.=42.484207, lon.=18.720764, Alt.=11.411507m. Speed=27.612000m/h.</desc>
<speed>7.670000</speed>
</trkpt>
<trkpt lat="42.484230" lon="18.721226">
<ele>11.842415</ele>
<time>2012-05-02T11:44:35Z</time>
<desc>lat.=42.484230, lon.=18.721226, Alt.=11.842415m. Speed=25.524000m/h.</desc>
<speed>7.090000</speed>
</trkpt>
<trkpt lat="42.484230" lon="18.721638">
<ele>13.255501</ele>
<time>2012-05-02T11:44:40Z</time>
<desc>lat.=42.484230, lon.=18.721638, Alt.=13.255501m. Speed=23.796000m/h.</desc>
<speed>6.610000</speed>
</trkpt>
<trkpt lat="42.484230" lon="18.722048">
<ele>13.448372</ele>
<time>2012-05-02T11:44:45Z</time>
<desc>lat.=42.484230, lon.=18.722048, Alt.=13.448372m. Speed=23.688000m/h.</desc>
<speed>6.580000</speed>
</trkpt>
<trkpt lat="42.484215" lon="18.722458">
<ele>12.631477</ele>
<time>2012-05-02T11:44:50Z</time>
<desc>lat.=42.484215, lon.=18.722458, Alt.=12.631477m. Speed=23.292000m/h.</desc>
<speed>6.470000</speed>
</trkpt>
<trkpt lat="42.484184" lon="18.722868">
<ele>12.736702</ele>
<time>2012-05-02T11:44:55Z</time>
<desc>lat.=42.484184, lon.=18.722868, Alt.=12.736702m. Speed=23.544001m/h.</desc>
<speed>6.540000</speed>
</trkpt>
<trkpt lat="42.484158" lon="18.723257">
<ele>12.695442</ele>
<time>2012-05-02T11:45:00Z</time>
<desc>lat.=42.484158, lon.=18.723257, Alt.=12.695442m. Speed=24.156000m/h.</desc>
<speed>6.710000</speed>
</trkpt>
<trkpt lat="42.484135" lon="18.723669">
<ele>12.304573</ele>
<time>2012-05-02T11:45:05Z</time>
<desc>lat.=42.484135, lon.=18.723669, Alt.=12.304573m. Speed=25.236000m/h.</desc>
<speed>7.010000</speed>
</trkpt>
<trkpt lat="42.484116" lon="18.724087">
<ele>12.619759</ele>
<time>2012-05-02T11:45:10Z</time>
<desc>lat.=42.484116, lon.=18.724087, Alt.=12.619759m. Speed=23.976000m/h.</desc>
<speed>6.660000</speed>
</trkpt>
<trkpt lat="42.484116" lon="18.724499">
<ele>12.972542</ele>
<time>2012-05-02T11:45:15Z</time>
<desc>lat.=42.484116, lon.=18.724499, Alt.=12.972542m. Speed=25.416000m/h.</desc>
<speed>7.060000</speed>
</trkpt>
<trkpt lat="42.484119" lon="18.724920">
<ele>13.602180</ele>
<time>2012-05-02T11:45:20Z</time>
<desc>lat.=42.484119, lon.=18.724920, Alt.=13.602180m. Speed=24.875999m/h.</desc>
<speed>6.910000</speed>
</trkpt>
<trkpt lat="42.484142" lon="18.725351">
<ele>13.228401</ele>
<time>2012-05-02T11:45:25Z</time>
<desc>lat.=42.484142, lon.=18.725351, Alt.=13.228401m. Speed=25.056000m/h.</desc>
<speed>6.960000</speed>
</trkpt>
<trkpt lat="42.484188" lon="18.725784">
<ele>12.088264</ele>
<time>2012-05-02T11:45:30Z</time>
<desc>lat.=42.484188, lon.=18.725784, Alt.=12.088264m. Speed=25.884001m/h.</desc>
<speed>7.190000</speed>
</trkpt>
<trkpt lat="42.484241" lon="18.726189">
<ele>11.927864</ele>
<time>2012-05-02T11:45:35Z</time>
<desc>lat.=42.484241, lon.=18.726189, Alt.=11.927864m. Speed=23.004000m/h.</desc>
<speed>6.390000</speed>
</trkpt>
<trkpt lat="42.484299" lon="18.726568">
<ele>12.718636</ele>
<time>2012-05-02T11:45:40Z</time>
<desc>lat.=42.484299, lon.=18.726568, Alt.=12.718636m. Speed=25.200001m/h.</desc>
<speed>7.000000</speed>
</trkpt>
<trkpt lat="42.484379" lon="18.726999">
<ele>13.014778</ele>
<time>2012-05-02T11:45:45Z</time>
<desc>lat.=42.484379, lon.=18.726999, Alt.=13.014778m. Speed=26.208000m/h.</desc>
<speed>7.280000</speed>
</trkpt>
<trkpt lat="42.484451" lon="18.727419">
<ele>13.021858</ele>
<time>2012-05-02T11:45:50Z</time>
<desc>lat.=42.484451, lon.=18.727419, Alt.=13.021858m. Speed=24.156000m/h.</desc>
<speed>6.710000</speed>
</trkpt>
<trkpt lat="42.484509" lon="18.727812">
<ele>13.349495</ele>
<time>2012-05-02T11:45:55Z</time>
<desc>lat.=42.484509, lon.=18.727812, Alt.=13.349495m. Speed=23.903999m/h.</desc>
<speed>6.640000</speed>
</trkpt>
<trkpt lat="42.484558" lon="18.728220">
<ele>13.236458</ele>
<time>2012-05-02T11:46:00Z</time>
<desc>lat.=42.484558, lon.=18.728220, Alt.=13.236458m. Speed=23.615999m/h.</desc>
<speed>6.560000</speed>
</trkpt>
<trkpt lat="42.484581" lon="18.728605">
<ele>13.578743</ele>
<time>2012-05-02T11:46:05Z</time>
<desc>lat.=42.484581, lon.=18.728605, Alt.=13.578743m. Speed=23.903999m/h.</desc>
<speed>6.640000</speed>
</trkpt>
<trkpt lat="42.484581" lon="18.728987">
<ele>14.537727</ele>
<time>2012-05-02T11:46:10Z</time>
<desc>lat.=42.484581, lon.=18.728987, Alt.=14.537727m. Speed=21.455999m/h.</desc>
<speed>5.960000</speed>
</trkpt>
<trkpt lat="42.484547" lon="18.729361">
<ele>15.517708</ele>
<time>2012-05-02T11:46:15Z</time>
<desc>lat.=42.484547, lon.=18.729361, Alt.=15.517708m. Speed=21.672001m/h.</desc>
<speed>6.020000</speed>
</trkpt>
<trkpt lat="42.484535" lon="18.729750">
<ele>16.457291</ele>
<time>2012-05-02T11:46:20Z</time>
<desc>lat.=42.484535, lon.=18.729750, Alt.=16.457291m. Speed=22.535999m/h.</desc>
<speed>6.260000</speed>
</trkpt>
<trkpt lat="42.484474" lon="18.730154">
<ele>18.212173</ele>
<time>2012-05-02T11:46:25Z</time>
<desc>lat.=42.484474, lon.=18.730154, Alt.=18.212173m. Speed=24.660000m/h.</desc>
<speed>6.850000</speed>
</trkpt>
<trkpt lat="42.484348" lon="18.730513">
<ele>19.248795</ele>
<time>2012-05-02T11:46:30Z</time>
<desc>lat.=42.484348, lon.=18.730513, Alt.=19.248795m. Speed=23.868000m/h.</desc>
<speed>6.630000</speed>
</trkpt>
<trkpt lat="42.484146" lon="18.730827">
<ele>21.208755</ele>
<time>2012-05-02T11:46:35Z</time>
<desc>lat.=42.484146, lon.=18.730827, Alt.=21.208755m. Speed=23.652000m/h.</desc>
<speed>6.570000</speed>
</trkpt>
<trkpt lat="42.483944" lon="18.731108">
<ele>23.723892</ele>
<time>2012-05-02T11:46:40Z</time>
<desc>lat.=42.483944, lon.=18.731108, Alt.=23.723892m. Speed=22.139999m/h.</desc>
<speed>6.150000</speed>
</trkpt>
<trkpt lat="42.483765" lon="18.731403">
<ele>24.704361</ele>
<time>2012-05-02T11:46:45Z</time>
<desc>lat.=42.483765, lon.=18.731403, Alt.=24.704361m. Speed=21.312000m/h.</desc>
<speed>5.920000</speed>
</trkpt>
<trkpt lat="42.483620" lon="18.731787">
<ele>25.448502</ele>
<time>2012-05-02T11:46:50Z</time>
<desc>lat.=42.483620, lon.=18.731787, Alt.=25.448502m. Speed=23.688000m/h.</desc>
<speed>6.580000</speed>
</trkpt>
<trkpt lat="42.483517" lon="18.732162">
<ele>25.653091</ele>
<time>2012-05-02T11:46:55Z</time>
<desc>lat.=42.483517, lon.=18.732162, Alt.=25.653091m. Speed=22.752001m/h.</desc>
<speed>6.320000</speed>
</trkpt>
<trkpt lat="42.483452" lon="18.732525">
<ele>25.725845</ele>
<time>2012-05-02T11:47:00Z</time>
<desc>lat.=42.483452, lon.=18.732525, Alt.=25.725845m. Speed=20.556000m/h.</desc>
<speed>5.710000</speed>
</trkpt>
<trkpt lat="42.483437" lon="18.732891">
<ele>26.029556</ele>
<time>2012-05-02T11:47:05Z</time>
<desc>lat.=42.483437, lon.=18.732891, Alt.=26.029556m. Speed=21.636000m/h.</desc>
<speed>6.010000</speed>
</trkpt>
<trkpt lat="42.483459" lon="18.733280">
<ele>26.318619</ele>
<time>2012-05-02T11:47:10Z</time>
<desc>lat.=42.483459, lon.=18.733280, Alt.=26.318619m. Speed=21.888000m/h.</desc>
<speed>6.080000</speed>
</trkpt>
<trkpt lat="42.483517" lon="18.733658">
<ele>26.715591</ele>
<time>2012-05-02T11:47:15Z</time>
<desc>lat.=42.483517, lon.=18.733658, Alt.=26.715591m. Speed=21.851999m/h.</desc>
<speed>6.070000</speed>
</trkpt>
<trkpt lat="42.483601" lon="18.734015">
<ele>26.796158</ele>
<time>2012-05-02T11:47:20Z</time>
<desc>lat.=42.483601, lon.=18.734015, Alt.=26.796158m. Speed=22.788000m/h.</desc>
<speed>6.330000</speed>
</trkpt>
<trkpt lat="42.483761" lon="18.734346">
<ele>24.955826</ele>
<time>2012-05-02T11:47:25Z</time>
<desc>lat.=42.483761, lon.=18.734346, Alt.=24.955826m. Speed=23.796000m/h.</desc>
<speed>6.610000</speed>
</trkpt>
<trkpt lat="42.483952" lon="18.734650">
<ele>23.899673</ele>
<time>2012-05-02T11:47:30Z</time>
<desc>lat.=42.483952, lon.=18.734650, Alt.=23.899673m. Speed=23.219999m/h.</desc>
<speed>6.450000</speed>
</trkpt>
<trkpt lat="42.484127" lon="18.734980">
<ele>22.336197</ele>
<time>2012-05-02T11:47:35Z</time>
<desc>lat.=42.484127, lon.=18.734980, Alt.=22.336197m. Speed=24.299999m/h.</desc>
<speed>6.750000</speed>
</trkpt>
<trkpt lat="42.484230" lon="18.735348">
<ele>21.486588</ele>
<time>2012-05-02T11:47:40Z</time>
<desc>lat.=42.484230, lon.=18.735348, Alt.=21.486588m. Speed=21.959999m/h.</desc>
<speed>6.100000</speed>
</trkpt>
<trkpt lat="42.484222" lon="18.735727">
<ele>20.948502</ele>
<time>2012-05-02T11:47:45Z</time>
<desc>lat.=42.484222, lon.=18.735727, Alt.=20.948502m. Speed=22.823999m/h.</desc>
<speed>6.340000</speed>
</trkpt>
<trkpt lat="42.484215" lon="18.736145">
<ele>20.192154</ele>
<time>2012-05-02T11:47:50Z</time>
<desc>lat.=42.484215, lon.=18.736145, Alt.=20.192154m. Speed=23.112000m/h.</desc>
<speed>6.420000</speed>
</trkpt>
<trkpt lat="42.484264" lon="18.736578">
<ele>19.361588</ele>
<time>2012-05-02T11:47:55Z</time>
<desc>lat.=42.484264, lon.=18.736578, Alt.=19.361588m. Speed=24.695999m/h.</desc>
<speed>6.860000</speed>
</trkpt>
<trkpt lat="42.484333" lon="18.736990">
<ele>19.484634</ele>
<time>2012-05-02T11:48:00Z</time>
<desc>lat.=42.484333, lon.=18.736990, Alt.=19.484634m. Speed=25.812000m/h.</desc>
<speed>7.170000</speed>
</trkpt>
<trkpt lat="42.484352" lon="18.737383">
<ele>19.723404</ele>
<time>2012-05-02T11:48:05Z</time>
<desc>lat.=42.484352, lon.=18.737383, Alt.=19.723404m. Speed=22.284000m/h.</desc>
<speed>6.190000</speed>
</trkpt>
<trkpt lat="42.484333" lon="18.737778">
<ele>20.238541</ele>
<time>2012-05-02T11:48:10Z</time>
<desc>lat.=42.484333, lon.=18.737778, Alt.=20.238541m. Speed=22.931999m/h.</desc>
<speed>6.370000</speed>
</trkpt>
<trkpt lat="42.484310" lon="18.738153">
<ele>21.035416</ele>
<time>2012-05-02T11:48:15Z</time>
<desc>lat.=42.484310, lon.=18.738153, Alt.=21.035416m. Speed=21.563999m/h.</desc>
<speed>5.990000</speed>
</trkpt>
<trkpt lat="42.484333" lon="18.738518">
<ele>22.059830</ele>
<time>2012-05-02T11:48:20Z</time>
<desc>lat.=42.484333, lon.=18.738518, Alt.=22.059830m. Speed=24.444000m/h.</desc>
<speed>6.790000</speed>
</trkpt>
<trkpt lat="42.484451" lon="18.738911">
<ele>22.732681</ele>
<time>2012-05-02T11:48:25Z</time>
<desc>lat.=42.484451, lon.=18.738911, Alt.=22.732681m. Speed=24.156000m/h.</desc>
<speed>6.710000</speed>
</trkpt>
<trkpt lat="42.484631" lon="18.739237">
<ele>22.719986</ele>
<time>2012-05-02T11:48:30Z</time>
<desc>lat.=42.484631, lon.=18.739237, Alt.=22.719986m. Speed=24.228001m/h.</desc>
<speed>6.730000</speed>
</trkpt>
<trkpt lat="42.484848" lon="18.739511">
<ele>22.144302</ele>
<time>2012-05-02T11:48:35Z</time>
<desc>lat.=42.484848, lon.=18.739511, Alt.=22.144302m. Speed=23.832001m/h.</desc>
<speed>6.620000</speed>
</trkpt>
<trkpt lat="42.485081" lon="18.739771">
<ele>22.193130</ele>
<time>2012-05-02T11:48:40Z</time>
<desc>lat.=42.485081, lon.=18.739771, Alt.=22.193130m. Speed=24.875999m/h.</desc>
<speed>6.910000</speed>
</trkpt>
<trkpt lat="42.485268" lon="18.740101">
<ele>21.797623</ele>
<time>2012-05-02T11:48:45Z</time>
<desc>lat.=42.485268, lon.=18.740101, Alt.=21.797623m. Speed=23.688000m/h.</desc>
<speed>6.580000</speed>
</trkpt>
<trkpt lat="42.485348" lon="18.740454">
<ele>20.932388</ele>
<time>2012-05-02T11:48:50Z</time>
<desc>lat.=42.485348, lon.=18.740454, Alt.=20.932388m. Speed=21.240000m/h.</desc>
<speed>5.900000</speed>
</trkpt>
<trkpt lat="42.485394" lon="18.740826">
<ele>21.091080</ele>
<time>2012-05-02T11:48:55Z</time>
<desc>lat.=42.485394, lon.=18.740826, Alt.=21.091080m. Speed=23.472000m/h.</desc>
<speed>6.520000</speed>
</trkpt>
<trkpt lat="42.485516" lon="18.741182">
<ele>21.083755</ele>
<time>2012-05-02T11:49:00Z</time>
<desc>lat.=42.485516, lon.=18.741182, Alt.=21.083755m. Speed=22.716000m/h.</desc>
<speed>6.310000</speed>
</trkpt>
<trkpt lat="42.485634" lon="18.741535">
<ele>20.153091</ele>
<time>2012-05-02T11:49:05Z</time>
<desc>lat.=42.485634, lon.=18.741535, Alt.=20.153091m. Speed=26.172001m/h.</desc>
<speed>7.270000</speed>
</trkpt>
<trkpt lat="42.485664" lon="18.741936">
<ele>19.705826</ele>
<time>2012-05-02T11:49:10Z</time>
<desc>lat.=42.485664, lon.=18.741936, Alt.=19.705826m. Speed=24.444000m/h.</desc>
<speed>6.790000</speed>
</trkpt>
<trkpt lat="42.485649" lon="18.742304">
<ele>20.676529</ele>
<time>2012-05-02T11:49:15Z</time>
<desc>lat.=42.485649, lon.=18.742304, Alt.=20.676529m. Speed=23.615999m/h.</desc>
<speed>6.560000</speed>
</trkpt>
<trkpt lat="42.485641" lon="18.742733">
<ele>21.122818</ele>
<time>2012-05-02T11:49:20Z</time>
<desc>lat.=42.485641, lon.=18.742733, Alt.=21.122818m. Speed=24.804001m/h.</desc>
<speed>6.890000</speed>
</trkpt>
<trkpt lat="42.485706" lon="18.743103">
<ele>21.838638</ele>
<time>2012-05-02T11:49:25Z</time>
<desc>lat.=42.485706, lon.=18.743103, Alt.=21.838638m. Speed=21.780001m/h.</desc>
<speed>6.050000</speed>
</trkpt>
<trkpt lat="42.485950" lon="18.743414">
<ele>21.115494</ele>
<time>2012-05-02T11:49:30Z</time>
<desc>lat.=42.485950, lon.=18.743414, Alt.=21.115494m. Speed=25.955999m/h.</desc>
<speed>7.210000</speed>
</trkpt>
<trkpt lat="42.486210" lon="18.743690">
<ele>21.386490</ele>
<time>2012-05-02T11:49:35Z</time>
<desc>lat.=42.486210, lon.=18.743690, Alt.=21.386490m. Speed=24.408001m/h.</desc>
<speed>6.780000</speed>
</trkpt>
<trkpt lat="42.486351" lon="18.744020">
<ele>20.254166</ele>
<time>2012-05-02T11:49:40Z</time>
<desc>lat.=42.486351, lon.=18.744020, Alt.=20.254166m. Speed=22.572001m/h.</desc>
<speed>6.270000</speed>
</trkpt>
<trkpt lat="42.486454" lon="18.744389">
<ele>19.555923</ele>
<time>2012-05-02T11:49:45Z</time>
<desc>lat.=42.486454, lon.=18.744389, Alt.=19.555923m. Speed=24.408001m/h.</desc>
<speed>6.780000</speed>
</trkpt>
<trkpt lat="42.486568" lon="18.744802">
<ele>19.513931</ele>
<time>2012-05-02T11:49:50Z</time>
<desc>lat.=42.486568, lon.=18.744802, Alt.=19.513931m. Speed=26.532000m/h.</desc>
<speed>7.370000</speed>
</trkpt>
<trkpt lat="42.486691" lon="18.745232">
<ele>19.604752</ele>
<time>2012-05-02T11:49:55Z</time>
<desc>lat.=42.486691, lon.=18.745232, Alt.=19.604752m. Speed=27.719999m/h.</desc>
<speed>7.700000</speed>
</trkpt>
<trkpt lat="42.486820" lon="18.745646">
<ele>18.859634</ele>
<time>2012-05-02T11:50:00Z</time>
<desc>lat.=42.486820, lon.=18.745646, Alt.=18.859634m. Speed=25.596001m/h.</desc>
<speed>7.110000</speed>
</trkpt>
<trkpt lat="42.486919" lon="18.746099">
<ele>18.731216</ele>
<time>2012-05-02T11:50:05Z</time>
<desc>lat.=42.486919, lon.=18.746099, Alt.=18.731216m. Speed=30.996000m/h.</desc>
<speed>8.610000</speed>
</trkpt>
<trkpt lat="42.487022" lon="18.746580">
<ele>18.433853</ele>
<time>2012-05-02T11:50:10Z</time>
<desc>lat.=42.487022, lon.=18.746580, Alt.=18.433853m. Speed=27.792000m/h.</desc>
<speed>7.720000</speed>
</trkpt>
<trkpt lat="42.487106" lon="18.747005">
<ele>18.676529</ele>
<time>2012-05-02T11:50:15Z</time>
<desc>lat.=42.487106, lon.=18.747005, Alt.=18.676529m. Speed=27.431999m/h.</desc>
<speed>7.620000</speed>
</trkpt>
<trkpt lat="42.487209" lon="18.747438">
<ele>19.173599</ele>
<time>2012-05-02T11:50:20Z</time>
<desc>lat.=42.487209, lon.=18.747438, Alt.=19.173599m. Speed=26.351999m/h.</desc>
<speed>7.320000</speed>
</trkpt>
<trkpt lat="42.487350" lon="18.747784">
<ele>19.190201</ele>
<time>2012-05-02T11:50:25Z</time>
<desc>lat.=42.487350, lon.=18.747784, Alt.=19.190201m. Speed=25.452000m/h.</desc>
<speed>7.070000</speed>
</trkpt>
<trkpt lat="42.487541" lon="18.748146">
<ele>19.282974</ele>
<time>2012-05-02T11:50:30Z</time>
<desc>lat.=42.487541, lon.=18.748146, Alt.=19.282974m. Speed=25.848000m/h.</desc>
<speed>7.180000</speed>
</trkpt>
<trkpt lat="42.487686" lon="18.748522">
<ele>18.544205</ele>
<time>2012-05-02T11:50:35Z</time>
<desc>lat.=42.487686, lon.=18.748522, Alt.=18.544205m. Speed=25.920000m/h.</desc>
<speed>7.200000</speed>
</trkpt>
<trkpt lat="42.487755" lon="18.748913">
<ele>16.492935</ele>
<time>2012-05-02T11:50:40Z</time>
<desc>lat.=42.487755, lon.=18.748913, Alt.=16.492935m. Speed=24.624001m/h.</desc>
<speed>6.840000</speed>
</trkpt>
<trkpt lat="42.487850" lon="18.749361">
<ele>15.117805</ele>
<time>2012-05-02T11:50:45Z</time>
<desc>lat.=42.487850, lon.=18.749361, Alt.=15.117805m. Speed=25.344000m/h.</desc>
<speed>7.040000</speed>
</trkpt>
<trkpt lat="42.487972" lon="18.749771">
<ele>13.524788</ele>
<time>2012-05-02T11:50:50Z</time>
<desc>lat.=42.487972, lon.=18.749771, Alt.=13.524788m. Speed=25.920000m/h.</desc>
<speed>7.200000</speed>
</trkpt>
<trkpt lat="42.488152" lon="18.750153">
<ele>11.729378</ele>
<time>2012-05-02T11:50:55Z</time>
<desc>lat.=42.488152, lon.=18.750153, Alt.=11.729378m. Speed=26.892000m/h.</desc>
<speed>7.470000</speed>
</trkpt>
<trkpt lat="42.488426" lon="18.750448">
<ele>9.887581</ele>
<time>2012-05-02T11:51:00Z</time>
<desc>lat.=42.488426, lon.=18.750448, Alt.=9.887581m. Speed=28.511999m/h.</desc>
<speed>7.920000</speed>
</trkpt>
<trkpt lat="42.488625" lon="18.750843">
<ele>9.624153</ele>
<time>2012-05-02T11:51:05Z</time>
<desc>lat.=42.488625, lon.=18.750843, Alt.=9.624153m. Speed=28.584000m/h.</desc>
<speed>7.940000</speed>
</trkpt>
<trkpt lat="42.488796" lon="18.751265">
<ele>9.941292</ele>
<time>2012-05-02T11:51:10Z</time>
<desc>lat.=42.488796, lon.=18.751265, Alt.=9.941292m. Speed=27.323999m/h.</desc>
<speed>7.590000</speed>
</trkpt>
<trkpt lat="42.488987" lon="18.751646">
<ele>9.573372</ele>
<time>2012-05-02T11:51:15Z</time>
<desc>lat.=42.488987, lon.=18.751646, Alt.=9.573372m. Speed=27.792000m/h.</desc>
<speed>7.720000</speed>
</trkpt>
<trkpt lat="42.489182" lon="18.752039">
<ele>9.525276</ele>
<time>2012-05-02T11:51:20Z</time>
<desc>lat.=42.489182, lon.=18.752039, Alt.=9.525276m. Speed=28.188000m/h.</desc>
<speed>7.830000</speed>
</trkpt>
<trkpt lat="42.489372" lon="18.752403">
<ele>8.964729</ele>
<time>2012-05-02T11:51:25Z</time>
<desc>lat.=42.489372, lon.=18.752403, Alt.=8.964729m. Speed=25.488001m/h.</desc>
<speed>7.080000</speed>
</trkpt>
<trkpt lat="42.489594" lon="18.752804">
<ele>9.430305</ele>
<time>2012-05-02T11:51:30Z</time>
<desc>lat.=42.489594, lon.=18.752804, Alt.=9.430305m. Speed=28.188000m/h.</desc>
<speed>7.830000</speed>
</trkpt>
<trkpt lat="42.489849" lon="18.753101">
<ele>10.015999</ele>
<time>2012-05-02T11:51:35Z</time>
<desc>lat.=42.489849, lon.=18.753101, Alt.=10.015999m. Speed=26.927999m/h.</desc>
<speed>7.480000</speed>
</trkpt>
<trkpt lat="42.490105" lon="18.753378">
<ele>10.382210</ele>
<time>2012-05-02T11:51:40Z</time>
<desc>lat.=42.490105, lon.=18.753378, Alt.=10.382210m. Speed=27.143999m/h.</desc>
<speed>7.540000</speed>
</trkpt>
<trkpt lat="42.490280" lon="18.753746">
<ele>12.165901</ele>
<time>2012-05-02T11:51:45Z</time>
<desc>lat.=42.490280, lon.=18.753746, Alt.=12.165901m. Speed=25.632000m/h.</desc>
<speed>7.120000</speed>
</trkpt>
<trkpt lat="42.490318" lon="18.754177">
<ele>12.170052</ele>
<time>2012-05-02T11:51:50Z</time>
<desc>lat.=42.490318, lon.=18.754177, Alt.=12.170052m. Speed=24.120001m/h.</desc>
<speed>6.700000</speed>
</trkpt>
<trkpt lat="42.490200" lon="18.754551">
<ele>12.540657</ele>
<time>2012-05-02T11:51:55Z</time>
<desc>lat.=42.490200, lon.=18.754551, Alt.=12.540657m. Speed=20.016001m/h.</desc>
<speed>5.560000</speed>
</trkpt>
<trkpt lat="42.490055" lon="18.754847">
<ele>12.728645</ele>
<time>2012-05-02T11:52:00Z</time>
<desc>lat.=42.490055, lon.=18.754847, Alt.=12.728645m. Speed=20.375999m/h.</desc>
<speed>5.660000</speed>
</trkpt>
<trkpt lat="42.489948" lon="18.755129">
<ele>12.876595</ele>
<time>2012-05-02T11:52:05Z</time>
<desc>lat.=42.489948, lon.=18.755129, Alt.=12.876595m. Speed=18.504000m/h.</desc>
<speed>5.140000</speed>
</trkpt>
<trkpt lat="42.489918" lon="18.755444">
<ele>13.255257</ele>
<time>2012-05-02T11:52:10Z</time>
<desc>lat.=42.489918, lon.=18.755444, Alt.=13.255257m. Speed=18.936001m/h.</desc>
<speed>5.260000</speed>
</trkpt>
<trkpt lat="42.489948" lon="18.755758">
<ele>13.859993</ele>
<time>2012-05-02T11:52:15Z</time>
<desc>lat.=42.489948, lon.=18.755758, Alt.=13.859993m. Speed=18.900000m/h.</desc>
<speed>5.250000</speed>
</trkpt>
<trkpt lat="42.490067" lon="18.756109">
<ele>14.828255</ele>
<time>2012-05-02T11:52:20Z</time>
<desc>lat.=42.490067, lon.=18.756109, Alt.=14.828255m. Speed=24.299999m/h.</desc>
<speed>6.750000</speed>
</trkpt>
<trkpt lat="42.490211" lon="18.756487">
<ele>15.201302</ele>
<time>2012-05-02T11:52:25Z</time>
<desc>lat.=42.490211, lon.=18.756487, Alt.=15.201302m. Speed=24.732000m/h.</desc>
<speed>6.870000</speed>
</trkpt>
<trkpt lat="42.490364" lon="18.756889">
<ele>15.535530</ele>
<time>2012-05-02T11:52:30Z</time>
<desc>lat.=42.490364, lon.=18.756889, Alt.=15.535530m. Speed=25.236000m/h.</desc>
<speed>7.010000</speed>
</trkpt>
<trkpt lat="42.490490" lon="18.757294">
<ele>16.740005</ele>
<time>2012-05-02T11:52:35Z</time>
<desc>lat.=42.490490, lon.=18.757294, Alt.=16.740005m. Speed=24.408001m/h.</desc>
<speed>6.780000</speed>
</trkpt>
<trkpt lat="42.490566" lon="18.757698">
<ele>17.316177</ele>
<time>2012-05-02T11:52:40Z</time>
<desc>lat.=42.490566, lon.=18.757698, Alt.=17.316177m. Speed=24.912001m/h.</desc>
<speed>6.920000</speed>
</trkpt>
<trkpt lat="42.490585" lon="18.758093">
<ele>17.908463</ele>
<time>2012-05-02T11:52:45Z</time>
<desc>lat.=42.490585, lon.=18.758093, Alt.=17.908463m. Speed=23.615999m/h.</desc>
<speed>6.560000</speed>
</trkpt>
<trkpt lat="42.490570" lon="18.758524">
<ele>19.063736</ele>
<time>2012-05-02T11:52:50Z</time>
<desc>lat.=42.490570, lon.=18.758524, Alt.=19.063736m. Speed=19.944000m/h.</desc>
<speed>5.540000</speed>
</trkpt>
<trkpt lat="42.490498" lon="18.758844">
<ele>20.355240</ele>
<time>2012-05-02T11:52:55Z</time>
<desc>lat.=42.490498, lon.=18.758844, Alt.=20.355240m. Speed=20.304001m/h.</desc>
<speed>5.640000</speed>
</trkpt>
<trkpt lat="42.490414" lon="18.759174">
<ele>21.304947</ele>
<time>2012-05-02T11:53:00Z</time>
<desc>lat.=42.490414, lon.=18.759174, Alt.=21.304947m. Speed=17.496000m/h.</desc>
<speed>4.860000</speed>
</trkpt>
<trkpt lat="42.490341" lon="18.759338">
<ele>22.405045</ele>
<time>2012-05-02T11:53:05Z</time>
<desc>lat.=42.490341, lon.=18.759338, Alt.=22.405045m. Speed=5.256000m/h.</desc>
<speed>1.460000</speed>
</trkpt>
<trkpt lat="42.490314" lon="18.759375">
<ele>22.764420</ele>
<time>2012-05-02T11:53:10Z</time>
<desc>lat.=42.490314, lon.=18.759375, Alt.=22.764420m. Speed=2.484000m/h.</desc>
<speed>0.690000</speed>
</trkpt>
<trkpt lat="42.490299" lon="18.759398">
<ele>23.469986</ele>
<time>2012-05-02T11:53:15Z</time>
<desc>lat.=42.490299, lon.=18.759398, Alt.=23.469986m. Speed=2.484000m/h.</desc>
<speed>0.690000</speed>
</trkpt>
<trkpt lat="42.490292" lon="18.759428">
<ele>24.210709</ele>
<time>2012-05-02T11:53:20Z</time>
<desc>lat.=42.490292, lon.=18.759428, Alt.=24.210709m. Speed=1.332000m/h.</desc>
<speed>0.370000</speed>
</trkpt>
<trkpt lat="42.490284" lon="18.759451">
<ele>24.943130</ele>
<time>2012-05-02T11:53:25Z</time>
<desc>lat.=42.490284, lon.=18.759451, Alt.=24.943130m. Speed=1.368000m/h.</desc>
<speed>0.380000</speed>
</trkpt>
<trkpt lat="42.490284" lon="18.759474">
<ele>25.602798</ele>
<time>2012-05-02T11:53:30Z</time>
<desc>lat.=42.490284, lon.=18.759474, Alt.=25.602798m. Speed=1.152000m/h.</desc>
<speed>0.320000</speed>
</trkpt>
<trkpt lat="42.490276" lon="18.759489">
<ele>26.218033</ele>
<time>2012-05-02T11:53:35Z</time>
<desc>lat.=42.490276, lon.=18.759489, Alt.=26.218033m. Speed=0.828000m/h.</desc>
<speed>0.230000</speed>
</trkpt>
<trkpt lat="42.490276" lon="18.759499">
<ele>26.833267</ele>
<time>2012-05-02T11:53:40Z</time>
<desc>lat.=42.490276, lon.=18.759499, Alt.=26.833267m. Speed=0.504000m/h.</desc>
<speed>0.140000</speed>
</trkpt>
<trkpt lat="42.490280" lon="18.759508">
<ele>27.448502</ele>
<time>2012-05-02T11:53:45Z</time>
<desc>lat.=42.490280, lon.=18.759508, Alt.=27.448502m. Speed=0.432000m/h.</desc>
<speed>0.120000</speed>
</trkpt>
<trkpt lat="42.490280" lon="18.759512">
<ele>28.065201</ele>
<time>2012-05-02T11:53:50Z</time>
<desc>lat.=42.490280, lon.=18.759512, Alt.=28.065201m. Speed=0.072000m/h.</desc>
<speed>0.020000</speed>
</trkpt>
<trkpt lat="42.490280" lon="18.759510">
<ele>28.683853</ele>
<time>2012-05-02T11:53:55Z</time>
<desc>lat.=42.490280, lon.=18.759510, Alt.=28.683853m. Speed=0.468000m/h.</desc>
<speed>0.130000</speed>
</trkpt>
<trkpt lat="42.490273" lon="18.759502">
<ele>29.303482</ele>
<time>2012-05-02T11:54:00Z</time>
<desc>lat.=42.490273, lon.=18.759502, Alt.=29.303482m. Speed=0.720000m/h.</desc>
<speed>0.200000</speed>
</trkpt>
<trkpt lat="42.490265" lon="18.759493">
<ele>29.924088</ele>
<time>2012-05-02T11:54:05Z</time>
<desc>lat.=42.490265, lon.=18.759493, Alt.=29.924088m. Speed=0.756000m/h.</desc>
<speed>0.210000</speed>
</trkpt>
<trkpt lat="42.490261" lon="18.759483">
<ele>30.545181</ele>
<time>2012-05-02T11:54:10Z</time>
<desc>lat.=42.490261, lon.=18.759483, Alt.=30.545181m. Speed=0.648000m/h.</desc>
<speed>0.180000</speed>
</trkpt>
<trkpt lat="42.490253" lon="18.759474">
<ele>31.166275</ele>
<time>2012-05-02T11:54:15Z</time>
<desc>lat.=42.490253, lon.=18.759474, Alt.=31.166275m. Speed=1.080000m/h.</desc>
<speed>0.300000</speed>
</trkpt>
<trkpt lat="42.490238" lon="18.759462">
<ele>31.786880</ele>
<time>2012-05-02T11:54:20Z</time>
<desc>lat.=42.490238, lon.=18.759462, Alt.=31.786880m. Speed=1.044000m/h.</desc>
<speed>0.290000</speed>
</trkpt>
<trkpt lat="42.490231" lon="18.759455">
<ele>32.405792</ele>
<time>2012-05-02T11:54:25Z</time>
<desc>lat.=42.490231, lon.=18.759455, Alt.=32.405792m. Speed=0.576000m/h.</desc>
<speed>0.160000</speed>
</trkpt>
<trkpt lat="42.490223" lon="18.759453">
<ele>33.022980</ele>
<time>2012-05-02T11:54:30Z</time>
<desc>lat.=42.490223, lon.=18.759453, Alt.=33.022980m. Speed=0.864000m/h.</desc>
<speed>0.240000</speed>
</trkpt>
<trkpt lat="42.490211" lon="18.759459">
<ele>33.638214</ele>
<time>2012-05-02T11:54:35Z</time>
<desc>lat.=42.490211, lon.=18.759459, Alt.=33.638214m. Speed=1.044000m/h.</desc>
<speed>0.290000</speed>
</trkpt>
<trkpt lat="42.490196" lon="18.759462">
<ele>34.252472</ele>
<time>2012-05-02T11:54:40Z</time>
<desc>lat.=42.490196, lon.=18.759462, Alt.=34.252472m. Speed=1.260000m/h.</desc>
<speed>0.350000</speed>
</trkpt>
<trkpt lat="42.490185" lon="18.759462">
<ele>34.866730</ele>
<time>2012-05-02T11:54:45Z</time>
<desc>lat.=42.490185, lon.=18.759462, Alt.=34.866730m. Speed=0.936000m/h.</desc>
<speed>0.260000</speed>
</trkpt>
<trkpt lat="42.490177" lon="18.759453">
<ele>35.481964</ele>
<time>2012-05-02T11:54:50Z</time>
<desc>lat.=42.490177, lon.=18.759453, Alt.=35.481964m. Speed=0.252000m/h.</desc>
<speed>0.070000</speed>
</trkpt>
<trkpt lat="42.490177" lon="18.759451">
<ele>36.100128</ele>
<time>2012-05-02T11:54:55Z</time>
<desc>lat.=42.490177, lon.=18.759451, Alt.=36.100128m. Speed=0.324000m/h.</desc>
<speed>0.090000</speed>
</trkpt>
<trkpt lat="42.490189" lon="18.759453">
<ele>36.720245</ele>
<time>2012-05-02T11:55:00Z</time>
<desc>lat.=42.490189, lon.=18.759453, Alt.=36.720245m. Speed=1.152000m/h.</desc>
<speed>0.320000</speed>
</trkpt>
<trkpt lat="42.490204" lon="18.759457">
<ele>37.341339</ele>
<time>2012-05-02T11:55:05Z</time>
<desc>lat.=42.490204, lon.=18.759457, Alt.=37.341339m. Speed=1.260000m/h.</desc>
<speed>0.350000</speed>
</trkpt>
<trkpt lat="42.490223" lon="18.759459">
<ele>37.960480</ele>
<time>2012-05-02T11:55:10Z</time>
<desc>lat.=42.490223, lon.=18.759459, Alt.=37.960480m. Speed=1.368000m/h.</desc>
<speed>0.380000</speed>
</trkpt>
<trkpt lat="42.490242" lon="18.759464">
<ele>38.578644</ele>
<time>2012-05-02T11:55:15Z</time>
<desc>lat.=42.490242, lon.=18.759464, Alt.=38.578644m. Speed=1.656000m/h.</desc>
<speed>0.460000</speed>
</trkpt>
<trkpt lat="42.490261" lon="18.759470">
<ele>39.196808</ele>
<time>2012-05-02T11:55:20Z</time>
<desc>lat.=42.490261, lon.=18.759470, Alt.=39.196808m. Speed=1.440000m/h.</desc>
<speed>0.400000</speed>
</trkpt>
<trkpt lat="42.490280" lon="18.759478">
<ele>39.814972</ele>
<time>2012-05-02T11:55:25Z</time>
<desc>lat.=42.490280, lon.=18.759478, Alt.=39.814972m. Speed=1.728000m/h.</desc>
<speed>0.480000</speed>
</trkpt>
<trkpt lat="42.490299" lon="18.759485">
<ele>40.432159</ele>
<time>2012-05-02T11:55:30Z</time>
<desc>lat.=42.490299, lon.=18.759485, Alt.=40.432159m. Speed=1.728000m/h.</desc>
<speed>0.480000</speed>
</trkpt>
<trkpt lat="42.490322" lon="18.759495">
<ele>41.048370</ele>
<time>2012-05-02T11:55:35Z</time>
<desc>lat.=42.490322, lon.=18.759495, Alt.=41.048370m. Speed=1.944000m/h.</desc>
<speed>0.540000</speed>
</trkpt>
<trkpt lat="42.490349" lon="18.759502">
<ele>41.661652</ele>
<time>2012-05-02T11:55:40Z</time>
<desc>lat.=42.490349, lon.=18.759502, Alt.=41.661652m. Speed=1.800000m/h.</desc>
<speed>0.500000</speed>
</trkpt>
<trkpt lat="42.490368" lon="18.759502">
<ele>42.276886</ele>
<time>2012-05-02T11:55:45Z</time>
<desc>lat.=42.490368, lon.=18.759502, Alt.=42.276886m. Speed=1.260000m/h.</desc>
<speed>0.350000</speed>
</trkpt>
<trkpt lat="42.490379" lon="18.759495">
<ele>42.890167</ele>
<time>2012-05-02T11:55:50Z</time>
<desc>lat.=42.490379, lon.=18.759495, Alt.=42.890167m. Speed=0.792000m/h.</desc>
<speed>0.220000</speed>
</trkpt>
<trkpt lat="42.490383" lon="18.759491">
<ele>43.502472</ele>
<time>2012-05-02T11:55:55Z</time>
<desc>lat.=42.490383, lon.=18.759491, Alt.=43.502472m. Speed=0.216000m/h.</desc>
<speed>0.060000</speed>
</trkpt>
<trkpt lat="42.490383" lon="18.759495">
<ele>44.112823</ele>
<time>2012-05-02T11:56:00Z</time>
<desc>lat.=42.490383, lon.=18.759495, Alt.=44.112823m. Speed=0.252000m/h.</desc>
<speed>0.070000</speed>
</trkpt>
<trkpt lat="42.490379" lon="18.759497">
<ele>44.721222</ele>
<time>2012-05-02T11:56:05Z</time>
<desc>lat.=42.490379, lon.=18.759497, Alt.=44.721222m. Speed=0.864000m/h.</desc>
<speed>0.240000</speed>
</trkpt>
<trkpt lat="42.490356" lon="18.759504">
<ele>45.259308</ele>
<time>2012-05-02T11:56:10Z</time>
<desc>lat.=42.490356, lon.=18.759504, Alt.=45.259308m. Speed=3.636000m/h.</desc>
<speed>1.010000</speed>
</trkpt>
<trkpt lat="42.490314" lon="18.759544">
<ele>44.984894</ele>
<time>2012-05-02T11:56:15Z</time>
<desc>lat.=42.490314, lon.=18.759544, Alt.=44.984894m. Speed=1.476000m/h.</desc>
<speed>0.410000</speed>
</trkpt>
<trkpt lat="42.490280" lon="18.759558">
<ele>44.828644</ele>
<time>2012-05-02T11:56:20Z</time>
<desc>lat.=42.490280, lon.=18.759558, Alt.=44.828644m. Speed=1.800000m/h.</desc>
<speed>0.500000</speed>
</trkpt>
<trkpt lat="42.490253" lon="18.759550">
<ele>44.641144</ele>
<time>2012-05-02T11:56:25Z</time>
<desc>lat.=42.490253, lon.=18.759550, Alt.=44.641144m. Speed=1.548000m/h.</desc>
<speed>0.430000</speed>
</trkpt>
<trkpt lat="42.490276" lon="18.759504">
<ele>44.562042</ele>
<time>2012-05-02T11:56:30Z</time>
<desc>lat.=42.490276, lon.=18.759504, Alt.=44.562042m. Speed=0.828000m/h.</desc>
<speed>0.230000</speed>
</trkpt>
<trkpt lat="42.490269" lon="18.759504">
<ele>44.646027</ele>
<time>2012-05-02T11:56:35Z</time>
<desc>lat.=42.490269, lon.=18.759504, Alt.=44.646027m. Speed=0.792000m/h.</desc>
<speed>0.220000</speed>
</trkpt>
<trkpt lat="42.490257" lon="18.759502">
<ele>44.647980</ele>
<time>2012-05-02T11:56:40Z</time>
<desc>lat.=42.490257, lon.=18.759502, Alt.=44.647980m. Speed=0.792000m/h.</desc>
<speed>0.220000</speed>
</trkpt>
<trkpt lat="42.490246" lon="18.759501">
<ele>44.647980</ele>
<time>2012-05-02T11:56:45Z</time>
<desc>lat.=42.490246, lon.=18.759501, Alt.=44.647980m. Speed=0.684000m/h.</desc>
<speed>0.190000</speed>
</trkpt>
<trkpt lat="42.490246" lon="18.759493">
<ele>44.648956</ele>
<time>2012-05-02T11:56:50Z</time>
<desc>lat.=42.490246, lon.=18.759493, Alt.=44.648956m. Speed=0.792000m/h.</desc>
<speed>0.220000</speed>
</trkpt>
<trkpt lat="42.490250" lon="18.759470">
<ele>44.651886</ele>
<time>2012-05-02T11:56:55Z</time>
<desc>lat.=42.490250, lon.=18.759470, Alt.=44.651886m. Speed=1.188000m/h.</desc>
<speed>0.330000</speed>
</trkpt>
<trkpt lat="42.490273" lon="18.759447">
<ele>44.667511</ele>
<time>2012-05-02T11:57:00Z</time>
<desc>lat.=42.490273, lon.=18.759447, Alt.=44.667511m. Speed=1.404000m/h.</desc>
<speed>0.390000</speed>
</trkpt>
<trkpt lat="42.490295" lon="18.759464">
<ele>44.667511</ele>
<time>2012-05-02T11:57:05Z</time>
<desc>lat.=42.490295, lon.=18.759464, Alt.=44.667511m. Speed=1.224000m/h.</desc>
<speed>0.340000</speed>
</trkpt>
<trkpt lat="42.490341" lon="18.759521">
<ele>44.658722</ele>
<time>2012-05-02T11:57:10Z</time>
<desc>lat.=42.490341, lon.=18.759521, Alt.=44.658722m. Speed=1.260000m/h.</desc>
<speed>0.350000</speed>
</trkpt>
<trkpt lat="42.490356" lon="18.759548">
<ele>44.653839</ele>
<time>2012-05-02T11:57:15Z</time>
<desc>lat.=42.490356, lon.=18.759548, Alt.=44.653839m. Speed=1.080000m/h.</desc>
<speed>0.300000</speed>
</trkpt>
<trkpt lat="42.490356" lon="18.759581">
<ele>44.651886</ele>
<time>2012-05-02T11:57:20Z</time>
<desc>lat.=42.490356, lon.=18.759581, Alt.=44.651886m. Speed=0.936000m/h.</desc>
<speed>0.260000</speed>
</trkpt>
<trkpt lat="42.490356" lon="18.759590">
<ele>44.653839</ele>
<time>2012-05-02T11:57:25Z</time>
<desc>lat.=42.490356, lon.=18.759590, Alt.=44.653839m. Speed=0.468000m/h.</desc>
<speed>0.130000</speed>
</trkpt>
<trkpt lat="42.490349" lon="18.759600">
<ele>44.657745</ele>
<time>2012-05-02T11:57:30Z</time>
<desc>lat.=42.490349, lon.=18.759600, Alt.=44.657745m. Speed=1.008000m/h.</desc>
<speed>0.280000</speed>
</trkpt>
<trkpt lat="42.490341" lon="18.759613">
<ele>44.663605</ele>
<time>2012-05-02T11:57:35Z</time>
<desc>lat.=42.490341, lon.=18.759613, Alt.=44.663605m. Speed=0.936000m/h.</desc>
<speed>0.260000</speed>
</trkpt>
<trkpt lat="42.490322" lon="18.759605">
<ele>44.663605</ele>
<time>2012-05-02T11:57:40Z</time>
<desc>lat.=42.490322, lon.=18.759605, Alt.=44.663605m. Speed=1.152000m/h.</desc>
<speed>0.320000</speed>
</trkpt>
<trkpt lat="42.490311" lon="18.759583">
<ele>44.666534</ele>
<time>2012-05-02T11:57:45Z</time>
<desc>lat.=42.490311, lon.=18.759583, Alt.=44.666534m. Speed=0.972000m/h.</desc>
<speed>0.270000</speed>
</trkpt>
<trkpt lat="42.490303" lon="18.759575">
<ele>44.670441</ele>
<time>2012-05-02T11:57:50Z</time>
<desc>lat.=42.490303, lon.=18.759575, Alt.=44.670441m. Speed=0.828000m/h.</desc>
<speed>0.230000</speed>
</trkpt>
<trkpt lat="42.490292" lon="18.759573">
<ele>44.674347</ele>
<time>2012-05-02T11:57:55Z</time>
<desc>lat.=42.490292, lon.=18.759573, Alt.=44.674347m. Speed=0.936000m/h.</desc>
<speed>0.260000</speed>
</trkpt>
<trkpt lat="42.490280" lon="18.759552">
<ele>44.672394</ele>
<time>2012-05-02T11:58:00Z</time>
<desc>lat.=42.490280, lon.=18.759552, Alt.=44.672394m. Speed=1.260000m/h.</desc>
<speed>0.350000</speed>
</trkpt>
<trkpt lat="42.490299" lon="18.759501">
<ele>44.656769</ele>
<time>2012-05-02T11:58:05Z</time>
<desc>lat.=42.490299, lon.=18.759501, Alt.=44.656769m. Speed=1.368000m/h.</desc>
<speed>0.380000</speed>
</trkpt>
<trkpt lat="42.490314" lon="18.759384">
<ele>44.611847</ele>
<time>2012-05-02T11:58:10Z</time>
<desc>lat.=42.490314, lon.=18.759384, Alt.=44.611847m. Speed=2.052000m/h.</desc>
<speed>0.570000</speed>
</trkpt>
<trkpt lat="42.490356" lon="18.759342">
<ele>44.436066</ele>
<time>2012-05-02T11:58:15Z</time>
<desc>lat.=42.490356, lon.=18.759342, Alt.=44.436066m. Speed=0.720000m/h.</desc>
<speed>0.200000</speed>
</trkpt>
<trkpt lat="42.490391" lon="18.759363">
<ele>44.430206</ele>
<time>2012-05-02T11:58:20Z</time>
<desc>lat.=42.490391, lon.=18.759363, Alt.=44.430206m. Speed=0.972000m/h.</desc>
<speed>0.270000</speed>
</trkpt>
<trkpt lat="42.490421" lon="18.759338">
<ele>44.348175</ele>
<time>2012-05-02T11:58:25Z</time>
<desc>lat.=42.490421, lon.=18.759338, Alt.=44.348175m. Speed=1.008000m/h.</desc>
<speed>0.280000</speed>
</trkpt>
<trkpt lat="42.490440" lon="18.759371">
<ele>44.421417</ele>
<time>2012-05-02T11:58:30Z</time>
<desc>lat.=42.490440, lon.=18.759371, Alt.=44.421417m. Speed=0.648000m/h.</desc>
<speed>0.180000</speed>
</trkpt>
<trkpt lat="42.490448" lon="18.759373">
<ele>44.405792</ele>
<time>2012-05-02T11:58:35Z</time>
<desc>lat.=42.490448, lon.=18.759373, Alt.=44.405792m. Speed=0.576000m/h.</desc>
<speed>0.160000</speed>
</trkpt>
<trkpt lat="42.490456" lon="18.759375">
<ele>44.387238</ele>
<time>2012-05-02T11:58:40Z</time>
<desc>lat.=42.490456, lon.=18.759375, Alt.=44.387238m. Speed=0.540000m/h.</desc>
<speed>0.150000</speed>
</trkpt>
<trkpt lat="42.490459" lon="18.759377">
<ele>44.366730</ele>
<time>2012-05-02T11:58:45Z</time>
<desc>lat.=42.490459, lon.=18.759377, Alt.=44.366730m. Speed=0.324000m/h.</desc>
<speed>0.090000</speed>
</trkpt>
<trkpt lat="42.490463" lon="18.759378">
<ele>44.342316</ele>
<time>2012-05-02T11:58:50Z</time>
<desc>lat.=42.490463, lon.=18.759378, Alt.=44.342316m. Speed=0.288000m/h.</desc>
<speed>0.080000</speed>
</trkpt>
<trkpt lat="42.490467" lon="18.759378">
<ele>44.320831</ele>
<time>2012-05-02T11:58:55Z</time>
<desc>lat.=42.490467, lon.=18.759378, Alt.=44.320831m. Speed=0.072000m/h.</desc>
<speed>0.020000</speed>
</trkpt>
<trkpt lat="42.490471" lon="18.759380">
<ele>44.301300</ele>
<time>2012-05-02T11:59:00Z</time>
<desc>lat.=42.490471, lon.=18.759380, Alt.=44.301300m. Speed=0.000000m/h.</desc>
<speed>0.000000</speed>
</trkpt>
<trkpt lat="42.490467" lon="18.759380">
<ele>44.285675</ele>
<time>2012-05-02T11:59:05Z</time>
<desc>lat.=42.490467, lon.=18.759380, Alt.=44.285675m. Speed=0.036000m/h.</desc>
<speed>0.010000</speed>
</trkpt>
<trkpt lat="42.490467" lon="18.759380">
<ele>44.285675</ele>
<time>2012-05-02T11:59:10Z</time>
<desc>lat.=42.490467, lon.=18.759380, Alt.=44.285675m. Speed=0.000000m/h.</desc>
<speed>0.000000</speed>
</trkpt>
<trkpt lat="42.490467" lon="18.759380">
<ele>44.281769</ele>
<time>2012-05-02T11:59:15Z</time>
<desc>lat.=42.490467, lon.=18.759380, Alt.=44.281769m. Speed=0.036000m/h.</desc>
<speed>0.010000</speed>
</trkpt>
<trkpt lat="42.490467" lon="18.759380">
<ele>44.280792</ele>
<time>2012-05-02T11:59:20Z</time>
<desc>lat.=42.490467, lon.=18.759380, Alt.=44.280792m. Speed=0.000000m/h.</desc>
<speed>0.000000</speed>
</trkpt>
<trkpt lat="42.490467" lon="18.759380">
<ele>44.277863</ele>
<time>2012-05-02T11:59:25Z</time>
<desc>lat.=42.490467, lon.=18.759380, Alt.=44.277863m. Speed=0.036000m/h.</desc>
<speed>0.010000</speed>
</trkpt>
<trkpt lat="42.490467" lon="18.759380">
<ele>44.272003</ele>
<time>2012-05-02T11:59:30Z</time>
<desc>lat.=42.490467, lon.=18.759380, Alt.=44.272003m. Speed=0.072000m/h.</desc>
<speed>0.020000</speed>
</trkpt>
<trkpt lat="42.490467" lon="18.759380">
<ele>44.268097</ele>
<time>2012-05-02T11:59:35Z</time>
<desc>lat.=42.490467, lon.=18.759380, Alt.=44.268097m. Speed=0.000000m/h.</desc>
<speed>0.000000</speed>
</trkpt>
<trkpt lat="42.490471" lon="18.759380">
<ele>44.271027</ele>
<time>2012-05-02T11:59:40Z</time>
<desc>lat.=42.490471, lon.=18.759380, Alt.=44.271027m. Speed=0.000000m/h.</desc>
<speed>0.000000</speed>
</trkpt>
<trkpt lat="42.490471" lon="18.759380">
<ele>44.274933</ele>
<time>2012-05-02T11:59:45Z</time>
<desc>lat.=42.490471, lon.=18.759380, Alt.=44.274933m. Speed=0.072000m/h.</desc>
<speed>0.020000</speed>
</trkpt>
<trkpt lat="42.490471" lon="18.759380">
<ele>44.277863</ele>
<time>2012-05-02T11:59:50Z</time>
<desc>lat.=42.490471, lon.=18.759380, Alt.=44.277863m. Speed=0.072000m/h.</desc>
<speed>0.020000</speed>
</trkpt>
<trkpt lat="42.490471" lon="18.759378">
<ele>44.285675</ele>
<time>2012-05-02T11:59:55Z</time>
<desc>lat.=42.490471, lon.=18.759378, Alt.=44.285675m. Speed=0.000000m/h.</desc>
<speed>0.000000</speed>
</trkpt>
<trkpt lat="42.490471" lon="18.759378">
<ele>44.288605</ele>
<time>2012-05-02T12:00:00Z</time>
<desc>lat.=42.490471, lon.=18.759378, Alt.=44.288605m. Speed=0.036000m/h.</desc>
<speed>0.010000</speed>
</trkpt>
<trkpt lat="42.490471" lon="18.759378">
<ele>44.288605</ele>
<time>2012-05-02T12:00:05Z</time>
<desc>lat.=42.490471, lon.=18.759378, Alt.=44.288605m. Speed=0.036000m/h.</desc>
<speed>0.010000</speed>
</trkpt>
<trkpt lat="42.490471" lon="18.759377">
<ele>44.287628</ele>
<time>2012-05-02T12:00:10Z</time>
<desc>lat.=42.490471, lon.=18.759377, Alt.=44.287628m. Speed=0.036000m/h.</desc>
<speed>0.010000</speed>
</trkpt>
<trkpt lat="42.490467" lon="18.759377">
<ele>44.282745</ele>
<time>2012-05-02T12:00:15Z</time>
<desc>lat.=42.490467, lon.=18.759377, Alt.=44.282745m. Speed=0.000000m/h.</desc>
<speed>0.000000</speed>
</trkpt>
<trkpt lat="42.490467" lon="18.759377">
<ele>44.280792</ele>
<time>2012-05-02T12:00:20Z</time>
<desc>lat.=42.490467, lon.=18.759377, Alt.=44.280792m. Speed=0.036000m/h.</desc>
<speed>0.010000</speed>
</trkpt>
<trkpt lat="42.490467" lon="18.759377">
<ele>44.276886</ele>
<time>2012-05-02T12:00:25Z</time>
<desc>lat.=42.490467, lon.=18.759377, Alt.=44.276886m. Speed=0.000000m/h.</desc>
<speed>0.000000</speed>
</trkpt>
<trkpt lat="42.490467" lon="18.759377">
<ele>44.280792</ele>
<time>2012-05-02T12:00:30Z</time>
<desc>lat.=42.490467, lon.=18.759377, Alt.=44.280792m. Speed=0.036000m/h.</desc>
<speed>0.010000</speed>
</trkpt>
<trkpt lat="42.490467" lon="18.759377">
<ele>44.279816</ele>
<time>2012-05-02T12:00:35Z</time>
<desc>lat.=42.490467, lon.=18.759377, Alt.=44.279816m. Speed=0.072000m/h.</desc>
<speed>0.020000</speed>
</trkpt>
<trkpt lat="42.490467" lon="18.759375">
<ele>44.281769</ele>
<time>2012-05-02T12:00:40Z</time>
<desc>lat.=42.490467, lon.=18.759375, Alt.=44.281769m. Speed=0.000000m/h.</desc>
<speed>0.000000</speed>
</trkpt>
<trkpt lat="42.490467" lon="18.759377">
<ele>44.279816</ele>
<time>2012-05-02T12:00:45Z</time>
<desc>lat.=42.490467, lon.=18.759377, Alt.=44.279816m. Speed=0.108000m/h.</desc>
<speed>0.030000</speed>
</trkpt>
<trkpt lat="42.490467" lon="18.759377">
<ele>44.278839</ele>
<time>2012-05-02T12:00:50Z</time>
<desc>lat.=42.490467, lon.=18.759377, Alt.=44.278839m. Speed=0.000000m/h.</desc>
<speed>0.000000</speed>
</trkpt>
<trkpt lat="42.490467" lon="18.759377">
<ele>44.277863</ele>
<time>2012-05-02T12:00:55Z</time>
<desc>lat.=42.490467, lon.=18.759377, Alt.=44.277863m. Speed=0.036000m/h.</desc>
<speed>0.010000</speed>
</trkpt>
<trkpt lat="42.490467" lon="18.759377">
<ele>44.273956</ele>
<time>2012-05-02T12:01:00Z</time>
<desc>lat.=42.490467, lon.=18.759377, Alt.=44.273956m. Speed=0.036000m/h.</desc>
<speed>0.010000</speed>
</trkpt>
<trkpt lat="42.490467" lon="18.759377">
<ele>44.272003</ele>
<time>2012-05-02T12:01:05Z</time>
<desc>lat.=42.490467, lon.=18.759377, Alt.=44.272003m. Speed=0.000000m/h.</desc>
<speed>0.000000</speed>
</trkpt>
<trkpt lat="42.490467" lon="18.759377">
<ele>44.274933</ele>
<time>2012-05-02T12:01:10Z</time>
<desc>lat.=42.490467, lon.=18.759377, Alt.=44.274933m. Speed=0.036000m/h.</desc>
<speed>0.010000</speed>
</trkpt>
<trkpt lat="42.490467" lon="18.759377">
<ele>44.277863</ele>
<time>2012-05-02T12:01:15Z</time>
<desc>lat.=42.490467, lon.=18.759377, Alt.=44.277863m. Speed=0.036000m/h.</desc>
<speed>0.010000</speed>
</trkpt>
<trkpt lat="42.490467" lon="18.759377">
<ele>44.276886</ele>
<time>2012-05-02T12:01:20Z</time>
<desc>lat.=42.490467, lon.=18.759377, Alt.=44.276886m. Speed=0.432000m/h.</desc>
<speed>0.120000</speed>
</trkpt>
<trkpt lat="42.490467" lon="18.759377">
<ele>44.274933</ele>
<time>2012-05-02T12:01:25Z</time>
<desc>lat.=42.490467, lon.=18.759377, Alt.=44.274933m. Speed=0.180000m/h.</desc>
<speed>0.050000</speed>
</trkpt>
<trkpt lat="42.490467" lon="18.759377">
<ele>44.264191</ele>
<time>2012-05-02T12:01:30Z</time>
<desc>lat.=42.490467, lon.=18.759377, Alt.=44.264191m. Speed=0.000000m/h.</desc>
<speed>0.000000</speed>
</trkpt>
<trkpt lat="42.490463" lon="18.759375">
<ele>44.255402</ele>
<time>2012-05-02T12:01:35Z</time>
<desc>lat.=42.490463, lon.=18.759375, Alt.=44.255402m. Speed=0.036000m/h.</desc>
<speed>0.010000</speed>
</trkpt>
<trkpt lat="42.490463" lon="18.759375">
<ele>44.244659</ele>
<time>2012-05-02T12:01:40Z</time>
<desc>lat.=42.490463, lon.=18.759375, Alt.=44.244659m. Speed=0.072000m/h.</desc>
<speed>0.020000</speed>
</trkpt>
<trkpt lat="42.490463" lon="18.759375">
<ele>44.235870</ele>
<time>2012-05-02T12:01:45Z</time>
<desc>lat.=42.490463, lon.=18.759375, Alt.=44.235870m. Speed=0.036000m/h.</desc>
<speed>0.010000</speed>
</trkpt>
<trkpt lat="42.490463" lon="18.759375">
<ele>44.232941</ele>
<time>2012-05-02T12:01:50Z</time>
<desc>lat.=42.490463, lon.=18.759375, Alt.=44.232941m. Speed=0.108000m/h.</desc>
<speed>0.030000</speed>
</trkpt>
<trkpt lat="42.490467" lon="18.759375">
<ele>44.231964</ele>
<time>2012-05-02T12:01:55Z</time>
<desc>lat.=42.490467, lon.=18.759375, Alt.=44.231964m. Speed=0.036000m/h.</desc>
<speed>0.010000</speed>
</trkpt>
<trkpt lat="42.490467" lon="18.759377">
<ele>44.230988</ele>
<time>2012-05-02T12:02:00Z</time>
<desc>lat.=42.490467, lon.=18.759377, Alt.=44.230988m. Speed=0.072000m/h.</desc>
<speed>0.020000</speed>
</trkpt>
<trkpt lat="42.490467" lon="18.759377">
<ele>44.226105</ele>
<time>2012-05-02T12:02:05Z</time>
<desc>lat.=42.490467, lon.=18.759377, Alt.=44.226105m. Speed=0.036000m/h.</desc>
<speed>0.010000</speed>
</trkpt>
<trkpt lat="42.490467" lon="18.759377">
<ele>44.220245</ele>
<time>2012-05-02T12:02:10Z</time>
<desc>lat.=42.490467, lon.=18.759377, Alt.=44.220245m. Speed=0.072000m/h.</desc>
<speed>0.020000</speed>
</trkpt>
<trkpt lat="42.490467" lon="18.759377">
<ele>44.207550</ele>
<time>2012-05-02T12:02:15Z</time>
<desc>lat.=42.490467, lon.=18.759377, Alt.=44.207550m. Speed=0.036000m/h.</desc>
<speed>0.010000</speed>
</trkpt>
<trkpt lat="42.490463" lon="18.759377">
<ele>44.199738</ele>
<time>2012-05-02T12:02:20Z</time>
<desc>lat.=42.490463, lon.=18.759377, Alt.=44.199738m. Speed=0.036000m/h.</desc>
<speed>0.010000</speed>
</trkpt>
<trkpt lat="42.490463" lon="18.759377">
<ele>44.191925</ele>
<time>2012-05-02T12:02:25Z</time>
<desc>lat.=42.490463, lon.=18.759377, Alt.=44.191925m. Speed=0.036000m/h.</desc>
<speed>0.010000</speed>
</trkpt>
<trkpt lat="42.490463" lon="18.759377">
<ele>44.174347</ele>
<time>2012-05-02T12:02:30Z</time>
<desc>lat.=42.490463, lon.=18.759377, Alt.=44.174347m. Speed=0.108000m/h.</desc>
<speed>0.030000</speed>
</trkpt>
<trkpt lat="42.490463" lon="18.759377">
<ele>44.153839</ele>
<time>2012-05-02T12:02:35Z</time>
<desc>lat.=42.490463, lon.=18.759377, Alt.=44.153839m. Speed=0.036000m/h.</desc>
<speed>0.010000</speed>
</trkpt>
<trkpt lat="42.490463" lon="18.759377">
<ele>44.131378</ele>
<time>2012-05-02T12:02:40Z</time>
<desc>lat.=42.490463, lon.=18.759377, Alt.=44.131378m. Speed=0.072000m/h.</desc>
<speed>0.020000</speed>
</trkpt>
<trkpt lat="42.490459" lon="18.759377">
<ele>44.105011</ele>
<time>2012-05-02T12:02:45Z</time>
<desc>lat.=42.490459, lon.=18.759377, Alt.=44.105011m. Speed=0.072000m/h.</desc>
<speed>0.020000</speed>
</trkpt>
<trkpt lat="42.490459" lon="18.759377">
<ele>44.088409</ele>
<time>2012-05-02T12:02:50Z</time>
<desc>lat.=42.490459, lon.=18.759377, Alt.=44.088409m. Speed=0.000000m/h.</desc>
<speed>0.000000</speed>
</trkpt>
<trkpt lat="42.490459" lon="18.759377">
<ele>44.062042</ele>
<time>2012-05-02T12:02:55Z</time>
<desc>lat.=42.490459, lon.=18.759377, Alt.=44.062042m. Speed=0.036000m/h.</desc>
<speed>0.010000</speed>
</trkpt>
<trkpt lat="42.490459" lon="18.759377">
<ele>44.046417</ele>
<time>2012-05-02T12:03:00Z</time>
<desc>lat.=42.490459, lon.=18.759377, Alt.=44.046417m. Speed=0.000000m/h.</desc>
<speed>0.000000</speed>
</trkpt>
<trkpt lat="42.490459" lon="18.759377">
<ele>44.035675</ele>
<time>2012-05-02T12:03:05Z</time>
<desc>lat.=42.490459, lon.=18.759377, Alt.=44.035675m. Speed=0.036000m/h.</desc>
<speed>0.010000</speed>
</trkpt>
<trkpt lat="42.490459" lon="18.759377">
<ele>44.026886</ele>
<time>2012-05-02T12:03:10Z</time>
<desc>lat.=42.490459, lon.=18.759377, Alt.=44.026886m. Speed=0.036000m/h.</desc>
<speed>0.010000</speed>
</trkpt>
<trkpt lat="42.490459" lon="18.759377">
<ele>44.024933</ele>
<time>2012-05-02T12:03:15Z</time>
<desc>lat.=42.490459, lon.=18.759377, Alt.=44.024933m. Speed=0.000000m/h.</desc>
<speed>0.000000</speed>
</trkpt>
<trkpt lat="42.490459" lon="18.759377">
<ele>44.026886</ele>
<time>2012-05-02T12:03:20Z</time>
<desc>lat.=42.490459, lon.=18.759377, Alt.=44.026886m. Speed=0.000000m/h.</desc>
<speed>0.000000</speed>
</trkpt>
<trkpt lat="42.490459" lon="18.759377">
<ele>44.020050</ele>
<time>2012-05-02T12:03:25Z</time>
<desc>lat.=42.490459, lon.=18.759377, Alt.=44.020050m. Speed=0.000000m/h.</desc>
<speed>0.000000</speed>
</trkpt>
<trkpt lat="42.490459" lon="18.759377">
<ele>44.010284</ele>
<time>2012-05-02T12:03:30Z</time>
<desc>lat.=42.490459, lon.=18.759377, Alt.=44.010284m. Speed=0.000000m/h.</desc>
<speed>0.000000</speed>
</trkpt>
<trkpt lat="42.490459" lon="18.759377">
<ele>43.993683</ele>
<time>2012-05-02T12:03:35Z</time>
<desc>lat.=42.490459, lon.=18.759377, Alt.=43.993683m. Speed=0.000000m/h.</desc>
<speed>0.000000</speed>
</trkpt>
<trkpt lat="42.490459" lon="18.759377">
<ele>43.979034</ele>
<time>2012-05-02T12:03:40Z</time>
<desc>lat.=42.490459, lon.=18.759377, Alt.=43.979034m. Speed=0.036000m/h.</desc>
<speed>0.010000</speed>
</trkpt>
<trkpt lat="42.490459" lon="18.759377">
<ele>43.972198</ele>
<time>2012-05-02T12:03:45Z</time>
<desc>lat.=42.490459, lon.=18.759377, Alt.=43.972198m. Speed=0.000000m/h.</desc>
<speed>0.000000</speed>
</trkpt>
<trkpt lat="42.490459" lon="18.759377">
<ele>43.964386</ele>
<time>2012-05-02T12:03:50Z</time>
<desc>lat.=42.490459, lon.=18.759377, Alt.=43.964386m. Speed=0.000000m/h.</desc>
<speed>0.000000</speed>
</trkpt>
<trkpt lat="42.490459" lon="18.759377">
<ele>43.955597</ele>
<time>2012-05-02T12:03:55Z</time>
<desc>lat.=42.490459, lon.=18.759377, Alt.=43.955597m. Speed=0.036000m/h.</desc>
<speed>0.010000</speed>
</trkpt>
<trkpt lat="42.490459" lon="18.759377">
<ele>43.943878</ele>
<time>2012-05-02T12:04:00Z</time>
<desc>lat.=42.490459, lon.=18.759377, Alt.=43.943878m. Speed=0.036000m/h.</desc>
<speed>0.010000</speed>
</trkpt>
<trkpt lat="42.490459" lon="18.759377">
<ele>43.938019</ele>
<time>2012-05-02T12:04:05Z</time>
<desc>lat.=42.490459, lon.=18.759377, Alt.=43.938019m. Speed=0.072000m/h.</desc>
<speed>0.020000</speed>
</trkpt>
<trkpt lat="42.490459" lon="18.759377">
<ele>43.930206</ele>
<time>2012-05-02T12:04:10Z</time>
<desc>lat.=42.490459, lon.=18.759377, Alt.=43.930206m. Speed=0.000000m/h.</desc>
<speed>0.000000</speed>
</trkpt>
<trkpt lat="42.490459" lon="18.759377">
<ele>43.924347</ele>
<time>2012-05-02T12:04:15Z</time>
<desc>lat.=42.490459, lon.=18.759377, Alt.=43.924347m. Speed=0.000000m/h.</desc>
<speed>0.000000</speed>
</trkpt>
<trkpt lat="42.490459" lon="18.759377">
<ele>43.918488</ele>
<time>2012-05-02T12:04:20Z</time>
<desc>lat.=42.490459, lon.=18.759377, Alt.=43.918488m. Speed=0.000000m/h.</desc>
<speed>0.000000</speed>
</trkpt>
<trkpt lat="42.490459" lon="18.759377">
<ele>43.900909</ele>
<time>2012-05-02T12:04:25Z</time>
<desc>lat.=42.490459, lon.=18.759377, Alt.=43.900909m. Speed=0.036000m/h.</desc>
<speed>0.010000</speed>
</trkpt>
<trkpt lat="42.490459" lon="18.759377">
<ele>43.892120</ele>
<time>2012-05-02T12:04:30Z</time>
<desc>lat.=42.490459, lon.=18.759377, Alt.=43.892120m. Speed=0.000000m/h.</desc>
<speed>0.000000</speed>
</trkpt>
<trkpt lat="42.490459" lon="18.759377">
<ele>43.888214</ele>
<time>2012-05-02T12:04:35Z</time>
<desc>lat.=42.490459, lon.=18.759377, Alt.=43.888214m. Speed=0.144000m/h.</desc>
<speed>0.040000</speed>
</trkpt>
<trkpt lat="42.490452" lon="18.759377">
<ele>43.876495</ele>
<time>2012-05-02T12:04:40Z</time>
<desc>lat.=42.490452, lon.=18.759377, Alt.=43.876495m. Speed=0.144000m/h.</desc>
<speed>0.040000</speed>
</trkpt>
<trkpt lat="42.490448" lon="18.759378">
<ele>43.865753</ele>
<time>2012-05-02T12:04:45Z</time>
<desc>lat.=42.490448, lon.=18.759378, Alt.=43.865753m. Speed=0.000000m/h.</desc>
<speed>0.000000</speed>
</trkpt>
<trkpt lat="42.490444" lon="18.759380">
<ele>43.855011</ele>
<time>2012-05-02T12:04:50Z</time>
<desc>lat.=42.490444, lon.=18.759380, Alt.=43.855011m. Speed=0.000000m/h.</desc>
<speed>0.000000</speed>
</trkpt>
<trkpt lat="42.490444" lon="18.759380">
<ele>43.849152</ele>
<time>2012-05-02T12:04:55Z</time>
<desc>lat.=42.490444, lon.=18.759380, Alt.=43.849152m. Speed=0.036000m/h.</desc>
<speed>0.010000</speed>
</trkpt>
<trkpt lat="42.490444" lon="18.759382">
<ele>43.847198</ele>
<time>2012-05-02T12:05:00Z</time>
<desc>lat.=42.490444, lon.=18.759382, Alt.=43.847198m. Speed=0.000000m/h.</desc>
<speed>0.000000</speed>
</trkpt>
<trkpt lat="42.490444" lon="18.759382">
<ele>43.842316</ele>
<time>2012-05-02T12:05:05Z</time>
<desc>lat.=42.490444, lon.=18.759382, Alt.=43.842316m. Speed=0.072000m/h.</desc>
<speed>0.020000</speed>
</trkpt>
<trkpt lat="42.490444" lon="18.759382">
<ele>43.829620</ele>
<time>2012-05-02T12:05:10Z</time>
<desc>lat.=42.490444, lon.=18.759382, Alt.=43.829620m. Speed=0.144000m/h.</desc>
<speed>0.040000</speed>
</trkpt>
<trkpt lat="42.490440" lon="18.759382">
<ele>43.813995</ele>
<time>2012-05-02T12:05:15Z</time>
<desc>lat.=42.490440, lon.=18.759382, Alt.=43.813995m. Speed=0.036000m/h.</desc>
<speed>0.010000</speed>
</trkpt>
<trkpt lat="42.490440" lon="18.759382">
<ele>43.812042</ele>
<time>2012-05-02T12:05:20Z</time>
<desc>lat.=42.490440, lon.=18.759382, Alt.=43.812042m. Speed=0.684000m/h.</desc>
<speed>0.190000</speed>
</trkpt>
<trkpt lat="42.490444" lon="18.759384">
<ele>43.835480</ele>
<time>2012-05-02T12:05:25Z</time>
<desc>lat.=42.490444, lon.=18.759384, Alt.=43.835480m. Speed=0.828000m/h.</desc>
<speed>0.230000</speed>
</trkpt>
<trkpt lat="42.490452" lon="18.759386">
<ele>43.851105</ele>
<time>2012-05-02T12:05:30Z</time>
<desc>lat.=42.490452, lon.=18.759386, Alt.=43.851105m. Speed=0.144000m/h.</desc>
<speed>0.040000</speed>
</trkpt>
<trkpt lat="42.490456" lon="18.759386">
<ele>43.825714</ele>
<time>2012-05-02T12:05:35Z</time>
<desc>lat.=42.490456, lon.=18.759386, Alt.=43.825714m. Speed=0.396000m/h.</desc>
<speed>0.110000</speed>
</trkpt>
<trkpt lat="42.490459" lon="18.759388">
<ele>43.789581</ele>
<time>2012-05-02T12:05:40Z</time>
<desc>lat.=42.490459, lon.=18.759388, Alt.=43.789581m. Speed=0.108000m/h.</desc>
<speed>0.030000</speed>
</trkpt>
<trkpt lat="42.490459" lon="18.759388">
<ele>43.775909</ele>
<time>2012-05-02T12:05:45Z</time>
<desc>lat.=42.490459, lon.=18.759388, Alt.=43.775909m. Speed=0.252000m/h.</desc>
<speed>0.070000</speed>
</trkpt>
<trkpt lat="42.490463" lon="18.759388">
<ele>43.782745</ele>
<time>2012-05-02T12:05:50Z</time>
<desc>lat.=42.490463, lon.=18.759388, Alt.=43.782745m. Speed=0.432000m/h.</desc>
<speed>0.120000</speed>
</trkpt>
<trkpt lat="42.490471" lon="18.759390">
<ele>43.777863</ele>
<time>2012-05-02T12:05:55Z</time>
<desc>lat.=42.490471, lon.=18.759390, Alt.=43.777863m. Speed=0.324000m/h.</desc>
<speed>0.090000</speed>
</trkpt>
<trkpt lat="42.490475" lon="18.759390">
<ele>43.768097</ele>
<time>2012-05-02T12:06:00Z</time>
<desc>lat.=42.490475, lon.=18.759390, Alt.=43.768097m. Speed=0.756000m/h.</desc>
<speed>0.210000</speed>
</trkpt>
<trkpt lat="42.490482" lon="18.759392">
<ele>43.793488</ele>
<time>2012-05-02T12:06:05Z</time>
<desc>lat.=42.490482, lon.=18.759392, Alt.=43.793488m. Speed=0.288000m/h.</desc>
<speed>0.080000</speed>
</trkpt>
<trkpt lat="42.490490" lon="18.759394">
<ele>43.859894</ele>
<time>2012-05-02T12:06:10Z</time>
<desc>lat.=42.490490, lon.=18.759394, Alt.=43.859894m. Speed=0.612000m/h.</desc>
<speed>0.170000</speed>
</trkpt>
<trkpt lat="42.490501" lon="18.759396">
<ele>44.026886</ele>
<time>2012-05-02T12:06:15Z</time>
<desc>lat.=42.490501, lon.=18.759396, Alt.=44.026886m. Speed=0.216000m/h.</desc>
<speed>0.060000</speed>
</trkpt>
<trkpt lat="42.490501" lon="18.759394">
<ele>44.139191</ele>
<time>2012-05-02T12:06:20Z</time>
<desc>lat.=42.490501, lon.=18.759394, Alt.=44.139191m. Speed=0.612000m/h.</desc>
<speed>0.170000</speed>
</trkpt>
<trkpt lat="42.490494" lon="18.759394">
<ele>44.139191</ele>
<time>2012-05-02T12:06:25Z</time>
<desc>lat.=42.490494, lon.=18.759394, Alt.=44.139191m. Speed=0.540000m/h.</desc>
<speed>0.150000</speed>
</trkpt>
<trkpt lat="42.490486" lon="18.759394">
<ele>44.138214</ele>
<time>2012-05-02T12:06:30Z</time>
<desc>lat.=42.490486, lon.=18.759394, Alt.=44.138214m. Speed=0.468000m/h.</desc>
<speed>0.130000</speed>
</trkpt>
<trkpt lat="42.490479" lon="18.759392">
<ele>44.120636</ele>
<time>2012-05-02T12:06:35Z</time>
<desc>lat.=42.490479, lon.=18.759392, Alt.=44.120636m. Speed=0.576000m/h.</desc>
<speed>0.160000</speed>
</trkpt>
<trkpt lat="42.490475" lon="18.759390">
<ele>44.101105</ele>
<time>2012-05-02T12:06:40Z</time>
<desc>lat.=42.490475, lon.=18.759390, Alt.=44.101105m. Speed=0.144000m/h.</desc>
<speed>0.040000</speed>
</trkpt>
<trkpt lat="42.490475" lon="18.759390">
<ele>44.076691</ele>
<time>2012-05-02T12:06:45Z</time>
<desc>lat.=42.490475, lon.=18.759390, Alt.=44.076691m. Speed=0.108000m/h.</desc>
<speed>0.030000</speed>
</trkpt>
<trkpt lat="42.490479" lon="18.759392">
<ele>44.071808</ele>
<time>2012-05-02T12:06:50Z</time>
<desc>lat.=42.490479, lon.=18.759392, Alt.=44.071808m. Speed=0.216000m/h.</desc>
<speed>0.060000</speed>
</trkpt>
<trkpt lat="42.490475" lon="18.759392">
<ele>44.095245</ele>
<time>2012-05-02T12:06:55Z</time>
<desc>lat.=42.490475, lon.=18.759392, Alt.=44.095245m. Speed=0.072000m/h.</desc>
<speed>0.020000</speed>
</trkpt>
<trkpt lat="42.490479" lon="18.759392">
<ele>44.135284</ele>
<time>2012-05-02T12:07:00Z</time>
<desc>lat.=42.490479, lon.=18.759392, Alt.=44.135284m. Speed=0.684000m/h.</desc>
<speed>0.190000</speed>
</trkpt>
<trkpt lat="42.490475" lon="18.759405">
<ele>44.148956</ele>
<time>2012-05-02T12:07:05Z</time>
<desc>lat.=42.490475, lon.=18.759405, Alt.=44.148956m. Speed=1.152000m/h.</desc>
<speed>0.320000</speed>
</trkpt>
<trkpt lat="42.490326" lon="18.759483">
<ele>44.870636</ele>
<time>2012-05-02T12:07:10Z</time>
<desc>lat.=42.490326, lon.=18.759483, Alt.=44.870636m. Speed=9.036000m/h.</desc>
<speed>2.510000</speed>
</trkpt>
<trkpt lat="42.490242" lon="18.759617">
<ele>43.523956</ele>
<time>2012-05-02T12:07:15Z</time>
<desc>lat.=42.490242, lon.=18.759617, Alt.=43.523956m. Speed=15.120000m/h.</desc>
<speed>4.200000</speed>
</trkpt>
<trkpt lat="42.490158" lon="18.759979">
<ele>40.659698</ele>
<time>2012-05-02T12:07:20Z</time>
<desc>lat.=42.490158, lon.=18.759979, Alt.=40.659698m. Speed=22.716000m/h.</desc>
<speed>6.310000</speed>
</trkpt>
<trkpt lat="42.490116" lon="18.760393">
<ele>39.208527</ele>
<time>2012-05-02T12:07:25Z</time>
<desc>lat.=42.490116, lon.=18.760393, Alt.=39.208527m. Speed=24.695999m/h.</desc>
<speed>6.860000</speed>
</trkpt>
<trkpt lat="42.490120" lon="18.760826">
<ele>38.128448</ele>
<time>2012-05-02T12:07:30Z</time>
<desc>lat.=42.490120, lon.=18.760826, Alt.=38.128448m. Speed=28.224001m/h.</desc>
<speed>7.840000</speed>
</trkpt>
<trkpt lat="42.490185" lon="18.761282">
<ele>37.241730</ele>
<time>2012-05-02T12:07:35Z</time>
<desc>lat.=42.490185, lon.=18.761282, Alt.=37.241730m. Speed=29.268000m/h.</desc>
<speed>8.130000</speed>
</trkpt>
<trkpt lat="42.490303" lon="18.761761">
<ele>37.070831</ele>
<time>2012-05-02T12:07:40Z</time>
<desc>lat.=42.490303, lon.=18.761761, Alt.=37.070831m. Speed=29.628000m/h.</desc>
<speed>8.230000</speed>
</trkpt>
<trkpt lat="42.490353" lon="18.762264">
<ele>35.764191</ele>
<time>2012-05-02T12:07:45Z</time>
<desc>lat.=42.490353, lon.=18.762264, Alt.=35.764191m. Speed=31.968000m/h.</desc>
<speed>8.880000</speed>
</trkpt>
<trkpt lat="42.490284" lon="18.762812">
<ele>33.911652</ele>
<time>2012-05-02T12:07:50Z</time>
<desc>lat.=42.490284, lon.=18.762812, Alt.=33.911652m. Speed=33.804001m/h.</desc>
<speed>9.390000</speed>
</trkpt>
<trkpt lat="42.490105" lon="18.763332">
<ele>33.131378</ele>
<time>2012-05-02T12:07:55Z</time>
<desc>lat.=42.490105, lon.=18.763332, Alt.=33.131378m. Speed=34.523998m/h.</desc>
<speed>9.590000</speed>
</trkpt>
<trkpt lat="42.489799" lon="18.763803">
<ele>30.891373</ele>
<time>2012-05-02T12:08:00Z</time>
<desc>lat.=42.489799, lon.=18.763803, Alt.=30.891373m. Speed=35.424000m/h.</desc>
<speed>9.840000</speed>
</trkpt>
<trkpt lat="42.489418" lon="18.764015">
<ele>29.591568</ele>
<time>2012-05-02T12:08:05Z</time>
<desc>lat.=42.489418, lon.=18.764015, Alt.=29.591568m. Speed=32.723999m/h.</desc>
<speed>9.090000</speed>
</trkpt>
<trkpt lat="42.489056" lon="18.764252">
<ele>27.032486</ele>
<time>2012-05-02T12:08:10Z</time>
<desc>lat.=42.489056, lon.=18.764252, Alt.=27.032486m. Speed=33.155998m/h.</desc>
<speed>9.210000</speed>
</trkpt>
<trkpt lat="42.488735" lon="18.764618">
<ele>26.416763</ele>
<time>2012-05-02T12:08:15Z</time>
<desc>lat.=42.488735, lon.=18.764618, Alt.=26.416763m. Speed=32.832001m/h.</desc>
<speed>9.120000</speed>
</trkpt>
<trkpt lat="42.488480" lon="18.764986">
<ele>24.279556</ele>
<time>2012-05-02T12:08:20Z</time>
<desc>lat.=42.488480, lon.=18.764986, Alt.=24.279556m. Speed=27.576000m/h.</desc>
<speed>7.660000</speed>
</trkpt>
<trkpt lat="42.488197" lon="18.765226">
<ele>22.507095</ele>
<time>2012-05-02T12:08:25Z</time>
<desc>lat.=42.488197, lon.=18.765226, Alt.=22.507095m. Speed=26.424000m/h.</desc>
<speed>7.340000</speed>
</trkpt>
<trkpt lat="42.487873" lon="18.765282">
<ele>21.830338</ele>
<time>2012-05-02T12:08:30Z</time>
<desc>lat.=42.487873, lon.=18.765282, Alt.=21.830338m. Speed=23.472000m/h.</desc>
<speed>6.520000</speed>
</trkpt>
<trkpt lat="42.487629" lon="18.765198">
<ele>20.613541</ele>
<time>2012-05-02T12:08:35Z</time>
<desc>lat.=42.487629, lon.=18.765198, Alt.=20.613541m. Speed=15.336000m/h.</desc>
<speed>4.260000</speed>
</trkpt>
<trkpt lat="42.487473" lon="18.765131">
<ele>17.981216</ele>
<time>2012-05-02T12:08:40Z</time>
<desc>lat.=42.487473, lon.=18.765131, Alt.=17.981216m. Speed=15.588000m/h.</desc>
<speed>4.330000</speed>
</trkpt>
<trkpt lat="42.487236" lon="18.765179">
<ele>17.498306</ele>
<time>2012-05-02T12:08:45Z</time>
<desc>lat.=42.487236, lon.=18.765179, Alt.=17.498306m. Speed=19.476000m/h.</desc>
<speed>5.410000</speed>
</trkpt>
<trkpt lat="42.487019" lon="18.765282">
<ele>17.781998</ele>
<time>2012-05-02T12:08:50Z</time>
<desc>lat.=42.487019, lon.=18.765282, Alt.=17.781998m. Speed=16.704000m/h.</desc>
<speed>4.640000</speed>
</trkpt>
<trkpt lat="42.486813" lon="18.765404">
<ele>17.506119</ele>
<time>2012-05-02T12:08:55Z</time>
<desc>lat.=42.486813, lon.=18.765404, Alt.=17.506119m. Speed=17.100000m/h.</desc>
<speed>4.750000</speed>
</trkpt>
<trkpt lat="42.486633" lon="18.765547">
<ele>17.020767</ele>
<time>2012-05-02T12:09:00Z</time>
<desc>lat.=42.486633, lon.=18.765547, Alt.=17.020767m. Speed=18.431999m/h.</desc>
<speed>5.120000</speed>
</trkpt>
<trkpt lat="42.486488" lon="18.765793">
<ele>17.370377</ele>
<time>2012-05-02T12:09:05Z</time>
<desc>lat.=42.486488, lon.=18.765793, Alt.=17.370377m. Speed=18.792000m/h.</desc>
<speed>5.220000</speed>
</trkpt>
<trkpt lat="42.486401" lon="18.766085">
<ele>17.847427</ele>
<time>2012-05-02T12:09:10Z</time>
<desc>lat.=42.486401, lon.=18.766085, Alt.=17.847427m. Speed=19.115999m/h.</desc>
<speed>5.310000</speed>
</trkpt>
<trkpt lat="42.486382" lon="18.766411">
<ele>18.177017</ele>
<time>2012-05-02T12:09:15Z</time>
<desc>lat.=42.486382, lon.=18.766411, Alt.=18.177017m. Speed=18.252001m/h.</desc>
<speed>5.070000</speed>
</trkpt>
<trkpt lat="42.486332" lon="18.766655">
<ele>18.578384</ele>
<time>2012-05-02T12:09:20Z</time>
<desc>lat.=42.486332, lon.=18.766655, Alt.=18.578384m. Speed=10.116000m/h.</desc>
<speed>2.810000</speed>
</trkpt>
<trkpt lat="42.486080" lon="18.766790">
<ele>18.385513</ele>
<time>2012-05-02T12:09:25Z</time>
<desc>lat.=42.486080, lon.=18.766790, Alt.=18.385513m. Speed=20.988001m/h.</desc>
<speed>5.830000</speed>
</trkpt>
<trkpt lat="42.485806" lon="18.766754">
<ele>18.260025</ele>
<time>2012-05-02T12:09:30Z</time>
<desc>lat.=42.485806, lon.=18.766754, Alt.=18.260025m. Speed=23.004000m/h.</desc>
<speed>6.390000</speed>
</trkpt>
<trkpt lat="42.485500" lon="18.766600">
<ele>18.727310</ele>
<time>2012-05-02T12:09:35Z</time>
<desc>lat.=42.485500, lon.=18.766600, Alt.=18.727310m. Speed=22.104000m/h.</desc>
<speed>6.140000</speed>
</trkpt>
<trkpt lat="42.485245" lon="18.766506">
<ele>18.950455</ele>
<time>2012-05-02T12:09:40Z</time>
<desc>lat.=42.485245, lon.=18.766506, Alt.=18.950455m. Speed=21.600000m/h.</desc>
<speed>6.000000</speed>
</trkpt>
<trkpt lat="42.484959" lon="18.766373">
<ele>20.565201</ele>
<time>2012-05-02T12:09:45Z</time>
<desc>lat.=42.484959, lon.=18.766373, Alt.=20.565201m. Speed=21.851999m/h.</desc>
<speed>6.070000</speed>
</trkpt>
<trkpt lat="42.484673" lon="18.766150">
<ele>23.162369</ele>
<time>2012-05-02T12:09:50Z</time>
<desc>lat.=42.484673, lon.=18.766150, Alt.=23.162369m. Speed=26.028000m/h.</desc>
<speed>7.230000</speed>
</trkpt>
<trkpt lat="42.484417" lon="18.765886">
<ele>23.939713</ele>
<time>2012-05-02T12:09:55Z</time>
<desc>lat.=42.484417, lon.=18.765886, Alt.=23.939713m. Speed=26.208000m/h.</desc>
<speed>7.280000</speed>
</trkpt>
<trkpt lat="42.484150" lon="18.765621">
<ele>24.901627</ele>
<time>2012-05-02T12:10:00Z</time>
<desc>lat.=42.484150, lon.=18.765621, Alt.=24.901627m. Speed=25.704000m/h.</desc>
<speed>7.140000</speed>
</trkpt>
<trkpt lat="42.483902" lon="18.765402">
<ele>25.733658</ele>
<time>2012-05-02T12:10:05Z</time>
<desc>lat.=42.483902, lon.=18.765402, Alt.=25.733658m. Speed=25.236000m/h.</desc>
<speed>7.010000</speed>
</trkpt>
<trkpt lat="42.483562" lon="18.765265">
<ele>26.807388</ele>
<time>2012-05-02T12:10:10Z</time>
<desc>lat.=42.483562, lon.=18.765265, Alt.=26.807388m. Speed=31.572001m/h.</desc>
<speed>8.770000</speed>
</trkpt>
<trkpt lat="42.483150" lon="18.765249">
<ele>25.486588</ele>
<time>2012-05-02T12:10:15Z</time>
<desc>lat.=42.483150, lon.=18.765249, Alt.=25.486588m. Speed=32.580002m/h.</desc>
<speed>9.050001</speed>
</trkpt>
<trkpt lat="42.482742" lon="18.765234">
<ele>26.585709</ele>
<time>2012-05-02T12:10:20Z</time>
<desc>lat.=42.482742, lon.=18.765234, Alt.=26.585709m. Speed=31.680000m/h.</desc>
<speed>8.800000</speed>
</trkpt>
<trkpt lat="42.482395" lon="18.765074">
<ele>27.967056</ele>
<time>2012-05-02T12:10:25Z</time>
<desc>lat.=42.482395, lon.=18.765074, Alt.=27.967056m. Speed=27.972000m/h.</desc>
<speed>7.770000</speed>
</trkpt>
<trkpt lat="42.482075" lon="18.764830">
<ele>30.284439</ele>
<time>2012-05-02T12:10:30Z</time>
<desc>lat.=42.482075, lon.=18.764830, Alt.=30.284439m. Speed=28.799999m/h.</desc>
<speed>8.000000</speed>
</trkpt>
<trkpt lat="42.481773" lon="18.764565">
<ele>31.811295</ele>
<time>2012-05-02T12:10:35Z</time>
<desc>lat.=42.481773, lon.=18.764565, Alt.=31.811295m. Speed=26.532000m/h.</desc>
<speed>7.370000</speed>
</trkpt>
<trkpt lat="42.481514" lon="18.764347">
<ele>32.459503</ele>
<time>2012-05-02T12:10:40Z</time>
<desc>lat.=42.481514, lon.=18.764347, Alt.=32.459503m. Speed=22.788000m/h.</desc>
<speed>6.330000</speed>
</trkpt>
<trkpt lat="42.481201" lon="18.764280">
<ele>32.801300</ele>
<time>2012-05-02T12:10:45Z</time>
<desc>lat.=42.481201, lon.=18.764280, Alt.=32.801300m. Speed=27.396000m/h.</desc>
<speed>7.610000</speed>
</trkpt>
<trkpt lat="42.480824" lon="18.764294">
<ele>32.560089</ele>
<time>2012-05-02T12:10:50Z</time>
<desc>lat.=42.480824, lon.=18.764294, Alt.=32.560089m. Speed=28.764000m/h.</desc>
<speed>7.990000</speed>
</trkpt>
<trkpt lat="42.480473" lon="18.764397">
<ele>31.641373</ele>
<time>2012-05-02T12:10:55Z</time>
<desc>lat.=42.480473, lon.=18.764397, Alt.=31.641373m. Speed=25.596001m/h.</desc>
<speed>7.110000</speed>
</trkpt>
<trkpt lat="42.480106" lon="18.764475">
<ele>31.459732</ele>
<time>2012-05-02T12:11:00Z</time>
<desc>lat.=42.480106, lon.=18.764475, Alt.=31.459732m. Speed=26.532000m/h.</desc>
<speed>7.370000</speed>
</trkpt>
<trkpt lat="42.479786" lon="18.764383">
<ele>30.072525</ele>
<time>2012-05-02T12:11:05Z</time>
<desc>lat.=42.479786, lon.=18.764383, Alt.=30.072525m. Speed=26.604000m/h.</desc>
<speed>7.390000</speed>
</trkpt>
<trkpt lat="42.479538" lon="18.764221">
<ele>29.918716</ele>
<time>2012-05-02T12:11:10Z</time>
<desc>lat.=42.479538, lon.=18.764221, Alt.=29.918716m. Speed=26.424000m/h.</desc>
<speed>7.340000</speed>
</trkpt>
<trkpt lat="42.479275" lon="18.763937">
<ele>31.444595</ele>
<time>2012-05-02T12:11:15Z</time>
<desc>lat.=42.479275, lon.=18.763937, Alt.=31.444595m. Speed=24.552000m/h.</desc>
<speed>6.820000</speed>
</trkpt>
<trkpt lat="42.479023" lon="18.763723">
<ele>32.822784</ele>
<time>2012-05-02T12:11:20Z</time>
<desc>lat.=42.479023, lon.=18.763723, Alt.=32.822784m. Speed=24.264000m/h.</desc>
<speed>6.740000</speed>
</trkpt>
<trkpt lat="42.478691" lon="18.763580">
<ele>35.343292</ele>
<time>2012-05-02T12:11:25Z</time>
<desc>lat.=42.478691, lon.=18.763580, Alt.=35.343292m. Speed=30.204000m/h.</desc>
<speed>8.390000</speed>
</trkpt>
<trkpt lat="42.478348" lon="18.763428">
<ele>37.239777</ele>
<time>2012-05-02T12:11:30Z</time>
<desc>lat.=42.478348, lon.=18.763428, Alt.=37.239777m. Speed=32.220001m/h.</desc>
<speed>8.950000</speed>
</trkpt>
<trkpt lat="42.477947" lon="18.763248">
<ele>33.644073</ele>
<time>2012-05-02T12:11:35Z</time>
<desc>lat.=42.477947, lon.=18.763248, Alt.=33.644073m. Speed=33.335999m/h.</desc>
<speed>9.260000</speed>
</trkpt>
<trkpt lat="42.477512" lon="18.763315">
<ele>30.637955</ele>
<time>2012-05-02T12:11:40Z</time>
<desc>lat.=42.477512, lon.=18.763315, Alt.=30.637955m. Speed=31.212000m/h.</desc>
<speed>8.670000</speed>
</trkpt>
<trkpt lat="42.477142" lon="18.763458">
<ele>26.460709</ele>
<time>2012-05-02T12:11:45Z</time>
<desc>lat.=42.477142, lon.=18.763458, Alt.=26.460709m. Speed=29.160000m/h.</desc>
<speed>8.100000</speed>
</trkpt>
<trkpt lat="42.476772" lon="18.763853">
<ele>24.273697</ele>
<time>2012-05-02T12:11:50Z</time>
<desc>lat.=42.476772, lon.=18.763853, Alt.=24.273697m. Speed=37.332001m/h.</desc>
<speed>10.370000</speed>
</trkpt>
<trkpt lat="42.476410" lon="18.764294">
<ele>22.590103</ele>
<time>2012-05-02T12:11:55Z</time>
<desc>lat.=42.476410, lon.=18.764294, Alt.=22.590103m. Speed=35.243999m/h.</desc>
<speed>9.790000</speed>
</trkpt>
<trkpt lat="42.476124" lon="18.764681">
<ele>20.678970</ele>
<time>2012-05-02T12:12:00Z</time>
<desc>lat.=42.476124, lon.=18.764681, Alt.=20.678970m. Speed=30.240000m/h.</desc>
<speed>8.400000</speed>
</trkpt>
<trkpt lat="42.475769" lon="18.764791">
<ele>18.722916</ele>
<time>2012-05-02T12:12:05Z</time>
<desc>lat.=42.475769, lon.=18.764791, Alt.=18.722916m. Speed=31.212000m/h.</desc>
<speed>8.670000</speed>
</trkpt>
<trkpt lat="42.475346" lon="18.764713">
<ele>15.979134</ele>
<time>2012-05-02T12:12:10Z</time>
<desc>lat.=42.475346, lon.=18.764713, Alt.=15.979134m. Speed=35.928001m/h.</desc>
<speed>9.980000</speed>
</trkpt>
<trkpt lat="42.474876" lon="18.764751">
<ele>14.458382</ele>
<time>2012-05-02T12:12:15Z</time>
<desc>lat.=42.474876, lon.=18.764751, Alt.=14.458382m. Speed=33.768002m/h.</desc>
<speed>9.380000</speed>
</trkpt>
<trkpt lat="42.474472" lon="18.764603">
<ele>12.888802</ele>
<time>2012-05-02T12:12:20Z</time>
<desc>lat.=42.474472, lon.=18.764603, Alt.=12.888802m. Speed=31.752001m/h.</desc>
<speed>8.820000</speed>
</trkpt>
<trkpt lat="42.474129" lon="18.764477">
<ele>11.840706</ele>
<time>2012-05-02T12:12:25Z</time>
<desc>lat.=42.474129, lon.=18.764477, Alt.=11.840706m. Speed=26.712000m/h.</desc>
<speed>7.420000</speed>
</trkpt>
<trkpt lat="42.473763" lon="18.764523">
<ele>11.372688</ele>
<time>2012-05-02T12:12:30Z</time>
<desc>lat.=42.473763, lon.=18.764523, Alt.=11.372688m. Speed=28.476000m/h.</desc>
<speed>7.910000</speed>
</trkpt>
<trkpt lat="42.473404" lon="18.764633">
<ele>12.189095</ele>
<time>2012-05-02T12:12:35Z</time>
<desc>lat.=42.473404, lon.=18.764633, Alt.=12.189095m. Speed=26.243999m/h.</desc>
<speed>7.290000</speed>
</trkpt>
<trkpt lat="42.473114" lon="18.764610">
<ele>12.953255</ele>
<time>2012-05-02T12:12:40Z</time>
<desc>lat.=42.473114, lon.=18.764610, Alt.=12.953255m. Speed=21.888000m/h.</desc>
<speed>6.080000</speed>
</trkpt>
<trkpt lat="42.472912" lon="18.764463">
<ele>14.567757</ele>
<time>2012-05-02T12:12:45Z</time>
<desc>lat.=42.472912, lon.=18.764463, Alt.=14.567757m. Speed=16.704000m/h.</desc>
<speed>4.640000</speed>
</trkpt>
<trkpt lat="42.472713" lon="18.764282">
<ele>17.246841</ele>
<time>2012-05-02T12:12:50Z</time>
<desc>lat.=42.472713, lon.=18.764282, Alt.=17.246841m. Speed=13.284000m/h.</desc>
<speed>3.690000</speed>
</trkpt>
<trkpt lat="42.472527" lon="18.764103">
<ele>19.285416</ele>
<time>2012-05-02T12:12:55Z</time>
<desc>lat.=42.472527, lon.=18.764103, Alt.=19.285416m. Speed=18.576000m/h.</desc>
<speed>5.160000</speed>
</trkpt>
<trkpt lat="42.472336" lon="18.763998">
<ele>20.010513</ele>
<time>2012-05-02T12:13:00Z</time>
<desc>lat.=42.472336, lon.=18.763998, Alt.=20.010513m. Speed=20.483999m/h.</desc>
<speed>5.690000</speed>
</trkpt>
<trkpt lat="42.472088" lon="18.763905">
<ele>20.946548</ele>
<time>2012-05-02T12:13:05Z</time>
<desc>lat.=42.472088, lon.=18.763905, Alt.=20.946548m. Speed=20.700001m/h.</desc>
<speed>5.750000</speed>
</trkpt>
<trkpt lat="42.471790" lon="18.763968">
<ele>21.308853</ele>
<time>2012-05-02T12:13:10Z</time>
<desc>lat.=42.471790, lon.=18.763968, Alt.=21.308853m. Speed=22.680000m/h.</desc>
<speed>6.300000</speed>
</trkpt>
<trkpt lat="42.471527" lon="18.764097">
<ele>21.944595</ele>
<time>2012-05-02T12:13:15Z</time>
<desc>lat.=42.471527, lon.=18.764097, Alt.=21.944595m. Speed=21.059999m/h.</desc>
<speed>5.850000</speed>
</trkpt>
<trkpt lat="42.471279" lon="18.764225">
<ele>22.401627</ele>
<time>2012-05-02T12:13:20Z</time>
<desc>lat.=42.471279, lon.=18.764225, Alt.=22.401627m. Speed=19.548000m/h.</desc>
<speed>5.430000</speed>
</trkpt>
<trkpt lat="42.471104" lon="18.764299">
<ele>20.421158</ele>
<time>2012-05-02T12:13:25Z</time>
<desc>lat.=42.471104, lon.=18.764299, Alt.=20.421158m. Speed=10.296000m/h.</desc>
<speed>2.860000</speed>
</trkpt>
<trkpt lat="42.471001" lon="18.764372">
<ele>20.755142</ele>
<time>2012-05-02T12:13:30Z</time>
<desc>lat.=42.471001, lon.=18.764372, Alt.=20.755142m. Speed=8.532000m/h.</desc>
<speed>2.370000</speed>
</trkpt>
<trkpt lat="42.470940" lon="18.764404">
<ele>20.417252</ele>
<time>2012-05-02T12:13:35Z</time>
<desc>lat.=42.470940, lon.=18.764404, Alt.=20.417252m. Speed=3.204000m/h.</desc>
<speed>0.890000</speed>
</trkpt>
<trkpt lat="42.470943" lon="18.764406">
<ele>19.789322</ele>
<time>2012-05-02T12:13:40Z</time>
<desc>lat.=42.470943, lon.=18.764406, Alt.=19.789322m. Speed=0.252000m/h.</desc>
<speed>0.070000</speed>
</trkpt>
<trkpt lat="42.470940" lon="18.764402">
<ele>19.749283</ele>
<time>2012-05-02T12:13:45Z</time>
<desc>lat.=42.470940, lon.=18.764402, Alt.=19.749283m. Speed=0.792000m/h.</desc>
<speed>0.220000</speed>
</trkpt>
<trkpt lat="42.470940" lon="18.764397">
<ele>19.689713</ele>
<time>2012-05-02T12:13:50Z</time>
<desc>lat.=42.470940, lon.=18.764397, Alt.=19.689713m. Speed=1.080000m/h.</desc>
<speed>0.300000</speed>
</trkpt>
<trkpt lat="42.470943" lon="18.764397">
<ele>19.641373</ele>
<time>2012-05-02T12:13:55Z</time>
<desc>lat.=42.470943, lon.=18.764397, Alt.=19.641373m. Speed=0.036000m/h.</desc>
<speed>0.010000</speed>
</trkpt>
<trkpt lat="42.470947" lon="18.764399">
<ele>19.606216</ele>
<time>2012-05-02T12:14:00Z</time>
<desc>lat.=42.470947, lon.=18.764399, Alt.=19.606216m. Speed=0.144000m/h.</desc>
<speed>0.040000</speed>
</trkpt>
<trkpt lat="42.470947" lon="18.764399">
<ele>19.586197</ele>
<time>2012-05-02T12:14:05Z</time>
<desc>lat.=42.470947, lon.=18.764399, Alt.=19.586197m. Speed=0.252000m/h.</desc>
<speed>0.070000</speed>
</trkpt>
<trkpt lat="42.470943" lon="18.764399">
<ele>19.573013</ele>
<time>2012-05-02T12:14:10Z</time>
<desc>lat.=42.470943, lon.=18.764399, Alt.=19.573013m. Speed=0.324000m/h.</desc>
<speed>0.090000</speed>
</trkpt>
<trkpt lat="42.470943" lon="18.764400">
<ele>19.547623</ele>
<time>2012-05-02T12:14:15Z</time>
<desc>lat.=42.470943, lon.=18.764400, Alt.=19.547623m. Speed=0.468000m/h.</desc>
<speed>0.130000</speed>
</trkpt>
<trkpt lat="42.470943" lon="18.764404">
<ele>19.520767</ele>
<time>2012-05-02T12:14:20Z</time>
<desc>lat.=42.470943, lon.=18.764404, Alt.=19.520767m. Speed=0.216000m/h.</desc>
<speed>0.060000</speed>
</trkpt>
<trkpt lat="42.470947" lon="18.764408">
<ele>19.477798</ele>
<time>2012-05-02T12:14:25Z</time>
<desc>lat.=42.470947, lon.=18.764408, Alt.=19.477798m. Speed=2.736000m/h.</desc>
<speed>0.760000</speed>
</trkpt>
<trkpt lat="42.470917" lon="18.764475">
<ele>18.532486</ele>
<time>2012-05-02T12:14:30Z</time>
<desc>lat.=42.470917, lon.=18.764475, Alt.=18.532486m. Speed=6.012000m/h.</desc>
<speed>1.670000</speed>
</trkpt>
<trkpt lat="42.470829" lon="18.764469">
<ele>16.929947</ele>
<time>2012-05-02T12:14:35Z</time>
<desc>lat.=42.470829, lon.=18.764469, Alt.=16.929947m. Speed=8.604000m/h.</desc>
<speed>2.390000</speed>
</trkpt>
<trkpt lat="42.470699" lon="18.764446">
<ele>14.488167</ele>
<time>2012-05-02T12:14:40Z</time>
<desc>lat.=42.470699, lon.=18.764446, Alt.=14.488167m. Speed=14.544000m/h.</desc>
<speed>4.040000</speed>
</trkpt>
<trkpt lat="42.470490" lon="18.764545">
<ele>12.164436</ele>
<time>2012-05-02T12:14:45Z</time>
<desc>lat.=42.470490, lon.=18.764545, Alt.=12.164436m. Speed=23.868000m/h.</desc>
<speed>6.630000</speed>
</trkpt>
<trkpt lat="42.470158" lon="18.764496">
<ele>10.543587</ele>
<time>2012-05-02T12:14:50Z</time>
<desc>lat.=42.470158, lon.=18.764496, Alt.=10.543587m. Speed=26.712000m/h.</desc>
<speed>7.420000</speed>
</trkpt>
<trkpt lat="42.469849" lon="18.764259">
<ele>8.955452</ele>
<time>2012-05-02T12:14:55Z</time>
<desc>lat.=42.469849, lon.=18.764259, Alt.=8.955452m. Speed=27.396000m/h.</desc>
<speed>7.610000</speed>
</trkpt>
<trkpt lat="42.469601" lon="18.763916">
<ele>6.671329</ele>
<time>2012-05-02T12:15:00Z</time>
<desc>lat.=42.469601, lon.=18.763916, Alt.=6.671329m. Speed=24.299999m/h.</desc>
<speed>6.750000</speed>
</trkpt>
<trkpt lat="42.469322" lon="18.763742">
<ele>5.965275</ele>
<time>2012-05-02T12:15:05Z</time>
<desc>lat.=42.469322, lon.=18.763742, Alt.=5.965275m. Speed=24.299999m/h.</desc>
<speed>6.750000</speed>
</trkpt>
<trkpt lat="42.469067" lon="18.763607">
<ele>4.762760</ele>
<time>2012-05-02T12:15:10Z</time>
<desc>lat.=42.469067, lon.=18.763607, Alt.=4.762760m. Speed=21.924000m/h.</desc>
<speed>6.090000</speed>
</trkpt>
<trkpt lat="42.468845" lon="18.763527">
<ele>4.446354</ele>
<time>2012-05-02T12:15:15Z</time>
<desc>lat.=42.468845, lon.=18.763527, Alt.=4.446354m. Speed=17.316000m/h.</desc>
<speed>4.810000</speed>
</trkpt>
<trkpt lat="42.468624" lon="18.763411">
<ele>4.164494</ele>
<time>2012-05-02T12:15:20Z</time>
<desc>lat.=42.468624, lon.=18.763411, Alt.=4.164494m. Speed=18.648001m/h.</desc>
<speed>5.180000</speed>
</trkpt>
<trkpt lat="42.468361" lon="18.763367">
<ele>3.893343</ele>
<time>2012-05-02T12:15:25Z</time>
<desc>lat.=42.468361, lon.=18.763367, Alt.=3.893343m. Speed=20.304001m/h.</desc>
<speed>5.640000</speed>
</trkpt>
<trkpt lat="42.468136" lon="18.763283">
<ele>3.801973</ele>
<time>2012-05-02T12:15:30Z</time>
<desc>lat.=42.468136, lon.=18.763283, Alt.=3.801973m. Speed=21.420000m/h.</desc>
<speed>5.950000</speed>
</trkpt>
<trkpt lat="42.467892" lon="18.763168">
<ele>2.929537</ele>
<time>2012-05-02T12:15:35Z</time>
<desc>lat.=42.467892, lon.=18.763168, Alt.=2.929537m. Speed=20.340000m/h.</desc>
<speed>5.650000</speed>
</trkpt>
<trkpt lat="42.467705" lon="18.763046">
<ele>2.179537</ele>
<time>2012-05-02T12:15:40Z</time>
<desc>lat.=42.467705, lon.=18.763046, Alt.=2.179537m. Speed=16.559999m/h.</desc>
<speed>4.600000</speed>
</trkpt>
<trkpt lat="42.467514" lon="18.762951">
<ele>1.657670</ele>
<time>2012-05-02T12:15:45Z</time>
<desc>lat.=42.467514, lon.=18.762951, Alt.=1.657670m. Speed=20.340000m/h.</desc>
<speed>5.650000</speed>
</trkpt>
<trkpt lat="42.467213" lon="18.763020">
<ele>-0.226008</ele>
<time>2012-05-02T12:15:50Z</time>
<desc>lat.=42.467213, lon.=18.763020, Alt.=-0.226008m. Speed=19.799999m/h.</desc>
<speed>5.500000</speed>
</trkpt>
<trkpt lat="42.466965" lon="18.763102">
<ele>-2.345125</ele>
<time>2012-05-02T12:15:55Z</time>
<desc>lat.=42.466965, lon.=18.763102, Alt.=-2.345125m. Speed=18.072001m/h.</desc>
<speed>5.020000</speed>
</trkpt>
<trkpt lat="42.466736" lon="18.763145">
<ele>-3.873140</ele>
<time>2012-05-02T12:16:00Z</time>
<desc>lat.=42.466736, lon.=18.763145, Alt.=-3.873140m. Speed=17.676001m/h.</desc>
<speed>4.910000</speed>
</trkpt>
<trkpt lat="42.466484" lon="18.763214">
<ele>-3.236422</ele>
<time>2012-05-02T12:16:05Z</time>
<desc>lat.=42.466484, lon.=18.763214, Alt.=-3.236422m. Speed=21.708000m/h.</desc>
<speed>6.030000</speed>
</trkpt>
<trkpt lat="42.466221" lon="18.763279">
<ele>-2.655306</ele>
<time>2012-05-02T12:16:10Z</time>
<desc>lat.=42.466221, lon.=18.763279, Alt.=-2.655306m. Speed=21.384001m/h.</desc>
<speed>5.940000</speed>
</trkpt>
<trkpt lat="42.465969" lon="18.763342">
<ele>-2.492464</ele>
<time>2012-05-02T12:16:15Z</time>
<desc>lat.=42.465969, lon.=18.763342, Alt.=-2.492464m. Speed=19.368000m/h.</desc>
<speed>5.380000</speed>
</trkpt>
<trkpt lat="42.465748" lon="18.763403">
<ele>-2.814974</ele>
<time>2012-05-02T12:16:20Z</time>
<desc>lat.=42.465748, lon.=18.763403, Alt.=-2.814974m. Speed=15.372000m/h.</desc>
<speed>4.270000</speed>
</trkpt>
<trkpt lat="42.465557" lon="18.763496">
<ele>-3.738192</ele>
<time>2012-05-02T12:16:25Z</time>
<desc>lat.=42.465557, lon.=18.763496, Alt.=-3.738192m. Speed=21.420000m/h.</desc>
<speed>5.950000</speed>
</trkpt>
<trkpt lat="42.465267" lon="18.763615">
<ele>-4.301456</ele>
<time>2012-05-02T12:16:30Z</time>
<desc>lat.=42.465267, lon.=18.763615, Alt.=-4.301456m. Speed=22.356001m/h.</desc>
<speed>6.210000</speed>
</trkpt>
<trkpt lat="42.465000" lon="18.763731">
<ele>-2.880037</ele>
<time>2012-05-02T12:16:35Z</time>
<desc>lat.=42.465000, lon.=18.763731, Alt.=-2.880037m. Speed=23.507999m/h.</desc>
<speed>6.530000</speed>
</trkpt>
<trkpt lat="42.464706" lon="18.763807">
<ele>-2.739717</ele>
<time>2012-05-02T12:16:40Z</time>
<desc>lat.=42.464706, lon.=18.763807, Alt.=-2.739717m. Speed=23.868000m/h.</desc>
<speed>6.630000</speed>
</trkpt>
<trkpt lat="42.464424" lon="18.763924">
<ele>-1.190995</ele>
<time>2012-05-02T12:16:45Z</time>
<desc>lat.=42.464424, lon.=18.763924, Alt.=-1.190995m. Speed=20.268000m/h.</desc>
<speed>5.630000</speed>
</trkpt>
<trkpt lat="42.464161" lon="18.763981">
<ele>-1.552384</ele>
<time>2012-05-02T12:16:50Z</time>
<desc>lat.=42.464161, lon.=18.763981, Alt.=-1.552384m. Speed=16.416000m/h.</desc>
<speed>4.560000</speed>
</trkpt>
<trkpt lat="42.463894" lon="18.763962">
<ele>-1.987412</ele>
<time>2012-05-02T12:16:55Z</time>
<desc>lat.=42.463894, lon.=18.763962, Alt.=-1.987412m. Speed=23.219999m/h.</desc>
<speed>6.450000</speed>
</trkpt>
<trkpt lat="42.463600" lon="18.763929">
<ele>0.121356</ele>
<time>2012-05-02T12:17:00Z</time>
<desc>lat.=42.463600, lon.=18.763929, Alt.=0.121356m. Speed=22.968000m/h.</desc>
<speed>6.380000</speed>
</trkpt>
<trkpt lat="42.463291" lon="18.763901">
<ele>0.884133</ele>
<time>2012-05-02T12:17:05Z</time>
<desc>lat.=42.463291, lon.=18.763901, Alt.=0.884133m. Speed=21.924000m/h.</desc>
<speed>6.090000</speed>
</trkpt>
<trkpt lat="42.463017" lon="18.763916">
<ele>0.790673</ele>
<time>2012-05-02T12:17:10Z</time>
<desc>lat.=42.463017, lon.=18.763916, Alt.=0.790673m. Speed=23.219999m/h.</desc>
<speed>6.450000</speed>
</trkpt>
<trkpt lat="42.462749" lon="18.764030">
<ele>-0.073102</ele>
<time>2012-05-02T12:17:15Z</time>
<desc>lat.=42.462749, lon.=18.764030, Alt.=-0.073102m. Speed=20.808001m/h.</desc>
<speed>5.780000</speed>
</trkpt>
<trkpt lat="42.462521" lon="18.764109">
<ele>-0.939141</ele>
<time>2012-05-02T12:17:20Z</time>
<desc>lat.=42.462521, lon.=18.764109, Alt.=-0.939141m. Speed=19.944000m/h.</desc>
<speed>5.540000</speed>
</trkpt>
<trkpt lat="42.462246" lon="18.764141">
<ele>-0.672768</ele>
<time>2012-05-02T12:17:25Z</time>
<desc>lat.=42.462246, lon.=18.764141, Alt.=-0.672768m. Speed=20.916000m/h.</desc>
<speed>5.810000</speed>
</trkpt>
<trkpt lat="42.461987" lon="18.764204">
<ele>-1.287614</ele>
<time>2012-05-02T12:17:30Z</time>
<desc>lat.=42.461987, lon.=18.764204, Alt.=-1.287614m. Speed=21.743999m/h.</desc>
<speed>6.040000</speed>
</trkpt>
<trkpt lat="42.461712" lon="18.764227">
<ele>-0.824715</ele>
<time>2012-05-02T12:17:35Z</time>
<desc>lat.=42.461712, lon.=18.764227, Alt.=-0.824715m. Speed=22.896000m/h.</desc>
<speed>6.360000</speed>
</trkpt>
<trkpt lat="42.461422" lon="18.764177">
<ele>-0.311840</ele>
<time>2012-05-02T12:17:40Z</time>
<desc>lat.=42.461422, lon.=18.764177, Alt.=-0.311840m. Speed=22.068001m/h.</desc>
<speed>6.130000</speed>
</trkpt>
<trkpt lat="42.461140" lon="18.764147">
<ele>-0.881997</ele>
<time>2012-05-02T12:17:45Z</time>
<desc>lat.=42.461140, lon.=18.764147, Alt.=-0.881997m. Speed=21.636000m/h.</desc>
<speed>6.010000</speed>
</trkpt>
<trkpt lat="42.460888" lon="18.764154">
<ele>-1.277238</ele>
<time>2012-05-02T12:17:50Z</time>
<desc>lat.=42.460888, lon.=18.764154, Alt.=-1.277238m. Speed=21.420000m/h.</desc>
<speed>5.950000</speed>
</trkpt>
<trkpt lat="42.460621" lon="18.764116">
<ele>-2.041170</ele>
<time>2012-05-02T12:17:55Z</time>
<desc>lat.=42.460621, lon.=18.764116, Alt.=-2.041170m. Speed=22.860001m/h.</desc>
<speed>6.350000</speed>
</trkpt>
<trkpt lat="42.460373" lon="18.764145">
<ele>-1.944444</ele>
<time>2012-05-02T12:18:00Z</time>
<desc>lat.=42.460373, lon.=18.764145, Alt.=-1.944444m. Speed=21.096001m/h.</desc>
<speed>5.860000</speed>
</trkpt>
<trkpt lat="42.460155" lon="18.764339">
<ele>-1.159776</ele>
<time>2012-05-02T12:18:05Z</time>
<desc>lat.=42.460155, lon.=18.764339, Alt.=-1.159776m. Speed=20.340000m/h.</desc>
<speed>5.650000</speed>
</trkpt>
<trkpt lat="42.459991" lon="18.764595">
<ele>0.327931</ele>
<time>2012-05-02T12:18:10Z</time>
<desc>lat.=42.459991, lon.=18.764595, Alt.=0.327931m. Speed=18.864000m/h.</desc>
<speed>5.240000</speed>
</trkpt>
<trkpt lat="42.459793" lon="18.764797">
<ele>-0.242643</ele>
<time>2012-05-02T12:18:15Z</time>
<desc>lat.=42.459793, lon.=18.764797, Alt.=-0.242643m. Speed=20.916000m/h.</desc>
<speed>5.810000</speed>
</trkpt>
<trkpt lat="42.459526" lon="18.764793">
<ele>-0.590127</ele>
<time>2012-05-02T12:18:20Z</time>
<desc>lat.=42.459526, lon.=18.764793, Alt.=-0.590127m. Speed=15.804000m/h.</desc>
<speed>4.390000</speed>
</trkpt>
<trkpt lat="42.459366" lon="18.764765">
<ele>1.159532</ele>
<time>2012-05-02T12:18:25Z</time>
<desc>lat.=42.459366, lon.=18.764765, Alt.=1.159532m. Speed=12.744000m/h.</desc>
<speed>3.540000</speed>
</trkpt>
<trkpt lat="42.459190" lon="18.764845">
<ele>2.303377</ele>
<time>2012-05-02T12:18:30Z</time>
<desc>lat.=42.459190, lon.=18.764845, Alt.=2.303377m. Speed=15.768000m/h.</desc>
<speed>4.380000</speed>
</trkpt>
<trkpt lat="42.458988" lon="18.764999">
<ele>2.562227</ele>
<time>2012-05-02T12:18:35Z</time>
<desc>lat.=42.458988, lon.=18.764999, Alt.=2.562227m. Speed=20.375999m/h.</desc>
<speed>5.660000</speed>
</trkpt>
<trkpt lat="42.458767" lon="18.765127">
<ele>3.401766</ele>
<time>2012-05-02T12:18:40Z</time>
<desc>lat.=42.458767, lon.=18.765127, Alt.=3.401766m. Speed=21.672001m/h.</desc>
<speed>6.020000</speed>
</trkpt>
<trkpt lat="42.458534" lon="18.765135">
<ele>2.207857</ele>
<time>2012-05-02T12:18:45Z</time>
<desc>lat.=42.458534, lon.=18.765135, Alt.=2.207857m. Speed=16.452000m/h.</desc>
<speed>4.570000</speed>
</trkpt>
<trkpt lat="42.458260" lon="18.765003">
<ele>3.274935</ele>
<time>2012-05-02T12:18:50Z</time>
<desc>lat.=42.458260, lon.=18.765003, Alt.=3.274935m. Speed=24.983999m/h.</desc>
<speed>6.940000</speed>
</trkpt>
<trkpt lat="42.458019" lon="18.764921">
<ele>3.582369</ele>
<time>2012-05-02T12:18:55Z</time>
<desc>lat.=42.458019, lon.=18.764921, Alt.=3.582369m. Speed=19.691999m/h.</desc>
<speed>5.470000</speed>
</trkpt>
<trkpt lat="42.457764" lon="18.764877">
<ele>3.996675</ele>
<time>2012-05-02T12:19:00Z</time>
<desc>lat.=42.457764, lon.=18.764877, Alt.=3.996675m. Speed=18.108000m/h.</desc>
<speed>5.030000</speed>
</trkpt>
<trkpt lat="42.457535" lon="18.764938">
<ele>2.845613</ele>
<time>2012-05-02T12:19:05Z</time>
<desc>lat.=42.457535, lon.=18.764938, Alt.=2.845613m. Speed=17.243999m/h.</desc>
<speed>4.790000</speed>
</trkpt>
<trkpt lat="42.457336" lon="18.765099">
<ele>1.039018</ele>
<time>2012-05-02T12:19:10Z</time>
<desc>lat.=42.457336, lon.=18.765099, Alt.=1.039018m. Speed=20.016001m/h.</desc>
<speed>5.560000</speed>
</trkpt>
<trkpt lat="42.457123" lon="18.765270">
<ele>0.426975</ele>
<time>2012-05-02T12:19:15Z</time>
<desc>lat.=42.457123, lon.=18.765270, Alt.=0.426975m. Speed=16.704000m/h.</desc>
<speed>4.640000</speed>
</trkpt>
<trkpt lat="42.456917" lon="18.765413">
<ele>-0.659813</ele>
<time>2012-05-02T12:19:20Z</time>
<desc>lat.=42.456917, lon.=18.765413, Alt.=-0.659813m. Speed=20.340000m/h.</desc>
<speed>5.650000</speed>
</trkpt>
<trkpt lat="42.456673" lon="18.765564">
<ele>-1.007737</ele>
<time>2012-05-02T12:19:25Z</time>
<desc>lat.=42.456673, lon.=18.765564, Alt.=-1.007737m. Speed=23.256001m/h.</desc>
<speed>6.460000</speed>
</trkpt>
<trkpt lat="42.456463" lon="18.765839">
<ele>-1.671494</ele>
<time>2012-05-02T12:19:30Z</time>
<desc>lat.=42.456463, lon.=18.765839, Alt.=-1.671494m. Speed=21.996000m/h.</desc>
<speed>6.110000</speed>
</trkpt>
<trkpt lat="42.456253" lon="18.765945">
<ele>-2.315157</ele>
<time>2012-05-02T12:19:35Z</time>
<desc>lat.=42.456253, lon.=18.765945, Alt.=-2.315157m. Speed=17.639999m/h.</desc>
<speed>4.900000</speed>
</trkpt>
<trkpt lat="42.455990" lon="18.765841">
<ele>-1.847001</ele>
<time>2012-05-02T12:19:40Z</time>
<desc>lat.=42.455990, lon.=18.765841, Alt.=-1.847001m. Speed=20.879999m/h.</desc>
<speed>5.800000</speed>
</trkpt>
<trkpt lat="42.455738" lon="18.765888">
<ele>-4.086369</ele>
<time>2012-05-02T12:19:45Z</time>
<desc>lat.=42.455738, lon.=18.765888, Alt.=-4.086369m. Speed=20.160000m/h.</desc>
<speed>5.600000</speed>
</trkpt>
<trkpt lat="42.455467" lon="18.765932">
<ele>-3.878328</ele>
<time>2012-05-02T12:19:50Z</time>
<desc>lat.=42.455467, lon.=18.765932, Alt.=-3.878328m. Speed=24.516001m/h.</desc>
<speed>6.810000</speed>
</trkpt>
<trkpt lat="42.455196" lon="18.765938">
<ele>-2.767000</ele>
<time>2012-05-02T12:19:55Z</time>
<desc>lat.=42.455196, lon.=18.765938, Alt.=-2.767000m. Speed=18.719999m/h.</desc>
<speed>5.200000</speed>
</trkpt>
<trkpt lat="42.454964" lon="18.765846">
<ele>-1.676164</ele>
<time>2012-05-02T12:20:00Z</time>
<desc>lat.=42.454964, lon.=18.765846, Alt.=-1.676164m. Speed=19.908001m/h.</desc>
<speed>5.530000</speed>
</trkpt>
<trkpt lat="42.454754" lon="18.765697">
<ele>0.003040</ele>
<time>2012-05-02T12:20:05Z</time>
<desc>lat.=42.454754, lon.=18.765697, Alt.=0.003040m. Speed=16.416000m/h.</desc>
<speed>4.560000</speed>
</trkpt>
<trkpt lat="42.454536" lon="18.765587">
<ele>2.018526</ele>
<time>2012-05-02T12:20:10Z</time>
<desc>lat.=42.454536, lon.=18.765587, Alt.=2.018526m. Speed=17.208000m/h.</desc>
<speed>4.780000</speed>
</trkpt>
<trkpt lat="42.454304" lon="18.765493">
<ele>3.242952</ele>
<time>2012-05-02T12:20:15Z</time>
<desc>lat.=42.454304, lon.=18.765493, Alt.=3.242952m. Speed=17.208000m/h.</desc>
<speed>4.780000</speed>
</trkpt>
<trkpt lat="42.454174" lon="18.765471">
<ele>3.413790</ele>
<time>2012-05-02T12:20:20Z</time>
<desc>lat.=42.454174, lon.=18.765471, Alt.=3.413790m. Speed=6.156000m/h.</desc>
<speed>1.710000</speed>
</trkpt>
<trkpt lat="42.454147" lon="18.765451">
<ele>3.042818</ele>
<time>2012-05-02T12:20:25Z</time>
<desc>lat.=42.454147, lon.=18.765451, Alt.=3.042818m. Speed=1.980000m/h.</desc>
<speed>0.550000</speed>
</trkpt>
<trkpt lat="42.454117" lon="18.765415">
<ele>3.955050</ele>
<time>2012-05-02T12:20:30Z</time>
<desc>lat.=42.454117, lon.=18.765415, Alt.=3.955050m. Speed=3.600000m/h.</desc>
<speed>1.000000</speed>
</trkpt>
<trkpt lat="42.454086" lon="18.765400">
<ele>4.981144</ele>
<time>2012-05-02T12:20:35Z</time>
<desc>lat.=42.454086, lon.=18.765400, Alt.=4.981144m. Speed=2.988000m/h.</desc>
<speed>0.830000</speed>
</trkpt>
<trkpt lat="42.453999" lon="18.765333">
<ele>6.043034</ele>
<time>2012-05-02T12:20:40Z</time>
<desc>lat.=42.453999, lon.=18.765333, Alt.=6.043034m. Speed=3.600000m/h.</desc>
<speed>1.000000</speed>
</trkpt>
<trkpt lat="42.454002" lon="18.765219">
<ele>5.191227</ele>
<time>2012-05-02T12:20:45Z</time>
<desc>lat.=42.454002, lon.=18.765219, Alt.=5.191227m. Speed=1.872000m/h.</desc>
<speed>0.520000</speed>
</trkpt>
<trkpt lat="42.453995" lon="18.765219">
<ele>5.141788</ele>
<time>2012-05-02T12:20:50Z</time>
<desc>lat.=42.453995, lon.=18.765219, Alt.=5.141788m. Speed=0.144000m/h.</desc>
<speed>0.040000</speed>
</trkpt>
<trkpt lat="42.453995" lon="18.765232">
<ele>5.309269</ele>
<time>2012-05-02T12:20:55Z</time>
<desc>lat.=42.453995, lon.=18.765232, Alt.=5.309269m. Speed=1.116000m/h.</desc>
<speed>0.310000</speed>
</trkpt>
<trkpt lat="42.453999" lon="18.765255">
<ele>5.729069</ele>
<time>2012-05-02T12:21:00Z</time>
<desc>lat.=42.453999, lon.=18.765255, Alt.=5.729069m. Speed=1.188000m/h.</desc>
<speed>0.330000</speed>
</trkpt>
<trkpt lat="42.453972" lon="18.765263">
<ele>6.281803</ele>
<time>2012-05-02T12:21:05Z</time>
<desc>lat.=42.453972, lon.=18.765263, Alt.=6.281803m. Speed=0.504000m/h.</desc>
<speed>0.140000</speed>
</trkpt>
<trkpt lat="42.453968" lon="18.765308">
<ele>6.529118</ele>
<time>2012-05-02T12:21:10Z</time>
<desc>lat.=42.453968, lon.=18.765308, Alt.=6.529118m. Speed=0.612000m/h.</desc>
<speed>0.170000</speed>
</trkpt>
<trkpt lat="42.453972" lon="18.765312">
<ele>6.502140</ele>
<time>2012-05-02T12:21:15Z</time>
<desc>lat.=42.453972, lon.=18.765312, Alt.=6.502140m. Speed=0.612000m/h.</desc>
<speed>0.170000</speed>
</trkpt>
<trkpt lat="42.453941" lon="18.765209">
<ele>5.349674</ele>
<time>2012-05-02T12:21:20Z</time>
<desc>lat.=42.453941, lon.=18.765209, Alt.=5.349674m. Speed=1.404000m/h.</desc>
<speed>0.390000</speed>
</trkpt>
<trkpt lat="42.453926" lon="18.765200">
<ele>4.755192</ele>
<time>2012-05-02T12:21:25Z</time>
<desc>lat.=42.453926, lon.=18.765200, Alt.=4.755192m. Speed=1.404000m/h.</desc>
<speed>0.390000</speed>
</trkpt>
<trkpt lat="42.453907" lon="18.765173">
<ele>3.318636</ele>
<time>2012-05-02T12:21:30Z</time>
<desc>lat.=42.453907, lon.=18.765173, Alt.=3.318636m. Speed=1.620000m/h.</desc>
<speed>0.450000</speed>
</trkpt>
<trkpt lat="42.453899" lon="18.765158">
<ele>1.662766</ele>
<time>2012-05-02T12:21:35Z</time>
<desc>lat.=42.453899, lon.=18.765158, Alt.=1.662766m. Speed=0.828000m/h.</desc>
<speed>0.230000</speed>
</trkpt>
<trkpt lat="42.453884" lon="18.765163">
<ele>1.491044</ele>
<time>2012-05-02T12:21:40Z</time>
<desc>lat.=42.453884, lon.=18.765163, Alt.=1.491044m. Speed=1.656000m/h.</desc>
<speed>0.460000</speed>
</trkpt>
<trkpt lat="42.453838" lon="18.765129">
<ele>1.426896</ele>
<time>2012-05-02T12:21:45Z</time>
<desc>lat.=42.453838, lon.=18.765129, Alt.=1.426896m. Speed=3.060000m/h.</desc>
<speed>0.850000</speed>
</trkpt>
<trkpt lat="42.453819" lon="18.765106">
<ele>1.554948</ele>
<time>2012-05-02T12:21:50Z</time>
<desc>lat.=42.453819, lon.=18.765106, Alt.=1.554948m. Speed=1.224000m/h.</desc>
<speed>0.340000</speed>
</trkpt>
<trkpt lat="42.453785" lon="18.765095">
<ele>1.816087</ele>
<time>2012-05-02T12:21:55Z</time>
<desc>lat.=42.453785, lon.=18.765095, Alt.=1.816087m. Speed=2.232000m/h.</desc>
<speed>0.620000</speed>
</trkpt>
<trkpt lat="42.453754" lon="18.765095">
<ele>1.935410</ele>
<time>2012-05-02T12:22:00Z</time>
<desc>lat.=42.453754, lon.=18.765095, Alt.=1.935410m. Speed=2.520000m/h.</desc>
<speed>0.700000</speed>
</trkpt>
<trkpt lat="42.453712" lon="18.765072">
<ele>2.071566</ele>
<time>2012-05-02T12:22:05Z</time>
<desc>lat.=42.453712, lon.=18.765072, Alt.=2.071566m. Speed=3.780000m/h.</desc>
<speed>1.050000</speed>
</trkpt>
<trkpt lat="42.453690" lon="18.765060">
<ele>1.545823</ele>
<time>2012-05-02T12:22:10Z</time>
<desc>lat.=42.453690, lon.=18.765060, Alt.=1.545823m. Speed=2.664000m/h.</desc>
<speed>0.740000</speed>
</trkpt>
<trkpt lat="42.453663" lon="18.765028">
<ele>1.142594</ele>
<time>2012-05-02T12:22:15Z</time>
<desc>lat.=42.453663, lon.=18.765028, Alt.=1.142594m. Speed=3.060000m/h.</desc>
<speed>0.850000</speed>
</trkpt>
<trkpt lat="42.453629" lon="18.765022">
<ele>0.883538</ele>
<time>2012-05-02T12:22:20Z</time>
<desc>lat.=42.453629, lon.=18.765022, Alt.=0.883538m. Speed=4.320000m/h.</desc>
<speed>1.200000</speed>
</trkpt>
<trkpt lat="42.453587" lon="18.765028">
<ele>0.988564</ele>
<time>2012-05-02T12:22:25Z</time>
<desc>lat.=42.453587, lon.=18.765028, Alt.=0.988564m. Speed=4.176000m/h.</desc>
<speed>1.160000</speed>
</trkpt>
<trkpt lat="42.453548" lon="18.765043">
<ele>0.651787</ele>
<time>2012-05-02T12:22:30Z</time>
<desc>lat.=42.453548, lon.=18.765043, Alt.=0.651787m. Speed=2.664000m/h.</desc>
<speed>0.740000</speed>
</trkpt>
<trkpt lat="42.453526" lon="18.765060">
<ele>0.340374</ele>
<time>2012-05-02T12:22:35Z</time>
<desc>lat.=42.453526, lon.=18.765060, Alt.=0.340374m. Speed=0.900000m/h.</desc>
<speed>0.250000</speed>
</trkpt>
<trkpt lat="42.453495" lon="18.765043">
<ele>0.049041</ele>
<time>2012-05-02T12:22:40Z</time>
<desc>lat.=42.453495, lon.=18.765043, Alt.=0.049041m. Speed=2.700000m/h.</desc>
<speed>0.750000</speed>
</trkpt>
<trkpt lat="42.453465" lon="18.765062">
<ele>-0.585412</ele>
<time>2012-05-02T12:22:45Z</time>
<desc>lat.=42.453465, lon.=18.765062, Alt.=-0.585412m. Speed=3.672000m/h.</desc>
<speed>1.020000</speed>
</trkpt>
<trkpt lat="42.453434" lon="18.765100">
<ele>-1.863023</ele>
<time>2012-05-02T12:22:50Z</time>
<desc>lat.=42.453434, lon.=18.765100, Alt.=-1.863023m. Speed=1.980000m/h.</desc>
<speed>0.550000</speed>
</trkpt>
<trkpt lat="42.453419" lon="18.765106">
<ele>-2.575533</ele>
<time>2012-05-02T12:22:55Z</time>
<desc>lat.=42.453419, lon.=18.765106, Alt.=-2.575533m. Speed=0.972000m/h.</desc>
<speed>0.270000</speed>
</trkpt>
<trkpt lat="42.453415" lon="18.765127">
<ele>-3.919344</ele>
<time>2012-05-02T12:23:00Z</time>
<desc>lat.=42.453415, lon.=18.765127, Alt.=-3.919344m. Speed=0.144000m/h.</desc>
<speed>0.040000</speed>
</trkpt>
<trkpt lat="42.453403" lon="18.765106">
<ele>-4.015446</ele>
<time>2012-05-02T12:23:05Z</time>
<desc>lat.=42.453403, lon.=18.765106, Alt.=-4.015446m. Speed=2.628000m/h.</desc>
<speed>0.730000</speed>
</trkpt>
<trkpt lat="42.453358" lon="18.765062">
<ele>-4.589664</ele>
<time>2012-05-02T12:23:10Z</time>
<desc>lat.=42.453358, lon.=18.765062, Alt.=-4.589664m. Speed=0.540000m/h.</desc>
<speed>0.150000</speed>
</trkpt>
<trkpt lat="42.453354" lon="18.765055">
<ele>-4.759830</ele>
<time>2012-05-02T12:23:15Z</time>
<desc>lat.=42.453354, lon.=18.765055, Alt.=-4.759830m. Speed=0.432000m/h.</desc>
<speed>0.120000</speed>
</trkpt>
<trkpt lat="42.453346" lon="18.765051">
<ele>-4.596622</ele>
<time>2012-05-02T12:23:20Z</time>
<desc>lat.=42.453346, lon.=18.765051, Alt.=-4.596622m. Speed=1.188000m/h.</desc>
<speed>0.330000</speed>
</trkpt>
<trkpt lat="42.453327" lon="18.765047">
<ele>-4.520939</ele>
<time>2012-05-02T12:23:25Z</time>
<desc>lat.=42.453327, lon.=18.765047, Alt.=-4.520939m. Speed=1.512000m/h.</desc>
<speed>0.420000</speed>
</trkpt>
<trkpt lat="42.453289" lon="18.765051">
<ele>-3.841951</ele>
<time>2012-05-02T12:23:30Z</time>
<desc>lat.=42.453289, lon.=18.765051, Alt.=-3.841951m. Speed=2.916000m/h.</desc>
<speed>0.810000</speed>
</trkpt>
<trkpt lat="42.453266" lon="18.765047">
<ele>-3.202669</ele>
<time>2012-05-02T12:23:35Z</time>
<desc>lat.=42.453266, lon.=18.765047, Alt.=-3.202669m. Speed=2.088000m/h.</desc>
<speed>0.580000</speed>
</trkpt>
<trkpt lat="42.453247" lon="18.765043">
<ele>-2.526583</ele>
<time>2012-05-02T12:23:40Z</time>
<desc>lat.=42.453247, lon.=18.765043, Alt.=-2.526583m. Speed=1.368000m/h.</desc>
<speed>0.380000</speed>
</trkpt>
<trkpt lat="42.453209" lon="18.765047">
<ele>-2.118135</ele>
<time>2012-05-02T12:23:45Z</time>
<desc>lat.=42.453209, lon.=18.765047, Alt.=-2.118135m. Speed=5.436000m/h.</desc>
<speed>1.510000</speed>
</trkpt>
<trkpt lat="42.453117" lon="18.765038">
<ele>-1.894029</ele>
<time>2012-05-02T12:23:50Z</time>
<desc>lat.=42.453117, lon.=18.765038, Alt.=-1.894029m. Speed=5.796000m/h.</desc>
<speed>1.610000</speed>
</trkpt>
<trkpt lat="42.453049" lon="18.764997">
<ele>-1.245591</ele>
<time>2012-05-02T12:23:55Z</time>
<desc>lat.=42.453049, lon.=18.764997, Alt.=-1.245591m. Speed=4.536000m/h.</desc>
<speed>1.260000</speed>
</trkpt>
<trkpt lat="42.452988" lon="18.764936">
<ele>-0.794518</ele>
<time>2012-05-02T12:24:00Z</time>
<desc>lat.=42.452988, lon.=18.764936, Alt.=-0.794518m. Speed=7.164000m/h.</desc>
<speed>1.990000</speed>
</trkpt>
<trkpt lat="42.452888" lon="18.764950">
<ele>0.142725</ele>
<time>2012-05-02T12:24:05Z</time>
<desc>lat.=42.452888, lon.=18.764950, Alt.=0.142725m. Speed=12.960000m/h.</desc>
<speed>3.600000</speed>
</trkpt>
<trkpt lat="42.452694" lon="18.765022">
<ele>-0.382488</ele>
<time>2012-05-02T12:24:10Z</time>
<desc>lat.=42.452694, lon.=18.765022, Alt.=-0.382488m. Speed=15.984000m/h.</desc>
<speed>4.440000</speed>
</trkpt>
<trkpt lat="42.452473" lon="18.765066">
<ele>-1.152116</ele>
<time>2012-05-02T12:24:15Z</time>
<desc>lat.=42.452473, lon.=18.765066, Alt.=-1.152116m. Speed=16.379999m/h.</desc>
<speed>4.550000</speed>
</trkpt>
<trkpt lat="42.452290" lon="18.765100">
<ele>-1.396195</ele>
<time>2012-05-02T12:24:20Z</time>
<desc>lat.=42.452290, lon.=18.765100, Alt.=-1.396195m. Speed=13.212000m/h.</desc>
<speed>3.670000</speed>
</trkpt>
<trkpt lat="42.452141" lon="18.765055">
<ele>-1.095628</ele>
<time>2012-05-02T12:24:25Z</time>
<desc>lat.=42.452141, lon.=18.765055, Alt.=-1.095628m. Speed=9.468000m/h.</desc>
<speed>2.630000</speed>
</trkpt>
<trkpt lat="42.451969" lon="18.765085">
<ele>-2.009432</ele>
<time>2012-05-02T12:24:30Z</time>
<desc>lat.=42.451969, lon.=18.765085, Alt.=-2.009432m. Speed=15.192000m/h.</desc>
<speed>4.220000</speed>
</trkpt>
<trkpt lat="42.451778" lon="18.765156">
<ele>-3.527132</ele>
<time>2012-05-02T12:24:35Z</time>
<desc>lat.=42.451778, lon.=18.765156, Alt.=-3.527132m. Speed=13.896000m/h.</desc>
<speed>3.860000</speed>
</trkpt>
<trkpt lat="42.451580" lon="18.765228">
<ele>-3.357393</ele>
<time>2012-05-02T12:24:40Z</time>
<desc>lat.=42.451580, lon.=18.765228, Alt.=-3.357393m. Speed=17.316000m/h.</desc>
<speed>4.810000</speed>
</trkpt>
<trkpt lat="42.451374" lon="18.765274">
<ele>-4.035343</ele>
<time>2012-05-02T12:24:45Z</time>
<desc>lat.=42.451374, lon.=18.765274, Alt.=-4.035343m. Speed=16.128000m/h.</desc>
<speed>4.480000</speed>
</trkpt>
<trkpt lat="42.451130" lon="18.765263">
<ele>-3.546480</ele>
<time>2012-05-02T12:24:50Z</time>
<desc>lat.=42.451130, lon.=18.765263, Alt.=-3.546480m. Speed=19.403999m/h.</desc>
<speed>5.390000</speed>
</trkpt>
<trkpt lat="42.450912" lon="18.765265">
<ele>-3.585909</ele>
<time>2012-05-02T12:24:55Z</time>
<desc>lat.=42.450912, lon.=18.765265, Alt.=-3.585909m. Speed=12.780000m/h.</desc>
<speed>3.550000</speed>
</trkpt>
<trkpt lat="42.450745" lon="18.765217">
<ele>-3.545748</ele>
<time>2012-05-02T12:25:00Z</time>
<desc>lat.=42.450745, lon.=18.765217, Alt.=-3.545748m. Speed=10.476000m/h.</desc>
<speed>2.910000</speed>
</trkpt>
<trkpt lat="42.450672" lon="18.765076">
<ele>-4.785221</ele>
<time>2012-05-02T12:25:05Z</time>
<desc>lat.=42.450672, lon.=18.765076, Alt.=-4.785221m. Speed=12.132000m/h.</desc>
<speed>3.370000</speed>
</trkpt>
<trkpt lat="42.450527" lon="18.764940">
<ele>-3.474581</ele>
<time>2012-05-02T12:25:10Z</time>
<desc>lat.=42.450527, lon.=18.764940, Alt.=-3.474581m. Speed=13.680000m/h.</desc>
<speed>3.800000</speed>
</trkpt>
<trkpt lat="42.450279" lon="18.764872">
<ele>-2.594332</ele>
<time>2012-05-02T12:25:15Z</time>
<desc>lat.=42.450279, lon.=18.764872, Alt.=-2.594332m. Speed=18.468000m/h.</desc>
<speed>5.130000</speed>
</trkpt>
<trkpt lat="42.450047" lon="18.765005">
<ele>-4.648258</ele>
<time>2012-05-02T12:25:20Z</time>
<desc>lat.=42.450047, lon.=18.765005, Alt.=-4.648258m. Speed=20.808001m/h.</desc>
<speed>5.780000</speed>
</trkpt>
<trkpt lat="42.449764" lon="18.765039">
<ele>-5.448551</ele>
<time>2012-05-02T12:25:25Z</time>
<desc>lat.=42.449764, lon.=18.765039, Alt.=-5.448551m. Speed=22.860001m/h.</desc>
<speed>6.350000</speed>
</trkpt>
<trkpt lat="42.449478" lon="18.765051">
<ele>-5.195011</ele>
<time>2012-05-02T12:25:30Z</time>
<desc>lat.=42.449478, lon.=18.765051, Alt.=-5.195011m. Speed=22.535999m/h.</desc>
<speed>6.260000</speed>
</trkpt>
<trkpt lat="42.449268" lon="18.765280">
<ele>-5.498112</ele>
<time>2012-05-02T12:25:35Z</time>
<desc>lat.=42.449268, lon.=18.765280, Alt.=-5.498112m. Speed=23.615999m/h.</desc>
<speed>6.560000</speed>
</trkpt>
<trkpt lat="42.449055" lon="18.765556">
<ele>-6.164738</ele>
<time>2012-05-02T12:25:40Z</time>
<desc>lat.=42.449055, lon.=18.765556, Alt.=-6.164738m. Speed=21.600000m/h.</desc>
<speed>6.000000</speed>
</trkpt>
<trkpt lat="42.448975" lon="18.765596">
<ele>-5.700382</ele>
<time>2012-05-02T12:25:45Z</time>
<desc>lat.=42.448975, lon.=18.765596, Alt.=-5.700382m. Speed=0.288000m/h.</desc>
<speed>0.080000</speed>
</trkpt>
<trkpt lat="42.448975" lon="18.765608">
<ele>-5.209904</ele>
<time>2012-05-02T12:25:50Z</time>
<desc>lat.=42.448975, lon.=18.765608, Alt.=-5.209904m. Speed=0.072000m/h.</desc>
<speed>0.020000</speed>
</trkpt>
<trkpt lat="42.448967" lon="18.765615">
<ele>-5.099430</ele>
<time>2012-05-02T12:25:55Z</time>
<desc>lat.=42.448967, lon.=18.765615, Alt.=-5.099430m. Speed=1.332000m/h.</desc>
<speed>0.370000</speed>
</trkpt>
<trkpt lat="42.448959" lon="18.765633">
<ele>-5.066593</ele>
<time>2012-05-02T12:26:00Z</time>
<desc>lat.=42.448959, lon.=18.765633, Alt.=-5.066593m. Speed=2.844000m/h.</desc>
<speed>0.790000</speed>
</trkpt>
<trkpt lat="42.448853" lon="18.765688">
<ele>-4.969669</ele>
<time>2012-05-02T12:26:05Z</time>
<desc>lat.=42.448853, lon.=18.765688, Alt.=-4.969669m. Speed=9.900000m/h.</desc>
<speed>2.750000</speed>
</trkpt>
<trkpt lat="42.448730" lon="18.765728">
<ele>-4.092838</ele>
<time>2012-05-02T12:26:10Z</time>
<desc>lat.=42.448730, lon.=18.765728, Alt.=-4.092838m. Speed=7.092000m/h.</desc>
<speed>1.970000</speed>
</trkpt>
<trkpt lat="42.448689" lon="18.765741">
<ele>-2.851717</ele>
<time>2012-05-02T12:26:15Z</time>
<desc>lat.=42.448689, lon.=18.765741, Alt.=-2.851717m. Speed=3.528000m/h.</desc>
<speed>0.980000</speed>
</trkpt>
<trkpt lat="42.448639" lon="18.765726">
<ele>-2.984529</ele>
<time>2012-05-02T12:26:20Z</time>
<desc>lat.=42.448639, lon.=18.765726, Alt.=-2.984529m. Speed=3.312000m/h.</desc>
<speed>0.920000</speed>
</trkpt>
<trkpt lat="42.448627" lon="18.765732">
<ele>-2.849459</ele>
<time>2012-05-02T12:26:25Z</time>
<desc>lat.=42.448627, lon.=18.765732, Alt.=-2.849459m. Speed=1.188000m/h.</desc>
<speed>0.330000</speed>
</trkpt>
<trkpt lat="42.448578" lon="18.765743">
<ele>-2.376680</ele>
<time>2012-05-02T12:26:30Z</time>
<desc>lat.=42.448578, lon.=18.765743, Alt.=-2.376680m. Speed=5.508000m/h.</desc>
<speed>1.530000</speed>
</trkpt>
<trkpt lat="42.448521" lon="18.765739">
<ele>-1.951829</ele>
<time>2012-05-02T12:26:35Z</time>
<desc>lat.=42.448521, lon.=18.765739, Alt.=-1.951829m. Speed=5.148000m/h.</desc>
<speed>1.430000</speed>
</trkpt>
<trkpt lat="42.448448" lon="18.765722">
<ele>-1.085740</ele>
<time>2012-05-02T12:26:40Z</time>
<desc>lat.=42.448448, lon.=18.765722, Alt.=-1.085740m. Speed=6.228000m/h.</desc>
<speed>1.730000</speed>
</trkpt>
<trkpt lat="42.448380" lon="18.765669">
<ele>-1.060014</ele>
<time>2012-05-02T12:26:45Z</time>
<desc>lat.=42.448380, lon.=18.765669, Alt.=-1.060014m. Speed=5.904000m/h.</desc>
<speed>1.640000</speed>
</trkpt>
<trkpt lat="42.448334" lon="18.765644">
<ele>-1.247270</ele>
<time>2012-05-02T12:26:50Z</time>
<desc>lat.=42.448334, lon.=18.765644, Alt.=-1.247270m. Speed=2.988000m/h.</desc>
<speed>0.830000</speed>
</trkpt>
<trkpt lat="42.448341" lon="18.765638">
<ele>-0.628701</ele>
<time>2012-05-02T12:26:55Z</time>
<desc>lat.=42.448341, lon.=18.765638, Alt.=-0.628701m. Speed=0.144000m/h.</desc>
<speed>0.040000</speed>
</trkpt>
<trkpt lat="42.448345" lon="18.765640">
<ele>-0.528512</ele>
<time>2012-05-02T12:27:00Z</time>
<desc>lat.=42.448345, lon.=18.765640, Alt.=-0.528512m. Speed=0.468000m/h.</desc>
<speed>0.130000</speed>
</trkpt>
<trkpt lat="42.448345" lon="18.765636">
<ele>-0.483578</ele>
<time>2012-05-02T12:27:05Z</time>
<desc>lat.=42.448345, lon.=18.765636, Alt.=-0.483578m. Speed=1.188000m/h.</desc>
<speed>0.330000</speed>
</trkpt>
<trkpt lat="42.448257" lon="18.765657">
<ele>-1.243577</ele>
<time>2012-05-02T12:27:10Z</time>
<desc>lat.=42.448257, lon.=18.765657, Alt.=-1.243577m. Speed=6.624000m/h.</desc>
<speed>1.840000</speed>
</trkpt>
<trkpt lat="42.448181" lon="18.765621">
<ele>-1.516953</ele>
<time>2012-05-02T12:27:15Z</time>
<desc>lat.=42.448181, lon.=18.765621, Alt.=-1.516953m. Speed=1.584000m/h.</desc>
<speed>0.440000</speed>
</trkpt>
<trkpt lat="42.448185" lon="18.765621">
<ele>-1.590013</ele>
<time>2012-05-02T12:27:20Z</time>
<desc>lat.=42.448185, lon.=18.765621, Alt.=-1.590013m. Speed=0.144000m/h.</desc>
<speed>0.040000</speed>
</trkpt>
<trkpt lat="42.448185" lon="18.765619">
<ele>-1.573136</ele>
<time>2012-05-02T12:27:25Z</time>
<desc>lat.=42.448185, lon.=18.765619, Alt.=-1.573136m. Speed=0.072000m/h.</desc>
<speed>0.020000</speed>
</trkpt>
<trkpt lat="42.448189" lon="18.765619">
<ele>-1.569047</ele>
<time>2012-05-02T12:27:30Z</time>
<desc>lat.=42.448189, lon.=18.765619, Alt.=-1.569047m. Speed=0.324000m/h.</desc>
<speed>0.090000</speed>
</trkpt>
<trkpt lat="42.448185" lon="18.765619">
<ele>-1.560838</ele>
<time>2012-05-02T12:27:35Z</time>
<desc>lat.=42.448185, lon.=18.765619, Alt.=-1.560838m. Speed=1.656000m/h.</desc>
<speed>0.460000</speed>
</trkpt>
<trkpt lat="42.448055" lon="18.765596">
<ele>-2.142061</ele>
<time>2012-05-02T12:27:40Z</time>
<desc>lat.=42.448055, lon.=18.765596, Alt.=-2.142061m. Speed=9.972000m/h.</desc>
<speed>2.770000</speed>
</trkpt>
<trkpt lat="42.447948" lon="18.765547">
<ele>-2.024385</ele>
<time>2012-05-02T12:27:45Z</time>
<desc>lat.=42.447948, lon.=18.765547, Alt.=-2.024385m. Speed=7.992000m/h.</desc>
<speed>2.220000</speed>
</trkpt>
<trkpt lat="42.447830" lon="18.765503">
<ele>-1.740006</ele>
<time>2012-05-02T12:27:50Z</time>
<desc>lat.=42.447830, lon.=18.765503, Alt.=-1.740006m. Speed=8.784000m/h.</desc>
<speed>2.440000</speed>
</trkpt>
<trkpt lat="42.447731" lon="18.765448">
<ele>-1.187303</ele>
<time>2012-05-02T12:27:55Z</time>
<desc>lat.=42.447731, lon.=18.765448, Alt.=-1.187303m. Speed=7.452000m/h.</desc>
<speed>2.070000</speed>
</trkpt>
<trkpt lat="42.447651" lon="18.765383">
<ele>-0.425953</ele>
<time>2012-05-02T12:28:00Z</time>
<desc>lat.=42.447651, lon.=18.765383, Alt.=-0.425953m. Speed=11.016000m/h.</desc>
<speed>3.060000</speed>
</trkpt>
<trkpt lat="42.447536" lon="18.765345">
<ele>-0.301708</ele>
<time>2012-05-02T12:28:05Z</time>
<desc>lat.=42.447536, lon.=18.765345, Alt.=-0.301708m. Speed=9.468000m/h.</desc>
<speed>2.630000</speed>
</trkpt>
<trkpt lat="42.447346" lon="18.765341">
<ele>-0.610329</ele>
<time>2012-05-02T12:28:10Z</time>
<desc>lat.=42.447346, lon.=18.765341, Alt.=-0.610329m. Speed=14.004000m/h.</desc>
<speed>3.890000</speed>
</trkpt>
<trkpt lat="42.447113" lon="18.765404">
<ele>-1.827531</ele>
<time>2012-05-02T12:28:15Z</time>
<desc>lat.=42.447113, lon.=18.765404, Alt.=-1.827531m. Speed=17.424000m/h.</desc>
<speed>4.840000</speed>
</trkpt>
<trkpt lat="42.446869" lon="18.765471">
<ele>-1.146806</ele>
<time>2012-05-02T12:28:20Z</time>
<desc>lat.=42.446869, lon.=18.765471, Alt.=-1.146806m. Speed=18.035999m/h.</desc>
<speed>5.010000</speed>
</trkpt>
<trkpt lat="42.446640" lon="18.765451">
<ele>-1.318955</ele>
<time>2012-05-02T12:28:25Z</time>
<desc>lat.=42.446640, lon.=18.765451, Alt.=-1.318955m. Speed=17.964001m/h.</desc>
<speed>4.990000</speed>
</trkpt>
<trkpt lat="42.446430" lon="18.765362">
<ele>-0.537453</ele>
<time>2012-05-02T12:28:30Z</time>
<desc>lat.=42.446430, lon.=18.765362, Alt.=-0.537453m. Speed=15.696000m/h.</desc>
<speed>4.360000</speed>
</trkpt>
<trkpt lat="42.446213" lon="18.765253">
<ele>-0.748085</ele>
<time>2012-05-02T12:28:35Z</time>
<desc>lat.=42.446213, lon.=18.765253, Alt.=-0.748085m. Speed=17.532000m/h.</desc>
<speed>4.870000</speed>
</trkpt>
<trkpt lat="42.445988" lon="18.765121">
<ele>-0.910424</ele>
<time>2012-05-02T12:28:40Z</time>
<desc>lat.=42.445988, lon.=18.765121, Alt.=-0.910424m. Speed=22.176001m/h.</desc>
<speed>6.160000</speed>
</trkpt>
<trkpt lat="42.445744" lon="18.764965">
<ele>-1.445054</ele>
<time>2012-05-02T12:28:45Z</time>
<desc>lat.=42.445744, lon.=18.764965, Alt.=-1.445054m. Speed=20.664000m/h.</desc>
<speed>5.740000</speed>
</trkpt>
<trkpt lat="42.445503" lon="18.764839">
<ele>-2.360872</ele>
<time>2012-05-02T12:28:50Z</time>
<desc>lat.=42.445503, lon.=18.764839, Alt.=-2.360872m. Speed=22.643999m/h.</desc>
<speed>6.290000</speed>
</trkpt>
<trkpt lat="42.445248" lon="18.764690">
<ele>-3.578463</ele>
<time>2012-05-02T12:28:55Z</time>
<desc>lat.=42.445248, lon.=18.764690, Alt.=-3.578463m. Speed=20.483999m/h.</desc>
<speed>5.690000</speed>
</trkpt>
<trkpt lat="42.444984" lon="18.764591">
<ele>-3.151949</ele>
<time>2012-05-02T12:29:00Z</time>
<desc>lat.=42.444984, lon.=18.764591, Alt.=-3.151949m. Speed=20.879999m/h.</desc>
<speed>5.800000</speed>
</trkpt>
<trkpt lat="42.444752" lon="18.764421">
<ele>-2.606356</ele>
<time>2012-05-02T12:29:05Z</time>
<desc>lat.=42.444752, lon.=18.764421, Alt.=-2.606356m. Speed=21.636000m/h.</desc>
<speed>6.010000</speed>
</trkpt>
<trkpt lat="42.444508" lon="18.764271">
<ele>-1.704270</ele>
<time>2012-05-02T12:29:10Z</time>
<desc>lat.=42.444508, lon.=18.764271, Alt.=-1.704270m. Speed=18.864000m/h.</desc>
<speed>5.240000</speed>
</trkpt>
<trkpt lat="42.444248" lon="18.764099">
<ele>-0.833535</ele>
<time>2012-05-02T12:29:15Z</time>
<desc>lat.=42.444248, lon.=18.764099, Alt.=-0.833535m. Speed=22.823999m/h.</desc>
<speed>6.340000</speed>
</trkpt>
<trkpt lat="42.444004" lon="18.763889">
<ele>-0.197477</ele>
<time>2012-05-02T12:29:20Z</time>
<desc>lat.=42.444004, lon.=18.763889, Alt.=-0.197477m. Speed=23.040001m/h.</desc>
<speed>6.400000</speed>
</trkpt>
<trkpt lat="42.443768" lon="18.763716">
<ele>-0.170946</ele>
<time>2012-05-02T12:29:25Z</time>
<desc>lat.=42.443768, lon.=18.763716, Alt.=-0.170946m. Speed=18.000000m/h.</desc>
<speed>5.000000</speed>
</trkpt>
<trkpt lat="42.443474" lon="18.763676">
<ele>0.223665</ele>
<time>2012-05-02T12:29:30Z</time>
<desc>lat.=42.443474, lon.=18.763676, Alt.=0.223665m. Speed=21.024000m/h.</desc>
<speed>5.840000</speed>
</trkpt>
<trkpt lat="42.443222" lon="18.763615">
<ele>1.168839</ele>
<time>2012-05-02T12:29:35Z</time>
<desc>lat.=42.443222, lon.=18.763615, Alt.=1.168839m. Speed=18.864000m/h.</desc>
<speed>5.240000</speed>
</trkpt>
<trkpt lat="42.443005" lon="18.763407">
<ele>1.819566</ele>
<time>2012-05-02T12:29:40Z</time>
<desc>lat.=42.443005, lon.=18.763407, Alt.=1.819566m. Speed=22.176001m/h.</desc>
<speed>6.160000</speed>
</trkpt>
<trkpt lat="42.442814" lon="18.763124">
<ele>2.898592</ele>
<time>2012-05-02T12:29:45Z</time>
<desc>lat.=42.442814, lon.=18.763124, Alt.=2.898592m. Speed=21.816000m/h.</desc>
<speed>6.060000</speed>
</trkpt>
<trkpt lat="42.442650" lon="18.762781">
<ele>2.133821</ele>
<time>2012-05-02T12:29:50Z</time>
<desc>lat.=42.442650, lon.=18.762781, Alt.=2.133821m. Speed=22.572001m/h.</desc>
<speed>6.270000</speed>
</trkpt>
<trkpt lat="42.442482" lon="18.762493">
<ele>2.828279</ele>
<time>2012-05-02T12:29:55Z</time>
<desc>lat.=42.442482, lon.=18.762493, Alt.=2.828279m. Speed=21.240000m/h.</desc>
<speed>5.900000</speed>
</trkpt>
<trkpt lat="42.442287" lon="18.762188">
<ele>3.165743</ele>
<time>2012-05-02T12:30:00Z</time>
<desc>lat.=42.442287, lon.=18.762188, Alt.=3.165743m. Speed=22.104000m/h.</desc>
<speed>6.140000</speed>
</trkpt>
<trkpt lat="42.442009" lon="18.761974">
<ele>2.722811</ele>
<time>2012-05-02T12:30:05Z</time>
<desc>lat.=42.442009, lon.=18.761974, Alt.=2.722811m. Speed=21.780001m/h.</desc>
<speed>6.050000</speed>
</trkpt>
<trkpt lat="42.441784" lon="18.761890">
<ele>2.574862</ele>
<time>2012-05-02T12:30:10Z</time>
<desc>lat.=42.441784, lon.=18.761890, Alt.=2.574862m. Speed=19.296000m/h.</desc>
<speed>5.360000</speed>
</trkpt>
<trkpt lat="42.441566" lon="18.761925">
<ele>2.156649</ele>
<time>2012-05-02T12:30:15Z</time>
<desc>lat.=42.441566, lon.=18.761925, Alt.=2.156649m. Speed=15.804000m/h.</desc>
<speed>4.390000</speed>
</trkpt>
<trkpt lat="42.441418" lon="18.761953">
<ele>2.058138</ele>
<time>2012-05-02T12:30:20Z</time>
<desc>lat.=42.441418, lon.=18.761953, Alt.=2.058138m. Speed=7.416000m/h.</desc>
<speed>2.060000</speed>
</trkpt>
<trkpt lat="42.441303" lon="18.761959">
<ele>1.101548</ele>
<time>2012-05-02T12:30:25Z</time>
<desc>lat.=42.441303, lon.=18.761959, Alt.=1.101548m. Speed=9.684000m/h.</desc>
<speed>2.690000</speed>
</trkpt>
<trkpt lat="42.441162" lon="18.762012">
<ele>2.172335</ele>
<time>2012-05-02T12:30:30Z</time>
<desc>lat.=42.441162, lon.=18.762012, Alt.=2.172335m. Speed=11.484000m/h.</desc>
<speed>3.190000</speed>
</trkpt>
<trkpt lat="42.441044" lon="18.762066">
<ele>3.643648</ele>
<time>2012-05-02T12:30:35Z</time>
<desc>lat.=42.441044, lon.=18.762066, Alt.=3.643648m. Speed=8.496000m/h.</desc>
<speed>2.360000</speed>
</trkpt>
<trkpt lat="42.440895" lon="18.762115">
<ele>3.871309</ele>
<time>2012-05-02T12:30:40Z</time>
<desc>lat.=42.440895, lon.=18.762115, Alt.=3.871309m. Speed=12.312000m/h.</desc>
<speed>3.420000</speed>
</trkpt>
<trkpt lat="42.440739" lon="18.762167">
<ele>3.907198</ele>
<time>2012-05-02T12:30:45Z</time>
<desc>lat.=42.440739, lon.=18.762167, Alt.=3.907198m. Speed=8.820000m/h.</desc>
<speed>2.450000</speed>
</trkpt>
<trkpt lat="42.440613" lon="18.762238">
<ele>3.364412</ele>
<time>2012-05-02T12:30:50Z</time>
<desc>lat.=42.440613, lon.=18.762238, Alt.=3.364412m. Speed=9.936000m/h.</desc>
<speed>2.760000</speed>
</trkpt>
<trkpt lat="42.440475" lon="18.762272">
<ele>3.485811</ele>
<time>2012-05-02T12:30:55Z</time>
<desc>lat.=42.440475, lon.=18.762272, Alt.=3.485811m. Speed=11.484000m/h.</desc>
<speed>3.190000</speed>
</trkpt>
<trkpt lat="42.440319" lon="18.762346">
<ele>2.665438</ele>
<time>2012-05-02T12:31:00Z</time>
<desc>lat.=42.440319, lon.=18.762346, Alt.=2.665438m. Speed=13.788000m/h.</desc>
<speed>3.830000</speed>
</trkpt>
<trkpt lat="42.440132" lon="18.762453">
<ele>2.123446</ele>
<time>2012-05-02T12:31:05Z</time>
<desc>lat.=42.440132, lon.=18.762453, Alt.=2.123446m. Speed=15.192000m/h.</desc>
<speed>4.220000</speed>
</trkpt>
<trkpt lat="42.439945" lon="18.762583">
<ele>0.136641</ele>
<time>2012-05-02T12:31:10Z</time>
<desc>lat.=42.439945, lon.=18.762583, Alt.=0.136641m. Speed=18.323999m/h.</desc>
<speed>5.090000</speed>
</trkpt>
<trkpt lat="42.439793" lon="18.762814">
<ele>-0.575173</ele>
<time>2012-05-02T12:31:15Z</time>
<desc>lat.=42.439793, lon.=18.762814, Alt.=-0.575173m. Speed=17.820000m/h.</desc>
<speed>4.950000</speed>
</trkpt>
<trkpt lat="42.439651" lon="18.763021">
<ele>-0.174906</ele>
<time>2012-05-02T12:31:20Z</time>
<desc>lat.=42.439651, lon.=18.763021, Alt.=-0.174906m. Speed=16.667999m/h.</desc>
<speed>4.630000</speed>
</trkpt>
<trkpt lat="42.439438" lon="18.763130">
<ele>-0.917641</ele>
<time>2012-05-02T12:31:25Z</time>
<desc>lat.=42.439438, lon.=18.763130, Alt.=-0.917641m. Speed=21.240000m/h.</desc>
<speed>5.900000</speed>
</trkpt>
<trkpt lat="42.439198" lon="18.763220">
<ele>-0.852517</ele>
<time>2012-05-02T12:31:30Z</time>
<desc>lat.=42.439198, lon.=18.763220, Alt.=-0.852517m. Speed=19.440001m/h.</desc>
<speed>5.400000</speed>
</trkpt>
<trkpt lat="42.438984" lon="18.763332">
<ele>0.306401</ele>
<time>2012-05-02T12:31:35Z</time>
<desc>lat.=42.438984, lon.=18.763332, Alt.=0.306401m. Speed=17.351999m/h.</desc>
<speed>4.820000</speed>
</trkpt>
<trkpt lat="42.438789" lon="18.763472">
<ele>0.722497</ele>
<time>2012-05-02T12:31:40Z</time>
<desc>lat.=42.438789, lon.=18.763472, Alt.=0.722497m. Speed=17.568001m/h.</desc>
<speed>4.880000</speed>
</trkpt>
<trkpt lat="42.438599" lon="18.763676">
<ele>-0.019675</ele>
<time>2012-05-02T12:31:45Z</time>
<desc>lat.=42.438599, lon.=18.763676, Alt.=-0.019675m. Speed=19.872000m/h.</desc>
<speed>5.520000</speed>
</trkpt>
<trkpt lat="42.438389" lon="18.763876">
<ele>0.486309</ele>
<time>2012-05-02T12:31:50Z</time>
<desc>lat.=42.438389, lon.=18.763876, Alt.=0.486309m. Speed=20.087999m/h.</desc>
<speed>5.580000</speed>
</trkpt>
<trkpt lat="42.438179" lon="18.764046">
<ele>0.829491</ele>
<time>2012-05-02T12:31:55Z</time>
<desc>lat.=42.438179, lon.=18.764046, Alt.=0.829491m. Speed=18.396000m/h.</desc>
<speed>5.110000</speed>
</trkpt>
<trkpt lat="42.437973" lon="18.764238">
<ele>1.994309</ele>
<time>2012-05-02T12:32:00Z</time>
<desc>lat.=42.437973, lon.=18.764238, Alt.=1.994309m. Speed=18.936001m/h.</desc>
<speed>5.260000</speed>
</trkpt>
<trkpt lat="42.437737" lon="18.764362">
<ele>2.728975</ele>
<time>2012-05-02T12:32:05Z</time>
<desc>lat.=42.437737, lon.=18.764362, Alt.=2.728975m. Speed=20.700001m/h.</desc>
<speed>5.750000</speed>
</trkpt>
<trkpt lat="42.437443" lon="18.764425">
<ele>1.926866</ele>
<time>2012-05-02T12:32:10Z</time>
<desc>lat.=42.437443, lon.=18.764425, Alt.=1.926866m. Speed=22.608000m/h.</desc>
<speed>6.280000</speed>
</trkpt>
<trkpt lat="42.437168" lon="18.764509">
<ele>3.238802</ele>
<time>2012-05-02T12:32:15Z</time>
<desc>lat.=42.437168, lon.=18.764509, Alt.=3.238802m. Speed=19.476000m/h.</desc>
<speed>5.410000</speed>
</trkpt>
<trkpt lat="42.436970" lon="18.764565">
<ele>2.916109</ele>
<time>2012-05-02T12:32:20Z</time>
<desc>lat.=42.436970, lon.=18.764565, Alt.=2.916109m. Speed=10.620000m/h.</desc>
<speed>2.950000</speed>
</trkpt>
<trkpt lat="42.436787" lon="18.764551">
<ele>3.295382</ele>
<time>2012-05-02T12:32:25Z</time>
<desc>lat.=42.436787, lon.=18.764551, Alt.=3.295382m. Speed=14.004000m/h.</desc>
<speed>3.890000</speed>
</trkpt>
<trkpt lat="42.436611" lon="18.764517">
<ele>3.726351</ele>
<time>2012-05-02T12:32:30Z</time>
<desc>lat.=42.436611, lon.=18.764517, Alt.=3.726351m. Speed=12.204000m/h.</desc>
<speed>3.390000</speed>
</trkpt>
<trkpt lat="42.436432" lon="18.764538">
<ele>5.174747</ele>
<time>2012-05-02T12:32:35Z</time>
<desc>lat.=42.436432, lon.=18.764538, Alt.=5.174747m. Speed=15.156000m/h.</desc>
<speed>4.210000</speed>
</trkpt>
<trkpt lat="42.436264" lon="18.764542">
<ele>5.941837</ele>
<time>2012-05-02T12:32:40Z</time>
<desc>lat.=42.436264, lon.=18.764542, Alt.=5.941837m. Speed=13.032000m/h.</desc>
<speed>3.620000</speed>
</trkpt>
<trkpt lat="42.436081" lon="18.764616">
<ele>6.108341</ele>
<time>2012-05-02T12:32:45Z</time>
<desc>lat.=42.436081, lon.=18.764616, Alt.=6.108341m. Speed=16.379999m/h.</desc>
<speed>4.550000</speed>
</trkpt>
<trkpt lat="42.435925" lon="18.764891">
<ele>6.747746</ele>
<time>2012-05-02T12:32:50Z</time>
<desc>lat.=42.435925, lon.=18.764891, Alt.=6.747746m. Speed=16.344000m/h.</desc>
<speed>4.540000</speed>
</trkpt>
<trkpt lat="42.435822" lon="18.765171">
<ele>8.908577</ele>
<time>2012-05-02T12:32:55Z</time>
<desc>lat.=42.435822, lon.=18.765171, Alt.=8.908577m. Speed=17.747999m/h.</desc>
<speed>4.930000</speed>
</trkpt>
<trkpt lat="42.435726" lon="18.765450">
<ele>10.158333</ele>
<time>2012-05-02T12:33:00Z</time>
<desc>lat.=42.435726, lon.=18.765450, Alt.=10.158333m. Speed=18.000000m/h.</desc>
<speed>5.000000</speed>
</trkpt>
<trkpt lat="42.435593" lon="18.765751">
<ele>10.599007</ele>
<time>2012-05-02T12:33:05Z</time>
<desc>lat.=42.435593, lon.=18.765751, Alt.=10.599007m. Speed=20.483999m/h.</desc>
<speed>5.690000</speed>
</trkpt>
<trkpt lat="42.435368" lon="18.766024">
<ele>9.388313</ele>
<time>2012-05-02T12:33:10Z</time>
<desc>lat.=42.435368, lon.=18.766024, Alt.=9.388313m. Speed=25.020000m/h.</desc>
<speed>6.950000</speed>
</trkpt>
<trkpt lat="42.435127" lon="18.766233">
<ele>6.700260</ele>
<time>2012-05-02T12:33:15Z</time>
<desc>lat.=42.435127, lon.=18.766233, Alt.=6.700260m. Speed=20.808001m/h.</desc>
<speed>5.780000</speed>
</trkpt>
<trkpt lat="42.434910" lon="18.766415">
<ele>4.637516</ele>
<time>2012-05-02T12:33:20Z</time>
<desc>lat.=42.434910, lon.=18.766415, Alt.=4.637516m. Speed=22.823999m/h.</desc>
<speed>6.340000</speed>
</trkpt>
<trkpt lat="42.434677" lon="18.766611">
<ele>5.018253</ele>
<time>2012-05-02T12:33:25Z</time>
<desc>lat.=42.434677, lon.=18.766611, Alt.=5.018253m. Speed=21.059999m/h.</desc>
<speed>5.850000</speed>
</trkpt>
<trkpt lat="42.434448" lon="18.766777">
<ele>3.755831</ele>
<time>2012-05-02T12:33:30Z</time>
<desc>lat.=42.434448, lon.=18.766777, Alt.=3.755831m. Speed=18.396000m/h.</desc>
<speed>5.110000</speed>
</trkpt>
<trkpt lat="42.434227" lon="18.766956">
<ele>3.545198</ele>
<time>2012-05-02T12:33:35Z</time>
<desc>lat.=42.434227, lon.=18.766956, Alt.=3.545198m. Speed=21.132000m/h.</desc>
<speed>5.870000</speed>
</trkpt>
<trkpt lat="42.433971" lon="18.767054">
<ele>3.936068</ele>
<time>2012-05-02T12:33:40Z</time>
<desc>lat.=42.433971, lon.=18.767054, Alt.=3.936068m. Speed=19.620001m/h.</desc>
<speed>5.450000</speed>
</trkpt>
<trkpt lat="42.433720" lon="18.767155">
<ele>4.907413</ele>
<time>2012-05-02T12:33:45Z</time>
<desc>lat.=42.433720, lon.=18.767155, Alt.=4.907413m. Speed=17.604000m/h.</desc>
<speed>4.890000</speed>
</trkpt>
<trkpt lat="42.433456" lon="18.767263">
<ele>3.863314</ele>
<time>2012-05-02T12:33:50Z</time>
<desc>lat.=42.433456, lon.=18.767263, Alt.=3.863314m. Speed=20.268000m/h.</desc>
<speed>5.630000</speed>
</trkpt>
<trkpt lat="42.433197" lon="18.767372">
<ele>2.642550</ele>
<time>2012-05-02T12:33:55Z</time>
<desc>lat.=42.433197, lon.=18.767372, Alt.=2.642550m. Speed=20.087999m/h.</desc>
<speed>5.580000</speed>
</trkpt>
<trkpt lat="42.432953" lon="18.767385">
<ele>3.280550</ele>
<time>2012-05-02T12:34:00Z</time>
<desc>lat.=42.432953, lon.=18.767385, Alt.=3.280550m. Speed=18.900000m/h.</desc>
<speed>5.250000</speed>
</trkpt>
<trkpt lat="42.432693" lon="18.767353">
<ele>3.773836</ele>
<time>2012-05-02T12:34:05Z</time>
<desc>lat.=42.432693, lon.=18.767353, Alt.=3.773836m. Speed=18.396000m/h.</desc>
<speed>5.110000</speed>
</trkpt>
<trkpt lat="42.432465" lon="18.767321">
<ele>5.769352</ele>
<time>2012-05-02T12:34:10Z</time>
<desc>lat.=42.432465, lon.=18.767321, Alt.=5.769352m. Speed=18.323999m/h.</desc>
<speed>5.090000</speed>
</trkpt>
<trkpt lat="42.432224" lon="18.767323">
<ele>4.688419</ele>
<time>2012-05-02T12:34:15Z</time>
<desc>lat.=42.432224, lon.=18.767323, Alt.=4.688419m. Speed=19.332001m/h.</desc>
<speed>5.370000</speed>
</trkpt>
<trkpt lat="42.432049" lon="18.767334">
<ele>5.057072</ele>
<time>2012-05-02T12:34:20Z</time>
<desc>lat.=42.432049, lon.=18.767334, Alt.=5.057072m. Speed=6.696000m/h.</desc>
<speed>1.860000</speed>
</trkpt>
<trkpt lat="42.431946" lon="18.767363">
<ele>3.887117</ele>
<time>2012-05-02T12:34:25Z</time>
<desc>lat.=42.431946, lon.=18.767363, Alt.=3.887117m. Speed=8.064000m/h.</desc>
<speed>2.240000</speed>
</trkpt>
<trkpt lat="42.431759" lon="18.767376">
<ele>3.790377</ele>
<time>2012-05-02T12:34:30Z</time>
<desc>lat.=42.431759, lon.=18.767376, Alt.=3.790377m. Speed=19.403999m/h.</desc>
<speed>5.390000</speed>
</trkpt>
<trkpt lat="42.431499" lon="18.767410">
<ele>3.298738</ele>
<time>2012-05-02T12:34:35Z</time>
<desc>lat.=42.431499, lon.=18.767410, Alt.=3.298738m. Speed=20.736000m/h.</desc>
<speed>5.760000</speed>
</trkpt>
<trkpt lat="42.431248" lon="18.767540">
<ele>2.996370</ele>
<time>2012-05-02T12:34:40Z</time>
<desc>lat.=42.431248, lon.=18.767540, Alt.=2.996370m. Speed=21.743999m/h.</desc>
<speed>6.040000</speed>
</trkpt>
<trkpt lat="42.430981" lon="18.767658">
<ele>1.997910</ele>
<time>2012-05-02T12:34:45Z</time>
<desc>lat.=42.430981, lon.=18.767658, Alt.=1.997910m. Speed=21.384001m/h.</desc>
<speed>5.940000</speed>
</trkpt>
<trkpt lat="42.430729" lon="18.767612">
<ele>3.388460</ele>
<time>2012-05-02T12:34:50Z</time>
<desc>lat.=42.430729, lon.=18.767612, Alt.=3.388460m. Speed=18.180000m/h.</desc>
<speed>5.050000</speed>
</trkpt>
<trkpt lat="42.430473" lon="18.767561">
<ele>4.910954</ele>
<time>2012-05-02T12:34:55Z</time>
<desc>lat.=42.430473, lon.=18.767561, Alt.=4.910954m. Speed=19.980000m/h.</desc>
<speed>5.550000</speed>
</trkpt>
<trkpt lat="42.430206" lon="18.767702">
<ele>4.243473</ele>
<time>2012-05-02T12:35:00Z</time>
<desc>lat.=42.430206, lon.=18.767702, Alt.=4.243473m. Speed=24.372000m/h.</desc>
<speed>6.770000</speed>
</trkpt>
<trkpt lat="42.429924" lon="18.767887">
<ele>3.359102</ele>
<time>2012-05-02T12:35:05Z</time>
<desc>lat.=42.429924, lon.=18.767887, Alt.=3.359102m. Speed=27.719999m/h.</desc>
<speed>7.700000</speed>
</trkpt>
<trkpt lat="42.429630" lon="18.768099">
<ele>3.337069</ele>
<time>2012-05-02T12:35:10Z</time>
<desc>lat.=42.429630, lon.=18.768099, Alt.=3.337069m. Speed=25.740000m/h.</desc>
<speed>7.150000</speed>
</trkpt>
<trkpt lat="42.429382" lon="18.768360">
<ele>4.041691</ele>
<time>2012-05-02T12:35:15Z</time>
<desc>lat.=42.429382, lon.=18.768360, Alt.=4.041691m. Speed=23.615999m/h.</desc>
<speed>6.560000</speed>
</trkpt>
<trkpt lat="42.429138" lon="18.768604">
<ele>4.146793</ele>
<time>2012-05-02T12:35:20Z</time>
<desc>lat.=42.429138, lon.=18.768604, Alt.=4.146793m. Speed=23.436001m/h.</desc>
<speed>6.510000</speed>
</trkpt>
<trkpt lat="42.428947" lon="18.768879">
<ele>4.671452</ele>
<time>2012-05-02T12:35:25Z</time>
<desc>lat.=42.428947, lon.=18.768879, Alt.=4.671452m. Speed=20.664000m/h.</desc>
<speed>5.740000</speed>
</trkpt>
<trkpt lat="42.428764" lon="18.769051">
<ele>5.284000</ele>
<time>2012-05-02T12:35:30Z</time>
<desc>lat.=42.428764, lon.=18.769051, Alt.=5.284000m. Speed=15.480000m/h.</desc>
<speed>4.300000</speed>
</trkpt>
<trkpt lat="42.428627" lon="18.769062">
<ele>6.195621</ele>
<time>2012-05-02T12:35:35Z</time>
<desc>lat.=42.428627, lon.=18.769062, Alt.=6.195621m. Speed=8.928000m/h.</desc>
<speed>2.480000</speed>
</trkpt>
<trkpt lat="42.428555" lon="18.769053">
<ele>6.003971</ele>
<time>2012-05-02T12:35:40Z</time>
<desc>lat.=42.428555, lon.=18.769053, Alt.=6.003971m. Speed=4.284000m/h.</desc>
<speed>1.190000</speed>
</trkpt>
<trkpt lat="42.428509" lon="18.769030">
<ele>7.879459</ele>
<time>2012-05-02T12:35:45Z</time>
<desc>lat.=42.428509, lon.=18.769030, Alt.=7.879459m. Speed=0.144000m/h.</desc>
<speed>0.040000</speed>
</trkpt>
<trkpt lat="42.428509" lon="18.769032">
<ele>7.794376</ele>
<time>2012-05-02T12:35:50Z</time>
<desc>lat.=42.428509, lon.=18.769032, Alt.=7.794376m. Speed=0.324000m/h.</desc>
<speed>0.090000</speed>
</trkpt>
<trkpt lat="42.428509" lon="18.769032">
<ele>7.776676</ele>
<time>2012-05-02T12:35:55Z</time>
<desc>lat.=42.428509, lon.=18.769032, Alt.=7.776676m. Speed=0.252000m/h.</desc>
<speed>0.070000</speed>
</trkpt>
<trkpt lat="42.428509" lon="18.769028">
<ele>7.769108</ele>
<time>2012-05-02T12:36:00Z</time>
<desc>lat.=42.428509, lon.=18.769028, Alt.=7.769108m. Speed=0.000000m/h.</desc>
<speed>0.000000</speed>
</trkpt>
<trkpt lat="42.428505" lon="18.769033">
<ele>7.776920</ele>
<time>2012-05-02T12:36:05Z</time>
<desc>lat.=42.428505, lon.=18.769033, Alt.=7.776920m. Speed=1.188000m/h.</desc>
<speed>0.330000</speed>
</trkpt>
<trkpt lat="42.428455" lon="18.769064">
<ele>8.071907</ele>
<time>2012-05-02T12:36:10Z</time>
<desc>lat.=42.428455, lon.=18.769064, Alt.=8.071907m. Speed=8.856000m/h.</desc>
<speed>2.460000</speed>
</trkpt>
<trkpt lat="42.428280" lon="18.769022">
<ele>8.587044</ele>
<time>2012-05-02T12:36:15Z</time>
<desc>lat.=42.428280, lon.=18.769022, Alt.=8.587044m. Speed=15.192000m/h.</desc>
<speed>4.220000</speed>
</trkpt>
<trkpt lat="42.428051" lon="18.768946">
<ele>8.462288</ele>
<time>2012-05-02T12:36:20Z</time>
<desc>lat.=42.428051, lon.=18.768946, Alt.=8.462288m. Speed=14.796000m/h.</desc>
<speed>4.110000</speed>
</trkpt>
<trkpt lat="42.427860" lon="18.768929">
<ele>8.325081</ele>
<time>2012-05-02T12:36:25Z</time>
<desc>lat.=42.427860, lon.=18.768929, Alt.=8.325081m. Speed=9.108000m/h.</desc>
<speed>2.530000</speed>
</trkpt>
<trkpt lat="42.427746" lon="18.768904">
<ele>10.102913</ele>
<time>2012-05-02T12:36:30Z</time>
<desc>lat.=42.427746, lon.=18.768904, Alt.=10.102913m. Speed=6.984000m/h.</desc>
<speed>1.940000</speed>
</trkpt>
<trkpt lat="42.427628" lon="18.768873">
<ele>10.784065</ele>
<time>2012-05-02T12:36:35Z</time>
<desc>lat.=42.427628, lon.=18.768873, Alt.=10.784065m. Speed=11.016000m/h.</desc>
<speed>3.060000</speed>
</trkpt>
<trkpt lat="42.427437" lon="18.768806">
<ele>14.528694</ele>
<time>2012-05-02T12:36:40Z</time>
<desc>lat.=42.427437, lon.=18.768806, Alt.=14.528694m. Speed=14.508000m/h.</desc>
<speed>4.030000</speed>
</trkpt>
<trkpt lat="42.427238" lon="18.768726">
<ele>17.994888</ele>
<time>2012-05-02T12:36:45Z</time>
<desc>lat.=42.427238, lon.=18.768726, Alt.=17.994888m. Speed=15.552000m/h.</desc>
<speed>4.320000</speed>
</trkpt>
<trkpt lat="42.427036" lon="18.768620">
<ele>21.026627</ele>
<time>2012-05-02T12:36:50Z</time>
<desc>lat.=42.427036, lon.=18.768620, Alt.=21.026627m. Speed=21.096001m/h.</desc>
<speed>5.860000</speed>
</trkpt>
<trkpt lat="42.426781" lon="18.768511">
<ele>22.664322</ele>
<time>2012-05-02T12:36:55Z</time>
<desc>lat.=42.426781, lon.=18.768511, Alt.=22.664322m. Speed=19.007999m/h.</desc>
<speed>5.280000</speed>
</trkpt>
<trkpt lat="42.426552" lon="18.768452">
<ele>24.220963</ele>
<time>2012-05-02T12:37:00Z</time>
<desc>lat.=42.426552, lon.=18.768452, Alt.=24.220963m. Speed=16.056000m/h.</desc>
<speed>4.460000</speed>
</trkpt>
<trkpt lat="42.426277" lon="18.768372">
<ele>24.209732</ele>
<time>2012-05-02T12:37:05Z</time>
<desc>lat.=42.426277, lon.=18.768372, Alt.=24.209732m. Speed=17.747999m/h.</desc>
<speed>4.930000</speed>
</trkpt>
<trkpt lat="42.426037" lon="18.768364">
<ele>22.568619</ele>
<time>2012-05-02T12:37:10Z</time>
<desc>lat.=42.426037, lon.=18.768364, Alt.=22.568619m. Speed=16.200001m/h.</desc>
<speed>4.500000</speed>
</trkpt>
<trkpt lat="42.425808" lon="18.768347">
<ele>19.558853</ele>
<time>2012-05-02T12:37:15Z</time>
<desc>lat.=42.425808, lon.=18.768347, Alt.=19.558853m. Speed=14.148000m/h.</desc>
<speed>3.930000</speed>
</trkpt>
<trkpt lat="42.425632" lon="18.768276">
<ele>19.335709</ele>
<time>2012-05-02T12:37:20Z</time>
<desc>lat.=42.425632, lon.=18.768276, Alt.=19.335709m. Speed=15.192000m/h.</desc>
<speed>4.220000</speed>
</trkpt>
<trkpt lat="42.425426" lon="18.768242">
<ele>15.938362</ele>
<time>2012-05-02T12:37:25Z</time>
<desc>lat.=42.425426, lon.=18.768242, Alt.=15.938362m. Speed=14.724000m/h.</desc>
<speed>4.090000</speed>
</trkpt>
<trkpt lat="42.425224" lon="18.768353">
<ele>14.276985</ele>
<time>2012-05-02T12:37:30Z</time>
<desc>lat.=42.425224, lon.=18.768353, Alt.=14.276985m. Speed=15.624000m/h.</desc>
<speed>4.340000</speed>
</trkpt>
<trkpt lat="42.425064" lon="18.768557">
<ele>13.003548</ele>
<time>2012-05-02T12:37:35Z</time>
<desc>lat.=42.425064, lon.=18.768557, Alt.=13.003548m. Speed=16.452000m/h.</desc>
<speed>4.570000</speed>
</trkpt>
<trkpt lat="42.424931" lon="18.768778">
<ele>11.794075</ele>
<time>2012-05-02T12:37:40Z</time>
<desc>lat.=42.424931, lon.=18.768778, Alt.=11.794075m. Speed=15.120000m/h.</desc>
<speed>4.200000</speed>
</trkpt>
<trkpt lat="42.424797" lon="18.768967">
<ele>11.075325</ele>
<time>2012-05-02T12:37:45Z</time>
<desc>lat.=42.424797, lon.=18.768967, Alt.=11.075325m. Speed=15.264000m/h.</desc>
<speed>4.240000</speed>
</trkpt>
<trkpt lat="42.424660" lon="18.769173">
<ele>10.666145</ele>
<time>2012-05-02T12:37:50Z</time>
<desc>lat.=42.424660, lon.=18.769173, Alt.=10.666145m. Speed=16.164000m/h.</desc>
<speed>4.490000</speed>
</trkpt>
<trkpt lat="42.424545" lon="18.769341">
<ele>9.864632</ele>
<time>2012-05-02T12:37:55Z</time>
<desc>lat.=42.424545, lon.=18.769341, Alt.=9.864632m. Speed=6.876000m/h.</desc>
<speed>1.910000</speed>
</trkpt>
<trkpt lat="42.424541" lon="18.769382">
<ele>9.741096</ele>
<time>2012-05-02T12:38:00Z</time>
<desc>lat.=42.424541, lon.=18.769382, Alt.=9.741096m. Speed=1.476000m/h.</desc>
<speed>0.410000</speed>
</trkpt>
<trkpt lat="42.424530" lon="18.769392">
<ele>9.591927</ele>
<time>2012-05-02T12:38:05Z</time>
<desc>lat.=42.424530, lon.=18.769392, Alt.=9.591927m. Speed=0.756000m/h.</desc>
<speed>0.210000</speed>
</trkpt>
<trkpt lat="42.424526" lon="18.769392">
<ele>9.482307</ele>
<time>2012-05-02T12:38:10Z</time>
<desc>lat.=42.424526, lon.=18.769392, Alt.=9.482307m. Speed=0.288000m/h.</desc>
<speed>0.080000</speed>
</trkpt>
<trkpt lat="42.424526" lon="18.769390">
<ele>9.447151</ele>
<time>2012-05-02T12:38:15Z</time>
<desc>lat.=42.424526, lon.=18.769390, Alt.=9.447151m. Speed=0.000000m/h.</desc>
<speed>0.000000</speed>
</trkpt>
<trkpt lat="42.424526" lon="18.769390">
<ele>9.434944</ele>
<time>2012-05-02T12:38:20Z</time>
<desc>lat.=42.424526, lon.=18.769390, Alt.=9.434944m. Speed=0.288000m/h.</desc>
<speed>0.080000</speed>
</trkpt>
<trkpt lat="42.424530" lon="18.769388">
<ele>9.419075</ele>
<time>2012-05-02T12:38:25Z</time>
<desc>lat.=42.424530, lon.=18.769388, Alt.=9.419075m. Speed=0.252000m/h.</desc>
<speed>0.070000</speed>
</trkpt>
<trkpt lat="42.424530" lon="18.769388">
<ele>9.446419</ele>
<time>2012-05-02T12:38:30Z</time>
<desc>lat.=42.424530, lon.=18.769388, Alt.=9.446419m. Speed=0.072000m/h.</desc>
<speed>0.020000</speed>
</trkpt>
<trkpt lat="42.424530" lon="18.769386">
<ele>9.464973</ele>
<time>2012-05-02T12:38:35Z</time>
<desc>lat.=42.424530, lon.=18.769386, Alt.=9.464973m. Speed=0.144000m/h.</desc>
<speed>0.040000</speed>
</trkpt>
<trkpt lat="42.424530" lon="18.769386">
<ele>9.475960</ele>
<time>2012-05-02T12:38:40Z</time>
<desc>lat.=42.424530, lon.=18.769386, Alt.=9.475960m. Speed=0.108000m/h.</desc>
<speed>0.030000</speed>
</trkpt>
<trkpt lat="42.424530" lon="18.769386">
<ele>9.472298</ele>
<time>2012-05-02T12:38:45Z</time>
<desc>lat.=42.424530, lon.=18.769386, Alt.=9.472298m. Speed=0.000000m/h.</desc>
<speed>0.000000</speed>
</trkpt>
<trkpt lat="42.424530" lon="18.769386">
<ele>9.482552</ele>
<time>2012-05-02T12:38:50Z</time>
<desc>lat.=42.424530, lon.=18.769386, Alt.=9.482552m. Speed=0.072000m/h.</desc>
<speed>0.020000</speed>
</trkpt>
<trkpt lat="42.424530" lon="18.769386">
<ele>9.480354</ele>
<time>2012-05-02T12:38:55Z</time>
<desc>lat.=42.424530, lon.=18.769386, Alt.=9.480354m. Speed=0.000000m/h.</desc>
<speed>0.000000</speed>
</trkpt>
<trkpt lat="42.424530" lon="18.769384">
<ele>9.481087</ele>
<time>2012-05-02T12:39:00Z</time>
<desc>lat.=42.424530, lon.=18.769384, Alt.=9.481087m. Speed=0.036000m/h.</desc>
<speed>0.010000</speed>
</trkpt>
<trkpt lat="42.424534" lon="18.769384">
<ele>9.499641</ele>
<time>2012-05-02T12:39:05Z</time>
<desc>lat.=42.424534, lon.=18.769384, Alt.=9.499641m. Speed=0.000000m/h.</desc>
<speed>0.000000</speed>
</trkpt>
<trkpt lat="42.424534" lon="18.769384">
<ele>9.505745</ele>
<time>2012-05-02T12:39:10Z</time>
<desc>lat.=42.424534, lon.=18.769384, Alt.=9.505745m. Speed=0.036000m/h.</desc>
<speed>0.010000</speed>
</trkpt>
<trkpt lat="42.424534" lon="18.769384">
<ele>9.506966</ele>
<time>2012-05-02T12:39:15Z</time>
<desc>lat.=42.424534, lon.=18.769384, Alt.=9.506966m. Speed=0.000000m/h.</desc>
<speed>0.000000</speed>
</trkpt>
<trkpt lat="42.424534" lon="18.769384">
<ele>9.518440</ele>
<time>2012-05-02T12:39:20Z</time>
<desc>lat.=42.424534, lon.=18.769384, Alt.=9.518440m. Speed=0.000000m/h.</desc>
<speed>0.000000</speed>
</trkpt>
<trkpt lat="42.424534" lon="18.769384">
<ele>9.523567</ele>
<time>2012-05-02T12:39:25Z</time>
<desc>lat.=42.424534, lon.=18.769384, Alt.=9.523567m. Speed=0.000000m/h.</desc>
<speed>0.000000</speed>
</trkpt>
<trkpt lat="42.424534" lon="18.769384">
<ele>9.514778</ele>
<time>2012-05-02T12:39:30Z</time>
<desc>lat.=42.424534, lon.=18.769384, Alt.=9.514778m. Speed=0.000000m/h.</desc>
<speed>0.000000</speed>
</trkpt>
<trkpt lat="42.424534" lon="18.769384">
<ele>9.501106</ele>
<time>2012-05-02T12:39:35Z</time>
<desc>lat.=42.424534, lon.=18.769384, Alt.=9.501106m. Speed=0.216000m/h.</desc>
<speed>0.060000</speed>
</trkpt>
<trkpt lat="42.424534" lon="18.769382">
<ele>9.527962</ele>
<time>2012-05-02T12:39:40Z</time>
<desc>lat.=42.424534, lon.=18.769382, Alt.=9.527962m. Speed=0.108000m/h.</desc>
<speed>0.030000</speed>
</trkpt>
<trkpt lat="42.424534" lon="18.769382">
<ele>9.534309</ele>
<time>2012-05-02T12:39:45Z</time>
<desc>lat.=42.424534, lon.=18.769382, Alt.=9.534309m. Speed=0.504000m/h.</desc>
<speed>0.140000</speed>
</trkpt>
<trkpt lat="42.424534" lon="18.769381">
<ele>9.534309</ele>
<time>2012-05-02T12:39:50Z</time>
<desc>lat.=42.424534, lon.=18.769381, Alt.=9.534309m. Speed=0.072000m/h.</desc>
<speed>0.020000</speed>
</trkpt>
<trkpt lat="42.424534" lon="18.769381">
<ele>9.573128</ele>
<time>2012-05-02T12:39:55Z</time>
<desc>lat.=42.424534, lon.=18.769381, Alt.=9.573128m. Speed=0.036000m/h.</desc>
<speed>0.010000</speed>
</trkpt>
<trkpt lat="42.424534" lon="18.769381">
<ele>9.576546</ele>
<time>2012-05-02T12:40:00Z</time>
<desc>lat.=42.424534, lon.=18.769381, Alt.=9.576546m. Speed=0.000000m/h.</desc>
<speed>0.000000</speed>
</trkpt>
<trkpt lat="42.424534" lon="18.769381">
<ele>9.580696</ele>
<time>2012-05-02T12:40:05Z</time>
<desc>lat.=42.424534, lon.=18.769381, Alt.=9.580696m. Speed=0.000000m/h.</desc>
<speed>0.000000</speed>
</trkpt>
<trkpt lat="42.424534" lon="18.769381">
<ele>9.610237</ele>
<time>2012-05-02T12:40:10Z</time>
<desc>lat.=42.424534, lon.=18.769381, Alt.=9.610237m. Speed=0.036000m/h.</desc>
<speed>0.010000</speed>
</trkpt>
<trkpt lat="42.424534" lon="18.769381">
<ele>9.627327</ele>
<time>2012-05-02T12:40:15Z</time>
<desc>lat.=42.424534, lon.=18.769381, Alt.=9.627327m. Speed=0.000000m/h.</desc>
<speed>0.000000</speed>
</trkpt>
<trkpt lat="42.424534" lon="18.769379">
<ele>9.645638</ele>
<time>2012-05-02T12:40:20Z</time>
<desc>lat.=42.424534, lon.=18.769379, Alt.=9.645638m. Speed=0.072000m/h.</desc>
<speed>0.020000</speed>
</trkpt>
<trkpt lat="42.424534" lon="18.769379">
<ele>9.684456</ele>
<time>2012-05-02T12:40:25Z</time>
<desc>lat.=42.424534, lon.=18.769379, Alt.=9.684456m. Speed=0.036000m/h.</desc>
<speed>0.010000</speed>
</trkpt>
<trkpt lat="42.424534" lon="18.769379">
<ele>9.703499</ele>
<time>2012-05-02T12:40:30Z</time>
<desc>lat.=42.424534, lon.=18.769379, Alt.=9.703499m. Speed=0.000000m/h.</desc>
<speed>0.000000</speed>
</trkpt>
<trkpt lat="42.424534" lon="18.769379">
<ele>9.722298</ele>
<time>2012-05-02T12:40:35Z</time>
<desc>lat.=42.424534, lon.=18.769379, Alt.=9.722298m. Speed=0.036000m/h.</desc>
<speed>0.010000</speed>
</trkpt>
<trkpt lat="42.424534" lon="18.769379">
<ele>9.729134</ele>
<time>2012-05-02T12:40:40Z</time>
<desc>lat.=42.424534, lon.=18.769379, Alt.=9.729134m. Speed=0.144000m/h.</desc>
<speed>0.040000</speed>
</trkpt>
<trkpt lat="42.424534" lon="18.769379">
<ele>9.746712</ele>
<time>2012-05-02T12:40:45Z</time>
<desc>lat.=42.424534, lon.=18.769379, Alt.=9.746712m. Speed=0.108000m/h.</desc>
<speed>0.030000</speed>
</trkpt>
<trkpt lat="42.424534" lon="18.769377">
<ele>9.753059</ele>
<time>2012-05-02T12:40:50Z</time>
<desc>lat.=42.424534, lon.=18.769377, Alt.=9.753059m. Speed=0.072000m/h.</desc>
<speed>0.020000</speed>
</trkpt>
<trkpt lat="42.424534" lon="18.769377">
<ele>9.747932</ele>
<time>2012-05-02T12:40:55Z</time>
<desc>lat.=42.424534, lon.=18.769377, Alt.=9.747932m. Speed=0.000000m/h.</desc>
<speed>0.000000</speed>
</trkpt>
<trkpt lat="42.424534" lon="18.769377">
<ele>9.769905</ele>
<time>2012-05-02T12:41:00Z</time>
<desc>lat.=42.424534, lon.=18.769377, Alt.=9.769905m. Speed=0.072000m/h.</desc>
<speed>0.020000</speed>
</trkpt>
<trkpt lat="42.424534" lon="18.769377">
<ele>9.780891</ele>
<time>2012-05-02T12:41:05Z</time>
<desc>lat.=42.424534, lon.=18.769377, Alt.=9.780891m. Speed=0.000000m/h.</desc>
<speed>0.000000</speed>
</trkpt>
<trkpt lat="42.424534" lon="18.769377">
<ele>9.780891</ele>
<time>2012-05-02T12:41:10Z</time>
<desc>lat.=42.424534, lon.=18.769377, Alt.=9.780891m. Speed=0.108000m/h.</desc>
<speed>0.030000</speed>
</trkpt>
<trkpt lat="42.424534" lon="18.769377">
<ele>9.781136</ele>
<time>2012-05-02T12:41:15Z</time>
<desc>lat.=42.424534, lon.=18.769377, Alt.=9.781136m. Speed=0.000000m/h.</desc>
<speed>0.000000</speed>
</trkpt>
<trkpt lat="42.424534" lon="18.769377">
<ele>9.782845</ele>
<time>2012-05-02T12:41:20Z</time>
<desc>lat.=42.424534, lon.=18.769377, Alt.=9.782845m. Speed=0.180000m/h.</desc>
<speed>0.050000</speed>
</trkpt>
<trkpt lat="42.424534" lon="18.769375">
<ele>9.779671</ele>
<time>2012-05-02T12:41:25Z</time>
<desc>lat.=42.424534, lon.=18.769375, Alt.=9.779671m. Speed=0.072000m/h.</desc>
<speed>0.020000</speed>
</trkpt>
<trkpt lat="42.424534" lon="18.769375">
<ele>9.786018</ele>
<time>2012-05-02T12:41:30Z</time>
<desc>lat.=42.424534, lon.=18.769375, Alt.=9.786018m. Speed=0.000000m/h.</desc>
<speed>0.000000</speed>
</trkpt>
<trkpt lat="42.424534" lon="18.769375">
<ele>9.793587</ele>
<time>2012-05-02T12:41:35Z</time>
<desc>lat.=42.424534, lon.=18.769375, Alt.=9.793587m. Speed=0.036000m/h.</desc>
<speed>0.010000</speed>
</trkpt>
<trkpt lat="42.424534" lon="18.769375">
<ele>9.824104</ele>
<time>2012-05-02T12:41:40Z</time>
<desc>lat.=42.424534, lon.=18.769375, Alt.=9.824104m. Speed=0.000000m/h.</desc>
<speed>0.000000</speed>
</trkpt>
<trkpt lat="42.424534" lon="18.769375">
<ele>9.820442</ele>
<time>2012-05-02T12:41:45Z</time>
<desc>lat.=42.424534, lon.=18.769375, Alt.=9.820442m. Speed=0.000000m/h.</desc>
<speed>0.000000</speed>
</trkpt>
<trkpt lat="42.424534" lon="18.769375">
<ele>9.819221</ele>
<time>2012-05-02T12:41:50Z</time>
<desc>lat.=42.424534, lon.=18.769375, Alt.=9.819221m. Speed=0.036000m/h.</desc>
<speed>0.010000</speed>
</trkpt>
<trkpt lat="42.424534" lon="18.769375">
<ele>9.829720</ele>
<time>2012-05-02T12:41:55Z</time>
<desc>lat.=42.424534, lon.=18.769375, Alt.=9.829720m. Speed=0.000000m/h.</desc>
<speed>0.000000</speed>
</trkpt>
<trkpt lat="42.424538" lon="18.769375">
<ele>9.840462</ele>
<time>2012-05-02T12:42:00Z</time>
<desc>lat.=42.424538, lon.=18.769375, Alt.=9.840462m. Speed=0.072000m/h.</desc>
<speed>0.020000</speed>
</trkpt>
<trkpt lat="42.424538" lon="18.769375">
<ele>9.858040</ele>
<time>2012-05-02T12:42:05Z</time>
<desc>lat.=42.424538, lon.=18.769375, Alt.=9.858040m. Speed=0.144000m/h.</desc>
<speed>0.040000</speed>
</trkpt>
<trkpt lat="42.424538" lon="18.769375">
<ele>9.876106</ele>
<time>2012-05-02T12:42:10Z</time>
<desc>lat.=42.424538, lon.=18.769375, Alt.=9.876106m. Speed=0.000000m/h.</desc>
<speed>0.000000</speed>
</trkpt>
<trkpt lat="42.424538" lon="18.769375">
<ele>9.880989</ele>
<time>2012-05-02T12:42:15Z</time>
<desc>lat.=42.424538, lon.=18.769375, Alt.=9.880989m. Speed=0.036000m/h.</desc>
<speed>0.010000</speed>
</trkpt>
<trkpt lat="42.424538" lon="18.769373">
<ele>9.885628</ele>
<time>2012-05-02T12:42:20Z</time>
<desc>lat.=42.424538, lon.=18.769373, Alt.=9.885628m. Speed=0.036000m/h.</desc>
<speed>0.010000</speed>
</trkpt>
<trkpt lat="42.424538" lon="18.769373">
<ele>9.894417</ele>
<time>2012-05-02T12:42:25Z</time>
<desc>lat.=42.424538, lon.=18.769373, Alt.=9.894417m. Speed=0.072000m/h.</desc>
<speed>0.020000</speed>
</trkpt>
<trkpt lat="42.424538" lon="18.769373">
<ele>9.907845</ele>
<time>2012-05-02T12:42:30Z</time>
<desc>lat.=42.424538, lon.=18.769373, Alt.=9.907845m. Speed=0.180000m/h.</desc>
<speed>0.050000</speed>
</trkpt>
<trkpt lat="42.424538" lon="18.769371">
<ele>9.889778</ele>
<time>2012-05-02T12:42:35Z</time>
<desc>lat.=42.424538, lon.=18.769371, Alt.=9.889778m. Speed=0.072000m/h.</desc>
<speed>0.020000</speed>
</trkpt>
<trkpt lat="42.424538" lon="18.769371">
<ele>9.891243</ele>
<time>2012-05-02T12:42:40Z</time>
<desc>lat.=42.424538, lon.=18.769371, Alt.=9.891243m. Speed=0.144000m/h.</desc>
<speed>0.040000</speed>
</trkpt>
<trkpt lat="42.424534" lon="18.769371">
<ele>9.889046</ele>
<time>2012-05-02T12:42:45Z</time>
<desc>lat.=42.424534, lon.=18.769371, Alt.=9.889046m. Speed=0.000000m/h.</desc>
<speed>0.000000</speed>
</trkpt>
<trkpt lat="42.424538" lon="18.769371">
<ele>9.891243</ele>
<time>2012-05-02T12:42:50Z</time>
<desc>lat.=42.424538, lon.=18.769371, Alt.=9.891243m. Speed=0.036000m/h.</desc>
<speed>0.010000</speed>
</trkpt>
<trkpt lat="42.424538" lon="18.769369">
<ele>9.906136</ele>
<time>2012-05-02T12:42:55Z</time>
<desc>lat.=42.424538, lon.=18.769369, Alt.=9.906136m. Speed=0.036000m/h.</desc>
<speed>0.010000</speed>
</trkpt>
<trkpt lat="42.424538" lon="18.769369">
<ele>9.917366</ele>
<time>2012-05-02T12:43:00Z</time>
<desc>lat.=42.424538, lon.=18.769369, Alt.=9.917366m. Speed=0.108000m/h.</desc>
<speed>0.030000</speed>
</trkpt>
<trkpt lat="42.424538" lon="18.769369">
<ele>9.923225</ele>
<time>2012-05-02T12:43:05Z</time>
<desc>lat.=42.424538, lon.=18.769369, Alt.=9.923225m. Speed=0.072000m/h.</desc>
<speed>0.020000</speed>
</trkpt>
<trkpt lat="42.424538" lon="18.769369">
<ele>9.928841</ele>
<time>2012-05-02T12:43:10Z</time>
<desc>lat.=42.424538, lon.=18.769369, Alt.=9.928841m. Speed=0.036000m/h.</desc>
<speed>0.010000</speed>
</trkpt>
<trkpt lat="42.424538" lon="18.769369">
<ele>9.942513</ele>
<time>2012-05-02T12:43:15Z</time>
<desc>lat.=42.424538, lon.=18.769369, Alt.=9.942513m. Speed=0.036000m/h.</desc>
<speed>0.010000</speed>
</trkpt>
<trkpt lat="42.424538" lon="18.769367">
<ele>9.958138</ele>
<time>2012-05-02T12:43:20Z</time>
<desc>lat.=42.424538, lon.=18.769367, Alt.=9.958138m. Speed=0.000000m/h.</desc>
<speed>0.000000</speed>
</trkpt>
<trkpt lat="42.424538" lon="18.769367">
<ele>9.991096</ele>
<time>2012-05-02T12:43:25Z</time>
<desc>lat.=42.424538, lon.=18.769367, Alt.=9.991096m. Speed=0.144000m/h.</desc>
<speed>0.040000</speed>
</trkpt>
<trkpt lat="42.424538" lon="18.769365">
<ele>10.018440</ele>
<time>2012-05-02T12:43:30Z</time>
<desc>lat.=42.424538, lon.=18.769365, Alt.=10.018440m. Speed=0.000000m/h.</desc>
<speed>0.000000</speed>
</trkpt>
<trkpt lat="42.424538" lon="18.769365">
<ele>10.045052</ele>
<time>2012-05-02T12:43:35Z</time>
<desc>lat.=42.424538, lon.=18.769365, Alt.=10.045052m. Speed=0.036000m/h.</desc>
<speed>0.010000</speed>
</trkpt>
<trkpt lat="42.424538" lon="18.769365">
<ele>10.050179</ele>
<time>2012-05-02T12:43:40Z</time>
<desc>lat.=42.424538, lon.=18.769365, Alt.=10.050179m. Speed=0.000000m/h.</desc>
<speed>0.000000</speed>
</trkpt>
<trkpt lat="42.424538" lon="18.769365">
<ele>10.062630</ele>
<time>2012-05-02T12:43:45Z</time>
<desc>lat.=42.424538, lon.=18.769365, Alt.=10.062630m. Speed=0.036000m/h.</desc>
<speed>0.010000</speed>
</trkpt>
<trkpt lat="42.424538" lon="18.769365">
<ele>10.076546</ele>
<time>2012-05-02T12:43:50Z</time>
<desc>lat.=42.424538, lon.=18.769365, Alt.=10.076546m. Speed=0.000000m/h.</desc>
<speed>0.000000</speed>
</trkpt>
<trkpt lat="42.424538" lon="18.769365">
<ele>10.079720</ele>
<time>2012-05-02T12:43:55Z</time>
<desc>lat.=42.424538, lon.=18.769365, Alt.=10.079720m. Speed=0.036000m/h.</desc>
<speed>0.010000</speed>
</trkpt>
<trkpt lat="42.424538" lon="18.769365">
<ele>10.048225</ele>
<time>2012-05-02T12:44:00Z</time>
<desc>lat.=42.424538, lon.=18.769365, Alt.=10.048225m. Speed=0.864000m/h.</desc>
<speed>0.240000</speed>
</trkpt>
<trkpt lat="42.424538" lon="18.769363">
<ele>10.042366</ele>
<time>2012-05-02T12:44:05Z</time>
<desc>lat.=42.424538, lon.=18.769363, Alt.=10.042366m. Speed=0.000000m/h.</desc>
<speed>0.000000</speed>
</trkpt>
<trkpt lat="42.424538" lon="18.769363">
<ele>10.027473</ele>
<time>2012-05-02T12:44:10Z</time>
<desc>lat.=42.424538, lon.=18.769363, Alt.=10.027473m. Speed=0.000000m/h.</desc>
<speed>0.000000</speed>
</trkpt>
<trkpt lat="42.424538" lon="18.769363">
<ele>10.001839</ele>
<time>2012-05-02T12:44:15Z</time>
<desc>lat.=42.424538, lon.=18.769363, Alt.=10.001839m. Speed=0.072000m/h.</desc>
<speed>0.020000</speed>
</trkpt>
<trkpt lat="42.424538" lon="18.769363">
<ele>9.983528</ele>
<time>2012-05-02T12:44:20Z</time>
<desc>lat.=42.424538, lon.=18.769363, Alt.=9.983528m. Speed=0.000000m/h.</desc>
<speed>0.000000</speed>
</trkpt>
<trkpt lat="42.424538" lon="18.769363">
<ele>9.972786</ele>
<time>2012-05-02T12:44:25Z</time>
<desc>lat.=42.424538, lon.=18.769363, Alt.=9.972786m. Speed=0.000000m/h.</desc>
<speed>0.000000</speed>
</trkpt>
<trkpt lat="42.424538" lon="18.769363">
<ele>9.978401</ele>
<time>2012-05-02T12:44:30Z</time>
<desc>lat.=42.424538, lon.=18.769363, Alt.=9.978401m. Speed=0.072000m/h.</desc>
<speed>0.020000</speed>
</trkpt>
<trkpt lat="42.424538" lon="18.769363">
<ele>9.982307</ele>
<time>2012-05-02T12:44:35Z</time>
<desc>lat.=42.424538, lon.=18.769363, Alt.=9.982307m. Speed=0.072000m/h.</desc>
<speed>0.020000</speed>
</trkpt>
<trkpt lat="42.424538" lon="18.769363">
<ele>9.986214</ele>
<time>2012-05-02T12:44:40Z</time>
<desc>lat.=42.424538, lon.=18.769363, Alt.=9.986214m. Speed=0.144000m/h.</desc>
<speed>0.040000</speed>
</trkpt>
<trkpt lat="42.424538" lon="18.769363">
<ele>9.984993</ele>
<time>2012-05-02T12:44:45Z</time>
<desc>lat.=42.424538, lon.=18.769363, Alt.=9.984993m. Speed=0.000000m/h.</desc>
<speed>0.000000</speed>
</trkpt>
<trkpt lat="42.424538" lon="18.769363">
<ele>9.982552</ele>
<time>2012-05-02T12:44:50Z</time>
<desc>lat.=42.424538, lon.=18.769363, Alt.=9.982552m. Speed=0.036000m/h.</desc>
<speed>0.010000</speed>
</trkpt>
<trkpt lat="42.424538" lon="18.769361">
<ele>9.994759</ele>
<time>2012-05-02T12:44:55Z</time>
<desc>lat.=42.424538, lon.=18.769361, Alt.=9.994759m. Speed=0.036000m/h.</desc>
<speed>0.010000</speed>
</trkpt>
<trkpt lat="42.424538" lon="18.769361">
<ele>10.006721</ele>
<time>2012-05-02T12:45:00Z</time>
<desc>lat.=42.424538, lon.=18.769361, Alt.=10.006721m. Speed=0.036000m/h.</desc>
<speed>0.010000</speed>
</trkpt>
<trkpt lat="42.424541" lon="18.769361">
<ele>10.002571</ele>
<time>2012-05-02T12:45:05Z</time>
<desc>lat.=42.424541, lon.=18.769361, Alt.=10.002571m. Speed=0.000000m/h.</desc>
<speed>0.000000</speed>
</trkpt>
<trkpt lat="42.424541" lon="18.769361">
<ele>10.012825</ele>
<time>2012-05-02T12:45:10Z</time>
<desc>lat.=42.424541, lon.=18.769361, Alt.=10.012825m. Speed=0.072000m/h.</desc>
<speed>0.020000</speed>
</trkpt>
<trkpt lat="42.424538" lon="18.769361">
<ele>10.023079</ele>
<time>2012-05-02T12:45:15Z</time>
<desc>lat.=42.424538, lon.=18.769361, Alt.=10.023079m. Speed=0.000000m/h.</desc>
<speed>0.000000</speed>
</trkpt>
<trkpt lat="42.424541" lon="18.769361">
<ele>10.030891</ele>
<time>2012-05-02T12:45:20Z</time>
<desc>lat.=42.424541, lon.=18.769361, Alt.=10.030891m. Speed=0.036000m/h.</desc>
<speed>0.010000</speed>
</trkpt>
<trkpt lat="42.424541" lon="18.769361">
<ele>10.038460</ele>
<time>2012-05-02T12:45:25Z</time>
<desc>lat.=42.424541, lon.=18.769361, Alt.=10.038460m. Speed=0.072000m/h.</desc>
<speed>0.020000</speed>
</trkpt>
<trkpt lat="42.424541" lon="18.769361">
<ele>10.048958</ele>
<time>2012-05-02T12:45:30Z</time>
<desc>lat.=42.424541, lon.=18.769361, Alt.=10.048958m. Speed=0.036000m/h.</desc>
<speed>0.010000</speed>
</trkpt>
<trkpt lat="42.424541" lon="18.769360">
<ele>10.031868</ele>
<time>2012-05-02T12:45:35Z</time>
<desc>lat.=42.424541, lon.=18.769360, Alt.=10.031868m. Speed=0.072000m/h.</desc>
<speed>0.020000</speed>
</trkpt>
<trkpt lat="42.424541" lon="18.769360">
<ele>10.045296</ele>
<time>2012-05-02T12:45:40Z</time>
<desc>lat.=42.424541, lon.=18.769360, Alt.=10.045296m. Speed=0.144000m/h.</desc>
<speed>0.040000</speed>
</trkpt>
<trkpt lat="42.424541" lon="18.769360">
<ele>10.035042</ele>
<time>2012-05-02T12:45:45Z</time>
<desc>lat.=42.424541, lon.=18.769360, Alt.=10.035042m. Speed=0.144000m/h.</desc>
<speed>0.040000</speed>
</trkpt>
<trkpt lat="42.424541" lon="18.769360">
<ele>10.023567</ele>
<time>2012-05-02T12:45:50Z</time>
<desc>lat.=42.424541, lon.=18.769360, Alt.=10.023567m. Speed=0.108000m/h.</desc>
<speed>0.030000</speed>
</trkpt>
<trkpt lat="42.424541" lon="18.769358">
<ele>10.022102</ele>
<time>2012-05-02T12:45:55Z</time>
<desc>lat.=42.424541, lon.=18.769358, Alt.=10.022102m. Speed=0.000000m/h.</desc>
<speed>0.000000</speed>
</trkpt>
<trkpt lat="42.424541" lon="18.769358">
<ele>10.003792</ele>
<time>2012-05-02T12:46:00Z</time>
<desc>lat.=42.424541, lon.=18.769358, Alt.=10.003792m. Speed=0.036000m/h.</desc>
<speed>0.010000</speed>
</trkpt>
<trkpt lat="42.424541" lon="18.769358">
<ele>9.980110</ele>
<time>2012-05-02T12:46:05Z</time>
<desc>lat.=42.424541, lon.=18.769358, Alt.=9.980110m. Speed=0.000000m/h.</desc>
<speed>0.000000</speed>
</trkpt>
<trkpt lat="42.424541" lon="18.769358">
<ele>9.967171</ele>
<time>2012-05-02T12:46:10Z</time>
<desc>lat.=42.424541, lon.=18.769358, Alt.=9.967171m. Speed=0.072000m/h.</desc>
<speed>0.020000</speed>
</trkpt>
<trkpt lat="42.424541" lon="18.769358">
<ele>9.969124</ele>
<time>2012-05-02T12:46:15Z</time>
<desc>lat.=42.424541, lon.=18.769358, Alt.=9.969124m. Speed=0.036000m/h.</desc>
<speed>0.010000</speed>
</trkpt>
<trkpt lat="42.424541" lon="18.769358">
<ele>9.958382</ele>
<time>2012-05-02T12:46:20Z</time>
<desc>lat.=42.424541, lon.=18.769358, Alt.=9.958382m. Speed=0.468000m/h.</desc>
<speed>0.130000</speed>
</trkpt>
<trkpt lat="42.424522" lon="18.769342">
<ele>10.414436</ele>
<time>2012-05-02T12:46:25Z</time>
<desc>lat.=42.424522, lon.=18.769342, Alt.=10.414436m. Speed=1.512000m/h.</desc>
<speed>0.420000</speed>
</trkpt>
<trkpt lat="42.424450" lon="18.769243">
<ele>10.762581</ele>
<time>2012-05-02T12:46:30Z</time>
<desc>lat.=42.424450, lon.=18.769243, Alt.=10.762581m. Speed=4.068000m/h.</desc>
<speed>1.130000</speed>
</trkpt>
<trkpt lat="42.424370" lon="18.769274">
<ele>10.448860</ele>
<time>2012-05-02T12:46:35Z</time>
<desc>lat.=42.424370, lon.=18.769274, Alt.=10.448860m. Speed=8.964000m/h.</desc>
<speed>2.490000</speed>
</trkpt>
<trkpt lat="42.424274" lon="18.769411">
<ele>10.689827</ele>
<time>2012-05-02T12:46:40Z</time>
<desc>lat.=42.424274, lon.=18.769411, Alt.=10.689827m. Speed=10.764000m/h.</desc>
<speed>2.990000</speed>
</trkpt>
<trkpt lat="42.424187" lon="18.769516">
<ele>10.818489</ele>
<time>2012-05-02T12:46:45Z</time>
<desc>lat.=42.424187, lon.=18.769516, Alt.=10.818489m. Speed=7.416000m/h.</desc>
<speed>2.060000</speed>
</trkpt>
<trkpt lat="42.424126" lon="18.769585">
<ele>10.600471</ele>
<time>2012-05-02T12:46:50Z</time>
<desc>lat.=42.424126, lon.=18.769585, Alt.=10.600471m. Speed=7.488000m/h.</desc>
<speed>2.080000</speed>
</trkpt>
<trkpt lat="42.424057" lon="18.769722">
<ele>10.798470</ele>
<time>2012-05-02T12:46:55Z</time>
<desc>lat.=42.424057, lon.=18.769722, Alt.=10.798470m. Speed=8.208000m/h.</desc>
<speed>2.280000</speed>
</trkpt>
<trkpt lat="42.424011" lon="18.769793">
<ele>10.945198</ele>
<time>2012-05-02T12:47:00Z</time>
<desc>lat.=42.424011, lon.=18.769793, Alt.=10.945198m. Speed=4.716000m/h.</desc>
<speed>1.310000</speed>
</trkpt>
<trkpt lat="42.423962" lon="18.769857">
<ele>10.883186</ele>
<time>2012-05-02T12:47:05Z</time>
<desc>lat.=42.423962, lon.=18.769857, Alt.=10.883186m. Speed=6.444000m/h.</desc>
<speed>1.790000</speed>
</trkpt>
<trkpt lat="42.423897" lon="18.769987">
<ele>10.796272</ele>
<time>2012-05-02T12:47:10Z</time>
<desc>lat.=42.423897, lon.=18.769987, Alt.=10.796272m. Speed=11.412000m/h.</desc>
<speed>3.170000</speed>
</trkpt>
<trkpt lat="42.423775" lon="18.770170">
<ele>10.887093</ele>
<time>2012-05-02T12:47:15Z</time>
<desc>lat.=42.423775, lon.=18.770170, Alt.=10.887093m. Speed=15.156000m/h.</desc>
<speed>4.210000</speed>
</trkpt>
<trkpt lat="42.423641" lon="18.770365">
<ele>10.750130</ele>
<time>2012-05-02T12:47:20Z</time>
<desc>lat.=42.423641, lon.=18.770365, Alt.=10.750130m. Speed=15.588000m/h.</desc>
<speed>4.330000</speed>
</trkpt>
<trkpt lat="42.423500" lon="18.770594">
<ele>10.664680</ele>
<time>2012-05-02T12:47:25Z</time>
<desc>lat.=42.423500, lon.=18.770594, Alt.=10.664680m. Speed=17.316000m/h.</desc>
<speed>4.810000</speed>
</trkpt>
<trkpt lat="42.423347" lon="18.770811">
<ele>10.497688</ele>
<time>2012-05-02T12:47:30Z</time>
<desc>lat.=42.423347, lon.=18.770811, Alt.=10.497688m. Speed=16.559999m/h.</desc>
<speed>4.600000</speed>
</trkpt>
<trkpt lat="42.423222" lon="18.770988">
<ele>10.368294</ele>
<time>2012-05-02T12:47:35Z</time>
<desc>lat.=42.423222, lon.=18.770988, Alt.=10.368294m. Speed=11.916000m/h.</desc>
<speed>3.310000</speed>
</trkpt>
<trkpt lat="42.423100" lon="18.771130">
<ele>10.132210</ele>
<time>2012-05-02T12:47:40Z</time>
<desc>lat.=42.423100, lon.=18.771130, Alt.=10.132210m. Speed=11.808000m/h.</desc>
<speed>3.280000</speed>
</trkpt>
<trkpt lat="42.422974" lon="18.771215">
<ele>9.826057</ele>
<time>2012-05-02T12:47:45Z</time>
<desc>lat.=42.422974, lon.=18.771215, Alt.=9.826057m. Speed=9.936000m/h.</desc>
<speed>2.760000</speed>
</trkpt>
<trkpt lat="42.422935" lon="18.771227">
<ele>9.433723</ele>
<time>2012-05-02T12:47:50Z</time>
<desc>lat.=42.422935, lon.=18.771227, Alt.=9.433723m. Speed=0.720000m/h.</desc>
<speed>0.200000</speed>
</trkpt>
<trkpt lat="42.422932" lon="18.771227">
<ele>9.339241</ele>
<time>2012-05-02T12:47:55Z</time>
<desc>lat.=42.422932, lon.=18.771227, Alt.=9.339241m. Speed=0.072000m/h.</desc>
<speed>0.020000</speed>
</trkpt>
<trkpt lat="42.422932" lon="18.771227">
<ele>9.308479</ele>
<time>2012-05-02T12:48:00Z</time>
<desc>lat.=42.422932, lon.=18.771227, Alt.=9.308479m. Speed=0.036000m/h.</desc>
<speed>0.010000</speed>
</trkpt>
<trkpt lat="42.422932" lon="18.771227">
<ele>9.305550</ele>
<time>2012-05-02T12:48:05Z</time>
<desc>lat.=42.422932, lon.=18.771227, Alt.=9.305550m. Speed=0.036000m/h.</desc>
<speed>0.010000</speed>
</trkpt>
<trkpt lat="42.422932" lon="18.771229">
<ele>9.305061</ele>
<time>2012-05-02T12:48:10Z</time>
<desc>lat.=42.422932, lon.=18.771229, Alt.=9.305061m. Speed=0.000000m/h.</desc>
<speed>0.000000</speed>
</trkpt>
<trkpt lat="42.422932" lon="18.771227">
<ele>9.285286</ele>
<time>2012-05-02T12:48:15Z</time>
<desc>lat.=42.422932, lon.=18.771227, Alt.=9.285286m. Speed=0.180000m/h.</desc>
<speed>0.050000</speed>
</trkpt>
<trkpt lat="42.422932" lon="18.771227">
<ele>9.279427</ele>
<time>2012-05-02T12:48:20Z</time>
<desc>lat.=42.422932, lon.=18.771227, Alt.=9.279427m. Speed=1.152000m/h.</desc>
<speed>0.320000</speed>
</trkpt>
<trkpt lat="42.422928" lon="18.771225">
<ele>9.272346</ele>
<time>2012-05-02T12:48:25Z</time>
<desc>lat.=42.422928, lon.=18.771225, Alt.=9.272346m. Speed=0.720000m/h.</desc>
<speed>0.200000</speed>
</trkpt>
<trkpt lat="42.422920" lon="18.771219">
<ele>9.280403</ele>
<time>2012-05-02T12:48:30Z</time>
<desc>lat.=42.422920, lon.=18.771219, Alt.=9.280403m. Speed=1.836000m/h.</desc>
<speed>0.510000</speed>
</trkpt>
<trkpt lat="42.422913" lon="18.771204">
<ele>9.284309</ele>
<time>2012-05-02T12:48:35Z</time>
<desc>lat.=42.422913, lon.=18.771204, Alt.=9.284309m. Speed=0.720000m/h.</desc>
<speed>0.200000</speed>
</trkpt>
<trkpt lat="42.422905" lon="18.771202">
<ele>9.276985</ele>
<time>2012-05-02T12:48:40Z</time>
<desc>lat.=42.422905, lon.=18.771202, Alt.=9.276985m. Speed=0.036000m/h.</desc>
<speed>0.010000</speed>
</trkpt>
<trkpt lat="42.422905" lon="18.771202">
<ele>9.286263</ele>
<time>2012-05-02T12:48:45Z</time>
<desc>lat.=42.422905, lon.=18.771202, Alt.=9.286263m. Speed=0.036000m/h.</desc>
<speed>0.010000</speed>
</trkpt>
<trkpt lat="42.422905" lon="18.771204">
<ele>9.301155</ele>
<time>2012-05-02T12:48:50Z</time>
<desc>lat.=42.422905, lon.=18.771204, Alt.=9.301155m. Speed=0.396000m/h.</desc>
<speed>0.110000</speed>
</trkpt>
<trkpt lat="42.422916" lon="18.771204">
<ele>9.321663</ele>
<time>2012-05-02T12:48:55Z</time>
<desc>lat.=42.422916, lon.=18.771204, Alt.=9.321663m. Speed=2.340000m/h.</desc>
<speed>0.650000</speed>
</trkpt>
<trkpt lat="42.423004" lon="18.771170">
<ele>9.474251</ele>
<time>2012-05-02T12:49:00Z</time>
<desc>lat.=42.423004, lon.=18.771170, Alt.=9.474251m. Speed=12.204000m/h.</desc>
<speed>3.390000</speed>
</trkpt>
<trkpt lat="42.423168" lon="18.771051">
<ele>9.924690</ele>
<time>2012-05-02T12:49:05Z</time>
<desc>lat.=42.423168, lon.=18.771051, Alt.=9.924690m. Speed=16.955999m/h.</desc>
<speed>4.710000</speed>
</trkpt>
<trkpt lat="42.423351" lon="18.770838">
<ele>10.695442</ele>
<time>2012-05-02T12:49:10Z</time>
<desc>lat.=42.423351, lon.=18.770838, Alt.=10.695442m. Speed=15.624000m/h.</desc>
<speed>4.340000</speed>
</trkpt>
<trkpt lat="42.423492" lon="18.770628">
<ele>11.329475</ele>
<time>2012-05-02T12:49:15Z</time>
<desc>lat.=42.423492, lon.=18.770628, Alt.=11.329475m. Speed=14.148000m/h.</desc>
<speed>3.930000</speed>
</trkpt>
<trkpt lat="42.423634" lon="18.770456">
<ele>11.773811</ele>
<time>2012-05-02T12:49:20Z</time>
<desc>lat.=42.423634, lon.=18.770456, Alt.=11.773811m. Speed=13.104000m/h.</desc>
<speed>3.640000</speed>
</trkpt>
<trkpt lat="42.423721" lon="18.770285">
<ele>11.481331</ele>
<time>2012-05-02T12:49:25Z</time>
<desc>lat.=42.423721, lon.=18.770285, Alt.=11.481331m. Speed=13.392000m/h.</desc>
<speed>3.720000</speed>
</trkpt>
<trkpt lat="42.423820" lon="18.770113">
<ele>11.167122</ele>
<time>2012-05-02T12:49:30Z</time>
<desc>lat.=42.423820, lon.=18.770113, Alt.=11.167122m. Speed=12.348000m/h.</desc>
<speed>3.430000</speed>
</trkpt>
<trkpt lat="42.423962" lon="18.769926">
<ele>11.555061</ele>
<time>2012-05-02T12:49:35Z</time>
<desc>lat.=42.423962, lon.=18.769926, Alt.=11.555061m. Speed=13.680000m/h.</desc>
<speed>3.800000</speed>
</trkpt>
<trkpt lat="42.424049" lon="18.769783">
<ele>9.507210</ele>
<time>2012-05-02T12:49:40Z</time>
<desc>lat.=42.424049, lon.=18.769783, Alt.=9.507210m. Speed=9.072000m/h.</desc>
<speed>2.520000</speed>
</trkpt>
<trkpt lat="42.424133" lon="18.769651">
<ele>10.344856</ele>
<time>2012-05-02T12:49:45Z</time>
<desc>lat.=42.424133, lon.=18.769651, Alt.=10.344856m. Speed=10.836000m/h.</desc>
<speed>3.010000</speed>
</trkpt>
<trkpt lat="42.424202" lon="18.769545">
<ele>11.159309</ele>
<time>2012-05-02T12:49:50Z</time>
<desc>lat.=42.424202, lon.=18.769545, Alt.=11.159309m. Speed=6.192000m/h.</desc>
<speed>1.720000</speed>
</trkpt>
<trkpt lat="42.424236" lon="18.769537">
<ele>12.021370</ele>
<time>2012-05-02T12:49:55Z</time>
<desc>lat.=42.424236, lon.=18.769537, Alt.=12.021370m. Speed=3.528000m/h.</desc>
<speed>0.980000</speed>
</trkpt>
<trkpt lat="42.424290" lon="18.769493">
<ele>13.192757</ele>
<time>2012-05-02T12:50:00Z</time>
<desc>lat.=42.424290, lon.=18.769493, Alt.=13.192757m. Speed=8.280000m/h.</desc>
<speed>2.300000</speed>
</trkpt>
<trkpt lat="42.424343" lon="18.769409">
<ele>14.418343</ele>
<time>2012-05-02T12:50:05Z</time>
<desc>lat.=42.424343, lon.=18.769409, Alt.=14.418343m. Speed=6.876000m/h.</desc>
<speed>1.910000</speed>
</trkpt>
<trkpt lat="42.424435" lon="18.769379">
<ele>15.717415</ele>
<time>2012-05-02T12:50:10Z</time>
<desc>lat.=42.424435, lon.=18.769379, Alt.=15.717415m. Speed=5.004000m/h.</desc>
<speed>1.390000</speed>
</trkpt>
<trkpt lat="42.424454" lon="18.769369">
<ele>16.787857</ele>
<time>2012-05-02T12:50:15Z</time>
<desc>lat.=42.424454, lon.=18.769369, Alt.=16.787857m. Speed=1.908000m/h.</desc>
<speed>0.530000</speed>
</trkpt>
<trkpt lat="42.424519" lon="18.769430">
<ele>17.951431</ele>
<time>2012-05-02T12:50:20Z</time>
<desc>lat.=42.424519, lon.=18.769430, Alt.=17.951431m. Speed=6.084000m/h.</desc>
<speed>1.690000</speed>
</trkpt>
<trkpt lat="42.424656" lon="18.769558">
<ele>19.145279</ele>
<time>2012-05-02T12:50:25Z</time>
<desc>lat.=42.424656, lon.=18.769558, Alt.=19.145279m. Speed=11.412000m/h.</desc>
<speed>3.170000</speed>
</trkpt>
<trkpt lat="42.424725" lon="18.769636">
<ele>20.408463</ele>
<time>2012-05-02T12:50:30Z</time>
<desc>lat.=42.424725, lon.=18.769636, Alt.=20.408463m. Speed=3.960000m/h.</desc>
<speed>1.100000</speed>
</trkpt>
<trkpt lat="42.424770" lon="18.769672">
<ele>21.582291</ele>
<time>2012-05-02T12:50:35Z</time>
<desc>lat.=42.424770, lon.=18.769672, Alt.=21.582291m. Speed=2.772000m/h.</desc>
<speed>0.770000</speed>
</trkpt>
<trkpt lat="42.424755" lon="18.769724">
<ele>22.635513</ele>
<time>2012-05-02T12:50:40Z</time>
<desc>lat.=42.424755, lon.=18.769724, Alt.=22.635513m. Speed=1.728000m/h.</desc>
<speed>0.480000</speed>
</trkpt>
<trkpt lat="42.424789" lon="18.769766">
<ele>23.667740</ele>
<time>2012-05-02T12:50:45Z</time>
<desc>lat.=42.424789, lon.=18.769766, Alt.=23.667740m. Speed=3.924000m/h.</desc>
<speed>1.090000</speed>
</trkpt>
<trkpt lat="42.424679" lon="18.769793">
<ele>24.614517</ele>
<time>2012-05-02T12:50:50Z</time>
<desc>lat.=42.424679, lon.=18.769793, Alt.=24.614517m. Speed=8.892000m/h.</desc>
<speed>2.470000</speed>
</trkpt>
<trkpt lat="42.424641" lon="18.769876">
<ele>25.600357</ele>
<time>2012-05-02T12:50:55Z</time>
<desc>lat.=42.424641, lon.=18.769876, Alt.=25.600357m. Speed=3.096000m/h.</desc>
<speed>0.860000</speed>
</trkpt>
<trkpt lat="42.424679" lon="18.769983">
<ele>26.652115</ele>
<time>2012-05-02T12:51:00Z</time>
<desc>lat.=42.424679, lon.=18.769983, Alt.=26.652115m. Speed=5.832000m/h.</desc>
<speed>1.620000</speed>
</trkpt>
<trkpt lat="42.424683" lon="18.770065">
<ele>27.532974</ele>
<time>2012-05-02T12:51:05Z</time>
<desc>lat.=42.424683, lon.=18.770065, Alt.=27.532974m. Speed=5.904000m/h.</desc>
<speed>1.640000</speed>
</trkpt>
<trkpt lat="42.424694" lon="18.770172">
<ele>28.483170</ele>
<time>2012-05-02T12:51:10Z</time>
<desc>lat.=42.424694, lon.=18.770172, Alt.=28.483170m. Speed=5.868000m/h.</desc>
<speed>1.630000</speed>
</trkpt>
<trkpt lat="42.424599" lon="18.770262">
<ele>29.464127</ele>
<time>2012-05-02T12:51:15Z</time>
<desc>lat.=42.424599, lon.=18.770262, Alt.=29.464127m. Speed=9.000000m/h.</desc>
<speed>2.500000</speed>
</trkpt>
<trkpt lat="42.424522" lon="18.770393">
<ele>30.473404</ele>
<time>2012-05-02T12:51:20Z</time>
<desc>lat.=42.424522, lon.=18.770393, Alt.=30.473404m. Speed=7.524000m/h.</desc>
<speed>2.090000</speed>
</trkpt>
<trkpt lat="42.424469" lon="18.770554">
<ele>31.433853</ele>
<time>2012-05-02T12:51:25Z</time>
<desc>lat.=42.424469, lon.=18.770554, Alt.=31.433853m. Speed=8.892000m/h.</desc>
<speed>2.470000</speed>
</trkpt>
<trkpt lat="42.424408" lon="18.770622">
<ele>32.437042</ele>
<time>2012-05-02T12:51:30Z</time>
<desc>lat.=42.424408, lon.=18.770622, Alt.=32.437042m. Speed=6.408000m/h.</desc>
<speed>1.780000</speed>
</trkpt>
<trkpt lat="42.424316" lon="18.770594">
<ele>33.365753</ele>
<time>2012-05-02T12:51:35Z</time>
<desc>lat.=42.424316, lon.=18.770594, Alt.=33.365753m. Speed=6.552000m/h.</desc>
<speed>1.820000</speed>
</trkpt>
<trkpt lat="42.424313" lon="18.770632">
<ele>34.252472</ele>
<time>2012-05-02T12:51:40Z</time>
<desc>lat.=42.424313, lon.=18.770632, Alt.=34.252472m. Speed=0.900000m/h.</desc>
<speed>0.250000</speed>
</trkpt>
<trkpt lat="42.424232" lon="18.770634">
<ele>34.813995</ele>
<time>2012-05-02T12:51:45Z</time>
<desc>lat.=42.424232, lon.=18.770634, Alt.=34.813995m. Speed=3.744000m/h.</desc>
<speed>1.040000</speed>
</trkpt>
<trkpt lat="42.424175" lon="18.770622">
<ele>35.456573</ele>
<time>2012-05-02T12:51:50Z</time>
<desc>lat.=42.424175, lon.=18.770622, Alt.=35.456573m. Speed=2.340000m/h.</desc>
<speed>0.650000</speed>
</trkpt>
<trkpt lat="42.424122" lon="18.770578">
<ele>36.025909</ele>
<time>2012-05-02T12:51:55Z</time>
<desc>lat.=42.424122, lon.=18.770578, Alt.=36.025909m. Speed=5.400000m/h.</desc>
<speed>1.500000</speed>
</trkpt>
<trkpt lat="42.424088" lon="18.770576">
<ele>36.582550</ele>
<time>2012-05-02T12:52:00Z</time>
<desc>lat.=42.424088, lon.=18.770576, Alt.=36.582550m. Speed=1.728000m/h.</desc>
<speed>0.480000</speed>
</trkpt>
<trkpt lat="42.424198" lon="18.770569">
<ele>37.105988</ele>
<time>2012-05-02T12:52:05Z</time>
<desc>lat.=42.424198, lon.=18.770569, Alt.=37.105988m. Speed=2.448000m/h.</desc>
<speed>0.680000</speed>
</trkpt>
<trkpt lat="42.424179" lon="18.770611">
<ele>37.490753</ele>
<time>2012-05-02T12:52:10Z</time>
<desc>lat.=42.424179, lon.=18.770611, Alt.=37.490753m. Speed=4.032000m/h.</desc>
<speed>1.120000</speed>
</trkpt>
<trkpt lat="42.424198" lon="18.770641">
<ele>37.832550</ele>
<time>2012-05-02T12:52:15Z</time>
<desc>lat.=42.424198, lon.=18.770641, Alt.=37.832550m. Speed=2.124000m/h.</desc>
<speed>0.590000</speed>
</trkpt>
<trkpt lat="42.424133" lon="18.770624">
<ele>38.051300</ele>
<time>2012-05-02T12:52:20Z</time>
<desc>lat.=42.424133, lon.=18.770624, Alt.=38.051300m. Speed=0.396000m/h.</desc>
<speed>0.110000</speed>
</trkpt>
<trkpt lat="42.424068" lon="18.770615">
<ele>38.207550</ele>
<time>2012-05-02T12:52:25Z</time>
<desc>lat.=42.424068, lon.=18.770615, Alt.=38.207550m. Speed=2.016000m/h.</desc>
<speed>0.560000</speed>
</trkpt>
<trkpt lat="42.424171" lon="18.770683">
<ele>38.351105</ele>
<time>2012-05-02T12:52:30Z</time>
<desc>lat.=42.424171, lon.=18.770683, Alt.=38.351105m. Speed=5.184000m/h.</desc>
<speed>1.440000</speed>
</trkpt>
<trkpt lat="42.424267" lon="18.770781">
<ele>38.457550</ele>
<time>2012-05-02T12:52:35Z</time>
<desc>lat.=42.424267, lon.=18.770781, Alt.=38.457550m. Speed=3.456000m/h.</desc>
<speed>0.960000</speed>
</trkpt>
<trkpt lat="42.424335" lon="18.770813">
<ele>38.537628</ele>
<time>2012-05-02T12:52:40Z</time>
<desc>lat.=42.424335, lon.=18.770813, Alt.=38.537628m. Speed=4.320000m/h.</desc>
<speed>1.200000</speed>
</trkpt>
<trkpt lat="42.424454" lon="18.770962">
<ele>39.962433</ele>
<time>2012-05-02T12:52:45Z</time>
<desc>lat.=42.424454, lon.=18.770962, Alt.=39.962433m. Speed=9.180000m/h.</desc>
<speed>2.550000</speed>
</trkpt>
<trkpt lat="42.424347" lon="18.770985">
<ele>40.136261</ele>
<time>2012-05-02T12:52:50Z</time>
<desc>lat.=42.424347, lon.=18.770985, Alt.=40.136261m. Speed=3.528000m/h.</desc>
<speed>0.980000</speed>
</trkpt>
<trkpt lat="42.424320" lon="18.770985">
<ele>41.017120</ele>
<time>2012-05-02T12:52:55Z</time>
<desc>lat.=42.424320, lon.=18.770985, Alt.=41.017120m. Speed=1.368000m/h.</desc>
<speed>0.380000</speed>
</trkpt>
<trkpt lat="42.424255" lon="18.770998">
<ele>41.474152</ele>
<time>2012-05-02T12:53:00Z</time>
<desc>lat.=42.424255, lon.=18.770998, Alt.=41.474152m. Speed=1.008000m/h.</desc>
<speed>0.280000</speed>
</trkpt>
<trkpt lat="42.424126" lon="18.770937">
<ele>41.480988</ele>
<time>2012-05-02T12:53:05Z</time>
<desc>lat.=42.424126, lon.=18.770937, Alt.=41.480988m. Speed=6.732000m/h.</desc>
<speed>1.870000</speed>
</trkpt>
<trkpt lat="42.424141" lon="18.770948">
<ele>40.098175</ele>
<time>2012-05-02T12:53:10Z</time>
<desc>lat.=42.424141, lon.=18.770948, Alt.=40.098175m. Speed=9.864000m/h.</desc>
<speed>2.740000</speed>
</trkpt>
<trkpt lat="42.424118" lon="18.770987">
<ele>34.769073</ele>
<time>2012-05-02T12:53:15Z</time>
<desc>lat.=42.424118, lon.=18.770987, Alt.=34.769073m. Speed=6.696000m/h.</desc>
<speed>1.860000</speed>
</trkpt>
<trkpt lat="42.424225" lon="18.770985">
<ele>32.581573</ele>
<time>2012-05-02T12:53:20Z</time>
<desc>lat.=42.424225, lon.=18.770985, Alt.=32.581573m. Speed=2.448000m/h.</desc>
<speed>0.680000</speed>
</trkpt>
<trkpt lat="42.424160" lon="18.770981">
<ele>31.535904</ele>
<time>2012-05-02T12:53:25Z</time>
<desc>lat.=42.424160, lon.=18.770981, Alt.=31.535904m. Speed=0.648000m/h.</desc>
<speed>0.180000</speed>
</trkpt>
<trkpt lat="42.424171" lon="18.771038">
<ele>30.745377</ele>
<time>2012-05-02T12:53:30Z</time>
<desc>lat.=42.424171, lon.=18.771038, Alt.=30.745377m. Speed=2.376000m/h.</desc>
<speed>0.660000</speed>
</trkpt>
<trkpt lat="42.424175" lon="18.771086">
<ele>29.142349</ele>
<time>2012-05-02T12:53:35Z</time>
<desc>lat.=42.424175, lon.=18.771086, Alt.=29.142349m. Speed=0.936000m/h.</desc>
<speed>0.260000</speed>
</trkpt>
<trkpt lat="42.424149" lon="18.771120">
<ele>28.136490</ele>
<time>2012-05-02T12:53:40Z</time>
<desc>lat.=42.424149, lon.=18.771120, Alt.=28.136490m. Speed=3.420000m/h.</desc>
<speed>0.950000</speed>
</trkpt>
<trkpt lat="42.424152" lon="18.771128">
<ele>28.069107</ele>
<time>2012-05-02T12:53:45Z</time>
<desc>lat.=42.424152, lon.=18.771128, Alt.=28.069107m. Speed=2.304000m/h.</desc>
<speed>0.640000</speed>
</trkpt>
<trkpt lat="42.424198" lon="18.771132">
<ele>26.996353</ele>
<time>2012-05-02T12:53:50Z</time>
<desc>lat.=42.424198, lon.=18.771132, Alt.=26.996353m. Speed=2.016000m/h.</desc>
<speed>0.560000</speed>
</trkpt>
<trkpt lat="42.424206" lon="18.771124">
<ele>25.102310</ele>
<time>2012-05-02T12:53:55Z</time>
<desc>lat.=42.424206, lon.=18.771124, Alt.=25.102310m. Speed=0.252000m/h.</desc>
<speed>0.070000</speed>
</trkpt>
<trkpt lat="42.424187" lon="18.771132">
<ele>24.307388</ele>
<time>2012-05-02T12:54:00Z</time>
<desc>lat.=42.424187, lon.=18.771132, Alt.=24.307388m. Speed=0.072000m/h.</desc>
<speed>0.020000</speed>
</trkpt>
<trkpt lat="42.424133" lon="18.771149">
<ele>25.094009</ele>
<time>2012-05-02T12:54:05Z</time>
<desc>lat.=42.424133, lon.=18.771149, Alt.=25.094009m. Speed=1.800000m/h.</desc>
<speed>0.500000</speed>
</trkpt>
<trkpt lat="42.424103" lon="18.771103">
<ele>25.728775</ele>
<time>2012-05-02T12:54:10Z</time>
<desc>lat.=42.424103, lon.=18.771103, Alt.=25.728775m. Speed=1.224000m/h.</desc>
<speed>0.340000</speed>
</trkpt>
<trkpt lat="42.424152" lon="18.771093">
<ele>26.599380</ele>
<time>2012-05-02T12:54:15Z</time>
<desc>lat.=42.424152, lon.=18.771093, Alt.=26.599380m. Speed=3.456000m/h.</desc>
<speed>0.960000</speed>
</trkpt>
<trkpt lat="42.424133" lon="18.771111">
<ele>25.762955</ele>
<time>2012-05-02T12:54:20Z</time>
<desc>lat.=42.424133, lon.=18.771111, Alt.=25.762955m. Speed=0.144000m/h.</desc>
<speed>0.040000</speed>
</trkpt>
<trkpt lat="42.424141" lon="18.771166">
<ele>25.344009</ele>
<time>2012-05-02T12:54:25Z</time>
<desc>lat.=42.424141, lon.=18.771166, Alt.=25.344009m. Speed=1.548000m/h.</desc>
<speed>0.430000</speed>
</trkpt>
<trkpt lat="42.424110" lon="18.771198">
<ele>25.178482</ele>
<time>2012-05-02T12:54:30Z</time>
<desc>lat.=42.424110, lon.=18.771198, Alt.=25.178482m. Speed=0.720000m/h.</desc>
<speed>0.200000</speed>
</trkpt>
<trkpt lat="42.424103" lon="18.771200">
<ele>24.378677</ele>
<time>2012-05-02T12:54:35Z</time>
<desc>lat.=42.424103, lon.=18.771200, Alt.=24.378677m. Speed=1.908000m/h.</desc>
<speed>0.530000</speed>
</trkpt>
<trkpt lat="42.424141" lon="18.771235">
<ele>23.582779</ele>
<time>2012-05-02T12:54:40Z</time>
<desc>lat.=42.424141, lon.=18.771235, Alt.=23.582779m. Speed=4.788000m/h.</desc>
<speed>1.330000</speed>
</trkpt>
<trkpt lat="42.424164" lon="18.771238">
<ele>24.375748</ele>
<time>2012-05-02T12:54:45Z</time>
<desc>lat.=42.424164, lon.=18.771238, Alt.=24.375748m. Speed=2.340000m/h.</desc>
<speed>0.650000</speed>
</trkpt>
<trkpt lat="42.424171" lon="18.771206">
<ele>23.777603</ele>
<time>2012-05-02T12:54:50Z</time>
<desc>lat.=42.424171, lon.=18.771206, Alt.=23.777603m. Speed=2.592000m/h.</desc>
<speed>0.720000</speed>
</trkpt>
<trkpt lat="42.424168" lon="18.771187">
<ele>23.398209</ele>
<time>2012-05-02T12:54:55Z</time>
<desc>lat.=42.424168, lon.=18.771187, Alt.=23.398209m. Speed=0.612000m/h.</desc>
<speed>0.170000</speed>
</trkpt>
<trkpt lat="42.424141" lon="18.771215">
<ele>23.204361</ele>
<time>2012-05-02T12:55:00Z</time>
<desc>lat.=42.424141, lon.=18.771215, Alt.=23.204361m. Speed=1.008000m/h.</desc>
<speed>0.280000</speed>
</trkpt>
<trkpt lat="42.424110" lon="18.771202">
<ele>23.202408</ele>
<time>2012-05-02T12:55:05Z</time>
<desc>lat.=42.424110, lon.=18.771202, Alt.=23.202408m. Speed=0.432000m/h.</desc>
<speed>0.120000</speed>
</trkpt>
<trkpt lat="42.424152" lon="18.771177">
<ele>22.299576</ele>
<time>2012-05-02T12:55:10Z</time>
<desc>lat.=42.424152, lon.=18.771177, Alt.=22.299576m. Speed=3.456000m/h.</desc>
<speed>0.960000</speed>
</trkpt>
<trkpt lat="42.424156" lon="18.771166">
<ele>21.791763</ele>
<time>2012-05-02T12:55:15Z</time>
<desc>lat.=42.424156, lon.=18.771166, Alt.=21.791763m. Speed=1.656000m/h.</desc>
<speed>0.460000</speed>
</trkpt>
<trkpt lat="42.424156" lon="18.771162">
<ele>21.294693</ele>
<time>2012-05-02T12:55:20Z</time>
<desc>lat.=42.424156, lon.=18.771162, Alt.=21.294693m. Speed=1.548000m/h.</desc>
<speed>0.430000</speed>
</trkpt>
<trkpt lat="42.424164" lon="18.771168">
<ele>21.344986</ele>
<time>2012-05-02T12:55:25Z</time>
<desc>lat.=42.424164, lon.=18.771168, Alt.=21.344986m. Speed=0.216000m/h.</desc>
<speed>0.060000</speed>
</trkpt>
<trkpt lat="42.424179" lon="18.771193">
<ele>21.451920</ele>
<time>2012-05-02T12:55:30Z</time>
<desc>lat.=42.424179, lon.=18.771193, Alt.=21.451920m. Speed=2.484000m/h.</desc>
<speed>0.690000</speed>
</trkpt>
<trkpt lat="42.424175" lon="18.771189">
<ele>21.394302</ele>
<time>2012-05-02T12:55:35Z</time>
<desc>lat.=42.424175, lon.=18.771189, Alt.=21.394302m. Speed=1.332000m/h.</desc>
<speed>0.370000</speed>
</trkpt>
<trkpt lat="42.424191" lon="18.771179">
<ele>21.526627</ele>
<time>2012-05-02T12:55:40Z</time>
<desc>lat.=42.424191, lon.=18.771179, Alt.=21.526627m. Speed=1.260000m/h.</desc>
<speed>0.350000</speed>
</trkpt>
<trkpt lat="42.424175" lon="18.771189">
<ele>21.578873</ele>
<time>2012-05-02T12:55:45Z</time>
<desc>lat.=42.424175, lon.=18.771189, Alt.=21.578873m. Speed=0.504000m/h.</desc>
<speed>0.140000</speed>
</trkpt>
<trkpt lat="42.424164" lon="18.771170">
<ele>21.952896</ele>
<time>2012-05-02T12:55:50Z</time>
<desc>lat.=42.424164, lon.=18.771170, Alt.=21.952896m. Speed=0.756000m/h.</desc>
<speed>0.210000</speed>
</trkpt>
<trkpt lat="42.424156" lon="18.771191">
<ele>22.776627</ele>
<time>2012-05-02T12:55:55Z</time>
<desc>lat.=42.424156, lon.=18.771191, Alt.=22.776627m. Speed=0.828000m/h.</desc>
<speed>0.230000</speed>
</trkpt>
<trkpt lat="42.424164" lon="18.771185">
<ele>22.629654</ele>
<time>2012-05-02T12:56:00Z</time>
<desc>lat.=42.424164, lon.=18.771185, Alt.=22.629654m. Speed=1.224000m/h.</desc>
<speed>0.340000</speed>
</trkpt>
<trkpt lat="42.424175" lon="18.771198">
<ele>22.715591</ele>
<time>2012-05-02T12:56:05Z</time>
<desc>lat.=42.424175, lon.=18.771198, Alt.=22.715591m. Speed=1.260000m/h.</desc>
<speed>0.350000</speed>
</trkpt>
<trkpt lat="42.424198" lon="18.771235">
<ele>22.662857</ele>
<time>2012-05-02T12:56:10Z</time>
<desc>lat.=42.424198, lon.=18.771235, Alt.=22.662857m. Speed=0.072000m/h.</desc>
<speed>0.020000</speed>
</trkpt>
<trkpt lat="42.424202" lon="18.771238">
<ele>22.583267</ele>
<time>2012-05-02T12:56:15Z</time>
<desc>lat.=42.424202, lon.=18.771238, Alt.=22.583267m. Speed=0.828000m/h.</desc>
<speed>0.230000</speed>
</trkpt>
<trkpt lat="42.424198" lon="18.771238">
<ele>22.497330</ele>
<time>2012-05-02T12:56:20Z</time>
<desc>lat.=42.424198, lon.=18.771238, Alt.=22.497330m. Speed=0.252000m/h.</desc>
<speed>0.070000</speed>
</trkpt>
<trkpt lat="42.424198" lon="18.771236">
<ele>22.443130</ele>
<time>2012-05-02T12:56:25Z</time>
<desc>lat.=42.424198, lon.=18.771236, Alt.=22.443130m. Speed=0.144000m/h.</desc>
<speed>0.040000</speed>
</trkpt>
<trkpt lat="42.424198" lon="18.771240">
<ele>22.401138</ele>
<time>2012-05-02T12:56:30Z</time>
<desc>lat.=42.424198, lon.=18.771240, Alt.=22.401138m. Speed=0.432000m/h.</desc>
<speed>0.120000</speed>
</trkpt>
<trkpt lat="42.424198" lon="18.771242">
<ele>22.386002</ele>
<time>2012-05-02T12:56:35Z</time>
<desc>lat.=42.424198, lon.=18.771242, Alt.=22.386002m. Speed=0.828000m/h.</desc>
<speed>0.230000</speed>
</trkpt>
<trkpt lat="42.424202" lon="18.771233">
<ele>22.380630</ele>
<time>2012-05-02T12:56:40Z</time>
<desc>lat.=42.424202, lon.=18.771233, Alt.=22.380630m. Speed=0.540000m/h.</desc>
<speed>0.150000</speed>
</trkpt>
<trkpt lat="42.424191" lon="18.771227">
<ele>22.374283</ele>
<time>2012-05-02T12:56:45Z</time>
<desc>lat.=42.424191, lon.=18.771227, Alt.=22.374283m. Speed=0.828000m/h.</desc>
<speed>0.230000</speed>
</trkpt>
<trkpt lat="42.424168" lon="18.771194">
<ele>22.069595</ele>
<time>2012-05-02T12:56:50Z</time>
<desc>lat.=42.424168, lon.=18.771194, Alt.=22.069595m. Speed=1.152000m/h.</desc>
<speed>0.320000</speed>
</trkpt>
<trkpt lat="42.424145" lon="18.771194">
<ele>21.768814</ele>
<time>2012-05-02T12:56:55Z</time>
<desc>lat.=42.424145, lon.=18.771194, Alt.=21.768814m. Speed=0.576000m/h.</desc>
<speed>0.160000</speed>
</trkpt>
<trkpt lat="42.424141" lon="18.771196">
<ele>21.747330</ele>
<time>2012-05-02T12:57:00Z</time>
<desc>lat.=42.424141, lon.=18.771196, Alt.=21.747330m. Speed=0.576000m/h.</desc>
<speed>0.160000</speed>
</trkpt>
<trkpt lat="42.424133" lon="18.771200">
<ele>21.720963</ele>
<time>2012-05-02T12:57:05Z</time>
<desc>lat.=42.424133, lon.=18.771200, Alt.=21.720963m. Speed=1.188000m/h.</desc>
<speed>0.330000</speed>
</trkpt>
<trkpt lat="42.424118" lon="18.771196">
<ele>21.266373</ele>
<time>2012-05-02T12:57:10Z</time>
<desc>lat.=42.424118, lon.=18.771196, Alt.=21.266373m. Speed=0.972000m/h.</desc>
<speed>0.270000</speed>
</trkpt>
<trkpt lat="42.424107" lon="18.771204">
<ele>21.204361</ele>
<time>2012-05-02T12:57:15Z</time>
<desc>lat.=42.424107, lon.=18.771204, Alt.=21.204361m. Speed=0.252000m/h.</desc>
<speed>0.070000</speed>
</trkpt>
<trkpt lat="42.424103" lon="18.771198">
<ele>21.189713</ele>
<time>2012-05-02T12:57:20Z</time>
<desc>lat.=42.424103, lon.=18.771198, Alt.=21.189713m. Speed=0.396000m/h.</desc>
<speed>0.110000</speed>
</trkpt>
<trkpt lat="42.424107" lon="18.771194">
<ele>21.182877</ele>
<time>2012-05-02T12:57:25Z</time>
<desc>lat.=42.424107, lon.=18.771194, Alt.=21.182877m. Speed=0.324000m/h.</desc>
<speed>0.090000</speed>
</trkpt>
<trkpt lat="42.424110" lon="18.771191">
<ele>21.177017</ele>
<time>2012-05-02T12:57:30Z</time>
<desc>lat.=42.424110, lon.=18.771191, Alt.=21.177017m. Speed=0.720000m/h.</desc>
<speed>0.200000</speed>
</trkpt>
<trkpt lat="42.424160" lon="18.771173">
<ele>21.057388</ele>
<time>2012-05-02T12:57:35Z</time>
<desc>lat.=42.424160, lon.=18.771173, Alt.=21.057388m. Speed=1.512000m/h.</desc>
<speed>0.420000</speed>
</trkpt>
<trkpt lat="42.424191" lon="18.771181">
<ele>21.046158</ele>
<time>2012-05-02T12:57:40Z</time>
<desc>lat.=42.424191, lon.=18.771181, Alt.=21.046158m. Speed=1.080000m/h.</desc>
<speed>0.300000</speed>
</trkpt>
<trkpt lat="42.424198" lon="18.771187">
<ele>21.056412</ele>
<time>2012-05-02T12:57:45Z</time>
<desc>lat.=42.424198, lon.=18.771187, Alt.=21.056412m. Speed=0.576000m/h.</desc>
<speed>0.160000</speed>
</trkpt>
<trkpt lat="42.424221" lon="18.771236">
<ele>21.196060</ele>
<time>2012-05-02T12:57:50Z</time>
<desc>lat.=42.424221, lon.=18.771236, Alt.=21.196060m. Speed=1.296000m/h.</desc>
<speed>0.360000</speed>
</trkpt>
<trkpt lat="42.424232" lon="18.771263">
<ele>21.140396</ele>
<time>2012-05-02T12:57:55Z</time>
<desc>lat.=42.424232, lon.=18.771263, Alt.=21.140396m. Speed=0.396000m/h.</desc>
<speed>0.110000</speed>
</trkpt>
<trkpt lat="42.424244" lon="18.771225">
<ele>21.149185</ele>
<time>2012-05-02T12:58:00Z</time>
<desc>lat.=42.424244, lon.=18.771225, Alt.=21.149185m. Speed=0.612000m/h.</desc>
<speed>0.170000</speed>
</trkpt>
<trkpt lat="42.424194" lon="18.771215">
<ele>21.148209</ele>
<time>2012-05-02T12:58:05Z</time>
<desc>lat.=42.424194, lon.=18.771215, Alt.=21.148209m. Speed=2.124000m/h.</desc>
<speed>0.590000</speed>
</trkpt>
<trkpt lat="42.424210" lon="18.771194">
<ele>21.074966</ele>
<time>2012-05-02T12:58:10Z</time>
<desc>lat.=42.424210, lon.=18.771194, Alt.=21.074966m. Speed=1.008000m/h.</desc>
<speed>0.280000</speed>
</trkpt>
<trkpt lat="42.424213" lon="18.771202">
<ele>21.122330</ele>
<time>2012-05-02T12:58:15Z</time>
<desc>lat.=42.424213, lon.=18.771202, Alt.=21.122330m. Speed=0.612000m/h.</desc>
<speed>0.170000</speed>
</trkpt>
<trkpt lat="42.424229" lon="18.771217">
<ele>21.167740</ele>
<time>2012-05-02T12:58:20Z</time>
<desc>lat.=42.424229, lon.=18.771217, Alt.=21.167740m. Speed=1.044000m/h.</desc>
<speed>0.290000</speed>
</trkpt>
<trkpt lat="42.424191" lon="18.771198">
<ele>21.104752</ele>
<time>2012-05-02T12:58:25Z</time>
<desc>lat.=42.424191, lon.=18.771198, Alt.=21.104752m. Speed=2.880000m/h.</desc>
<speed>0.800000</speed>
</trkpt>
<trkpt lat="42.424198" lon="18.771244">
<ele>20.943619</ele>
<time>2012-05-02T12:58:30Z</time>
<desc>lat.=42.424198, lon.=18.771244, Alt.=20.943619m. Speed=1.224000m/h.</desc>
<speed>0.340000</speed>
</trkpt>
<trkpt lat="42.424191" lon="18.771254">
<ele>20.842545</ele>
<time>2012-05-02T12:58:35Z</time>
<desc>lat.=42.424191, lon.=18.771254, Alt.=20.842545m. Speed=1.188000m/h.</desc>
<speed>0.330000</speed>
</trkpt>
<trkpt lat="42.424187" lon="18.771267">
<ele>20.742447</ele>
<time>2012-05-02T12:58:40Z</time>
<desc>lat.=42.424187, lon.=18.771267, Alt.=20.742447m. Speed=0.828000m/h.</desc>
<speed>0.230000</speed>
</trkpt>
<trkpt lat="42.424179" lon="18.771273">
<ele>20.738052</ele>
<time>2012-05-02T12:58:45Z</time>
<desc>lat.=42.424179, lon.=18.771273, Alt.=20.738052m. Speed=0.720000m/h.</desc>
<speed>0.200000</speed>
</trkpt>
<trkpt lat="42.424168" lon="18.771297">
<ele>20.733658</ele>
<time>2012-05-02T12:58:50Z</time>
<desc>lat.=42.424168, lon.=18.771297, Alt.=20.733658m. Speed=1.584000m/h.</desc>
<speed>0.440000</speed>
</trkpt>
<trkpt lat="42.424179" lon="18.771307">
<ele>20.694595</ele>
<time>2012-05-02T12:58:55Z</time>
<desc>lat.=42.424179, lon.=18.771307, Alt.=20.694595m. Speed=0.720000m/h.</desc>
<speed>0.200000</speed>
</trkpt>
<trkpt lat="42.424194" lon="18.771332">
<ele>20.689713</ele>
<time>2012-05-02T12:59:00Z</time>
<desc>lat.=42.424194, lon.=18.771332, Alt.=20.689713m. Speed=1.080000m/h.</desc>
<speed>0.300000</speed>
</trkpt>
<trkpt lat="42.424202" lon="18.771328">
<ele>20.511978</ele>
<time>2012-05-02T12:59:05Z</time>
<desc>lat.=42.424202, lon.=18.771328, Alt.=20.511978m. Speed=1.116000m/h.</desc>
<speed>0.310000</speed>
</trkpt>
<trkpt lat="42.424179" lon="18.771366">
<ele>20.505630</ele>
<time>2012-05-02T12:59:10Z</time>
<desc>lat.=42.424179, lon.=18.771366, Alt.=20.505630m. Speed=1.584000m/h.</desc>
<speed>0.440000</speed>
</trkpt>
<trkpt lat="42.424191" lon="18.771376">
<ele>20.469986</ele>
<time>2012-05-02T12:59:15Z</time>
<desc>lat.=42.424191, lon.=18.771376, Alt.=20.469986m. Speed=1.404000m/h.</desc>
<speed>0.390000</speed>
</trkpt>
<trkpt lat="42.424194" lon="18.771357">
<ele>20.418716</ele>
<time>2012-05-02T12:59:20Z</time>
<desc>lat.=42.424194, lon.=18.771357, Alt.=20.418716m. Speed=0.252000m/h.</desc>
<speed>0.070000</speed>
</trkpt>
<trkpt lat="42.424198" lon="18.771362">
<ele>20.420670</ele>
<time>2012-05-02T12:59:25Z</time>
<desc>lat.=42.424198, lon.=18.771362, Alt.=20.420670m. Speed=1.368000m/h.</desc>
<speed>0.380000</speed>
</trkpt>
<trkpt lat="42.424217" lon="18.771343">
<ele>20.437271</ele>
<time>2012-05-02T12:59:30Z</time>
<desc>lat.=42.424217, lon.=18.771343, Alt.=20.437271m. Speed=0.288000m/h.</desc>
<speed>0.080000</speed>
</trkpt>
<trkpt lat="42.424213" lon="18.771334">
<ele>20.418716</ele>
<time>2012-05-02T12:59:35Z</time>
<desc>lat.=42.424213, lon.=18.771334, Alt.=20.418716m. Speed=1.008000m/h.</desc>
<speed>0.280000</speed>
</trkpt>
<trkpt lat="42.424210" lon="18.771273">
<ele>20.407974</ele>
<time>2012-05-02T12:59:40Z</time>
<desc>lat.=42.424210, lon.=18.771273, Alt.=20.407974m. Speed=1.260000m/h.</desc>
<speed>0.350000</speed>
</trkpt>
<trkpt lat="42.424213" lon="18.771225">
<ele>20.316177</ele>
<time>2012-05-02T12:59:45Z</time>
<desc>lat.=42.424213, lon.=18.771225, Alt.=20.316177m. Speed=0.828000m/h.</desc>
<speed>0.230000</speed>
</trkpt>
<trkpt lat="42.424206" lon="18.771215">
<ele>20.381119</ele>
<time>2012-05-02T12:59:50Z</time>
<desc>lat.=42.424206, lon.=18.771215, Alt.=20.381119m. Speed=0.756000m/h.</desc>
<speed>0.210000</speed>
</trkpt>
<trkpt lat="42.424194" lon="18.771227">
<ele>20.375259</ele>
<time>2012-05-02T12:59:55Z</time>
<desc>lat.=42.424194, lon.=18.771227, Alt.=20.375259m. Speed=1.332000m/h.</desc>
<speed>0.370000</speed>
</trkpt>
<trkpt lat="42.424213" lon="18.771246">
<ele>20.365005</ele>
<time>2012-05-02T13:00:00Z</time>
<desc>lat.=42.424213, lon.=18.771246, Alt.=20.365005m. Speed=0.756000m/h.</desc>
<speed>0.210000</speed>
</trkpt>
<trkpt lat="42.424206" lon="18.771257">
<ele>20.380630</ele>
<time>2012-05-02T13:00:05Z</time>
<desc>lat.=42.424206, lon.=18.771257, Alt.=20.380630m. Speed=0.864000m/h.</desc>
<speed>0.240000</speed>
</trkpt>
<trkpt lat="42.424240" lon="18.771290">
<ele>20.543228</ele>
<time>2012-05-02T13:00:10Z</time>
<desc>lat.=42.424240, lon.=18.771290, Alt.=20.543228m. Speed=0.900000m/h.</desc>
<speed>0.250000</speed>
</trkpt>
<trkpt lat="42.424229" lon="18.771313">
<ele>20.663345</ele>
<time>2012-05-02T13:00:15Z</time>
<desc>lat.=42.424229, lon.=18.771313, Alt.=20.663345m. Speed=0.396000m/h.</desc>
<speed>0.110000</speed>
</trkpt>
<trkpt lat="42.424229" lon="18.771317">
<ele>20.664810</ele>
<time>2012-05-02T13:00:20Z</time>
<desc>lat.=42.424229, lon.=18.771317, Alt.=20.664810m. Speed=1.044000m/h.</desc>
<speed>0.290000</speed>
</trkpt>
<trkpt lat="42.424274" lon="18.771358">
<ele>20.612076</ele>
<time>2012-05-02T13:00:25Z</time>
<desc>lat.=42.424274, lon.=18.771358, Alt.=20.612076m. Speed=3.024000m/h.</desc>
<speed>0.840000</speed>
</trkpt>
<trkpt lat="42.424232" lon="18.771399">
<ele>20.498795</ele>
<time>2012-05-02T13:00:30Z</time>
<desc>lat.=42.424232, lon.=18.771399, Alt.=20.498795m. Speed=3.996000m/h.</desc>
<speed>1.110000</speed>
</trkpt>
<trkpt lat="42.424244" lon="18.771540">
<ele>20.457779</ele>
<time>2012-05-02T13:00:35Z</time>
<desc>lat.=42.424244, lon.=18.771540, Alt.=20.457779m. Speed=0.936000m/h.</desc>
<speed>0.260000</speed>
</trkpt>
<trkpt lat="42.424164" lon="18.771658">
<ele>20.637955</ele>
<time>2012-05-02T13:00:40Z</time>
<desc>lat.=42.424164, lon.=18.771658, Alt.=20.637955m. Speed=14.652000m/h.</desc>
<speed>4.070000</speed>
</trkpt>
<trkpt lat="42.424202" lon="18.771742">
<ele>20.895279</ele>
<time>2012-05-02T13:00:45Z</time>
<desc>lat.=42.424202, lon.=18.771742, Alt.=20.895279m. Speed=5.256000m/h.</desc>
<speed>1.460000</speed>
</trkpt>
<trkpt lat="42.424210" lon="18.771832">
<ele>21.031021</ele>
<time>2012-05-02T13:00:50Z</time>
<desc>lat.=42.424210, lon.=18.771832, Alt.=21.031021m. Speed=2.916000m/h.</desc>
<speed>0.810000</speed>
</trkpt>
<trkpt lat="42.424271" lon="18.771881">
<ele>21.752701</ele>
<time>2012-05-02T13:00:55Z</time>
<desc>lat.=42.424271, lon.=18.771881, Alt.=21.752701m. Speed=2.196000m/h.</desc>
<speed>0.610000</speed>
</trkpt>
<trkpt lat="42.424316" lon="18.771898">
<ele>22.590591</ele>
<time>2012-05-02T13:01:00Z</time>
<desc>lat.=42.424316, lon.=18.771898, Alt.=22.590591m. Speed=1.188000m/h.</desc>
<speed>0.330000</speed>
</trkpt>
<trkpt lat="42.424404" lon="18.771873">
<ele>22.772232</ele>
<time>2012-05-02T13:01:05Z</time>
<desc>lat.=42.424404, lon.=18.771873, Alt.=22.772232m. Speed=1.152000m/h.</desc>
<speed>0.320000</speed>
</trkpt>
<trkpt lat="42.424419" lon="18.771870">
<ele>23.063736</ele>
<time>2012-05-02T13:01:10Z</time>
<desc>lat.=42.424419, lon.=18.771870, Alt.=23.063736m. Speed=0.648000m/h.</desc>
<speed>0.180000</speed>
</trkpt>
<trkpt lat="42.424427" lon="18.771870">
<ele>23.190201</ele>
<time>2012-05-02T13:01:15Z</time>
<desc>lat.=42.424427, lon.=18.771870, Alt.=23.190201m. Speed=1.692000m/h.</desc>
<speed>0.470000</speed>
</trkpt>
<trkpt lat="42.424458" lon="18.771820">
<ele>23.174088</ele>
<time>2012-05-02T13:01:20Z</time>
<desc>lat.=42.424458, lon.=18.771820, Alt.=23.174088m. Speed=1.440000m/h.</desc>
<speed>0.400000</speed>
</trkpt>
<trkpt lat="42.424496" lon="18.771770">
<ele>22.914810</ele>
<time>2012-05-02T13:01:25Z</time>
<desc>lat.=42.424496, lon.=18.771770, Alt.=22.914810m. Speed=1.980000m/h.</desc>
<speed>0.550000</speed>
</trkpt>
<trkpt lat="42.424488" lon="18.771727">
<ele>22.692154</ele>
<time>2012-05-02T13:01:30Z</time>
<desc>lat.=42.424488, lon.=18.771727, Alt.=22.692154m. Speed=1.800000m/h.</desc>
<speed>0.500000</speed>
</trkpt>
<trkpt lat="42.424522" lon="18.771740">
<ele>22.838150</ele>
<time>2012-05-02T13:01:35Z</time>
<desc>lat.=42.424522, lon.=18.771740, Alt.=22.838150m. Speed=0.324000m/h.</desc>
<speed>0.090000</speed>
</trkpt>
<trkpt lat="42.424530" lon="18.771744">
<ele>22.854263</ele>
<time>2012-05-02T13:01:40Z</time>
<desc>lat.=42.424530, lon.=18.771744, Alt.=22.854263m. Speed=1.152000m/h.</desc>
<speed>0.320000</speed>
</trkpt>
<trkpt lat="42.424561" lon="18.771784">
<ele>22.976822</ele>
<time>2012-05-02T13:01:45Z</time>
<desc>lat.=42.424561, lon.=18.771784, Alt.=22.976822m. Speed=3.060000m/h.</desc>
<speed>0.850000</speed>
</trkpt>
<trkpt lat="42.424618" lon="18.771841">
<ele>23.153580</ele>
<time>2012-05-02T13:01:50Z</time>
<desc>lat.=42.424618, lon.=18.771841, Alt.=23.153580m. Speed=4.212000m/h.</desc>
<speed>1.170000</speed>
</trkpt>
<trkpt lat="42.424721" lon="18.771851">
<ele>23.172134</ele>
<time>2012-05-02T13:01:55Z</time>
<desc>lat.=42.424721, lon.=18.771851, Alt.=23.172134m. Speed=4.824000m/h.</desc>
<speed>1.340000</speed>
</trkpt>
<trkpt lat="42.424786" lon="18.771900">
<ele>23.223404</ele>
<time>2012-05-02T13:02:00Z</time>
<desc>lat.=42.424786, lon.=18.771900, Alt.=23.223404m. Speed=5.940000m/h.</desc>
<speed>1.650000</speed>
</trkpt>
<trkpt lat="42.424847" lon="18.771971">
<ele>23.500748</ele>
<time>2012-05-02T13:02:05Z</time>
<desc>lat.=42.424847, lon.=18.771971, Alt.=23.500748m. Speed=3.708000m/h.</desc>
<speed>1.030000</speed>
</trkpt>
<trkpt lat="42.424870" lon="18.772030">
<ele>23.788834</ele>
<time>2012-05-02T13:02:10Z</time>
<desc>lat.=42.424870, lon.=18.772030, Alt.=23.788834m. Speed=2.664000m/h.</desc>
<speed>0.740000</speed>
</trkpt>
<trkpt lat="42.424919" lon="18.772039">
<ele>23.997818</ele>
<time>2012-05-02T13:02:15Z</time>
<desc>lat.=42.424919, lon.=18.772039, Alt.=23.997818m. Speed=3.492000m/h.</desc>
<speed>0.970000</speed>
</trkpt>
<trkpt lat="42.424931" lon="18.772043">
<ele>24.116959</ele>
<time>2012-05-02T13:02:20Z</time>
<desc>lat.=42.424931, lon.=18.772043, Alt.=24.116959m. Speed=0.612000m/h.</desc>
<speed>0.170000</speed>
</trkpt>
<trkpt lat="42.424995" lon="18.772017">
<ele>24.045181</ele>
<time>2012-05-02T13:02:25Z</time>
<desc>lat.=42.424995, lon.=18.772017, Alt.=24.045181m. Speed=6.948000m/h.</desc>
<speed>1.930000</speed>
</trkpt>
<trkpt lat="42.425018" lon="18.772030">
<ele>24.138931</ele>
<time>2012-05-02T13:02:30Z</time>
<desc>lat.=42.425018, lon.=18.772030, Alt.=24.138931m. Speed=1.440000m/h.</desc>
<speed>0.400000</speed>
</trkpt>
<trkpt lat="42.424995" lon="18.772114">
<ele>24.224869</ele>
<time>2012-05-02T13:02:35Z</time>
<desc>lat.=42.424995, lon.=18.772114, Alt.=24.224869m. Speed=2.088000m/h.</desc>
<speed>0.580000</speed>
</trkpt>
<trkpt lat="42.425053" lon="18.772129">
<ele>24.243912</ele>
<time>2012-05-02T13:02:40Z</time>
<desc>lat.=42.425053, lon.=18.772129, Alt.=24.243912m. Speed=0.972000m/h.</desc>
<speed>0.270000</speed>
</trkpt>
<trkpt lat="42.425041" lon="18.772175">
<ele>24.279068</ele>
<time>2012-05-02T13:02:45Z</time>
<desc>lat.=42.425041, lon.=18.772175, Alt.=24.279068m. Speed=3.384000m/h.</desc>
<speed>0.940000</speed>
</trkpt>
<trkpt lat="42.425041" lon="18.772190">
<ele>24.280045</ele>
<time>2012-05-02T13:02:50Z</time>
<desc>lat.=42.425041, lon.=18.772190, Alt.=24.280045m. Speed=0.936000m/h.</desc>
<speed>0.260000</speed>
</trkpt>
<trkpt lat="42.425079" lon="18.772139">
<ele>24.177994</ele>
<time>2012-05-02T13:02:55Z</time>
<desc>lat.=42.425079, lon.=18.772139, Alt.=24.177994m. Speed=0.828000m/h.</desc>
<speed>0.230000</speed>
</trkpt>
<trkpt lat="42.425068" lon="18.772123">
<ele>23.981705</ele>
<time>2012-05-02T13:03:00Z</time>
<desc>lat.=42.425068, lon.=18.772123, Alt.=23.981705m. Speed=2.664000m/h.</desc>
<speed>0.740000</speed>
</trkpt>
<trkpt lat="42.425030" lon="18.772097">
<ele>23.886002</ele>
<time>2012-05-02T13:03:05Z</time>
<desc>lat.=42.425030, lon.=18.772097, Alt.=23.886002m. Speed=3.204000m/h.</desc>
<speed>0.890000</speed>
</trkpt>
<trkpt lat="42.425041" lon="18.772110">
<ele>23.834244</ele>
<time>2012-05-02T13:03:10Z</time>
<desc>lat.=42.425041, lon.=18.772110, Alt.=23.834244m. Speed=1.800000m/h.</desc>
<speed>0.500000</speed>
</trkpt>
<trkpt lat="42.425060" lon="18.772129">
<ele>23.835709</ele>
<time>2012-05-02T13:03:15Z</time>
<desc>lat.=42.425060, lon.=18.772129, Alt.=23.835709m. Speed=0.972000m/h.</desc>
<speed>0.270000</speed>
</trkpt>
<trkpt lat="42.425114" lon="18.772165">
<ele>23.811295</ele>
<time>2012-05-02T13:03:20Z</time>
<desc>lat.=42.425114, lon.=18.772165, Alt.=23.811295m. Speed=2.592000m/h.</desc>
<speed>0.720000</speed>
</trkpt>
<trkpt lat="42.425125" lon="18.772181">
<ele>23.820084</ele>
<time>2012-05-02T13:03:25Z</time>
<desc>lat.=42.425125, lon.=18.772181, Alt.=23.820084m. Speed=0.648000m/h.</desc>
<speed>0.180000</speed>
</trkpt>
<trkpt lat="42.425140" lon="18.772194">
<ele>23.829849</ele>
<time>2012-05-02T13:03:30Z</time>
<desc>lat.=42.425140, lon.=18.772194, Alt.=23.829849m. Speed=2.160000m/h.</desc>
<speed>0.600000</speed>
</trkpt>
<trkpt lat="42.425167" lon="18.772207">
<ele>23.826920</ele>
<time>2012-05-02T13:03:35Z</time>
<desc>lat.=42.425167, lon.=18.772207, Alt.=23.826920m. Speed=0.468000m/h.</desc>
<speed>0.130000</speed>
</trkpt>
<trkpt lat="42.425171" lon="18.772209">
<ele>23.827408</ele>
<time>2012-05-02T13:03:40Z</time>
<desc>lat.=42.425171, lon.=18.772209, Alt.=23.827408m. Speed=0.972000m/h.</desc>
<speed>0.270000</speed>
</trkpt>
<trkpt lat="42.425171" lon="18.772207">
<ele>23.836197</ele>
<time>2012-05-02T13:03:45Z</time>
<desc>lat.=42.425171, lon.=18.772207, Alt.=23.836197m. Speed=2.088000m/h.</desc>
<speed>0.580000</speed>
</trkpt>
<trkpt lat="42.425179" lon="18.772215">
<ele>23.893326</ele>
<time>2012-05-02T13:03:50Z</time>
<desc>lat.=42.425179, lon.=18.772215, Alt.=23.893326m. Speed=0.468000m/h.</desc>
<speed>0.130000</speed>
</trkpt>
<trkpt lat="42.425186" lon="18.772223">
<ele>23.932388</ele>
<time>2012-05-02T13:03:55Z</time>
<desc>lat.=42.425186, lon.=18.772223, Alt.=23.932388m. Speed=2.520000m/h.</desc>
<speed>0.700000</speed>
</trkpt>
<trkpt lat="42.425201" lon="18.772228">
<ele>23.931900</ele>
<time>2012-05-02T13:04:00Z</time>
<desc>lat.=42.425201, lon.=18.772228, Alt.=23.931900m. Speed=1.008000m/h.</desc>
<speed>0.280000</speed>
</trkpt>
<trkpt lat="42.425186" lon="18.772226">
<ele>23.979263</ele>
<time>2012-05-02T13:04:05Z</time>
<desc>lat.=42.425186, lon.=18.772226, Alt.=23.979263m. Speed=1.296000m/h.</desc>
<speed>0.360000</speed>
</trkpt>
<trkpt lat="42.425205" lon="18.772245">
<ele>23.930435</ele>
<time>2012-05-02T13:04:10Z</time>
<desc>lat.=42.425205, lon.=18.772245, Alt.=23.930435m. Speed=1.548000m/h.</desc>
<speed>0.430000</speed>
</trkpt>
<trkpt lat="42.425179" lon="18.772224">
<ele>24.011978</ele>
<time>2012-05-02T13:04:15Z</time>
<desc>lat.=42.425179, lon.=18.772224, Alt.=24.011978m. Speed=1.620000m/h.</desc>
<speed>0.450000</speed>
</trkpt>
<trkpt lat="42.425152" lon="18.772209">
<ele>23.967545</ele>
<time>2012-05-02T13:04:20Z</time>
<desc>lat.=42.425152, lon.=18.772209, Alt.=23.967545m. Speed=0.900000m/h.</desc>
<speed>0.250000</speed>
</trkpt>
<trkpt lat="42.425137" lon="18.772205">
<ele>23.934341</ele>
<time>2012-05-02T13:04:25Z</time>
<desc>lat.=42.425137, lon.=18.772205, Alt.=23.934341m. Speed=0.864000m/h.</desc>
<speed>0.240000</speed>
</trkpt>
<trkpt lat="42.425140" lon="18.772215">
<ele>23.977310</ele>
<time>2012-05-02T13:04:30Z</time>
<desc>lat.=42.425140, lon.=18.772215, Alt.=23.977310m. Speed=0.108000m/h.</desc>
<speed>0.030000</speed>
</trkpt>
<trkpt lat="42.425106" lon="18.772192">
<ele>24.047134</ele>
<time>2012-05-02T13:04:35Z</time>
<desc>lat.=42.425106, lon.=18.772192, Alt.=24.047134m. Speed=3.024000m/h.</desc>
<speed>0.840000</speed>
</trkpt>
<trkpt lat="42.425049" lon="18.772169">
<ele>23.990494</ele>
<time>2012-05-02T13:04:40Z</time>
<desc>lat.=42.425049, lon.=18.772169, Alt.=23.990494m. Speed=3.348000m/h.</desc>
<speed>0.930000</speed>
</trkpt>
<trkpt lat="42.425060" lon="18.772184">
<ele>23.994888</ele>
<time>2012-05-02T13:04:45Z</time>
<desc>lat.=42.425060, lon.=18.772184, Alt.=23.994888m. Speed=0.216000m/h.</desc>
<speed>0.060000</speed>
</trkpt>
<trkpt lat="42.425007" lon="18.772158">
<ele>23.971939</ele>
<time>2012-05-02T13:04:50Z</time>
<desc>lat.=42.425007, lon.=18.772158, Alt.=23.971939m. Speed=1.188000m/h.</desc>
<speed>0.330000</speed>
</trkpt>
<trkpt lat="42.424950" lon="18.772125">
<ele>24.051529</ele>
<time>2012-05-02T13:04:55Z</time>
<desc>lat.=42.424950, lon.=18.772125, Alt.=24.051529m. Speed=3.276000m/h.</desc>
<speed>0.910000</speed>
</trkpt>
<trkpt lat="42.424992" lon="18.772146">
<ele>23.970474</ele>
<time>2012-05-02T13:05:00Z</time>
<desc>lat.=42.424992, lon.=18.772146, Alt.=23.970474m. Speed=1.188000m/h.</desc>
<speed>0.330000</speed>
</trkpt>
<trkpt lat="42.424999" lon="18.772160">
<ele>23.893814</ele>
<time>2012-05-02T13:05:05Z</time>
<desc>lat.=42.424999, lon.=18.772160, Alt.=23.893814m. Speed=1.368000m/h.</desc>
<speed>0.380000</speed>
</trkpt>
<trkpt lat="42.425072" lon="18.772188">
<ele>23.861099</ele>
<time>2012-05-02T13:05:10Z</time>
<desc>lat.=42.425072, lon.=18.772188, Alt.=23.861099m. Speed=0.108000m/h.</desc>
<speed>0.030000</speed>
</trkpt>
<trkpt lat="42.425072" lon="18.772190">
<ele>23.880630</ele>
<time>2012-05-02T13:05:15Z</time>
<desc>lat.=42.425072, lon.=18.772190, Alt.=23.880630m. Speed=1.296000m/h.</desc>
<speed>0.360000</speed>
</trkpt>
<trkpt lat="42.425095" lon="18.772205">
<ele>24.452408</ele>
<time>2012-05-02T13:05:20Z</time>
<desc>lat.=42.425095, lon.=18.772205, Alt.=24.452408m. Speed=0.216000m/h.</desc>
<speed>0.060000</speed>
</trkpt>
<trkpt lat="42.425091" lon="18.772215">
<ele>25.299576</ele>
<time>2012-05-02T13:05:25Z</time>
<desc>lat.=42.425091, lon.=18.772215, Alt.=25.299576m. Speed=1.260000m/h.</desc>
<speed>0.350000</speed>
</trkpt>
<trkpt lat="42.425117" lon="18.772230">
<ele>25.598892</ele>
<time>2012-05-02T13:05:30Z</time>
<desc>lat.=42.425117, lon.=18.772230, Alt.=25.598892m. Speed=0.756000m/h.</desc>
<speed>0.210000</speed>
</trkpt>
<trkpt lat="42.425156" lon="18.772249">
<ele>25.948013</ele>
<time>2012-05-02T13:05:35Z</time>
<desc>lat.=42.425156, lon.=18.772249, Alt.=25.948013m. Speed=2.232000m/h.</desc>
<speed>0.620000</speed>
</trkpt>
<trkpt lat="42.425167" lon="18.772259">
<ele>26.275162</ele>
<time>2012-05-02T13:05:40Z</time>
<desc>lat.=42.425167, lon.=18.772259, Alt.=26.275162m. Speed=0.252000m/h.</desc>
<speed>0.070000</speed>
</trkpt>
<trkpt lat="42.425167" lon="18.772259">
<ele>26.323990</ele>
<time>2012-05-02T13:05:45Z</time>
<desc>lat.=42.425167, lon.=18.772259, Alt.=26.323990m. Speed=0.720000m/h.</desc>
<speed>0.200000</speed>
</trkpt>
<trkpt lat="42.425179" lon="18.772270">
<ele>26.751724</ele>
<time>2012-05-02T13:05:50Z</time>
<desc>lat.=42.425179, lon.=18.772270, Alt.=26.751724m. Speed=0.036000m/h.</desc>
<speed>0.010000</speed>
</trkpt>
<trkpt lat="42.425171" lon="18.772268">
<ele>26.955338</ele>
<time>2012-05-02T13:05:55Z</time>
<desc>lat.=42.425171, lon.=18.772268, Alt.=26.955338m. Speed=0.828000m/h.</desc>
<speed>0.230000</speed>
</trkpt>
<trkpt lat="42.425163" lon="18.772266">
<ele>27.454361</ele>
<time>2012-05-02T13:06:00Z</time>
<desc>lat.=42.425163, lon.=18.772266, Alt.=27.454361m. Speed=0.216000m/h.</desc>
<speed>0.060000</speed>
</trkpt>
<trkpt lat="42.425156" lon="18.772263">
<ele>27.509048</ele>
<time>2012-05-02T13:06:05Z</time>
<desc>lat.=42.425156, lon.=18.772263, Alt.=27.509048m. Speed=2.628000m/h.</desc>
<speed>0.730000</speed>
</trkpt>
<trkpt lat="42.425137" lon="18.772245">
<ele>27.441177</ele>
<time>2012-05-02T13:06:10Z</time>
<desc>lat.=42.425137, lon.=18.772245, Alt.=27.441177m. Speed=0.576000m/h.</desc>
<speed>0.160000</speed>
</trkpt>
<trkpt lat="42.425175" lon="18.772259">
<ele>27.575455</ele>
<time>2012-05-02T13:06:15Z</time>
<desc>lat.=42.425175, lon.=18.772259, Alt.=27.575455m. Speed=0.648000m/h.</desc>
<speed>0.180000</speed>
</trkpt>
<trkpt lat="42.425159" lon="18.772247">
<ele>27.918716</ele>
<time>2012-05-02T13:06:20Z</time>
<desc>lat.=42.425159, lon.=18.772247, Alt.=27.918716m. Speed=1.404000m/h.</desc>
<speed>0.390000</speed>
</trkpt>
<trkpt lat="42.425167" lon="18.772251">
<ele>28.472916</ele>
<time>2012-05-02T13:06:25Z</time>
<desc>lat.=42.425167, lon.=18.772251, Alt.=28.472916m. Speed=0.900000m/h.</desc>
<speed>0.250000</speed>
</trkpt>
<trkpt lat="42.425159" lon="18.772243">
<ele>28.630142</ele>
<time>2012-05-02T13:06:30Z</time>
<desc>lat.=42.425159, lon.=18.772243, Alt.=28.630142m. Speed=1.008000m/h.</desc>
<speed>0.280000</speed>
</trkpt>
<trkpt lat="42.425148" lon="18.772240">
<ele>29.000259</ele>
<time>2012-05-02T13:06:35Z</time>
<desc>lat.=42.425148, lon.=18.772240, Alt.=29.000259m. Speed=0.504000m/h.</desc>
<speed>0.140000</speed>
</trkpt>
<trkpt lat="42.425137" lon="18.772234">
<ele>29.075455</ele>
<time>2012-05-02T13:06:40Z</time>
<desc>lat.=42.425137, lon.=18.772234, Alt.=29.075455m. Speed=0.432000m/h.</desc>
<speed>0.120000</speed>
</trkpt>
<trkpt lat="42.425156" lon="18.772251">
<ele>29.190689</ele>
<time>2012-05-02T13:06:45Z</time>
<desc>lat.=42.425156, lon.=18.772251, Alt.=29.190689m. Speed=1.008000m/h.</desc>
<speed>0.280000</speed>
</trkpt>
<trkpt lat="42.425167" lon="18.772280">
<ele>29.402115</ele>
<time>2012-05-02T13:06:50Z</time>
<desc>lat.=42.425167, lon.=18.772280, Alt.=29.402115m. Speed=2.736000m/h.</desc>
<speed>0.760000</speed>
</trkpt>
<trkpt lat="42.425163" lon="18.772261">
<ele>29.461197</ele>
<time>2012-05-02T13:06:55Z</time>
<desc>lat.=42.425163, lon.=18.772261, Alt.=29.461197m. Speed=1.080000m/h.</desc>
<speed>0.300000</speed>
</trkpt>
<trkpt lat="42.425144" lon="18.772240">
<ele>29.554947</ele>
<time>2012-05-02T13:07:00Z</time>
<desc>lat.=42.425144, lon.=18.772240, Alt.=29.554947m. Speed=1.152000m/h.</desc>
<speed>0.320000</speed>
</trkpt>
<trkpt lat="42.425167" lon="18.772230">
<ele>29.620865</ele>
<time>2012-05-02T13:07:05Z</time>
<desc>lat.=42.425167, lon.=18.772230, Alt.=29.620865m. Speed=0.684000m/h.</desc>
<speed>0.190000</speed>
</trkpt>
<trkpt lat="42.425163" lon="18.772236">
<ele>29.732193</ele>
<time>2012-05-02T13:07:10Z</time>
<desc>lat.=42.425163, lon.=18.772236, Alt.=29.732193m. Speed=1.728000m/h.</desc>
<speed>0.480000</speed>
</trkpt>
<trkpt lat="42.425148" lon="18.772257">
<ele>29.756119</ele>
<time>2012-05-02T13:07:15Z</time>
<desc>lat.=42.425148, lon.=18.772257, Alt.=29.756119m. Speed=2.088000m/h.</desc>
<speed>0.580000</speed>
</trkpt>
<trkpt lat="42.425152" lon="18.772242">
<ele>29.737564</ele>
<time>2012-05-02T13:07:20Z</time>
<desc>lat.=42.425152, lon.=18.772242, Alt.=29.737564m. Speed=1.260000m/h.</desc>
<speed>0.350000</speed>
</trkpt>
<trkpt lat="42.425217" lon="18.772194">
<ele>29.736588</ele>
<time>2012-05-02T13:07:25Z</time>
<desc>lat.=42.425217, lon.=18.772194, Alt.=29.736588m. Speed=6.768000m/h.</desc>
<speed>1.880000</speed>
</trkpt>
<trkpt lat="42.425205" lon="18.772213">
<ele>29.695084</ele>
<time>2012-05-02T13:07:30Z</time>
<desc>lat.=42.425205, lon.=18.772213, Alt.=29.695084m. Speed=4.356000m/h.</desc>
<speed>1.210000</speed>
</trkpt>
<trkpt lat="42.425148" lon="18.772331">
<ele>29.689713</ele>
<time>2012-05-02T13:07:35Z</time>
<desc>lat.=42.425148, lon.=18.772331, Alt.=29.689713m. Speed=6.876000m/h.</desc>
<speed>1.910000</speed>
</trkpt>
<trkpt lat="42.425148" lon="18.772337">
<ele>29.648697</ele>
<time>2012-05-02T13:07:40Z</time>
<desc>lat.=42.425148, lon.=18.772337, Alt.=29.648697m. Speed=2.412000m/h.</desc>
<speed>0.670000</speed>
</trkpt>
<trkpt lat="42.425137" lon="18.772345">
<ele>29.686295</ele>
<time>2012-05-02T13:07:45Z</time>
<desc>lat.=42.425137, lon.=18.772345, Alt.=29.686295m. Speed=2.376000m/h.</desc>
<speed>0.660000</speed>
</trkpt>
<trkpt lat="42.425156" lon="18.772326">
<ele>29.789810</ele>
<time>2012-05-02T13:07:50Z</time>
<desc>lat.=42.425156, lon.=18.772326, Alt.=29.789810m. Speed=1.692000m/h.</desc>
<speed>0.470000</speed>
</trkpt>
<trkpt lat="42.425194" lon="18.772314">
<ele>29.878677</ele>
<time>2012-05-02T13:07:55Z</time>
<desc>lat.=42.425194, lon.=18.772314, Alt.=29.878677m. Speed=2.448000m/h.</desc>
<speed>0.680000</speed>
</trkpt>
<trkpt lat="42.425167" lon="18.772326">
<ele>30.007095</ele>
<time>2012-05-02T13:08:00Z</time>
<desc>lat.=42.425167, lon.=18.772326, Alt.=30.007095m. Speed=3.204000m/h.</desc>
<speed>0.890000</speed>
</trkpt>
<trkpt lat="42.425171" lon="18.772327">
<ele>30.046646</ele>
<time>2012-05-02T13:08:05Z</time>
<desc>lat.=42.425171, lon.=18.772327, Alt.=30.046646m. Speed=4.284000m/h.</desc>
<speed>1.190000</speed>
</trkpt>
<trkpt lat="42.425156" lon="18.772303">
<ele>29.988052</ele>
<time>2012-05-02T13:08:10Z</time>
<desc>lat.=42.425156, lon.=18.772303, Alt.=29.988052m. Speed=2.484000m/h.</desc>
<speed>0.690000</speed>
</trkpt>
<trkpt lat="42.425167" lon="18.772303">
<ele>30.145279</ele>
<time>2012-05-02T13:08:15Z</time>
<desc>lat.=42.425167, lon.=18.772303, Alt.=30.145279m. Speed=1.476000m/h.</desc>
<speed>0.410000</speed>
</trkpt>
<trkpt lat="42.425144" lon="18.772310">
<ele>30.568130</ele>
<time>2012-05-02T13:08:20Z</time>
<desc>lat.=42.425144, lon.=18.772310, Alt.=30.568130m. Speed=1.872000m/h.</desc>
<speed>0.520000</speed>
</trkpt>
<trkpt lat="42.425140" lon="18.772243">
<ele>30.601822</ele>
<time>2012-05-02T13:08:25Z</time>
<desc>lat.=42.425140, lon.=18.772243, Alt.=30.601822m. Speed=2.376000m/h.</desc>
<speed>0.660000</speed>
</trkpt>
<trkpt lat="42.425156" lon="18.772211">
<ele>31.026138</ele>
<time>2012-05-02T13:08:30Z</time>
<desc>lat.=42.425156, lon.=18.772211, Alt.=31.026138m. Speed=2.520000m/h.</desc>
<speed>0.700000</speed>
</trkpt>
<trkpt lat="42.425167" lon="18.772202">
<ele>31.042740</ele>
<time>2012-05-02T13:08:35Z</time>
<desc>lat.=42.425167, lon.=18.772202, Alt.=31.042740m. Speed=1.404000m/h.</desc>
<speed>0.390000</speed>
</trkpt>
<trkpt lat="42.425194" lon="18.772192">
<ele>30.890396</ele>
<time>2012-05-02T13:08:40Z</time>
<desc>lat.=42.425194, lon.=18.772192, Alt.=30.890396m. Speed=2.052000m/h.</desc>
<speed>0.570000</speed>
</trkpt>
<trkpt lat="42.425163" lon="18.772251">
<ele>30.654068</ele>
<time>2012-05-02T13:08:45Z</time>
<desc>lat.=42.425163, lon.=18.772251, Alt.=30.654068m. Speed=4.320000m/h.</desc>
<speed>1.200000</speed>
</trkpt>
<trkpt lat="42.425049" lon="18.772427">
<ele>30.855240</ele>
<time>2012-05-02T13:08:50Z</time>
<desc>lat.=42.425049, lon.=18.772427, Alt.=30.855240m. Speed=11.916000m/h.</desc>
<speed>3.310000</speed>
</trkpt>
<trkpt lat="42.424911" lon="18.772556">
<ele>30.942154</ele>
<time>2012-05-02T13:08:55Z</time>
<desc>lat.=42.424911, lon.=18.772556, Alt.=30.942154m. Speed=12.492000m/h.</desc>
<speed>3.470000</speed>
</trkpt>
<trkpt lat="42.424820" lon="18.772715">
<ele>30.939713</ele>
<time>2012-05-02T13:09:00Z</time>
<desc>lat.=42.424820, lon.=18.772715, Alt.=30.939713m. Speed=12.420000m/h.</desc>
<speed>3.450000</speed>
</trkpt>
<trkpt lat="42.424625" lon="18.772772">
<ele>40.529816</ele>
<time>2012-05-02T13:09:54Z</time>
<desc>lat.=42.424625, lon.=18.772772, Alt.=40.529816m. Speed=1.080000m/h.</desc>
<speed>0.300000</speed>
</trkpt>
<trkpt lat="42.424625" lon="18.772778">
<ele>40.528839</ele>
<time>2012-05-02T13:09:59Z</time>
<desc>lat.=42.424625, lon.=18.772778, Alt.=40.528839m. Speed=3.132000m/h.</desc>
<speed>0.870000</speed>
</trkpt>
<trkpt lat="42.424572" lon="18.772827">
<ele>40.324738</ele>
<time>2012-05-02T13:10:04Z</time>
<desc>lat.=42.424572, lon.=18.772827, Alt.=40.324738m. Speed=4.572000m/h.</desc>
<speed>1.270000</speed>
</trkpt>
<trkpt lat="42.424526" lon="18.772905">
<ele>39.632355</ele>
<time>2012-05-02T13:10:09Z</time>
<desc>lat.=42.424526, lon.=18.772905, Alt.=39.632355m. Speed=3.348000m/h.</desc>
<speed>0.930000</speed>
</trkpt>
<trkpt lat="42.424458" lon="18.773018">
<ele>37.117706</ele>
<time>2012-05-02T13:10:14Z</time>
<desc>lat.=42.424458, lon.=18.773018, Alt.=37.117706m. Speed=1.440000m/h.</desc>
<speed>0.400000</speed>
</trkpt>
<trkpt lat="42.424480" lon="18.773027">
<ele>36.770050</ele>
<time>2012-05-02T13:10:19Z</time>
<desc>lat.=42.424480, lon.=18.773027, Alt.=36.770050m. Speed=7.200000m/h.</desc>
<speed>2.000000</speed>
</trkpt>
<trkpt lat="42.424492" lon="18.773142">
<ele>37.434113</ele>
<time>2012-05-02T13:10:24Z</time>
<desc>lat.=42.424492, lon.=18.773142, Alt.=37.434113m. Speed=4.932000m/h.</desc>
<speed>1.370000</speed>
</trkpt>
<trkpt lat="42.424416" lon="18.773211">
<ele>37.948761</ele>
<time>2012-05-02T13:10:29Z</time>
<desc>lat.=42.424416, lon.=18.773211, Alt.=37.948761m. Speed=2.016000m/h.</desc>
<speed>0.560000</speed>
</trkpt>
<trkpt lat="42.424362" lon="18.773193">
<ele>37.962433</ele>
<time>2012-05-02T13:10:34Z</time>
<desc>lat.=42.424362, lon.=18.773193, Alt.=37.962433m. Speed=2.916000m/h.</desc>
<speed>0.810000</speed>
</trkpt>
<trkpt lat="42.424374" lon="18.773211">
<ele>38.127472</ele>
<time>2012-05-02T13:10:39Z</time>
<desc>lat.=42.424374, lon.=18.773211, Alt.=38.127472m. Speed=3.096000m/h.</desc>
<speed>0.860000</speed>
</trkpt>
<trkpt lat="42.424435" lon="18.773088">
<ele>38.580597</ele>
<time>2012-05-02T13:10:44Z</time>
<desc>lat.=42.424435, lon.=18.773088, Alt.=38.580597m. Speed=3.888000m/h.</desc>
<speed>1.080000</speed>
</trkpt>
<trkpt lat="42.424473" lon="18.773052">
<ele>39.781769</ele>
<time>2012-05-02T13:10:49Z</time>
<desc>lat.=42.424473, lon.=18.773052, Alt.=39.781769m. Speed=4.392000m/h.</desc>
<speed>1.220000</speed>
</trkpt>
<trkpt lat="42.424519" lon="18.772982">
<ele>40.595245</ele>
<time>2012-05-02T13:10:54Z</time>
<desc>lat.=42.424519, lon.=18.772982, Alt.=40.595245m. Speed=3.096000m/h.</desc>
<speed>0.860000</speed>
</trkpt>
<trkpt lat="42.424522" lon="18.772942">
<ele>40.940948</ele>
<time>2012-05-02T13:10:59Z</time>
<desc>lat.=42.424522, lon.=18.772942, Alt.=40.940948m. Speed=0.936000m/h.</desc>
<speed>0.260000</speed>
</trkpt>
<trkpt lat="42.424702" lon="18.772642">
<ele>39.930206</ele>
<time>2012-05-02T13:11:04Z</time>
<desc>lat.=42.424702, lon.=18.772642, Alt.=39.930206m. Speed=1.224000m/h.</desc>
<speed>0.340000</speed>
</trkpt>
<trkpt lat="42.424835" lon="18.772430">
<ele>39.392120</ele>
<time>2012-05-02T13:11:09Z</time>
<desc>lat.=42.424835, lon.=18.772430, Alt.=39.392120m. Speed=1.296000m/h.</desc>
<speed>0.360000</speed>
</trkpt>
<trkpt lat="42.424873" lon="18.772346">
<ele>39.395050</ele>
<time>2012-05-02T13:11:14Z</time>
<desc>lat.=42.424873, lon.=18.772346, Alt.=39.395050m. Speed=2.052000m/h.</desc>
<speed>0.570000</speed>
</trkpt>
<trkpt lat="42.424904" lon="18.772303">
<ele>39.503448</ele>
<time>2012-05-02T13:11:19Z</time>
<desc>lat.=42.424904, lon.=18.772303, Alt.=39.503448m. Speed=1.152000m/h.</desc>
<speed>0.320000</speed>
</trkpt>
<trkpt lat="42.424950" lon="18.772247">
<ele>39.192902</ele>
<time>2012-05-02T13:11:24Z</time>
<desc>lat.=42.424950, lon.=18.772247, Alt.=39.192902m. Speed=2.196000m/h.</desc>
<speed>0.610000</speed>
</trkpt>
<trkpt lat="42.425007" lon="18.772219">
<ele>39.455597</ele>
<time>2012-05-02T13:11:29Z</time>
<desc>lat.=42.425007, lon.=18.772219, Alt.=39.455597m. Speed=1.764000m/h.</desc>
<speed>0.490000</speed>
</trkpt>
<trkpt lat="42.424992" lon="18.772219">
<ele>39.304230</ele>
<time>2012-05-02T13:11:34Z</time>
<desc>lat.=42.424992, lon.=18.772219, Alt.=39.304230m. Speed=0.252000m/h.</desc>
<speed>0.070000</speed>
</trkpt>
<trkpt lat="42.424950" lon="18.772247">
<ele>39.171417</ele>
<time>2012-05-02T13:11:39Z</time>
<desc>lat.=42.424950, lon.=18.772247, Alt.=39.171417m. Speed=4.860000m/h.</desc>
<speed>1.350000</speed>
</trkpt>
<trkpt lat="42.424915" lon="18.772280">
<ele>38.755402</ele>
<time>2012-05-02T13:11:44Z</time>
<desc>lat.=42.424915, lon.=18.772280, Alt.=38.755402m. Speed=3.708000m/h.</desc>
<speed>1.030000</speed>
</trkpt>
<trkpt lat="42.424915" lon="18.772253">
<ele>38.818878</ele>
<time>2012-05-02T13:11:49Z</time>
<desc>lat.=42.424915, lon.=18.772253, Alt.=38.818878m. Speed=1.440000m/h.</desc>
<speed>0.400000</speed>
</trkpt>
<trkpt lat="42.424942" lon="18.772236">
<ele>38.141144</ele>
<time>2012-05-02T13:11:54Z</time>
<desc>lat.=42.424942, lon.=18.772236, Alt.=38.141144m. Speed=2.520000m/h.</desc>
<speed>0.700000</speed>
</trkpt>
<trkpt lat="42.424969" lon="18.772238">
<ele>38.046417</ele>
<time>2012-05-02T13:11:59Z</time>
<desc>lat.=42.424969, lon.=18.772238, Alt.=38.046417m. Speed=0.504000m/h.</desc>
<speed>0.140000</speed>
</trkpt>
<trkpt lat="42.425041" lon="18.772257">
<ele>38.192902</ele>
<time>2012-05-02T13:12:04Z</time>
<desc>lat.=42.425041, lon.=18.772257, Alt.=38.192902m. Speed=1.044000m/h.</desc>
<speed>0.290000</speed>
</trkpt>
<trkpt lat="42.425079" lon="18.772291">
<ele>38.250519</ele>
<time>2012-05-02T13:12:09Z</time>
<desc>lat.=42.425079, lon.=18.772291, Alt.=38.250519m. Speed=2.412000m/h.</desc>
<speed>0.670000</speed>
</trkpt>
<trkpt lat="42.425060" lon="18.772297">
<ele>38.116730</ele>
<time>2012-05-02T13:12:14Z</time>
<desc>lat.=42.425060, lon.=18.772297, Alt.=38.116730m. Speed=0.720000m/h.</desc>
<speed>0.200000</speed>
</trkpt>
<trkpt lat="42.425007" lon="18.772316">
<ele>37.884308</ele>
<time>2012-05-02T13:12:19Z</time>
<desc>lat.=42.425007, lon.=18.772316, Alt.=37.884308m. Speed=1.368000m/h.</desc>
<speed>0.380000</speed>
</trkpt>
<trkpt lat="42.424992" lon="18.772312">
<ele>37.723175</ele>
<time>2012-05-02T13:12:24Z</time>
<desc>lat.=42.424992, lon.=18.772312, Alt.=37.723175m. Speed=0.864000m/h.</desc>
<speed>0.240000</speed>
</trkpt>
<trkpt lat="42.425064" lon="18.772272">
<ele>37.734894</ele>
<time>2012-05-02T13:12:29Z</time>
<desc>lat.=42.425064, lon.=18.772272, Alt.=37.734894m. Speed=0.756000m/h.</desc>
<speed>0.210000</speed>
</trkpt>
<trkpt lat="42.425144" lon="18.772217">
<ele>37.479034</ele>
<time>2012-05-02T13:12:34Z</time>
<desc>lat.=42.425144, lon.=18.772217, Alt.=37.479034m. Speed=5.616000m/h.</desc>
<speed>1.560000</speed>
</trkpt>
<trkpt lat="42.425217" lon="18.772131">
<ele>37.129425</ele>
<time>2012-05-02T13:12:39Z</time>
<desc>lat.=42.425217, lon.=18.772131, Alt.=37.129425m. Speed=3.456000m/h.</desc>
<speed>0.960000</speed>
</trkpt>
<trkpt lat="42.425156" lon="18.772051">
<ele>37.641144</ele>
<time>2012-05-02T13:12:44Z</time>
<desc>lat.=42.425156, lon.=18.772051, Alt.=37.641144m. Speed=3.636000m/h.</desc>
<speed>1.010000</speed>
</trkpt>
<trkpt lat="42.425213" lon="18.771971">
<ele>40.016144</ele>
<time>2012-05-02T13:12:49Z</time>
<desc>lat.=42.425213, lon.=18.771971, Alt.=40.016144m. Speed=3.096000m/h.</desc>
<speed>0.860000</speed>
</trkpt>
<trkpt lat="42.425209" lon="18.771984">
<ele>41.485870</ele>
<time>2012-05-02T13:12:54Z</time>
<desc>lat.=42.425209, lon.=18.771984, Alt.=41.485870m. Speed=2.124000m/h.</desc>
<speed>0.590000</speed>
</trkpt>
<trkpt lat="42.425266" lon="18.772022">
<ele>42.217316</ele>
<time>2012-05-02T13:12:59Z</time>
<desc>lat.=42.425266, lon.=18.772022, Alt.=42.217316m. Speed=3.708000m/h.</desc>
<speed>1.030000</speed>
</trkpt>
<trkpt lat="42.425369" lon="18.772026">
<ele>43.246613</ele>
<time>2012-05-02T13:13:04Z</time>
<desc>lat.=42.425369, lon.=18.772026, Alt.=43.246613m. Speed=6.444000m/h.</desc>
<speed>1.790000</speed>
</trkpt>
<trkpt lat="42.425526" lon="18.772005">
<ele>43.570831</ele>
<time>2012-05-02T13:13:09Z</time>
<desc>lat.=42.425526, lon.=18.772005, Alt.=43.570831m. Speed=1.656000m/h.</desc>
<speed>0.460000</speed>
</trkpt>
<trkpt lat="42.425709" lon="18.771904">
<ele>42.455597</ele>
<time>2012-05-02T13:13:14Z</time>
<desc>lat.=42.425709, lon.=18.771904, Alt.=42.455597m. Speed=0.720000m/h.</desc>
<speed>0.200000</speed>
</trkpt>
<trkpt lat="42.425743" lon="18.771891">
<ele>42.368683</ele>
<time>2012-05-02T13:13:19Z</time>
<desc>lat.=42.425743, lon.=18.771891, Alt.=42.368683m. Speed=0.252000m/h.</desc>
<speed>0.070000</speed>
</trkpt>
<trkpt lat="42.425751" lon="18.771889">
<ele>42.467316</ele>
<time>2012-05-02T13:13:24Z</time>
<desc>lat.=42.425751, lon.=18.771889, Alt.=42.467316m. Speed=0.216000m/h.</desc>
<speed>0.060000</speed>
</trkpt>
<trkpt lat="42.425755" lon="18.771891">
<ele>42.438995</ele>
<time>2012-05-02T13:13:29Z</time>
<desc>lat.=42.425755, lon.=18.771891, Alt.=42.438995m. Speed=0.576000m/h.</desc>
<speed>0.160000</speed>
</trkpt>
<trkpt lat="42.425755" lon="18.771887">
<ele>42.378448</ele>
<time>2012-05-02T13:13:34Z</time>
<desc>lat.=42.425755, lon.=18.771887, Alt.=42.378448m. Speed=0.468000m/h.</desc>
<speed>0.130000</speed>
</trkpt>
<trkpt lat="42.425751" lon="18.771887">
<ele>42.348175</ele>
<time>2012-05-02T13:13:39Z</time>
<desc>lat.=42.425751, lon.=18.771887, Alt.=42.348175m. Speed=0.108000m/h.</desc>
<speed>0.030000</speed>
</trkpt>
<trkpt lat="42.425789" lon="18.771912">
<ele>42.347198</ele>
<time>2012-05-02T13:13:44Z</time>
<desc>lat.=42.425789, lon.=18.771912, Alt.=42.347198m. Speed=1.944000m/h.</desc>
<speed>0.540000</speed>
</trkpt>
<trkpt lat="42.425831" lon="18.771969">
<ele>42.201691</ele>
<time>2012-05-02T13:13:49Z</time>
<desc>lat.=42.425831, lon.=18.771969, Alt.=42.201691m. Speed=1.944000m/h.</desc>
<speed>0.540000</speed>
</trkpt>
<trkpt lat="42.425823" lon="18.771944">
<ele>41.575714</ele>
<time>2012-05-02T13:13:54Z</time>
<desc>lat.=42.425823, lon.=18.771944, Alt.=41.575714m. Speed=0.648000m/h.</desc>
<speed>0.180000</speed>
</trkpt>
<trkpt lat="42.425819" lon="18.771954">
<ele>41.523956</ele>
<time>2012-05-02T13:13:59Z</time>
<desc>lat.=42.425819, lon.=18.771954, Alt.=41.523956m. Speed=1.152000m/h.</desc>
<speed>0.320000</speed>
</trkpt>
<trkpt lat="42.425831" lon="18.771961">
<ele>41.479034</ele>
<time>2012-05-02T13:14:04Z</time>
<desc>lat.=42.425831, lon.=18.771961, Alt.=41.479034m. Speed=0.864000m/h.</desc>
<speed>0.240000</speed>
</trkpt>
<trkpt lat="42.425961" lon="18.772083">
<ele>38.932159</ele>
<time>2012-05-02T13:14:09Z</time>
<desc>lat.=42.425961, lon.=18.772083, Alt.=38.932159m. Speed=6.552000m/h.</desc>
<speed>1.820000</speed>
</trkpt>
<trkpt lat="42.426056" lon="18.772058">
<ele>38.348175</ele>
<time>2012-05-02T13:14:14Z</time>
<desc>lat.=42.426056, lon.=18.772058, Alt.=38.348175m. Speed=4.536000m/h.</desc>
<speed>1.260000</speed>
</trkpt>
<trkpt lat="42.426098" lon="18.772097">
<ele>37.764191</ele>
<time>2012-05-02T13:14:19Z</time>
<desc>lat.=42.426098, lon.=18.772097, Alt.=37.764191m. Speed=0.900000m/h.</desc>
<speed>0.250000</speed>
</trkpt>
<trkpt lat="42.426113" lon="18.771992">
<ele>36.279816</ele>
<time>2012-05-02T13:14:24Z</time>
<desc>lat.=42.426113, lon.=18.771992, Alt.=36.279816m. Speed=7.236000m/h.</desc>
<speed>2.010000</speed>
</trkpt>
<trkpt lat="42.426121" lon="18.771894">
<ele>32.292511</ele>
<time>2012-05-02T13:14:29Z</time>
<desc>lat.=42.426121, lon.=18.771894, Alt.=32.292511m. Speed=7.920000m/h.</desc>
<speed>2.200000</speed>
</trkpt>
<trkpt lat="42.426121" lon="18.771837">
<ele>29.874771</ele>
<time>2012-05-02T13:14:34Z</time>
<desc>lat.=42.426121, lon.=18.771837, Alt.=29.874771m. Speed=2.520000m/h.</desc>
<speed>0.700000</speed>
</trkpt>
<trkpt lat="42.426075" lon="18.771879">
<ele>27.912369</ele>
<time>2012-05-02T13:14:39Z</time>
<desc>lat.=42.426075, lon.=18.771879, Alt.=27.912369m. Speed=2.556000m/h.</desc>
<speed>0.710000</speed>
</trkpt>
<trkpt lat="42.426037" lon="18.771908">
<ele>27.111099</ele>
<time>2012-05-02T13:14:44Z</time>
<desc>lat.=42.426037, lon.=18.771908, Alt.=27.111099m. Speed=2.808000m/h.</desc>
<speed>0.780000</speed>
</trkpt>
<trkpt lat="42.425995" lon="18.771921">
<ele>26.462662</ele>
<time>2012-05-02T13:14:49Z</time>
<desc>lat.=42.425995, lon.=18.771921, Alt.=26.462662m. Speed=2.628000m/h.</desc>
<speed>0.730000</speed>
</trkpt>
<trkpt lat="42.425919" lon="18.771925">
<ele>25.610611</ele>
<time>2012-05-02T13:14:54Z</time>
<desc>lat.=42.425919, lon.=18.771925, Alt.=25.610611m. Speed=4.428000m/h.</desc>
<speed>1.230000</speed>
</trkpt>
<trkpt lat="42.425831" lon="18.771925">
<ele>24.938736</ele>
<time>2012-05-02T13:14:59Z</time>
<desc>lat.=42.425831, lon.=18.771925, Alt.=24.938736m. Speed=5.148000m/h.</desc>
<speed>1.430000</speed>
</trkpt>
<trkpt lat="42.425808" lon="18.771919">
<ele>24.566666</ele>
<time>2012-05-02T13:15:04Z</time>
<desc>lat.=42.425808, lon.=18.771919, Alt.=24.566666m. Speed=3.456000m/h.</desc>
<speed>0.960000</speed>
</trkpt>
<trkpt lat="42.425854" lon="18.771875">
<ele>24.157974</ele>
<time>2012-05-02T13:15:09Z</time>
<desc>lat.=42.425854, lon.=18.771875, Alt.=24.157974m. Speed=1.332000m/h.</desc>
<speed>0.370000</speed>
</trkpt>
<trkpt lat="42.425865" lon="18.771826">
<ele>24.045181</ele>
<time>2012-05-02T13:15:14Z</time>
<desc>lat.=42.425865, lon.=18.771826, Alt.=24.045181m. Speed=1.152000m/h.</desc>
<speed>0.320000</speed>
</trkpt>
<trkpt lat="42.425865" lon="18.771820">
<ele>23.853287</ele>
<time>2012-05-02T13:15:19Z</time>
<desc>lat.=42.425865, lon.=18.771820, Alt.=23.853287m. Speed=0.936000m/h.</desc>
<speed>0.260000</speed>
</trkpt>
<trkpt lat="42.425884" lon="18.771820">
<ele>23.647720</ele>
<time>2012-05-02T13:15:24Z</time>
<desc>lat.=42.425884, lon.=18.771820, Alt.=23.647720m. Speed=1.404000m/h.</desc>
<speed>0.390000</speed>
</trkpt>
<trkpt lat="42.425987" lon="18.771812">
<ele>23.705338</ele>
<time>2012-05-02T13:15:29Z</time>
<desc>lat.=42.425987, lon.=18.771812, Alt.=23.705338m. Speed=2.088000m/h.</desc>
<speed>0.580000</speed>
</trkpt>
<trkpt lat="42.426044" lon="18.771805">
<ele>23.759048</ele>
<time>2012-05-02T13:15:34Z</time>
<desc>lat.=42.426044, lon.=18.771805, Alt.=23.759048m. Speed=2.088000m/h.</desc>
<speed>0.580000</speed>
</trkpt>
<trkpt lat="42.426025" lon="18.771811">
<ele>23.827408</ele>
<time>2012-05-02T13:15:39Z</time>
<desc>lat.=42.426025, lon.=18.771811, Alt.=23.827408m. Speed=0.792000m/h.</desc>
<speed>0.220000</speed>
</trkpt>
<trkpt lat="42.426037" lon="18.771816">
<ele>23.825943</ele>
<time>2012-05-02T13:15:44Z</time>
<desc>lat.=42.426037, lon.=18.771816, Alt.=23.825943m. Speed=2.016000m/h.</desc>
<speed>0.560000</speed>
</trkpt>
<trkpt lat="42.425999" lon="18.771847">
<ele>23.776138</ele>
<time>2012-05-02T13:15:49Z</time>
<desc>lat.=42.425999, lon.=18.771847, Alt.=23.776138m. Speed=1.584000m/h.</desc>
<speed>0.440000</speed>
</trkpt>
<trkpt lat="42.425938" lon="18.771879">
<ele>23.818130</ele>
<time>2012-05-02T13:15:54Z</time>
<desc>lat.=42.425938, lon.=18.771879, Alt.=23.818130m. Speed=2.484000m/h.</desc>
<speed>0.690000</speed>
</trkpt>
<trkpt lat="42.425877" lon="18.771809">
<ele>23.836685</ele>
<time>2012-05-02T13:15:59Z</time>
<desc>lat.=42.425877, lon.=18.771809, Alt.=23.836685m. Speed=4.212000m/h.</desc>
<speed>1.170000</speed>
</trkpt>
<trkpt lat="42.425812" lon="18.771725">
<ele>23.830826</ele>
<time>2012-05-02T13:16:04Z</time>
<desc>lat.=42.425812, lon.=18.771725, Alt.=23.830826m. Speed=7.776000m/h.</desc>
<speed>2.160000</speed>
</trkpt>
<trkpt lat="42.425774" lon="18.771719">
<ele>23.820572</ele>
<time>2012-05-02T13:16:09Z</time>
<desc>lat.=42.425774, lon.=18.771719, Alt.=23.820572m. Speed=4.392000m/h.</desc>
<speed>1.220000</speed>
</trkpt>
<trkpt lat="42.425686" lon="18.771639">
<ele>23.790298</ele>
<time>2012-05-02T13:16:14Z</time>
<desc>lat.=42.425686, lon.=18.771639, Alt.=23.790298m. Speed=2.772000m/h.</desc>
<speed>0.770000</speed>
</trkpt>
<trkpt lat="42.425640" lon="18.771540">
<ele>24.270279</ele>
<time>2012-05-02T13:16:19Z</time>
<desc>lat.=42.425640, lon.=18.771540, Alt.=24.270279m. Speed=5.436000m/h.</desc>
<speed>1.510000</speed>
</trkpt>
<trkpt lat="42.425625" lon="18.771446">
<ele>24.420670</ele>
<time>2012-05-02T13:16:24Z</time>
<desc>lat.=42.425625, lon.=18.771446, Alt.=24.420670m. Speed=3.492000m/h.</desc>
<speed>0.970000</speed>
</trkpt>
<trkpt lat="42.425652" lon="18.771301">
<ele>24.761002</ele>
<time>2012-05-02T13:16:29Z</time>
<desc>lat.=42.425652, lon.=18.771301, Alt.=24.761002m. Speed=4.032000m/h.</desc>
<speed>1.120000</speed>
</trkpt>
<trkpt lat="42.425659" lon="18.771223">
<ele>25.138931</ele>
<time>2012-05-02T13:16:34Z</time>
<desc>lat.=42.425659, lon.=18.771223, Alt.=25.138931m. Speed=0.396000m/h.</desc>
<speed>0.110000</speed>
</trkpt>
<trkpt lat="42.425613" lon="18.771181">
<ele>25.275650</ele>
<time>2012-05-02T13:16:39Z</time>
<desc>lat.=42.425613, lon.=18.771181, Alt.=25.275650m. Speed=1.692000m/h.</desc>
<speed>0.470000</speed>
</trkpt>
<trkpt lat="42.425507" lon="18.771101">
<ele>25.369888</ele>
<time>2012-05-02T13:16:44Z</time>
<desc>lat.=42.425507, lon.=18.771101, Alt.=25.369888m. Speed=2.664000m/h.</desc>
<speed>0.740000</speed>
</trkpt>
<trkpt lat="42.425442" lon="18.771036">
<ele>24.847427</ele>
<time>2012-05-02T13:16:49Z</time>
<desc>lat.=42.425442, lon.=18.771036, Alt.=24.847427m. Speed=0.360000m/h.</desc>
<speed>0.100000</speed>
</trkpt>
<trkpt lat="42.425442" lon="18.771025">
<ele>24.877701</ele>
<time>2012-05-02T13:16:54Z</time>
<desc>lat.=42.425442, lon.=18.771025, Alt.=24.877701m. Speed=0.036000m/h.</desc>
<speed>0.010000</speed>
</trkpt>
<trkpt lat="42.425446" lon="18.771027">
<ele>24.883560</ele>
<time>2012-05-02T13:16:59Z</time>
<desc>lat.=42.425446, lon.=18.771027, Alt.=24.883560m. Speed=0.144000m/h.</desc>
<speed>0.040000</speed>
</trkpt>
<trkpt lat="42.425442" lon="18.771023">
<ele>24.894302</ele>
<time>2012-05-02T13:17:04Z</time>
<desc>lat.=42.425442, lon.=18.771023, Alt.=24.894302m. Speed=0.684000m/h.</desc>
<speed>0.190000</speed>
</trkpt>
<trkpt lat="42.425438" lon="18.771017">
<ele>24.904556</ele>
<time>2012-05-02T13:17:09Z</time>
<desc>lat.=42.425438, lon.=18.771017, Alt.=24.904556m. Speed=0.468000m/h.</desc>
<speed>0.130000</speed>
</trkpt>
<trkpt lat="42.425430" lon="18.771009">
<ele>24.808365</ele>
<time>2012-05-02T13:17:14Z</time>
<desc>lat.=42.425430, lon.=18.771009, Alt.=24.808365m. Speed=0.540000m/h.</desc>
<speed>0.150000</speed>
</trkpt>
<trkpt lat="42.425426" lon="18.771015">
<ele>24.837662</ele>
<time>2012-05-02T13:17:19Z</time>
<desc>lat.=42.425426, lon.=18.771015, Alt.=24.837662m. Speed=1.368000m/h.</desc>
<speed>0.380000</speed>
</trkpt>
<trkpt lat="42.425385" lon="18.771019">
<ele>24.810806</ele>
<time>2012-05-02T13:17:24Z</time>
<desc>lat.=42.425385, lon.=18.771019, Alt.=24.810806m. Speed=1.044000m/h.</desc>
<speed>0.290000</speed>
</trkpt>
<trkpt lat="42.425350" lon="18.770979">
<ele>24.977310</ele>
<time>2012-05-02T13:17:29Z</time>
<desc>lat.=42.425350, lon.=18.770979, Alt.=24.977310m. Speed=3.564000m/h.</desc>
<speed>0.990000</speed>
</trkpt>
<trkpt lat="42.425312" lon="18.771046">
<ele>25.266861</ele>
<time>2012-05-02T13:17:34Z</time>
<desc>lat.=42.425312, lon.=18.771046, Alt.=25.266861m. Speed=4.032000m/h.</desc>
<speed>1.120000</speed>
</trkpt>
<trkpt lat="42.425232" lon="18.771137">
<ele>25.661392</ele>
<time>2012-05-02T13:17:39Z</time>
<desc>lat.=42.425232, lon.=18.771137, Alt.=25.661392m. Speed=5.076000m/h.</desc>
<speed>1.410000</speed>
</trkpt>
<trkpt lat="42.425247" lon="18.771145">
<ele>25.675064</ele>
<time>2012-05-02T13:17:44Z</time>
<desc>lat.=42.425247, lon.=18.771145, Alt.=25.675064m. Speed=2.628000m/h.</desc>
<speed>0.730000</speed>
</trkpt>
<trkpt lat="42.425243" lon="18.771177">
<ele>25.672134</ele>
<time>2012-05-02T13:17:49Z</time>
<desc>lat.=42.425243, lon.=18.771177, Alt.=25.672134m. Speed=4.428000m/h.</desc>
<speed>1.230000</speed>
</trkpt>
<trkpt lat="42.425224" lon="18.771202">
<ele>25.724380</ele>
<time>2012-05-02T13:17:54Z</time>
<desc>lat.=42.425224, lon.=18.771202, Alt.=25.724380m. Speed=3.636000m/h.</desc>
<speed>1.010000</speed>
</trkpt>
<trkpt lat="42.425198" lon="18.771235">
<ele>25.847916</ele>
<time>2012-05-02T13:17:59Z</time>
<desc>lat.=42.425198, lon.=18.771235, Alt.=25.847916m. Speed=0.504000m/h.</desc>
<speed>0.140000</speed>
</trkpt>
<trkpt lat="42.425129" lon="18.771242">
<ele>26.066666</ele>
<time>2012-05-02T13:18:04Z</time>
<desc>lat.=42.425129, lon.=18.771242, Alt.=26.066666m. Speed=3.132000m/h.</desc>
<speed>0.870000</speed>
</trkpt>
<trkpt lat="42.425018" lon="18.771276">
<ele>27.343521</ele>
<time>2012-05-02T13:18:09Z</time>
<desc>lat.=42.425018, lon.=18.771276, Alt.=27.343521m. Speed=1.080000m/h.</desc>
<speed>0.300000</speed>
</trkpt>
<trkpt lat="42.424957" lon="18.771288">
<ele>27.285904</ele>
<time>2012-05-02T13:18:14Z</time>
<desc>lat.=42.424957, lon.=18.771288, Alt.=27.285904m. Speed=2.268000m/h.</desc>
<speed>0.630000</speed>
</trkpt>
<trkpt lat="42.424915" lon="18.771278">
<ele>27.752701</ele>
<time>2012-05-02T13:18:19Z</time>
<desc>lat.=42.424915, lon.=18.771278, Alt.=27.752701m. Speed=3.636000m/h.</desc>
<speed>1.010000</speed>
</trkpt>
<trkpt lat="42.424828" lon="18.771265">
<ele>27.983658</ele>
<time>2012-05-02T13:18:24Z</time>
<desc>lat.=42.424828, lon.=18.771265, Alt.=27.983658m. Speed=1.116000m/h.</desc>
<speed>0.310000</speed>
</trkpt>
<trkpt lat="42.424770" lon="18.771246">
<ele>27.802017</ele>
<time>2012-05-02T13:18:29Z</time>
<desc>lat.=42.424770, lon.=18.771246, Alt.=27.802017m. Speed=3.708000m/h.</desc>
<speed>1.030000</speed>
</trkpt>
<trkpt lat="42.424809" lon="18.771246">
<ele>28.032974</ele>
<time>2012-05-02T13:18:34Z</time>
<desc>lat.=42.424809, lon.=18.771246, Alt.=28.032974m. Speed=4.896000m/h.</desc>
<speed>1.360000</speed>
</trkpt>
<trkpt lat="42.424767" lon="18.771097">
<ele>28.533463</ele>
<time>2012-05-02T13:18:39Z</time>
<desc>lat.=42.424767, lon.=18.771097, Alt.=28.533463m. Speed=8.280000m/h.</desc>
<speed>2.300000</speed>
</trkpt>
<trkpt lat="42.424648" lon="18.771168">
<ele>29.780045</ele>
<time>2012-05-02T13:18:44Z</time>
<desc>lat.=42.424648, lon.=18.771168, Alt.=29.780045m. Speed=3.204000m/h.</desc>
<speed>0.890000</speed>
</trkpt>
<trkpt lat="42.424541" lon="18.771202">
<ele>30.984146</ele>
<time>2012-05-02T13:18:49Z</time>
<desc>lat.=42.424541, lon.=18.771202, Alt.=30.984146m. Speed=0.684000m/h.</desc>
<speed>0.190000</speed>
</trkpt>
<trkpt lat="42.424492" lon="18.771198">
<ele>31.248306</ele>
<time>2012-05-02T13:18:54Z</time>
<desc>lat.=42.424492, lon.=18.771198, Alt.=31.248306m. Speed=1.404000m/h.</desc>
<speed>0.390000</speed>
</trkpt>
<trkpt lat="42.424385" lon="18.771257">
<ele>31.772720</ele>
<time>2012-05-02T13:18:59Z</time>
<desc>lat.=42.424385, lon.=18.771257, Alt.=31.772720m. Speed=0.684000m/h.</desc>
<speed>0.190000</speed>
</trkpt>
<trkpt lat="42.424278" lon="18.771280">
<ele>32.371613</ele>
<time>2012-05-02T13:19:04Z</time>
<desc>lat.=42.424278, lon.=18.771280, Alt.=32.371613m. Speed=0.108000m/h.</desc>
<speed>0.030000</speed>
</trkpt>
<trkpt lat="42.424095" lon="18.771351">
<ele>31.484146</ele>
<time>2012-05-02T13:19:09Z</time>
<desc>lat.=42.424095, lon.=18.771351, Alt.=31.484146m. Speed=1.296000m/h.</desc>
<speed>0.360000</speed>
</trkpt>
<trkpt lat="42.424095" lon="18.771343">
<ele>31.753189</ele>
<time>2012-05-02T13:19:14Z</time>
<desc>lat.=42.424095, lon.=18.771343, Alt.=31.753189m. Speed=0.540000m/h.</desc>
<speed>0.150000</speed>
</trkpt>
<trkpt lat="42.424095" lon="18.771338">
<ele>31.743912</ele>
<time>2012-05-02T13:19:19Z</time>
<desc>lat.=42.424095, lon.=18.771338, Alt.=31.743912m. Speed=1.296000m/h.</desc>
<speed>0.360000</speed>
</trkpt>
<trkpt lat="42.424175" lon="18.771200">
<ele>29.190689</ele>
<time>2012-05-02T13:19:24Z</time>
<desc>lat.=42.424175, lon.=18.771200, Alt.=29.190689m. Speed=0.396000m/h.</desc>
<speed>0.110000</speed>
</trkpt>
<trkpt lat="42.424221" lon="18.771181">
<ele>28.999771</ele>
<time>2012-05-02T13:19:29Z</time>
<desc>lat.=42.424221, lon.=18.771181, Alt.=28.999771m. Speed=4.752000m/h.</desc>
<speed>1.320000</speed>
</trkpt>
<trkpt lat="42.424259" lon="18.771166">
<ele>27.887955</ele>
<time>2012-05-02T13:19:34Z</time>
<desc>lat.=42.424259, lon.=18.771166, Alt.=27.887955m. Speed=2.052000m/h.</desc>
<speed>0.570000</speed>
</trkpt>
<trkpt lat="42.424202" lon="18.771206">
<ele>27.501236</ele>
<time>2012-05-02T13:19:39Z</time>
<desc>lat.=42.424202, lon.=18.771206, Alt.=27.501236m. Speed=3.672000m/h.</desc>
<speed>1.020000</speed>
</trkpt>
<trkpt lat="42.424168" lon="18.771223">
<ele>27.384048</ele>
<time>2012-05-02T13:19:44Z</time>
<desc>lat.=42.424168, lon.=18.771223, Alt.=27.384048m. Speed=3.060000m/h.</desc>
<speed>0.850000</speed>
</trkpt>
<trkpt lat="42.424164" lon="18.771313">
<ele>27.233170</ele>
<time>2012-05-02T13:19:49Z</time>
<desc>lat.=42.424164, lon.=18.771313, Alt.=27.233170m. Speed=4.932000m/h.</desc>
<speed>1.370000</speed>
</trkpt>
<trkpt lat="42.423923" lon="18.771278">
<ele>26.857681</ele>
<time>2012-05-02T13:19:54Z</time>
<desc>lat.=42.423923, lon.=18.771278, Alt.=26.857681m. Speed=3.420000m/h.</desc>
<speed>0.950000</speed>
</trkpt>
<trkpt lat="42.423885" lon="18.771391">
<ele>26.994400</ele>
<time>2012-05-02T13:19:59Z</time>
<desc>lat.=42.423885, lon.=18.771391, Alt.=26.994400m. Speed=5.400000m/h.</desc>
<speed>1.500000</speed>
</trkpt>
<trkpt lat="42.423817" lon="18.771502">
<ele>27.189224</ele>
<time>2012-05-02T13:20:04Z</time>
<desc>lat.=42.423817, lon.=18.771502, Alt.=27.189224m. Speed=1.476000m/h.</desc>
<speed>0.410000</speed>
</trkpt>
<trkpt lat="42.423820" lon="18.771515">
<ele>27.287369</ele>
<time>2012-05-02T13:20:09Z</time>
<desc>lat.=42.423820, lon.=18.771515, Alt.=27.287369m. Speed=2.268000m/h.</desc>
<speed>0.630000</speed>
</trkpt>
<trkpt lat="42.423824" lon="18.771521">
<ele>27.449966</ele>
<time>2012-05-02T13:20:14Z</time>
<desc>lat.=42.423824, lon.=18.771521, Alt.=27.449966m. Speed=1.728000m/h.</desc>
<speed>0.480000</speed>
</trkpt>
<trkpt lat="42.423855" lon="18.771467">
<ele>27.531509</ele>
<time>2012-05-02T13:20:19Z</time>
<desc>lat.=42.423855, lon.=18.771467, Alt.=27.531509m. Speed=1.872000m/h.</desc>
<speed>0.520000</speed>
</trkpt>
<trkpt lat="42.423851" lon="18.771460">
<ele>27.422134</ele>
<time>2012-05-02T13:20:24Z</time>
<desc>lat.=42.423851, lon.=18.771460, Alt.=27.422134m. Speed=0.900000m/h.</desc>
<speed>0.250000</speed>
</trkpt>
<trkpt lat="42.423840" lon="18.771454">
<ele>27.372330</ele>
<time>2012-05-02T13:20:29Z</time>
<desc>lat.=42.423840, lon.=18.771454, Alt.=27.372330m. Speed=0.252000m/h.</desc>
<speed>0.070000</speed>
</trkpt>
<trkpt lat="42.423813" lon="18.771461">
<ele>27.306900</ele>
<time>2012-05-02T13:20:34Z</time>
<desc>lat.=42.423813, lon.=18.771461, Alt.=27.306900m. Speed=0.432000m/h.</desc>
<speed>0.120000</speed>
</trkpt>
<trkpt lat="42.423820" lon="18.771454">
<ele>27.290298</ele>
<time>2012-05-02T13:20:39Z</time>
<desc>lat.=42.423820, lon.=18.771454, Alt.=27.290298m. Speed=0.576000m/h.</desc>
<speed>0.160000</speed>
</trkpt>
<trkpt lat="42.423843" lon="18.771458">
<ele>27.371841</ele>
<time>2012-05-02T13:20:44Z</time>
<desc>lat.=42.423843, lon.=18.771458, Alt.=27.371841m. Speed=1.116000m/h.</desc>
<speed>0.310000</speed>
</trkpt>
<trkpt lat="42.423840" lon="18.771486">
<ele>27.375748</ele>
<time>2012-05-02T13:20:49Z</time>
<desc>lat.=42.423840, lon.=18.771486, Alt.=27.375748m. Speed=1.728000m/h.</desc>
<speed>0.480000</speed>
</trkpt>
<trkpt lat="42.423836" lon="18.771538">
<ele>27.404556</ele>
<time>2012-05-02T13:20:54Z</time>
<desc>lat.=42.423836, lon.=18.771538, Alt.=27.404556m. Speed=2.016000m/h.</desc>
<speed>0.560000</speed>
</trkpt>
<trkpt lat="42.423805" lon="18.771570">
<ele>27.408463</ele>
<time>2012-05-02T13:20:59Z</time>
<desc>lat.=42.423805, lon.=18.771570, Alt.=27.408463m. Speed=2.232000m/h.</desc>
<speed>0.620000</speed>
</trkpt>
<trkpt lat="42.423710" lon="18.771635">
<ele>27.438248</ele>
<time>2012-05-02T13:21:04Z</time>
<desc>lat.=42.423710, lon.=18.771635, Alt.=27.438248m. Speed=4.536000m/h.</desc>
<speed>1.260000</speed>
</trkpt>
<trkpt lat="42.423637" lon="18.771658">
<ele>27.445084</ele>
<time>2012-05-02T13:21:09Z</time>
<desc>lat.=42.423637, lon.=18.771658, Alt.=27.445084m. Speed=4.788000m/h.</desc>
<speed>1.330000</speed>
</trkpt>
<trkpt lat="42.423328" lon="18.771555">
<ele>27.417252</ele>
<time>2012-05-02T13:21:14Z</time>
<desc>lat.=42.423328, lon.=18.771555, Alt.=27.417252m. Speed=8.280000m/h.</desc>
<speed>2.300000</speed>
</trkpt>
<trkpt lat="42.423088" lon="18.771631">
<ele>27.386978</ele>
<time>2012-05-02T13:21:19Z</time>
<desc>lat.=42.423088, lon.=18.771631, Alt.=27.386978m. Speed=8.352000m/h.</desc>
<speed>2.320000</speed>
</trkpt>
<trkpt lat="42.422913" lon="18.771656">
<ele>27.319595</ele>
<time>2012-05-02T13:21:24Z</time>
<desc>lat.=42.422913, lon.=18.771656, Alt.=27.319595m. Speed=4.932000m/h.</desc>
<speed>1.370000</speed>
</trkpt>
<trkpt lat="42.422928" lon="18.771692">
<ele>27.240982</ele>
<time>2012-05-02T13:21:29Z</time>
<desc>lat.=42.422928, lon.=18.771692, Alt.=27.240982m. Speed=1.872000m/h.</desc>
<speed>0.520000</speed>
</trkpt>
<trkpt lat="42.422852" lon="18.771667">
<ele>27.177017</ele>
<time>2012-05-02T13:21:34Z</time>
<desc>lat.=42.422852, lon.=18.771667, Alt.=27.177017m. Speed=6.120000m/h.</desc>
<speed>1.700000</speed>
</trkpt>
<trkpt lat="42.422791" lon="18.771658">
<ele>27.013931</ele>
<time>2012-05-02T13:21:39Z</time>
<desc>lat.=42.422791, lon.=18.771658, Alt.=27.013931m. Speed=0.684000m/h.</desc>
<speed>0.190000</speed>
</trkpt>
<trkpt lat="42.422703" lon="18.771664">
<ele>26.922623</ele>
<time>2012-05-02T13:21:44Z</time>
<desc>lat.=42.422703, lon.=18.771664, Alt.=26.922623m. Speed=5.976000m/h.</desc>
<speed>1.660000</speed>
</trkpt>
<trkpt lat="42.422626" lon="18.771729">
<ele>26.911392</ele>
<time>2012-05-02T13:21:49Z</time>
<desc>lat.=42.422626, lon.=18.771729, Alt.=26.911392m. Speed=6.048000m/h.</desc>
<speed>1.680000</speed>
</trkpt>
<trkpt lat="42.422482" lon="18.771734">
<ele>26.891373</ele>
<time>2012-05-02T13:21:54Z</time>
<desc>lat.=42.422482, lon.=18.771734, Alt.=26.891373m. Speed=6.192000m/h.</desc>
<speed>1.720000</speed>
</trkpt>
<trkpt lat="42.422535" lon="18.771811">
<ele>26.897720</ele>
<time>2012-05-02T13:21:59Z</time>
<desc>lat.=42.422535, lon.=18.771811, Alt.=26.897720m. Speed=5.292000m/h.</desc>
<speed>1.470000</speed>
</trkpt>
<trkpt lat="42.422600" lon="18.771732">
<ele>26.834244</ele>
<time>2012-05-02T13:22:04Z</time>
<desc>lat.=42.422600, lon.=18.771732, Alt.=26.834244m. Speed=2.988000m/h.</desc>
<speed>0.830000</speed>
</trkpt>
<trkpt lat="42.422646" lon="18.771687">
<ele>26.756607</ele>
<time>2012-05-02T13:22:09Z</time>
<desc>lat.=42.422646, lon.=18.771687, Alt.=26.756607m. Speed=4.392000m/h.</desc>
<speed>1.220000</speed>
</trkpt>
<trkpt lat="42.422718" lon="18.771732">
<ele>26.711685</ele>
<time>2012-05-02T13:22:14Z</time>
<desc>lat.=42.422718, lon.=18.771732, Alt.=26.711685m. Speed=10.260000m/h.</desc>
<speed>2.850000</speed>
</trkpt>
<trkpt lat="42.422794" lon="18.771826">
<ele>26.701431</ele>
<time>2012-05-02T13:22:19Z</time>
<desc>lat.=42.422794, lon.=18.771826, Alt.=26.701431m. Speed=10.080000m/h.</desc>
<speed>2.800000</speed>
</trkpt>
<trkpt lat="42.422798" lon="18.771841">
<ele>26.724380</ele>
<time>2012-05-02T13:22:24Z</time>
<desc>lat.=42.422798, lon.=18.771841, Alt.=26.724380m. Speed=2.628000m/h.</desc>
<speed>0.730000</speed>
</trkpt>
<trkpt lat="42.422741" lon="18.771788">
<ele>26.732193</ele>
<time>2012-05-02T13:22:29Z</time>
<desc>lat.=42.422741, lon.=18.771788, Alt.=26.732193m. Speed=1.728000m/h.</desc>
<speed>0.480000</speed>
</trkpt>
<trkpt lat="42.422684" lon="18.771748">
<ele>26.726334</ele>
<time>2012-05-02T13:22:34Z</time>
<desc>lat.=42.422684, lon.=18.771748, Alt.=26.726334m. Speed=0.504000m/h.</desc>
<speed>0.140000</speed>
</trkpt>
<trkpt lat="42.422539" lon="18.771568">
<ele>26.721939</ele>
<time>2012-05-02T13:22:39Z</time>
<desc>lat.=42.422539, lon.=18.771568, Alt.=26.721939m. Speed=10.836000m/h.</desc>
<speed>3.010000</speed>
</trkpt>
<trkpt lat="42.422409" lon="18.771412">
<ele>26.724869</ele>
<time>2012-05-02T13:22:44Z</time>
<desc>lat.=42.422409, lon.=18.771412, Alt.=26.724869m. Speed=17.459999m/h.</desc>
<speed>4.850000</speed>
</trkpt>
<trkpt lat="42.422337" lon="18.771410">
<ele>26.714127</ele>
<time>2012-05-02T13:22:49Z</time>
<desc>lat.=42.422337, lon.=18.771410, Alt.=26.714127m. Speed=11.196000m/h.</desc>
<speed>3.110000</speed>
</trkpt>
<trkpt lat="42.422409" lon="18.771494">
<ele>26.719986</ele>
<time>2012-05-02T13:22:54Z</time>
<desc>lat.=42.422409, lon.=18.771494, Alt.=26.719986m. Speed=1.944000m/h.</desc>
<speed>0.540000</speed>
</trkpt>
<trkpt lat="42.422501" lon="18.771544">
<ele>26.709244</ele>
<time>2012-05-02T13:22:59Z</time>
<desc>lat.=42.422501, lon.=18.771544, Alt.=26.709244m. Speed=0.612000m/h.</desc>
<speed>0.170000</speed>
</trkpt>
<trkpt lat="42.422489" lon="18.771547">
<ele>26.717545</ele>
<time>2012-05-02T13:23:04Z</time>
<desc>lat.=42.422489, lon.=18.771547, Alt.=26.717545m. Speed=1.980000m/h.</desc>
<speed>0.550000</speed>
</trkpt>
<trkpt lat="42.422470" lon="18.771551">
<ele>26.726822</ele>
<time>2012-05-02T13:23:09Z</time>
<desc>lat.=42.422470, lon.=18.771551, Alt.=26.726822m. Speed=2.736000m/h.</desc>
<speed>0.760000</speed>
</trkpt>
<trkpt lat="42.422470" lon="18.771576">
<ele>26.726334</ele>
<time>2012-05-02T13:23:14Z</time>
<desc>lat.=42.422470, lon.=18.771576, Alt.=26.726334m. Speed=2.808000m/h.</desc>
<speed>0.780000</speed>
</trkpt>
<trkpt lat="42.422489" lon="18.771618">
<ele>26.698013</ele>
<time>2012-05-02T13:23:19Z</time>
<desc>lat.=42.422489, lon.=18.771618, Alt.=26.698013m. Speed=2.376000m/h.</desc>
<speed>0.660000</speed>
</trkpt>
<trkpt lat="42.422615" lon="18.771683">
<ele>26.636978</ele>
<time>2012-05-02T13:23:24Z</time>
<desc>lat.=42.422615, lon.=18.771683, Alt.=26.636978m. Speed=6.768000m/h.</desc>
<speed>1.880000</speed>
</trkpt>
<trkpt lat="42.422756" lon="18.771769">
<ele>26.567154</ele>
<time>2012-05-02T13:23:29Z</time>
<desc>lat.=42.422756, lon.=18.771769, Alt.=26.567154m. Speed=2.304000m/h.</desc>
<speed>0.640000</speed>
</trkpt>
<trkpt lat="42.422779" lon="18.771788">
<ele>26.518326</ele>
<time>2012-05-02T13:23:34Z</time>
<desc>lat.=42.422779, lon.=18.771788, Alt.=26.518326m. Speed=0.864000m/h.</desc>
<speed>0.240000</speed>
</trkpt>
<trkpt lat="42.422546" lon="18.771719">
<ele>26.467545</ele>
<time>2012-05-02T13:23:39Z</time>
<desc>lat.=42.422546, lon.=18.771719, Alt.=26.467545m. Speed=3.348000m/h.</desc>
<speed>0.930000</speed>
</trkpt>
<trkpt lat="42.422405" lon="18.771660">
<ele>26.342545</ele>
<time>2012-05-02T13:23:44Z</time>
<desc>lat.=42.422405, lon.=18.771660, Alt.=26.342545m. Speed=2.700000m/h.</desc>
<speed>0.750000</speed>
</trkpt>
<trkpt lat="42.422401" lon="18.771618">
<ele>26.258560</ele>
<time>2012-05-02T13:23:49Z</time>
<desc>lat.=42.422401, lon.=18.771618, Alt.=26.258560m. Speed=2.052000m/h.</desc>
<speed>0.570000</speed>
</trkpt>
<trkpt lat="42.422359" lon="18.771595">
<ele>26.104263</ele>
<time>2012-05-02T13:23:54Z</time>
<desc>lat.=42.422359, lon.=18.771595, Alt.=26.104263m. Speed=2.232000m/h.</desc>
<speed>0.620000</speed>
</trkpt>
<trkpt lat="42.422333" lon="18.771610">
<ele>25.915787</ele>
<time>2012-05-02T13:23:59Z</time>
<desc>lat.=42.422333, lon.=18.771610, Alt.=25.915787m. Speed=1.692000m/h.</desc>
<speed>0.470000</speed>
</trkpt>
<trkpt lat="42.422337" lon="18.771589">
<ele>25.706314</ele>
<time>2012-05-02T13:24:04Z</time>
<desc>lat.=42.422337, lon.=18.771589, Alt.=25.706314m. Speed=1.440000m/h.</desc>
<speed>0.400000</speed>
</trkpt>
<trkpt lat="42.422386" lon="18.771551">
<ele>25.483658</ele>
<time>2012-05-02T13:24:09Z</time>
<desc>lat.=42.422386, lon.=18.771551, Alt.=25.483658m. Speed=0.432000m/h.</desc>
<speed>0.120000</speed>
</trkpt>
<trkpt lat="42.422398" lon="18.771538">
<ele>25.435806</ele>
<time>2012-05-02T13:24:14Z</time>
<desc>lat.=42.422398, lon.=18.771538, Alt.=25.435806m. Speed=1.332000m/h.</desc>
<speed>0.370000</speed>
</trkpt>
<trkpt lat="42.422421" lon="18.771515">
<ele>25.415298</ele>
<time>2012-05-02T13:24:19Z</time>
<desc>lat.=42.422421, lon.=18.771515, Alt.=25.415298m. Speed=3.420000m/h.</desc>
<speed>0.950000</speed>
</trkpt>
<trkpt lat="42.422421" lon="18.771530">
<ele>25.385025</ele>
<time>2012-05-02T13:24:24Z</time>
<desc>lat.=42.422421, lon.=18.771530, Alt.=25.385025m. Speed=1.008000m/h.</desc>
<speed>0.280000</speed>
</trkpt>
<trkpt lat="42.422466" lon="18.771545">
<ele>25.354752</ele>
<time>2012-05-02T13:24:29Z</time>
<desc>lat.=42.422466, lon.=18.771545, Alt.=25.354752m. Speed=1.116000m/h.</desc>
<speed>0.310000</speed>
</trkpt>
<trkpt lat="42.422459" lon="18.772568">
<ele>-82.381897</ele>
<time>2012-05-02T13:26:14Z</time>
<desc>lat.=42.422459, lon.=18.772568, Alt.=-82.381897m. Speed=7.452000m/h.</desc>
<speed>2.070000</speed>
</trkpt>
<trkpt lat="42.422314" lon="18.772017">
<ele>-43.283722</ele>
<time>2012-05-02T13:26:19Z</time>
<desc>lat.=42.422314, lon.=18.772017, Alt.=-43.283722m. Speed=1.728000m/h.</desc>
<speed>0.480000</speed>
</trkpt>
<trkpt lat="42.422333" lon="18.772154">
<ele>-44.455597</ele>
<time>2012-05-02T13:26:24Z</time>
<desc>lat.=42.422333, lon.=18.772154, Alt.=-44.455597m. Speed=0.720000m/h.</desc>
<speed>0.200000</speed>
</trkpt>
<trkpt lat="42.422295" lon="18.772091">
<ele>-43.039581</ele>
<time>2012-05-02T13:26:29Z</time>
<desc>lat.=42.422295, lon.=18.772091, Alt.=-43.039581m. Speed=3.924000m/h.</desc>
<speed>1.090000</speed>
</trkpt>
<trkpt lat="42.422253" lon="18.771984">
<ele>-40.014191</ele>
<time>2012-05-02T13:26:34Z</time>
<desc>lat.=42.422253, lon.=18.771984, Alt.=-40.014191m. Speed=2.016000m/h.</desc>
<speed>0.560000</speed>
</trkpt>
<trkpt lat="42.422230" lon="18.771978">
<ele>-37.302277</ele>
<time>2012-05-02T13:26:39Z</time>
<desc>lat.=42.422230, lon.=18.771978, Alt.=-37.302277m. Speed=0.216000m/h.</desc>
<speed>0.060000</speed>
</trkpt>
<trkpt lat="42.422230" lon="18.771978">
<ele>-37.808136</ele>
<time>2012-05-02T13:26:44Z</time>
<desc>lat.=42.422230, lon.=18.771978, Alt.=-37.808136m. Speed=0.072000m/h.</desc>
<speed>0.020000</speed>
</trkpt>
<trkpt lat="42.422230" lon="18.771978">
<ele>-38.252472</ele>
<time>2012-05-02T13:26:49Z</time>
<desc>lat.=42.422230, lon.=18.771978, Alt.=-38.252472m. Speed=1.692000m/h.</desc>
<speed>0.470000</speed>
</trkpt>
<trkpt lat="42.422234" lon="18.771929">
<ele>-37.709503</ele>
<time>2012-05-02T13:26:54Z</time>
<desc>lat.=42.422234, lon.=18.771929, Alt.=-37.709503m. Speed=0.936000m/h.</desc>
<speed>0.260000</speed>
</trkpt>
<trkpt lat="42.422234" lon="18.771915">
<ele>-38.163605</ele>
<time>2012-05-02T13:26:59Z</time>
<desc>lat.=42.422234, lon.=18.771915, Alt.=-38.163605m. Speed=0.720000m/h.</desc>
<speed>0.200000</speed>
</trkpt>
<trkpt lat="42.422230" lon="18.771908">
<ele>-38.679230</ele>
<time>2012-05-02T13:27:04Z</time>
<desc>lat.=42.422230, lon.=18.771908, Alt.=-38.679230m. Speed=0.468000m/h.</desc>
<speed>0.130000</speed>
</trkpt>
<trkpt lat="42.422226" lon="18.771902">
<ele>-39.199738</ele>
<time>2012-05-02T13:27:09Z</time>
<desc>lat.=42.422226, lon.=18.771902, Alt.=-39.199738m. Speed=0.432000m/h.</desc>
<speed>0.120000</speed>
</trkpt>
<trkpt lat="42.422226" lon="18.771896">
<ele>-39.720245</ele>
<time>2012-05-02T13:27:14Z</time>
<desc>lat.=42.422226, lon.=18.771896, Alt.=-39.720245m. Speed=0.288000m/h.</desc>
<speed>0.080000</speed>
</trkpt>
<trkpt lat="42.422226" lon="18.771896">
<ele>-40.240753</ele>
<time>2012-05-02T13:27:19Z</time>
<desc>lat.=42.422226, lon.=18.771896, Alt.=-40.240753m. Speed=0.252000m/h.</desc>
<speed>0.070000</speed>
</trkpt>
<trkpt lat="42.422230" lon="18.771894">
<ele>-40.760284</ele>
<time>2012-05-02T13:27:24Z</time>
<desc>lat.=42.422230, lon.=18.771894, Alt.=-40.760284m. Speed=0.324000m/h.</desc>
<speed>0.090000</speed>
</trkpt>
<trkpt lat="42.422234" lon="18.771891">
<ele>-41.277863</ele>
<time>2012-05-02T13:27:29Z</time>
<desc>lat.=42.422234, lon.=18.771891, Alt.=-41.277863m. Speed=0.252000m/h.</desc>
<speed>0.070000</speed>
</trkpt>
<trkpt lat="42.422234" lon="18.771891">
<ele>-41.795441</ele>
<time>2012-05-02T13:27:34Z</time>
<desc>lat.=42.422234, lon.=18.771891, Alt.=-41.795441m. Speed=0.108000m/h.</desc>
<speed>0.030000</speed>
</trkpt>
<trkpt lat="42.422234" lon="18.771894">
<ele>-42.313019</ele>
<time>2012-05-02T13:27:39Z</time>
<desc>lat.=42.422234, lon.=18.771894, Alt.=-42.313019m. Speed=0.324000m/h.</desc>
<speed>0.090000</speed>
</trkpt>
<trkpt lat="42.422234" lon="18.771898">
<ele>-42.830597</ele>
<time>2012-05-02T13:27:44Z</time>
<desc>lat.=42.422234, lon.=18.771898, Alt.=-42.830597m. Speed=0.072000m/h.</desc>
<speed>0.020000</speed>
</trkpt>
<trkpt lat="42.422237" lon="18.771896">
<ele>-43.343292</ele>
<time>2012-05-02T13:27:49Z</time>
<desc>lat.=42.422237, lon.=18.771896, Alt.=-43.343292m. Speed=0.360000m/h.</desc>
<speed>0.100000</speed>
</trkpt>
<trkpt lat="42.422241" lon="18.771889">
<ele>-43.817902</ele>
<time>2012-05-02T13:27:54Z</time>
<desc>lat.=42.422241, lon.=18.771889, Alt.=-43.817902m. Speed=0.792000m/h.</desc>
<speed>0.220000</speed>
</trkpt>
<trkpt lat="42.422249" lon="18.771877">
<ele>-44.284698</ele>
<time>2012-05-02T13:27:59Z</time>
<desc>lat.=42.422249, lon.=18.771877, Alt.=-44.284698m. Speed=0.900000m/h.</desc>
<speed>0.250000</speed>
</trkpt>
<trkpt lat="42.422256" lon="18.771870">
<ele>-44.756378</ele>
<time>2012-05-02T13:28:04Z</time>
<desc>lat.=42.422256, lon.=18.771870, Alt.=-44.756378m. Speed=0.432000m/h.</desc>
<speed>0.120000</speed>
</trkpt>
<trkpt lat="42.422260" lon="18.771866">
<ele>-45.240753</ele>
<time>2012-05-02T13:28:09Z</time>
<desc>lat.=42.422260, lon.=18.771866, Alt.=-45.240753m. Speed=0.432000m/h.</desc>
<speed>0.120000</speed>
</trkpt>
<trkpt lat="42.422268" lon="18.771864">
<ele>-45.681183</ele>
<time>2012-05-02T13:28:14Z</time>
<desc>lat.=42.422268, lon.=18.771864, Alt.=-45.681183m. Speed=0.540000m/h.</desc>
<speed>0.150000</speed>
</trkpt>
<trkpt lat="42.422272" lon="18.771866">
<ele>-46.115753</ele>
<time>2012-05-02T13:28:19Z</time>
<desc>lat.=42.422272, lon.=18.771866, Alt.=-46.115753m. Speed=0.612000m/h.</desc>
<speed>0.170000</speed>
</trkpt>
<trkpt lat="42.422268" lon="18.771839">
<ele>-46.415558</ele>
<time>2012-05-02T13:28:24Z</time>
<desc>lat.=42.422268, lon.=18.771839, Alt.=-46.415558m. Speed=3.204000m/h.</desc>
<speed>0.890000</speed>
</trkpt>
<trkpt lat="42.422337" lon="18.771645">
<ele>-46.226105</ele>
<time>2012-05-02T13:28:29Z</time>
<desc>lat.=42.422337, lon.=18.771645, Alt.=-46.226105m. Speed=14.904000m/h.</desc>
<speed>4.140000</speed>
</trkpt>
<trkpt lat="42.422218" lon="18.771446">
<ele>-46.913605</ele>
<time>2012-05-02T13:28:34Z</time>
<desc>lat.=42.422218, lon.=18.771446, Alt.=-46.913605m. Speed=11.088000m/h.</desc>
<speed>3.080000</speed>
</trkpt>
<trkpt lat="42.422176" lon="18.771269">
<ele>-47.235870</ele>
<time>2012-05-02T13:28:39Z</time>
<desc>lat.=42.422176, lon.=18.771269, Alt.=-47.235870m. Speed=9.252000m/h.</desc>
<speed>2.570000</speed>
</trkpt>
<trkpt lat="42.422131" lon="18.771111">
<ele>-47.656769</ele>
<time>2012-05-02T13:28:44Z</time>
<desc>lat.=42.422131, lon.=18.771111, Alt.=-47.656769m. Speed=10.116000m/h.</desc>
<speed>2.810000</speed>
</trkpt>
<trkpt lat="42.422047" lon="18.770924">
<ele>-47.815948</ele>
<time>2012-05-02T13:28:49Z</time>
<desc>lat.=42.422047, lon.=18.770924, Alt.=-47.815948m. Speed=13.824000m/h.</desc>
<speed>3.840000</speed>
</trkpt>
<trkpt lat="42.421970" lon="18.770729">
<ele>-47.156769</ele>
<time>2012-05-02T13:28:54Z</time>
<desc>lat.=42.421970, lon.=18.770729, Alt.=-47.156769m. Speed=5.076000m/h.</desc>
<speed>1.410000</speed>
</trkpt>
<trkpt lat="42.421978" lon="18.770634">
<ele>-46.355988</ele>
<time>2012-05-02T13:28:59Z</time>
<desc>lat.=42.421978, lon.=18.770634, Alt.=-46.355988m. Speed=3.276000m/h.</desc>
<speed>0.910000</speed>
</trkpt>
<trkpt lat="42.421898" lon="18.770454">
<ele>-45.426300</ele>
<time>2012-05-02T13:29:04Z</time>
<desc>lat.=42.421898, lon.=18.770454, Alt.=-45.426300m. Speed=12.204000m/h.</desc>
<speed>3.390000</speed>
</trkpt>
<trkpt lat="42.421791" lon="18.770052">
<ele>-43.563995</ele>
<time>2012-05-02T13:29:09Z</time>
<desc>lat.=42.421791, lon.=18.770052, Alt.=-43.563995m. Speed=15.948000m/h.</desc>
<speed>4.430000</speed>
</trkpt>
<trkpt lat="42.421799" lon="18.769733">
<ele>-41.938019</ele>
<time>2012-05-02T13:29:14Z</time>
<desc>lat.=42.421799, lon.=18.769733, Alt.=-41.938019m. Speed=13.824000m/h.</desc>
<speed>3.840000</speed>
</trkpt>
<trkpt lat="42.421795" lon="18.769489">
<ele>-40.249542</ele>
<time>2012-05-02T13:29:19Z</time>
<desc>lat.=42.421795, lon.=18.769489, Alt.=-40.249542m. Speed=14.868000m/h.</desc>
<speed>4.130000</speed>
</trkpt>
<trkpt lat="42.421822" lon="18.769234">
<ele>-37.153839</ele>
<time>2012-05-02T13:29:24Z</time>
<desc>lat.=42.421822, lon.=18.769234, Alt.=-37.153839m. Speed=9.504000m/h.</desc>
<speed>2.640000</speed>
</trkpt>
<trkpt lat="42.421787" lon="18.769146">
<ele>-34.402863</ele>
<time>2012-05-02T13:29:29Z</time>
<desc>lat.=42.421787, lon.=18.769146, Alt.=-34.402863m. Speed=3.816000m/h.</desc>
<speed>1.060000</speed>
</trkpt>
<trkpt lat="42.421772" lon="18.769140">
<ele>-33.372589</ele>
<time>2012-05-02T13:29:34Z</time>
<desc>lat.=42.421772, lon.=18.769140, Alt.=-33.372589m. Speed=0.252000m/h.</desc>
<speed>0.070000</speed>
</trkpt>
<trkpt lat="42.421772" lon="18.769138">
<ele>-33.030792</ele>
<time>2012-05-02T13:29:39Z</time>
<desc>lat.=42.421772, lon.=18.769138, Alt.=-33.030792m. Speed=0.144000m/h.</desc>
<speed>0.040000</speed>
</trkpt>
<trkpt lat="42.421772" lon="18.769138">
<ele>-32.917511</ele>
<time>2012-05-02T13:29:44Z</time>
<desc>lat.=42.421772, lon.=18.769138, Alt.=-32.917511m. Speed=0.396000m/h.</desc>
<speed>0.110000</speed>
</trkpt>
<trkpt lat="42.421764" lon="18.769056">
<ele>-32.510284</ele>
<time>2012-05-02T13:29:49Z</time>
<desc>lat.=42.421764, lon.=18.769056, Alt.=-32.510284m. Speed=5.472000m/h.</desc>
<speed>1.520000</speed>
</trkpt>
<trkpt lat="42.421741" lon="18.768892">
<ele>-31.915787</ele>
<time>2012-05-02T13:29:54Z</time>
<desc>lat.=42.421741, lon.=18.768892, Alt.=-31.915787m. Speed=14.688000m/h.</desc>
<speed>4.080000</speed>
</trkpt>
<trkpt lat="42.421719" lon="18.768633">
<ele>-31.321060</ele>
<time>2012-05-02T13:29:59Z</time>
<desc>lat.=42.421719, lon.=18.768633, Alt.=-31.321060m. Speed=13.536000m/h.</desc>
<speed>3.760000</speed>
</trkpt>
<trkpt lat="42.421673" lon="18.768373">
<ele>-30.245865</ele>
<time>2012-05-02T13:30:04Z</time>
<desc>lat.=42.421673, lon.=18.768373, Alt.=-30.245865m. Speed=10.368000m/h.</desc>
<speed>2.880000</speed>
</trkpt>
<trkpt lat="42.421593" lon="18.768028">
<ele>-28.807877</ele>
<time>2012-05-02T13:30:09Z</time>
<desc>lat.=42.421593, lon.=18.768028, Alt.=-28.807877m. Speed=22.356001m/h.</desc>
<speed>6.210000</speed>
</trkpt>
<trkpt lat="42.421597" lon="18.767622">
<ele>-27.126236</ele>
<time>2012-05-02T13:30:14Z</time>
<desc>lat.=42.421597, lon.=18.767622, Alt.=-27.126236m. Speed=21.167999m/h.</desc>
<speed>5.880000</speed>
</trkpt>
<trkpt lat="42.421597" lon="18.767206">
<ele>-25.154556</ele>
<time>2012-05-02T13:30:19Z</time>
<desc>lat.=42.421597, lon.=18.767206, Alt.=-25.154556m. Speed=23.688000m/h.</desc>
<speed>6.580000</speed>
</trkpt>
<trkpt lat="42.421619" lon="18.766752">
<ele>-22.425064</ele>
<time>2012-05-02T13:30:24Z</time>
<desc>lat.=42.421619, lon.=18.766752, Alt.=-22.425064m. Speed=22.176001m/h.</desc>
<speed>6.160000</speed>
</trkpt>
<trkpt lat="42.421612" lon="18.766390">
<ele>-19.640884</ele>
<time>2012-05-02T13:30:29Z</time>
<desc>lat.=42.421612, lon.=18.766390, Alt.=-19.640884m. Speed=20.124001m/h.</desc>
<speed>5.590000</speed>
</trkpt>
<trkpt lat="42.421551" lon="18.766048">
<ele>-16.612564</ele>
<time>2012-05-02T13:30:34Z</time>
<desc>lat.=42.421551, lon.=18.766048, Alt.=-16.612564m. Speed=20.591999m/h.</desc>
<speed>5.720000</speed>
</trkpt>
<trkpt lat="42.421490" lon="18.765675">
<ele>-13.033089</ele>
<time>2012-05-02T13:30:39Z</time>
<desc>lat.=42.421490, lon.=18.765675, Alt.=-13.033089m. Speed=23.040001m/h.</desc>
<speed>6.400000</speed>
</trkpt>
<trkpt lat="42.421471" lon="18.765345">
<ele>-9.940315</ele>
<time>2012-05-02T13:30:44Z</time>
<desc>lat.=42.421471, lon.=18.765345, Alt.=-9.940315m. Speed=19.548000m/h.</desc>
<speed>5.430000</speed>
</trkpt>
<trkpt lat="42.421478" lon="18.764969">
<ele>-6.960514</ele>
<time>2012-05-02T13:30:49Z</time>
<desc>lat.=42.421478, lon.=18.764969, Alt.=-6.960514m. Speed=20.087999m/h.</desc>
<speed>5.580000</speed>
</trkpt>
<trkpt lat="42.421474" lon="18.764610">
<ele>-4.058170</ele>
<time>2012-05-02T13:30:54Z</time>
<desc>lat.=42.421474, lon.=18.764610, Alt.=-4.058170m. Speed=21.780001m/h.</desc>
<speed>6.050000</speed>
</trkpt>
<trkpt lat="42.421520" lon="18.764238">
<ele>-1.191270</ele>
<time>2012-05-02T13:30:59Z</time>
<desc>lat.=42.421520, lon.=18.764238, Alt.=-1.191270m. Speed=22.356001m/h.</desc>
<speed>6.210000</speed>
</trkpt>
<trkpt lat="42.421574" lon="18.763878">
<ele>2.143038</ele>
<time>2012-05-02T13:31:04Z</time>
<desc>lat.=42.421574, lon.=18.763878, Alt.=2.143038m. Speed=20.232000m/h.</desc>
<speed>5.620000</speed>
</trkpt>
<trkpt lat="42.421612" lon="18.763523">
<ele>5.419132</ele>
<time>2012-05-02T13:31:09Z</time>
<desc>lat.=42.421612, lon.=18.763523, Alt.=5.419132m. Speed=22.320000m/h.</desc>
<speed>6.200000</speed>
</trkpt>
<trkpt lat="42.421692" lon="18.763212">
<ele>8.472054</ele>
<time>2012-05-02T13:31:14Z</time>
<desc>lat.=42.421692, lon.=18.763212, Alt.=8.472054m. Speed=16.200001m/h.</desc>
<speed>4.500000</speed>
</trkpt>
<trkpt lat="42.421776" lon="18.762970">
<ele>11.104378</ele>
<time>2012-05-02T13:31:19Z</time>
<desc>lat.=42.421776, lon.=18.762970, Alt.=11.104378m. Speed=17.676001m/h.</desc>
<speed>4.910000</speed>
</trkpt>
<trkpt lat="42.421864" lon="18.762653">
<ele>13.826302</ele>
<time>2012-05-02T13:31:24Z</time>
<desc>lat.=42.421864, lon.=18.762653, Alt.=13.826302m. Speed=20.124001m/h.</desc>
<speed>5.590000</speed>
</trkpt>
<trkpt lat="42.421986" lon="18.762323">
<ele>16.560318</ele>
<time>2012-05-02T13:31:29Z</time>
<desc>lat.=42.421986, lon.=18.762323, Alt.=16.560318m. Speed=22.068001m/h.</desc>
<speed>6.130000</speed>
</trkpt>
<trkpt lat="42.422153" lon="18.762051">
<ele>18.876236</ele>
<time>2012-05-02T13:31:34Z</time>
<desc>lat.=42.422153, lon.=18.762051, Alt.=18.876236m. Speed=20.160000m/h.</desc>
<speed>5.600000</speed>
</trkpt>
<trkpt lat="42.422329" lon="18.761906">
<ele>21.209244</ele>
<time>2012-05-02T13:31:39Z</time>
<desc>lat.=42.422329, lon.=18.761906, Alt.=21.209244m. Speed=16.164000m/h.</desc>
<speed>4.490000</speed>
</trkpt>
<trkpt lat="42.422546" lon="18.761866">
<ele>23.428482</ele>
<time>2012-05-02T13:31:44Z</time>
<desc>lat.=42.422546, lon.=18.761866, Alt.=23.428482m. Speed=18.719999m/h.</desc>
<speed>5.200000</speed>
</trkpt>
<trkpt lat="42.422733" lon="18.761801">
<ele>25.338638</ele>
<time>2012-05-02T13:31:49Z</time>
<desc>lat.=42.422733, lon.=18.761801, Alt.=25.338638m. Speed=14.544000m/h.</desc>
<speed>4.040000</speed>
</trkpt>
<trkpt lat="42.422962" lon="18.761696">
<ele>27.096939</ele>
<time>2012-05-02T13:31:54Z</time>
<desc>lat.=42.422962, lon.=18.761696, Alt.=27.096939m. Speed=19.332001m/h.</desc>
<speed>5.370000</speed>
</trkpt>
<trkpt lat="42.423191" lon="18.761503">
<ele>27.809830</ele>
<time>2012-05-02T13:31:59Z</time>
<desc>lat.=42.423191, lon.=18.761503, Alt.=27.809830m. Speed=18.827999m/h.</desc>
<speed>5.230000</speed>
</trkpt>
<trkpt lat="42.423401" lon="18.761217">
<ele>29.014908</ele>
<time>2012-05-02T13:32:04Z</time>
<desc>lat.=42.423401, lon.=18.761217, Alt.=29.014908m. Speed=24.948000m/h.</desc>
<speed>6.930000</speed>
</trkpt>
<trkpt lat="42.423622" lon="18.760960">
<ele>30.257095</ele>
<time>2012-05-02T13:32:09Z</time>
<desc>lat.=42.423622, lon.=18.760960, Alt.=30.257095m. Speed=20.268000m/h.</desc>
<speed>5.630000</speed>
</trkpt>
<trkpt lat="42.423817" lon="18.760706">
<ele>31.386978</ele>
<time>2012-05-02T13:32:14Z</time>
<desc>lat.=42.423817, lon.=18.760706, Alt.=31.386978m. Speed=21.275999m/h.</desc>
<speed>5.910000</speed>
</trkpt>
<trkpt lat="42.424061" lon="18.760517">
<ele>32.438019</ele>
<time>2012-05-02T13:32:19Z</time>
<desc>lat.=42.424061, lon.=18.760517, Alt.=32.438019m. Speed=21.384001m/h.</desc>
<speed>5.940000</speed>
</trkpt>
<trkpt lat="42.424324" lon="18.760450">
<ele>33.407745</ele>
<time>2012-05-02T13:32:24Z</time>
<desc>lat.=42.424324, lon.=18.760450, Alt.=33.407745m. Speed=22.968000m/h.</desc>
<speed>6.380000</speed>
</trkpt>
<trkpt lat="42.424625" lon="18.760330">
<ele>33.938019</ele>
<time>2012-05-02T13:32:29Z</time>
<desc>lat.=42.424625, lon.=18.760330, Alt.=33.938019m. Speed=24.444000m/h.</desc>
<speed>6.790000</speed>
</trkpt>
<trkpt lat="42.424969" lon="18.760178">
<ele>34.123566</ele>
<time>2012-05-02T13:32:34Z</time>
<desc>lat.=42.424969, lon.=18.760178, Alt.=34.123566m. Speed=23.868000m/h.</desc>
<speed>6.630000</speed>
</trkpt>
<trkpt lat="42.425198" lon="18.759844">
<ele>34.326691</ele>
<time>2012-05-02T13:32:39Z</time>
<desc>lat.=42.425198, lon.=18.759844, Alt.=34.326691m. Speed=25.920000m/h.</desc>
<speed>7.200000</speed>
</trkpt>
<trkpt lat="42.425430" lon="18.759525">
<ele>34.455597</ele>
<time>2012-05-02T13:32:44Z</time>
<desc>lat.=42.425430, lon.=18.759525, Alt.=34.455597m. Speed=24.120001m/h.</desc>
<speed>6.700000</speed>
</trkpt>
<trkpt lat="42.425674" lon="18.759298">
<ele>34.632355</ele>
<time>2012-05-02T13:32:49Z</time>
<desc>lat.=42.425674, lon.=18.759298, Alt.=34.632355m. Speed=22.968000m/h.</desc>
<speed>6.380000</speed>
</trkpt>
<trkpt lat="42.425934" lon="18.759155">
<ele>34.797394</ele>
<time>2012-05-02T13:32:54Z</time>
<desc>lat.=42.425934, lon.=18.759155, Alt.=34.797394m. Speed=21.420000m/h.</desc>
<speed>5.950000</speed>
</trkpt>
<trkpt lat="42.426224" lon="18.759060">
<ele>35.034698</ele>
<time>2012-05-02T13:32:59Z</time>
<desc>lat.=42.426224, lon.=18.759060, Alt.=35.034698m. Speed=25.848000m/h.</desc>
<speed>7.180000</speed>
</trkpt>
<trkpt lat="42.426502" lon="18.759007">
<ele>35.072784</ele>
<time>2012-05-02T13:33:04Z</time>
<desc>lat.=42.426502, lon.=18.759007, Alt.=35.072784m. Speed=26.712000m/h.</desc>
<speed>7.420000</speed>
</trkpt>
<trkpt lat="42.426804" lon="18.758989">
<ele>35.119659</ele>
<time>2012-05-02T13:33:09Z</time>
<desc>lat.=42.426804, lon.=18.758989, Alt.=35.119659m. Speed=23.940001m/h.</desc>
<speed>6.650000</speed>
</trkpt>
<trkpt lat="42.427048" lon="18.758963">
<ele>34.851105</ele>
<time>2012-05-02T13:33:14Z</time>
<desc>lat.=42.427048, lon.=18.758963, Alt.=34.851105m. Speed=17.388000m/h.</desc>
<speed>4.830000</speed>
</trkpt>
<trkpt lat="42.427132" lon="18.758921">
<ele>34.395050</ele>
<time>2012-05-02T13:33:19Z</time>
<desc>lat.=42.427132, lon.=18.758921, Alt.=34.395050m. Speed=2.772000m/h.</desc>
<speed>0.770000</speed>
</trkpt>
<trkpt lat="42.427132" lon="18.758905">
<ele>34.025909</ele>
<time>2012-05-02T13:33:24Z</time>
<desc>lat.=42.427132, lon.=18.758905, Alt.=34.025909m. Speed=0.576000m/h.</desc>
<speed>0.160000</speed>
</trkpt>
<trkpt lat="42.427128" lon="18.758904">
<ele>33.940948</ele>
<time>2012-05-02T13:33:29Z</time>
<desc>lat.=42.427128, lon.=18.758904, Alt.=33.940948m. Speed=0.180000m/h.</desc>
<speed>0.050000</speed>
</trkpt>
<trkpt lat="42.427120" lon="18.758896">
<ele>33.921417</ele>
<time>2012-05-02T13:33:34Z</time>
<desc>lat.=42.427120, lon.=18.758896, Alt.=33.921417m. Speed=0.720000m/h.</desc>
<speed>0.200000</speed>
</trkpt>
<trkpt lat="42.427113" lon="18.758890">
<ele>33.920441</ele>
<time>2012-05-02T13:33:39Z</time>
<desc>lat.=42.427113, lon.=18.758890, Alt.=33.920441m. Speed=0.684000m/h.</desc>
<speed>0.190000</speed>
</trkpt>
<trkpt lat="42.427109" lon="18.758884">
<ele>33.920441</ele>
<time>2012-05-02T13:33:44Z</time>
<desc>lat.=42.427109, lon.=18.758884, Alt.=33.920441m. Speed=0.324000m/h.</desc>
<speed>0.090000</speed>
</trkpt>
<trkpt lat="42.427105" lon="18.758879">
<ele>33.914581</ele>
<time>2012-05-02T13:33:49Z</time>
<desc>lat.=42.427105, lon.=18.758879, Alt.=33.914581m. Speed=0.144000m/h.</desc>
<speed>0.040000</speed>
</trkpt>
<trkpt lat="42.427105" lon="18.758877">
<ele>33.901886</ele>
<time>2012-05-02T13:33:54Z</time>
<desc>lat.=42.427105, lon.=18.758877, Alt.=33.901886m. Speed=0.216000m/h.</desc>
<speed>0.060000</speed>
</trkpt>
<trkpt lat="42.427101" lon="18.758875">
<ele>33.890167</ele>
<time>2012-05-02T13:33:59Z</time>
<desc>lat.=42.427101, lon.=18.758875, Alt.=33.890167m. Speed=0.576000m/h.</desc>
<speed>0.160000</speed>
</trkpt>
<trkpt lat="42.427097" lon="18.758865">
<ele>33.881378</ele>
<time>2012-05-02T13:34:04Z</time>
<desc>lat.=42.427097, lon.=18.758865, Alt.=33.881378m. Speed=3.672000m/h.</desc>
<speed>1.020000</speed>
</trkpt>
<trkpt lat="42.427231" lon="18.758875">
<ele>32.773956</ele>
<time>2012-05-02T13:34:09Z</time>
<desc>lat.=42.427231, lon.=18.758875, Alt.=32.773956m. Speed=14.544000m/h.</desc>
<speed>4.040000</speed>
</trkpt>
<trkpt lat="42.427452" lon="18.758900">
<ele>31.246353</ele>
<time>2012-05-02T13:34:14Z</time>
<desc>lat.=42.427452, lon.=18.758900, Alt.=31.246353m. Speed=23.076000m/h.</desc>
<speed>6.410000</speed>
</trkpt>
<trkpt lat="42.427727" lon="18.758905">
<ele>30.569107</ele>
<time>2012-05-02T13:34:19Z</time>
<desc>lat.=42.427727, lon.=18.758905, Alt.=30.569107m. Speed=20.879999m/h.</desc>
<speed>5.800000</speed>
</trkpt>
<trkpt lat="42.427986" lon="18.758793">
<ele>27.050552</ele>
<time>2012-05-02T13:34:24Z</time>
<desc>lat.=42.427986, lon.=18.758793, Alt.=27.050552m. Speed=20.052000m/h.</desc>
<speed>5.570000</speed>
</trkpt>
<trkpt lat="42.428257" lon="18.758619">
<ele>19.736099</ele>
<time>2012-05-02T13:34:29Z</time>
<desc>lat.=42.428257, lon.=18.758619, Alt.=19.736099m. Speed=23.868000m/h.</desc>
<speed>6.630000</speed>
</trkpt>
<trkpt lat="42.428524" lon="18.758495">
<ele>18.599869</ele>
<time>2012-05-02T13:34:34Z</time>
<desc>lat.=42.428524, lon.=18.758495, Alt.=18.599869m. Speed=21.600000m/h.</desc>
<speed>6.000000</speed>
</trkpt>
<trkpt lat="42.428795" lon="18.758402">
<ele>17.709732</ele>
<time>2012-05-02T13:34:39Z</time>
<desc>lat.=42.428795, lon.=18.758402, Alt.=17.709732m. Speed=21.816000m/h.</desc>
<speed>6.060000</speed>
</trkpt>
<trkpt lat="42.429085" lon="18.758389">
<ele>18.198990</ele>
<time>2012-05-02T13:34:44Z</time>
<desc>lat.=42.429085, lon.=18.758389, Alt.=18.198990m. Speed=24.732000m/h.</desc>
<speed>6.870000</speed>
</trkpt>
<trkpt lat="42.429359" lon="18.758402">
<ele>18.131119</ele>
<time>2012-05-02T13:34:49Z</time>
<desc>lat.=42.429359, lon.=18.758402, Alt.=18.131119m. Speed=21.924000m/h.</desc>
<speed>6.090000</speed>
</trkpt>
<trkpt lat="42.429634" lon="18.758402">
<ele>18.344986</ele>
<time>2012-05-02T13:34:54Z</time>
<desc>lat.=42.429634, lon.=18.758402, Alt.=18.344986m. Speed=21.132000m/h.</desc>
<speed>5.870000</speed>
</trkpt>
<trkpt lat="42.429890" lon="18.758402">
<ele>18.239029</ele>
<time>2012-05-02T13:34:59Z</time>
<desc>lat.=42.429890, lon.=18.758402, Alt.=18.239029m. Speed=20.591999m/h.</desc>
<speed>5.720000</speed>
</trkpt>
<trkpt lat="42.430130" lon="18.758402">
<ele>17.690689</ele>
<time>2012-05-02T13:35:04Z</time>
<desc>lat.=42.430130, lon.=18.758402, Alt.=17.690689m. Speed=20.844000m/h.</desc>
<speed>5.790000</speed>
</trkpt>
<trkpt lat="42.430393" lon="18.758356">
<ele>15.376595</ele>
<time>2012-05-02T13:35:09Z</time>
<desc>lat.=42.430393, lon.=18.758356, Alt.=15.376595m. Speed=21.204000m/h.</desc>
<speed>5.890000</speed>
</trkpt>
<trkpt lat="42.430618" lon="18.758240">
<ele>16.670181</ele>
<time>2012-05-02T13:35:14Z</time>
<desc>lat.=42.430618, lon.=18.758240, Alt.=16.670181m. Speed=18.719999m/h.</desc>
<speed>5.200000</speed>
</trkpt>
<trkpt lat="42.430870" lon="18.758114">
<ele>17.870377</ele>
<time>2012-05-02T13:35:19Z</time>
<desc>lat.=42.430870, lon.=18.758114, Alt.=17.870377m. Speed=21.636000m/h.</desc>
<speed>6.010000</speed>
</trkpt>
<trkpt lat="42.431091" lon="18.757969">
<ele>18.913834</ele>
<time>2012-05-02T13:35:24Z</time>
<desc>lat.=42.431091, lon.=18.757969, Alt.=18.913834m. Speed=20.483999m/h.</desc>
<speed>5.690000</speed>
</trkpt>
<trkpt lat="42.431351" lon="18.757952">
<ele>19.580826</ele>
<time>2012-05-02T13:35:29Z</time>
<desc>lat.=42.431351, lon.=18.757952, Alt.=19.580826m. Speed=21.024000m/h.</desc>
<speed>5.840000</speed>
</trkpt>
<trkpt lat="42.431629" lon="18.757957">
<ele>20.509537</ele>
<time>2012-05-02T13:35:34Z</time>
<desc>lat.=42.431629, lon.=18.757957, Alt.=20.509537m. Speed=21.959999m/h.</desc>
<speed>6.100000</speed>
</trkpt>
<trkpt lat="42.431881" lon="18.757919">
<ele>22.862564</ele>
<time>2012-05-02T13:35:39Z</time>
<desc>lat.=42.431881, lon.=18.757919, Alt.=22.862564m. Speed=20.448000m/h.</desc>
<speed>5.680000</speed>
</trkpt>
<trkpt lat="42.432110" lon="18.757782">
<ele>24.420181</ele>
<time>2012-05-02T13:35:44Z</time>
<desc>lat.=42.432110, lon.=18.757782, Alt.=24.420181m. Speed=19.188000m/h.</desc>
<speed>5.330000</speed>
</trkpt>
<trkpt lat="42.432362" lon="18.757759">
<ele>26.569107</ele>
<time>2012-05-02T13:35:49Z</time>
<desc>lat.=42.432362, lon.=18.757759, Alt.=26.569107m. Speed=23.148001m/h.</desc>
<speed>6.430000</speed>
</trkpt>
<trkpt lat="42.432652" lon="18.757822">
<ele>27.458755</ele>
<time>2012-05-02T13:35:54Z</time>
<desc>lat.=42.432652, lon.=18.757822, Alt.=27.458755m. Speed=21.096001m/h.</desc>
<speed>5.860000</speed>
</trkpt>
<trkpt lat="42.432888" lon="18.757898">
<ele>24.105240</ele>
<time>2012-05-02T13:35:59Z</time>
<desc>lat.=42.432888, lon.=18.757898, Alt.=24.105240m. Speed=19.944000m/h.</desc>
<speed>5.540000</speed>
</trkpt>
<trkpt lat="42.433102" lon="18.758078">
<ele>23.864517</ele>
<time>2012-05-02T13:36:04Z</time>
<desc>lat.=42.433102, lon.=18.758078, Alt.=23.864517m. Speed=23.364000m/h.</desc>
<speed>6.490000</speed>
</trkpt>
<trkpt lat="42.433403" lon="18.758066">
<ele>23.812759</ele>
<time>2012-05-02T13:36:09Z</time>
<desc>lat.=42.433403, lon.=18.758066, Alt.=23.812759m. Speed=24.084000m/h.</desc>
<speed>6.690000</speed>
</trkpt>
<trkpt lat="42.433685" lon="18.757895">
<ele>24.019302</ele>
<time>2012-05-02T13:36:14Z</time>
<desc>lat.=42.433685, lon.=18.757895, Alt.=24.019302m. Speed=21.743999m/h.</desc>
<speed>6.040000</speed>
</trkpt>
<trkpt lat="42.433918" lon="18.757648">
<ele>23.428482</ele>
<time>2012-05-02T13:36:19Z</time>
<desc>lat.=42.433918, lon.=18.757648, Alt.=23.428482m. Speed=22.104000m/h.</desc>
<speed>6.140000</speed>
</trkpt>
<trkpt lat="42.434147" lon="18.757431">
<ele>23.774673</ele>
<time>2012-05-02T13:36:24Z</time>
<desc>lat.=42.434147, lon.=18.757431, Alt.=23.774673m. Speed=22.032000m/h.</desc>
<speed>6.120000</speed>
</trkpt>
<trkpt lat="42.434391" lon="18.757183">
<ele>23.584244</ele>
<time>2012-05-02T13:36:29Z</time>
<desc>lat.=42.434391, lon.=18.757183, Alt.=23.584244m. Speed=24.191999m/h.</desc>
<speed>6.720000</speed>
</trkpt>
<trkpt lat="42.434643" lon="18.757023">
<ele>24.212173</ele>
<time>2012-05-02T13:36:34Z</time>
<desc>lat.=42.434643, lon.=18.757023, Alt.=24.212173m. Speed=23.688000m/h.</desc>
<speed>6.580000</speed>
</trkpt>
<trkpt lat="42.434940" lon="18.757021">
<ele>24.447037</ele>
<time>2012-05-02T13:36:39Z</time>
<desc>lat.=42.434940, lon.=18.757021, Alt.=24.447037m. Speed=23.148001m/h.</desc>
<speed>6.430000</speed>
</trkpt>
<trkpt lat="42.435223" lon="18.756973">
<ele>24.868423</ele>
<time>2012-05-02T13:36:44Z</time>
<desc>lat.=42.435223, lon.=18.756973, Alt.=24.868423m. Speed=23.832001m/h.</desc>
<speed>6.620000</speed>
</trkpt>
<trkpt lat="42.435490" lon="18.756752">
<ele>24.629166</ele>
<time>2012-05-02T13:36:49Z</time>
<desc>lat.=42.435490, lon.=18.756752, Alt.=24.629166m. Speed=23.292000m/h.</desc>
<speed>6.470000</speed>
</trkpt>
<trkpt lat="42.435776" lon="18.756567">
<ele>24.218521</ele>
<time>2012-05-02T13:36:54Z</time>
<desc>lat.=42.435776, lon.=18.756567, Alt.=24.218521m. Speed=23.796000m/h.</desc>
<speed>6.610000</speed>
</trkpt>
<trkpt lat="42.436028" lon="18.756462">
<ele>23.989029</ele>
<time>2012-05-02T13:36:59Z</time>
<desc>lat.=42.436028, lon.=18.756462, Alt.=23.989029m. Speed=19.080000m/h.</desc>
<speed>5.300000</speed>
</trkpt>
<trkpt lat="42.436169" lon="18.756351">
<ele>23.641373</ele>
<time>2012-05-02T13:37:04Z</time>
<desc>lat.=42.436169, lon.=18.756351, Alt.=23.641373m. Speed=10.080000m/h.</desc>
<speed>2.800000</speed>
</trkpt>
<trkpt lat="42.436398" lon="18.756252">
<ele>23.364029</ele>
<time>2012-05-02T13:37:09Z</time>
<desc>lat.=42.436398, lon.=18.756252, Alt.=23.364029m. Speed=19.511999m/h.</desc>
<speed>5.420000</speed>
</trkpt>
<trkpt lat="42.436634" lon="18.756130">
<ele>23.238541</ele>
<time>2012-05-02T13:37:14Z</time>
<desc>lat.=42.436634, lon.=18.756130, Alt.=23.238541m. Speed=17.712000m/h.</desc>
<speed>4.920000</speed>
</trkpt>
<trkpt lat="42.436893" lon="18.755991">
<ele>22.876236</ele>
<time>2012-05-02T13:37:19Z</time>
<desc>lat.=42.436893, lon.=18.755991, Alt.=22.876236m. Speed=22.716000m/h.</desc>
<speed>6.310000</speed>
</trkpt>
<trkpt lat="42.437122" lon="18.755768">
<ele>22.385513</ele>
<time>2012-05-02T13:37:24Z</time>
<desc>lat.=42.437122, lon.=18.755768, Alt.=22.385513m. Speed=21.455999m/h.</desc>
<speed>5.960000</speed>
</trkpt>
<trkpt lat="42.437275" lon="18.755484">
<ele>21.995377</ele>
<time>2012-05-02T13:37:29Z</time>
<desc>lat.=42.437275, lon.=18.755484, Alt.=21.995377m. Speed=22.139999m/h.</desc>
<speed>6.150000</speed>
</trkpt>
<trkpt lat="42.437496" lon="18.755198">
<ele>22.089127</ele>
<time>2012-05-02T13:37:34Z</time>
<desc>lat.=42.437496, lon.=18.755198, Alt.=22.089127m. Speed=25.920000m/h.</desc>
<speed>7.200000</speed>
</trkpt>
<trkpt lat="42.437775" lon="18.755033">
<ele>22.240494</ele>
<time>2012-05-02T13:37:39Z</time>
<desc>lat.=42.437775, lon.=18.755033, Alt.=22.240494m. Speed=22.212000m/h.</desc>
<speed>6.170000</speed>
</trkpt>
<trkpt lat="42.437927" lon="18.754951">
<ele>22.469986</ele>
<time>2012-05-02T13:37:44Z</time>
<desc>lat.=42.437927, lon.=18.754951, Alt.=22.469986m. Speed=2.916000m/h.</desc>
<speed>0.810000</speed>
</trkpt>
<trkpt lat="42.437958" lon="18.754969">
<ele>22.412369</ele>
<time>2012-05-02T13:37:49Z</time>
<desc>lat.=42.437958, lon.=18.754969, Alt.=22.412369m. Speed=0.648000m/h.</desc>
<speed>0.180000</speed>
</trkpt>
<trkpt lat="42.437962" lon="18.754963">
<ele>22.425552</ele>
<time>2012-05-02T13:37:54Z</time>
<desc>lat.=42.437962, lon.=18.754963, Alt.=22.425552m. Speed=0.504000m/h.</desc>
<speed>0.140000</speed>
</trkpt>
<trkpt lat="42.437969" lon="18.754965">
<ele>22.396255</ele>
<time>2012-05-02T13:37:59Z</time>
<desc>lat.=42.437969, lon.=18.754965, Alt.=22.396255m. Speed=0.288000m/h.</desc>
<speed>0.080000</speed>
</trkpt>
<trkpt lat="42.437973" lon="18.754969">
<ele>22.346451</ele>
<time>2012-05-02T13:38:04Z</time>
<desc>lat.=42.437973, lon.=18.754969, Alt.=22.346451m. Speed=1.080000m/h.</desc>
<speed>0.300000</speed>
</trkpt>
<trkpt lat="42.438026" lon="18.754927">
<ele>21.995377</ele>
<time>2012-05-02T13:38:09Z</time>
<desc>lat.=42.438026, lon.=18.754927, Alt.=21.995377m. Speed=6.876000m/h.</desc>
<speed>1.910000</speed>
</trkpt>
<trkpt lat="42.438148" lon="18.754887">
<ele>21.444107</ele>
<time>2012-05-02T13:38:14Z</time>
<desc>lat.=42.438148, lon.=18.754887, Alt.=21.444107m. Speed=13.464000m/h.</desc>
<speed>3.740000</speed>
</trkpt>
<trkpt lat="42.438351" lon="18.754772">
<ele>20.995865</ele>
<time>2012-05-02T13:38:19Z</time>
<desc>lat.=42.438351, lon.=18.754772, Alt.=20.995865m. Speed=17.063999m/h.</desc>
<speed>4.740000</speed>
</trkpt>
<trkpt lat="42.438564" lon="18.754641">
<ele>20.797134</ele>
<time>2012-05-02T13:38:24Z</time>
<desc>lat.=42.438564, lon.=18.754641, Alt.=20.797134m. Speed=20.124001m/h.</desc>
<speed>5.590000</speed>
</trkpt>
<trkpt lat="42.438786" lon="18.754507">
<ele>20.697525</ele>
<time>2012-05-02T13:38:29Z</time>
<desc>lat.=42.438786, lon.=18.754507, Alt.=20.697525m. Speed=17.172001m/h.</desc>
<speed>4.770000</speed>
</trkpt>
<trkpt lat="42.438927" lon="18.754286">
<ele>20.450455</ele>
<time>2012-05-02T13:38:34Z</time>
<desc>lat.=42.438927, lon.=18.754286, Alt.=20.450455m. Speed=18.792000m/h.</desc>
<speed>5.220000</speed>
</trkpt>
<trkpt lat="42.439102" lon="18.754005">
<ele>20.332779</ele>
<time>2012-05-02T13:38:39Z</time>
<desc>lat.=42.439102, lon.=18.754005, Alt.=20.332779m. Speed=21.636000m/h.</desc>
<speed>6.010000</speed>
</trkpt>
<trkpt lat="42.439297" lon="18.753738">
<ele>19.697037</ele>
<time>2012-05-02T13:38:44Z</time>
<desc>lat.=42.439297, lon.=18.753738, Alt.=19.697037m. Speed=21.384001m/h.</desc>
<speed>5.940000</speed>
</trkpt>
<trkpt lat="42.439491" lon="18.753510">
<ele>19.731705</ele>
<time>2012-05-02T13:38:49Z</time>
<desc>lat.=42.439491, lon.=18.753510, Alt.=19.731705m. Speed=20.304001m/h.</desc>
<speed>5.640000</speed>
</trkpt>
<trkpt lat="42.439785" lon="18.753578">
<ele>19.768326</ele>
<time>2012-05-02T13:38:54Z</time>
<desc>lat.=42.439785, lon.=18.753578, Alt.=19.768326m. Speed=26.028000m/h.</desc>
<speed>7.230000</speed>
</trkpt>
<trkpt lat="42.440075" lon="18.753777">
<ele>19.644791</ele>
<time>2012-05-02T13:38:59Z</time>
<desc>lat.=42.440075, lon.=18.753777, Alt.=19.644791m. Speed=23.219999m/h.</desc>
<speed>6.450000</speed>
</trkpt>
<trkpt lat="42.440296" lon="18.753937">
<ele>19.185806</ele>
<time>2012-05-02T13:39:04Z</time>
<desc>lat.=42.440296, lon.=18.753937, Alt.=19.185806m. Speed=22.535999m/h.</desc>
<speed>6.260000</speed>
</trkpt>
<trkpt lat="42.440582" lon="18.754066">
<ele>19.269302</ele>
<time>2012-05-02T13:39:09Z</time>
<desc>lat.=42.440582, lon.=18.754066, Alt.=19.269302m. Speed=26.496000m/h.</desc>
<speed>7.360000</speed>
</trkpt>
<trkpt lat="42.440826" lon="18.754265">
<ele>19.273697</ele>
<time>2012-05-02T13:39:14Z</time>
<desc>lat.=42.440826, lon.=18.754265, Alt.=19.273697m. Speed=22.535999m/h.</desc>
<speed>6.260000</speed>
</trkpt>
<trkpt lat="42.441063" lon="18.754414">
<ele>19.282486</ele>
<time>2012-05-02T13:39:19Z</time>
<desc>lat.=42.441063, lon.=18.754414, Alt.=19.282486m. Speed=20.771999m/h.</desc>
<speed>5.770000</speed>
</trkpt>
<trkpt lat="42.441326" lon="18.754578">
<ele>19.276627</ele>
<time>2012-05-02T13:39:24Z</time>
<desc>lat.=42.441326, lon.=18.754578, Alt.=19.276627m. Speed=20.087999m/h.</desc>
<speed>5.580000</speed>
</trkpt>
<trkpt lat="42.441517" lon="18.754627">
<ele>19.808365</ele>
<time>2012-05-02T13:39:29Z</time>
<desc>lat.=42.441517, lon.=18.754627, Alt.=19.808365m. Speed=15.660000m/h.</desc>
<speed>4.350000</speed>
</trkpt>
<trkpt lat="42.441853" lon="18.754694">
<ele>19.604752</ele>
<time>2012-05-02T13:39:34Z</time>
<desc>lat.=42.441853, lon.=18.754694, Alt.=19.604752m. Speed=21.780001m/h.</desc>
<speed>6.050000</speed>
</trkpt>
<trkpt lat="42.442123" lon="18.754723">
<ele>20.106216</ele>
<time>2012-05-02T13:39:39Z</time>
<desc>lat.=42.442123, lon.=18.754723, Alt.=20.106216m. Speed=21.204000m/h.</desc>
<speed>5.890000</speed>
</trkpt>
<trkpt lat="42.442345" lon="18.754681">
<ele>22.749771</ele>
<time>2012-05-02T13:39:44Z</time>
<desc>lat.=42.442345, lon.=18.754681, Alt.=22.749771m. Speed=20.736000m/h.</desc>
<speed>5.760000</speed>
</trkpt>
<trkpt lat="42.442554" lon="18.754467">
<ele>23.802017</ele>
<time>2012-05-02T13:39:49Z</time>
<desc>lat.=42.442554, lon.=18.754467, Alt.=23.802017m. Speed=22.068001m/h.</desc>
<speed>6.130000</speed>
</trkpt>
<trkpt lat="42.442749" lon="18.754192">
<ele>23.444107</ele>
<time>2012-05-02T13:39:54Z</time>
<desc>lat.=42.442749, lon.=18.754192, Alt.=23.444107m. Speed=18.180000m/h.</desc>
<speed>5.050000</speed>
</trkpt>
<trkpt lat="42.443020" lon="18.754084">
<ele>24.109634</ele>
<time>2012-05-02T13:39:59Z</time>
<desc>lat.=42.443020, lon.=18.754084, Alt.=24.109634m. Speed=22.931999m/h.</desc>
<speed>6.370000</speed>
</trkpt>
<trkpt lat="42.443226" lon="18.753782">
<ele>24.867935</ele>
<time>2012-05-02T13:40:04Z</time>
<desc>lat.=42.443226, lon.=18.753782, Alt.=24.867935m. Speed=23.436001m/h.</desc>
<speed>6.510000</speed>
</trkpt>
<trkpt lat="42.443367" lon="18.753447">
<ele>23.689224</ele>
<time>2012-05-02T13:40:09Z</time>
<desc>lat.=42.443367, lon.=18.753447, Alt.=23.689224m. Speed=19.656000m/h.</desc>
<speed>5.460000</speed>
</trkpt>
<trkpt lat="42.443497" lon="18.753155">
<ele>23.806412</ele>
<time>2012-05-02T13:40:14Z</time>
<desc>lat.=42.443497, lon.=18.753155, Alt.=23.806412m. Speed=19.224001m/h.</desc>
<speed>5.340000</speed>
</trkpt>
<trkpt lat="42.443626" lon="18.752878">
<ele>24.142349</ele>
<time>2012-05-02T13:40:19Z</time>
<desc>lat.=42.443626, lon.=18.752878, Alt.=24.142349m. Speed=20.952000m/h.</desc>
<speed>5.820000</speed>
</trkpt>
<trkpt lat="42.443825" lon="18.752632">
<ele>24.940201</ele>
<time>2012-05-02T13:40:24Z</time>
<desc>lat.=42.443825, lon.=18.752632, Alt.=24.940201m. Speed=21.132000m/h.</desc>
<speed>5.870000</speed>
</trkpt>
<trkpt lat="42.444019" lon="18.752439">
<ele>25.008072</ele>
<time>2012-05-02T13:40:29Z</time>
<desc>lat.=42.444019, lon.=18.752439, Alt.=25.008072m. Speed=18.540001m/h.</desc>
<speed>5.150000</speed>
</trkpt>
<trkpt lat="42.444263" lon="18.752293">
<ele>25.476334</ele>
<time>2012-05-02T13:40:34Z</time>
<desc>lat.=42.444263, lon.=18.752293, Alt.=25.476334m. Speed=24.624001m/h.</desc>
<speed>6.840000</speed>
</trkpt>
<trkpt lat="42.444614" lon="18.752310">
<ele>26.092545</ele>
<time>2012-05-02T13:40:39Z</time>
<desc>lat.=42.444614, lon.=18.752310, Alt.=26.092545m. Speed=24.011999m/h.</desc>
<speed>6.670000</speed>
</trkpt>
<trkpt lat="42.444904" lon="18.752386">
<ele>26.340591</ele>
<time>2012-05-02T13:40:44Z</time>
<desc>lat.=42.444904, lon.=18.752386, Alt.=26.340591m. Speed=25.884001m/h.</desc>
<speed>7.190000</speed>
</trkpt>
<trkpt lat="42.445206" lon="18.752550">
<ele>26.541763</ele>
<time>2012-05-02T13:40:49Z</time>
<desc>lat.=42.445206, lon.=18.752550, Alt.=26.541763m. Speed=27.288000m/h.</desc>
<speed>7.580000</speed>
</trkpt>
<trkpt lat="42.445496" lon="18.752789">
<ele>26.175064</ele>
<time>2012-05-02T13:40:54Z</time>
<desc>lat.=42.445496, lon.=18.752789, Alt.=26.175064m. Speed=25.271999m/h.</desc>
<speed>7.020000</speed>
</trkpt>
<trkpt lat="42.445732" lon="18.753025">
<ele>26.658463</ele>
<time>2012-05-02T13:40:59Z</time>
<desc>lat.=42.445732, lon.=18.753025, Alt.=26.658463m. Speed=22.104000m/h.</desc>
<speed>6.140000</speed>
</trkpt>
<trkpt lat="42.445938" lon="18.753275">
<ele>27.235123</ele>
<time>2012-05-02T13:41:04Z</time>
<desc>lat.=42.445938, lon.=18.753275, Alt.=27.235123m. Speed=18.792000m/h.</desc>
<speed>5.220000</speed>
</trkpt>
<trkpt lat="42.446079" lon="18.753551">
<ele>27.480240</ele>
<time>2012-05-02T13:41:09Z</time>
<desc>lat.=42.446079, lon.=18.753551, Alt.=27.480240m. Speed=20.448000m/h.</desc>
<speed>5.680000</speed>
</trkpt>
<trkpt lat="42.446217" lon="18.753864">
<ele>25.984634</ele>
<time>2012-05-02T13:41:14Z</time>
<desc>lat.=42.446217, lon.=18.753864, Alt.=25.984634m. Speed=24.660000m/h.</desc>
<speed>6.850000</speed>
</trkpt>
<trkpt lat="42.446430" lon="18.754122">
<ele>24.655533</ele>
<time>2012-05-02T13:41:19Z</time>
<desc>lat.=42.446430, lon.=18.754122, Alt.=24.655533m. Speed=23.184000m/h.</desc>
<speed>6.440000</speed>
</trkpt>
<trkpt lat="42.446640" lon="18.754372">
<ele>23.363052</ele>
<time>2012-05-02T13:41:24Z</time>
<desc>lat.=42.446640, lon.=18.754372, Alt.=23.363052m. Speed=23.580000m/h.</desc>
<speed>6.550000</speed>
</trkpt>
<trkpt lat="42.446918" lon="18.754520">
<ele>21.999283</ele>
<time>2012-05-02T13:41:29Z</time>
<desc>lat.=42.446918, lon.=18.754520, Alt.=21.999283m. Speed=24.983999m/h.</desc>
<speed>6.940000</speed>
</trkpt>
<trkpt lat="42.447231" lon="18.754549">
<ele>20.445572</ele>
<time>2012-05-02T13:41:34Z</time>
<desc>lat.=42.447231, lon.=18.754549, Alt.=20.445572m. Speed=24.372000m/h.</desc>
<speed>6.770000</speed>
</trkpt>
<trkpt lat="42.447521" lon="18.754530">
<ele>19.406998</ele>
<time>2012-05-02T13:41:39Z</time>
<desc>lat.=42.447521, lon.=18.754530, Alt.=19.406998m. Speed=23.004000m/h.</desc>
<speed>6.390000</speed>
</trkpt>
<trkpt lat="42.447826" lon="18.754436">
<ele>15.640755</ele>
<time>2012-05-02T13:41:44Z</time>
<desc>lat.=42.447826, lon.=18.754436, Alt.=15.640755m. Speed=22.392000m/h.</desc>
<speed>6.220000</speed>
</trkpt>
<trkpt lat="42.448116" lon="18.754366">
<ele>13.008430</ele>
<time>2012-05-02T13:41:49Z</time>
<desc>lat.=42.448116, lon.=18.754366, Alt.=13.008430m. Speed=22.032000m/h.</desc>
<speed>6.120000</speed>
</trkpt>
<trkpt lat="42.448380" lon="18.754280">
<ele>11.820686</ele>
<time>2012-05-02T13:41:54Z</time>
<desc>lat.=42.448380, lon.=18.754280, Alt.=11.820686m. Speed=22.535999m/h.</desc>
<speed>6.260000</speed>
</trkpt>
<trkpt lat="42.448658" lon="18.754202">
<ele>11.070686</ele>
<time>2012-05-02T13:41:59Z</time>
<desc>lat.=42.448658, lon.=18.754202, Alt.=11.070686m. Speed=18.612000m/h.</desc>
<speed>5.170000</speed>
</trkpt>
<trkpt lat="42.448875" lon="18.754091">
<ele>12.030403</ele>
<time>2012-05-02T13:42:04Z</time>
<desc>lat.=42.448875, lon.=18.754091, Alt.=12.030403m. Speed=20.268000m/h.</desc>
<speed>5.630000</speed>
</trkpt>
<trkpt lat="42.449093" lon="18.753830">
<ele>11.680794</ele>
<time>2012-05-02T13:42:09Z</time>
<desc>lat.=42.449093, lon.=18.753830, Alt.=11.680794m. Speed=22.716000m/h.</desc>
<speed>6.310000</speed>
</trkpt>
<trkpt lat="42.449245" lon="18.753466">
<ele>11.393929</ele>
<time>2012-05-02T13:42:14Z</time>
<desc>lat.=42.449245, lon.=18.753466, Alt.=11.393929m. Speed=24.840000m/h.</desc>
<speed>6.900000</speed>
</trkpt>
<trkpt lat="42.449398" lon="18.753122">
<ele>9.876839</ele>
<time>2012-05-02T13:42:19Z</time>
<desc>lat.=42.449398, lon.=18.753122, Alt.=9.876839m. Speed=22.247999m/h.</desc>
<speed>6.180000</speed>
</trkpt>
<trkpt lat="42.449509" lon="18.752760">
<ele>10.044075</ele>
<time>2012-05-02T13:42:24Z</time>
<desc>lat.=42.449509, lon.=18.752760, Alt.=10.044075m. Speed=24.011999m/h.</desc>
<speed>6.670000</speed>
</trkpt>
<trkpt lat="42.449574" lon="18.752359">
<ele>10.505745</ele>
<time>2012-05-02T13:42:29Z</time>
<desc>lat.=42.449574, lon.=18.752359, Alt.=10.505745m. Speed=22.823999m/h.</desc>
<speed>6.340000</speed>
</trkpt>
<trkpt lat="42.449665" lon="18.751974">
<ele>10.739632</ele>
<time>2012-05-02T13:42:34Z</time>
<desc>lat.=42.449665, lon.=18.751974, Alt.=10.739632m. Speed=24.912001m/h.</desc>
<speed>6.920000</speed>
</trkpt>
<trkpt lat="42.449791" lon="18.751602">
<ele>11.390022</ele>
<time>2012-05-02T13:42:39Z</time>
<desc>lat.=42.449791, lon.=18.751602, Alt.=11.390022m. Speed=23.615999m/h.</desc>
<speed>6.560000</speed>
</trkpt>
<trkpt lat="42.449986" lon="18.751314">
<ele>12.508675</ele>
<time>2012-05-02T13:42:44Z</time>
<desc>lat.=42.449986, lon.=18.751314, Alt.=12.508675m. Speed=22.535999m/h.</desc>
<speed>6.260000</speed>
</trkpt>
<trkpt lat="42.450150" lon="18.751024">
<ele>13.629524</ele>
<time>2012-05-02T13:42:49Z</time>
<desc>lat.=42.450150, lon.=18.751024, Alt.=13.629524m. Speed=23.292000m/h.</desc>
<speed>6.470000</speed>
</trkpt>
<trkpt lat="42.450340" lon="18.750715">
<ele>14.594612</ele>
<time>2012-05-02T13:42:54Z</time>
<desc>lat.=42.450340, lon.=18.750715, Alt.=14.594612m. Speed=22.176001m/h.</desc>
<speed>6.160000</speed>
</trkpt>
<trkpt lat="42.450577" lon="18.750477">
<ele>15.509651</ele>
<time>2012-05-02T13:42:59Z</time>
<desc>lat.=42.450577, lon.=18.750477, Alt.=15.509651m. Speed=22.572001m/h.</desc>
<speed>6.270000</speed>
</trkpt>
<trkpt lat="42.450813" lon="18.750244">
<ele>16.394791</ele>
<time>2012-05-02T13:43:04Z</time>
<desc>lat.=42.450813, lon.=18.750244, Alt.=16.394791m. Speed=23.219999m/h.</desc>
<speed>6.450000</speed>
</trkpt>
<trkpt lat="42.451054" lon="18.750063">
<ele>17.039322</ele>
<time>2012-05-02T13:43:09Z</time>
<desc>lat.=42.451054, lon.=18.750063, Alt.=17.039322m. Speed=18.972000m/h.</desc>
<speed>5.270000</speed>
</trkpt>
<trkpt lat="42.451195" lon="18.749996">
<ele>17.814713</ele>
<time>2012-05-02T13:43:14Z</time>
<desc>lat.=42.451195, lon.=18.749996, Alt.=17.814713m. Speed=16.704000m/h.</desc>
<speed>4.640000</speed>
</trkpt>
<trkpt lat="42.451542" lon="18.749893">
<ele>19.492935</ele>
<time>2012-05-02T13:43:19Z</time>
<desc>lat.=42.451542, lon.=18.749893, Alt.=19.492935m. Speed=20.879999m/h.</desc>
<speed>5.800000</speed>
</trkpt>
<trkpt lat="42.451847" lon="18.749903">
<ele>21.409927</ele>
<time>2012-05-02T13:43:24Z</time>
<desc>lat.=42.451847, lon.=18.749903, Alt.=21.409927m. Speed=20.736000m/h.</desc>
<speed>5.760000</speed>
</trkpt>
<trkpt lat="42.452106" lon="18.749861">
<ele>25.056412</ele>
<time>2012-05-02T13:43:29Z</time>
<desc>lat.=42.452106, lon.=18.749861, Alt.=25.056412m. Speed=17.820000m/h.</desc>
<speed>4.950000</speed>
</trkpt>
<trkpt lat="42.452389" lon="18.749676">
<ele>28.866470</ele>
<time>2012-05-02T13:43:34Z</time>
<desc>lat.=42.452389, lon.=18.749676, Alt.=28.866470m. Speed=20.268000m/h.</desc>
<speed>5.630000</speed>
</trkpt>
<trkpt lat="42.452629" lon="18.749365">
<ele>30.769302</ele>
<time>2012-05-02T13:43:39Z</time>
<desc>lat.=42.452629, lon.=18.749365, Alt.=30.769302m. Speed=21.888000m/h.</desc>
<speed>6.080000</speed>
</trkpt>
<trkpt lat="42.452839" lon="18.749044">
<ele>32.145050</ele>
<time>2012-05-02T13:43:44Z</time>
<desc>lat.=42.452839, lon.=18.749044, Alt.=32.145050m. Speed=22.104000m/h.</desc>
<speed>6.140000</speed>
</trkpt>
<trkpt lat="42.453049" lon="18.748850">
<ele>34.917511</ele>
<time>2012-05-02T13:43:49Z</time>
<desc>lat.=42.453049, lon.=18.748850, Alt.=34.917511m. Speed=20.160000m/h.</desc>
<speed>5.600000</speed>
</trkpt>
<trkpt lat="42.453331" lon="18.748749">
<ele>38.297394</ele>
<time>2012-05-02T13:43:54Z</time>
<desc>lat.=42.453331, lon.=18.748749, Alt.=38.297394m. Speed=24.444000m/h.</desc>
<speed>6.790000</speed>
</trkpt>
<trkpt lat="42.453621" lon="18.748684">
<ele>41.019073</ele>
<time>2012-05-02T13:43:59Z</time>
<desc>lat.=42.453621, lon.=18.748684, Alt.=41.019073m. Speed=21.420000m/h.</desc>
<speed>5.950000</speed>
</trkpt>
<trkpt lat="42.453911" lon="18.748549">
<ele>44.244659</ele>
<time>2012-05-02T13:44:04Z</time>
<desc>lat.=42.453911, lon.=18.748549, Alt.=44.244659m. Speed=24.660000m/h.</desc>
<speed>6.850000</speed>
</trkpt>
<trkpt lat="42.454159" lon="18.748354">
<ele>47.839386</ele>
<time>2012-05-02T13:44:09Z</time>
<desc>lat.=42.454159, lon.=18.748354, Alt.=47.839386m. Speed=25.416000m/h.</desc>
<speed>7.060000</speed>
</trkpt>
<trkpt lat="42.454399" lon="18.748085">
<ele>51.205597</ele>
<time>2012-05-02T13:44:14Z</time>
<desc>lat.=42.454399, lon.=18.748085, Alt.=51.205597m. Speed=22.716000m/h.</desc>
<speed>6.310000</speed>
</trkpt>
<trkpt lat="42.454712" lon="18.748089">
<ele>54.514191</ele>
<time>2012-05-02T13:44:19Z</time>
<desc>lat.=42.454712, lon.=18.748089, Alt.=54.514191m. Speed=26.208000m/h.</desc>
<speed>7.280000</speed>
</trkpt>
<trkpt lat="42.454945" lon="18.747950">
<ele>56.584503</ele>
<time>2012-05-02T13:44:24Z</time>
<desc>lat.=42.454945, lon.=18.747950, Alt.=56.584503m. Speed=3.744000m/h.</desc>
<speed>1.040000</speed>
</trkpt>
<trkpt lat="42.454990" lon="18.747950">
<ele>55.000519</ele>
<time>2012-05-02T13:44:29Z</time>
<desc>lat.=42.454990, lon.=18.747950, Alt.=55.000519m. Speed=1.368000m/h.</desc>
<speed>0.380000</speed>
</trkpt>
<trkpt lat="42.455006" lon="18.747944">
<ele>55.772980</ele>
<time>2012-05-02T13:44:34Z</time>
<desc>lat.=42.455006, lon.=18.747944, Alt.=55.772980m. Speed=0.972000m/h.</desc>
<speed>0.270000</speed>
</trkpt>
<trkpt lat="42.455013" lon="18.747936">
<ele>56.203644</ele>
<time>2012-05-02T13:44:39Z</time>
<desc>lat.=42.455013, lon.=18.747936, Alt.=56.203644m. Speed=1.404000m/h.</desc>
<speed>0.390000</speed>
</trkpt>
<trkpt lat="42.455040" lon="18.747927">
<ele>56.343292</ele>
<time>2012-05-02T13:44:44Z</time>
<desc>lat.=42.455040, lon.=18.747927, Alt.=56.343292m. Speed=2.700000m/h.</desc>
<speed>0.750000</speed>
</trkpt>
<trkpt lat="42.455067" lon="18.747913">
<ele>56.480011</ele>
<time>2012-05-02T13:44:49Z</time>
<desc>lat.=42.455067, lon.=18.747913, Alt.=56.480011m. Speed=2.340000m/h.</desc>
<speed>0.650000</speed>
</trkpt>
<trkpt lat="42.455093" lon="18.747904">
<ele>56.557159</ele>
<time>2012-05-02T13:44:54Z</time>
<desc>lat.=42.455093, lon.=18.747904, Alt.=56.557159m. Speed=2.412000m/h.</desc>
<speed>0.670000</speed>
</trkpt>
<trkpt lat="42.455116" lon="18.747911">
<ele>56.614777</ele>
<time>2012-05-02T13:44:59Z</time>
<desc>lat.=42.455116, lon.=18.747911, Alt.=56.614777m. Speed=0.612000m/h.</desc>
<speed>0.170000</speed>
</trkpt>
<trkpt lat="42.455063" lon="18.747875">
<ele>56.670441</ele>
<time>2012-05-02T13:45:04Z</time>
<desc>lat.=42.455063, lon.=18.747875, Alt.=56.670441m. Speed=4.212000m/h.</desc>
<speed>1.170000</speed>
</trkpt>
<trkpt lat="42.455025" lon="18.747869">
<ele>56.361847</ele>
<time>2012-05-02T13:45:09Z</time>
<desc>lat.=42.455025, lon.=18.747869, Alt.=56.361847m. Speed=2.592000m/h.</desc>
<speed>0.720000</speed>
</trkpt>
<trkpt lat="42.455021" lon="18.747900">
<ele>56.223175</ele>
<time>2012-05-02T13:45:14Z</time>
<desc>lat.=42.455021, lon.=18.747900, Alt.=56.223175m. Speed=1.728000m/h.</desc>
<speed>0.480000</speed>
</trkpt>
<trkpt lat="42.455029" lon="18.747917">
<ele>56.092316</ele>
<time>2012-05-02T13:45:19Z</time>
<desc>lat.=42.455029, lon.=18.747917, Alt.=56.092316m. Speed=0.792000m/h.</desc>
<speed>0.220000</speed>
</trkpt>
<trkpt lat="42.455025" lon="18.747919">
<ele>56.041534</ele>
<time>2012-05-02T13:45:24Z</time>
<desc>lat.=42.455025, lon.=18.747919, Alt.=56.041534m. Speed=0.252000m/h.</desc>
<speed>0.070000</speed>
</trkpt>
<trkpt lat="42.455029" lon="18.747925">
<ele>56.033722</ele>
<time>2012-05-02T13:45:29Z</time>
<desc>lat.=42.455029, lon.=18.747925, Alt.=56.033722m. Speed=0.468000m/h.</desc>
<speed>0.130000</speed>
</trkpt>
<trkpt lat="42.455082" lon="18.747948">
<ele>55.911652</ele>
<time>2012-05-02T13:45:34Z</time>
<desc>lat.=42.455082, lon.=18.747948, Alt.=55.911652m. Speed=1.656000m/h.</desc>
<speed>0.460000</speed>
</trkpt>
<trkpt lat="42.455070" lon="18.747959">
<ele>55.689972</ele>
<time>2012-05-02T13:45:39Z</time>
<desc>lat.=42.455070, lon.=18.747959, Alt.=55.689972m. Speed=0.792000m/h.</desc>
<speed>0.220000</speed>
</trkpt>
<trkpt lat="42.455074" lon="18.747969">
<ele>55.680206</ele>
<time>2012-05-02T13:45:44Z</time>
<desc>lat.=42.455074, lon.=18.747969, Alt.=55.680206m. Speed=0.936000m/h.</desc>
<speed>0.260000</speed>
</trkpt>
<trkpt lat="42.455078" lon="18.747978">
<ele>55.671417</ele>
<time>2012-05-02T13:45:49Z</time>
<desc>lat.=42.455078, lon.=18.747978, Alt.=55.671417m. Speed=0.396000m/h.</desc>
<speed>0.110000</speed>
</trkpt>
<trkpt lat="42.455082" lon="18.747980">
<ele>55.664581</ele>
<time>2012-05-02T13:45:54Z</time>
<desc>lat.=42.455082, lon.=18.747980, Alt.=55.664581m. Speed=0.360000m/h.</desc>
<speed>0.100000</speed>
</trkpt>
<trkpt lat="42.455074" lon="18.747972">
<ele>55.651886</ele>
<time>2012-05-02T13:45:59Z</time>
<desc>lat.=42.455074, lon.=18.747972, Alt.=55.651886m. Speed=0.972000m/h.</desc>
<speed>0.270000</speed>
</trkpt>
<trkpt lat="42.455074" lon="18.747965">
<ele>55.631378</ele>
<time>2012-05-02T13:46:04Z</time>
<desc>lat.=42.455074, lon.=18.747965, Alt.=55.631378m. Speed=0.252000m/h.</desc>
<speed>0.070000</speed>
</trkpt>
<trkpt lat="42.455078" lon="18.747963">
<ele>55.598175</ele>
<time>2012-05-02T13:46:09Z</time>
<desc>lat.=42.455078, lon.=18.747963, Alt.=55.598175m. Speed=0.252000m/h.</desc>
<speed>0.070000</speed>
</trkpt>
<trkpt lat="42.455082" lon="18.747959">
<ele>55.572784</ele>
<time>2012-05-02T13:46:14Z</time>
<desc>lat.=42.455082, lon.=18.747959, Alt.=55.572784m. Speed=0.216000m/h.</desc>
<speed>0.060000</speed>
</trkpt>
<trkpt lat="42.455082" lon="18.747963">
<ele>55.559113</ele>
<time>2012-05-02T13:46:19Z</time>
<desc>lat.=42.455082, lon.=18.747963, Alt.=55.559113m. Speed=0.468000m/h.</desc>
<speed>0.130000</speed>
</trkpt>
<trkpt lat="42.455093" lon="18.747961">
<ele>55.532745</ele>
<time>2012-05-02T13:46:24Z</time>
<desc>lat.=42.455093, lon.=18.747961, Alt.=55.532745m. Speed=0.576000m/h.</desc>
<speed>0.160000</speed>
</trkpt>
<trkpt lat="42.455093" lon="18.747959">
<ele>55.498566</ele>
<time>2012-05-02T13:46:29Z</time>
<desc>lat.=42.455093, lon.=18.747959, Alt.=55.498566m. Speed=0.144000m/h.</desc>
<speed>0.040000</speed>
</trkpt>
<trkpt lat="42.455093" lon="18.747961">
<ele>55.476105</ele>
<time>2012-05-02T13:46:34Z</time>
<desc>lat.=42.455093, lon.=18.747961, Alt.=55.476105m. Speed=0.252000m/h.</desc>
<speed>0.070000</speed>
</trkpt>
<trkpt lat="42.455093" lon="18.747957">
<ele>55.459503</ele>
<time>2012-05-02T13:46:39Z</time>
<desc>lat.=42.455093, lon.=18.747957, Alt.=55.459503m. Speed=0.324000m/h.</desc>
<speed>0.090000</speed>
</trkpt>
<trkpt lat="42.455093" lon="18.747957">
<ele>55.442902</ele>
<time>2012-05-02T13:46:44Z</time>
<desc>lat.=42.455093, lon.=18.747957, Alt.=55.442902m. Speed=0.144000m/h.</desc>
<speed>0.040000</speed>
</trkpt>
<trkpt lat="42.455093" lon="18.747961">
<ele>55.427277</ele>
<time>2012-05-02T13:46:49Z</time>
<desc>lat.=42.455093, lon.=18.747961, Alt.=55.427277m. Speed=0.252000m/h.</desc>
<speed>0.070000</speed>
</trkpt>
<trkpt lat="42.455097" lon="18.747963">
<ele>55.411652</ele>
<time>2012-05-02T13:46:54Z</time>
<desc>lat.=42.455097, lon.=18.747963, Alt.=55.411652m. Speed=1.080000m/h.</desc>
<speed>0.300000</speed>
</trkpt>
<trkpt lat="42.455101" lon="18.747938">
<ele>54.869659</ele>
<time>2012-05-02T13:46:59Z</time>
<desc>lat.=42.455101, lon.=18.747938, Alt.=54.869659m. Speed=0.720000m/h.</desc>
<speed>0.200000</speed>
</trkpt>
<trkpt lat="42.455109" lon="18.747944">
<ele>54.830597</ele>
<time>2012-05-02T13:47:04Z</time>
<desc>lat.=42.455109, lon.=18.747944, Alt.=54.830597m. Speed=0.360000m/h.</desc>
<speed>0.100000</speed>
</trkpt>
<trkpt lat="42.455105" lon="18.747942">
<ele>54.791534</ele>
<time>2012-05-02T13:47:09Z</time>
<desc>lat.=42.455105, lon.=18.747942, Alt.=54.791534m. Speed=0.864000m/h.</desc>
<speed>0.240000</speed>
</trkpt>
<trkpt lat="42.455093" lon="18.747936">
<ele>54.743683</ele>
<time>2012-05-02T13:47:14Z</time>
<desc>lat.=42.455093, lon.=18.747936, Alt.=54.743683m. Speed=0.072000m/h.</desc>
<speed>0.020000</speed>
</trkpt>
<trkpt lat="42.455097" lon="18.747936">
<ele>54.687042</ele>
<time>2012-05-02T13:47:19Z</time>
<desc>lat.=42.455097, lon.=18.747936, Alt.=54.687042m. Speed=0.180000m/h.</desc>
<speed>0.050000</speed>
</trkpt>
<trkpt lat="42.455101" lon="18.747936">
<ele>54.638214</ele>
<time>2012-05-02T13:47:24Z</time>
<desc>lat.=42.455101, lon.=18.747936, Alt.=54.638214m. Speed=0.324000m/h.</desc>
<speed>0.090000</speed>
</trkpt>
<trkpt lat="42.455097" lon="18.747942">
<ele>54.609894</ele>
<time>2012-05-02T13:47:29Z</time>
<desc>lat.=42.455097, lon.=18.747942, Alt.=54.609894m. Speed=0.144000m/h.</desc>
<speed>0.040000</speed>
</trkpt>
<trkpt lat="42.455097" lon="18.747946">
<ele>54.570831</ele>
<time>2012-05-02T13:47:34Z</time>
<desc>lat.=42.455097, lon.=18.747946, Alt.=54.570831m. Speed=0.504000m/h.</desc>
<speed>0.140000</speed>
</trkpt>
<trkpt lat="42.455101" lon="18.747948">
<ele>54.525909</ele>
<time>2012-05-02T13:47:39Z</time>
<desc>lat.=42.455101, lon.=18.747948, Alt.=54.525909m. Speed=0.468000m/h.</desc>
<speed>0.130000</speed>
</trkpt>
<trkpt lat="42.455105" lon="18.747950">
<ele>54.480988</ele>
<time>2012-05-02T13:47:44Z</time>
<desc>lat.=42.455105, lon.=18.747950, Alt.=54.480988m. Speed=0.288000m/h.</desc>
<speed>0.080000</speed>
</trkpt>
<trkpt lat="42.455105" lon="18.747953">
<ele>54.445831</ele>
<time>2012-05-02T13:47:49Z</time>
<desc>lat.=42.455105, lon.=18.747953, Alt.=54.445831m. Speed=0.612000m/h.</desc>
<speed>0.170000</speed>
</trkpt>
<trkpt lat="42.455132" lon="18.747944">
<ele>53.924347</ele>
<time>2012-05-02T13:47:54Z</time>
<desc>lat.=42.455132, lon.=18.747944, Alt.=53.924347m. Speed=0.828000m/h.</desc>
<speed>0.230000</speed>
</trkpt>
<trkpt lat="42.455132" lon="18.747942">
<ele>53.178253</ele>
<time>2012-05-02T13:47:59Z</time>
<desc>lat.=42.455132, lon.=18.747942, Alt.=53.178253m. Speed=0.288000m/h.</desc>
<speed>0.080000</speed>
</trkpt>
<trkpt lat="42.455135" lon="18.747940">
<ele>53.086456</ele>
<time>2012-05-02T13:48:04Z</time>
<desc>lat.=42.455135, lon.=18.747940, Alt.=53.086456m. Speed=0.216000m/h.</desc>
<speed>0.060000</speed>
</trkpt>
<trkpt lat="42.455135" lon="18.747940">
<ele>53.005402</ele>
<time>2012-05-02T13:48:09Z</time>
<desc>lat.=42.455135, lon.=18.747940, Alt.=53.005402m. Speed=0.216000m/h.</desc>
<speed>0.060000</speed>
</trkpt>
<trkpt lat="42.455139" lon="18.747938">
<ele>52.904816</ele>
<time>2012-05-02T13:48:14Z</time>
<desc>lat.=42.455139, lon.=18.747938, Alt.=52.904816m. Speed=0.216000m/h.</desc>
<speed>0.060000</speed>
</trkpt>
<trkpt lat="42.455143" lon="18.747944">
<ele>52.803253</ele>
<time>2012-05-02T13:48:19Z</time>
<desc>lat.=42.455143, lon.=18.747944, Alt.=52.803253m. Speed=0.360000m/h.</desc>
<speed>0.100000</speed>
</trkpt>
<trkpt lat="42.455147" lon="18.747946">
<ele>52.742706</ele>
<time>2012-05-02T13:48:24Z</time>
<desc>lat.=42.455147, lon.=18.747946, Alt.=52.742706m. Speed=0.540000m/h.</desc>
<speed>0.150000</speed>
</trkpt>
<trkpt lat="42.455154" lon="18.747946">
<ele>52.664581</ele>
<time>2012-05-02T13:48:29Z</time>
<desc>lat.=42.455154, lon.=18.747946, Alt.=52.664581m. Speed=0.468000m/h.</desc>
<speed>0.130000</speed>
</trkpt>
<trkpt lat="42.455158" lon="18.747946">
<ele>52.570831</ele>
<time>2012-05-02T13:48:34Z</time>
<desc>lat.=42.455158, lon.=18.747946, Alt.=52.570831m. Speed=0.108000m/h.</desc>
<speed>0.030000</speed>
</trkpt>
<trkpt lat="42.455158" lon="18.747948">
<ele>52.365753</ele>
<time>2012-05-02T13:48:39Z</time>
<desc>lat.=42.455158, lon.=18.747948, Alt.=52.365753m. Speed=0.144000m/h.</desc>
<speed>0.040000</speed>
</trkpt>
<trkpt lat="42.455154" lon="18.747950">
<ele>52.180206</ele>
<time>2012-05-02T13:48:44Z</time>
<desc>lat.=42.455154, lon.=18.747950, Alt.=52.180206m. Speed=0.108000m/h.</desc>
<speed>0.030000</speed>
</trkpt>
<trkpt lat="42.455154" lon="18.747955">
<ele>52.017120</ele>
<time>2012-05-02T13:48:49Z</time>
<desc>lat.=42.455154, lon.=18.747955, Alt.=52.017120m. Speed=0.468000m/h.</desc>
<speed>0.130000</speed>
</trkpt>
<trkpt lat="42.455154" lon="18.747957">
<ele>51.889191</ele>
<time>2012-05-02T13:48:54Z</time>
<desc>lat.=42.455154, lon.=18.747957, Alt.=51.889191m. Speed=0.432000m/h.</desc>
<speed>0.120000</speed>
</trkpt>
<trkpt lat="42.455162" lon="18.747961">
<ele>51.770050</ele>
<time>2012-05-02T13:48:59Z</time>
<desc>lat.=42.455162, lon.=18.747961, Alt.=51.770050m. Speed=0.612000m/h.</desc>
<speed>0.170000</speed>
</trkpt>
<trkpt lat="42.455170" lon="18.747959">
<ele>51.657745</ele>
<time>2012-05-02T13:49:04Z</time>
<desc>lat.=42.455170, lon.=18.747959, Alt.=51.657745m. Speed=0.792000m/h.</desc>
<speed>0.220000</speed>
</trkpt>
<trkpt lat="42.455177" lon="18.747963">
<ele>51.502472</ele>
<time>2012-05-02T13:49:09Z</time>
<desc>lat.=42.455177, lon.=18.747963, Alt.=51.502472m. Speed=0.504000m/h.</desc>
<speed>0.140000</speed>
</trkpt>
<trkpt lat="42.455181" lon="18.747965">
<ele>51.379425</ele>
<time>2012-05-02T13:49:14Z</time>
<desc>lat.=42.455181, lon.=18.747965, Alt.=51.379425m. Speed=0.360000m/h.</desc>
<speed>0.100000</speed>
</trkpt>
<trkpt lat="42.455185" lon="18.747969">
<ele>51.268097</ele>
<time>2012-05-02T13:49:19Z</time>
<desc>lat.=42.455185, lon.=18.747969, Alt.=51.268097m. Speed=0.468000m/h.</desc>
<speed>0.130000</speed>
</trkpt>
<trkpt lat="42.455185" lon="18.747972">
<ele>51.153839</ele>
<time>2012-05-02T13:49:24Z</time>
<desc>lat.=42.455185, lon.=18.747972, Alt.=51.153839m. Speed=0.324000m/h.</desc>
<speed>0.090000</speed>
</trkpt>
<trkpt lat="42.455189" lon="18.747972">
<ele>50.979034</ele>
<time>2012-05-02T13:49:29Z</time>
<desc>lat.=42.455189, lon.=18.747972, Alt.=50.979034m. Speed=0.468000m/h.</desc>
<speed>0.130000</speed>
</trkpt>
<trkpt lat="42.455193" lon="18.747974">
<ele>50.727081</ele>
<time>2012-05-02T13:49:34Z</time>
<desc>lat.=42.455193, lon.=18.747974, Alt.=50.727081m. Speed=0.360000m/h.</desc>
<speed>0.100000</speed>
</trkpt>
<trkpt lat="42.455196" lon="18.747974">
<ele>50.500519</ele>
<time>2012-05-02T13:49:39Z</time>
<desc>lat.=42.455196, lon.=18.747974, Alt.=50.500519m. Speed=0.720000m/h.</desc>
<speed>0.200000</speed>
</trkpt>
<trkpt lat="42.455204" lon="18.747974">
<ele>50.191925</ele>
<time>2012-05-02T13:49:44Z</time>
<desc>lat.=42.455204, lon.=18.747974, Alt.=50.191925m. Speed=0.720000m/h.</desc>
<speed>0.200000</speed>
</trkpt>
<trkpt lat="42.455208" lon="18.747976">
<ele>49.825714</ele>
<time>2012-05-02T13:49:49Z</time>
<desc>lat.=42.455208, lon.=18.747976, Alt.=49.825714m. Speed=0.324000m/h.</desc>
<speed>0.090000</speed>
</trkpt>
<trkpt lat="42.455204" lon="18.747978">
<ele>49.612823</ele>
<time>2012-05-02T13:49:54Z</time>
<desc>lat.=42.455204, lon.=18.747978, Alt.=49.612823m. Speed=0.252000m/h.</desc>
<speed>0.070000</speed>
</trkpt>
<trkpt lat="42.455208" lon="18.747980">
<ele>49.462433</ele>
<time>2012-05-02T13:49:59Z</time>
<desc>lat.=42.455208, lon.=18.747980, Alt.=49.462433m. Speed=0.360000m/h.</desc>
<speed>0.100000</speed>
</trkpt>
<trkpt lat="42.455212" lon="18.747980">
<ele>49.348175</ele>
<time>2012-05-02T13:50:04Z</time>
<desc>lat.=42.455212, lon.=18.747980, Alt.=49.348175m. Speed=0.432000m/h.</desc>
<speed>0.120000</speed>
</trkpt>
<trkpt lat="42.455212" lon="18.747972">
<ele>49.232941</ele>
<time>2012-05-02T13:50:09Z</time>
<desc>lat.=42.455212, lon.=18.747972, Alt.=49.232941m. Speed=0.180000m/h.</desc>
<speed>0.050000</speed>
</trkpt>
<trkpt lat="42.455212" lon="18.747974">
<ele>49.116730</ele>
<time>2012-05-02T13:50:14Z</time>
<desc>lat.=42.455212, lon.=18.747974, Alt.=49.116730m. Speed=0.144000m/h.</desc>
<speed>0.040000</speed>
</trkpt>
<trkpt lat="42.455212" lon="18.747972">
<ele>49.032745</ele>
<time>2012-05-02T13:50:19Z</time>
<desc>lat.=42.455212, lon.=18.747972, Alt.=49.032745m. Speed=0.396000m/h.</desc>
<speed>0.110000</speed>
</trkpt>
<trkpt lat="42.455212" lon="18.747972">
<ele>48.968292</ele>
<time>2012-05-02T13:50:24Z</time>
<desc>lat.=42.455212, lon.=18.747972, Alt.=48.968292m. Speed=0.396000m/h.</desc>
<speed>0.110000</speed>
</trkpt>
<trkpt lat="42.455215" lon="18.747978">
<ele>48.920441</ele>
<time>2012-05-02T13:50:29Z</time>
<desc>lat.=42.455215, lon.=18.747978, Alt.=48.920441m. Speed=0.288000m/h.</desc>
<speed>0.080000</speed>
</trkpt>
<trkpt lat="42.455219" lon="18.747982">
<ele>48.875519</ele>
<time>2012-05-02T13:50:34Z</time>
<desc>lat.=42.455219, lon.=18.747982, Alt.=48.875519m. Speed=0.216000m/h.</desc>
<speed>0.060000</speed>
</trkpt>
<trkpt lat="42.455215" lon="18.747984">
<ele>48.833527</ele>
<time>2012-05-02T13:50:39Z</time>
<desc>lat.=42.455215, lon.=18.747984, Alt.=48.833527m. Speed=0.324000m/h.</desc>
<speed>0.090000</speed>
</trkpt>
<trkpt lat="42.455215" lon="18.747988">
<ele>48.792511</ele>
<time>2012-05-02T13:50:44Z</time>
<desc>lat.=42.455215, lon.=18.747988, Alt.=48.792511m. Speed=0.288000m/h.</desc>
<speed>0.080000</speed>
</trkpt>
<trkpt lat="42.455215" lon="18.747988">
<ele>48.746613</ele>
<time>2012-05-02T13:50:49Z</time>
<desc>lat.=42.455215, lon.=18.747988, Alt.=48.746613m. Speed=0.144000m/h.</desc>
<speed>0.040000</speed>
</trkpt>
<trkpt lat="42.455212" lon="18.747990">
<ele>48.703644</ele>
<time>2012-05-02T13:50:54Z</time>
<desc>lat.=42.455212, lon.=18.747990, Alt.=48.703644m. Speed=0.396000m/h.</desc>
<speed>0.110000</speed>
</trkpt>
<trkpt lat="42.455215" lon="18.747992">
<ele>48.643097</ele>
<time>2012-05-02T13:50:59Z</time>
<desc>lat.=42.455215, lon.=18.747992, Alt.=48.643097m. Speed=0.108000m/h.</desc>
<speed>0.030000</speed>
</trkpt>
<trkpt lat="42.455219" lon="18.747990">
<ele>48.580597</ele>
<time>2012-05-02T13:51:04Z</time>
<desc>lat.=42.455219, lon.=18.747990, Alt.=48.580597m. Speed=0.216000m/h.</desc>
<speed>0.060000</speed>
</trkpt>
<trkpt lat="42.455223" lon="18.747993">
<ele>48.512238</ele>
<time>2012-05-02T13:51:09Z</time>
<desc>lat.=42.455223, lon.=18.747993, Alt.=48.512238m. Speed=0.792000m/h.</desc>
<speed>0.220000</speed>
</trkpt>
<trkpt lat="42.455231" lon="18.747997">
<ele>48.476105</ele>
<time>2012-05-02T13:51:14Z</time>
<desc>lat.=42.455231, lon.=18.747997, Alt.=48.476105m. Speed=0.468000m/h.</desc>
<speed>0.130000</speed>
</trkpt>
<trkpt lat="42.455235" lon="18.747999">
<ele>48.438019</ele>
<time>2012-05-02T13:51:19Z</time>
<desc>lat.=42.455235, lon.=18.747999, Alt.=48.438019m. Speed=0.396000m/h.</desc>
<speed>0.110000</speed>
</trkpt>
<trkpt lat="42.455238" lon="18.747999">
<ele>48.390167</ele>
<time>2012-05-02T13:51:24Z</time>
<desc>lat.=42.455238, lon.=18.747999, Alt.=48.390167m. Speed=0.396000m/h.</desc>
<speed>0.110000</speed>
</trkpt>
<trkpt lat="42.455242" lon="18.747999">
<ele>48.355988</ele>
<time>2012-05-02T13:51:29Z</time>
<desc>lat.=42.455242, lon.=18.747999, Alt.=48.355988m. Speed=0.360000m/h.</desc>
<speed>0.100000</speed>
</trkpt>
<trkpt lat="42.455246" lon="18.747993">
<ele>48.325714</ele>
<time>2012-05-02T13:51:34Z</time>
<desc>lat.=42.455246, lon.=18.747993, Alt.=48.325714m. Speed=0.612000m/h.</desc>
<speed>0.170000</speed>
</trkpt>
<trkpt lat="42.455246" lon="18.747982">
<ele>48.288605</ele>
<time>2012-05-02T13:51:39Z</time>
<desc>lat.=42.455246, lon.=18.747982, Alt.=48.288605m. Speed=0.792000m/h.</desc>
<speed>0.220000</speed>
</trkpt>
<trkpt lat="42.455254" lon="18.747974">
<ele>48.268097</ele>
<time>2012-05-02T13:51:44Z</time>
<desc>lat.=42.455254, lon.=18.747974, Alt.=48.268097m. Speed=0.540000m/h.</desc>
<speed>0.150000</speed>
</trkpt>
<trkpt lat="42.455257" lon="18.747972">
<ele>48.250519</ele>
<time>2012-05-02T13:51:49Z</time>
<desc>lat.=42.455257, lon.=18.747972, Alt.=48.250519m. Speed=0.288000m/h.</desc>
<speed>0.080000</speed>
</trkpt>
<trkpt lat="42.455254" lon="18.747969">
<ele>48.228058</ele>
<time>2012-05-02T13:51:54Z</time>
<desc>lat.=42.455254, lon.=18.747969, Alt.=48.228058m. Speed=0.252000m/h.</desc>
<speed>0.070000</speed>
</trkpt>
<trkpt lat="42.455250" lon="18.747974">
<ele>48.207550</ele>
<time>2012-05-02T13:51:59Z</time>
<desc>lat.=42.455250, lon.=18.747974, Alt.=48.207550m. Speed=0.792000m/h.</desc>
<speed>0.220000</speed>
</trkpt>
<trkpt lat="42.455246" lon="18.747978">
<ele>48.184113</ele>
<time>2012-05-02T13:52:04Z</time>
<desc>lat.=42.455246, lon.=18.747978, Alt.=48.184113m. Speed=0.144000m/h.</desc>
<speed>0.040000</speed>
</trkpt>
<trkpt lat="42.455242" lon="18.747978">
<ele>48.154816</ele>
<time>2012-05-02T13:52:09Z</time>
<desc>lat.=42.455242, lon.=18.747978, Alt.=48.154816m. Speed=0.324000m/h.</desc>
<speed>0.090000</speed>
</trkpt>
<trkpt lat="42.455238" lon="18.747986">
<ele>48.128448</ele>
<time>2012-05-02T13:52:14Z</time>
<desc>lat.=42.455238, lon.=18.747986, Alt.=48.128448m. Speed=0.468000m/h.</desc>
<speed>0.130000</speed>
</trkpt>
<trkpt lat="42.455235" lon="18.747995">
<ele>48.108917</ele>
<time>2012-05-02T13:52:19Z</time>
<desc>lat.=42.455235, lon.=18.747995, Alt.=48.108917m. Speed=1.116000m/h.</desc>
<speed>0.310000</speed>
</trkpt>
<trkpt lat="42.455215" lon="18.747990">
<ele>47.983917</ele>
<time>2012-05-02T13:52:24Z</time>
<desc>lat.=42.455215, lon.=18.747990, Alt.=47.983917m. Speed=0.756000m/h.</desc>
<speed>0.210000</speed>
</trkpt>
<trkpt lat="42.455215" lon="18.747993">
<ele>47.966339</ele>
<time>2012-05-02T13:52:29Z</time>
<desc>lat.=42.455215, lon.=18.747993, Alt.=47.966339m. Speed=0.180000m/h.</desc>
<speed>0.050000</speed>
</trkpt>
<trkpt lat="42.455215" lon="18.747988">
<ele>47.951691</ele>
<time>2012-05-02T13:52:34Z</time>
<desc>lat.=42.455215, lon.=18.747988, Alt.=47.951691m. Speed=0.252000m/h.</desc>
<speed>0.070000</speed>
</trkpt>
<trkpt lat="42.455215" lon="18.747995">
<ele>47.941925</ele>
<time>2012-05-02T13:52:39Z</time>
<desc>lat.=42.455215, lon.=18.747995, Alt.=47.941925m. Speed=0.900000m/h.</desc>
<speed>0.250000</speed>
</trkpt>
<trkpt lat="42.455196" lon="18.748018">
<ele>47.875519</ele>
<time>2012-05-02T13:52:44Z</time>
<desc>lat.=42.455196, lon.=18.748018, Alt.=47.875519m. Speed=1.296000m/h.</desc>
<speed>0.360000</speed>
</trkpt>
<trkpt lat="42.455189" lon="18.748039">
<ele>47.611847</ele>
<time>2012-05-02T13:52:49Z</time>
<desc>lat.=42.455189, lon.=18.748039, Alt.=47.611847m. Speed=0.612000m/h.</desc>
<speed>0.170000</speed>
</trkpt>
<trkpt lat="42.455173" lon="18.748077">
<ele>47.557159</ele>
<time>2012-05-02T13:52:54Z</time>
<desc>lat.=42.455173, lon.=18.748077, Alt.=47.557159m. Speed=1.692000m/h.</desc>
<speed>0.470000</speed>
</trkpt>
<trkpt lat="42.455162" lon="18.748110">
<ele>47.606964</ele>
<time>2012-05-02T13:52:59Z</time>
<desc>lat.=42.455162, lon.=18.748110, Alt.=47.606964m. Speed=1.188000m/h.</desc>
<speed>0.330000</speed>
</trkpt>
<trkpt lat="42.455162" lon="18.748123">
<ele>47.614777</ele>
<time>2012-05-02T13:53:04Z</time>
<desc>lat.=42.455162, lon.=18.748123, Alt.=47.614777m. Speed=0.468000m/h.</desc>
<speed>0.130000</speed>
</trkpt>
<trkpt lat="42.455158" lon="18.748142">
<ele>47.688995</ele>
<time>2012-05-02T13:53:09Z</time>
<desc>lat.=42.455158, lon.=18.748142, Alt.=47.688995m. Speed=1.872000m/h.</desc>
<speed>0.520000</speed>
</trkpt>
<trkpt lat="42.455139" lon="18.748159">
<ele>47.777863</ele>
<time>2012-05-02T13:53:14Z</time>
<desc>lat.=42.455139, lon.=18.748159, Alt.=47.777863m. Speed=1.692000m/h.</desc>
<speed>0.470000</speed>
</trkpt>
<trkpt lat="42.455135" lon="18.748163">
<ele>47.798370</ele>
<time>2012-05-02T13:53:19Z</time>
<desc>lat.=42.455135, lon.=18.748163, Alt.=47.798370m. Speed=1.260000m/h.</desc>
<speed>0.350000</speed>
</trkpt>
<trkpt lat="42.455135" lon="18.748171">
<ele>47.470245</ele>
<time>2012-05-02T13:53:24Z</time>
<desc>lat.=42.455135, lon.=18.748171, Alt.=47.470245m. Speed=0.936000m/h.</desc>
<speed>0.260000</speed>
</trkpt>
<trkpt lat="42.455132" lon="18.748180">
<ele>47.462433</ele>
<time>2012-05-02T13:53:29Z</time>
<desc>lat.=42.455132, lon.=18.748180, Alt.=47.462433m. Speed=0.360000m/h.</desc>
<speed>0.100000</speed>
</trkpt>
<trkpt lat="42.455132" lon="18.748184">
<ele>47.434113</ele>
<time>2012-05-02T13:53:34Z</time>
<desc>lat.=42.455132, lon.=18.748184, Alt.=47.434113m. Speed=0.144000m/h.</desc>
<speed>0.040000</speed>
</trkpt>
<trkpt lat="42.455132" lon="18.748186">
<ele>47.398956</ele>
<time>2012-05-02T13:53:39Z</time>
<desc>lat.=42.455132, lon.=18.748186, Alt.=47.398956m. Speed=0.108000m/h.</desc>
<speed>0.030000</speed>
</trkpt>
<trkpt lat="42.455132" lon="18.748188">
<ele>47.367706</ele>
<time>2012-05-02T13:53:44Z</time>
<desc>lat.=42.455132, lon.=18.748188, Alt.=47.367706m. Speed=0.072000m/h.</desc>
<speed>0.020000</speed>
</trkpt>
<trkpt lat="42.455132" lon="18.748188">
<ele>47.374542</ele>
<time>2012-05-02T13:53:49Z</time>
<desc>lat.=42.455132, lon.=18.748188, Alt.=47.374542m. Speed=0.036000m/h.</desc>
<speed>0.010000</speed>
</trkpt>
<trkpt lat="42.455132" lon="18.748188">
<ele>47.384308</ele>
<time>2012-05-02T13:53:54Z</time>
<desc>lat.=42.455132, lon.=18.748188, Alt.=47.384308m. Speed=0.036000m/h.</desc>
<speed>0.010000</speed>
</trkpt>
<trkpt lat="42.455132" lon="18.748188">
<ele>47.389191</ele>
<time>2012-05-02T13:53:59Z</time>
<desc>lat.=42.455132, lon.=18.748188, Alt.=47.389191m. Speed=0.000000m/h.</desc>
<speed>0.000000</speed>
</trkpt>
<trkpt lat="42.455132" lon="18.748188">
<ele>47.395050</ele>
<time>2012-05-02T13:54:04Z</time>
<desc>lat.=42.455132, lon.=18.748188, Alt.=47.395050m. Speed=0.072000m/h.</desc>
<speed>0.020000</speed>
</trkpt>
<trkpt lat="42.455132" lon="18.748188">
<ele>47.380402</ele>
<time>2012-05-02T13:54:09Z</time>
<desc>lat.=42.455132, lon.=18.748188, Alt.=47.380402m. Speed=0.000000m/h.</desc>
<speed>0.000000</speed>
</trkpt>
<trkpt lat="42.455132" lon="18.748188">
<ele>47.367706</ele>
<time>2012-05-02T13:54:14Z</time>
<desc>lat.=42.455132, lon.=18.748188, Alt.=47.367706m. Speed=0.036000m/h.</desc>
<speed>0.010000</speed>
</trkpt>
<trkpt lat="42.455132" lon="18.748188">
<ele>47.353058</ele>
<time>2012-05-02T13:54:19Z</time>
<desc>lat.=42.455132, lon.=18.748188, Alt.=47.353058m. Speed=0.108000m/h.</desc>
<speed>0.030000</speed>
</trkpt>
<trkpt lat="42.455132" lon="18.748186">
<ele>47.345245</ele>
<time>2012-05-02T13:54:24Z</time>
<desc>lat.=42.455132, lon.=18.748186, Alt.=47.345245m. Speed=0.072000m/h.</desc>
<speed>0.020000</speed>
</trkpt>
<trkpt lat="42.455132" lon="18.748186">
<ele>47.327667</ele>
<time>2012-05-02T13:54:29Z</time>
<desc>lat.=42.455132, lon.=18.748186, Alt.=47.327667m. Speed=0.108000m/h.</desc>
<speed>0.030000</speed>
</trkpt>
<trkpt lat="42.455132" lon="18.748184">
<ele>47.289581</ele>
<time>2012-05-02T13:54:34Z</time>
<desc>lat.=42.455132, lon.=18.748184, Alt.=47.289581m. Speed=0.000000m/h.</desc>
<speed>0.000000</speed>
</trkpt>
<trkpt lat="42.455132" lon="18.748184">
<ele>47.260284</ele>
<time>2012-05-02T13:54:39Z</time>
<desc>lat.=42.455132, lon.=18.748184, Alt.=47.260284m. Speed=0.036000m/h.</desc>
<speed>0.010000</speed>
</trkpt>
<trkpt lat="42.455135" lon="18.748182">
<ele>47.233917</ele>
<time>2012-05-02T13:54:44Z</time>
<desc>lat.=42.455135, lon.=18.748182, Alt.=47.233917m. Speed=0.216000m/h.</desc>
<speed>0.060000</speed>
</trkpt>
<trkpt lat="42.455135" lon="18.748182">
<ele>47.212433</ele>
<time>2012-05-02T13:54:49Z</time>
<desc>lat.=42.455135, lon.=18.748182, Alt.=47.212433m. Speed=0.108000m/h.</desc>
<speed>0.030000</speed>
</trkpt>
<trkpt lat="42.455135" lon="18.748180">
<ele>47.202667</ele>
<time>2012-05-02T13:54:54Z</time>
<desc>lat.=42.455135, lon.=18.748180, Alt.=47.202667m. Speed=0.144000m/h.</desc>
<speed>0.040000</speed>
</trkpt>
<trkpt lat="42.455135" lon="18.748180">
<ele>47.190948</ele>
<time>2012-05-02T13:54:59Z</time>
<desc>lat.=42.455135, lon.=18.748180, Alt.=47.190948m. Speed=0.036000m/h.</desc>
<speed>0.010000</speed>
</trkpt>
<trkpt lat="42.455135" lon="18.748180">
<ele>47.184113</ele>
<time>2012-05-02T13:55:04Z</time>
<desc>lat.=42.455135, lon.=18.748180, Alt.=47.184113m. Speed=0.144000m/h.</desc>
<speed>0.040000</speed>
</trkpt>
<trkpt lat="42.455139" lon="18.748178">
<ele>47.179230</ele>
<time>2012-05-02T13:55:09Z</time>
<desc>lat.=42.455139, lon.=18.748178, Alt.=47.179230m. Speed=0.036000m/h.</desc>
<speed>0.010000</speed>
</trkpt>
<trkpt lat="42.455139" lon="18.748178">
<ele>47.173370</ele>
<time>2012-05-02T13:55:14Z</time>
<desc>lat.=42.455139, lon.=18.748178, Alt.=47.173370m. Speed=0.144000m/h.</desc>
<speed>0.040000</speed>
</trkpt>
<trkpt lat="42.455139" lon="18.748178">
<ele>47.166534</ele>
<time>2012-05-02T13:55:19Z</time>
<desc>lat.=42.455139, lon.=18.748178, Alt.=47.166534m. Speed=0.036000m/h.</desc>
<speed>0.010000</speed>
</trkpt>
<trkpt lat="42.455139" lon="18.748177">
<ele>47.158722</ele>
<time>2012-05-02T13:55:24Z</time>
<desc>lat.=42.455139, lon.=18.748177, Alt.=47.158722m. Speed=0.108000m/h.</desc>
<speed>0.030000</speed>
</trkpt>
<trkpt lat="42.455139" lon="18.748177">
<ele>47.149933</ele>
<time>2012-05-02T13:55:29Z</time>
<desc>lat.=42.455139, lon.=18.748177, Alt.=47.149933m. Speed=0.072000m/h.</desc>
<speed>0.020000</speed>
</trkpt>
<trkpt lat="42.455139" lon="18.748177">
<ele>47.139191</ele>
<time>2012-05-02T13:55:34Z</time>
<desc>lat.=42.455139, lon.=18.748177, Alt.=47.139191m. Speed=0.036000m/h.</desc>
<speed>0.010000</speed>
</trkpt>
<trkpt lat="42.455139" lon="18.748175">
<ele>47.128448</ele>
<time>2012-05-02T13:55:39Z</time>
<desc>lat.=42.455139, lon.=18.748175, Alt.=47.128448m. Speed=0.108000m/h.</desc>
<speed>0.030000</speed>
</trkpt>
<trkpt lat="42.455139" lon="18.748175">
<ele>47.121613</ele>
<time>2012-05-02T13:55:44Z</time>
<desc>lat.=42.455139, lon.=18.748175, Alt.=47.121613m. Speed=0.036000m/h.</desc>
<speed>0.010000</speed>
</trkpt>
<trkpt lat="42.455139" lon="18.748175">
<ele>47.113800</ele>
<time>2012-05-02T13:55:49Z</time>
<desc>lat.=42.455139, lon.=18.748175, Alt.=47.113800m. Speed=0.144000m/h.</desc>
<speed>0.040000</speed>
</trkpt>
<trkpt lat="42.455143" lon="18.748175">
<ele>47.104034</ele>
<time>2012-05-02T13:55:54Z</time>
<desc>lat.=42.455143, lon.=18.748175, Alt.=47.104034m. Speed=0.000000m/h.</desc>
<speed>0.000000</speed>
</trkpt>
<trkpt lat="42.455143" lon="18.748175">
<ele>47.093292</ele>
<time>2012-05-02T13:55:59Z</time>
<desc>lat.=42.455143, lon.=18.748175, Alt.=47.093292m. Speed=0.036000m/h.</desc>
<speed>0.010000</speed>
</trkpt>
<trkpt lat="42.455143" lon="18.748175">
<ele>47.081573</ele>
<time>2012-05-02T13:56:04Z</time>
<desc>lat.=42.455143, lon.=18.748175, Alt.=47.081573m. Speed=0.072000m/h.</desc>
<speed>0.020000</speed>
</trkpt>
<trkpt lat="42.455143" lon="18.748173">
<ele>47.067902</ele>
<time>2012-05-02T13:56:09Z</time>
<desc>lat.=42.455143, lon.=18.748173, Alt.=47.067902m. Speed=0.036000m/h.</desc>
<speed>0.010000</speed>
</trkpt>
<trkpt lat="42.455143" lon="18.748173">
<ele>47.053253</ele>
<time>2012-05-02T13:56:14Z</time>
<desc>lat.=42.455143, lon.=18.748173, Alt.=47.053253m. Speed=0.108000m/h.</desc>
<speed>0.030000</speed>
</trkpt>
<trkpt lat="42.455143" lon="18.748173">
<ele>47.039581</ele>
<time>2012-05-02T13:56:19Z</time>
<desc>lat.=42.455143, lon.=18.748173, Alt.=47.039581m. Speed=0.108000m/h.</desc>
<speed>0.030000</speed>
</trkpt>
<trkpt lat="42.455143" lon="18.748171">
<ele>47.027863</ele>
<time>2012-05-02T13:56:24Z</time>
<desc>lat.=42.455143, lon.=18.748171, Alt.=47.027863m. Speed=0.144000m/h.</desc>
<speed>0.040000</speed>
</trkpt>
<trkpt lat="42.455143" lon="18.748171">
<ele>47.018097</ele>
<time>2012-05-02T13:56:29Z</time>
<desc>lat.=42.455143, lon.=18.748171, Alt.=47.018097m. Speed=0.108000m/h.</desc>
<speed>0.030000</speed>
</trkpt>
<trkpt lat="42.455143" lon="18.748169">
<ele>47.009308</ele>
<time>2012-05-02T13:56:34Z</time>
<desc>lat.=42.455143, lon.=18.748169, Alt.=47.009308m. Speed=0.108000m/h.</desc>
<speed>0.030000</speed>
</trkpt>
<trkpt lat="42.455147" lon="18.748169">
<ele>46.999542</ele>
<time>2012-05-02T13:56:39Z</time>
<desc>lat.=42.455147, lon.=18.748169, Alt.=46.999542m. Speed=0.144000m/h.</desc>
<speed>0.040000</speed>
</trkpt>
<trkpt lat="42.455147" lon="18.748167">
<ele>46.984894</ele>
<time>2012-05-02T13:56:44Z</time>
<desc>lat.=42.455147, lon.=18.748167, Alt.=46.984894m. Speed=0.036000m/h.</desc>
<speed>0.010000</speed>
</trkpt>
<trkpt lat="42.455147" lon="18.748167">
<ele>46.973175</ele>
<time>2012-05-02T13:56:49Z</time>
<desc>lat.=42.455147, lon.=18.748167, Alt.=46.973175m. Speed=0.072000m/h.</desc>
<speed>0.020000</speed>
</trkpt>
<trkpt lat="42.455147" lon="18.748167">
<ele>46.967316</ele>
<time>2012-05-02T13:56:54Z</time>
<desc>lat.=42.455147, lon.=18.748167, Alt.=46.967316m. Speed=0.072000m/h.</desc>
<speed>0.020000</speed>
</trkpt>
<trkpt lat="42.455147" lon="18.748165">
<ele>46.963409</ele>
<time>2012-05-02T13:56:59Z</time>
<desc>lat.=42.455147, lon.=18.748165, Alt.=46.963409m. Speed=0.108000m/h.</desc>
<speed>0.030000</speed>
</trkpt>
<trkpt lat="42.455147" lon="18.748163">
<ele>46.957550</ele>
<time>2012-05-02T13:57:04Z</time>
<desc>lat.=42.455147, lon.=18.748163, Alt.=46.957550m. Speed=0.216000m/h.</desc>
<speed>0.060000</speed>
</trkpt>
<trkpt lat="42.455147" lon="18.748161">
<ele>46.953644</ele>
<time>2012-05-02T13:57:09Z</time>
<desc>lat.=42.455147, lon.=18.748161, Alt.=46.953644m. Speed=0.072000m/h.</desc>
<speed>0.020000</speed>
</trkpt>
<trkpt lat="42.455147" lon="18.748161">
<ele>46.944855</ele>
<time>2012-05-02T13:57:14Z</time>
<desc>lat.=42.455147, lon.=18.748161, Alt.=46.944855m. Speed=0.036000m/h.</desc>
<speed>0.010000</speed>
</trkpt>
<trkpt lat="42.455147" lon="18.748159">
<ele>46.935089</ele>
<time>2012-05-02T13:57:19Z</time>
<desc>lat.=42.455147, lon.=18.748159, Alt.=46.935089m. Speed=0.036000m/h.</desc>
<speed>0.010000</speed>
</trkpt>
<trkpt lat="42.455147" lon="18.748158">
<ele>46.923370</ele>
<time>2012-05-02T13:57:24Z</time>
<desc>lat.=42.455147, lon.=18.748158, Alt.=46.923370m. Speed=0.036000m/h.</desc>
<speed>0.010000</speed>
</trkpt>
<trkpt lat="42.455147" lon="18.748156">
<ele>46.913605</ele>
<time>2012-05-02T13:57:29Z</time>
<desc>lat.=42.455147, lon.=18.748156, Alt.=46.913605m. Speed=0.036000m/h.</desc>
<speed>0.010000</speed>
</trkpt>
<trkpt lat="42.455147" lon="18.748156">
<ele>46.901886</ele>
<time>2012-05-02T13:57:34Z</time>
<desc>lat.=42.455147, lon.=18.748156, Alt.=46.901886m. Speed=0.036000m/h.</desc>
<speed>0.010000</speed>
</trkpt>
<trkpt lat="42.455147" lon="18.748156">
<ele>46.893097</ele>
<time>2012-05-02T13:57:39Z</time>
<desc>lat.=42.455147, lon.=18.748156, Alt.=46.893097m. Speed=0.036000m/h.</desc>
<speed>0.010000</speed>
</trkpt>
<trkpt lat="42.455147" lon="18.748154">
<ele>46.884308</ele>
<time>2012-05-02T13:57:44Z</time>
<desc>lat.=42.455147, lon.=18.748154, Alt.=46.884308m. Speed=0.072000m/h.</desc>
<speed>0.020000</speed>
</trkpt>
<trkpt lat="42.455147" lon="18.748154">
<ele>46.874542</ele>
<time>2012-05-02T13:57:49Z</time>
<desc>lat.=42.455147, lon.=18.748154, Alt.=46.874542m. Speed=0.072000m/h.</desc>
<speed>0.020000</speed>
</trkpt>
<trkpt lat="42.455147" lon="18.748152">
<ele>46.865753</ele>
<time>2012-05-02T13:57:54Z</time>
<desc>lat.=42.455147, lon.=18.748152, Alt.=46.865753m. Speed=0.072000m/h.</desc>
<speed>0.020000</speed>
</trkpt>
<trkpt lat="42.455147" lon="18.748152">
<ele>46.856964</ele>
<time>2012-05-02T13:57:59Z</time>
<desc>lat.=42.455147, lon.=18.748152, Alt.=46.856964m. Speed=0.036000m/h.</desc>
<speed>0.010000</speed>
</trkpt>
<trkpt lat="42.455151" lon="18.748152">
<ele>46.846222</ele>
<time>2012-05-02T13:58:04Z</time>
<desc>lat.=42.455151, lon.=18.748152, Alt.=46.846222m. Speed=0.036000m/h.</desc>
<speed>0.010000</speed>
</trkpt>
<trkpt lat="42.455151" lon="18.748150">
<ele>46.834503</ele>
<time>2012-05-02T13:58:09Z</time>
<desc>lat.=42.455151, lon.=18.748150, Alt.=46.834503m. Speed=0.036000m/h.</desc>
<speed>0.010000</speed>
</trkpt>
<trkpt lat="42.455151" lon="18.748148">
<ele>46.823761</ele>
<time>2012-05-02T13:58:14Z</time>
<desc>lat.=42.455151, lon.=18.748148, Alt.=46.823761m. Speed=0.072000m/h.</desc>
<speed>0.020000</speed>
</trkpt>
<trkpt lat="42.455151" lon="18.748148">
<ele>46.817902</ele>
<time>2012-05-02T13:58:19Z</time>
<desc>lat.=42.455151, lon.=18.748148, Alt.=46.817902m. Speed=0.036000m/h.</desc>
<speed>0.010000</speed>
</trkpt>
<trkpt lat="42.455151" lon="18.748148">
<ele>46.811066</ele>
<time>2012-05-02T13:58:24Z</time>
<desc>lat.=42.455151, lon.=18.748148, Alt.=46.811066m. Speed=0.072000m/h.</desc>
<speed>0.020000</speed>
</trkpt>
<trkpt lat="42.455154" lon="18.748146">
<ele>46.801300</ele>
<time>2012-05-02T13:58:29Z</time>
<desc>lat.=42.455154, lon.=18.748146, Alt.=46.801300m. Speed=0.144000m/h.</desc>
<speed>0.040000</speed>
</trkpt>
<trkpt lat="42.455154" lon="18.748146">
<ele>46.786652</ele>
<time>2012-05-02T13:58:34Z</time>
<desc>lat.=42.455154, lon.=18.748146, Alt.=46.786652m. Speed=0.072000m/h.</desc>
<speed>0.020000</speed>
</trkpt>
<trkpt lat="42.455158" lon="18.748144">
<ele>46.771027</ele>
<time>2012-05-02T13:58:39Z</time>
<desc>lat.=42.455158, lon.=18.748144, Alt.=46.771027m. Speed=0.108000m/h.</desc>
<speed>0.030000</speed>
</trkpt>
<trkpt lat="42.455158" lon="18.748144">
<ele>46.758331</ele>
<time>2012-05-02T13:58:44Z</time>
<desc>lat.=42.455158, lon.=18.748144, Alt.=46.758331m. Speed=0.000000m/h.</desc>
<speed>0.000000</speed>
</trkpt>
<trkpt lat="42.455158" lon="18.748142">
<ele>46.748566</ele>
<time>2012-05-02T13:58:49Z</time>
<desc>lat.=42.455158, lon.=18.748142, Alt.=46.748566m. Speed=0.072000m/h.</desc>
<speed>0.020000</speed>
</trkpt>
<trkpt lat="42.455158" lon="18.748142">
<ele>46.736847</ele>
<time>2012-05-02T13:58:54Z</time>
<desc>lat.=42.455158, lon.=18.748142, Alt.=46.736847m. Speed=0.036000m/h.</desc>
<speed>0.010000</speed>
</trkpt>
<trkpt lat="42.455158" lon="18.748140">
<ele>46.726105</ele>
<time>2012-05-02T13:58:59Z</time>
<desc>lat.=42.455158, lon.=18.748140, Alt.=46.726105m. Speed=0.072000m/h.</desc>
<speed>0.020000</speed>
</trkpt>
<trkpt lat="42.455158" lon="18.748140">
<ele>46.718292</ele>
<time>2012-05-02T13:59:04Z</time>
<desc>lat.=42.455158, lon.=18.748140, Alt.=46.718292m. Speed=0.036000m/h.</desc>
<speed>0.010000</speed>
</trkpt>
<trkpt lat="42.455158" lon="18.748140">
<ele>46.710480</ele>
<time>2012-05-02T13:59:09Z</time>
<desc>lat.=42.455158, lon.=18.748140, Alt.=46.710480m. Speed=0.000000m/h.</desc>
<speed>0.000000</speed>
</trkpt>
<trkpt lat="42.455162" lon="18.748138">
<ele>46.712433</ele>
<time>2012-05-02T13:59:14Z</time>
<desc>lat.=42.455162, lon.=18.748138, Alt.=46.712433m. Speed=0.252000m/h.</desc>
<speed>0.070000</speed>
</trkpt>
<trkpt lat="42.455162" lon="18.748138">
<ele>46.709503</ele>
<time>2012-05-02T13:59:19Z</time>
<desc>lat.=42.455162, lon.=18.748138, Alt.=46.709503m. Speed=0.072000m/h.</desc>
<speed>0.020000</speed>
</trkpt>
<trkpt lat="42.455162" lon="18.748137">
<ele>46.698761</ele>
<time>2012-05-02T13:59:24Z</time>
<desc>lat.=42.455162, lon.=18.748137, Alt.=46.698761m. Speed=0.000000m/h.</desc>
<speed>0.000000</speed>
</trkpt>
<trkpt lat="42.455162" lon="18.748137">
<ele>46.683136</ele>
<time>2012-05-02T13:59:29Z</time>
<desc>lat.=42.455162, lon.=18.748137, Alt.=46.683136m. Speed=0.000000m/h.</desc>
<speed>0.000000</speed>
</trkpt>
<trkpt lat="42.455166" lon="18.748137">
<ele>46.673370</ele>
<time>2012-05-02T13:59:34Z</time>
<desc>lat.=42.455166, lon.=18.748137, Alt.=46.673370m. Speed=0.180000m/h.</desc>
<speed>0.050000</speed>
</trkpt>
<trkpt lat="42.455166" lon="18.748135">
<ele>46.635284</ele>
<time>2012-05-02T13:59:39Z</time>
<desc>lat.=42.455166, lon.=18.748135, Alt.=46.635284m. Speed=0.216000m/h.</desc>
<speed>0.060000</speed>
</trkpt>
<trkpt lat="42.455166" lon="18.748133">
<ele>46.595245</ele>
<time>2012-05-02T13:59:44Z</time>
<desc>lat.=42.455166, lon.=18.748133, Alt.=46.595245m. Speed=0.108000m/h.</desc>
<speed>0.030000</speed>
</trkpt>
<trkpt lat="42.455166" lon="18.748133">
<ele>46.552277</ele>
<time>2012-05-02T13:59:49Z</time>
<desc>lat.=42.455166, lon.=18.748133, Alt.=46.552277m. Speed=0.108000m/h.</desc>
<speed>0.030000</speed>
</trkpt>
<trkpt lat="42.455170" lon="18.748131">
<ele>46.502472</ele>
<time>2012-05-02T13:59:54Z</time>
<desc>lat.=42.455170, lon.=18.748131, Alt.=46.502472m. Speed=0.072000m/h.</desc>
<speed>0.020000</speed>
</trkpt>
<trkpt lat="42.455170" lon="18.748131">
<ele>46.469269</ele>
<time>2012-05-02T13:59:59Z</time>
<desc>lat.=42.455170, lon.=18.748131, Alt.=46.469269m. Speed=0.180000m/h.</desc>
<speed>0.050000</speed>
</trkpt>
<trkpt lat="42.455170" lon="18.748131">
<ele>46.441925</ele>
<time>2012-05-02T14:00:04Z</time>
<desc>lat.=42.455170, lon.=18.748131, Alt.=46.441925m. Speed=0.108000m/h.</desc>
<speed>0.030000</speed>
</trkpt>
<trkpt lat="42.455173" lon="18.748131">
<ele>46.421417</ele>
<time>2012-05-02T14:00:09Z</time>
<desc>lat.=42.455173, lon.=18.748131, Alt.=46.421417m. Speed=0.108000m/h.</desc>
<speed>0.030000</speed>
</trkpt>
<trkpt lat="42.455173" lon="18.748129">
<ele>46.416534</ele>
<time>2012-05-02T14:00:14Z</time>
<desc>lat.=42.455173, lon.=18.748129, Alt.=46.416534m. Speed=0.108000m/h.</desc>
<speed>0.030000</speed>
</trkpt>
<trkpt lat="42.455173" lon="18.748129">
<ele>46.441925</ele>
<time>2012-05-02T14:00:19Z</time>
<desc>lat.=42.455173, lon.=18.748129, Alt.=46.441925m. Speed=0.180000m/h.</desc>
<speed>0.050000</speed>
</trkpt>
<trkpt lat="42.455177" lon="18.748127">
<ele>46.420441</ele>
<time>2012-05-02T14:00:24Z</time>
<desc>lat.=42.455177, lon.=18.748127, Alt.=46.420441m. Speed=0.144000m/h.</desc>
<speed>0.040000</speed>
</trkpt>
<trkpt lat="42.455177" lon="18.748127">
<ele>46.406769</ele>
<time>2012-05-02T14:00:29Z</time>
<desc>lat.=42.455177, lon.=18.748127, Alt.=46.406769m. Speed=0.072000m/h.</desc>
<speed>0.020000</speed>
</trkpt>
<trkpt lat="42.455177" lon="18.748125">
<ele>46.411652</ele>
<time>2012-05-02T14:00:34Z</time>
<desc>lat.=42.455177, lon.=18.748125, Alt.=46.411652m. Speed=0.216000m/h.</desc>
<speed>0.060000</speed>
</trkpt>
<trkpt lat="42.455177" lon="18.748125">
<ele>46.428253</ele>
<time>2012-05-02T14:00:39Z</time>
<desc>lat.=42.455177, lon.=18.748125, Alt.=46.428253m. Speed=0.072000m/h.</desc>
<speed>0.020000</speed>
</trkpt>
<trkpt lat="42.455181" lon="18.748125">
<ele>46.413605</ele>
<time>2012-05-02T14:00:44Z</time>
<desc>lat.=42.455181, lon.=18.748125, Alt.=46.413605m. Speed=0.072000m/h.</desc>
<speed>0.020000</speed>
</trkpt>
<trkpt lat="42.455181" lon="18.748123">
<ele>46.395050</ele>
<time>2012-05-02T14:00:49Z</time>
<desc>lat.=42.455181, lon.=18.748123, Alt.=46.395050m. Speed=0.000000m/h.</desc>
<speed>0.000000</speed>
</trkpt>
<trkpt lat="42.455181" lon="18.748123">
<ele>46.378448</ele>
<time>2012-05-02T14:00:54Z</time>
<desc>lat.=42.455181, lon.=18.748123, Alt.=46.378448m. Speed=0.108000m/h.</desc>
<speed>0.030000</speed>
</trkpt>
<trkpt lat="42.455181" lon="18.748121">
<ele>46.355988</ele>
<time>2012-05-02T14:00:59Z</time>
<desc>lat.=42.455181, lon.=18.748121, Alt.=46.355988m. Speed=0.108000m/h.</desc>
<speed>0.030000</speed>
</trkpt>
<trkpt lat="42.455181" lon="18.748119">
<ele>46.325714</ele>
<time>2012-05-02T14:01:04Z</time>
<desc>lat.=42.455181, lon.=18.748119, Alt.=46.325714m. Speed=0.108000m/h.</desc>
<speed>0.030000</speed>
</trkpt>
<trkpt lat="42.455181" lon="18.748119">
<ele>46.292511</ele>
<time>2012-05-02T14:01:09Z</time>
<desc>lat.=42.455181, lon.=18.748119, Alt.=46.292511m. Speed=0.108000m/h.</desc>
<speed>0.030000</speed>
</trkpt>
<trkpt lat="42.455181" lon="18.748117">
<ele>46.251495</ele>
<time>2012-05-02T14:01:14Z</time>
<desc>lat.=42.455181, lon.=18.748117, Alt.=46.251495m. Speed=0.072000m/h.</desc>
<speed>0.020000</speed>
</trkpt>
<trkpt lat="42.455181" lon="18.748117">
<ele>46.190948</ele>
<time>2012-05-02T14:01:19Z</time>
<desc>lat.=42.455181, lon.=18.748117, Alt.=46.190948m. Speed=0.144000m/h.</desc>
<speed>0.040000</speed>
</trkpt>
<trkpt lat="42.455181" lon="18.748116">
<ele>46.144073</ele>
<time>2012-05-02T14:01:24Z</time>
<desc>lat.=42.455181, lon.=18.748116, Alt.=46.144073m. Speed=0.144000m/h.</desc>
<speed>0.040000</speed>
</trkpt>
<trkpt lat="42.455181" lon="18.748114">
<ele>46.068878</ele>
<time>2012-05-02T14:01:29Z</time>
<desc>lat.=42.455181, lon.=18.748114, Alt.=46.068878m. Speed=0.072000m/h.</desc>
<speed>0.020000</speed>
</trkpt>
<trkpt lat="42.455181" lon="18.748114">
<ele>46.024933</ele>
<time>2012-05-02T14:01:34Z</time>
<desc>lat.=42.455181, lon.=18.748114, Alt.=46.024933m. Speed=0.108000m/h.</desc>
<speed>0.030000</speed>
</trkpt>
<trkpt lat="42.455181" lon="18.748112">
<ele>45.981964</ele>
<time>2012-05-02T14:01:39Z</time>
<desc>lat.=42.455181, lon.=18.748112, Alt.=45.981964m. Speed=0.144000m/h.</desc>
<speed>0.040000</speed>
</trkpt>
<trkpt lat="42.455181" lon="18.748110">
<ele>45.928253</ele>
<time>2012-05-02T14:01:44Z</time>
<desc>lat.=42.455181, lon.=18.748110, Alt.=45.928253m. Speed=0.072000m/h.</desc>
<speed>0.020000</speed>
</trkpt>
<trkpt lat="42.455181" lon="18.748108">
<ele>45.895050</ele>
<time>2012-05-02T14:01:49Z</time>
<desc>lat.=42.455181, lon.=18.748108, Alt.=45.895050m. Speed=0.180000m/h.</desc>
<speed>0.050000</speed>
</trkpt>
<trkpt lat="42.455185" lon="18.748108">
<ele>45.844269</ele>
<time>2012-05-02T14:01:54Z</time>
<desc>lat.=42.455185, lon.=18.748108, Alt.=45.844269m. Speed=0.180000m/h.</desc>
<speed>0.050000</speed>
</trkpt>
<trkpt lat="42.455185" lon="18.748106">
<ele>45.813995</ele>
<time>2012-05-02T14:01:59Z</time>
<desc>lat.=42.455185, lon.=18.748106, Alt.=45.813995m. Speed=0.180000m/h.</desc>
<speed>0.050000</speed>
</trkpt>
<trkpt lat="42.455185" lon="18.748104">
<ele>45.768097</ele>
<time>2012-05-02T14:02:04Z</time>
<desc>lat.=42.455185, lon.=18.748104, Alt.=45.768097m. Speed=0.144000m/h.</desc>
<speed>0.040000</speed>
</trkpt>
<trkpt lat="42.455185" lon="18.748102">
<ele>45.728058</ele>
<time>2012-05-02T14:02:09Z</time>
<desc>lat.=42.455185, lon.=18.748102, Alt.=45.728058m. Speed=0.180000m/h.</desc>
<speed>0.050000</speed>
</trkpt>
<trkpt lat="42.455185" lon="18.748100">
<ele>45.703644</ele>
<time>2012-05-02T14:02:14Z</time>
<desc>lat.=42.455185, lon.=18.748100, Alt.=45.703644m. Speed=0.180000m/h.</desc>
<speed>0.050000</speed>
</trkpt>
<trkpt lat="42.455189" lon="18.748100">
<ele>45.672394</ele>
<time>2012-05-02T14:02:19Z</time>
<desc>lat.=42.455189, lon.=18.748100, Alt.=45.672394m. Speed=0.144000m/h.</desc>
<speed>0.040000</speed>
</trkpt>
<trkpt lat="42.455189" lon="18.748098">
<ele>45.608917</ele>
<time>2012-05-02T14:02:24Z</time>
<desc>lat.=42.455189, lon.=18.748098, Alt.=45.608917m. Speed=0.072000m/h.</desc>
<speed>0.020000</speed>
</trkpt>
<trkpt lat="42.455189" lon="18.748096">
<ele>45.561066</ele>
<time>2012-05-02T14:02:29Z</time>
<desc>lat.=42.455189, lon.=18.748096, Alt.=45.561066m. Speed=0.144000m/h.</desc>
<speed>0.040000</speed>
</trkpt>
<trkpt lat="42.455189" lon="18.748095">
<ele>45.488800</ele>
<time>2012-05-02T14:02:34Z</time>
<desc>lat.=42.455189, lon.=18.748095, Alt.=45.488800m. Speed=0.108000m/h.</desc>
<speed>0.030000</speed>
</trkpt>
<trkpt lat="42.455189" lon="18.748095">
<ele>45.402863</ele>
<time>2012-05-02T14:02:39Z</time>
<desc>lat.=42.455189, lon.=18.748095, Alt.=45.402863m. Speed=0.144000m/h.</desc>
<speed>0.040000</speed>
</trkpt>
<trkpt lat="42.455189" lon="18.748093">
<ele>45.289581</ele>
<time>2012-05-02T14:02:44Z</time>
<desc>lat.=42.455189, lon.=18.748093, Alt.=45.289581m. Speed=0.144000m/h.</desc>
<speed>0.040000</speed>
</trkpt>
<trkpt lat="42.455189" lon="18.748091">
<ele>45.198761</ele>
<time>2012-05-02T14:02:49Z</time>
<desc>lat.=42.455189, lon.=18.748091, Alt.=45.198761m. Speed=0.180000m/h.</desc>
<speed>0.050000</speed>
</trkpt>
<trkpt lat="42.455185" lon="18.748091">
<ele>45.130402</ele>
<time>2012-05-02T14:02:54Z</time>
<desc>lat.=42.455185, lon.=18.748091, Alt.=45.130402m. Speed=0.000000m/h.</desc>
<speed>0.000000</speed>
</trkpt>
<trkpt lat="42.455185" lon="18.748089">
<ele>45.045441</ele>
<time>2012-05-02T14:02:59Z</time>
<desc>lat.=42.455185, lon.=18.748089, Alt.=45.045441m. Speed=0.000000m/h.</desc>
<speed>0.000000</speed>
</trkpt>
<trkpt lat="42.455185" lon="18.748089">
<ele>44.972198</ele>
<time>2012-05-02T14:03:04Z</time>
<desc>lat.=42.455185, lon.=18.748089, Alt.=44.972198m. Speed=0.108000m/h.</desc>
<speed>0.030000</speed>
</trkpt>
<trkpt lat="42.455185" lon="18.748089">
<ele>44.939972</ele>
<time>2012-05-02T14:03:09Z</time>
<desc>lat.=42.455185, lon.=18.748089, Alt.=44.939972m. Speed=0.180000m/h.</desc>
<speed>0.050000</speed>
</trkpt>
<trkpt lat="42.455181" lon="18.748087">
<ele>44.872589</ele>
<time>2012-05-02T14:03:14Z</time>
<desc>lat.=42.455181, lon.=18.748087, Alt.=44.872589m. Speed=0.216000m/h.</desc>
<speed>0.060000</speed>
</trkpt>
<trkpt lat="42.455181" lon="18.748087">
<ele>44.781769</ele>
<time>2012-05-02T14:03:19Z</time>
<desc>lat.=42.455181, lon.=18.748087, Alt.=44.781769m. Speed=0.036000m/h.</desc>
<speed>0.010000</speed>
</trkpt>
<trkpt lat="42.455181" lon="18.748087">
<ele>44.725128</ele>
<time>2012-05-02T14:03:24Z</time>
<desc>lat.=42.455181, lon.=18.748087, Alt.=44.725128m. Speed=0.072000m/h.</desc>
<speed>0.020000</speed>
</trkpt>
<trkpt lat="42.455181" lon="18.748087">
<ele>44.677277</ele>
<time>2012-05-02T14:03:29Z</time>
<desc>lat.=42.455181, lon.=18.748087, Alt.=44.677277m. Speed=0.108000m/h.</desc>
<speed>0.030000</speed>
</trkpt>
<trkpt lat="42.455181" lon="18.748085">
<ele>44.614777</ele>
<time>2012-05-02T14:03:34Z</time>
<desc>lat.=42.455181, lon.=18.748085, Alt.=44.614777m. Speed=0.180000m/h.</desc>
<speed>0.050000</speed>
</trkpt>
<trkpt lat="42.455181" lon="18.748085">
<ele>44.609894</ele>
<time>2012-05-02T14:03:39Z</time>
<desc>lat.=42.455181, lon.=18.748085, Alt.=44.609894m. Speed=0.108000m/h.</desc>
<speed>0.030000</speed>
</trkpt>
<trkpt lat="42.455181" lon="18.748085">
<ele>44.544464</ele>
<time>2012-05-02T14:03:44Z</time>
<desc>lat.=42.455181, lon.=18.748085, Alt.=44.544464m. Speed=0.108000m/h.</desc>
<speed>0.030000</speed>
</trkpt>
<trkpt lat="42.455181" lon="18.748083">
<ele>44.491730</ele>
<time>2012-05-02T14:03:49Z</time>
<desc>lat.=42.455181, lon.=18.748083, Alt.=44.491730m. Speed=0.000000m/h.</desc>
<speed>0.000000</speed>
</trkpt>
<trkpt lat="42.455181" lon="18.748083">
<ele>44.359894</ele>
<time>2012-05-02T14:03:54Z</time>
<desc>lat.=42.455181, lon.=18.748083, Alt.=44.359894m. Speed=0.036000m/h.</desc>
<speed>0.010000</speed>
</trkpt>
<trkpt lat="42.455181" lon="18.748083">
<ele>44.301300</ele>
<time>2012-05-02T14:03:59Z</time>
<desc>lat.=42.455181, lon.=18.748083, Alt.=44.301300m. Speed=0.000000m/h.</desc>
<speed>0.000000</speed>
</trkpt>
<trkpt lat="42.455181" lon="18.748081">
<ele>44.279816</ele>
<time>2012-05-02T14:04:04Z</time>
<desc>lat.=42.455181, lon.=18.748081, Alt.=44.279816m. Speed=0.108000m/h.</desc>
<speed>0.030000</speed>
</trkpt>
<trkpt lat="42.455181" lon="18.748079">
<ele>44.277863</ele>
<time>2012-05-02T14:04:09Z</time>
<desc>lat.=42.455181, lon.=18.748079, Alt.=44.277863m. Speed=0.036000m/h.</desc>
<speed>0.010000</speed>
</trkpt>
<trkpt lat="42.455181" lon="18.748079">
<ele>44.183136</ele>
<time>2012-05-02T14:04:14Z</time>
<desc>lat.=42.455181, lon.=18.748079, Alt.=44.183136m. Speed=0.000000m/h.</desc>
<speed>0.000000</speed>
</trkpt>
<trkpt lat="42.455181" lon="18.748079">
<ele>44.083527</ele>
<time>2012-05-02T14:04:19Z</time>
<desc>lat.=42.455181, lon.=18.748079, Alt.=44.083527m. Speed=0.072000m/h.</desc>
<speed>0.020000</speed>
</trkpt>
<trkpt lat="42.455181" lon="18.748079">
<ele>44.012238</ele>
<time>2012-05-02T14:04:24Z</time>
<desc>lat.=42.455181, lon.=18.748079, Alt.=44.012238m. Speed=0.036000m/h.</desc>
<speed>0.010000</speed>
</trkpt>
<trkpt lat="42.455181" lon="18.748077">
<ele>43.928253</ele>
<time>2012-05-02T14:04:29Z</time>
<desc>lat.=42.455181, lon.=18.748077, Alt.=43.928253m. Speed=0.108000m/h.</desc>
<speed>0.030000</speed>
</trkpt>
<trkpt lat="42.455185" lon="18.748077">
<ele>43.871613</ele>
<time>2012-05-02T14:04:34Z</time>
<desc>lat.=42.455185, lon.=18.748077, Alt.=43.871613m. Speed=0.072000m/h.</desc>
<speed>0.020000</speed>
</trkpt>
<trkpt lat="42.455185" lon="18.748077">
<ele>43.811066</ele>
<time>2012-05-02T14:04:39Z</time>
<desc>lat.=42.455185, lon.=18.748077, Alt.=43.811066m. Speed=0.072000m/h.</desc>
<speed>0.020000</speed>
</trkpt>
<trkpt lat="42.455185" lon="18.748075">
<ele>43.773956</ele>
<time>2012-05-02T14:04:44Z</time>
<desc>lat.=42.455185, lon.=18.748075, Alt.=43.773956m. Speed=0.180000m/h.</desc>
<speed>0.050000</speed>
</trkpt>
<trkpt lat="42.455185" lon="18.748074">
<ele>43.744659</ele>
<time>2012-05-02T14:04:49Z</time>
<desc>lat.=42.455185, lon.=18.748074, Alt.=43.744659m. Speed=0.180000m/h.</desc>
<speed>0.050000</speed>
</trkpt>
<trkpt lat="42.455189" lon="18.748072">
<ele>43.756378</ele>
<time>2012-05-02T14:04:54Z</time>
<desc>lat.=42.455189, lon.=18.748072, Alt.=43.756378m. Speed=0.108000m/h.</desc>
<speed>0.030000</speed>
</trkpt>
<trkpt lat="42.455189" lon="18.748070">
<ele>43.816925</ele>
<time>2012-05-02T14:04:59Z</time>
<desc>lat.=42.455189, lon.=18.748070, Alt.=43.816925m. Speed=0.180000m/h.</desc>
<speed>0.050000</speed>
</trkpt>
<trkpt lat="42.455189" lon="18.748070">
<ele>43.839386</ele>
<time>2012-05-02T14:05:04Z</time>
<desc>lat.=42.455189, lon.=18.748070, Alt.=43.839386m. Speed=0.108000m/h.</desc>
<speed>0.030000</speed>
</trkpt>
<trkpt lat="42.455189" lon="18.748068">
<ele>43.834503</ele>
<time>2012-05-02T14:05:09Z</time>
<desc>lat.=42.455189, lon.=18.748068, Alt.=43.834503m. Speed=0.072000m/h.</desc>
<speed>0.020000</speed>
</trkpt>
<trkpt lat="42.455189" lon="18.748068">
<ele>43.802277</ele>
<time>2012-05-02T14:05:14Z</time>
<desc>lat.=42.455189, lon.=18.748068, Alt.=43.802277m. Speed=0.072000m/h.</desc>
<speed>0.020000</speed>
</trkpt>
<trkpt lat="42.455189" lon="18.748066">
<ele>43.753448</ele>
<time>2012-05-02T14:05:19Z</time>
<desc>lat.=42.455189, lon.=18.748066, Alt.=43.753448m. Speed=0.108000m/h.</desc>
<speed>0.030000</speed>
</trkpt>
<trkpt lat="42.455189" lon="18.748066">
<ele>43.732941</ele>
<time>2012-05-02T14:05:24Z</time>
<desc>lat.=42.455189, lon.=18.748066, Alt.=43.732941m. Speed=0.072000m/h.</desc>
<speed>0.020000</speed>
</trkpt>
<trkpt lat="42.455189" lon="18.748066">
<ele>43.733917</ele>
<time>2012-05-02T14:05:29Z</time>
<desc>lat.=42.455189, lon.=18.748066, Alt.=43.733917m. Speed=0.000000m/h.</desc>
<speed>0.000000</speed>
</trkpt>
<trkpt lat="42.455193" lon="18.748066">
<ele>43.731964</ele>
<time>2012-05-02T14:05:34Z</time>
<desc>lat.=42.455193, lon.=18.748066, Alt.=43.731964m. Speed=0.000000m/h.</desc>
<speed>0.000000</speed>
</trkpt>
<trkpt lat="42.455193" lon="18.748064">
<ele>43.722198</ele>
<time>2012-05-02T14:05:39Z</time>
<desc>lat.=42.455193, lon.=18.748064, Alt.=43.722198m. Speed=0.108000m/h.</desc>
<speed>0.030000</speed>
</trkpt>
<trkpt lat="42.455189" lon="18.748064">
<ele>43.710480</ele>
<time>2012-05-02T14:05:44Z</time>
<desc>lat.=42.455189, lon.=18.748064, Alt.=43.710480m. Speed=0.036000m/h.</desc>
<speed>0.010000</speed>
</trkpt>
<trkpt lat="42.455189" lon="18.748064">
<ele>43.698761</ele>
<time>2012-05-02T14:05:49Z</time>
<desc>lat.=42.455189, lon.=18.748064, Alt.=43.698761m. Speed=0.108000m/h.</desc>
<speed>0.030000</speed>
</trkpt>
<trkpt lat="42.455189" lon="18.748062">
<ele>43.634308</ele>
<time>2012-05-02T14:05:54Z</time>
<desc>lat.=42.455189, lon.=18.748062, Alt.=43.634308m. Speed=0.216000m/h.</desc>
<speed>0.060000</speed>
</trkpt>
<trkpt lat="42.455189" lon="18.748060">
<ele>43.494659</ele>
<time>2012-05-02T14:05:59Z</time>
<desc>lat.=42.455189, lon.=18.748060, Alt.=43.494659m. Speed=0.072000m/h.</desc>
<speed>0.020000</speed>
</trkpt>
<trkpt lat="42.455189" lon="18.748060">
<ele>43.322784</ele>
<time>2012-05-02T14:06:04Z</time>
<desc>lat.=42.455189, lon.=18.748060, Alt.=43.322784m. Speed=0.216000m/h.</desc>
<speed>0.060000</speed>
</trkpt>
<trkpt lat="42.455189" lon="18.748058">
<ele>43.227081</ele>
<time>2012-05-02T14:06:09Z</time>
<desc>lat.=42.455189, lon.=18.748058, Alt.=43.227081m. Speed=0.360000m/h.</desc>
<speed>0.100000</speed>
</trkpt>
<trkpt lat="42.455189" lon="18.748055">
<ele>43.231964</ele>
<time>2012-05-02T14:06:14Z</time>
<desc>lat.=42.455189, lon.=18.748055, Alt.=43.231964m. Speed=0.036000m/h.</desc>
<speed>0.010000</speed>
</trkpt>
<trkpt lat="42.455189" lon="18.748053">
<ele>43.207550</ele>
<time>2012-05-02T14:06:19Z</time>
<desc>lat.=42.455189, lon.=18.748053, Alt.=43.207550m. Speed=0.036000m/h.</desc>
<speed>0.010000</speed>
</trkpt>
<trkpt lat="42.455185" lon="18.748051">
<ele>43.165558</ele>
<time>2012-05-02T14:06:24Z</time>
<desc>lat.=42.455185, lon.=18.748051, Alt.=43.165558m. Speed=0.036000m/h.</desc>
<speed>0.010000</speed>
</trkpt>
<trkpt lat="42.455185" lon="18.748051">
<ele>43.143097</ele>
<time>2012-05-02T14:06:29Z</time>
<desc>lat.=42.455185, lon.=18.748051, Alt.=43.143097m. Speed=0.036000m/h.</desc>
<speed>0.010000</speed>
</trkpt>
<trkpt lat="42.455185" lon="18.748049">
<ele>43.071808</ele>
<time>2012-05-02T14:06:34Z</time>
<desc>lat.=42.455185, lon.=18.748049, Alt.=43.071808m. Speed=0.180000m/h.</desc>
<speed>0.050000</speed>
</trkpt>
<trkpt lat="42.455185" lon="18.748043">
<ele>42.750519</ele>
<time>2012-05-02T14:06:39Z</time>
<desc>lat.=42.455185, lon.=18.748043, Alt.=42.750519m. Speed=0.144000m/h.</desc>
<speed>0.040000</speed>
</trkpt>
<trkpt lat="42.455181" lon="18.748037">
<ele>42.437042</ele>
<time>2012-05-02T14:06:44Z</time>
<desc>lat.=42.455181, lon.=18.748037, Alt.=42.437042m. Speed=0.144000m/h.</desc>
<speed>0.040000</speed>
</trkpt>
<trkpt lat="42.455185" lon="18.748030">
<ele>42.326691</ele>
<time>2012-05-02T14:06:49Z</time>
<desc>lat.=42.455185, lon.=18.748030, Alt.=42.326691m. Speed=1.260000m/h.</desc>
<speed>0.350000</speed>
</trkpt>
<trkpt lat="42.455303" lon="18.747866">
<ele>38.441925</ele>
<time>2012-05-02T14:06:54Z</time>
<desc>lat.=42.455303, lon.=18.747866, Alt.=38.441925m. Speed=6.516000m/h.</desc>
<speed>1.810000</speed>
</trkpt>
<trkpt lat="42.455410" lon="18.747784">
<ele>37.059113</ele>
<time>2012-05-02T14:06:59Z</time>
<desc>lat.=42.455410, lon.=18.747784, Alt.=37.059113m. Speed=14.292000m/h.</desc>
<speed>3.970000</speed>
</trkpt>
<trkpt lat="42.455540" lon="18.747734">
<ele>37.970245</ele>
<time>2012-05-02T14:07:04Z</time>
<desc>lat.=42.455540, lon.=18.747734, Alt.=37.970245m. Speed=6.192000m/h.</desc>
<speed>1.720000</speed>
</trkpt>
<trkpt lat="42.455536" lon="18.747721">
<ele>33.987823</ele>
<time>2012-05-02T14:07:09Z</time>
<desc>lat.=42.455536, lon.=18.747721, Alt.=33.987823m. Speed=0.864000m/h.</desc>
<speed>0.240000</speed>
</trkpt>
<trkpt lat="42.455540" lon="18.747698">
<ele>31.156021</ele>
<time>2012-05-02T14:07:14Z</time>
<desc>lat.=42.455540, lon.=18.747698, Alt.=31.156021m. Speed=0.072000m/h.</desc>
<speed>0.020000</speed>
</trkpt>
<trkpt lat="42.455540" lon="18.747698">
<ele>31.078873</ele>
<time>2012-05-02T14:07:19Z</time>
<desc>lat.=42.455540, lon.=18.747698, Alt.=31.078873m. Speed=0.072000m/h.</desc>
<speed>0.020000</speed>
</trkpt>
<trkpt lat="42.455544" lon="18.747696">
<ele>30.650650</ele>
<time>2012-05-02T14:07:24Z</time>
<desc>lat.=42.455544, lon.=18.747696, Alt.=30.650650m. Speed=1.836000m/h.</desc>
<speed>0.510000</speed>
</trkpt>
<trkpt lat="42.455532" lon="18.747652">
<ele>27.502213</ele>
<time>2012-05-02T14:07:29Z</time>
<desc>lat.=42.455532, lon.=18.747652, Alt.=27.502213m. Speed=2.196000m/h.</desc>
<speed>0.610000</speed>
</trkpt>
<trkpt lat="42.455524" lon="18.747650">
<ele>27.310318</ele>
<time>2012-05-02T14:07:34Z</time>
<desc>lat.=42.455524, lon.=18.747650, Alt.=27.310318m. Speed=1.116000m/h.</desc>
<speed>0.310000</speed>
</trkpt>
<trkpt lat="42.455536" lon="18.747608">
<ele>26.073990</ele>
<time>2012-05-02T14:07:39Z</time>
<desc>lat.=42.455536, lon.=18.747608, Alt.=26.073990m. Speed=0.576000m/h.</desc>
<speed>0.160000</speed>
</trkpt>
<trkpt lat="42.455532" lon="18.747602">
<ele>26.106216</ele>
<time>2012-05-02T14:07:44Z</time>
<desc>lat.=42.455532, lon.=18.747602, Alt.=26.106216m. Speed=0.504000m/h.</desc>
<speed>0.140000</speed>
</trkpt>
<trkpt lat="42.455544" lon="18.747606">
<ele>26.114029</ele>
<time>2012-05-02T14:07:49Z</time>
<desc>lat.=42.455544, lon.=18.747606, Alt.=26.114029m. Speed=0.936000m/h.</desc>
<speed>0.260000</speed>
</trkpt>
<trkpt lat="42.455555" lon="18.747612">
<ele>26.077896</ele>
<time>2012-05-02T14:07:54Z</time>
<desc>lat.=42.455555, lon.=18.747612, Alt.=26.077896m. Speed=0.864000m/h.</desc>
<speed>0.240000</speed>
</trkpt>
<trkpt lat="42.455563" lon="18.747612">
<ele>25.949478</ele>
<time>2012-05-02T14:07:59Z</time>
<desc>lat.=42.455563, lon.=18.747612, Alt.=25.949478m. Speed=0.792000m/h.</desc>
<speed>0.220000</speed>
</trkpt>
<trkpt lat="42.455566" lon="18.747610">
<ele>25.615005</ele>
<time>2012-05-02T14:08:04Z</time>
<desc>lat.=42.455566, lon.=18.747610, Alt.=25.615005m. Speed=1.296000m/h.</desc>
<speed>0.360000</speed>
</trkpt>
<trkpt lat="42.455688" lon="18.747517">
<ele>22.665298</ele>
<time>2012-05-02T14:08:09Z</time>
<desc>lat.=42.455688, lon.=18.747517, Alt.=22.665298m. Speed=18.072001m/h.</desc>
<speed>5.020000</speed>
</trkpt>
<trkpt lat="42.455914" lon="18.747229">
<ele>22.521744</ele>
<time>2012-05-02T14:08:14Z</time>
<desc>lat.=42.455914, lon.=18.747229, Alt.=22.521744m. Speed=26.712000m/h.</desc>
<speed>7.420000</speed>
</trkpt>
<trkpt lat="42.456036" lon="18.746828">
<ele>21.905533</ele>
<time>2012-05-02T14:08:19Z</time>
<desc>lat.=42.456036, lon.=18.746828, Alt.=21.905533m. Speed=25.379999m/h.</desc>
<speed>7.050000</speed>
</trkpt>
<trkpt lat="42.456173" lon="18.746401">
<ele>19.750259</ele>
<time>2012-05-02T14:08:24Z</time>
<desc>lat.=42.456173, lon.=18.746401, Alt.=19.750259m. Speed=27.431999m/h.</desc>
<speed>7.620000</speed>
</trkpt>
<trkpt lat="42.456249" lon="18.745983">
<ele>16.413345</ele>
<time>2012-05-02T14:08:29Z</time>
<desc>lat.=42.456249, lon.=18.745983, Alt.=16.413345m. Speed=24.228001m/h.</desc>
<speed>6.730000</speed>
</trkpt>
<trkpt lat="42.456348" lon="18.745548">
<ele>13.360237</ele>
<time>2012-05-02T14:08:34Z</time>
<desc>lat.=42.456348, lon.=18.745548, Alt.=13.360237m. Speed=28.115999m/h.</desc>
<speed>7.810000</speed>
</trkpt>
<trkpt lat="42.456493" lon="18.745092">
<ele>10.666878</ele>
<time>2012-05-02T14:08:39Z</time>
<desc>lat.=42.456493, lon.=18.745092, Alt.=10.666878m. Speed=27.648001m/h.</desc>
<speed>7.680000</speed>
</trkpt>
<trkpt lat="42.456673" lon="18.744711">
<ele>9.206429</ele>
<time>2012-05-02T14:08:44Z</time>
<desc>lat.=42.456673, lon.=18.744711, Alt.=9.206429m. Speed=26.892000m/h.</desc>
<speed>7.470000</speed>
</trkpt>
<trkpt lat="42.456844" lon="18.744343">
<ele>8.211555</ele>
<time>2012-05-02T14:08:49Z</time>
<desc>lat.=42.456844, lon.=18.744343, Alt.=8.211555m. Speed=23.832001m/h.</desc>
<speed>6.620000</speed>
</trkpt>
<trkpt lat="42.457024" lon="18.743979">
<ele>7.621281</ele>
<time>2012-05-02T14:08:54Z</time>
<desc>lat.=42.457024, lon.=18.743979, Alt.=7.621281m. Speed=26.568001m/h.</desc>
<speed>7.380000</speed>
</trkpt>
<trkpt lat="42.457211" lon="18.743618">
<ele>7.152287</ele>
<time>2012-05-02T14:08:59Z</time>
<desc>lat.=42.457211, lon.=18.743618, Alt.=7.152287m. Speed=23.724001m/h.</desc>
<speed>6.590000</speed>
</trkpt>
<trkpt lat="42.457409" lon="18.743313">
<ele>6.612247</ele>
<time>2012-05-02T14:09:04Z</time>
<desc>lat.=42.457409, lon.=18.743313, Alt.=6.612247m. Speed=25.416000m/h.</desc>
<speed>7.060000</speed>
</trkpt>
<trkpt lat="42.457565" lon="18.742914">
<ele>7.207218</ele>
<time>2012-05-02T14:09:09Z</time>
<desc>lat.=42.457565, lon.=18.742914, Alt.=7.207218m. Speed=26.532000m/h.</desc>
<speed>7.370000</speed>
</trkpt>
<trkpt lat="42.457741" lon="18.742569">
<ele>6.979435</ele>
<time>2012-05-02T14:09:14Z</time>
<desc>lat.=42.457741, lon.=18.742569, Alt.=6.979435m. Speed=25.271999m/h.</desc>
<speed>7.020000</speed>
</trkpt>
<trkpt lat="42.457981" lon="18.742287">
<ele>6.096134</ele>
<time>2012-05-02T14:09:19Z</time>
<desc>lat.=42.457981, lon.=18.742287, Alt.=6.096134m. Speed=23.796000m/h.</desc>
<speed>6.610000</speed>
</trkpt>
<trkpt lat="42.458210" lon="18.742128">
<ele>5.862614</ele>
<time>2012-05-02T14:09:24Z</time>
<desc>lat.=42.458210, lon.=18.742128, Alt.=5.862614m. Speed=19.584000m/h.</desc>
<speed>5.440000</speed>
</trkpt>
<trkpt lat="42.458466" lon="18.742008">
<ele>6.256168</ele>
<time>2012-05-02T14:09:29Z</time>
<desc>lat.=42.458466, lon.=18.742008, Alt.=6.256168m. Speed=21.888000m/h.</desc>
<speed>6.080000</speed>
</trkpt>
<trkpt lat="42.458725" lon="18.741871">
<ele>8.001106</ele>
<time>2012-05-02T14:09:34Z</time>
<desc>lat.=42.458725, lon.=18.741871, Alt.=8.001106m. Speed=24.552000m/h.</desc>
<speed>6.820000</speed>
</trkpt>
<trkpt lat="42.459003" lon="18.741564">
<ele>7.423038</ele>
<time>2012-05-02T14:09:39Z</time>
<desc>lat.=42.459003, lon.=18.741564, Alt.=7.423038m. Speed=23.472000m/h.</desc>
<speed>6.520000</speed>
</trkpt>
<trkpt lat="42.459183" lon="18.741220">
<ele>6.994083</ele>
<time>2012-05-02T14:09:44Z</time>
<desc>lat.=42.459183, lon.=18.741220, Alt.=6.994083m. Speed=23.112000m/h.</desc>
<speed>6.420000</speed>
</trkpt>
<trkpt lat="42.459339" lon="18.740845">
<ele>7.545963</ele>
<time>2012-05-02T14:09:49Z</time>
<desc>lat.=42.459339, lon.=18.740845, Alt.=7.545963m. Speed=25.596001m/h.</desc>
<speed>7.110000</speed>
</trkpt>
<trkpt lat="42.459499" lon="18.740486">
<ele>9.030159</ele>
<time>2012-05-02T14:09:54Z</time>
<desc>lat.=42.459499, lon.=18.740486, Alt.=9.030159m. Speed=24.191999m/h.</desc>
<speed>6.720000</speed>
</trkpt>
<trkpt lat="42.459698" lon="18.740162">
<ele>8.699104</ele>
<time>2012-05-02T14:09:59Z</time>
<desc>lat.=42.459698, lon.=18.740162, Alt.=8.699104m. Speed=24.695999m/h.</desc>
<speed>6.860000</speed>
</trkpt>
<trkpt lat="42.459892" lon="18.739897">
<ele>9.021370</ele>
<time>2012-05-02T14:10:04Z</time>
<desc>lat.=42.459892, lon.=18.739897, Alt.=9.021370m. Speed=21.384001m/h.</desc>
<speed>5.940000</speed>
</trkpt>
<trkpt lat="42.460121" lon="18.739693">
<ele>8.405647</ele>
<time>2012-05-02T14:10:09Z</time>
<desc>lat.=42.460121, lon.=18.739693, Alt.=8.405647m. Speed=23.436001m/h.</desc>
<speed>6.510000</speed>
</trkpt>
<trkpt lat="42.460297" lon="18.739315">
<ele>6.822941</ele>
<time>2012-05-02T14:10:14Z</time>
<desc>lat.=42.460297, lon.=18.739315, Alt.=6.822941m. Speed=26.532000m/h.</desc>
<speed>7.370000</speed>
</trkpt>
<trkpt lat="42.460472" lon="18.738953">
<ele>5.585636</ele>
<time>2012-05-02T14:10:19Z</time>
<desc>lat.=42.460472, lon.=18.738953, Alt.=5.585636m. Speed=24.912001m/h.</desc>
<speed>6.920000</speed>
</trkpt>
<trkpt lat="42.460636" lon="18.738600">
<ele>4.928776</ele>
<time>2012-05-02T14:10:24Z</time>
<desc>lat.=42.460636, lon.=18.738600, Alt.=4.928776m. Speed=22.716000m/h.</desc>
<speed>6.310000</speed>
</trkpt>
<trkpt lat="42.460823" lon="18.738297">
<ele>5.176823</ele>
<time>2012-05-02T14:10:29Z</time>
<desc>lat.=42.460823, lon.=18.738297, Alt.=5.176823m. Speed=22.788000m/h.</desc>
<speed>6.330000</speed>
</trkpt>
<trkpt lat="42.461025" lon="18.737993">
<ele>4.630924</ele>
<time>2012-05-02T14:10:34Z</time>
<desc>lat.=42.461025, lon.=18.737993, Alt.=4.630924m. Speed=25.488001m/h.</desc>
<speed>7.080000</speed>
</trkpt>
<trkpt lat="42.461239" lon="18.737705">
<ele>4.509830</ele>
<time>2012-05-02T14:10:39Z</time>
<desc>lat.=42.461239, lon.=18.737705, Alt.=4.509830m. Speed=24.408001m/h.</desc>
<speed>6.780000</speed>
</trkpt>
<trkpt lat="42.461502" lon="18.737459">
<ele>4.504215</ele>
<time>2012-05-02T14:10:44Z</time>
<desc>lat.=42.461502, lon.=18.737459, Alt.=4.504215m. Speed=24.552000m/h.</desc>
<speed>6.820000</speed>
</trkpt>
<trkpt lat="42.461788" lon="18.737291">
<ele>4.216129</ele>
<time>2012-05-02T14:10:49Z</time>
<desc>lat.=42.461788, lon.=18.737291, Alt.=4.216129m. Speed=21.851999m/h.</desc>
<speed>6.070000</speed>
</trkpt>
<trkpt lat="42.462048" lon="18.737181">
<ele>3.229158</ele>
<time>2012-05-02T14:10:54Z</time>
<desc>lat.=42.462048, lon.=18.737181, Alt.=3.229158m. Speed=22.788000m/h.</desc>
<speed>6.330000</speed>
</trkpt>
<trkpt lat="42.462334" lon="18.737101">
<ele>2.698702</ele>
<time>2012-05-02T14:10:59Z</time>
<desc>lat.=42.462334, lon.=18.737101, Alt.=2.698702m. Speed=24.516001m/h.</desc>
<speed>6.810000</speed>
</trkpt>
<trkpt lat="42.462582" lon="18.736969">
<ele>2.988985</ele>
<time>2012-05-02T14:11:04Z</time>
<desc>lat.=42.462582, lon.=18.736969, Alt.=2.988985m. Speed=22.680000m/h.</desc>
<speed>6.300000</speed>
</trkpt>
<trkpt lat="42.462833" lon="18.736851">
<ele>3.131685</ele>
<time>2012-05-02T14:11:09Z</time>
<desc>lat.=42.462833, lon.=18.736851, Alt.=3.131685m. Speed=25.920000m/h.</desc>
<speed>7.200000</speed>
</trkpt>
<trkpt lat="42.463127" lon="18.736662">
<ele>3.448214</ele>
<time>2012-05-02T14:11:14Z</time>
<desc>lat.=42.463127, lon.=18.736662, Alt.=3.448214m. Speed=28.908001m/h.</desc>
<speed>8.030000</speed>
</trkpt>
<trkpt lat="42.463383" lon="18.736319">
<ele>2.879549</ele>
<time>2012-05-02T14:11:19Z</time>
<desc>lat.=42.463383, lon.=18.736319, Alt.=2.879549m. Speed=27.252001m/h.</desc>
<speed>7.570000</speed>
</trkpt>
<trkpt lat="42.463535" lon="18.735950">
<ele>3.316866</ele>
<time>2012-05-02T14:11:24Z</time>
<desc>lat.=42.463535, lon.=18.735950, Alt.=3.316866m. Speed=22.680000m/h.</desc>
<speed>6.300000</speed>
</trkpt>
<trkpt lat="42.463707" lon="18.735638">
<ele>3.536226</ele>
<time>2012-05-02T14:11:29Z</time>
<desc>lat.=42.463707, lon.=18.735638, Alt.=3.536226m. Speed=24.011999m/h.</desc>
<speed>6.670000</speed>
</trkpt>
<trkpt lat="42.463936" lon="18.735380">
<ele>3.542879</ele>
<time>2012-05-02T14:11:34Z</time>
<desc>lat.=42.463936, lon.=18.735380, Alt.=3.542879m. Speed=24.768000m/h.</desc>
<speed>6.880000</speed>
</trkpt>
<trkpt lat="42.464165" lon="18.735115">
<ele>4.790104</ele>
<time>2012-05-02T14:11:39Z</time>
<desc>lat.=42.464165, lon.=18.735115, Alt.=4.790104m. Speed=22.356001m/h.</desc>
<speed>6.210000</speed>
</trkpt>
<trkpt lat="42.464363" lon="18.734861">
<ele>3.692659</ele>
<time>2012-05-02T14:11:44Z</time>
<desc>lat.=42.464363, lon.=18.734861, Alt.=3.692659m. Speed=20.412001m/h.</desc>
<speed>5.670000</speed>
</trkpt>
<trkpt lat="42.464558" lon="18.734583">
<ele>4.241398</ele>
<time>2012-05-02T14:11:49Z</time>
<desc>lat.=42.464558, lon.=18.734583, Alt.=4.241398m. Speed=22.608000m/h.</desc>
<speed>6.280000</speed>
</trkpt>
<trkpt lat="42.464691" lon="18.734304">
<ele>4.704899</ele>
<time>2012-05-02T14:11:54Z</time>
<desc>lat.=42.464691, lon.=18.734304, Alt.=4.704899m. Speed=19.908001m/h.</desc>
<speed>5.530000</speed>
</trkpt>
<trkpt lat="42.464844" lon="18.734091">
<ele>6.027531</ele>
<time>2012-05-02T14:11:59Z</time>
<desc>lat.=42.464844, lon.=18.734091, Alt.=6.027531m. Speed=15.948000m/h.</desc>
<speed>4.430000</speed>
</trkpt>
<trkpt lat="42.465000" lon="18.733852">
<ele>8.919807</ele>
<time>2012-05-02T14:12:04Z</time>
<desc>lat.=42.465000, lon.=18.733852, Alt.=8.919807m. Speed=14.760000m/h.</desc>
<speed>4.100000</speed>
</trkpt>
<trkpt lat="42.465134" lon="18.733671">
<ele>9.920296</ele>
<time>2012-05-02T14:12:09Z</time>
<desc>lat.=42.465134, lon.=18.733671, Alt.=9.920296m. Speed=13.680000m/h.</desc>
<speed>3.800000</speed>
</trkpt>
<trkpt lat="42.465263" lon="18.733433">
<ele>10.576302</ele>
<time>2012-05-02T14:12:14Z</time>
<desc>lat.=42.465263, lon.=18.733433, Alt.=10.576302m. Speed=18.180000m/h.</desc>
<speed>5.050000</speed>
</trkpt>
<trkpt lat="42.465347" lon="18.733118">
<ele>11.925179</ele>
<time>2012-05-02T14:12:19Z</time>
<desc>lat.=42.465347, lon.=18.733118, Alt.=11.925179m. Speed=20.052000m/h.</desc>
<speed>5.570000</speed>
</trkpt>
<trkpt lat="42.465363" lon="18.732723">
<ele>10.666878</ele>
<time>2012-05-02T14:12:24Z</time>
<desc>lat.=42.465363, lon.=18.732723, Alt.=10.666878m. Speed=25.559999m/h.</desc>
<speed>7.100000</speed>
</trkpt>
<trkpt lat="42.465324" lon="18.732296">
<ele>8.071419</ele>
<time>2012-05-02T14:12:29Z</time>
<desc>lat.=42.465324, lon.=18.732296, Alt.=8.071419m. Speed=24.732000m/h.</desc>
<speed>6.870000</speed>
</trkpt>
<trkpt lat="42.465363" lon="18.731863">
<ele>7.812931</ele>
<time>2012-05-02T14:12:34Z</time>
<desc>lat.=42.465363, lon.=18.731863, Alt.=7.812931m. Speed=25.091999m/h.</desc>
<speed>6.970000</speed>
</trkpt>
<trkpt lat="42.465481" lon="18.731457">
<ele>8.866585</ele>
<time>2012-05-02T14:12:39Z</time>
<desc>lat.=42.465481, lon.=18.731457, Alt.=8.866585m. Speed=25.344000m/h.</desc>
<speed>7.040000</speed>
</trkpt>
<trkpt lat="42.465630" lon="18.731071">
<ele>9.488899</ele>
<time>2012-05-02T14:12:44Z</time>
<desc>lat.=42.465630, lon.=18.731071, Alt.=9.488899m. Speed=25.020000m/h.</desc>
<speed>6.950000</speed>
</trkpt>
<trkpt lat="42.465847" lon="18.730736">
<ele>10.132454</ele>
<time>2012-05-02T14:12:49Z</time>
<desc>lat.=42.465847, lon.=18.730736, Alt.=10.132454m. Speed=25.236000m/h.</desc>
<speed>7.010000</speed>
</trkpt>
<trkpt lat="42.466042" lon="18.730423">
<ele>10.792854</ele>
<time>2012-05-02T14:12:54Z</time>
<desc>lat.=42.466042, lon.=18.730423, Alt.=10.792854m. Speed=25.379999m/h.</desc>
<speed>7.050000</speed>
</trkpt>
<trkpt lat="42.466183" lon="18.730028">
<ele>11.089485</ele>
<time>2012-05-02T14:12:59Z</time>
<desc>lat.=42.466183, lon.=18.730028, Alt.=11.089485m. Speed=26.351999m/h.</desc>
<speed>7.320000</speed>
</trkpt>
<trkpt lat="42.466309" lon="18.729620">
<ele>11.386848</ele>
<time>2012-05-02T14:13:04Z</time>
<desc>lat.=42.466309, lon.=18.729620, Alt.=11.386848m. Speed=25.488001m/h.</desc>
<speed>7.080000</speed>
</trkpt>
<trkpt lat="42.466419" lon="18.729206">
<ele>11.700325</ele>
<time>2012-05-02T14:13:09Z</time>
<desc>lat.=42.466419, lon.=18.729206, Alt.=11.700325m. Speed=24.408001m/h.</desc>
<speed>6.780000</speed>
</trkpt>
<trkpt lat="42.466507" lon="18.728817">
<ele>12.510139</ele>
<time>2012-05-02T14:13:14Z</time>
<desc>lat.=42.466507, lon.=18.728817, Alt.=12.510139m. Speed=24.084000m/h.</desc>
<speed>6.690000</speed>
</trkpt>
<trkpt lat="42.466660" lon="18.728449">
<ele>13.543343</ele>
<time>2012-05-02T14:13:19Z</time>
<desc>lat.=42.466660, lon.=18.728449, Alt.=13.543343m. Speed=25.164000m/h.</desc>
<speed>6.990000</speed>
</trkpt>
<trkpt lat="42.466831" lon="18.728085">
<ele>14.552132</ele>
<time>2012-05-02T14:13:24Z</time>
<desc>lat.=42.466831, lon.=18.728085, Alt.=14.552132m. Speed=26.243999m/h.</desc>
<speed>7.290000</speed>
</trkpt>
<trkpt lat="42.467003" lon="18.727722">
<ele>14.079475</ele>
<time>2012-05-02T14:13:29Z</time>
<desc>lat.=42.467003, lon.=18.727722, Alt.=14.079475m. Speed=23.327999m/h.</desc>
<speed>6.480000</speed>
</trkpt>
<trkpt lat="42.467175" lon="18.727379">
<ele>13.339241</ele>
<time>2012-05-02T14:13:34Z</time>
<desc>lat.=42.467175, lon.=18.727379, Alt.=13.339241m. Speed=25.200001m/h.</desc>
<speed>7.000000</speed>
</trkpt>
<trkpt lat="42.467388" lon="18.727043">
<ele>12.334602</ele>
<time>2012-05-02T14:13:39Z</time>
<desc>lat.=42.467388, lon.=18.727043, Alt.=12.334602m. Speed=26.712000m/h.</desc>
<speed>7.420000</speed>
</trkpt>
<trkpt lat="42.467606" lon="18.726715">
<ele>11.356819</ele>
<time>2012-05-02T14:13:44Z</time>
<desc>lat.=42.467606, lon.=18.726715, Alt.=11.356819m. Speed=26.496000m/h.</desc>
<speed>7.360000</speed>
</trkpt>
<trkpt lat="42.467827" lon="18.726427">
<ele>9.926155</ele>
<time>2012-05-02T14:13:49Z</time>
<desc>lat.=42.467827, lon.=18.726427, Alt.=9.926155m. Speed=23.760000m/h.</desc>
<speed>6.600000</speed>
</trkpt>
<trkpt lat="42.468006" lon="18.726171">
<ele>9.032356</ele>
<time>2012-05-02T14:13:54Z</time>
<desc>lat.=42.468006, lon.=18.726171, Alt.=9.032356m. Speed=19.944000m/h.</desc>
<speed>5.540000</speed>
</trkpt>
<trkpt lat="42.468170" lon="18.725965">
<ele>8.162971</ele>
<time>2012-05-02T14:13:59Z</time>
<desc>lat.=42.468170, lon.=18.725965, Alt.=8.162971m. Speed=17.747999m/h.</desc>
<speed>4.930000</speed>
</trkpt>
<trkpt lat="42.468353" lon="18.725716">
<ele>7.273380</ele>
<time>2012-05-02T14:14:04Z</time>
<desc>lat.=42.468353, lon.=18.725716, Alt.=7.273380m. Speed=21.024000m/h.</desc>
<speed>5.840000</speed>
</trkpt>
<trkpt lat="42.468487" lon="18.725426">
<ele>6.787052</ele>
<time>2012-05-02T14:14:09Z</time>
<desc>lat.=42.468487, lon.=18.725426, Alt.=6.787052m. Speed=18.864000m/h.</desc>
<speed>5.240000</speed>
</trkpt>
<trkpt lat="42.468578" lon="18.725061">
<ele>6.703556</ele>
<time>2012-05-02T14:14:14Z</time>
<desc>lat.=42.468578, lon.=18.725061, Alt.=6.703556m. Speed=24.587999m/h.</desc>
<speed>6.830000</speed>
</trkpt>
<trkpt lat="42.468704" lon="18.724674">
<ele>6.360294</ele>
<time>2012-05-02T14:14:19Z</time>
<desc>lat.=42.468704, lon.=18.724674, Alt.=6.360294m. Speed=23.400000m/h.</desc>
<speed>6.500000</speed>
</trkpt>
<trkpt lat="42.468784" lon="18.724258">
<ele>5.871525</ele>
<time>2012-05-02T14:14:24Z</time>
<desc>lat.=42.468784, lon.=18.724258, Alt.=5.871525m. Speed=28.007999m/h.</desc>
<speed>7.780000</speed>
</trkpt>
<trkpt lat="42.468876" lon="18.723799">
<ele>4.512760</ele>
<time>2012-05-02T14:14:29Z</time>
<desc>lat.=42.468876, lon.=18.723799, Alt.=4.512760m. Speed=28.332001m/h.</desc>
<speed>7.870000</speed>
</trkpt>
<trkpt lat="42.468864" lon="18.723307">
<ele>2.691683</ele>
<time>2012-05-02T14:14:34Z</time>
<desc>lat.=42.468864, lon.=18.723307, Alt.=2.691683m. Speed=30.167999m/h.</desc>
<speed>8.380000</speed>
</trkpt>
<trkpt lat="42.468937" lon="18.722797">
<ele>1.158708</ele>
<time>2012-05-02T14:14:39Z</time>
<desc>lat.=42.468937, lon.=18.722797, Alt.=1.158708m. Speed=30.780001m/h.</desc>
<speed>8.550000</speed>
</trkpt>
<trkpt lat="42.469032" lon="18.722294">
<ele>-0.102685</ele>
<time>2012-05-02T14:14:44Z</time>
<desc>lat.=42.469032, lon.=18.722294, Alt.=-0.102685m. Speed=31.139999m/h.</desc>
<speed>8.650000</speed>
</trkpt>
<trkpt lat="42.469227" lon="18.721849">
<ele>0.018608</ele>
<time>2012-05-02T14:14:49Z</time>
<desc>lat.=42.469227, lon.=18.721849, Alt.=0.018608m. Speed=30.888000m/h.</desc>
<speed>8.580000</speed>
</trkpt>
<trkpt lat="42.469429" lon="18.721432">
<ele>-0.123365</ele>
<time>2012-05-02T14:14:54Z</time>
<desc>lat.=42.469429, lon.=18.721432, Alt.=-0.123365m. Speed=27.540001m/h.</desc>
<speed>7.650000</speed>
</trkpt>
<trkpt lat="42.469635" lon="18.721014">
<ele>-0.342549</ele>
<time>2012-05-02T14:14:59Z</time>
<desc>lat.=42.469635, lon.=18.721014, Alt.=-0.342549m. Speed=29.232000m/h.</desc>
<speed>8.120000</speed>
</trkpt>
<trkpt lat="42.469841" lon="18.720631">
<ele>-0.641076</ele>
<time>2012-05-02T14:15:04Z</time>
<desc>lat.=42.469841, lon.=18.720631, Alt.=-0.641076m. Speed=26.784000m/h.</desc>
<speed>7.440000</speed>
</trkpt>
<trkpt lat="42.470020" lon="18.720219">
<ele>-0.778756</ele>
<time>2012-05-02T14:15:09Z</time>
<desc>lat.=42.470020, lon.=18.720219, Alt.=-0.778756m. Speed=29.879999m/h.</desc>
<speed>8.300000</speed>
</trkpt>
<trkpt lat="42.470158" lon="18.719744">
<ele>-1.370347</ele>
<time>2012-05-02T14:15:14Z</time>
<desc>lat.=42.470158, lon.=18.719744, Alt.=-1.370347m. Speed=28.980000m/h.</desc>
<speed>8.050000</speed>
</trkpt>
<trkpt lat="42.470196" lon="18.719246">
<ele>-2.055330</ele>
<time>2012-05-02T14:15:19Z</time>
<desc>lat.=42.470196, lon.=18.719246, Alt.=-2.055330m. Speed=32.183998m/h.</desc>
<speed>8.939999</speed>
</trkpt>
<trkpt lat="42.470161" lon="18.718718">
<ele>-0.834877</ele>
<time>2012-05-02T14:15:24Z</time>
<desc>lat.=42.470161, lon.=18.718718, Alt.=-0.834877m. Speed=29.808001m/h.</desc>
<speed>8.280000</speed>
</trkpt>
<trkpt lat="42.470020" lon="18.718216">
<ele>0.061584</ele>
<time>2012-05-02T14:15:29Z</time>
<desc>lat.=42.470020, lon.=18.718216, Alt.=0.061584m. Speed=33.408001m/h.</desc>
<speed>9.280000</speed>
</trkpt>
<trkpt lat="42.469933" lon="18.717670">
<ele>0.675515</ele>
<time>2012-05-02T14:15:34Z</time>
<desc>lat.=42.469933, lon.=18.717670, Alt.=0.675515m. Speed=31.212000m/h.</desc>
<speed>8.670000</speed>
</trkpt>
<trkpt lat="42.469997" lon="18.717178">
<ele>0.821816</ele>
<time>2012-05-02T14:15:39Z</time>
<desc>lat.=42.469997, lon.=18.717178, Alt.=0.821816m. Speed=28.080000m/h.</desc>
<speed>7.800000</speed>
</trkpt>
<trkpt lat="42.470146" lon="18.716707">
<ele>0.967217</ele>
<time>2012-05-02T14:15:44Z</time>
<desc>lat.=42.470146, lon.=18.716707, Alt.=0.967217m. Speed=32.507999m/h.</desc>
<speed>9.030000</speed>
</trkpt>
<trkpt lat="42.470333" lon="18.716200">
<ele>1.220963</ele>
<time>2012-05-02T14:15:49Z</time>
<desc>lat.=42.470333, lon.=18.716200, Alt.=1.220963m. Speed=31.931999m/h.</desc>
<speed>8.870000</speed>
</trkpt>
<trkpt lat="42.470585" lon="18.715807">
<ele>1.745774</ele>
<time>2012-05-02T14:15:54Z</time>
<desc>lat.=42.470585, lon.=18.715807, Alt.=1.745774m. Speed=29.879999m/h.</desc>
<speed>8.300000</speed>
</trkpt>
<trkpt lat="42.470879" lon="18.715487">
<ele>2.094698</ele>
<time>2012-05-02T14:15:59Z</time>
<desc>lat.=42.470879, lon.=18.715487, Alt.=2.094698m. Speed=32.796001m/h.</desc>
<speed>9.110000</speed>
</trkpt>
<trkpt lat="42.471195" lon="18.715246">
<ele>1.913529</ele>
<time>2012-05-02T14:16:04Z</time>
<desc>lat.=42.471195, lon.=18.715246, Alt.=1.913529m. Speed=28.440001m/h.</desc>
<speed>7.900000</speed>
</trkpt>
<trkpt lat="42.471634" lon="18.715044">
<ele>0.266445</ele>
<time>2012-05-02T14:16:09Z</time>
<desc>lat.=42.471634, lon.=18.715044, Alt.=0.266445m. Speed=34.416000m/h.</desc>
<speed>9.560000</speed>
</trkpt>
<trkpt lat="42.471954" lon="18.714804">
<ele>-1.910783</ele>
<time>2012-05-02T14:16:14Z</time>
<desc>lat.=42.471954, lon.=18.714804, Alt.=-1.910783m. Speed=31.500000m/h.</desc>
<speed>8.750000</speed>
</trkpt>
<trkpt lat="42.472256" lon="18.714550">
<ele>-3.941195</ele>
<time>2012-05-02T14:16:19Z</time>
<desc>lat.=42.472256, lon.=18.714550, Alt.=-3.941195m. Speed=25.164000m/h.</desc>
<speed>6.990000</speed>
</trkpt>
<trkpt lat="42.472343" lon="18.714098">
<ele>-4.953556</ele>
<time>2012-05-02T14:16:24Z</time>
<desc>lat.=42.472343, lon.=18.714098, Alt.=-4.953556m. Speed=26.243999m/h.</desc>
<speed>7.290000</speed>
</trkpt>
<trkpt lat="42.472351" lon="18.713676">
<ele>-5.051456</ele>
<time>2012-05-02T14:16:29Z</time>
<desc>lat.=42.472351, lon.=18.713676, Alt.=-5.051456m. Speed=21.780001m/h.</desc>
<speed>6.050000</speed>
</trkpt>
<trkpt lat="42.472397" lon="18.713320">
<ele>-6.895451</ele>
<time>2012-05-02T14:16:34Z</time>
<desc>lat.=42.472397, lon.=18.713320, Alt.=-6.895451m. Speed=19.476000m/h.</desc>
<speed>5.410000</speed>
</trkpt>
<trkpt lat="42.472485" lon="18.713028">
<ele>-7.153996</ele>
<time>2012-05-02T14:16:39Z</time>
<desc>lat.=42.472485, lon.=18.713028, Alt.=-7.153996m. Speed=18.504000m/h.</desc>
<speed>5.140000</speed>
</trkpt>
<trkpt lat="42.472481" lon="18.712675">
<ele>-6.544254</ele>
<time>2012-05-02T14:16:44Z</time>
<desc>lat.=42.472481, lon.=18.712675, Alt.=-6.544254m. Speed=24.228001m/h.</desc>
<speed>6.730000</speed>
</trkpt>
<trkpt lat="42.472389" lon="18.712301">
<ele>-5.093815</ele>
<time>2012-05-02T14:16:49Z</time>
<desc>lat.=42.472389, lon.=18.712301, Alt.=-5.093815m. Speed=21.204000m/h.</desc>
<speed>5.890000</speed>
</trkpt>
<trkpt lat="42.472324" lon="18.711964">
<ele>-3.261263</ele>
<time>2012-05-02T14:16:54Z</time>
<desc>lat.=42.472324, lon.=18.711964, Alt.=-3.261263m. Speed=18.864000m/h.</desc>
<speed>5.240000</speed>
</trkpt>
<trkpt lat="42.472282" lon="18.711672">
<ele>-2.414034</ele>
<time>2012-05-02T14:16:59Z</time>
<desc>lat.=42.472282, lon.=18.711672, Alt.=-2.414034m. Speed=16.271999m/h.</desc>
<speed>4.520000</speed>
</trkpt>
<trkpt lat="42.472332" lon="18.711349">
<ele>-2.907381</ele>
<time>2012-05-02T14:17:04Z</time>
<desc>lat.=42.472332, lon.=18.711349, Alt.=-2.907381m. Speed=22.284000m/h.</desc>
<speed>6.190000</speed>
</trkpt>
<trkpt lat="42.472385" lon="18.710941">
<ele>-1.922776</ele>
<time>2012-05-02T14:17:09Z</time>
<desc>lat.=42.472385, lon.=18.710941, Alt.=-1.922776m. Speed=26.388000m/h.</desc>
<speed>7.330000</speed>
</trkpt>
<trkpt lat="42.472469" lon="18.710489">
<ele>-1.427659</ele>
<time>2012-05-02T14:17:14Z</time>
<desc>lat.=42.472469, lon.=18.710489, Alt.=-1.427659m. Speed=26.351999m/h.</desc>
<speed>7.320000</speed>
</trkpt>
<trkpt lat="42.472565" lon="18.710091">
<ele>-1.437882</ele>
<time>2012-05-02T14:17:19Z</time>
<desc>lat.=42.472565, lon.=18.710091, Alt.=-1.437882m. Speed=22.823999m/h.</desc>
<speed>6.340000</speed>
</trkpt>
<trkpt lat="42.472675" lon="18.709738">
<ele>-1.360612</ele>
<time>2012-05-02T14:17:24Z</time>
<desc>lat.=42.472675, lon.=18.709738, Alt.=-1.360612m. Speed=22.968000m/h.</desc>
<speed>6.380000</speed>
</trkpt>
<trkpt lat="42.472729" lon="18.709335">
<ele>-1.536271</ele>
<time>2012-05-02T14:17:29Z</time>
<desc>lat.=42.472729, lon.=18.709335, Alt.=-1.536271m. Speed=26.856001m/h.</desc>
<speed>7.460000</speed>
</trkpt>
<trkpt lat="42.472599" lon="18.708944">
<ele>-1.222917</ele>
<time>2012-05-02T14:17:34Z</time>
<desc>lat.=42.472599, lon.=18.708944, Alt.=-1.222917m. Speed=23.724001m/h.</desc>
<speed>6.590000</speed>
</trkpt>
<trkpt lat="42.472431" lon="18.708616">
<ele>-0.628792</ele>
<time>2012-05-02T14:17:39Z</time>
<desc>lat.=42.472431, lon.=18.708616, Alt.=-0.628792m. Speed=23.796000m/h.</desc>
<speed>6.610000</speed>
</trkpt>
<trkpt lat="42.472256" lon="18.708254">
<ele>0.259991</ele>
<time>2012-05-02T14:17:44Z</time>
<desc>lat.=42.472256, lon.=18.708254, Alt.=0.259991m. Speed=25.091999m/h.</desc>
<speed>6.970000</speed>
</trkpt>
<trkpt lat="42.472115" lon="18.707912">
<ele>0.629006</ele>
<time>2012-05-02T14:17:49Z</time>
<desc>lat.=42.472115, lon.=18.707912, Alt.=0.629006m. Speed=23.400000m/h.</desc>
<speed>6.500000</speed>
</trkpt>
<trkpt lat="42.472008" lon="18.707525">
<ele>0.943749</ele>
<time>2012-05-02T14:17:54Z</time>
<desc>lat.=42.472008, lon.=18.707525, Alt.=0.943749m. Speed=25.200001m/h.</desc>
<speed>7.000000</speed>
</trkpt>
<trkpt lat="42.471863" lon="18.707140">
<ele>1.644120</ele>
<time>2012-05-02T14:17:59Z</time>
<desc>lat.=42.471863, lon.=18.707140, Alt.=1.644120m. Speed=24.336000m/h.</desc>
<speed>6.760000</speed>
</trkpt>
<trkpt lat="42.471729" lon="18.706787">
<ele>2.367403</ele>
<time>2012-05-02T14:18:04Z</time>
<desc>lat.=42.471729, lon.=18.706787, Alt.=2.367403m. Speed=23.760000m/h.</desc>
<speed>6.600000</speed>
</trkpt>
<trkpt lat="42.471676" lon="18.706362">
<ele>2.224764</ele>
<time>2012-05-02T14:18:09Z</time>
<desc>lat.=42.471676, lon.=18.706362, Alt.=2.224764m. Speed=26.747999m/h.</desc>
<speed>7.430000</speed>
</trkpt>
<trkpt lat="42.471786" lon="18.705946">
<ele>2.241976</ele>
<time>2012-05-02T14:18:14Z</time>
<desc>lat.=42.471786, lon.=18.705946, Alt.=2.241976m. Speed=23.544001m/h.</desc>
<speed>6.540000</speed>
</trkpt>
<trkpt lat="42.471924" lon="18.705591">
<ele>1.854295</ele>
<time>2012-05-02T14:18:19Z</time>
<desc>lat.=42.471924, lon.=18.705591, Alt.=1.854295m. Speed=23.760000m/h.</desc>
<speed>6.600000</speed>
</trkpt>
<trkpt lat="42.471996" lon="18.705210">
<ele>1.028337</ele>
<time>2012-05-02T14:18:24Z</time>
<desc>lat.=42.471996, lon.=18.705210, Alt.=1.028337m. Speed=21.888000m/h.</desc>
<speed>6.080000</speed>
</trkpt>
<trkpt lat="42.472111" lon="18.704893">
<ele>1.060472</ele>
<time>2012-05-02T14:18:29Z</time>
<desc>lat.=42.472111, lon.=18.704893, Alt.=1.060472m. Speed=19.908001m/h.</desc>
<speed>5.530000</speed>
</trkpt>
<trkpt lat="42.472336" lon="18.704681">
<ele>1.603806</ele>
<time>2012-05-02T14:18:34Z</time>
<desc>lat.=42.472336, lon.=18.704681, Alt.=1.603806m. Speed=21.851999m/h.</desc>
<speed>6.070000</speed>
</trkpt>
<trkpt lat="42.472584" lon="18.704588">
<ele>2.284395</ele>
<time>2012-05-02T14:18:39Z</time>
<desc>lat.=42.472584, lon.=18.704588, Alt.=2.284395m. Speed=20.304001m/h.</desc>
<speed>5.640000</speed>
</trkpt>
<trkpt lat="42.472828" lon="18.704485">
<ele>2.920626</ele>
<time>2012-05-02T14:18:44Z</time>
<desc>lat.=42.472828, lon.=18.704485, Alt.=2.920626m. Speed=19.332001m/h.</desc>
<speed>5.370000</speed>
</trkpt>
<trkpt lat="42.473034" lon="18.704226">
<ele>3.308626</ele>
<time>2012-05-02T14:18:49Z</time>
<desc>lat.=42.473034, lon.=18.704226, Alt.=3.308626m. Speed=22.427999m/h.</desc>
<speed>6.230000</speed>
</trkpt>
<trkpt lat="42.473167" lon="18.703917">
<ele>3.358919</ele>
<time>2012-05-02T14:18:54Z</time>
<desc>lat.=42.473167, lon.=18.703917, Alt.=3.358919m. Speed=19.980000m/h.</desc>
<speed>5.550000</speed>
</trkpt>
<trkpt lat="42.473309" lon="18.703634">
<ele>2.767427</ele>
<time>2012-05-02T14:18:59Z</time>
<desc>lat.=42.473309, lon.=18.703634, Alt.=2.767427m. Speed=17.568001m/h.</desc>
<speed>4.880000</speed>
</trkpt>
<trkpt lat="42.473400" lon="18.703375">
<ele>1.186173</ele>
<time>2012-05-02T14:19:04Z</time>
<desc>lat.=42.473400, lon.=18.703375, Alt.=1.186173m. Speed=18.792000m/h.</desc>
<speed>5.220000</speed>
</trkpt>
<trkpt lat="42.473457" lon="18.703018">
<ele>0.499348</ele>
<time>2012-05-02T14:19:09Z</time>
<desc>lat.=42.473457, lon.=18.703018, Alt.=0.499348m. Speed=23.507999m/h.</desc>
<speed>6.530000</speed>
</trkpt>
<trkpt lat="42.473507" lon="18.702623">
<ele>-0.585305</ele>
<time>2012-05-02T14:19:14Z</time>
<desc>lat.=42.473507, lon.=18.702623, Alt.=-0.585305m. Speed=22.716000m/h.</desc>
<speed>6.310000</speed>
</trkpt>
<trkpt lat="42.473591" lon="18.702272">
<ele>-1.039842</ele>
<time>2012-05-02T14:19:19Z</time>
<desc>lat.=42.473591, lon.=18.702272, Alt.=-1.039842m. Speed=23.327999m/h.</desc>
<speed>6.480000</speed>
</trkpt>
<trkpt lat="42.473751" lon="18.701954">
<ele>-0.906975</ele>
<time>2012-05-02T14:19:24Z</time>
<desc>lat.=42.473751, lon.=18.701954, Alt.=-0.906975m. Speed=21.132000m/h.</desc>
<speed>5.870000</speed>
</trkpt>
<trkpt lat="42.474052" lon="18.701782">
<ele>-0.395069</ele>
<time>2012-05-02T14:19:29Z</time>
<desc>lat.=42.474052, lon.=18.701782, Alt.=-0.395069m. Speed=24.408001m/h.</desc>
<speed>6.780000</speed>
</trkpt>
<trkpt lat="42.474323" lon="18.701561">
<ele>-0.160772</ele>
<time>2012-05-02T14:19:34Z</time>
<desc>lat.=42.474323, lon.=18.701561, Alt.=-0.160772m. Speed=23.004000m/h.</desc>
<speed>6.390000</speed>
</trkpt>
<trkpt lat="42.474522" lon="18.701284">
<ele>-0.090739</ele>
<time>2012-05-02T14:19:39Z</time>
<desc>lat.=42.474522, lon.=18.701284, Alt.=-0.090739m. Speed=23.724001m/h.</desc>
<speed>6.590000</speed>
</trkpt>
<trkpt lat="42.474689" lon="18.701002">
<ele>-0.357022</ele>
<time>2012-05-02T14:19:44Z</time>
<desc>lat.=42.474689, lon.=18.701002, Alt.=-0.357022m. Speed=21.528000m/h.</desc>
<speed>5.980000</speed>
</trkpt>
<trkpt lat="42.474731" lon="18.700603">
<ele>-0.101735</ele>
<time>2012-05-02T14:19:49Z</time>
<desc>lat.=42.474731, lon.=18.700603, Alt.=-0.101735m. Speed=27.288000m/h.</desc>
<speed>7.580000</speed>
</trkpt>
<trkpt lat="42.474716" lon="18.700151">
<ele>-0.968422</ele>
<time>2012-05-02T14:19:54Z</time>
<desc>lat.=42.474716, lon.=18.700151, Alt.=-0.968422m. Speed=26.280001m/h.</desc>
<speed>7.300000</speed>
</trkpt>
<trkpt lat="42.474865" lon="18.699759">
<ele>-0.821679</ele>
<time>2012-05-02T14:19:59Z</time>
<desc>lat.=42.474865, lon.=18.699759, Alt.=-0.821679m. Speed=25.379999m/h.</desc>
<speed>7.050000</speed>
</trkpt>
<trkpt lat="42.475002" lon="18.699368">
<ele>-0.601647</ele>
<time>2012-05-02T14:20:04Z</time>
<desc>lat.=42.475002, lon.=18.699368, Alt.=-0.601647m. Speed=25.379999m/h.</desc>
<speed>7.050000</speed>
</trkpt>
<trkpt lat="42.475094" lon="18.698984">
<ele>-1.294297</ele>
<time>2012-05-02T14:20:09Z</time>
<desc>lat.=42.475094, lon.=18.698984, Alt.=-1.294297m. Speed=21.996000m/h.</desc>
<speed>6.110000</speed>
</trkpt>
<trkpt lat="42.475288" lon="18.698715">
<ele>-1.824998</ele>
<time>2012-05-02T14:20:14Z</time>
<desc>lat.=42.475288, lon.=18.698715, Alt.=-1.824998m. Speed=20.375999m/h.</desc>
<speed>5.660000</speed>
</trkpt>
<trkpt lat="42.475506" lon="18.698494">
<ele>-2.354586</ele>
<time>2012-05-02T14:20:19Z</time>
<desc>lat.=42.475506, lon.=18.698494, Alt.=-2.354586m. Speed=20.844000m/h.</desc>
<speed>5.790000</speed>
</trkpt>
<trkpt lat="42.475651" lon="18.698214">
<ele>-2.846712</ele>
<time>2012-05-02T14:20:24Z</time>
<desc>lat.=42.475651, lon.=18.698214, Alt.=-2.846712m. Speed=22.068001m/h.</desc>
<speed>6.130000</speed>
</trkpt>
<trkpt lat="42.475716" lon="18.697836">
<ele>-2.664949</ele>
<time>2012-05-02T14:20:29Z</time>
<desc>lat.=42.475716, lon.=18.697836, Alt.=-2.664949m. Speed=24.732000m/h.</desc>
<speed>6.870000</speed>
</trkpt>
<trkpt lat="42.475666" lon="18.697464">
<ele>-2.020967</ele>
<time>2012-05-02T14:20:34Z</time>
<desc>lat.=42.475666, lon.=18.697464, Alt.=-2.020967m. Speed=18.216000m/h.</desc>
<speed>5.060000</speed>
</trkpt>
<trkpt lat="42.475613" lon="18.697174">
<ele>-1.360856</ele>
<time>2012-05-02T14:20:39Z</time>
<desc>lat.=42.475613, lon.=18.697174, Alt.=-1.360856m. Speed=16.667999m/h.</desc>
<speed>4.630000</speed>
</trkpt>
<trkpt lat="42.475609" lon="18.696871">
<ele>-0.428395</ele>
<time>2012-05-02T14:20:44Z</time>
<desc>lat.=42.475609, lon.=18.696871, Alt.=-0.428395m. Speed=19.403999m/h.</desc>
<speed>5.390000</speed>
</trkpt>
<trkpt lat="42.475662" lon="18.696554">
<ele>0.625908</ele>
<time>2012-05-02T14:20:49Z</time>
<desc>lat.=42.475662, lon.=18.696554, Alt.=0.625908m. Speed=19.188000m/h.</desc>
<speed>5.330000</speed>
</trkpt>
<trkpt lat="42.475742" lon="18.696215">
<ele>1.729539</ele>
<time>2012-05-02T14:20:54Z</time>
<desc>lat.=42.475742, lon.=18.696215, Alt.=1.729539m. Speed=20.591999m/h.</desc>
<speed>5.720000</speed>
</trkpt>
<trkpt lat="42.475826" lon="18.695913">
<ele>2.201509</ele>
<time>2012-05-02T14:20:59Z</time>
<desc>lat.=42.475826, lon.=18.695913, Alt.=2.201509m. Speed=20.232000m/h.</desc>
<speed>5.620000</speed>
</trkpt>
<trkpt lat="42.475941" lon="18.695608">
<ele>2.665987</ele>
<time>2012-05-02T14:21:04Z</time>
<desc>lat.=42.475941, lon.=18.695608, Alt.=2.665987m. Speed=21.275999m/h.</desc>
<speed>5.910000</speed>
</trkpt>
<trkpt lat="42.476036" lon="18.695303">
<ele>3.501680</ele>
<time>2012-05-02T14:21:09Z</time>
<desc>lat.=42.476036, lon.=18.695303, Alt.=3.501680m. Speed=18.756001m/h.</desc>
<speed>5.210000</speed>
</trkpt>
<trkpt lat="42.476139" lon="18.695005">
<ele>4.301701</ele>
<time>2012-05-02T14:21:14Z</time>
<desc>lat.=42.476139, lon.=18.695005, Alt.=4.301701m. Speed=20.052000m/h.</desc>
<speed>5.570000</speed>
</trkpt>
<trkpt lat="42.476212" lon="18.694695">
<ele>4.412540</ele>
<time>2012-05-02T14:21:19Z</time>
<desc>lat.=42.476212, lon.=18.694695, Alt.=4.412540m. Speed=16.559999m/h.</desc>
<speed>4.600000</speed>
</trkpt>
<trkpt lat="42.476265" lon="18.694447">
<ele>4.416569</ele>
<time>2012-05-02T14:21:24Z</time>
<desc>lat.=42.476265, lon.=18.694447, Alt.=4.416569m. Speed=12.708000m/h.</desc>
<speed>3.530000</speed>
</trkpt>
<trkpt lat="42.476357" lon="18.694231">
<ele>4.583317</ele>
<time>2012-05-02T14:21:29Z</time>
<desc>lat.=42.476357, lon.=18.694231, Alt.=4.583317m. Speed=17.208000m/h.</desc>
<speed>4.780000</speed>
</trkpt>
<trkpt lat="42.476463" lon="18.693897">
<ele>4.614323</ele>
<time>2012-05-02T14:21:34Z</time>
<desc>lat.=42.476463, lon.=18.693897, Alt.=4.614323m. Speed=20.483999m/h.</desc>
<speed>5.690000</speed>
</trkpt>
<trkpt lat="42.476582" lon="18.693569">
<ele>4.548038</ele>
<time>2012-05-02T14:21:39Z</time>
<desc>lat.=42.476582, lon.=18.693569, Alt.=4.548038m. Speed=18.576000m/h.</desc>
<speed>5.160000</speed>
</trkpt>
<trkpt lat="42.476654" lon="18.693243">
<ele>4.873722</ele>
<time>2012-05-02T14:21:44Z</time>
<desc>lat.=42.476654, lon.=18.693243, Alt.=4.873722m. Speed=19.836000m/h.</desc>
<speed>5.510000</speed>
</trkpt>
<trkpt lat="42.476753" lon="18.692913">
<ele>4.744450</ele>
<time>2012-05-02T14:21:49Z</time>
<desc>lat.=42.476753, lon.=18.692913, Alt.=4.744450m. Speed=20.268000m/h.</desc>
<speed>5.630000</speed>
</trkpt>
<trkpt lat="42.476852" lon="18.692602">
<ele>4.774479</ele>
<time>2012-05-02T14:21:54Z</time>
<desc>lat.=42.476852, lon.=18.692602, Alt.=4.774479m. Speed=18.180000m/h.</desc>
<speed>5.050000</speed>
</trkpt>
<trkpt lat="42.476933" lon="18.692289">
<ele>4.060856</ele>
<time>2012-05-02T14:21:59Z</time>
<desc>lat.=42.476933, lon.=18.692289, Alt.=4.060856m. Speed=21.059999m/h.</desc>
<speed>5.850000</speed>
</trkpt>
<trkpt lat="42.476994" lon="18.691973">
<ele>4.594669</ele>
<time>2012-05-02T14:22:04Z</time>
<desc>lat.=42.476994, lon.=18.691973, Alt.=4.594669m. Speed=15.984000m/h.</desc>
<speed>4.440000</speed>
</trkpt>
<trkpt lat="42.477043" lon="18.691687">
<ele>5.055485</ele>
<time>2012-05-02T14:22:09Z</time>
<desc>lat.=42.477043, lon.=18.691687, Alt.=5.055485m. Speed=18.143999m/h.</desc>
<speed>5.040000</speed>
</trkpt>
<trkpt lat="42.477097" lon="18.691391">
<ele>5.177189</ele>
<time>2012-05-02T14:22:14Z</time>
<desc>lat.=42.477097, lon.=18.691391, Alt.=5.177189m. Speed=16.884001m/h.</desc>
<speed>4.690000</speed>
</trkpt>
<trkpt lat="42.477142" lon="18.691107">
<ele>6.054996</ele>
<time>2012-05-02T14:22:19Z</time>
<desc>lat.=42.477142, lon.=18.691107, Alt.=6.054996m. Speed=17.712000m/h.</desc>
<speed>4.920000</speed>
</trkpt>
<trkpt lat="42.477177" lon="18.690826">
<ele>7.493351</ele>
<time>2012-05-02T14:22:24Z</time>
<desc>lat.=42.477177, lon.=18.690826, Alt.=7.493351m. Speed=17.639999m/h.</desc>
<speed>4.900000</speed>
</trkpt>
<trkpt lat="42.477180" lon="18.690536">
<ele>7.405704</ele>
<time>2012-05-02T14:22:29Z</time>
<desc>lat.=42.477180, lon.=18.690536, Alt.=7.405704m. Speed=16.667999m/h.</desc>
<speed>4.630000</speed>
</trkpt>
<trkpt lat="42.477131" lon="18.690271">
<ele>8.130257</ele>
<time>2012-05-02T14:22:34Z</time>
<desc>lat.=42.477131, lon.=18.690271, Alt.=8.130257m. Speed=17.676001m/h.</desc>
<speed>4.910000</speed>
</trkpt>
<trkpt lat="42.476997" lon="18.690042">
<ele>8.648323</ele>
<time>2012-05-02T14:22:39Z</time>
<desc>lat.=42.476997, lon.=18.690042, Alt.=8.648323m. Speed=17.280001m/h.</desc>
<speed>4.800000</speed>
</trkpt>
<trkpt lat="42.476799" lon="18.689922">
<ele>8.921272</ele>
<time>2012-05-02T14:22:44Z</time>
<desc>lat.=42.476799, lon.=18.689922, Alt.=8.921272m. Speed=18.540001m/h.</desc>
<speed>5.150000</speed>
</trkpt>
<trkpt lat="42.476593" lon="18.689793">
<ele>9.126839</ele>
<time>2012-05-02T14:22:49Z</time>
<desc>lat.=42.476593, lon.=18.689793, Alt.=9.126839m. Speed=19.980000m/h.</desc>
<speed>5.550000</speed>
</trkpt>
<trkpt lat="42.476368" lon="18.689659">
<ele>8.846809</ele>
<time>2012-05-02T14:22:54Z</time>
<desc>lat.=42.476368, lon.=18.689659, Alt.=8.846809m. Speed=16.848000m/h.</desc>
<speed>4.680000</speed>
</trkpt>
<trkpt lat="42.476131" lon="18.689466">
<ele>8.080940</ele>
<time>2012-05-02T14:22:59Z</time>
<desc>lat.=42.476131, lon.=18.689466, Alt.=8.080940m. Speed=26.747999m/h.</desc>
<speed>7.430000</speed>
</trkpt>
<trkpt lat="42.475838" lon="18.689217">
<ele>7.522038</ele>
<time>2012-05-02T14:23:04Z</time>
<desc>lat.=42.475838, lon.=18.689217, Alt.=7.522038m. Speed=46.439999m/h.</desc>
<speed>12.900000</speed>
</trkpt>
<trkpt lat="42.475506" lon="18.688950">
<ele>7.787052</ele>
<time>2012-05-02T14:23:09Z</time>
<desc>lat.=42.475506, lon.=18.688950, Alt.=7.787052m. Speed=29.160000m/h.</desc>
<speed>8.100000</speed>
</trkpt>
<trkpt lat="42.475185" lon="18.688721">
<ele>7.724186</ele>
<time>2012-05-02T14:23:14Z</time>
<desc>lat.=42.475185, lon.=18.688721, Alt.=7.724186m. Speed=28.440001m/h.</desc>
<speed>7.900000</speed>
</trkpt>
<trkpt lat="42.474899" lon="18.688505">
<ele>7.641788</ele>
<time>2012-05-02T14:23:19Z</time>
<desc>lat.=42.474899, lon.=18.688505, Alt.=7.641788m. Speed=25.596001m/h.</desc>
<speed>7.110000</speed>
</trkpt>
<trkpt lat="42.474751" lon="18.688129">
<ele>7.230656</ele>
<time>2012-05-02T14:23:24Z</time>
<desc>lat.=42.474751, lon.=18.688129, Alt.=7.230656m. Speed=24.768000m/h.</desc>
<speed>6.880000</speed>
</trkpt>
<trkpt lat="42.474594" lon="18.687790">
<ele>6.880924</ele>
<time>2012-05-02T14:23:29Z</time>
<desc>lat.=42.474594, lon.=18.687790, Alt.=6.880924m. Speed=23.940001m/h.</desc>
<speed>6.650000</speed>
</trkpt>
<trkpt lat="42.474350" lon="18.687588">
<ele>5.968571</ele>
<time>2012-05-02T14:23:34Z</time>
<desc>lat.=42.474350, lon.=18.687588, Alt.=5.968571m. Speed=22.823999m/h.</desc>
<speed>6.340000</speed>
</trkpt>
<trkpt lat="42.474113" lon="18.687290">
<ele>4.672916</ele>
<time>2012-05-02T14:23:39Z</time>
<desc>lat.=42.474113, lon.=18.687290, Alt.=4.672916m. Speed=27.000000m/h.</desc>
<speed>7.500000</speed>
</trkpt>
<trkpt lat="42.473846" lon="18.687004">
<ele>2.910006</ele>
<time>2012-05-02T14:23:44Z</time>
<desc>lat.=42.473846, lon.=18.687004, Alt.=2.910006m. Speed=27.827999m/h.</desc>
<speed>7.730000</speed>
</trkpt>
<trkpt lat="42.473549" lon="18.686773">
<ele>1.392106</ele>
<time>2012-05-02T14:23:49Z</time>
<desc>lat.=42.473549, lon.=18.686773, Alt.=1.392106m. Speed=27.576000m/h.</desc>
<speed>7.660000</speed>
</trkpt>
<trkpt lat="42.473263" lon="18.686543">
<ele>0.227949</ele>
<time>2012-05-02T14:23:54Z</time>
<desc>lat.=42.473263, lon.=18.686543, Alt.=0.227949m. Speed=25.344000m/h.</desc>
<speed>7.040000</speed>
</trkpt>
<trkpt lat="42.472958" lon="18.686424">
<ele>-1.019059</ele>
<time>2012-05-02T14:23:59Z</time>
<desc>lat.=42.472958, lon.=18.686424, Alt.=-1.019059m. Speed=27.288000m/h.</desc>
<speed>7.580000</speed>
</trkpt>
<trkpt lat="42.472607" lon="18.686495">
<ele>-2.130831</ele>
<time>2012-05-02T14:24:04Z</time>
<desc>lat.=42.472607, lon.=18.686495, Alt.=-2.130831m. Speed=29.052000m/h.</desc>
<speed>8.070000</speed>
</trkpt>
<trkpt lat="42.472256" lon="18.686611">
<ele>-3.256502</ele>
<time>2012-05-02T14:24:09Z</time>
<desc>lat.=42.472256, lon.=18.686611, Alt.=-3.256502m. Speed=30.528000m/h.</desc>
<speed>8.480000</speed>
</trkpt>
<trkpt lat="42.471931" lon="18.686750">
<ele>-4.217106</ele>
<time>2012-05-02T14:24:14Z</time>
<desc>lat.=42.471931, lon.=18.686750, Alt.=-4.217106m. Speed=25.704000m/h.</desc>
<speed>7.140000</speed>
</trkpt>
<trkpt lat="42.471672" lon="18.686832">
<ele>-5.029240</ele>
<time>2012-05-02T14:24:19Z</time>
<desc>lat.=42.471672, lon.=18.686832, Alt.=-5.029240m. Speed=20.628000m/h.</desc>
<speed>5.730000</speed>
</trkpt>
<trkpt lat="42.471424" lon="18.686842">
<ele>-5.957462</ele>
<time>2012-05-02T14:24:24Z</time>
<desc>lat.=42.471424, lon.=18.686842, Alt.=-5.957462m. Speed=19.548000m/h.</desc>
<speed>5.430000</speed>
</trkpt>
<trkpt lat="42.471153" lon="18.686897">
<ele>-6.784122</ele>
<time>2012-05-02T14:24:29Z</time>
<desc>lat.=42.471153, lon.=18.686897, Alt.=-6.784122m. Speed=19.836000m/h.</desc>
<speed>5.510000</speed>
</trkpt>
<trkpt lat="42.470871" lon="18.686979">
<ele>-7.388981</ele>
<time>2012-05-02T14:24:34Z</time>
<desc>lat.=42.470871, lon.=18.686979, Alt.=-7.388981m. Speed=23.004000m/h.</desc>
<speed>6.390000</speed>
</trkpt>
<trkpt lat="42.470577" lon="18.686916">
<ele>-7.696598</ele>
<time>2012-05-02T14:24:39Z</time>
<desc>lat.=42.470577, lon.=18.686916, Alt.=-7.696598m. Speed=23.903999m/h.</desc>
<speed>6.640000</speed>
</trkpt>
<trkpt lat="42.470272" lon="18.686789">
<ele>-8.052864</ele>
<time>2012-05-02T14:24:44Z</time>
<desc>lat.=42.470272, lon.=18.686789, Alt.=-8.052864m. Speed=21.959999m/h.</desc>
<speed>6.100000</speed>
</trkpt>
<trkpt lat="42.469994" lon="18.686642">
<ele>-6.814518</ele>
<time>2012-05-02T14:24:49Z</time>
<desc>lat.=42.469994, lon.=18.686642, Alt.=-6.814518m. Speed=21.816000m/h.</desc>
<speed>6.060000</speed>
</trkpt>
<trkpt lat="42.469727" lon="18.686464">
<ele>-6.171085</ele>
<time>2012-05-02T14:24:54Z</time>
<desc>lat.=42.469727, lon.=18.686464, Alt.=-6.171085m. Speed=22.788000m/h.</desc>
<speed>6.330000</speed>
</trkpt>
<trkpt lat="42.469482" lon="18.686209">
<ele>-3.714449</ele>
<time>2012-05-02T14:24:59Z</time>
<desc>lat.=42.469482, lon.=18.686209, Alt.=-3.714449m. Speed=23.004000m/h.</desc>
<speed>6.390000</speed>
</trkpt>
<trkpt lat="42.469269" lon="18.685980">
<ele>-2.694857</ele>
<time>2012-05-02T14:25:04Z</time>
<desc>lat.=42.469269, lon.=18.685980, Alt.=-2.694857m. Speed=21.996000m/h.</desc>
<speed>6.110000</speed>
</trkpt>
<trkpt lat="42.468975" lon="18.685932">
<ele>-1.948106</ele>
<time>2012-05-02T14:25:09Z</time>
<desc>lat.=42.468975, lon.=18.685932, Alt.=-1.948106m. Speed=26.964001m/h.</desc>
<speed>7.490000</speed>
</trkpt>
<trkpt lat="42.468662" lon="18.685833">
<ele>-1.409104</ele>
<time>2012-05-02T14:25:14Z</time>
<desc>lat.=42.468662, lon.=18.685833, Alt.=-1.409104m. Speed=25.667999m/h.</desc>
<speed>7.130000</speed>
</trkpt>
<trkpt lat="42.468391" lon="18.685669">
<ele>-2.270845</ele>
<time>2012-05-02T14:25:19Z</time>
<desc>lat.=42.468391, lon.=18.685669, Alt.=-2.270845m. Speed=22.643999m/h.</desc>
<speed>6.290000</speed>
</trkpt>
<trkpt lat="42.468151" lon="18.685539">
<ele>-2.489779</ele>
<time>2012-05-02T14:25:24Z</time>
<desc>lat.=42.468151, lon.=18.685539, Alt.=-2.489779m. Speed=20.736000m/h.</desc>
<speed>5.760000</speed>
</trkpt>
<trkpt lat="42.467884" lon="18.685482">
<ele>-1.061112</ele>
<time>2012-05-02T14:25:29Z</time>
<desc>lat.=42.467884, lon.=18.685482, Alt.=-1.061112m. Speed=18.288000m/h.</desc>
<speed>5.080000</speed>
</trkpt>
<trkpt lat="42.467648" lon="18.685680">
<ele>0.220144</ele>
<time>2012-05-02T14:25:34Z</time>
<desc>lat.=42.467648, lon.=18.685680, Alt.=0.220144m. Speed=23.219999m/h.</desc>
<speed>6.450000</speed>
</trkpt>
<trkpt lat="42.467468" lon="18.685965">
<ele>0.644295</ele>
<time>2012-05-02T14:25:39Z</time>
<desc>lat.=42.467468, lon.=18.685965, Alt.=0.644295m. Speed=22.392000m/h.</desc>
<speed>6.220000</speed>
</trkpt>
<trkpt lat="42.467274" lon="18.686249">
<ele>1.124162</ele>
<time>2012-05-02T14:25:44Z</time>
<desc>lat.=42.467274, lon.=18.686249, Alt.=1.124162m. Speed=22.392000m/h.</desc>
<speed>6.220000</speed>
</trkpt>
<trkpt lat="42.467022" lon="18.686443">
<ele>1.422868</ele>
<time>2012-05-02T14:25:49Z</time>
<desc>lat.=42.467022, lon.=18.686443, Alt.=1.422868m. Speed=25.704000m/h.</desc>
<speed>7.140000</speed>
</trkpt>
<trkpt lat="42.466724" lon="18.686449">
<ele>2.963778</ele>
<time>2012-05-02T14:25:54Z</time>
<desc>lat.=42.466724, lon.=18.686449, Alt.=2.963778m. Speed=22.608000m/h.</desc>
<speed>6.280000</speed>
</trkpt>
<trkpt lat="42.466465" lon="18.686451">
<ele>4.315128</ele>
<time>2012-05-02T14:25:59Z</time>
<desc>lat.=42.466465, lon.=18.686451, Alt.=4.315128m. Speed=19.115999m/h.</desc>
<speed>5.310000</speed>
</trkpt>
<trkpt lat="42.466248" lon="18.686443">
<ele>4.232731</ele>
<time>2012-05-02T14:26:04Z</time>
<desc>lat.=42.466248, lon.=18.686443, Alt.=4.232731m. Speed=17.208000m/h.</desc>
<speed>4.780000</speed>
</trkpt>
<trkpt lat="42.465984" lon="18.686441">
<ele>3.955294</ele>
<time>2012-05-02T14:26:09Z</time>
<desc>lat.=42.465984, lon.=18.686441, Alt.=3.955294m. Speed=20.483999m/h.</desc>
<speed>5.690000</speed>
</trkpt>
<trkpt lat="42.465752" lon="18.686436">
<ele>3.961763</ele>
<time>2012-05-02T14:26:14Z</time>
<desc>lat.=42.465752, lon.=18.686436, Alt.=3.961763m. Speed=18.827999m/h.</desc>
<speed>5.230000</speed>
</trkpt>
<trkpt lat="42.465561" lon="18.686237">
<ele>4.295841</ele>
<time>2012-05-02T14:26:19Z</time>
<desc>lat.=42.465561, lon.=18.686237, Alt.=4.295841m. Speed=16.488001m/h.</desc>
<speed>4.580000</speed>
</trkpt>
<trkpt lat="42.465473" lon="18.685986">
<ele>4.249088</ele>
<time>2012-05-02T14:26:24Z</time>
<desc>lat.=42.465473, lon.=18.685986, Alt.=4.249088m. Speed=12.852000m/h.</desc>
<speed>3.570000</speed>
</trkpt>
<trkpt lat="42.465454" lon="18.685780">
<ele>4.023380</ele>
<time>2012-05-02T14:26:29Z</time>
<desc>lat.=42.465454, lon.=18.685780, Alt.=4.023380m. Speed=8.604000m/h.</desc>
<speed>2.390000</speed>
</trkpt>
<trkpt lat="42.465496" lon="18.685638">
<ele>4.067936</ele>
<time>2012-05-02T14:26:34Z</time>
<desc>lat.=42.465496, lon.=18.685638, Alt.=4.067936m. Speed=6.840000m/h.</desc>
<speed>1.900000</speed>
</trkpt>
<trkpt lat="42.465572" lon="18.685659">
<ele>3.238619</ele>
<time>2012-05-02T14:26:39Z</time>
<desc>lat.=42.465572, lon.=18.685659, Alt.=3.238619m. Speed=1.908000m/h.</desc>
<speed>0.530000</speed>
</trkpt>
<trkpt lat="42.465584" lon="18.685648">
<ele>3.429781</ele>
<time>2012-05-02T14:26:44Z</time>
<desc>lat.=42.465584, lon.=18.685648, Alt.=3.429781m. Speed=0.216000m/h.</desc>
<speed>0.060000</speed>
</trkpt>
<trkpt lat="42.465584" lon="18.685646">
<ele>3.484529</ele>
<time>2012-05-02T14:26:49Z</time>
<desc>lat.=42.465584, lon.=18.685646, Alt.=3.484529m. Speed=0.360000m/h.</desc>
<speed>0.100000</speed>
</trkpt>
<trkpt lat="42.465584" lon="18.685646">
<ele>3.476778</ele>
<time>2012-05-02T14:26:54Z</time>
<desc>lat.=42.465584, lon.=18.685646, Alt.=3.476778m. Speed=0.432000m/h.</desc>
<speed>0.120000</speed>
</trkpt>
<trkpt lat="42.465584" lon="18.685644">
<ele>3.477083</ele>
<time>2012-05-02T14:26:59Z</time>
<desc>lat.=42.465584, lon.=18.685644, Alt.=3.477083m. Speed=0.252000m/h.</desc>
<speed>0.070000</speed>
</trkpt>
<trkpt lat="42.465584" lon="18.685640">
<ele>3.470003</ele>
<time>2012-05-02T14:27:04Z</time>
<desc>lat.=42.465584, lon.=18.685640, Alt.=3.470003m. Speed=0.432000m/h.</desc>
<speed>0.120000</speed>
</trkpt>
<trkpt lat="42.465584" lon="18.685635">
<ele>3.465120</ele>
<time>2012-05-02T14:27:09Z</time>
<desc>lat.=42.465584, lon.=18.685635, Alt.=3.465120m. Speed=0.180000m/h.</desc>
<speed>0.050000</speed>
</trkpt>
<trkpt lat="42.465588" lon="18.685635">
<ele>3.473970</ele>
<time>2012-05-02T14:27:14Z</time>
<desc>lat.=42.465588, lon.=18.685635, Alt.=3.473970m. Speed=0.108000m/h.</desc>
<speed>0.030000</speed>
</trkpt>
<trkpt lat="42.465588" lon="18.685635">
<ele>3.479158</ele>
<time>2012-05-02T14:27:19Z</time>
<desc>lat.=42.465588, lon.=18.685635, Alt.=3.479158m. Speed=0.036000m/h.</desc>
<speed>0.010000</speed>
</trkpt>
<trkpt lat="42.465588" lon="18.685635">
<ele>3.472811</ele>
<time>2012-05-02T14:27:24Z</time>
<desc>lat.=42.465588, lon.=18.685635, Alt.=3.472811m. Speed=0.468000m/h.</desc>
<speed>0.130000</speed>
</trkpt>
<trkpt lat="42.465557" lon="18.685627">
<ele>2.990633</ele>
<time>2012-05-02T14:27:29Z</time>
<desc>lat.=42.465557, lon.=18.685627, Alt.=2.990633m. Speed=2.880000m/h.</desc>
<speed>0.800000</speed>
</trkpt>
<trkpt lat="42.465515" lon="18.685617">
<ele>2.773287</ele>
<time>2012-05-02T14:27:34Z</time>
<desc>lat.=42.465515, lon.=18.685617, Alt.=2.773287m. Speed=1.728000m/h.</desc>
<speed>0.480000</speed>
</trkpt>
<trkpt lat="42.465523" lon="18.685610">
<ele>0.993935</ele>
<time>2012-05-02T14:27:39Z</time>
<desc>lat.=42.465523, lon.=18.685610, Alt.=0.993935m. Speed=2.844000m/h.</desc>
<speed>0.790000</speed>
</trkpt>
<trkpt lat="42.465523" lon="18.685589">
<ele>1.284715</ele>
<time>2012-05-02T14:27:44Z</time>
<desc>lat.=42.465523, lon.=18.685589, Alt.=1.284715m. Speed=0.000000m/h.</desc>
<speed>0.000000</speed>
</trkpt>
<trkpt lat="42.465519" lon="18.685593">
<ele>1.322831</ele>
<time>2012-05-02T14:27:49Z</time>
<desc>lat.=42.465519, lon.=18.685593, Alt.=1.322831m. Speed=0.036000m/h.</desc>
<speed>0.010000</speed>
</trkpt>
<trkpt lat="42.465519" lon="18.685593">
<ele>1.365769</ele>
<time>2012-05-02T14:27:54Z</time>
<desc>lat.=42.465519, lon.=18.685593, Alt.=1.365769m. Speed=0.036000m/h.</desc>
<speed>0.010000</speed>
</trkpt>
<trkpt lat="42.465515" lon="18.685593">
<ele>1.371476</ele>
<time>2012-05-02T14:27:59Z</time>
<desc>lat.=42.465515, lon.=18.685593, Alt.=1.371476m. Speed=0.000000m/h.</desc>
<speed>0.000000</speed>
</trkpt>
<trkpt lat="42.465515" lon="18.685593">
<ele>1.372422</ele>
<time>2012-05-02T14:28:04Z</time>
<desc>lat.=42.465515, lon.=18.685593, Alt.=1.372422m. Speed=0.036000m/h.</desc>
<speed>0.010000</speed>
</trkpt>
<trkpt lat="42.465519" lon="18.685596">
<ele>1.390733</ele>
<time>2012-05-02T14:28:09Z</time>
<desc>lat.=42.465519, lon.=18.685596, Alt.=1.390733m. Speed=0.792000m/h.</desc>
<speed>0.220000</speed>
</trkpt>
<trkpt lat="42.465549" lon="18.685652">
<ele>1.490678</ele>
<time>2012-05-02T14:28:14Z</time>
<desc>lat.=42.465549, lon.=18.685652, Alt.=1.490678m. Speed=4.896000m/h.</desc>
<speed>1.360000</speed>
</trkpt>
<trkpt lat="42.465584" lon="18.685658">
<ele>1.200883</ele>
<time>2012-05-02T14:28:19Z</time>
<desc>lat.=42.465584, lon.=18.685658, Alt.=1.200883m. Speed=0.720000m/h.</desc>
<speed>0.200000</speed>
</trkpt>
<trkpt lat="42.465584" lon="18.685658">
<ele>1.272996</ele>
<time>2012-05-02T14:28:24Z</time>
<desc>lat.=42.465584, lon.=18.685658, Alt.=1.272996m. Speed=0.072000m/h.</desc>
<speed>0.020000</speed>
</trkpt>
<trkpt lat="42.465584" lon="18.685659">
<ele>1.251786</ele>
<time>2012-05-02T14:28:29Z</time>
<desc>lat.=42.465584, lon.=18.685659, Alt.=1.251786m. Speed=0.108000m/h.</desc>
<speed>0.030000</speed>
</trkpt>
<trkpt lat="42.465584" lon="18.685658">
<ele>1.245591</ele>
<time>2012-05-02T14:28:34Z</time>
<desc>lat.=42.465584, lon.=18.685658, Alt.=1.245591m. Speed=0.108000m/h.</desc>
<speed>0.030000</speed>
</trkpt>
<trkpt lat="42.465584" lon="18.685659">
<ele>1.245744</ele>
<time>2012-05-02T14:28:39Z</time>
<desc>lat.=42.465584, lon.=18.685659, Alt.=1.245744m. Speed=0.216000m/h.</desc>
<speed>0.060000</speed>
</trkpt>
<trkpt lat="42.465584" lon="18.685665">
<ele>1.246354</ele>
<time>2012-05-02T14:28:44Z</time>
<desc>lat.=42.465584, lon.=18.685665, Alt.=1.246354m. Speed=0.144000m/h.</desc>
<speed>0.040000</speed>
</trkpt>
<trkpt lat="42.465584" lon="18.685667">
<ele>1.246537</ele>
<time>2012-05-02T14:28:49Z</time>
<desc>lat.=42.465584, lon.=18.685667, Alt.=1.246537m. Speed=0.108000m/h.</desc>
<speed>0.030000</speed>
</trkpt>
<trkpt lat="42.465584" lon="18.685669">
<ele>1.248460</ele>
<time>2012-05-02T14:28:54Z</time>
<desc>lat.=42.465584, lon.=18.685669, Alt.=1.248460m. Speed=0.108000m/h.</desc>
<speed>0.030000</speed>
</trkpt>
<trkpt lat="42.465584" lon="18.685671">
<ele>1.250749</ele>
<time>2012-05-02T14:28:59Z</time>
<desc>lat.=42.465584, lon.=18.685671, Alt.=1.250749m. Speed=0.036000m/h.</desc>
<speed>0.010000</speed>
</trkpt>
<trkpt lat="42.465588" lon="18.685673">
<ele>1.255509</ele>
<time>2012-05-02T14:29:04Z</time>
<desc>lat.=42.465588, lon.=18.685673, Alt.=1.255509m. Speed=0.036000m/h.</desc>
<speed>0.010000</speed>
</trkpt>
<trkpt lat="42.465588" lon="18.685671">
<ele>1.258195</ele>
<time>2012-05-02T14:29:09Z</time>
<desc>lat.=42.465588, lon.=18.685671, Alt.=1.258195m. Speed=0.252000m/h.</desc>
<speed>0.070000</speed>
</trkpt>
<trkpt lat="42.465584" lon="18.685671">
<ele>1.260606</ele>
<time>2012-05-02T14:29:14Z</time>
<desc>lat.=42.465584, lon.=18.685671, Alt.=1.260606m. Speed=0.072000m/h.</desc>
<speed>0.020000</speed>
</trkpt>
<trkpt lat="42.465618" lon="18.685696">
<ele>1.502275</ele>
<time>2012-05-02T14:29:19Z</time>
<desc>lat.=42.465618, lon.=18.685696, Alt.=1.502275m. Speed=4.680000m/h.</desc>
<speed>1.300000</speed>
</trkpt>
<trkpt lat="42.465710" lon="18.685640">
<ele>1.607102</ele>
<time>2012-05-02T14:29:24Z</time>
<desc>lat.=42.465710, lon.=18.685640, Alt.=1.607102m. Speed=8.964000m/h.</desc>
<speed>2.490000</speed>
</trkpt>
<trkpt lat="42.465805" lon="18.685610">
<ele>0.402882</ele>
<time>2012-05-02T14:29:29Z</time>
<desc>lat.=42.465805, lon.=18.685610, Alt.=0.402882m. Speed=4.572000m/h.</desc>
<speed>1.270000</speed>
</trkpt>
<trkpt lat="42.465843" lon="18.685587">
<ele>-1.026261</ele>
<time>2012-05-02T14:29:34Z</time>
<desc>lat.=42.465843, lon.=18.685587, Alt.=-1.026261m. Speed=1.152000m/h.</desc>
<speed>0.320000</speed>
</trkpt>
<trkpt lat="42.465847" lon="18.685593">
<ele>-1.328660</ele>
<time>2012-05-02T14:29:39Z</time>
<desc>lat.=42.465847, lon.=18.685593, Alt.=-1.328660m. Speed=0.432000m/h.</desc>
<speed>0.120000</speed>
</trkpt>
<trkpt lat="42.465847" lon="18.685595">
<ele>-1.677354</ele>
<time>2012-05-02T14:29:44Z</time>
<desc>lat.=42.465847, lon.=18.685595, Alt.=-1.677354m. Speed=0.108000m/h.</desc>
<speed>0.030000</speed>
</trkpt>
<trkpt lat="42.465847" lon="18.685593">
<ele>-1.835465</ele>
<time>2012-05-02T14:29:49Z</time>
<desc>lat.=42.465847, lon.=18.685593, Alt.=-1.835465m. Speed=0.360000m/h.</desc>
<speed>0.100000</speed>
</trkpt>
<trkpt lat="42.465847" lon="18.685591">
<ele>-1.872087</ele>
<time>2012-05-02T14:29:54Z</time>
<desc>lat.=42.465847, lon.=18.685591, Alt.=-1.872087m. Speed=0.396000m/h.</desc>
<speed>0.110000</speed>
</trkpt>
<trkpt lat="42.465843" lon="18.685591">
<ele>-2.205233</ele>
<time>2012-05-02T14:29:59Z</time>
<desc>lat.=42.465843, lon.=18.685591, Alt.=-2.205233m. Speed=0.288000m/h.</desc>
<speed>0.080000</speed>
</trkpt>
<trkpt lat="42.465843" lon="18.685585">
<ele>-2.634188</ele>
<time>2012-05-02T14:30:04Z</time>
<desc>lat.=42.465843, lon.=18.685585, Alt.=-2.634188m. Speed=0.252000m/h.</desc>
<speed>0.070000</speed>
</trkpt>
<trkpt lat="42.465843" lon="18.685583">
<ele>-2.709017</ele>
<time>2012-05-02T14:30:09Z</time>
<desc>lat.=42.465843, lon.=18.685583, Alt.=-2.709017m. Speed=0.216000m/h.</desc>
<speed>0.060000</speed>
</trkpt>
<trkpt lat="42.465843" lon="18.685581">
<ele>-2.744112</ele>
<time>2012-05-02T14:30:14Z</time>
<desc>lat.=42.465843, lon.=18.685581, Alt.=-2.744112m. Speed=0.108000m/h.</desc>
<speed>0.030000</speed>
</trkpt>
<trkpt lat="42.465836" lon="18.685568">
<ele>-2.676424</ele>
<time>2012-05-02T14:30:19Z</time>
<desc>lat.=42.465836, lon.=18.685568, Alt.=-2.676424m. Speed=0.468000m/h.</desc>
<speed>0.130000</speed>
</trkpt>
<trkpt lat="42.465836" lon="18.685577">
<ele>-2.654696</ele>
<time>2012-05-02T14:30:24Z</time>
<desc>lat.=42.465836, lon.=18.685577, Alt.=-2.654696m. Speed=0.180000m/h.</desc>
<speed>0.050000</speed>
</trkpt>
<trkpt lat="42.465836" lon="18.685577">
<ele>-2.527376</ele>
<time>2012-05-02T14:30:29Z</time>
<desc>lat.=42.465836, lon.=18.685577, Alt.=-2.527376m. Speed=0.000000m/h.</desc>
<speed>0.000000</speed>
</trkpt>
<trkpt lat="42.465836" lon="18.685577">
<ele>-2.448275</ele>
<time>2012-05-02T14:30:34Z</time>
<desc>lat.=42.465836, lon.=18.685577, Alt.=-2.448275m. Speed=0.000000m/h.</desc>
<speed>0.000000</speed>
</trkpt>
<trkpt lat="42.465836" lon="18.685575">
<ele>-2.437960</ele>
<time>2012-05-02T14:30:39Z</time>
<desc>lat.=42.465836, lon.=18.685575, Alt.=-2.437960m. Speed=0.000000m/h.</desc>
<speed>0.000000</speed>
</trkpt>
<trkpt lat="42.465836" lon="18.685575">
<ele>-2.462923</ele>
<time>2012-05-02T14:30:44Z</time>
<desc>lat.=42.465836, lon.=18.685575, Alt.=-2.462923m. Speed=0.000000m/h.</desc>
<speed>0.000000</speed>
</trkpt>
<trkpt lat="42.465836" lon="18.685574">
<ele>-2.484407</ele>
<time>2012-05-02T14:30:49Z</time>
<desc>lat.=42.465836, lon.=18.685574, Alt.=-2.484407m. Speed=0.036000m/h.</desc>
<speed>0.010000</speed>
</trkpt>
<trkpt lat="42.465836" lon="18.685574">
<ele>-2.486238</ele>
<time>2012-05-02T14:30:54Z</time>
<desc>lat.=42.465836, lon.=18.685574, Alt.=-2.486238m. Speed=0.144000m/h.</desc>
<speed>0.040000</speed>
</trkpt>
<trkpt lat="42.465836" lon="18.685572">
<ele>-2.488131</ele>
<time>2012-05-02T14:30:59Z</time>
<desc>lat.=42.465836, lon.=18.685572, Alt.=-2.488131m. Speed=0.036000m/h.</desc>
<speed>0.010000</speed>
</trkpt>
<trkpt lat="42.465836" lon="18.685572">
<ele>-2.487459</ele>
<time>2012-05-02T14:31:04Z</time>
<desc>lat.=42.465836, lon.=18.685572, Alt.=-2.487459m. Speed=0.000000m/h.</desc>
<speed>0.000000</speed>
</trkpt>
<trkpt lat="42.465836" lon="18.685572">
<ele>-2.487398</ele>
<time>2012-05-02T14:31:09Z</time>
<desc>lat.=42.465836, lon.=18.685572, Alt.=-2.487398m. Speed=0.000000m/h.</desc>
<speed>0.000000</speed>
</trkpt>
<trkpt lat="42.465836" lon="18.685572">
<ele>-2.471651</ele>
<time>2012-05-02T14:31:14Z</time>
<desc>lat.=42.465836, lon.=18.685572, Alt.=-2.471651m. Speed=0.000000m/h.</desc>
<speed>0.000000</speed>
</trkpt>
<trkpt lat="42.465836" lon="18.685572">
<ele>-2.457125</ele>
<time>2012-05-02T14:31:19Z</time>
<desc>lat.=42.465836, lon.=18.685572, Alt.=-2.457125m. Speed=0.000000m/h.</desc>
<speed>0.000000</speed>
</trkpt>
<trkpt lat="42.465836" lon="18.685572">
<ele>-2.452547</ele>
<time>2012-05-02T14:31:24Z</time>
<desc>lat.=42.465836, lon.=18.685572, Alt.=-2.452547m. Speed=0.000000m/h.</desc>
<speed>0.000000</speed>
</trkpt>
<trkpt lat="42.465836" lon="18.685572">
<ele>-2.449495</ele>
<time>2012-05-02T14:31:29Z</time>
<desc>lat.=42.465836, lon.=18.685572, Alt.=-2.449495m. Speed=0.036000m/h.</desc>
<speed>0.010000</speed>
</trkpt>
<trkpt lat="42.465836" lon="18.685572">
<ele>-2.447115</ele>
<time>2012-05-02T14:31:34Z</time>
<desc>lat.=42.465836, lon.=18.685572, Alt.=-2.447115m. Speed=0.000000m/h.</desc>
<speed>0.000000</speed>
</trkpt>
<trkpt lat="42.465836" lon="18.685572">
<ele>-2.438753</ele>
<time>2012-05-02T14:31:39Z</time>
<desc>lat.=42.465836, lon.=18.685572, Alt.=-2.438753m. Speed=0.180000m/h.</desc>
<speed>0.050000</speed>
</trkpt>
<trkpt lat="42.465836" lon="18.685572">
<ele>-2.445711</ele>
<time>2012-05-02T14:31:44Z</time>
<desc>lat.=42.465836, lon.=18.685572, Alt.=-2.445711m. Speed=0.000000m/h.</desc>
<speed>0.000000</speed>
</trkpt>
<trkpt lat="42.465836" lon="18.685572">
<ele>-2.454622</ele>
<time>2012-05-02T14:31:49Z</time>
<desc>lat.=42.465836, lon.=18.685572, Alt.=-2.454622m. Speed=0.036000m/h.</desc>
<speed>0.010000</speed>
</trkpt>
<trkpt lat="42.465836" lon="18.685574">
<ele>-2.453829</ele>
<time>2012-05-02T14:31:54Z</time>
<desc>lat.=42.465836, lon.=18.685574, Alt.=-2.453829m. Speed=0.252000m/h.</desc>
<speed>0.070000</speed>
</trkpt>
<trkpt lat="42.465836" lon="18.685577">
<ele>-2.457369</ele>
<time>2012-05-02T14:31:59Z</time>
<desc>lat.=42.465836, lon.=18.685577, Alt.=-2.457369m. Speed=0.144000m/h.</desc>
<speed>0.040000</speed>
</trkpt>
<trkpt lat="42.465836" lon="18.685579">
<ele>-2.454073</ele>
<time>2012-05-02T14:32:04Z</time>
<desc>lat.=42.465836, lon.=18.685579, Alt.=-2.454073m. Speed=0.396000m/h.</desc>
<speed>0.110000</speed>
</trkpt>
<trkpt lat="42.465832" lon="18.685575">
<ele>-2.475618</ele>
<time>2012-05-02T14:32:09Z</time>
<desc>lat.=42.465832, lon.=18.685575, Alt.=-2.475618m. Speed=0.468000m/h.</desc>
<speed>0.130000</speed>
</trkpt>
<trkpt lat="42.465832" lon="18.685574">
<ele>-2.516146</ele>
<time>2012-05-02T14:32:14Z</time>
<desc>lat.=42.465832, lon.=18.685574, Alt.=-2.516146m. Speed=0.000000m/h.</desc>
<speed>0.000000</speed>
</trkpt>
<trkpt lat="42.465832" lon="18.685574">
<ele>-2.491121</ele>
<time>2012-05-02T14:32:19Z</time>
<desc>lat.=42.465832, lon.=18.685574, Alt.=-2.491121m. Speed=0.360000m/h.</desc>
<speed>0.100000</speed>
</trkpt>
<trkpt lat="42.465832" lon="18.685574">
<ele>-2.461214</ele>
<time>2012-05-02T14:32:24Z</time>
<desc>lat.=42.465832, lon.=18.685574, Alt.=-2.461214m. Speed=0.000000m/h.</desc>
<speed>0.000000</speed>
</trkpt>
<trkpt lat="42.465832" lon="18.685572">
<ele>-2.442659</ele>
<time>2012-05-02T14:32:29Z</time>
<desc>lat.=42.465832, lon.=18.685572, Alt.=-2.442659m. Speed=0.000000m/h.</desc>
<speed>0.000000</speed>
</trkpt>
<trkpt lat="42.465832" lon="18.685572">
<ele>-2.435457</ele>
<time>2012-05-02T14:32:34Z</time>
<desc>lat.=42.465832, lon.=18.685572, Alt.=-2.435457m. Speed=0.072000m/h.</desc>
<speed>0.020000</speed>
</trkpt>
<trkpt lat="42.465832" lon="18.685572">
<ele>-2.425936</ele>
<time>2012-05-02T14:32:39Z</time>
<desc>lat.=42.465832, lon.=18.685572, Alt.=-2.425936m. Speed=0.000000m/h.</desc>
<speed>0.000000</speed>
</trkpt>
<trkpt lat="42.465832" lon="18.685572">
<ele>-2.406466</ele>
<time>2012-05-02T14:32:44Z</time>
<desc>lat.=42.465832, lon.=18.685572, Alt.=-2.406466m. Speed=0.000000m/h.</desc>
<speed>0.000000</speed>
</trkpt>
<trkpt lat="42.465832" lon="18.685572">
<ele>-2.405794</ele>
<time>2012-05-02T14:32:49Z</time>
<desc>lat.=42.465832, lon.=18.685572, Alt.=-2.405794m. Speed=0.072000m/h.</desc>
<speed>0.020000</speed>
</trkpt>
<trkpt lat="42.465832" lon="18.685570">
<ele>-2.395662</ele>
<time>2012-05-02T14:32:54Z</time>
<desc>lat.=42.465832, lon.=18.685570, Alt.=-2.395662m. Speed=0.000000m/h.</desc>
<speed>0.000000</speed>
</trkpt>
<trkpt lat="42.465832" lon="18.685570">
<ele>-2.389559</ele>
<time>2012-05-02T14:32:59Z</time>
<desc>lat.=42.465832, lon.=18.685570, Alt.=-2.389559m. Speed=0.000000m/h.</desc>
<speed>0.000000</speed>
</trkpt>
<trkpt lat="42.465832" lon="18.685570">
<ele>-2.381014</ele>
<time>2012-05-02T14:33:04Z</time>
<desc>lat.=42.465832, lon.=18.685570, Alt.=-2.381014m. Speed=0.036000m/h.</desc>
<speed>0.010000</speed>
</trkpt>
<trkpt lat="42.465832" lon="18.685570">
<ele>-2.373995</ele>
<time>2012-05-02T14:33:09Z</time>
<desc>lat.=42.465832, lon.=18.685570, Alt.=-2.373995m. Speed=0.000000m/h.</desc>
<speed>0.000000</speed>
</trkpt>
<trkpt lat="42.465832" lon="18.685570">
<ele>-2.362154</ele>
<time>2012-05-02T14:33:14Z</time>
<desc>lat.=42.465832, lon.=18.685570, Alt.=-2.362154m. Speed=0.036000m/h.</desc>
<speed>0.010000</speed>
</trkpt>
<trkpt lat="42.465832" lon="18.685570">
<ele>-2.340303</ele>
<time>2012-05-02T14:33:19Z</time>
<desc>lat.=42.465832, lon.=18.685570, Alt.=-2.340303m. Speed=0.000000m/h.</desc>
<speed>0.000000</speed>
</trkpt>
<trkpt lat="42.465832" lon="18.685568">
<ele>-2.330538</ele>
<time>2012-05-02T14:33:24Z</time>
<desc>lat.=42.465832, lon.=18.685568, Alt.=-2.330538m. Speed=0.036000m/h.</desc>
<speed>0.010000</speed>
</trkpt>
<trkpt lat="42.465832" lon="18.685568">
<ele>-2.311739</ele>
<time>2012-05-02T14:33:29Z</time>
<desc>lat.=42.465832, lon.=18.685568, Alt.=-2.311739m. Speed=0.108000m/h.</desc>
<speed>0.030000</speed>
</trkpt>
<trkpt lat="42.465832" lon="18.685568">
<ele>-2.299410</ele>
<time>2012-05-02T14:33:34Z</time>
<desc>lat.=42.465832, lon.=18.685568, Alt.=-2.299410m. Speed=0.000000m/h.</desc>
<speed>0.000000</speed>
</trkpt>
<trkpt lat="42.465832" lon="18.685568">
<ele>-2.287264</ele>
<time>2012-05-02T14:33:39Z</time>
<desc>lat.=42.465832, lon.=18.685568, Alt.=-2.287264m. Speed=0.000000m/h.</desc>
<speed>0.000000</speed>
</trkpt>
<trkpt lat="42.465832" lon="18.685568">
<ele>-2.272127</ele>
<time>2012-05-02T14:33:44Z</time>
<desc>lat.=42.465832, lon.=18.685568, Alt.=-2.272127m. Speed=0.000000m/h.</desc>
<speed>0.000000</speed>
</trkpt>
<trkpt lat="42.465832" lon="18.685568">
<ele>-2.254549</ele>
<time>2012-05-02T14:33:49Z</time>
<desc>lat.=42.465832, lon.=18.685568, Alt.=-2.254549m. Speed=0.000000m/h.</desc>
<speed>0.000000</speed>
</trkpt>
<trkpt lat="42.465832" lon="18.685568">
<ele>-2.238741</ele>
<time>2012-05-02T14:33:54Z</time>
<desc>lat.=42.465832, lon.=18.685568, Alt.=-2.238741m. Speed=0.000000m/h.</desc>
<speed>0.000000</speed>
</trkpt>
<trkpt lat="42.465832" lon="18.685568">
<ele>-2.218477</ele>
<time>2012-05-02T14:33:59Z</time>
<desc>lat.=42.465832, lon.=18.685568, Alt.=-2.218477m. Speed=0.000000m/h.</desc>
<speed>0.000000</speed>
</trkpt>
<trkpt lat="42.465836" lon="18.685568">
<ele>-2.211702</ele>
<time>2012-05-02T14:34:04Z</time>
<desc>lat.=42.465836, lon.=18.685568, Alt.=-2.211702m. Speed=0.036000m/h.</desc>
<speed>0.010000</speed>
</trkpt>
<trkpt lat="42.465832" lon="18.685568">
<ele>-2.214449</ele>
<time>2012-05-02T14:34:09Z</time>
<desc>lat.=42.465832, lon.=18.685568, Alt.=-2.214449m. Speed=0.072000m/h.</desc>
<speed>0.020000</speed>
</trkpt>
<trkpt lat="42.465832" lon="18.685566">
<ele>-2.206331</ele>
<time>2012-05-02T14:34:14Z</time>
<desc>lat.=42.465832, lon.=18.685566, Alt.=-2.206331m. Speed=0.000000m/h.</desc>
<speed>0.000000</speed>
</trkpt>
<trkpt lat="42.465832" lon="18.685566">
<ele>-2.201876</ele>
<time>2012-05-02T14:34:19Z</time>
<desc>lat.=42.465832, lon.=18.685566, Alt.=-2.201876m. Speed=0.072000m/h.</desc>
<speed>0.020000</speed>
</trkpt>
<trkpt lat="42.465832" lon="18.685566">
<ele>-2.197542</ele>
<time>2012-05-02T14:34:24Z</time>
<desc>lat.=42.465832, lon.=18.685566, Alt.=-2.197542m. Speed=0.036000m/h.</desc>
<speed>0.010000</speed>
</trkpt>
<trkpt lat="42.465832" lon="18.685566">
<ele>-2.195467</ele>
<time>2012-05-02T14:34:29Z</time>
<desc>lat.=42.465832, lon.=18.685566, Alt.=-2.195467m. Speed=0.000000m/h.</desc>
<speed>0.000000</speed>
</trkpt>
<trkpt lat="42.465832" lon="18.685568">
<ele>-2.194796</ele>
<time>2012-05-02T14:34:34Z</time>
<desc>lat.=42.465832, lon.=18.685568, Alt.=-2.194796m. Speed=0.072000m/h.</desc>
<speed>0.020000</speed>
</trkpt>
<trkpt lat="42.465832" lon="18.685568">
<ele>-2.194490</ele>
<time>2012-05-02T14:34:39Z</time>
<desc>lat.=42.465832, lon.=18.685568, Alt.=-2.194490m. Speed=0.036000m/h.</desc>
<speed>0.010000</speed>
</trkpt>
<trkpt lat="42.465832" lon="18.685568">
<ele>-2.193453</ele>
<time>2012-05-02T14:34:44Z</time>
<desc>lat.=42.465832, lon.=18.685568, Alt.=-2.193453m. Speed=0.000000m/h.</desc>
<speed>0.000000</speed>
</trkpt>
<trkpt lat="42.465832" lon="18.685568">
<ele>-2.189974</ele>
<time>2012-05-02T14:34:49Z</time>
<desc>lat.=42.465832, lon.=18.685568, Alt.=-2.189974m. Speed=0.072000m/h.</desc>
<speed>0.020000</speed>
</trkpt>
<trkpt lat="42.465832" lon="18.685568">
<ele>-2.180696</ele>
<time>2012-05-02T14:34:54Z</time>
<desc>lat.=42.465832, lon.=18.685568, Alt.=-2.180696m. Speed=0.000000m/h.</desc>
<speed>0.000000</speed>
</trkpt>
<trkpt lat="42.465832" lon="18.685568">
<ele>-2.178377</ele>
<time>2012-05-02T14:34:59Z</time>
<desc>lat.=42.465832, lon.=18.685568, Alt.=-2.178377m. Speed=0.000000m/h.</desc>
<speed>0.000000</speed>
</trkpt>
<trkpt lat="42.465832" lon="18.685568">
<ele>-2.182344</ele>
<time>2012-05-02T14:35:04Z</time>
<desc>lat.=42.465832, lon.=18.685568, Alt.=-2.182344m. Speed=0.000000m/h.</desc>
<speed>0.000000</speed>
</trkpt>
<trkpt lat="42.465832" lon="18.685568">
<ele>-2.183260</ele>
<time>2012-05-02T14:35:09Z</time>
<desc>lat.=42.465832, lon.=18.685568, Alt.=-2.183260m. Speed=0.000000m/h.</desc>
<speed>0.000000</speed>
</trkpt>
<trkpt lat="42.465832" lon="18.685568">
<ele>-2.181612</ele>
<time>2012-05-02T14:35:14Z</time>
<desc>lat.=42.465832, lon.=18.685568, Alt.=-2.181612m. Speed=0.000000m/h.</desc>
<speed>0.000000</speed>
</trkpt>
<trkpt lat="42.465832" lon="18.685568">
<ele>-2.179049</ele>
<time>2012-05-02T14:35:19Z</time>
<desc>lat.=42.465832, lon.=18.685568, Alt.=-2.179049m. Speed=0.216000m/h.</desc>
<speed>0.060000</speed>
</trkpt>
<trkpt lat="42.465855" lon="18.685555">
<ele>-2.126558</ele>
<time>2012-05-02T14:35:24Z</time>
<desc>lat.=42.465855, lon.=18.685555, Alt.=-2.126558m. Speed=1.872000m/h.</desc>
<speed>0.520000</speed>
</trkpt>
<trkpt lat="42.465935" lon="18.685535">
<ele>-1.785600</ele>
<time>2012-05-02T14:35:29Z</time>
<desc>lat.=42.465935, lon.=18.685535, Alt.=-1.785600m. Speed=6.480000m/h.</desc>
<speed>1.800000</speed>
</trkpt>
<trkpt lat="42.466034" lon="18.685522">
<ele>-1.265550</ele>
<time>2012-05-02T14:35:34Z</time>
<desc>lat.=42.466034, lon.=18.685522, Alt.=-1.265550m. Speed=7.272000m/h.</desc>
<speed>2.020000</speed>
</trkpt>
<trkpt lat="42.466122" lon="18.685478">
<ele>-0.560524</ele>
<time>2012-05-02T14:35:39Z</time>
<desc>lat.=42.466122, lon.=18.685478, Alt.=-0.560524m. Speed=8.424000m/h.</desc>
<speed>2.340000</speed>
</trkpt>
<trkpt lat="42.466209" lon="18.685415">
<ele>-0.189928</ele>
<time>2012-05-02T14:35:44Z</time>
<desc>lat.=42.466209, lon.=18.685415, Alt.=-0.189928m. Speed=7.668000m/h.</desc>
<speed>2.130000</speed>
</trkpt>
<trkpt lat="42.466351" lon="18.685318">
<ele>-1.467515</ele>
<time>2012-05-02T14:35:49Z</time>
<desc>lat.=42.466351, lon.=18.685318, Alt.=-1.467515m. Speed=9.360000m/h.</desc>
<speed>2.600000</speed>
</trkpt>
<trkpt lat="42.466476" lon="18.685207">
<ele>-0.313587</ele>
<time>2012-05-02T14:35:54Z</time>
<desc>lat.=42.466476, lon.=18.685207, Alt.=-0.313587m. Speed=9.864000m/h.</desc>
<speed>2.740000</speed>
</trkpt>
<trkpt lat="42.466564" lon="18.685097">
<ele>5.524601</ele>
<time>2012-05-02T14:35:59Z</time>
<desc>lat.=42.466564, lon.=18.685097, Alt.=5.524601m. Speed=11.376000m/h.</desc>
<speed>3.160000</speed>
</trkpt>
<trkpt lat="42.466671" lon="18.684977">
<ele>6.172550</ele>
<time>2012-05-02T14:36:04Z</time>
<desc>lat.=42.466671, lon.=18.684977, Alt.=6.172550m. Speed=11.664000m/h.</desc>
<speed>3.240000</speed>
</trkpt>
<trkpt lat="42.466782" lon="18.684866">
<ele>6.898869</ele>
<time>2012-05-02T14:36:09Z</time>
<desc>lat.=42.466782, lon.=18.684866, Alt.=6.898869m. Speed=12.276000m/h.</desc>
<speed>3.410000</speed>
</trkpt>
<trkpt lat="42.466885" lon="18.684713">
<ele>3.024080</ele>
<time>2012-05-02T14:36:14Z</time>
<desc>lat.=42.466885, lon.=18.684713, Alt.=3.024080m. Speed=12.204000m/h.</desc>
<speed>3.390000</speed>
</trkpt>
<trkpt lat="42.466965" lon="18.684563">
<ele>-1.870835</ele>
<time>2012-05-02T14:36:19Z</time>
<desc>lat.=42.466965, lon.=18.684563, Alt.=-1.870835m. Speed=12.888000m/h.</desc>
<speed>3.580000</speed>
</trkpt>
<trkpt lat="42.467072" lon="18.684401">
<ele>-1.648454</ele>
<time>2012-05-02T14:36:24Z</time>
<desc>lat.=42.467072, lon.=18.684401, Alt.=-1.648454m. Speed=12.420000m/h.</desc>
<speed>3.450000</speed>
</trkpt>
<trkpt lat="42.467148" lon="18.684227">
<ele>1.710282</ele>
<time>2012-05-02T14:36:29Z</time>
<desc>lat.=42.467148, lon.=18.684227, Alt.=1.710282m. Speed=12.348000m/h.</desc>
<speed>3.430000</speed>
</trkpt>
<trkpt lat="42.467224" lon="18.684048">
<ele>4.626163</ele>
<time>2012-05-02T14:36:34Z</time>
<desc>lat.=42.467224, lon.=18.684048, Alt.=4.626163m. Speed=13.068000m/h.</desc>
<speed>3.630000</speed>
</trkpt>
<trkpt lat="42.467304" lon="18.683863">
<ele>3.324190</ele>
<time>2012-05-02T14:36:39Z</time>
<desc>lat.=42.467304, lon.=18.683863, Alt.=3.324190m. Speed=12.744000m/h.</desc>
<speed>3.540000</speed>
</trkpt>
<trkpt lat="42.467400" lon="18.683636">
<ele>1.658952</ele>
<time>2012-05-02T14:36:44Z</time>
<desc>lat.=42.467400, lon.=18.683636, Alt.=1.658952m. Speed=12.600000m/h.</desc>
<speed>3.500000</speed>
</trkpt>
<trkpt lat="42.467461" lon="18.683443">
<ele>1.250962</ele>
<time>2012-05-02T14:36:49Z</time>
<desc>lat.=42.467461, lon.=18.683443, Alt.=1.250962m. Speed=12.492000m/h.</desc>
<speed>3.470000</speed>
</trkpt>
<trkpt lat="42.467480" lon="18.683241">
<ele>-1.278459</ele>
<time>2012-05-02T14:36:54Z</time>
<desc>lat.=42.467480, lon.=18.683241, Alt.=-1.278459m. Speed=12.420000m/h.</desc>
<speed>3.450000</speed>
</trkpt>
<trkpt lat="42.467472" lon="18.683046">
<ele>-0.734612</ele>
<time>2012-05-02T14:36:59Z</time>
<desc>lat.=42.467472, lon.=18.683046, Alt.=-0.734612m. Speed=12.780000m/h.</desc>
<speed>3.550000</speed>
</trkpt>
<trkpt lat="42.467476" lon="18.682850">
<ele>0.469036</ele>
<time>2012-05-02T14:37:04Z</time>
<desc>lat.=42.467476, lon.=18.682850, Alt.=0.469036m. Speed=12.708000m/h.</desc>
<speed>3.530000</speed>
</trkpt>
<trkpt lat="42.467499" lon="18.682648">
<ele>1.178422</ele>
<time>2012-05-02T14:37:09Z</time>
<desc>lat.=42.467499, lon.=18.682648, Alt.=1.178422m. Speed=12.708000m/h.</desc>
<speed>3.530000</speed>
</trkpt>
<trkpt lat="42.467525" lon="18.682426">
<ele>3.754976</ele>
<time>2012-05-02T14:37:14Z</time>
<desc>lat.=42.467525, lon.=18.682426, Alt.=3.754976m. Speed=12.780000m/h.</desc>
<speed>3.550000</speed>
</trkpt>
<trkpt lat="42.467533" lon="18.682199">
<ele>4.254704</ele>
<time>2012-05-02T14:37:19Z</time>
<desc>lat.=42.467533, lon.=18.682199, Alt.=4.254704m. Speed=12.996000m/h.</desc>
<speed>3.610000</speed>
</trkpt>
<trkpt lat="42.467537" lon="18.681978">
<ele>3.255281</ele>
<time>2012-05-02T14:37:24Z</time>
<desc>lat.=42.467537, lon.=18.681978, Alt.=3.255281m. Speed=12.960000m/h.</desc>
<speed>3.600000</speed>
</trkpt>
<trkpt lat="42.467545" lon="18.681770">
<ele>0.998162</ele>
<time>2012-05-02T14:37:29Z</time>
<desc>lat.=42.467545, lon.=18.681770, Alt.=0.998162m. Speed=13.068000m/h.</desc>
<speed>3.630000</speed>
</trkpt>
<trkpt lat="42.467567" lon="18.681561">
<ele>1.010331</ele>
<time>2012-05-02T14:37:34Z</time>
<desc>lat.=42.467567, lon.=18.681561, Alt.=1.010331m. Speed=13.428000m/h.</desc>
<speed>3.730000</speed>
</trkpt>
<trkpt lat="42.467564" lon="18.681324">
<ele>-0.140253</ele>
<time>2012-05-02T14:37:39Z</time>
<desc>lat.=42.467564, lon.=18.681324, Alt.=-0.140253m. Speed=13.356000m/h.</desc>
<speed>3.710000</speed>
</trkpt>
<trkpt lat="42.467567" lon="18.681097">
<ele>0.002841</ele>
<time>2012-05-02T14:37:44Z</time>
<desc>lat.=42.467567, lon.=18.681097, Alt.=0.002841m. Speed=13.032000m/h.</desc>
<speed>3.620000</speed>
</trkpt>
<trkpt lat="42.467552" lon="18.680870">
<ele>-0.883004</ele>
<time>2012-05-02T14:37:49Z</time>
<desc>lat.=42.467552, lon.=18.680870, Alt.=-0.883004m. Speed=13.284000m/h.</desc>
<speed>3.690000</speed>
</trkpt>
<trkpt lat="42.467548" lon="18.680651">
<ele>-2.593111</ele>
<time>2012-05-02T14:37:54Z</time>
<desc>lat.=42.467548, lon.=18.680651, Alt.=-2.593111m. Speed=13.068000m/h.</desc>
<speed>3.630000</speed>
</trkpt>
<trkpt lat="42.467510" lon="18.680445">
<ele>-2.985994</ele>
<time>2012-05-02T14:37:59Z</time>
<desc>lat.=42.467510, lon.=18.680445, Alt.=-2.985994m. Speed=12.924000m/h.</desc>
<speed>3.590000</speed>
</trkpt>
<trkpt lat="42.467480" lon="18.680220">
<ele>-3.964144</ele>
<time>2012-05-02T14:38:04Z</time>
<desc>lat.=42.467480, lon.=18.680220, Alt.=-3.964144m. Speed=12.672000m/h.</desc>
<speed>3.520000</speed>
</trkpt>
<trkpt lat="42.467453" lon="18.679979">
<ele>-5.326969</ele>
<time>2012-05-02T14:38:09Z</time>
<desc>lat.=42.467453, lon.=18.679979, Alt.=-5.326969m. Speed=13.104000m/h.</desc>
<speed>3.640000</speed>
</trkpt>
<trkpt lat="42.467468" lon="18.679794">
<ele>-4.936466</ele>
<time>2012-05-02T14:38:14Z</time>
<desc>lat.=42.467468, lon.=18.679794, Alt.=-4.936466m. Speed=13.104000m/h.</desc>
<speed>3.640000</speed>
</trkpt>
<trkpt lat="42.467442" lon="18.679579">
<ele>-3.848604</ele>
<time>2012-05-02T14:38:19Z</time>
<desc>lat.=42.467442, lon.=18.679579, Alt.=-3.848604m. Speed=13.068000m/h.</desc>
<speed>3.630000</speed>
</trkpt>
<trkpt lat="42.467403" lon="18.679382">
<ele>-2.162996</ele>
<time>2012-05-02T14:38:24Z</time>
<desc>lat.=42.467403, lon.=18.679382, Alt.=-2.162996m. Speed=12.816000m/h.</desc>
<speed>3.560000</speed>
</trkpt>
<trkpt lat="42.467361" lon="18.679173">
<ele>-3.676363</ele>
<time>2012-05-02T14:38:29Z</time>
<desc>lat.=42.467361, lon.=18.679173, Alt.=-3.676363m. Speed=12.744000m/h.</desc>
<speed>3.540000</speed>
</trkpt>
<trkpt lat="42.467346" lon="18.678968">
<ele>-5.261539</ele>
<time>2012-05-02T14:38:34Z</time>
<desc>lat.=42.467346, lon.=18.678968, Alt.=-5.261539m. Speed=12.780000m/h.</desc>
<speed>3.550000</speed>
</trkpt>
<trkpt lat="42.467312" lon="18.678772">
<ele>-6.957340</ele>
<time>2012-05-02T14:38:39Z</time>
<desc>lat.=42.467312, lon.=18.678772, Alt.=-6.957340m. Speed=12.204000m/h.</desc>
<speed>3.390000</speed>
</trkpt>
<trkpt lat="42.467278" lon="18.678581">
<ele>-9.195930</ele>
<time>2012-05-02T14:38:44Z</time>
<desc>lat.=42.467278, lon.=18.678581, Alt.=-9.195930m. Speed=12.672000m/h.</desc>
<speed>3.520000</speed>
</trkpt>
<trkpt lat="42.467266" lon="18.678383">
<ele>-9.607063</ele>
<time>2012-05-02T14:38:49Z</time>
<desc>lat.=42.467266, lon.=18.678383, Alt.=-9.607063m. Speed=12.672000m/h.</desc>
<speed>3.520000</speed>
</trkpt>
<trkpt lat="42.467224" lon="18.678173">
<ele>-11.416389</ele>
<time>2012-05-02T14:38:54Z</time>
<desc>lat.=42.467224, lon.=18.678173, Alt.=-11.416389m. Speed=12.780000m/h.</desc>
<speed>3.550000</speed>
</trkpt>
<trkpt lat="42.467186" lon="18.677963">
<ele>-11.915413</ele>
<time>2012-05-02T14:38:59Z</time>
<desc>lat.=42.467186, lon.=18.677963, Alt.=-11.915413m. Speed=12.420000m/h.</desc>
<speed>3.450000</speed>
</trkpt>
<trkpt lat="42.467125" lon="18.677742">
<ele>-14.057991</ele>
<time>2012-05-02T14:39:04Z</time>
<desc>lat.=42.467125, lon.=18.677742, Alt.=-14.057991m. Speed=13.176000m/h.</desc>
<speed>3.660000</speed>
</trkpt>
<trkpt lat="42.467098" lon="18.677519">
<ele>-14.396370</ele>
<time>2012-05-02T14:39:09Z</time>
<desc>lat.=42.467098, lon.=18.677519, Alt.=-14.396370m. Speed=13.032000m/h.</desc>
<speed>3.620000</speed>
</trkpt>
<trkpt lat="42.467041" lon="18.677309">
<ele>-12.001595</ele>
<time>2012-05-02T14:39:14Z</time>
<desc>lat.=42.467041, lon.=18.677309, Alt.=-12.001595m. Speed=12.816000m/h.</desc>
<speed>3.560000</speed>
</trkpt>
<trkpt lat="42.466991" lon="18.677101">
<ele>-10.652718</ele>
<time>2012-05-02T14:39:19Z</time>
<desc>lat.=42.466991, lon.=18.677101, Alt.=-10.652718m. Speed=12.744000m/h.</desc>
<speed>3.540000</speed>
</trkpt>
<trkpt lat="42.466949" lon="18.676884">
<ele>-11.122200</ele>
<time>2012-05-02T14:39:24Z</time>
<desc>lat.=42.466949, lon.=18.676884, Alt.=-11.122200m. Speed=12.744000m/h.</desc>
<speed>3.540000</speed>
</trkpt>
<trkpt lat="42.466911" lon="18.676704">
<ele>-11.947884</ele>
<time>2012-05-02T14:39:29Z</time>
<desc>lat.=42.466911, lon.=18.676704, Alt.=-11.947884m. Speed=12.924000m/h.</desc>
<speed>3.590000</speed>
</trkpt>
<trkpt lat="42.466858" lon="18.676500">
<ele>-11.080696</ele>
<time>2012-05-02T14:39:34Z</time>
<desc>lat.=42.466858, lon.=18.676500, Alt.=-11.080696m. Speed=12.888000m/h.</desc>
<speed>3.580000</speed>
</trkpt>
<trkpt lat="42.466785" lon="18.676300">
<ele>-10.661507</ele>
<time>2012-05-02T14:39:39Z</time>
<desc>lat.=42.466785, lon.=18.676300, Alt.=-10.661507m. Speed=12.384000m/h.</desc>
<speed>3.440000</speed>
</trkpt>
<trkpt lat="42.466743" lon="18.676113">
<ele>-11.006233</ele>
<time>2012-05-02T14:39:44Z</time>
<desc>lat.=42.466743, lon.=18.676113, Alt.=-11.006233m. Speed=12.924000m/h.</desc>
<speed>3.590000</speed>
</trkpt>
<trkpt lat="42.466690" lon="18.675938">
<ele>-10.498421</ele>
<time>2012-05-02T14:39:49Z</time>
<desc>lat.=42.466690, lon.=18.675938, Alt.=-10.498421m. Speed=11.952000m/h.</desc>
<speed>3.320000</speed>
</trkpt>
<trkpt lat="42.466618" lon="18.675694">
<ele>-10.116341</ele>
<time>2012-05-02T14:39:54Z</time>
<desc>lat.=42.466618, lon.=18.675694, Alt.=-10.116341m. Speed=11.700000m/h.</desc>
<speed>3.250000</speed>
</trkpt>
<trkpt lat="42.466568" lon="18.675526">
<ele>-5.935368</ele>
<time>2012-05-02T14:39:59Z</time>
<desc>lat.=42.466568, lon.=18.675526, Alt.=-5.935368m. Speed=10.440000m/h.</desc>
<speed>2.900000</speed>
</trkpt>
<trkpt lat="42.466549" lon="18.675341">
<ele>-2.016939</ele>
<time>2012-05-02T14:40:04Z</time>
<desc>lat.=42.466549, lon.=18.675341, Alt.=-2.016939m. Speed=9.504000m/h.</desc>
<speed>2.640000</speed>
</trkpt>
<trkpt lat="42.466534" lon="18.675171">
<ele>-2.509127</ele>
<time>2012-05-02T14:40:09Z</time>
<desc>lat.=42.466534, lon.=18.675171, Alt.=-2.509127m. Speed=8.208000m/h.</desc>
<speed>2.280000</speed>
</trkpt>
<trkpt lat="42.466522" lon="18.675041">
<ele>-0.766640</ele>
<time>2012-05-02T14:40:14Z</time>
<desc>lat.=42.466522, lon.=18.675041, Alt.=-0.766640m. Speed=6.912000m/h.</desc>
<speed>1.920000</speed>
</trkpt>
<trkpt lat="42.466530" lon="18.674931">
<ele>-2.079439</ele>
<time>2012-05-02T14:40:19Z</time>
<desc>lat.=42.466530, lon.=18.674931, Alt.=-2.079439m. Speed=6.012000m/h.</desc>
<speed>1.670000</speed>
</trkpt>
<trkpt lat="42.466515" lon="18.674856">
<ele>-4.485661</ele>
<time>2012-05-02T14:40:24Z</time>
<desc>lat.=42.466515, lon.=18.674856, Alt.=-4.485661m. Speed=4.644000m/h.</desc>
<speed>1.290000</speed>
</trkpt>
<trkpt lat="42.466537" lon="18.674812">
<ele>-5.913395</ele>
<time>2012-05-02T14:40:29Z</time>
<desc>lat.=42.466537, lon.=18.674812, Alt.=-5.913395m. Speed=3.276000m/h.</desc>
<speed>0.910000</speed>
</trkpt>
<trkpt lat="42.466545" lon="18.674763">
<ele>-6.250187</ele>
<time>2012-05-02T14:40:34Z</time>
<desc>lat.=42.466545, lon.=18.674763, Alt.=-6.250187m. Speed=2.520000m/h.</desc>
<speed>0.700000</speed>
</trkpt>
<trkpt lat="42.466553" lon="18.674726">
<ele>-6.999699</ele>
<time>2012-05-02T14:40:39Z</time>
<desc>lat.=42.466553, lon.=18.674726, Alt.=-6.999699m. Speed=1.692000m/h.</desc>
<speed>0.470000</speed>
</trkpt>
<trkpt lat="42.466553" lon="18.674706">
<ele>-7.409245</ele>
<time>2012-05-02T14:40:44Z</time>
<desc>lat.=42.466553, lon.=18.674706, Alt.=-7.409245m. Speed=0.756000m/h.</desc>
<speed>0.210000</speed>
</trkpt>
<trkpt lat="42.466545" lon="18.674698">
<ele>-7.455387</ele>
<time>2012-05-02T14:40:49Z</time>
<desc>lat.=42.466545, lon.=18.674698, Alt.=-7.455387m. Speed=0.540000m/h.</desc>
<speed>0.150000</speed>
</trkpt>
<trkpt lat="42.466537" lon="18.674692">
<ele>-7.455387</ele>
<time>2012-05-02T14:40:54Z</time>
<desc>lat.=42.466537, lon.=18.674692, Alt.=-7.455387m. Speed=0.252000m/h.</desc>
<speed>0.070000</speed>
</trkpt>
<trkpt lat="42.466534" lon="18.674686">
<ele>-7.663151</ele>
<time>2012-05-02T14:40:59Z</time>
<desc>lat.=42.466534, lon.=18.674686, Alt.=-7.663151m. Speed=0.504000m/h.</desc>
<speed>0.140000</speed>
</trkpt>
<trkpt lat="42.466534" lon="18.674688">
<ele>-7.792667</ele>
<time>2012-05-02T14:41:04Z</time>
<desc>lat.=42.466534, lon.=18.674688, Alt.=-7.792667m. Speed=0.432000m/h.</desc>
<speed>0.120000</speed>
</trkpt>
<trkpt lat="42.466537" lon="18.674692">
<ele>-7.830631</ele>
<time>2012-05-02T14:41:09Z</time>
<desc>lat.=42.466537, lon.=18.674692, Alt.=-7.830631m. Speed=0.504000m/h.</desc>
<speed>0.140000</speed>
</trkpt>
<trkpt lat="42.466537" lon="18.674692">
<ele>-7.832951</ele>
<time>2012-05-02T14:41:14Z</time>
<desc>lat.=42.466537, lon.=18.674692, Alt.=-7.832951m. Speed=0.216000m/h.</desc>
<speed>0.060000</speed>
</trkpt>
<trkpt lat="42.466537" lon="18.674696">
<ele>-7.822453</ele>
<time>2012-05-02T14:41:19Z</time>
<desc>lat.=42.466537, lon.=18.674696, Alt.=-7.822453m. Speed=0.432000m/h.</desc>
<speed>0.120000</speed>
</trkpt>
<trkpt lat="42.466541" lon="18.674706">
<ele>-7.819645</ele>
<time>2012-05-02T14:41:24Z</time>
<desc>lat.=42.466541, lon.=18.674706, Alt.=-7.819645m. Speed=0.036000m/h.</desc>
<speed>0.010000</speed>
</trkpt>
<trkpt lat="42.466541" lon="18.674707">
<ele>-7.549992</ele>
<time>2012-05-02T14:41:29Z</time>
<desc>lat.=42.466541, lon.=18.674707, Alt.=-7.549992m. Speed=0.000000m/h.</desc>
<speed>0.000000</speed>
</trkpt>
<trkpt lat="42.466545" lon="18.674713">
<ele>-7.196354</ele>
<time>2012-05-02T14:41:34Z</time>
<desc>lat.=42.466545, lon.=18.674713, Alt.=-7.196354m. Speed=0.180000m/h.</desc>
<speed>0.050000</speed>
</trkpt>
<trkpt lat="42.466549" lon="18.674713">
<ele>-6.985294</ele>
<time>2012-05-02T14:41:39Z</time>
<desc>lat.=42.466549, lon.=18.674713, Alt.=-6.985294m. Speed=0.684000m/h.</desc>
<speed>0.190000</speed>
</trkpt>
<trkpt lat="42.466545" lon="18.674707">
<ele>-6.845036</ele>
<time>2012-05-02T14:41:44Z</time>
<desc>lat.=42.466545, lon.=18.674707, Alt.=-6.845036m. Speed=1.152000m/h.</desc>
<speed>0.320000</speed>
</trkpt>
<trkpt lat="42.466541" lon="18.674698">
<ele>-6.690372</ele>
<time>2012-05-02T14:41:49Z</time>
<desc>lat.=42.466541, lon.=18.674698, Alt.=-6.690372m. Speed=0.648000m/h.</desc>
<speed>0.180000</speed>
</trkpt>
<trkpt lat="42.466549" lon="18.674694">
<ele>-6.634830</ele>
<time>2012-05-02T14:41:54Z</time>
<desc>lat.=42.466549, lon.=18.674694, Alt.=-6.634830m. Speed=0.576000m/h.</desc>
<speed>0.160000</speed>
</trkpt>
<trkpt lat="42.466557" lon="18.674677">
<ele>-6.581730</ele>
<time>2012-05-02T14:41:59Z</time>
<desc>lat.=42.466557, lon.=18.674677, Alt.=-6.581730m. Speed=1.260000m/h.</desc>
<speed>0.350000</speed>
</trkpt>
<trkpt lat="42.466560" lon="18.674658">
<ele>-6.504459</ele>
<time>2012-05-02T14:42:04Z</time>
<desc>lat.=42.466560, lon.=18.674658, Alt.=-6.504459m. Speed=3.312000m/h.</desc>
<speed>0.920000</speed>
</trkpt>
<trkpt lat="42.466583" lon="18.674627">
<ele>-6.256290</ele>
<time>2012-05-02T14:42:09Z</time>
<desc>lat.=42.466583, lon.=18.674627, Alt.=-6.256290m. Speed=3.204000m/h.</desc>
<speed>0.890000</speed>
</trkpt>
<trkpt lat="42.466629" lon="18.674574">
<ele>-5.367008</ele>
<time>2012-05-02T14:42:14Z</time>
<desc>lat.=42.466629, lon.=18.674574, Alt.=-5.367008m. Speed=2.736000m/h.</desc>
<speed>0.760000</speed>
</trkpt>
<trkpt lat="42.466694" lon="18.674486">
<ele>-5.164616</ele>
<time>2012-05-02T14:42:19Z</time>
<desc>lat.=42.466694, lon.=18.674486, Alt.=-5.164616m. Speed=5.040000m/h.</desc>
<speed>1.400000</speed>
</trkpt>
<trkpt lat="42.466702" lon="18.674442">
<ele>-5.050968</ele>
<time>2012-05-02T14:42:24Z</time>
<desc>lat.=42.466702, lon.=18.674442, Alt.=-5.050968m. Speed=1.260000m/h.</desc>
<speed>0.350000</speed>
</trkpt>
<trkpt lat="42.466732" lon="18.674379">
<ele>-4.825504</ele>
<time>2012-05-02T14:42:29Z</time>
<desc>lat.=42.466732, lon.=18.674379, Alt.=-4.825504m. Speed=4.968000m/h.</desc>
<speed>1.380000</speed>
</trkpt>
<trkpt lat="42.466667" lon="18.674170">
<ele>-4.680241</ele>
<time>2012-05-02T14:42:34Z</time>
<desc>lat.=42.466667, lon.=18.674170, Alt.=-4.680241m. Speed=13.932000m/h.</desc>
<speed>3.870000</speed>
</trkpt>
<trkpt lat="42.466572" lon="18.673941">
<ele>-4.648136</ele>
<time>2012-05-02T14:42:39Z</time>
<desc>lat.=42.466572, lon.=18.673941, Alt.=-4.648136m. Speed=14.940000m/h.</desc>
<speed>4.150000</speed>
</trkpt>
<trkpt lat="42.466484" lon="18.673738">
<ele>-4.619450</ele>
<time>2012-05-02T14:42:44Z</time>
<desc>lat.=42.466484, lon.=18.673738, Alt.=-4.619450m. Speed=14.652000m/h.</desc>
<speed>4.070000</speed>
</trkpt>
<trkpt lat="42.466362" lon="18.673502">
<ele>-4.271915</ele>
<time>2012-05-02T14:42:49Z</time>
<desc>lat.=42.466362, lon.=18.673502, Alt.=-4.271915m. Speed=16.344000m/h.</desc>
<speed>4.540000</speed>
</trkpt>
<trkpt lat="42.466164" lon="18.673365">
<ele>-3.648409</ele>
<time>2012-05-02T14:42:54Z</time>
<desc>lat.=42.466164, lon.=18.673365, Alt.=-3.648409m. Speed=18.035999m/h.</desc>
<speed>5.010000</speed>
</trkpt>
<trkpt lat="42.465984" lon="18.673321">
<ele>-3.009432</ele>
<time>2012-05-02T14:42:59Z</time>
<desc>lat.=42.465984, lon.=18.673321, Alt.=-3.009432m. Speed=13.788000m/h.</desc>
<speed>3.830000</speed>
</trkpt>
<trkpt lat="42.465816" lon="18.673376">
<ele>-2.396029</ele>
<time>2012-05-02T14:43:04Z</time>
<desc>lat.=42.465816, lon.=18.673376, Alt.=-2.396029m. Speed=15.084000m/h.</desc>
<speed>4.190000</speed>
</trkpt>
<trkpt lat="42.465603" lon="18.673393">
<ele>-2.011202</ele>
<time>2012-05-02T14:43:09Z</time>
<desc>lat.=42.465603, lon.=18.673393, Alt.=-2.011202m. Speed=15.696000m/h.</desc>
<speed>4.360000</speed>
</trkpt>
<trkpt lat="42.465504" lon="18.673382">
<ele>-1.471696</ele>
<time>2012-05-02T14:43:14Z</time>
<desc>lat.=42.465504, lon.=18.673382, Alt.=-1.471696m. Speed=2.232000m/h.</desc>
<speed>0.620000</speed>
</trkpt>
<trkpt lat="42.465492" lon="18.673363">
<ele>-1.129624</ele>
<time>2012-05-02T14:43:19Z</time>
<desc>lat.=42.465492, lon.=18.673363, Alt.=-1.129624m. Speed=0.036000m/h.</desc>
<speed>0.010000</speed>
</trkpt>
<trkpt lat="42.465488" lon="18.673363">
<ele>-1.069505</ele>
<time>2012-05-02T14:43:24Z</time>
<desc>lat.=42.465488, lon.=18.673363, Alt.=-1.069505m. Speed=0.144000m/h.</desc>
<speed>0.040000</speed>
</trkpt>
<trkpt lat="42.465496" lon="18.673380">
<ele>-1.022935</ele>
<time>2012-05-02T14:43:29Z</time>
<desc>lat.=42.465496, lon.=18.673380, Alt.=-1.022935m. Speed=2.124000m/h.</desc>
<speed>0.590000</speed>
</trkpt>
<trkpt lat="42.465591" lon="18.673372">
<ele>-1.004594</ele>
<time>2012-05-02T14:43:34Z</time>
<desc>lat.=42.465591, lon.=18.673372, Alt.=-1.004594m. Speed=6.660000m/h.</desc>
<speed>1.850000</speed>
</trkpt>
<trkpt lat="42.465618" lon="18.673323">
<ele>-1.266709</ele>
<time>2012-05-02T14:43:39Z</time>
<desc>lat.=42.465618, lon.=18.673323, Alt.=-1.266709m. Speed=1.980000m/h.</desc>
<speed>0.550000</speed>
</trkpt>
<trkpt lat="42.465603" lon="18.673334">
<ele>-1.286515</ele>
<time>2012-05-02T14:43:44Z</time>
<desc>lat.=42.465603, lon.=18.673334, Alt.=-1.286515m. Speed=1.440000m/h.</desc>
<speed>0.400000</speed>
</trkpt>
<trkpt lat="42.465595" lon="18.673338">
<ele>-1.341569</ele>
<time>2012-05-02T14:43:49Z</time>
<desc>lat.=42.465595, lon.=18.673338, Alt.=-1.341569m. Speed=0.720000m/h.</desc>
<speed>0.200000</speed>
</trkpt>
<trkpt lat="42.465588" lon="18.673340">
<ele>-1.357896</ele>
<time>2012-05-02T14:43:54Z</time>
<desc>lat.=42.465588, lon.=18.673340, Alt.=-1.357896m. Speed=0.252000m/h.</desc>
<speed>0.070000</speed>
</trkpt>
<trkpt lat="42.465588" lon="18.673336">
<ele>-1.365434</ele>
<time>2012-05-02T14:43:59Z</time>
<desc>lat.=42.465588, lon.=18.673336, Alt.=-1.365434m. Speed=0.108000m/h.</desc>
<speed>0.030000</speed>
</trkpt>
<trkpt lat="42.465588" lon="18.673336">
<ele>-1.363572</ele>
<time>2012-05-02T14:44:04Z</time>
<desc>lat.=42.465588, lon.=18.673336, Alt.=-1.363572m. Speed=0.144000m/h.</desc>
<speed>0.040000</speed>
</trkpt>
<trkpt lat="42.465588" lon="18.673336">
<ele>-1.359422</ele>
<time>2012-05-02T14:44:09Z</time>
<desc>lat.=42.465588, lon.=18.673336, Alt.=-1.359422m. Speed=0.000000m/h.</desc>
<speed>0.000000</speed>
</trkpt>
<trkpt lat="42.465588" lon="18.673336">
<ele>-1.358140</ele>
<time>2012-05-02T14:44:14Z</time>
<desc>lat.=42.465588, lon.=18.673336, Alt.=-1.358140m. Speed=0.000000m/h.</desc>
<speed>0.000000</speed>
</trkpt>
<trkpt lat="42.465588" lon="18.673336">
<ele>-1.356065</ele>
<time>2012-05-02T14:44:19Z</time>
<desc>lat.=42.465588, lon.=18.673336, Alt.=-1.356065m. Speed=0.036000m/h.</desc>
<speed>0.010000</speed>
</trkpt>
<trkpt lat="42.465588" lon="18.673336">
<ele>-1.352342</ele>
<time>2012-05-02T14:44:24Z</time>
<desc>lat.=42.465588, lon.=18.673336, Alt.=-1.352342m. Speed=0.036000m/h.</desc>
<speed>0.010000</speed>
</trkpt>
<trkpt lat="42.465588" lon="18.673336">
<ele>-1.351213</ele>
<time>2012-05-02T14:44:29Z</time>
<desc>lat.=42.465588, lon.=18.673336, Alt.=-1.351213m. Speed=0.000000m/h.</desc>
<speed>0.000000</speed>
</trkpt>
<trkpt lat="42.465588" lon="18.673338">
<ele>-1.348344</ele>
<time>2012-05-02T14:44:34Z</time>
<desc>lat.=42.465588, lon.=18.673338, Alt.=-1.348344m. Speed=0.036000m/h.</desc>
<speed>0.010000</speed>
</trkpt>
<trkpt lat="42.465588" lon="18.673338">
<ele>-1.346543</ele>
<time>2012-05-02T14:44:39Z</time>
<desc>lat.=42.465588, lon.=18.673338, Alt.=-1.346543m. Speed=0.000000m/h.</desc>
<speed>0.000000</speed>
</trkpt>
<trkpt lat="42.465588" lon="18.673338">
<ele>-1.345323</ele>
<time>2012-05-02T14:44:44Z</time>
<desc>lat.=42.465588, lon.=18.673338, Alt.=-1.345323m. Speed=0.000000m/h.</desc>
<speed>0.000000</speed>
</trkpt>
<trkpt lat="42.465588" lon="18.673338">
<ele>-1.343949</ele>
<time>2012-05-02T14:44:49Z</time>
<desc>lat.=42.465588, lon.=18.673338, Alt.=-1.343949m. Speed=0.000000m/h.</desc>
<speed>0.000000</speed>
</trkpt>
<trkpt lat="42.465588" lon="18.673338">
<ele>-1.342851</ele>
<time>2012-05-02T14:44:54Z</time>
<desc>lat.=42.465588, lon.=18.673338, Alt.=-1.342851m. Speed=0.000000m/h.</desc>
<speed>0.000000</speed>
</trkpt>
<trkpt lat="42.465588" lon="18.673338">
<ele>-1.341477</ele>
<time>2012-05-02T14:44:59Z</time>
<desc>lat.=42.465588, lon.=18.673338, Alt.=-1.341477m. Speed=0.072000m/h.</desc>
<speed>0.020000</speed>
</trkpt>
<trkpt lat="42.465588" lon="18.673338">
<ele>-1.340745</ele>
<time>2012-05-02T14:45:04Z</time>
<desc>lat.=42.465588, lon.=18.673338, Alt.=-1.340745m. Speed=0.000000m/h.</desc>
<speed>0.000000</speed>
</trkpt>
<trkpt lat="42.465588" lon="18.673338">
<ele>-1.338151</ele>
<time>2012-05-02T14:45:09Z</time>
<desc>lat.=42.465588, lon.=18.673338, Alt.=-1.338151m. Speed=0.000000m/h.</desc>
<speed>0.000000</speed>
</trkpt>
<trkpt lat="42.465584" lon="18.673338">
<ele>-1.335191</ele>
<time>2012-05-02T14:45:14Z</time>
<desc>lat.=42.465584, lon.=18.673338, Alt.=-1.335191m. Speed=0.000000m/h.</desc>
<speed>0.000000</speed>
</trkpt>
<trkpt lat="42.465584" lon="18.673338">
<ele>-1.331712</ele>
<time>2012-05-02T14:45:19Z</time>
<desc>lat.=42.465584, lon.=18.673338, Alt.=-1.331712m. Speed=0.000000m/h.</desc>
<speed>0.000000</speed>
</trkpt>
<trkpt lat="42.465584" lon="18.673338">
<ele>-1.332414</ele>
<time>2012-05-02T14:45:24Z</time>
<desc>lat.=42.465584, lon.=18.673338, Alt.=-1.332414m. Speed=0.000000m/h.</desc>
<speed>0.000000</speed>
</trkpt>
<trkpt lat="42.465584" lon="18.673338">
<ele>-1.332780</ele>
<time>2012-05-02T14:45:29Z</time>
<desc>lat.=42.465584, lon.=18.673338, Alt.=-1.332780m. Speed=0.000000m/h.</desc>
<speed>0.000000</speed>
</trkpt>
<trkpt lat="42.465584" lon="18.673338">
<ele>-1.333390</ele>
<time>2012-05-02T14:45:34Z</time>
<desc>lat.=42.465584, lon.=18.673338, Alt.=-1.333390m. Speed=0.000000m/h.</desc>
<speed>0.000000</speed>
</trkpt>
<trkpt lat="42.465584" lon="18.673336">
<ele>-1.335588</ele>
<time>2012-05-02T14:45:39Z</time>
<desc>lat.=42.465584, lon.=18.673336, Alt.=-1.335588m. Speed=0.000000m/h.</desc>
<speed>0.000000</speed>
</trkpt>
<trkpt lat="42.465584" lon="18.673336">
<ele>-1.339311</ele>
<time>2012-05-02T14:45:44Z</time>
<desc>lat.=42.465584, lon.=18.673336, Alt.=-1.339311m. Speed=0.000000m/h.</desc>
<speed>0.000000</speed>
</trkpt>
<trkpt lat="42.465584" lon="18.673336">
<ele>-1.342088</ele>
<time>2012-05-02T14:45:49Z</time>
<desc>lat.=42.465584, lon.=18.673336, Alt.=-1.342088m. Speed=0.000000m/h.</desc>
<speed>0.000000</speed>
</trkpt>
<trkpt lat="42.465584" lon="18.673336">
<ele>-1.345445</ele>
<time>2012-05-02T14:45:54Z</time>
<desc>lat.=42.465584, lon.=18.673336, Alt.=-1.345445m. Speed=0.036000m/h.</desc>
<speed>0.010000</speed>
</trkpt>
<trkpt lat="42.465584" lon="18.673336">
<ele>-1.347489</ele>
<time>2012-05-02T14:45:59Z</time>
<desc>lat.=42.465584, lon.=18.673336, Alt.=-1.347489m. Speed=0.036000m/h.</desc>
<speed>0.010000</speed>
</trkpt>
<trkpt lat="42.465584" lon="18.673336">
<ele>-1.350022</ele>
<time>2012-05-02T14:46:04Z</time>
<desc>lat.=42.465584, lon.=18.673336, Alt.=-1.350022m. Speed=0.036000m/h.</desc>
<speed>0.010000</speed>
</trkpt>
<trkpt lat="42.465584" lon="18.673336">
<ele>-1.349656</ele>
<time>2012-05-02T14:46:09Z</time>
<desc>lat.=42.465584, lon.=18.673336, Alt.=-1.349656m. Speed=0.000000m/h.</desc>
<speed>0.000000</speed>
</trkpt>
<trkpt lat="42.465584" lon="18.673336">
<ele>-1.349961</ele>
<time>2012-05-02T14:46:14Z</time>
<desc>lat.=42.465584, lon.=18.673336, Alt.=-1.349961m. Speed=0.036000m/h.</desc>
<speed>0.010000</speed>
</trkpt>
<trkpt lat="42.465584" lon="18.673336">
<ele>-1.349290</ele>
<time>2012-05-02T14:46:19Z</time>
<desc>lat.=42.465584, lon.=18.673336, Alt.=-1.349290m. Speed=0.000000m/h.</desc>
<speed>0.000000</speed>
</trkpt>
<trkpt lat="42.465584" lon="18.673336">
<ele>-1.349168</ele>
<time>2012-05-02T14:46:24Z</time>
<desc>lat.=42.465584, lon.=18.673336, Alt.=-1.349168m. Speed=0.000000m/h.</desc>
<speed>0.000000</speed>
</trkpt>
<trkpt lat="42.465584" lon="18.673336">
<ele>-1.347245</ele>
<time>2012-05-02T14:46:29Z</time>
<desc>lat.=42.465584, lon.=18.673336, Alt.=-1.347245m. Speed=0.072000m/h.</desc>
<speed>0.020000</speed>
</trkpt>
<trkpt lat="42.465584" lon="18.673336">
<ele>-1.347123</ele>
<time>2012-05-02T14:46:34Z</time>
<desc>lat.=42.465584, lon.=18.673336, Alt.=-1.347123m. Speed=0.000000m/h.</desc>
<speed>0.000000</speed>
</trkpt>
<trkpt lat="42.465584" lon="18.673336">
<ele>-1.349748</ele>
<time>2012-05-02T14:46:39Z</time>
<desc>lat.=42.465584, lon.=18.673336, Alt.=-1.349748m. Speed=0.036000m/h.</desc>
<speed>0.010000</speed>
</trkpt>
<trkpt lat="42.465584" lon="18.673336">
<ele>-1.354112</ele>
<time>2012-05-02T14:46:44Z</time>
<desc>lat.=42.465584, lon.=18.673336, Alt.=-1.354112m. Speed=0.000000m/h.</desc>
<speed>0.000000</speed>
</trkpt>
<trkpt lat="42.465584" lon="18.673336">
<ele>-1.355302</ele>
<time>2012-05-02T14:46:49Z</time>
<desc>lat.=42.465584, lon.=18.673336, Alt.=-1.355302m. Speed=0.036000m/h.</desc>
<speed>0.010000</speed>
</trkpt>
<trkpt lat="42.465580" lon="18.673336">
<ele>-1.354295</ele>
<time>2012-05-02T14:46:54Z</time>
<desc>lat.=42.465580, lon.=18.673336, Alt.=-1.354295m. Speed=0.000000m/h.</desc>
<speed>0.000000</speed>
</trkpt>
<trkpt lat="42.465580" lon="18.673338">
<ele>-1.351945</ele>
<time>2012-05-02T14:46:59Z</time>
<desc>lat.=42.465580, lon.=18.673338, Alt.=-1.351945m. Speed=0.000000m/h.</desc>
<speed>0.000000</speed>
</trkpt>
<trkpt lat="42.465580" lon="18.673338">
<ele>-1.348771</ele>
<time>2012-05-02T14:47:04Z</time>
<desc>lat.=42.465580, lon.=18.673338, Alt.=-1.348771m. Speed=0.036000m/h.</desc>
<speed>0.010000</speed>
</trkpt>
<trkpt lat="42.465580" lon="18.673338">
<ele>-1.343431</ele>
<time>2012-05-02T14:47:09Z</time>
<desc>lat.=42.465580, lon.=18.673338, Alt.=-1.343431m. Speed=0.000000m/h.</desc>
<speed>0.000000</speed>
</trkpt>
<trkpt lat="42.465580" lon="18.673340">
<ele>-1.334947</ele>
<time>2012-05-02T14:47:14Z</time>
<desc>lat.=42.465580, lon.=18.673340, Alt.=-1.334947m. Speed=0.000000m/h.</desc>
<speed>0.000000</speed>
</trkpt>
<trkpt lat="42.465580" lon="18.673340">
<ele>-1.327928</ele>
<time>2012-05-02T14:47:19Z</time>
<desc>lat.=42.465580, lon.=18.673340, Alt.=-1.327928m. Speed=0.000000m/h.</desc>
<speed>0.000000</speed>
</trkpt>
<trkpt lat="42.465580" lon="18.673340">
<ele>-1.320970</ele>
<time>2012-05-02T14:47:24Z</time>
<desc>lat.=42.465580, lon.=18.673340, Alt.=-1.320970m. Speed=0.036000m/h.</desc>
<speed>0.010000</speed>
</trkpt>
<trkpt lat="42.465580" lon="18.673340">
<ele>-1.317582</ele>
<time>2012-05-02T14:47:29Z</time>
<desc>lat.=42.465580, lon.=18.673340, Alt.=-1.317582m. Speed=0.000000m/h.</desc>
<speed>0.000000</speed>
</trkpt>
<trkpt lat="42.465580" lon="18.673340">
<ele>-1.314195</ele>
<time>2012-05-02T14:47:34Z</time>
<desc>lat.=42.465580, lon.=18.673340, Alt.=-1.314195m. Speed=0.036000m/h.</desc>
<speed>0.010000</speed>
</trkpt>
<trkpt lat="42.465580" lon="18.673342">
<ele>-1.310258</ele>
<time>2012-05-02T14:47:39Z</time>
<desc>lat.=42.465580, lon.=18.673342, Alt.=-1.310258m. Speed=0.036000m/h.</desc>
<speed>0.010000</speed>
</trkpt>
<trkpt lat="42.465580" lon="18.673342">
<ele>-1.308000</ele>
<time>2012-05-02T14:47:44Z</time>
<desc>lat.=42.465580, lon.=18.673342, Alt.=-1.308000m. Speed=0.000000m/h.</desc>
<speed>0.000000</speed>
</trkpt>
<trkpt lat="42.465580" lon="18.673342">
<ele>-1.302964</ele>
<time>2012-05-02T14:47:49Z</time>
<desc>lat.=42.465580, lon.=18.673342, Alt.=-1.302964m. Speed=0.036000m/h.</desc>
<speed>0.010000</speed>
</trkpt>
<trkpt lat="42.465580" lon="18.673342">
<ele>-1.298631</ele>
<time>2012-05-02T14:47:54Z</time>
<desc>lat.=42.465580, lon.=18.673342, Alt.=-1.298631m. Speed=0.036000m/h.</desc>
<speed>0.010000</speed>
</trkpt>
<trkpt lat="42.465580" lon="18.673344">
<ele>-1.291429</ele>
<time>2012-05-02T14:47:59Z</time>
<desc>lat.=42.465580, lon.=18.673344, Alt.=-1.291429m. Speed=0.072000m/h.</desc>
<speed>0.020000</speed>
</trkpt>
<trkpt lat="42.465580" lon="18.673344">
<ele>-1.283891</ele>
<time>2012-05-02T14:48:04Z</time>
<desc>lat.=42.465580, lon.=18.673344, Alt.=-1.283891m. Speed=0.000000m/h.</desc>
<speed>0.000000</speed>
</trkpt>
<trkpt lat="42.465580" lon="18.673344">
<ele>-1.277635</ele>
<time>2012-05-02T14:48:09Z</time>
<desc>lat.=42.465580, lon.=18.673344, Alt.=-1.277635m. Speed=0.000000m/h.</desc>
<speed>0.000000</speed>
</trkpt>
<trkpt lat="42.465580" lon="18.673344">
<ele>-1.272569</ele>
<time>2012-05-02T14:48:14Z</time>
<desc>lat.=42.465580, lon.=18.673344, Alt.=-1.272569m. Speed=0.000000m/h.</desc>
<speed>0.000000</speed>
</trkpt>
<trkpt lat="42.465580" lon="18.673346">
<ele>-1.267198</ele>
<time>2012-05-02T14:48:19Z</time>
<desc>lat.=42.465580, lon.=18.673346, Alt.=-1.267198m. Speed=0.000000m/h.</desc>
<speed>0.000000</speed>
</trkpt>
<trkpt lat="42.465580" lon="18.673346">
<ele>-1.262315</ele>
<time>2012-05-02T14:48:24Z</time>
<desc>lat.=42.465580, lon.=18.673346, Alt.=-1.262315m. Speed=0.072000m/h.</desc>
<speed>0.020000</speed>
</trkpt>
<trkpt lat="42.465580" lon="18.673346">
<ele>-1.259843</ele>
<time>2012-05-02T14:48:29Z</time>
<desc>lat.=42.465580, lon.=18.673346, Alt.=-1.259843m. Speed=0.000000m/h.</desc>
<speed>0.000000</speed>
</trkpt>
<trkpt lat="42.465580" lon="18.673346">
<ele>-1.259995</ele>
<time>2012-05-02T14:48:34Z</time>
<desc>lat.=42.465580, lon.=18.673346, Alt.=-1.259995m. Speed=0.036000m/h.</desc>
<speed>0.010000</speed>
</trkpt>
<trkpt lat="42.465580" lon="18.673346">
<ele>-1.258470</ele>
<time>2012-05-02T14:48:39Z</time>
<desc>lat.=42.465580, lon.=18.673346, Alt.=-1.258470m. Speed=0.000000m/h.</desc>
<speed>0.000000</speed>
</trkpt>
<trkpt lat="42.465580" lon="18.673346">
<ele>-1.259568</ele>
<time>2012-05-02T14:48:44Z</time>
<desc>lat.=42.465580, lon.=18.673346, Alt.=-1.259568m. Speed=0.000000m/h.</desc>
<speed>0.000000</speed>
</trkpt>
<trkpt lat="42.465580" lon="18.673346">
<ele>-1.259049</ele>
<time>2012-05-02T14:48:49Z</time>
<desc>lat.=42.465580, lon.=18.673346, Alt.=-1.259049m. Speed=0.000000m/h.</desc>
<speed>0.000000</speed>
</trkpt>
<trkpt lat="42.465580" lon="18.673344">
<ele>-1.264268</ele>
<time>2012-05-02T14:48:54Z</time>
<desc>lat.=42.465580, lon.=18.673344, Alt.=-1.264268m. Speed=1.152000m/h.</desc>
<speed>0.320000</speed>
</trkpt>
<trkpt lat="42.465557" lon="18.673336">
<ele>-1.359422</ele>
<time>2012-05-02T14:48:59Z</time>
<desc>lat.=42.465557, lon.=18.673336, Alt.=-1.359422m. Speed=1.404000m/h.</desc>
<speed>0.390000</speed>
</trkpt>
<trkpt lat="42.465515" lon="18.673378">
<ele>-1.401475</ele>
<time>2012-05-02T14:49:04Z</time>
<desc>lat.=42.465515, lon.=18.673378, Alt.=-1.401475m. Speed=2.412000m/h.</desc>
<speed>0.670000</speed>
</trkpt>
<trkpt lat="42.465405" lon="18.673435">
<ele>-1.421403</ele>
<time>2012-05-02T14:49:09Z</time>
<desc>lat.=42.465405, lon.=18.673435, Alt.=-1.421403m. Speed=6.660000m/h.</desc>
<speed>1.850000</speed>
</trkpt>
<trkpt lat="42.465218" lon="18.673424">
<ele>-1.312333</ele>
<time>2012-05-02T14:49:14Z</time>
<desc>lat.=42.465218, lon.=18.673424, Alt.=-1.312333m. Speed=14.040000m/h.</desc>
<speed>3.900000</speed>
</trkpt>
<trkpt lat="42.465012" lon="18.673445">
<ele>-1.027787</ele>
<time>2012-05-02T14:49:19Z</time>
<desc>lat.=42.465012, lon.=18.673445, Alt.=-1.027787m. Speed=15.768000m/h.</desc>
<speed>4.380000</speed>
</trkpt>
<trkpt lat="42.464672" lon="18.673416">
<ele>-1.385636</ele>
<time>2012-05-02T14:49:24Z</time>
<desc>lat.=42.464672, lon.=18.673416, Alt.=-1.385636m. Speed=14.976000m/h.</desc>
<speed>4.160000</speed>
</trkpt>
<trkpt lat="42.464447" lon="18.673426">
<ele>-1.298448</ele>
<time>2012-05-02T14:49:29Z</time>
<desc>lat.=42.464447, lon.=18.673426, Alt.=-1.298448m. Speed=15.948000m/h.</desc>
<speed>4.430000</speed>
</trkpt>
<trkpt lat="42.464230" lon="18.673428">
<ele>-1.271470</ele>
<time>2012-05-02T14:49:34Z</time>
<desc>lat.=42.464230, lon.=18.673428, Alt.=-1.271470m. Speed=15.480000m/h.</desc>
<speed>4.300000</speed>
</trkpt>
<trkpt lat="42.464020" lon="18.673447">
<ele>-1.318925</ele>
<time>2012-05-02T14:49:39Z</time>
<desc>lat.=42.464020, lon.=18.673447, Alt.=-1.318925m. Speed=15.156000m/h.</desc>
<speed>4.210000</speed>
</trkpt>
<trkpt lat="42.463799" lon="18.673479">
<ele>-0.492520</ele>
<time>2012-05-02T14:49:44Z</time>
<desc>lat.=42.463799, lon.=18.673479, Alt.=-0.492520m. Speed=17.172001m/h.</desc>
<speed>4.770000</speed>
</trkpt>
<trkpt lat="42.463593" lon="18.673429">
<ele>0.481282</ele>
<time>2012-05-02T14:49:49Z</time>
<desc>lat.=42.463593, lon.=18.673429, Alt.=0.481282m. Speed=16.596001m/h.</desc>
<speed>4.610000</speed>
</trkpt>
<trkpt lat="42.463398" lon="18.673307">
<ele>1.453721</ele>
<time>2012-05-02T14:49:54Z</time>
<desc>lat.=42.463398, lon.=18.673307, Alt.=1.453721m. Speed=16.775999m/h.</desc>
<speed>4.660000</speed>
</trkpt>
<trkpt lat="42.463207" lon="18.673166">
<ele>2.780367</ele>
<time>2012-05-02T14:49:59Z</time>
<desc>lat.=42.463207, lon.=18.673166, Alt.=2.780367m. Speed=17.351999m/h.</desc>
<speed>4.820000</speed>
</trkpt>
<trkpt lat="42.463051" lon="18.672960">
<ele>4.795963</ele>
<time>2012-05-02T14:50:04Z</time>
<desc>lat.=42.463051, lon.=18.672960, Alt.=4.795963m. Speed=24.084000m/h.</desc>
<speed>6.690000</speed>
</trkpt>
<trkpt lat="42.462803" lon="18.672882">
<ele>3.057650</ele>
<time>2012-05-02T14:50:09Z</time>
<desc>lat.=42.462803, lon.=18.672882, Alt.=3.057650m. Speed=18.972000m/h.</desc>
<speed>5.270000</speed>
</trkpt>
<trkpt lat="42.462543" lon="18.672876">
<ele>2.022738</ele>
<time>2012-05-02T14:50:14Z</time>
<desc>lat.=42.462543, lon.=18.672876, Alt.=2.022738m. Speed=19.656000m/h.</desc>
<speed>5.460000</speed>
</trkpt>
<trkpt lat="42.462269" lon="18.672951">
<ele>1.098283</ele>
<time>2012-05-02T14:50:19Z</time>
<desc>lat.=42.462269, lon.=18.672951, Alt.=1.098283m. Speed=20.700001m/h.</desc>
<speed>5.750000</speed>
</trkpt>
<trkpt lat="42.461994" lon="18.673063">
<ele>0.625710</ele>
<time>2012-05-02T14:50:24Z</time>
<desc>lat.=42.461994, lon.=18.673063, Alt.=0.625710m. Speed=23.327999m/h.</desc>
<speed>6.480000</speed>
</trkpt>
<trkpt lat="42.461735" lon="18.673279">
<ele>0.671181</ele>
<time>2012-05-02T14:50:29Z</time>
<desc>lat.=42.461735, lon.=18.673279, Alt.=0.671181m. Speed=23.615999m/h.</desc>
<speed>6.560000</speed>
</trkpt>
<trkpt lat="42.461506" lon="18.673525">
<ele>0.526818</ele>
<time>2012-05-02T14:50:34Z</time>
<desc>lat.=42.461506, lon.=18.673525, Alt.=0.526818m. Speed=21.348000m/h.</desc>
<speed>5.930000</speed>
</trkpt>
<trkpt lat="42.461288" lon="18.673742">
<ele>0.546120</ele>
<time>2012-05-02T14:50:39Z</time>
<desc>lat.=42.461288, lon.=18.673742, Alt.=0.546120m. Speed=19.836000m/h.</desc>
<speed>5.510000</speed>
</trkpt>
<trkpt lat="42.461155" lon="18.674002">
<ele>0.862389</ele>
<time>2012-05-02T14:50:44Z</time>
<desc>lat.=42.461155, lon.=18.674002, Alt.=0.862389m. Speed=17.424000m/h.</desc>
<speed>4.840000</speed>
</trkpt>
<trkpt lat="42.461048" lon="18.674267">
<ele>0.644310</ele>
<time>2012-05-02T14:50:49Z</time>
<desc>lat.=42.461048, lon.=18.674267, Alt.=0.644310m. Speed=19.152000m/h.</desc>
<speed>5.320000</speed>
</trkpt>
<trkpt lat="42.460938" lon="18.674561">
<ele>0.596154</ele>
<time>2012-05-02T14:50:54Z</time>
<desc>lat.=42.460938, lon.=18.674561, Alt.=0.596154m. Speed=19.511999m/h.</desc>
<speed>5.420000</speed>
</trkpt>
<trkpt lat="42.460823" lon="18.674856">
<ele>-0.096320</ele>
<time>2012-05-02T14:50:59Z</time>
<desc>lat.=42.460823, lon.=18.674856, Alt.=-0.096320m. Speed=18.431999m/h.</desc>
<speed>5.120000</speed>
</trkpt>
<trkpt lat="42.460655" lon="18.675142">
<ele>-0.995217</ele>
<time>2012-05-02T14:51:04Z</time>
<desc>lat.=42.460655, lon.=18.675142, Alt.=-0.995217m. Speed=21.563999m/h.</desc>
<speed>5.990000</speed>
</trkpt>
<trkpt lat="42.460442" lon="18.675377">
<ele>-1.964890</ele>
<time>2012-05-02T14:51:09Z</time>
<desc>lat.=42.460442, lon.=18.675377, Alt.=-1.964890m. Speed=20.988001m/h.</desc>
<speed>5.830000</speed>
</trkpt>
<trkpt lat="42.460205" lon="18.675512">
<ele>-2.815584</ele>
<time>2012-05-02T14:51:14Z</time>
<desc>lat.=42.460205, lon.=18.675512, Alt.=-2.815584m. Speed=20.124001m/h.</desc>
<speed>5.590000</speed>
</trkpt>
<trkpt lat="42.459934" lon="18.675547">
<ele>-3.561251</ele>
<time>2012-05-02T14:51:19Z</time>
<desc>lat.=42.459934, lon.=18.675547, Alt.=-3.561251m. Speed=23.184000m/h.</desc>
<speed>6.440000</speed>
</trkpt>
<trkpt lat="42.459671" lon="18.675413">
<ele>-3.818941</ele>
<time>2012-05-02T14:51:24Z</time>
<desc>lat.=42.459671, lon.=18.675413, Alt.=-3.818941m. Speed=20.556000m/h.</desc>
<speed>5.710000</speed>
</trkpt>
<trkpt lat="42.459526" lon="18.675154">
<ele>-4.252995</ele>
<time>2012-05-02T14:51:29Z</time>
<desc>lat.=42.459526, lon.=18.675154, Alt.=-4.252995m. Speed=17.964001m/h.</desc>
<speed>4.990000</speed>
</trkpt>
<trkpt lat="42.459496" lon="18.674829">
<ele>-4.754581</ele>
<time>2012-05-02T14:51:34Z</time>
<desc>lat.=42.459496, lon.=18.674829, Alt.=-4.754581m. Speed=18.396000m/h.</desc>
<speed>5.110000</speed>
</trkpt>
<trkpt lat="42.459450" lon="18.674469">
<ele>-5.364079</ele>
<time>2012-05-02T14:51:39Z</time>
<desc>lat.=42.459450, lon.=18.674469, Alt.=-5.364079m. Speed=22.320000m/h.</desc>
<speed>6.200000</speed>
</trkpt>
<trkpt lat="42.459404" lon="18.674074">
<ele>-5.999821</ele>
<time>2012-05-02T14:51:44Z</time>
<desc>lat.=42.459404, lon.=18.674074, Alt.=-5.999821m. Speed=20.808001m/h.</desc>
<speed>5.780000</speed>
</trkpt>
<trkpt lat="42.459408" lon="18.673714">
<ele>-6.521061</ele>
<time>2012-05-02T14:51:49Z</time>
<desc>lat.=42.459408, lon.=18.673714, Alt.=-6.521061m. Speed=19.152000m/h.</desc>
<speed>5.320000</speed>
</trkpt>
<trkpt lat="42.459446" lon="18.673382">
<ele>-6.923161</ele>
<time>2012-05-02T14:51:54Z</time>
<desc>lat.=42.459446, lon.=18.673382, Alt.=-6.923161m. Speed=17.820000m/h.</desc>
<speed>4.950000</speed>
</trkpt>
<trkpt lat="42.459480" lon="18.673033">
<ele>-7.439030</ele>
<time>2012-05-02T14:51:59Z</time>
<desc>lat.=42.459480, lon.=18.673033, Alt.=-7.439030m. Speed=20.448000m/h.</desc>
<speed>5.680000</speed>
</trkpt>
<trkpt lat="42.459503" lon="18.672678">
<ele>-7.973942</ele>
<time>2012-05-02T14:52:04Z</time>
<desc>lat.=42.459503, lon.=18.672678, Alt.=-7.973942m. Speed=18.468000m/h.</desc>
<speed>5.130000</speed>
</trkpt>
<trkpt lat="42.459473" lon="18.672331">
<ele>-8.529671</ele>
<time>2012-05-02T14:52:09Z</time>
<desc>lat.=42.459473, lon.=18.672331, Alt.=-8.529671m. Speed=21.204000m/h.</desc>
<speed>5.890000</speed>
</trkpt>
<trkpt lat="42.459412" lon="18.671986">
<ele>-9.119759</ele>
<time>2012-05-02T14:52:14Z</time>
<desc>lat.=42.459412, lon.=18.671986, Alt.=-9.119759m. Speed=17.820000m/h.</desc>
<speed>4.950000</speed>
</trkpt>
<trkpt lat="42.459335" lon="18.671686">
<ele>-9.676399</ele>
<time>2012-05-02T14:52:19Z</time>
<desc>lat.=42.459335, lon.=18.671686, Alt.=-9.676399m. Speed=18.936001m/h.</desc>
<speed>5.260000</speed>
</trkpt>
<trkpt lat="42.459312" lon="18.671324">
<ele>-9.922981</ele>
<time>2012-05-02T14:52:24Z</time>
<desc>lat.=42.459312, lon.=18.671324, Alt.=-9.922981m. Speed=21.455999m/h.</desc>
<speed>5.960000</speed>
</trkpt>
<trkpt lat="42.459240" lon="18.671022">
<ele>-10.370003</ele>
<time>2012-05-02T14:52:29Z</time>
<desc>lat.=42.459240, lon.=18.671022, Alt.=-10.370003m. Speed=19.115999m/h.</desc>
<speed>5.310000</speed>
</trkpt>
<trkpt lat="42.459164" lon="18.670689">
<ele>-10.868294</ele>
<time>2012-05-02T14:52:34Z</time>
<desc>lat.=42.459164, lon.=18.670689, Alt.=-10.868294m. Speed=20.448000m/h.</desc>
<speed>5.680000</speed>
</trkpt>
<trkpt lat="42.459034" lon="18.670385">
<ele>-11.307991</ele>
<time>2012-05-02T14:52:39Z</time>
<desc>lat.=42.459034, lon.=18.670385, Alt.=-11.307991m. Speed=19.403999m/h.</desc>
<speed>5.390000</speed>
</trkpt>
<trkpt lat="42.458851" lon="18.670094">
<ele>-10.896126</ele>
<time>2012-05-02T14:52:44Z</time>
<desc>lat.=42.458851, lon.=18.670094, Alt.=-10.896126m. Speed=19.980000m/h.</desc>
<speed>5.550000</speed>
</trkpt>
<trkpt lat="42.458656" lon="18.669828">
<ele>-9.756721</ele>
<time>2012-05-02T14:52:49Z</time>
<desc>lat.=42.458656, lon.=18.669828, Alt.=-9.756721m. Speed=19.728001m/h.</desc>
<speed>5.480000</speed>
</trkpt>
<trkpt lat="42.458527" lon="18.669613">
<ele>-8.643684</ele>
<time>2012-05-02T14:52:54Z</time>
<desc>lat.=42.458527, lon.=18.669613, Alt.=-8.643684m. Speed=10.440000m/h.</desc>
<speed>2.900000</speed>
</trkpt>
<trkpt lat="42.458420" lon="18.669598">
<ele>-5.408146</ele>
<time>2012-05-02T14:52:59Z</time>
<desc>lat.=42.458420, lon.=18.669598, Alt.=-5.408146m. Speed=12.096000m/h.</desc>
<speed>3.360000</speed>
</trkpt>
<trkpt lat="42.458275" lon="18.669643">
<ele>-3.454988</ele>
<time>2012-05-02T14:53:04Z</time>
<desc>lat.=42.458275, lon.=18.669643, Alt.=-3.454988m. Speed=14.220000m/h.</desc>
<speed>3.950000</speed>
</trkpt>
<trkpt lat="42.458149" lon="18.669514">
<ele>-3.108187</ele>
<time>2012-05-02T14:53:09Z</time>
<desc>lat.=42.458149, lon.=18.669514, Alt.=-3.108187m. Speed=11.556000m/h.</desc>
<speed>3.210000</speed>
</trkpt>
<trkpt lat="42.458065" lon="18.669365">
<ele>-2.736422</ele>
<time>2012-05-02T14:53:14Z</time>
<desc>lat.=42.458065, lon.=18.669365, Alt.=-2.736422m. Speed=9.972000m/h.</desc>
<speed>2.770000</speed>
</trkpt>
<trkpt lat="42.457996" lon="18.669249">
<ele>-2.045504</ele>
<time>2012-05-02T14:53:19Z</time>
<desc>lat.=42.457996, lon.=18.669249, Alt.=-2.045504m. Speed=8.064000m/h.</desc>
<speed>2.240000</speed>
</trkpt>
<trkpt lat="42.457947" lon="18.669130">
<ele>-1.315598</ele>
<time>2012-05-02T14:53:24Z</time>
<desc>lat.=42.457947, lon.=18.669130, Alt.=-1.315598m. Speed=7.200000m/h.</desc>
<speed>2.000000</speed>
</trkpt>
<trkpt lat="42.457882" lon="18.669073">
<ele>-0.683831</ele>
<time>2012-05-02T14:53:29Z</time>
<desc>lat.=42.457882, lon.=18.669073, Alt.=-0.683831m. Speed=5.976000m/h.</desc>
<speed>1.660000</speed>
</trkpt>
<trkpt lat="42.457806" lon="18.668928">
<ele>0.102353</ele>
<time>2012-05-02T14:53:34Z</time>
<desc>lat.=42.457806, lon.=18.668928, Alt.=0.102353m. Speed=7.452000m/h.</desc>
<speed>2.070000</speed>
</trkpt>
<trkpt lat="42.457729" lon="18.668844">
<ele>1.103776</ele>
<time>2012-05-02T14:53:39Z</time>
<desc>lat.=42.457729, lon.=18.668844, Alt.=1.103776m. Speed=5.040000m/h.</desc>
<speed>1.400000</speed>
</trkpt>
<trkpt lat="42.457703" lon="18.668819">
<ele>1.975938</ele>
<time>2012-05-02T14:53:44Z</time>
<desc>lat.=42.457703, lon.=18.668819, Alt.=1.975938m. Speed=0.432000m/h.</desc>
<speed>0.120000</speed>
</trkpt>
<trkpt lat="42.457699" lon="18.668819">
<ele>2.396334</ele>
<time>2012-05-02T14:53:49Z</time>
<desc>lat.=42.457699, lon.=18.668819, Alt.=2.396334m. Speed=0.216000m/h.</desc>
<speed>0.060000</speed>
</trkpt>
<trkpt lat="42.457703" lon="18.668821">
<ele>2.525850</ele>
<time>2012-05-02T14:53:54Z</time>
<desc>lat.=42.457703, lon.=18.668821, Alt.=2.525850m. Speed=0.000000m/h.</desc>
<speed>0.000000</speed>
</trkpt>
<trkpt lat="42.457695" lon="18.668821">
<ele>2.576021</ele>
<time>2012-05-02T14:53:59Z</time>
<desc>lat.=42.457695, lon.=18.668821, Alt.=2.576021m. Speed=0.504000m/h.</desc>
<speed>0.140000</speed>
</trkpt>
<trkpt lat="42.457687" lon="18.668821">
<ele>2.593538</ele>
<time>2012-05-02T14:54:04Z</time>
<desc>lat.=42.457687, lon.=18.668821, Alt.=2.593538m. Speed=0.720000m/h.</desc>
<speed>0.200000</speed>
</trkpt>
<trkpt lat="42.457684" lon="18.668819">
<ele>2.599031</ele>
<time>2012-05-02T14:54:09Z</time>
<desc>lat.=42.457684, lon.=18.668819, Alt.=2.599031m. Speed=0.288000m/h.</desc>
<speed>0.080000</speed>
</trkpt>
<trkpt lat="42.457684" lon="18.668818">
<ele>2.599703</ele>
<time>2012-05-02T14:54:14Z</time>
<desc>lat.=42.457684, lon.=18.668818, Alt.=2.599703m. Speed=0.288000m/h.</desc>
<speed>0.080000</speed>
</trkpt>
<trkpt lat="42.457687" lon="18.668814">
<ele>2.594881</ele>
<time>2012-05-02T14:54:19Z</time>
<desc>lat.=42.457687, lon.=18.668814, Alt.=2.594881m. Speed=0.540000m/h.</desc>
<speed>0.150000</speed>
</trkpt>
<trkpt lat="42.457695" lon="18.668808">
<ele>2.599031</ele>
<time>2012-05-02T14:54:24Z</time>
<desc>lat.=42.457695, lon.=18.668808, Alt.=2.599031m. Speed=0.612000m/h.</desc>
<speed>0.170000</speed>
</trkpt>
<trkpt lat="42.457699" lon="18.668800">
<ele>2.604158</ele>
<time>2012-05-02T14:54:29Z</time>
<desc>lat.=42.457699, lon.=18.668800, Alt.=2.604158m. Speed=0.504000m/h.</desc>
<speed>0.140000</speed>
</trkpt>
<trkpt lat="42.457706" lon="18.668797">
<ele>2.614595</ele>
<time>2012-05-02T14:54:34Z</time>
<desc>lat.=42.457706, lon.=18.668797, Alt.=2.614595m. Speed=0.468000m/h.</desc>
<speed>0.130000</speed>
</trkpt>
<trkpt lat="42.457706" lon="18.668795">
<ele>2.646334</ele>
<time>2012-05-02T14:54:39Z</time>
<desc>lat.=42.457706, lon.=18.668795, Alt.=2.646334m. Speed=0.072000m/h.</desc>
<speed>0.020000</speed>
</trkpt>
<trkpt lat="42.457706" lon="18.668791">
<ele>2.681124</ele>
<time>2012-05-02T14:54:44Z</time>
<desc>lat.=42.457706, lon.=18.668791, Alt.=2.681124m. Speed=0.396000m/h.</desc>
<speed>0.110000</speed>
</trkpt>
<trkpt lat="42.457706" lon="18.668789">
<ele>2.703157</ele>
<time>2012-05-02T14:54:49Z</time>
<desc>lat.=42.457706, lon.=18.668789, Alt.=2.703157m. Speed=1.116000m/h.</desc>
<speed>0.310000</speed>
</trkpt>
<trkpt lat="42.457684" lon="18.668772">
<ele>2.709749</ele>
<time>2012-05-02T14:54:54Z</time>
<desc>lat.=42.457684, lon.=18.668772, Alt.=2.709749m. Speed=2.916000m/h.</desc>
<speed>0.810000</speed>
</trkpt>
<trkpt lat="42.457623" lon="18.668686">
<ele>2.767366</ele>
<time>2012-05-02T14:54:59Z</time>
<desc>lat.=42.457623, lon.=18.668686, Alt.=2.767366m. Speed=7.560000m/h.</desc>
<speed>2.100000</speed>
</trkpt>
<trkpt lat="42.457569" lon="18.668564">
<ele>2.470675</ele>
<time>2012-05-02T14:55:04Z</time>
<desc>lat.=42.457569, lon.=18.668564, Alt.=2.470675m. Speed=9.828000m/h.</desc>
<speed>2.730000</speed>
</trkpt>
<trkpt lat="42.457485" lon="18.668365">
<ele>1.715348</ele>
<time>2012-05-02T14:55:09Z</time>
<desc>lat.=42.457485, lon.=18.668365, Alt.=1.715348m. Speed=15.840000m/h.</desc>
<speed>4.400000</speed>
</trkpt>
<trkpt lat="42.457344" lon="18.668173">
<ele>1.349595</ele>
<time>2012-05-02T14:55:14Z</time>
<desc>lat.=42.457344, lon.=18.668173, Alt.=1.349595m. Speed=15.660000m/h.</desc>
<speed>4.350000</speed>
</trkpt>
<trkpt lat="42.457294" lon="18.667866">
<ele>0.894814</ele>
<time>2012-05-02T14:55:19Z</time>
<desc>lat.=42.457294, lon.=18.667866, Alt.=0.894814m. Speed=18.900000m/h.</desc>
<speed>5.250000</speed>
</trkpt>
<trkpt lat="42.457249" lon="18.667505">
<ele>1.997605</ele>
<time>2012-05-02T14:55:24Z</time>
<desc>lat.=42.457249, lon.=18.667505, Alt.=1.997605m. Speed=18.792000m/h.</desc>
<speed>5.220000</speed>
</trkpt>
<trkpt lat="42.457184" lon="18.667175">
<ele>5.561222</ele>
<time>2012-05-02T14:55:29Z</time>
<desc>lat.=42.457184, lon.=18.667175, Alt.=5.561222m. Speed=20.016001m/h.</desc>
<speed>5.560000</speed>
</trkpt>
<trkpt lat="42.457119" lon="18.666828">
<ele>8.191780</ele>
<time>2012-05-02T14:55:34Z</time>
<desc>lat.=42.457119, lon.=18.666828, Alt.=8.191780m. Speed=20.160000m/h.</desc>
<speed>5.600000</speed>
</trkpt>
<trkpt lat="42.457073" lon="18.666494">
<ele>10.163216</ele>
<time>2012-05-02T14:55:39Z</time>
<desc>lat.=42.457073, lon.=18.666494, Alt.=10.163216m. Speed=19.728001m/h.</desc>
<speed>5.480000</speed>
</trkpt>
<trkpt lat="42.457039" lon="18.666195">
<ele>12.026009</ele>
<time>2012-05-02T14:55:44Z</time>
<desc>lat.=42.457039, lon.=18.666195, Alt.=12.026009m. Speed=15.912000m/h.</desc>
<speed>4.420000</speed>
</trkpt>
<trkpt lat="42.456974" lon="18.665937">
<ele>12.381966</ele>
<time>2012-05-02T14:55:49Z</time>
<desc>lat.=42.456974, lon.=18.665937, Alt.=12.381966m. Speed=13.068000m/h.</desc>
<speed>3.630000</speed>
</trkpt>
<trkpt lat="42.456886" lon="18.665648">
<ele>13.211067</ele>
<time>2012-05-02T14:55:54Z</time>
<desc>lat.=42.456886, lon.=18.665648, Alt.=13.211067m. Speed=20.628000m/h.</desc>
<speed>5.730000</speed>
</trkpt>
<trkpt lat="42.456810" lon="18.665293">
<ele>11.314583</ele>
<time>2012-05-02T14:55:59Z</time>
<desc>lat.=42.456810, lon.=18.665293, Alt.=11.314583m. Speed=20.483999m/h.</desc>
<speed>5.690000</speed>
</trkpt>
<trkpt lat="42.456741" lon="18.664972">
<ele>12.375618</ele>
<time>2012-05-02T14:56:04Z</time>
<desc>lat.=42.456741, lon.=18.664972, Alt.=12.375618m. Speed=19.728001m/h.</desc>
<speed>5.480000</speed>
</trkpt>
<trkpt lat="42.456696" lon="18.664654">
<ele>13.323860</ele>
<time>2012-05-02T14:56:09Z</time>
<desc>lat.=42.456696, lon.=18.664654, Alt.=13.323860m. Speed=19.368000m/h.</desc>
<speed>5.380000</speed>
</trkpt>
<trkpt lat="42.456619" lon="18.664328">
<ele>13.411263</ele>
<time>2012-05-02T14:56:14Z</time>
<desc>lat.=42.456619, lon.=18.664328, Alt.=13.411263m. Speed=19.764000m/h.</desc>
<speed>5.490000</speed>
</trkpt>
<trkpt lat="42.456528" lon="18.664013">
<ele>15.979622</ele>
<time>2012-05-02T14:56:19Z</time>
<desc>lat.=42.456528, lon.=18.664013, Alt.=15.979622m. Speed=18.431999m/h.</desc>
<speed>5.120000</speed>
</trkpt>
<trkpt lat="42.456467" lon="18.663872">
<ele>17.358658</ele>
<time>2012-05-02T14:56:24Z</time>
<desc>lat.=42.456467, lon.=18.663872, Alt.=17.358658m. Speed=5.112000m/h.</desc>
<speed>1.420000</speed>
</trkpt>
<trkpt lat="42.456429" lon="18.663841">
<ele>17.356705</ele>
<time>2012-05-02T14:56:29Z</time>
<desc>lat.=42.456429, lon.=18.663841, Alt.=17.356705m. Speed=0.720000m/h.</desc>
<speed>0.200000</speed>
</trkpt>
<trkpt lat="42.456425" lon="18.663834">
<ele>17.726822</ele>
<time>2012-05-02T14:56:34Z</time>
<desc>lat.=42.456425, lon.=18.663834, Alt.=17.726822m. Speed=0.252000m/h.</desc>
<speed>0.070000</speed>
</trkpt>
<trkpt lat="42.456432" lon="18.663837">
<ele>17.839615</ele>
<time>2012-05-02T14:56:39Z</time>
<desc>lat.=42.456432, lon.=18.663837, Alt.=17.839615m. Speed=1.008000m/h.</desc>
<speed>0.280000</speed>
</trkpt>
<trkpt lat="42.456448" lon="18.663841">
<ele>17.861588</ele>
<time>2012-05-02T14:56:44Z</time>
<desc>lat.=42.456448, lon.=18.663841, Alt.=17.861588m. Speed=0.900000m/h.</desc>
<speed>0.250000</speed>
</trkpt>
<trkpt lat="42.456455" lon="18.663836">
<ele>17.841080</ele>
<time>2012-05-02T14:56:49Z</time>
<desc>lat.=42.456455, lon.=18.663836, Alt.=17.841080m. Speed=0.720000m/h.</desc>
<speed>0.200000</speed>
</trkpt>
<trkpt lat="42.456463" lon="18.663828">
<ele>17.763931</ele>
<time>2012-05-02T14:56:54Z</time>
<desc>lat.=42.456463, lon.=18.663828, Alt.=17.763931m. Speed=2.232000m/h.</desc>
<speed>0.620000</speed>
</trkpt>
<trkpt lat="42.456429" lon="18.663694">
<ele>17.521744</ele>
<time>2012-05-02T14:56:59Z</time>
<desc>lat.=42.456429, lon.=18.663694, Alt.=17.521744m. Speed=12.888000m/h.</desc>
<speed>3.580000</speed>
</trkpt>
<trkpt lat="42.456360" lon="18.663456">
<ele>15.235725</ele>
<time>2012-05-02T14:57:04Z</time>
<desc>lat.=42.456360, lon.=18.663456, Alt.=15.235725m. Speed=15.912000m/h.</desc>
<speed>4.420000</speed>
</trkpt>
<trkpt lat="42.456280" lon="18.663116">
<ele>9.938118</ele>
<time>2012-05-02T14:57:09Z</time>
<desc>lat.=42.456280, lon.=18.663116, Alt.=9.938118m. Speed=19.799999m/h.</desc>
<speed>5.500000</speed>
</trkpt>
<trkpt lat="42.456192" lon="18.662800">
<ele>7.256046</ele>
<time>2012-05-02T14:57:14Z</time>
<desc>lat.=42.456192, lon.=18.662800, Alt.=7.256046m. Speed=19.691999m/h.</desc>
<speed>5.470000</speed>
</trkpt>
<trkpt lat="42.456066" lon="18.662491">
<ele>6.418888</ele>
<time>2012-05-02T14:57:19Z</time>
<desc>lat.=42.456066, lon.=18.662491, Alt.=6.418888m. Speed=20.087999m/h.</desc>
<speed>5.580000</speed>
</trkpt>
<trkpt lat="42.455906" lon="18.662205">
<ele>6.672550</ele>
<time>2012-05-02T14:57:24Z</time>
<desc>lat.=42.455906, lon.=18.662205, Alt.=6.672550m. Speed=20.448000m/h.</desc>
<speed>5.680000</speed>
</trkpt>
<trkpt lat="42.455753" lon="18.661922">
<ele>7.208805</ele>
<time>2012-05-02T14:57:29Z</time>
<desc>lat.=42.455753, lon.=18.661922, Alt.=7.208805m. Speed=18.216000m/h.</desc>
<speed>5.060000</speed>
</trkpt>
<trkpt lat="42.455608" lon="18.661673">
<ele>5.737980</ele>
<time>2012-05-02T14:57:34Z</time>
<desc>lat.=42.455608, lon.=18.661673, Alt.=5.737980m. Speed=16.524000m/h.</desc>
<speed>4.590000</speed>
</trkpt>
<trkpt lat="42.455463" lon="18.661467">
<ele>5.645206</ele>
<time>2012-05-02T14:57:39Z</time>
<desc>lat.=42.455463, lon.=18.661467, Alt.=5.645206m. Speed=15.948000m/h.</desc>
<speed>4.430000</speed>
</trkpt>
<trkpt lat="42.455280" lon="18.661238">
<ele>5.621159</ele>
<time>2012-05-02T14:57:44Z</time>
<desc>lat.=42.455280, lon.=18.661238, Alt.=5.621159m. Speed=20.916000m/h.</desc>
<speed>5.810000</speed>
</trkpt>
<trkpt lat="42.455086" lon="18.661020">
<ele>6.131413</ele>
<time>2012-05-02T14:57:49Z</time>
<desc>lat.=42.455086, lon.=18.661020, Alt.=6.131413m. Speed=20.412001m/h.</desc>
<speed>5.670000</speed>
</trkpt>
<trkpt lat="42.454899" lon="18.660816">
<ele>8.428108</ele>
<time>2012-05-02T14:57:54Z</time>
<desc>lat.=42.454899, lon.=18.660816, Alt.=8.428108m. Speed=19.548000m/h.</desc>
<speed>5.430000</speed>
</trkpt>
<trkpt lat="42.454746" lon="18.660603">
<ele>13.041145</ele>
<time>2012-05-02T14:57:59Z</time>
<desc>lat.=42.454746, lon.=18.660603, Alt.=13.041145m. Speed=16.812000m/h.</desc>
<speed>4.670000</speed>
</trkpt>
<trkpt lat="42.454575" lon="18.660378">
<ele>14.036995</ele>
<time>2012-05-02T14:58:04Z</time>
<desc>lat.=42.454575, lon.=18.660378, Alt.=14.036995m. Speed=20.304001m/h.</desc>
<speed>5.640000</speed>
</trkpt>
<trkpt lat="42.454361" lon="18.660185">
<ele>16.004654</ele>
<time>2012-05-02T14:58:09Z</time>
<desc>lat.=42.454361, lon.=18.660185, Alt.=16.004654m. Speed=21.636000m/h.</desc>
<speed>6.010000</speed>
</trkpt>
<trkpt lat="42.454163" lon="18.659954">
<ele>17.909439</ele>
<time>2012-05-02T14:58:14Z</time>
<desc>lat.=42.454163, lon.=18.659954, Alt.=17.909439m. Speed=19.764000m/h.</desc>
<speed>5.490000</speed>
</trkpt>
<trkpt lat="42.453941" lon="18.659752">
<ele>16.251724</ele>
<time>2012-05-02T14:58:19Z</time>
<desc>lat.=42.453941, lon.=18.659752, Alt.=16.251724m. Speed=18.000000m/h.</desc>
<speed>5.000000</speed>
</trkpt>
<trkpt lat="42.453732" lon="18.659542">
<ele>13.829231</ele>
<time>2012-05-02T14:58:24Z</time>
<desc>lat.=42.453732, lon.=18.659542, Alt.=13.829231m. Speed=18.756001m/h.</desc>
<speed>5.210000</speed>
</trkpt>
<trkpt lat="42.453537" lon="18.659410">
<ele>11.796272</ele>
<time>2012-05-02T14:58:29Z</time>
<desc>lat.=42.453537, lon.=18.659410, Alt.=11.796272m. Speed=18.612000m/h.</desc>
<speed>5.170000</speed>
</trkpt>
<trkpt lat="42.453339" lon="18.659187">
<ele>12.795540</ele>
<time>2012-05-02T14:58:34Z</time>
<desc>lat.=42.453339, lon.=18.659187, Alt.=12.795540m. Speed=19.980000m/h.</desc>
<speed>5.550000</speed>
</trkpt>
<trkpt lat="42.453163" lon="18.658970">
<ele>14.343391</ele>
<time>2012-05-02T14:58:39Z</time>
<desc>lat.=42.453163, lon.=18.658970, Alt.=14.343391m. Speed=18.216000m/h.</desc>
<speed>5.060000</speed>
</trkpt>
<trkpt lat="42.452980" lon="18.658743">
<ele>14.173225</ele>
<time>2012-05-02T14:58:44Z</time>
<desc>lat.=42.452980, lon.=18.658743, Alt.=14.173225m. Speed=20.375999m/h.</desc>
<speed>5.660000</speed>
</trkpt>
<trkpt lat="42.452782" lon="18.658525">
<ele>13.079475</ele>
<time>2012-05-02T14:58:49Z</time>
<desc>lat.=42.452782, lon.=18.658525, Alt.=13.079475m. Speed=18.360001m/h.</desc>
<speed>5.100000</speed>
</trkpt>
<trkpt lat="42.452610" lon="18.658356">
<ele>15.921028</ele>
<time>2012-05-02T14:58:54Z</time>
<desc>lat.=42.452610, lon.=18.658356, Alt.=15.921028m. Speed=16.632000m/h.</desc>
<speed>4.620000</speed>
</trkpt>
<trkpt lat="42.452499" lon="18.658184">
<ele>17.066666</ele>
<time>2012-05-02T14:58:59Z</time>
<desc>lat.=42.452499, lon.=18.658184, Alt.=17.066666m. Speed=9.216000m/h.</desc>
<speed>2.560000</speed>
</trkpt>
<trkpt lat="42.452415" lon="18.658121">
<ele>13.653450</ele>
<time>2012-05-02T14:59:04Z</time>
<desc>lat.=42.452415, lon.=18.658121, Alt.=13.653450m. Speed=9.756000m/h.</desc>
<speed>2.710000</speed>
</trkpt>
<trkpt lat="42.452271" lon="18.658056">
<ele>11.849495</ele>
<time>2012-05-02T14:59:09Z</time>
<desc>lat.=42.452271, lon.=18.658056, Alt.=11.849495m. Speed=14.508000m/h.</desc>
<speed>4.030000</speed>
</trkpt>
<trkpt lat="42.452091" lon="18.657999">
<ele>8.633430</ele>
<time>2012-05-02T14:59:14Z</time>
<desc>lat.=42.452091, lon.=18.657999, Alt.=8.633430m. Speed=18.180000m/h.</desc>
<speed>5.050000</speed>
</trkpt>
<trkpt lat="42.451916" lon="18.657780">
<ele>3.320467</ele>
<time>2012-05-02T14:59:19Z</time>
<desc>lat.=42.451916, lon.=18.657780, Alt.=3.320467m. Speed=19.115999m/h.</desc>
<speed>5.310000</speed>
</trkpt>
<trkpt lat="42.451759" lon="18.657516">
<ele>4.716129</ele>
<time>2012-05-02T14:59:24Z</time>
<desc>lat.=42.451759, lon.=18.657516, Alt.=4.716129m. Speed=19.152000m/h.</desc>
<speed>5.320000</speed>
</trkpt>
<trkpt lat="42.451580" lon="18.657274">
<ele>6.462101</ele>
<time>2012-05-02T14:59:29Z</time>
<desc>lat.=42.451580, lon.=18.657274, Alt.=6.462101m. Speed=19.224001m/h.</desc>
<speed>5.340000</speed>
</trkpt>
<trkpt lat="42.451431" lon="18.657015">
<ele>2.784395</ele>
<time>2012-05-02T14:59:34Z</time>
<desc>lat.=42.451431, lon.=18.657015, Alt.=2.784395m. Speed=13.644000m/h.</desc>
<speed>3.790000</speed>
</trkpt>
<trkpt lat="42.451412" lon="18.656950">
<ele>-0.082337</ele>
<time>2012-05-02T14:59:39Z</time>
<desc>lat.=42.451412, lon.=18.656950, Alt.=-0.082337m. Speed=0.540000m/h.</desc>
<speed>0.150000</speed>
</trkpt>
<trkpt lat="42.451408" lon="18.656954">
<ele>-0.050396</ele>
<time>2012-05-02T14:59:44Z</time>
<desc>lat.=42.451408, lon.=18.656954, Alt.=-0.050396m. Speed=0.792000m/h.</desc>
<speed>0.220000</speed>
</trkpt>
<trkpt lat="42.451401" lon="18.656960">
<ele>-0.046610</ele>
<time>2012-05-02T14:59:49Z</time>
<desc>lat.=42.451401, lon.=18.656960, Alt.=-0.046610m. Speed=0.576000m/h.</desc>
<speed>0.160000</speed>
</trkpt>
<trkpt lat="42.451393" lon="18.656952">
<ele>-0.051125</ele>
<time>2012-05-02T14:59:54Z</time>
<desc>lat.=42.451393, lon.=18.656952, Alt.=-0.051125m. Speed=2.484000m/h.</desc>
<speed>0.690000</speed>
</trkpt>
<trkpt lat="42.451389" lon="18.656858">
<ele>-0.130777</ele>
<time>2012-05-02T14:59:59Z</time>
<desc>lat.=42.451389, lon.=18.656858, Alt.=-0.130777m. Speed=7.668000m/h.</desc>
<speed>2.130000</speed>
</trkpt>
<trkpt lat="42.451454" lon="18.656719">
<ele>-1.657304</ele>
<time>2012-05-02T15:00:04Z</time>
<desc>lat.=42.451454, lon.=18.656719, Alt.=-1.657304m. Speed=11.016000m/h.</desc>
<speed>3.060000</speed>
</trkpt>
<trkpt lat="42.451611" lon="18.656647">
<ele>-2.476351</ele>
<time>2012-05-02T15:00:09Z</time>
<desc>lat.=42.451611, lon.=18.656647, Alt.=-2.476351m. Speed=11.628000m/h.</desc>
<speed>3.230000</speed>
</trkpt>
<trkpt lat="42.451771" lon="18.656605">
<ele>-1.425401</ele>
<time>2012-05-02T15:00:14Z</time>
<desc>lat.=42.451771, lon.=18.656605, Alt.=-1.425401m. Speed=16.848000m/h.</desc>
<speed>4.680000</speed>
</trkpt>
<trkpt lat="42.451912" lon="18.656372">
<ele>4.605412</ele>
<time>2012-05-02T15:00:19Z</time>
<desc>lat.=42.451912, lon.=18.656372, Alt.=4.605412m. Speed=16.524000m/h.</desc>
<speed>4.590000</speed>
</trkpt>
<trkpt lat="42.452076" lon="18.656137">
<ele>3.770113</ele>
<time>2012-05-02T15:00:24Z</time>
<desc>lat.=42.452076, lon.=18.656137, Alt.=3.770113m. Speed=18.900000m/h.</desc>
<speed>5.250000</speed>
</trkpt>
<trkpt lat="42.452255" lon="18.655985">
<ele>4.177067</ele>
<time>2012-05-02T15:00:29Z</time>
<desc>lat.=42.452255, lon.=18.655985, Alt.=4.177067m. Speed=13.788000m/h.</desc>
<speed>3.830000</speed>
</trkpt>
<trkpt lat="42.452438" lon="18.655821">
<ele>4.515446</ele>
<time>2012-05-02T15:00:34Z</time>
<desc>lat.=42.452438, lon.=18.655821, Alt.=4.515446m. Speed=14.616000m/h.</desc>
<speed>4.060000</speed>
</trkpt>
<trkpt lat="42.452572" lon="18.655636">
<ele>5.241886</ele>
<time>2012-05-02T15:00:39Z</time>
<desc>lat.=42.452572, lon.=18.655636, Alt.=5.241886m. Speed=12.744000m/h.</desc>
<speed>3.540000</speed>
</trkpt>
<trkpt lat="42.452698" lon="18.655439">
<ele>6.279362</ele>
<time>2012-05-02T15:00:44Z</time>
<desc>lat.=42.452698, lon.=18.655439, Alt.=6.279362m. Speed=13.788000m/h.</desc>
<speed>3.830000</speed>
</trkpt>
<trkpt lat="42.452839" lon="18.655317">
<ele>7.525089</ele>
<time>2012-05-02T15:00:49Z</time>
<desc>lat.=42.452839, lon.=18.655317, Alt.=7.525089m. Speed=14.328000m/h.</desc>
<speed>3.980000</speed>
</trkpt>
<trkpt lat="42.453037" lon="18.655201">
<ele>9.478157</ele>
<time>2012-05-02T15:00:54Z</time>
<desc>lat.=42.453037, lon.=18.655201, Alt.=9.478157m. Speed=16.379999m/h.</desc>
<speed>4.550000</speed>
</trkpt>
<trkpt lat="42.453201" lon="18.655077">
<ele>11.333138</ele>
<time>2012-05-02T15:00:59Z</time>
<desc>lat.=42.453201, lon.=18.655077, Alt.=11.333138m. Speed=14.940000m/h.</desc>
<speed>4.150000</speed>
</trkpt>
<trkpt lat="42.453331" lon="18.654932">
<ele>12.412483</ele>
<time>2012-05-02T15:01:04Z</time>
<desc>lat.=42.453331, lon.=18.654932, Alt.=12.412483m. Speed=13.608000m/h.</desc>
<speed>3.780000</speed>
</trkpt>
<trkpt lat="42.453510" lon="18.654768">
<ele>12.853645</ele>
<time>2012-05-02T15:01:09Z</time>
<desc>lat.=42.453510, lon.=18.654768, Alt.=12.853645m. Speed=15.336000m/h.</desc>
<speed>4.260000</speed>
</trkpt>
<trkpt lat="42.453682" lon="18.654642">
<ele>13.964241</ele>
<time>2012-05-02T15:01:14Z</time>
<desc>lat.=42.453682, lon.=18.654642, Alt.=13.964241m. Speed=12.456000m/h.</desc>
<speed>3.460000</speed>
</trkpt>
<trkpt lat="42.453751" lon="18.654495">
<ele>15.512825</ele>
<time>2012-05-02T15:01:19Z</time>
<desc>lat.=42.453751, lon.=18.654495, Alt.=15.512825m. Speed=5.472000m/h.</desc>
<speed>1.520000</speed>
</trkpt>
<trkpt lat="42.453747" lon="18.654404">
<ele>18.312759</ele>
<time>2012-05-02T15:01:24Z</time>
<desc>lat.=42.453747, lon.=18.654404, Alt.=18.312759m. Speed=6.984000m/h.</desc>
<speed>1.940000</speed>
</trkpt>
<trkpt lat="42.453732" lon="18.654203">
<ele>19.025650</ele>
<time>2012-05-02T15:01:29Z</time>
<desc>lat.=42.453732, lon.=18.654203, Alt.=19.025650m. Speed=10.584000m/h.</desc>
<speed>2.940000</speed>
</trkpt>
<trkpt lat="42.453671" lon="18.653942">
<ele>18.531509</ele>
<time>2012-05-02T15:01:34Z</time>
<desc>lat.=42.453671, lon.=18.653942, Alt.=18.531509m. Speed=19.044001m/h.</desc>
<speed>5.290000</speed>
</trkpt>
<trkpt lat="42.453545" lon="18.653616">
<ele>18.405045</ele>
<time>2012-05-02T15:01:39Z</time>
<desc>lat.=42.453545, lon.=18.653616, Alt.=18.405045m. Speed=21.780001m/h.</desc>
<speed>6.050000</speed>
</trkpt>
<trkpt lat="42.453369" lon="18.653345">
<ele>19.009537</ele>
<time>2012-05-02T15:01:44Z</time>
<desc>lat.=42.453369, lon.=18.653345, Alt.=19.009537m. Speed=18.719999m/h.</desc>
<speed>5.200000</speed>
</trkpt>
<trkpt lat="42.453156" lon="18.653086">
<ele>14.087776</ele>
<time>2012-05-02T15:01:49Z</time>
<desc>lat.=42.453156, lon.=18.653086, Alt.=14.087776m. Speed=21.816000m/h.</desc>
<speed>6.060000</speed>
</trkpt>
<trkpt lat="42.452919" lon="18.652885">
<ele>13.203743</ele>
<time>2012-05-02T15:01:54Z</time>
<desc>lat.=42.452919, lon.=18.652885, Alt.=13.203743m. Speed=22.535999m/h.</desc>
<speed>6.260000</speed>
</trkpt>
<trkpt lat="42.452663" lon="18.652718">
<ele>14.716438</ele>
<time>2012-05-02T15:01:59Z</time>
<desc>lat.=42.452663, lon.=18.652718, Alt.=14.716438m. Speed=23.076000m/h.</desc>
<speed>6.410000</speed>
</trkpt>
<trkpt lat="42.452385" lon="18.652538">
<ele>13.234505</ele>
<time>2012-05-02T15:02:04Z</time>
<desc>lat.=42.452385, lon.=18.652538, Alt.=13.234505m. Speed=24.264000m/h.</desc>
<speed>6.740000</speed>
</trkpt>
<trkpt lat="42.452164" lon="18.652277">
<ele>12.335579</ele>
<time>2012-05-02T15:02:09Z</time>
<desc>lat.=42.452164, lon.=18.652277, Alt.=12.335579m. Speed=23.688000m/h.</desc>
<speed>6.580000</speed>
</trkpt>
<trkpt lat="42.451954" lon="18.652031">
<ele>11.760628</ele>
<time>2012-05-02T15:02:14Z</time>
<desc>lat.=42.451954, lon.=18.652031, Alt.=11.760628m. Speed=21.059999m/h.</desc>
<speed>5.850000</speed>
</trkpt>
<trkpt lat="42.451748" lon="18.651793">
<ele>11.438118</ele>
<time>2012-05-02T15:02:19Z</time>
<desc>lat.=42.451748, lon.=18.651793, Alt.=11.438118m. Speed=21.204000m/h.</desc>
<speed>5.890000</speed>
</trkpt>
<trkpt lat="42.451565" lon="18.651566">
<ele>11.867073</ele>
<time>2012-05-02T15:02:24Z</time>
<desc>lat.=42.451565, lon.=18.651566, Alt.=11.867073m. Speed=18.756001m/h.</desc>
<speed>5.210000</speed>
</trkpt>
<trkpt lat="42.451485" lon="18.651363">
<ele>11.492317</ele>
<time>2012-05-02T15:02:29Z</time>
<desc>lat.=42.451485, lon.=18.651363, Alt.=11.492317m. Speed=7.272000m/h.</desc>
<speed>2.020000</speed>
</trkpt>
<trkpt lat="42.451401" lon="18.651308">
<ele>10.209602</ele>
<time>2012-05-02T15:02:34Z</time>
<desc>lat.=42.451401, lon.=18.651308, Alt.=10.209602m. Speed=11.304000m/h.</desc>
<speed>3.140000</speed>
</trkpt>
<trkpt lat="42.451260" lon="18.651421">
<ele>9.784309</ele>
<time>2012-05-02T15:02:39Z</time>
<desc>lat.=42.451260, lon.=18.651421, Alt.=9.784309m. Speed=13.572000m/h.</desc>
<speed>3.770000</speed>
</trkpt>
<trkpt lat="42.451115" lon="18.651476">
<ele>9.968391</ele>
<time>2012-05-02T15:02:44Z</time>
<desc>lat.=42.451115, lon.=18.651476, Alt.=9.968391m. Speed=12.744000m/h.</desc>
<speed>3.540000</speed>
</trkpt>
<trkpt lat="42.450958" lon="18.651510">
<ele>9.256477</ele>
<time>2012-05-02T15:02:49Z</time>
<desc>lat.=42.450958, lon.=18.651510, Alt.=9.256477m. Speed=11.736000m/h.</desc>
<speed>3.260000</speed>
</trkpt>
<trkpt lat="42.450809" lon="18.651484">
<ele>9.356819</ele>
<time>2012-05-02T15:02:54Z</time>
<desc>lat.=42.450809, lon.=18.651484, Alt.=9.356819m. Speed=12.600000m/h.</desc>
<speed>3.500000</speed>
</trkpt>
<trkpt lat="42.450638" lon="18.651480">
<ele>8.553596</ele>
<time>2012-05-02T15:02:59Z</time>
<desc>lat.=42.450638, lon.=18.651480, Alt.=8.553596m. Speed=12.456000m/h.</desc>
<speed>3.460000</speed>
</trkpt>
<trkpt lat="42.450470" lon="18.651419">
<ele>8.093880</ele>
<time>2012-05-02T15:03:04Z</time>
<desc>lat.=42.450470, lon.=18.651419, Alt.=8.093880m. Speed=16.452000m/h.</desc>
<speed>4.570000</speed>
</trkpt>
<trkpt lat="42.450359" lon="18.651119">
<ele>7.165958</ele>
<time>2012-05-02T15:03:09Z</time>
<desc>lat.=42.450359, lon.=18.651119, Alt.=7.165958m. Speed=21.312000m/h.</desc>
<speed>5.920000</speed>
</trkpt>
<trkpt lat="42.450264" lon="18.650764">
<ele>6.382999</ele>
<time>2012-05-02T15:03:14Z</time>
<desc>lat.=42.450264, lon.=18.650764, Alt.=6.382999m. Speed=21.275999m/h.</desc>
<speed>5.910000</speed>
</trkpt>
<trkpt lat="42.450153" lon="18.650463">
<ele>5.318058</ele>
<time>2012-05-02T15:03:19Z</time>
<desc>lat.=42.450153, lon.=18.650463, Alt.=5.318058m. Speed=17.208000m/h.</desc>
<speed>4.780000</speed>
</trkpt>
<trkpt lat="42.450066" lon="18.650167">
<ele>4.723698</ele>
<time>2012-05-02T15:03:24Z</time>
<desc>lat.=42.450066, lon.=18.650167, Alt.=4.723698m. Speed=18.864000m/h.</desc>
<speed>5.240000</speed>
</trkpt>
<trkpt lat="42.449959" lon="18.649883">
<ele>4.948551</ele>
<time>2012-05-02T15:03:29Z</time>
<desc>lat.=42.449959, lon.=18.649883, Alt.=4.948551m. Speed=17.639999m/h.</desc>
<speed>4.900000</speed>
</trkpt>
<trkpt lat="42.449871" lon="18.649591">
<ele>5.019230</ele>
<time>2012-05-02T15:03:34Z</time>
<desc>lat.=42.449871, lon.=18.649591, Alt.=5.019230m. Speed=19.403999m/h.</desc>
<speed>5.390000</speed>
</trkpt>
<trkpt lat="42.449776" lon="18.649288">
<ele>4.811710</ele>
<time>2012-05-02T15:03:39Z</time>
<desc>lat.=42.449776, lon.=18.649288, Alt.=4.811710m. Speed=20.916000m/h.</desc>
<speed>5.810000</speed>
</trkpt>
<trkpt lat="42.449638" lon="18.648973">
<ele>6.419254</ele>
<time>2012-05-02T15:03:44Z</time>
<desc>lat.=42.449638, lon.=18.648973, Alt.=6.419254m. Speed=20.916000m/h.</desc>
<speed>5.810000</speed>
</trkpt>
<trkpt lat="42.449512" lon="18.648685">
<ele>7.975040</ele>
<time>2012-05-02T15:03:49Z</time>
<desc>lat.=42.449512, lon.=18.648685, Alt.=7.975040m. Speed=19.080000m/h.</desc>
<speed>5.300000</speed>
</trkpt>
<trkpt lat="42.449387" lon="18.648409">
<ele>9.568977</ele>
<time>2012-05-02T15:03:54Z</time>
<desc>lat.=42.449387, lon.=18.648409, Alt.=9.568977m. Speed=20.448000m/h.</desc>
<speed>5.680000</speed>
</trkpt>
<trkpt lat="42.449234" lon="18.648157">
<ele>10.830208</ele>
<time>2012-05-02T15:03:59Z</time>
<desc>lat.=42.449234, lon.=18.648157, Alt.=10.830208m. Speed=19.044001m/h.</desc>
<speed>5.290000</speed>
</trkpt>
<trkpt lat="42.449135" lon="18.647839">
<ele>10.823128</ele>
<time>2012-05-02T15:04:04Z</time>
<desc>lat.=42.449135, lon.=18.647839, Alt.=10.823128m. Speed=21.528000m/h.</desc>
<speed>5.980000</speed>
</trkpt>
<trkpt lat="42.448963" lon="18.647556">
<ele>10.399788</ele>
<time>2012-05-02T15:04:09Z</time>
<desc>lat.=42.448963, lon.=18.647556, Alt.=10.399788m. Speed=21.708000m/h.</desc>
<speed>6.030000</speed>
</trkpt>
<trkpt lat="42.448780" lon="18.647320">
<ele>9.962044</ele>
<time>2012-05-02T15:04:14Z</time>
<desc>lat.=42.448780, lon.=18.647320, Alt.=9.962044m. Speed=18.792000m/h.</desc>
<speed>5.220000</speed>
</trkpt>
<trkpt lat="42.448559" lon="18.647131">
<ele>8.786751</ele>
<time>2012-05-02T15:04:19Z</time>
<desc>lat.=42.448559, lon.=18.647131, Alt.=8.786751m. Speed=20.448000m/h.</desc>
<speed>5.680000</speed>
</trkpt>
<trkpt lat="42.448395" lon="18.646921">
<ele>7.358707</ele>
<time>2012-05-02T15:04:24Z</time>
<desc>lat.=42.448395, lon.=18.646921, Alt.=7.358707m. Speed=15.084000m/h.</desc>
<speed>4.190000</speed>
</trkpt>
<trkpt lat="42.448280" lon="18.646702">
<ele>6.526554</ele>
<time>2012-05-02T15:04:29Z</time>
<desc>lat.=42.448280, lon.=18.646702, Alt.=6.526554m. Speed=17.892000m/h.</desc>
<speed>4.970000</speed>
</trkpt>
<trkpt lat="42.448185" lon="18.646395">
<ele>5.160954</ele>
<time>2012-05-02T15:04:34Z</time>
<desc>lat.=42.448185, lon.=18.646395, Alt.=5.160954m. Speed=20.952000m/h.</desc>
<speed>5.820000</speed>
</trkpt>
<trkpt lat="42.448120" lon="18.646061">
<ele>3.742037</ele>
<time>2012-05-02T15:04:39Z</time>
<desc>lat.=42.448120, lon.=18.646061, Alt.=3.742037m. Speed=19.368000m/h.</desc>
<speed>5.380000</speed>
</trkpt>
<trkpt lat="42.448044" lon="18.645733">
<ele>2.522066</ele>
<time>2012-05-02T15:04:44Z</time>
<desc>lat.=42.448044, lon.=18.645733, Alt.=2.522066m. Speed=18.936001m/h.</desc>
<speed>5.260000</speed>
</trkpt>
<trkpt lat="42.447910" lon="18.645435">
<ele>2.016512</ele>
<time>2012-05-02T15:04:49Z</time>
<desc>lat.=42.447910, lon.=18.645435, Alt.=2.016512m. Speed=20.628000m/h.</desc>
<speed>5.730000</speed>
</trkpt>
<trkpt lat="42.447762" lon="18.645123">
<ele>1.557817</ele>
<time>2012-05-02T15:04:54Z</time>
<desc>lat.=42.447762, lon.=18.645123, Alt.=1.557817m. Speed=20.556000m/h.</desc>
<speed>5.710000</speed>
</trkpt>
<trkpt lat="42.447598" lon="18.644878">
<ele>1.305436</ele>
<time>2012-05-02T15:04:59Z</time>
<desc>lat.=42.447598, lon.=18.644878, Alt.=1.305436m. Speed=18.252001m/h.</desc>
<speed>5.070000</speed>
</trkpt>
<trkpt lat="42.447464" lon="18.644615">
<ele>1.118150</ele>
<time>2012-05-02T15:05:04Z</time>
<desc>lat.=42.447464, lon.=18.644615, Alt.=1.118150m. Speed=19.656000m/h.</desc>
<speed>5.460000</speed>
</trkpt>
<trkpt lat="42.447315" lon="18.644316">
<ele>0.994057</ele>
<time>2012-05-02T15:05:09Z</time>
<desc>lat.=42.447315, lon.=18.644316, Alt.=0.994057m. Speed=21.708000m/h.</desc>
<speed>6.030000</speed>
</trkpt>
<trkpt lat="42.447140" lon="18.644022">
<ele>0.720330</ele>
<time>2012-05-02T15:05:14Z</time>
<desc>lat.=42.447140, lon.=18.644022, Alt.=0.720330m. Speed=21.348000m/h.</desc>
<speed>5.930000</speed>
</trkpt>
<trkpt lat="42.446949" lon="18.643703">
<ele>0.159002</ele>
<time>2012-05-02T15:05:19Z</time>
<desc>lat.=42.446949, lon.=18.643703, Alt.=0.159002m. Speed=24.624001m/h.</desc>
<speed>6.840000</speed>
</trkpt>
<trkpt lat="42.446774" lon="18.643400">
<ele>-0.830193</ele>
<time>2012-05-02T15:05:24Z</time>
<desc>lat.=42.446774, lon.=18.643400, Alt.=-0.830193m. Speed=21.384001m/h.</desc>
<speed>5.940000</speed>
</trkpt>
<trkpt lat="42.446564" lon="18.643114">
<ele>0.132849</ele>
<time>2012-05-02T15:05:29Z</time>
<desc>lat.=42.446564, lon.=18.643114, Alt.=0.132849m. Speed=24.768000m/h.</desc>
<speed>6.880000</speed>
</trkpt>
<trkpt lat="42.446388" lon="18.642807">
<ele>0.428997</ele>
<time>2012-05-02T15:05:34Z</time>
<desc>lat.=42.446388, lon.=18.642807, Alt.=0.428997m. Speed=22.535999m/h.</desc>
<speed>6.260000</speed>
</trkpt>
<trkpt lat="42.446205" lon="18.642530">
<ele>-0.208162</ele>
<time>2012-05-02T15:05:39Z</time>
<desc>lat.=42.446205, lon.=18.642530, Alt.=-0.208162m. Speed=20.591999m/h.</desc>
<speed>5.720000</speed>
</trkpt>
<trkpt lat="42.446026" lon="18.642229">
<ele>-0.975060</ele>
<time>2012-05-02T15:05:44Z</time>
<desc>lat.=42.446026, lon.=18.642229, Alt.=-0.975060m. Speed=21.959999m/h.</desc>
<speed>6.100000</speed>
</trkpt>
<trkpt lat="42.445843" lon="18.641949">
<ele>-1.798295</ele>
<time>2012-05-02T15:05:49Z</time>
<desc>lat.=42.445843, lon.=18.641949, Alt.=-1.798295m. Speed=20.988001m/h.</desc>
<speed>5.830000</speed>
</trkpt>
<trkpt lat="42.445679" lon="18.641663">
<ele>-1.845475</ele>
<time>2012-05-02T15:05:54Z</time>
<desc>lat.=42.445679, lon.=18.641663, Alt.=-1.845475m. Speed=21.816000m/h.</desc>
<speed>6.060000</speed>
</trkpt>
<trkpt lat="42.445499" lon="18.641376">
<ele>-3.188387</ele>
<time>2012-05-02T15:05:59Z</time>
<desc>lat.=42.445499, lon.=18.641376, Alt.=-3.188387m. Speed=20.412001m/h.</desc>
<speed>5.670000</speed>
</trkpt>
<trkpt lat="42.445316" lon="18.641123">
<ele>-3.938814</ele>
<time>2012-05-02T15:06:04Z</time>
<desc>lat.=42.445316, lon.=18.641123, Alt.=-3.938814m. Speed=22.104000m/h.</desc>
<speed>6.140000</speed>
</trkpt>
<trkpt lat="42.445107" lon="18.640894">
<ele>-4.551090</ele>
<time>2012-05-02T15:06:09Z</time>
<desc>lat.=42.445107, lon.=18.640894, Alt.=-4.551090m. Speed=20.664000m/h.</desc>
<speed>5.740000</speed>
</trkpt>
<trkpt lat="42.444935" lon="18.640648">
<ele>-2.393831</ele>
<time>2012-05-02T15:06:14Z</time>
<desc>lat.=42.444935, lon.=18.640648, Alt.=-2.393831m. Speed=22.860001m/h.</desc>
<speed>6.350000</speed>
</trkpt>
<trkpt lat="42.444782" lon="18.640356">
<ele>-2.686739</ele>
<time>2012-05-02T15:06:19Z</time>
<desc>lat.=42.444782, lon.=18.640356, Alt.=-2.686739m. Speed=21.167999m/h.</desc>
<speed>5.880000</speed>
</trkpt>
<trkpt lat="42.444595" lon="18.640091">
<ele>-2.044283</ele>
<time>2012-05-02T15:06:24Z</time>
<desc>lat.=42.444595, lon.=18.640091, Alt.=-2.044283m. Speed=21.204000m/h.</desc>
<speed>5.890000</speed>
</trkpt>
<trkpt lat="42.444412" lon="18.639812">
<ele>-2.500521</ele>
<time>2012-05-02T15:06:29Z</time>
<desc>lat.=42.444412, lon.=18.639812, Alt.=-2.500521m. Speed=21.167999m/h.</desc>
<speed>5.880000</speed>
</trkpt>
<trkpt lat="42.444237" lon="18.639515">
<ele>-2.647432</ele>
<time>2012-05-02T15:06:34Z</time>
<desc>lat.=42.444237, lon.=18.639515, Alt.=-2.647432m. Speed=22.788000m/h.</desc>
<speed>6.330000</speed>
</trkpt>
<trkpt lat="42.444092" lon="18.639231">
<ele>-1.900285</ele>
<time>2012-05-02T15:06:39Z</time>
<desc>lat.=42.444092, lon.=18.639231, Alt.=-1.900285m. Speed=18.827999m/h.</desc>
<speed>5.230000</speed>
</trkpt>
<trkpt lat="42.443981" lon="18.638935">
<ele>-0.666253</ele>
<time>2012-05-02T15:06:44Z</time>
<desc>lat.=42.443981, lon.=18.638935, Alt.=-0.666253m. Speed=19.440001m/h.</desc>
<speed>5.400000</speed>
</trkpt>
<trkpt lat="42.443928" lon="18.638624">
<ele>-0.483105</ele>
<time>2012-05-02T15:06:49Z</time>
<desc>lat.=42.443928, lon.=18.638624, Alt.=-0.483105m. Speed=18.576000m/h.</desc>
<speed>5.160000</speed>
</trkpt>
<trkpt lat="42.443859" lon="18.638288">
<ele>-0.376026</ele>
<time>2012-05-02T15:06:54Z</time>
<desc>lat.=42.443859, lon.=18.638288, Alt.=-0.376026m. Speed=22.104000m/h.</desc>
<speed>6.140000</speed>
</trkpt>
<trkpt lat="42.443794" lon="18.637991">
<ele>-0.787865</ele>
<time>2012-05-02T15:06:59Z</time>
<desc>lat.=42.443794, lon.=18.637991, Alt.=-0.787865m. Speed=17.028000m/h.</desc>
<speed>4.730000</speed>
</trkpt>
<trkpt lat="42.443703" lon="18.637695">
<ele>-1.360154</ele>
<time>2012-05-02T15:07:04Z</time>
<desc>lat.=42.443703, lon.=18.637695, Alt.=-1.360154m. Speed=18.252001m/h.</desc>
<speed>5.070000</speed>
</trkpt>
<trkpt lat="42.443581" lon="18.637419">
<ele>0.216822</ele>
<time>2012-05-02T15:07:09Z</time>
<desc>lat.=42.443581, lon.=18.637419, Alt.=0.216822m. Speed=16.992001m/h.</desc>
<speed>4.720000</speed>
</trkpt>
<trkpt lat="42.443443" lon="18.637142">
<ele>0.809853</ele>
<time>2012-05-02T15:07:14Z</time>
<desc>lat.=42.443443, lon.=18.637142, Alt.=0.809853m. Speed=18.792000m/h.</desc>
<speed>5.220000</speed>
</trkpt>
<trkpt lat="42.443359" lon="18.636889">
<ele>2.011934</ele>
<time>2012-05-02T15:07:19Z</time>
<desc>lat.=42.443359, lon.=18.636889, Alt.=2.011934m. Speed=16.379999m/h.</desc>
<speed>4.550000</speed>
</trkpt>
<trkpt lat="42.443298" lon="18.636553">
<ele>1.862779</ele>
<time>2012-05-02T15:07:24Z</time>
<desc>lat.=42.443298, lon.=18.636553, Alt.=1.862779m. Speed=19.080000m/h.</desc>
<speed>5.300000</speed>
</trkpt>
<trkpt lat="42.443226" lon="18.636202">
<ele>3.043306</ele>
<time>2012-05-02T15:07:29Z</time>
<desc>lat.=42.443226, lon.=18.636202, Alt.=3.043306m. Speed=21.708000m/h.</desc>
<speed>6.030000</speed>
</trkpt>
<trkpt lat="42.443218" lon="18.635847">
<ele>3.730501</ele>
<time>2012-05-02T15:07:34Z</time>
<desc>lat.=42.443218, lon.=18.635847, Alt.=3.730501m. Speed=19.260000m/h.</desc>
<speed>5.350000</speed>
</trkpt>
<trkpt lat="42.443123" lon="18.635567">
<ele>5.036198</ele>
<time>2012-05-02T15:07:39Z</time>
<desc>lat.=42.443123, lon.=18.635567, Alt.=5.036198m. Speed=16.271999m/h.</desc>
<speed>4.520000</speed>
</trkpt>
<trkpt lat="42.443024" lon="18.635292">
<ele>5.425724</ele>
<time>2012-05-02T15:07:44Z</time>
<desc>lat.=42.443024, lon.=18.635292, Alt.=5.425724m. Speed=17.208000m/h.</desc>
<speed>4.780000</speed>
</trkpt>
<trkpt lat="42.442951" lon="18.634966">
<ele>5.404240</ele>
<time>2012-05-02T15:07:49Z</time>
<desc>lat.=42.442951, lon.=18.634966, Alt.=5.404240m. Speed=20.052000m/h.</desc>
<speed>5.570000</speed>
</trkpt>
<trkpt lat="42.442921" lon="18.634706">
<ele>6.334415</ele>
<time>2012-05-02T15:07:54Z</time>
<desc>lat.=42.442921, lon.=18.634706, Alt.=6.334415m. Speed=8.820000m/h.</desc>
<speed>2.450000</speed>
</trkpt>
<trkpt lat="42.442886" lon="18.634615">
<ele>4.750797</ele>
<time>2012-05-02T15:07:59Z</time>
<desc>lat.=42.442886, lon.=18.634615, Alt.=4.750797m. Speed=0.648000m/h.</desc>
<speed>0.180000</speed>
</trkpt>
<trkpt lat="42.442875" lon="18.634596">
<ele>4.114201</ele>
<time>2012-05-02T15:08:04Z</time>
<desc>lat.=42.442875, lon.=18.634596, Alt.=4.114201m. Speed=0.468000m/h.</desc>
<speed>0.130000</speed>
</trkpt>
<trkpt lat="42.442863" lon="18.634592">
<ele>4.016666</ele>
<time>2012-05-02T15:08:09Z</time>
<desc>lat.=42.442863, lon.=18.634592, Alt.=4.016666m. Speed=2.196000m/h.</desc>
<speed>0.610000</speed>
</trkpt>
<trkpt lat="42.442860" lon="18.634573">
<ele>3.675020</ele>
<time>2012-05-02T15:08:14Z</time>
<desc>lat.=42.442860, lon.=18.634573, Alt.=3.675020m. Speed=0.612000m/h.</desc>
<speed>0.170000</speed>
</trkpt>
<trkpt lat="42.442860" lon="18.634571">
<ele>3.726107</ele>
<time>2012-05-02T15:08:19Z</time>
<desc>lat.=42.442860, lon.=18.634571, Alt.=3.726107m. Speed=0.288000m/h.</desc>
<speed>0.080000</speed>
</trkpt>
<trkpt lat="42.442863" lon="18.634573">
<ele>3.739290</ele>
<time>2012-05-02T15:08:24Z</time>
<desc>lat.=42.442863, lon.=18.634573, Alt.=3.739290m. Speed=0.216000m/h.</desc>
<speed>0.060000</speed>
</trkpt>
<trkpt lat="42.442863" lon="18.634573">
<ele>3.746309</ele>
<time>2012-05-02T15:08:29Z</time>
<desc>lat.=42.442863, lon.=18.634573, Alt.=3.746309m. Speed=0.216000m/h.</desc>
<speed>0.060000</speed>
</trkpt>
<trkpt lat="42.442863" lon="18.634573">
<ele>3.745760</ele>
<time>2012-05-02T15:08:34Z</time>
<desc>lat.=42.442863, lon.=18.634573, Alt.=3.745760m. Speed=0.216000m/h.</desc>
<speed>0.060000</speed>
</trkpt>
<trkpt lat="42.442863" lon="18.634573">
<ele>3.745333</ele>
<time>2012-05-02T15:08:39Z</time>
<desc>lat.=42.442863, lon.=18.634573, Alt.=3.745333m. Speed=0.144000m/h.</desc>
<speed>0.040000</speed>
</trkpt>
<trkpt lat="42.442863" lon="18.634571">
<ele>3.752230</ele>
<time>2012-05-02T15:08:44Z</time>
<desc>lat.=42.442863, lon.=18.634571, Alt.=3.752230m. Speed=0.072000m/h.</desc>
<speed>0.020000</speed>
</trkpt>
<trkpt lat="42.442863" lon="18.634571">
<ele>3.759554</ele>
<time>2012-05-02T15:08:49Z</time>
<desc>lat.=42.442863, lon.=18.634571, Alt.=3.759554m. Speed=0.036000m/h.</desc>
<speed>0.010000</speed>
</trkpt>
<trkpt lat="42.442863" lon="18.634571">
<ele>3.766756</ele>
<time>2012-05-02T15:08:54Z</time>
<desc>lat.=42.442863, lon.=18.634571, Alt.=3.766756m. Speed=0.036000m/h.</desc>
<speed>0.010000</speed>
</trkpt>
<trkpt lat="42.442863" lon="18.634571">
<ele>3.779146</ele>
<time>2012-05-02T15:08:59Z</time>
<desc>lat.=42.442863, lon.=18.634571, Alt.=3.779146m. Speed=0.036000m/h.</desc>
<speed>0.010000</speed>
</trkpt>
<trkpt lat="42.442863" lon="18.634571">
<ele>3.787813</ele>
<time>2012-05-02T15:09:04Z</time>
<desc>lat.=42.442863, lon.=18.634571, Alt.=3.787813m. Speed=0.036000m/h.</desc>
<speed>0.010000</speed>
</trkpt>
<trkpt lat="42.442860" lon="18.634569">
<ele>3.800814</ele>
<time>2012-05-02T15:09:09Z</time>
<desc>lat.=42.442860, lon.=18.634569, Alt.=3.800814m. Speed=0.000000m/h.</desc>
<speed>0.000000</speed>
</trkpt>
<trkpt lat="42.442863" lon="18.634569">
<ele>3.827425</ele>
<time>2012-05-02T15:09:14Z</time>
<desc>lat.=42.442863, lon.=18.634569, Alt.=3.827425m. Speed=0.180000m/h.</desc>
<speed>0.050000</speed>
</trkpt>
<trkpt lat="42.442863" lon="18.634569">
<ele>3.838900</ele>
<time>2012-05-02T15:09:19Z</time>
<desc>lat.=42.442863, lon.=18.634569, Alt.=3.838900m. Speed=0.072000m/h.</desc>
<speed>0.020000</speed>
</trkpt>
<trkpt lat="42.442863" lon="18.634569">
<ele>3.836275</ele>
<time>2012-05-02T15:09:24Z</time>
<desc>lat.=42.442863, lon.=18.634569, Alt.=3.836275m. Speed=0.072000m/h.</desc>
<speed>0.020000</speed>
</trkpt>
<trkpt lat="42.442863" lon="18.634569">
<ele>3.842318</ele>
<time>2012-05-02T15:09:29Z</time>
<desc>lat.=42.442863, lon.=18.634569, Alt.=3.842318m. Speed=0.036000m/h.</desc>
<speed>0.010000</speed>
</trkpt>
<trkpt lat="42.442863" lon="18.634569">
<ele>3.857210</ele>
<time>2012-05-02T15:09:34Z</time>
<desc>lat.=42.442863, lon.=18.634569, Alt.=3.857210m. Speed=0.000000m/h.</desc>
<speed>0.000000</speed>
</trkpt>
<trkpt lat="42.442863" lon="18.634569">
<ele>3.833162</ele>
<time>2012-05-02T15:09:39Z</time>
<desc>lat.=42.442863, lon.=18.634569, Alt.=3.833162m. Speed=0.072000m/h.</desc>
<speed>0.020000</speed>
</trkpt>
<trkpt lat="42.442863" lon="18.634569">
<ele>3.808748</ele>
<time>2012-05-02T15:09:44Z</time>
<desc>lat.=42.442863, lon.=18.634569, Alt.=3.808748m. Speed=0.072000m/h.</desc>
<speed>0.020000</speed>
</trkpt>
<trkpt lat="42.442863" lon="18.634569">
<ele>3.792879</ele>
<time>2012-05-02T15:09:49Z</time>
<desc>lat.=42.442863, lon.=18.634569, Alt.=3.792879m. Speed=0.072000m/h.</desc>
<speed>0.020000</speed>
</trkpt>
<trkpt lat="42.442863" lon="18.634569">
<ele>3.799288</ele>
<time>2012-05-02T15:09:54Z</time>
<desc>lat.=42.442863, lon.=18.634569, Alt.=3.799288m. Speed=0.000000m/h.</desc>
<speed>0.000000</speed>
</trkpt>
<trkpt lat="42.442860" lon="18.634569">
<ele>3.819735</ele>
<time>2012-05-02T15:09:59Z</time>
<desc>lat.=42.442860, lon.=18.634569, Alt.=3.819735m. Speed=0.000000m/h.</desc>
<speed>0.000000</speed>
</trkpt>
<trkpt lat="42.442860" lon="18.634569">
<ele>3.819368</ele>
<time>2012-05-02T15:10:04Z</time>
<desc>lat.=42.442860, lon.=18.634569, Alt.=3.819368m. Speed=0.036000m/h.</desc>
<speed>0.010000</speed>
</trkpt>
<trkpt lat="42.442860" lon="18.634569">
<ele>3.796663</ele>
<time>2012-05-02T15:10:09Z</time>
<desc>lat.=42.442860, lon.=18.634569, Alt.=3.796663m. Speed=0.000000m/h.</desc>
<speed>0.000000</speed>
</trkpt>
<trkpt lat="42.442860" lon="18.634569">
<ele>3.775911</ele>
<time>2012-05-02T15:10:14Z</time>
<desc>lat.=42.442860, lon.=18.634569, Alt.=3.775911m. Speed=0.036000m/h.</desc>
<speed>0.010000</speed>
</trkpt>
<trkpt lat="42.442860" lon="18.634569">
<ele>3.773348</ele>
<time>2012-05-02T15:10:19Z</time>
<desc>lat.=42.442860, lon.=18.634569, Alt.=3.773348m. Speed=0.108000m/h.</desc>
<speed>0.030000</speed>
</trkpt>
<trkpt lat="42.442860" lon="18.634569">
<ele>3.756258</ele>
<time>2012-05-02T15:10:24Z</time>
<desc>lat.=42.442860, lon.=18.634569, Alt.=3.756258m. Speed=0.000000m/h.</desc>
<speed>0.000000</speed>
</trkpt>
<trkpt lat="42.442860" lon="18.634567">
<ele>3.789034</ele>
<time>2012-05-02T15:10:29Z</time>
<desc>lat.=42.442860, lon.=18.634567, Alt.=3.789034m. Speed=0.036000m/h.</desc>
<speed>0.010000</speed>
</trkpt>
<trkpt lat="42.442860" lon="18.634567">
<ele>3.770235</ele>
<time>2012-05-02T15:10:34Z</time>
<desc>lat.=42.442860, lon.=18.634567, Alt.=3.770235m. Speed=0.000000m/h.</desc>
<speed>0.000000</speed>
</trkpt>
<trkpt lat="42.442860" lon="18.634567">
<ele>3.757113</ele>
<time>2012-05-02T15:10:39Z</time>
<desc>lat.=42.442860, lon.=18.634567, Alt.=3.757113m. Speed=0.000000m/h.</desc>
<speed>0.000000</speed>
</trkpt>
<trkpt lat="42.442860" lon="18.634567">
<ele>3.727816</ele>
<time>2012-05-02T15:10:44Z</time>
<desc>lat.=42.442860, lon.=18.634567, Alt.=3.727816m. Speed=0.000000m/h.</desc>
<speed>0.000000</speed>
</trkpt>
<trkpt lat="42.442860" lon="18.634567">
<ele>3.695345</ele>
<time>2012-05-02T15:10:49Z</time>
<desc>lat.=42.442860, lon.=18.634567, Alt.=3.695345m. Speed=0.000000m/h.</desc>
<speed>0.000000</speed>
</trkpt>
<trkpt lat="42.442856" lon="18.634567">
<ele>3.692965</ele>
<time>2012-05-02T15:10:54Z</time>
<desc>lat.=42.442856, lon.=18.634567, Alt.=3.692965m. Speed=0.108000m/h.</desc>
<speed>0.030000</speed>
</trkpt>
<trkpt lat="42.442856" lon="18.634567">
<ele>3.665316</ele>
<time>2012-05-02T15:10:59Z</time>
<desc>lat.=42.442856, lon.=18.634567, Alt.=3.665316m. Speed=0.036000m/h.</desc>
<speed>0.010000</speed>
</trkpt>
<trkpt lat="42.442856" lon="18.634567">
<ele>3.646761</ele>
<time>2012-05-02T15:11:04Z</time>
<desc>lat.=42.442856, lon.=18.634567, Alt.=3.646761m. Speed=0.036000m/h.</desc>
<speed>0.010000</speed>
</trkpt>
<trkpt lat="42.442856" lon="18.634567">
<ele>3.687105</ele>
<time>2012-05-02T15:11:09Z</time>
<desc>lat.=42.442856, lon.=18.634567, Alt.=3.687105m. Speed=0.036000m/h.</desc>
<speed>0.010000</speed>
</trkpt>
<trkpt lat="42.442856" lon="18.634565">
<ele>3.708956</ele>
<time>2012-05-02T15:11:14Z</time>
<desc>lat.=42.442856, lon.=18.634565, Alt.=3.708956m. Speed=0.000000m/h.</desc>
<speed>0.000000</speed>
</trkpt>
<trkpt lat="42.442856" lon="18.634565">
<ele>3.706942</ele>
<time>2012-05-02T15:11:19Z</time>
<desc>lat.=42.442856, lon.=18.634565, Alt.=3.706942m. Speed=0.036000m/h.</desc>
<speed>0.010000</speed>
</trkpt>
<trkpt lat="42.442856" lon="18.634565">
<ele>3.749849</ele>
<time>2012-05-02T15:11:24Z</time>
<desc>lat.=42.442856, lon.=18.634565, Alt.=3.749849m. Speed=0.036000m/h.</desc>
<speed>0.010000</speed>
</trkpt>
<trkpt lat="42.442856" lon="18.634565">
<ele>3.749361</ele>
<time>2012-05-02T15:11:29Z</time>
<desc>lat.=42.442856, lon.=18.634565, Alt.=3.749361m. Speed=0.000000m/h.</desc>
<speed>0.000000</speed>
</trkpt>
<trkpt lat="42.442856" lon="18.634563">
<ele>3.716341</ele>
<time>2012-05-02T15:11:34Z</time>
<desc>lat.=42.442856, lon.=18.634563, Alt.=3.716341m. Speed=0.072000m/h.</desc>
<speed>0.020000</speed>
</trkpt>
<trkpt lat="42.442856" lon="18.634563">
<ele>3.674837</ele>
<time>2012-05-02T15:11:39Z</time>
<desc>lat.=42.442856, lon.=18.634563, Alt.=3.674837m. Speed=0.036000m/h.</desc>
<speed>0.010000</speed>
</trkpt>
<trkpt lat="42.442856" lon="18.634563">
<ele>3.641024</ele>
<time>2012-05-02T15:11:44Z</time>
<desc>lat.=42.442856, lon.=18.634563, Alt.=3.641024m. Speed=0.036000m/h.</desc>
<speed>0.010000</speed>
</trkpt>
<trkpt lat="42.442856" lon="18.634563">
<ele>3.632540</ele>
<time>2012-05-02T15:11:49Z</time>
<desc>lat.=42.442856, lon.=18.634563, Alt.=3.632540m. Speed=0.036000m/h.</desc>
<speed>0.010000</speed>
</trkpt>
<trkpt lat="42.442852" lon="18.634563">
<ele>3.658724</ele>
<time>2012-05-02T15:11:54Z</time>
<desc>lat.=42.442852, lon.=18.634563, Alt.=3.658724m. Speed=0.036000m/h.</desc>
<speed>0.010000</speed>
</trkpt>
<trkpt lat="42.442852" lon="18.634562">
<ele>3.703402</ele>
<time>2012-05-02T15:11:59Z</time>
<desc>lat.=42.442852, lon.=18.634562, Alt.=3.703402m. Speed=0.072000m/h.</desc>
<speed>0.020000</speed>
</trkpt>
<trkpt lat="42.442852" lon="18.634562">
<ele>3.735201</ele>
<time>2012-05-02T15:12:04Z</time>
<desc>lat.=42.442852, lon.=18.634562, Alt.=3.735201m. Speed=0.108000m/h.</desc>
<speed>0.030000</speed>
</trkpt>
<trkpt lat="42.442852" lon="18.634562">
<ele>3.770845</ele>
<time>2012-05-02T15:12:09Z</time>
<desc>lat.=42.442852, lon.=18.634562, Alt.=3.770845m. Speed=0.000000m/h.</desc>
<speed>0.000000</speed>
</trkpt>
<trkpt lat="42.442852" lon="18.634560">
<ele>3.779451</ele>
<time>2012-05-02T15:12:14Z</time>
<desc>lat.=42.442852, lon.=18.634560, Alt.=3.779451m. Speed=0.036000m/h.</desc>
<speed>0.010000</speed>
</trkpt>
<trkpt lat="42.442852" lon="18.634560">
<ele>3.746370</ele>
<time>2012-05-02T15:12:19Z</time>
<desc>lat.=42.442852, lon.=18.634560, Alt.=3.746370m. Speed=0.072000m/h.</desc>
<speed>0.020000</speed>
</trkpt>
<trkpt lat="42.442852" lon="18.634560">
<ele>3.726229</ele>
<time>2012-05-02T15:12:24Z</time>
<desc>lat.=42.442852, lon.=18.634560, Alt.=3.726229m. Speed=0.036000m/h.</desc>
<speed>0.010000</speed>
</trkpt>
<trkpt lat="42.442852" lon="18.634560">
<ele>3.710543</ele>
<time>2012-05-02T15:12:29Z</time>
<desc>lat.=42.442852, lon.=18.634560, Alt.=3.710543m. Speed=0.072000m/h.</desc>
<speed>0.020000</speed>
</trkpt>
<trkpt lat="42.442852" lon="18.634560">
<ele>3.736055</ele>
<time>2012-05-02T15:12:34Z</time>
<desc>lat.=42.442852, lon.=18.634560, Alt.=3.736055m. Speed=0.144000m/h.</desc>
<speed>0.040000</speed>
</trkpt>
<trkpt lat="42.442852" lon="18.634558">
<ele>3.771700</ele>
<time>2012-05-02T15:12:39Z</time>
<desc>lat.=42.442852, lon.=18.634558, Alt.=3.771700m. Speed=0.072000m/h.</desc>
<speed>0.020000</speed>
</trkpt>
<trkpt lat="42.442852" lon="18.634558">
<ele>3.774019</ele>
<time>2012-05-02T15:12:44Z</time>
<desc>lat.=42.442852, lon.=18.634558, Alt.=3.774019m. Speed=0.072000m/h.</desc>
<speed>0.020000</speed>
</trkpt>
<trkpt lat="42.442852" lon="18.634558">
<ele>3.728975</ele>
<time>2012-05-02T15:12:49Z</time>
<desc>lat.=42.442852, lon.=18.634558, Alt.=3.728975m. Speed=0.108000m/h.</desc>
<speed>0.030000</speed>
</trkpt>
<trkpt lat="42.442852" lon="18.634558">
<ele>3.719210</ele>
<time>2012-05-02T15:12:54Z</time>
<desc>lat.=42.442852, lon.=18.634558, Alt.=3.719210m. Speed=0.036000m/h.</desc>
<speed>0.010000</speed>
</trkpt>
<trkpt lat="42.442852" lon="18.634558">
<ele>3.716707</ele>
<time>2012-05-02T15:12:59Z</time>
<desc>lat.=42.442852, lon.=18.634558, Alt.=3.716707m. Speed=0.000000m/h.</desc>
<speed>0.000000</speed>
</trkpt>
<trkpt lat="42.442852" lon="18.634558">
<ele>3.700655</ele>
<time>2012-05-02T15:13:04Z</time>
<desc>lat.=42.442852, lon.=18.634558, Alt.=3.700655m. Speed=0.000000m/h.</desc>
<speed>0.000000</speed>
</trkpt>
<trkpt lat="42.442852" lon="18.634556">
<ele>3.737947</ele>
<time>2012-05-02T15:13:09Z</time>
<desc>lat.=42.442852, lon.=18.634556, Alt.=3.737947m. Speed=0.072000m/h.</desc>
<speed>0.020000</speed>
</trkpt>
<trkpt lat="42.442852" lon="18.634556">
<ele>3.743563</ele>
<time>2012-05-02T15:13:14Z</time>
<desc>lat.=42.442852, lon.=18.634556, Alt.=3.743563m. Speed=0.072000m/h.</desc>
<speed>0.020000</speed>
</trkpt>
<trkpt lat="42.442852" lon="18.634556">
<ele>3.776094</ele>
<time>2012-05-02T15:13:19Z</time>
<desc>lat.=42.442852, lon.=18.634556, Alt.=3.776094m. Speed=0.036000m/h.</desc>
<speed>0.010000</speed>
</trkpt>
<trkpt lat="42.442852" lon="18.634556">
<ele>3.752840</ele>
<time>2012-05-02T15:13:24Z</time>
<desc>lat.=42.442852, lon.=18.634556, Alt.=3.752840m. Speed=0.072000m/h.</desc>
<speed>0.020000</speed>
</trkpt>
<trkpt lat="42.442852" lon="18.634556">
<ele>3.736422</ele>
<time>2012-05-02T15:13:29Z</time>
<desc>lat.=42.442852, lon.=18.634556, Alt.=3.736422m. Speed=0.036000m/h.</desc>
<speed>0.010000</speed>
</trkpt>
<trkpt lat="42.442852" lon="18.634556">
<ele>3.714937</ele>
<time>2012-05-02T15:13:34Z</time>
<desc>lat.=42.442852, lon.=18.634556, Alt.=3.714937m. Speed=0.036000m/h.</desc>
<speed>0.010000</speed>
</trkpt>
<trkpt lat="42.442852" lon="18.634554">
<ele>3.693270</ele>
<time>2012-05-02T15:13:39Z</time>
<desc>lat.=42.442852, lon.=18.634554, Alt.=3.693270m. Speed=0.000000m/h.</desc>
<speed>0.000000</speed>
</trkpt>
<trkpt lat="42.442852" lon="18.634554">
<ele>3.706881</ele>
<time>2012-05-02T15:13:44Z</time>
<desc>lat.=42.442852, lon.=18.634554, Alt.=3.706881m. Speed=0.000000m/h.</desc>
<speed>0.000000</speed>
</trkpt>
<trkpt lat="42.442852" lon="18.634554">
<ele>3.684847</ele>
<time>2012-05-02T15:13:49Z</time>
<desc>lat.=42.442852, lon.=18.634554, Alt.=3.684847m. Speed=0.000000m/h.</desc>
<speed>0.000000</speed>
</trkpt>
<trkpt lat="42.442852" lon="18.634554">
<ele>3.728914</ele>
<time>2012-05-02T15:13:54Z</time>
<desc>lat.=42.442852, lon.=18.634554, Alt.=3.728914m. Speed=0.036000m/h.</desc>
<speed>0.010000</speed>
</trkpt>
<trkpt lat="42.442852" lon="18.634554">
<ele>3.748568</ele>
<time>2012-05-02T15:13:59Z</time>
<desc>lat.=42.442852, lon.=18.634554, Alt.=3.748568m. Speed=0.000000m/h.</desc>
<speed>0.000000</speed>
</trkpt>
<trkpt lat="42.442852" lon="18.634554">
<ele>3.766451</ele>
<time>2012-05-02T15:14:04Z</time>
<desc>lat.=42.442852, lon.=18.634554, Alt.=3.766451m. Speed=0.000000m/h.</desc>
<speed>0.000000</speed>
</trkpt>
<trkpt lat="42.442852" lon="18.634554">
<ele>3.746370</ele>
<time>2012-05-02T15:14:09Z</time>
<desc>lat.=42.442852, lon.=18.634554, Alt.=3.746370m. Speed=0.000000m/h.</desc>
<speed>0.000000</speed>
</trkpt>
<trkpt lat="42.442852" lon="18.634552">
<ele>3.711946</ele>
<time>2012-05-02T15:14:14Z</time>
<desc>lat.=42.442852, lon.=18.634552, Alt.=3.711946m. Speed=0.000000m/h.</desc>
<speed>0.000000</speed>
</trkpt>
<trkpt lat="42.442852" lon="18.634552">
<ele>3.677950</ele>
<time>2012-05-02T15:14:19Z</time>
<desc>lat.=42.442852, lon.=18.634552, Alt.=3.677950m. Speed=0.000000m/h.</desc>
<speed>0.000000</speed>
</trkpt>
<trkpt lat="42.442852" lon="18.634552">
<ele>3.658358</ele>
<time>2012-05-02T15:14:24Z</time>
<desc>lat.=42.442852, lon.=18.634552, Alt.=3.658358m. Speed=0.072000m/h.</desc>
<speed>0.020000</speed>
</trkpt>
<trkpt lat="42.442852" lon="18.634552">
<ele>3.670076</ele>
<time>2012-05-02T15:14:29Z</time>
<desc>lat.=42.442852, lon.=18.634552, Alt.=3.670076m. Speed=0.036000m/h.</desc>
<speed>0.010000</speed>
</trkpt>
<trkpt lat="42.442852" lon="18.634552">
<ele>3.719515</ele>
<time>2012-05-02T15:14:34Z</time>
<desc>lat.=42.442852, lon.=18.634552, Alt.=3.719515m. Speed=0.000000m/h.</desc>
<speed>0.000000</speed>
</trkpt>
<trkpt lat="42.442852" lon="18.634552">
<ele>3.732088</ele>
<time>2012-05-02T15:14:39Z</time>
<desc>lat.=42.442852, lon.=18.634552, Alt.=3.732088m. Speed=0.072000m/h.</desc>
<speed>0.020000</speed>
</trkpt>
<trkpt lat="42.442852" lon="18.634552">
<ele>3.742281</ele>
<time>2012-05-02T15:14:44Z</time>
<desc>lat.=42.442852, lon.=18.634552, Alt.=3.742281m. Speed=0.036000m/h.</desc>
<speed>0.010000</speed>
</trkpt>
<trkpt lat="42.442852" lon="18.634550">
<ele>3.728670</ele>
<time>2012-05-02T15:14:49Z</time>
<desc>lat.=42.442852, lon.=18.634550, Alt.=3.728670m. Speed=0.108000m/h.</desc>
<speed>0.030000</speed>
</trkpt>
<trkpt lat="42.442852" lon="18.634550">
<ele>3.697542</ele>
<time>2012-05-02T15:14:54Z</time>
<desc>lat.=42.442852, lon.=18.634550, Alt.=3.697542m. Speed=0.036000m/h.</desc>
<speed>0.010000</speed>
</trkpt>
<trkpt lat="42.442852" lon="18.634550">
<ele>3.680330</ele>
<time>2012-05-02T15:14:59Z</time>
<desc>lat.=42.442852, lon.=18.634550, Alt.=3.680330m. Speed=0.036000m/h.</desc>
<speed>0.010000</speed>
</trkpt>
<trkpt lat="42.442852" lon="18.634550">
<ele>3.641451</ele>
<time>2012-05-02T15:15:04Z</time>
<desc>lat.=42.442852, lon.=18.634550, Alt.=3.641451m. Speed=0.036000m/h.</desc>
<speed>0.010000</speed>
</trkpt>
<trkpt lat="42.442852" lon="18.634550">
<ele>3.629183</ele>
<time>2012-05-02T15:15:09Z</time>
<desc>lat.=42.442852, lon.=18.634550, Alt.=3.629183m. Speed=0.036000m/h.</desc>
<speed>0.010000</speed>
</trkpt>
<trkpt lat="42.442852" lon="18.634550">
<ele>3.628572</ele>
<time>2012-05-02T15:15:14Z</time>
<desc>lat.=42.442852, lon.=18.634550, Alt.=3.628572m. Speed=0.000000m/h.</desc>
<speed>0.000000</speed>
</trkpt>
<trkpt lat="42.442852" lon="18.634550">
<ele>3.655367</ele>
<time>2012-05-02T15:15:19Z</time>
<desc>lat.=42.442852, lon.=18.634550, Alt.=3.655367m. Speed=0.036000m/h.</desc>
<speed>0.010000</speed>
</trkpt>
<trkpt lat="42.442852" lon="18.634550">
<ele>3.688875</ele>
<time>2012-05-02T15:15:24Z</time>
<desc>lat.=42.442852, lon.=18.634550, Alt.=3.688875m. Speed=0.036000m/h.</desc>
<speed>0.010000</speed>
</trkpt>
<trkpt lat="42.442852" lon="18.634550">
<ele>3.717989</ele>
<time>2012-05-02T15:15:29Z</time>
<desc>lat.=42.442852, lon.=18.634550, Alt.=3.717989m. Speed=0.000000m/h.</desc>
<speed>0.000000</speed>
</trkpt>
<trkpt lat="42.442852" lon="18.634550">
<ele>3.717684</ele>
<time>2012-05-02T15:15:34Z</time>
<desc>lat.=42.442852, lon.=18.634550, Alt.=3.717684m. Speed=0.000000m/h.</desc>
<speed>0.000000</speed>
</trkpt>
<trkpt lat="42.442852" lon="18.634550">
<ele>3.714205</ele>
<time>2012-05-02T15:15:39Z</time>
<desc>lat.=42.442852, lon.=18.634550, Alt.=3.714205m. Speed=0.000000m/h.</desc>
<speed>0.000000</speed>
</trkpt>
<trkpt lat="42.442852" lon="18.634550">
<ele>3.685884</ele>
<time>2012-05-02T15:15:44Z</time>
<desc>lat.=42.442852, lon.=18.634550, Alt.=3.685884m. Speed=0.036000m/h.</desc>
<speed>0.010000</speed>
</trkpt>
<trkpt lat="42.442852" lon="18.634550">
<ele>3.654085</ele>
<time>2012-05-02T15:15:49Z</time>
<desc>lat.=42.442852, lon.=18.634550, Alt.=3.654085m. Speed=0.000000m/h.</desc>
<speed>0.000000</speed>
</trkpt>
<trkpt lat="42.442852" lon="18.634548">
<ele>3.618807</ele>
<time>2012-05-02T15:15:54Z</time>
<desc>lat.=42.442852, lon.=18.634548, Alt.=3.618807m. Speed=0.036000m/h.</desc>
<speed>0.010000</speed>
</trkpt>
<trkpt lat="42.442852" lon="18.634548">
<ele>3.634432</ele>
<time>2012-05-02T15:15:59Z</time>
<desc>lat.=42.442852, lon.=18.634548, Alt.=3.634432m. Speed=0.072000m/h.</desc>
<speed>0.020000</speed>
</trkpt>
<trkpt lat="42.442852" lon="18.634548">
<ele>3.645418</ele>
<time>2012-05-02T15:16:04Z</time>
<desc>lat.=42.442852, lon.=18.634548, Alt.=3.645418m. Speed=0.036000m/h.</desc>
<speed>0.010000</speed>
</trkpt>
<trkpt lat="42.442852" lon="18.634548">
<ele>3.662081</ele>
<time>2012-05-02T15:16:09Z</time>
<desc>lat.=42.442852, lon.=18.634548, Alt.=3.662081m. Speed=0.036000m/h.</desc>
<speed>0.010000</speed>
</trkpt>
<trkpt lat="42.442852" lon="18.634548">
<ele>3.666780</ele>
<time>2012-05-02T15:16:14Z</time>
<desc>lat.=42.442852, lon.=18.634548, Alt.=3.666780m. Speed=0.000000m/h.</desc>
<speed>0.000000</speed>
</trkpt>
<trkpt lat="42.442852" lon="18.634548">
<ele>3.655123</ele>
<time>2012-05-02T15:16:19Z</time>
<desc>lat.=42.442852, lon.=18.634548, Alt.=3.655123m. Speed=0.000000m/h.</desc>
<speed>0.000000</speed>
</trkpt>
<trkpt lat="42.442852" lon="18.634548">
<ele>3.646090</ele>
<time>2012-05-02T15:16:24Z</time>
<desc>lat.=42.442852, lon.=18.634548, Alt.=3.646090m. Speed=0.000000m/h.</desc>
<speed>0.000000</speed>
</trkpt>
<trkpt lat="42.442852" lon="18.634548">
<ele>3.618624</ele>
<time>2012-05-02T15:16:29Z</time>
<desc>lat.=42.442852, lon.=18.634548, Alt.=3.618624m. Speed=0.036000m/h.</desc>
<speed>0.010000</speed>
</trkpt>
<trkpt lat="42.442852" lon="18.634548">
<ele>3.600008</ele>
<time>2012-05-02T15:16:34Z</time>
<desc>lat.=42.442852, lon.=18.634548, Alt.=3.600008m. Speed=0.000000m/h.</desc>
<speed>0.000000</speed>
</trkpt>
<trkpt lat="42.442852" lon="18.634548">
<ele>3.609468</ele>
<time>2012-05-02T15:16:39Z</time>
<desc>lat.=42.442852, lon.=18.634548, Alt.=3.609468m. Speed=0.000000m/h.</desc>
<speed>0.000000</speed>
</trkpt>
<trkpt lat="42.442852" lon="18.634546">
<ele>3.639925</ele>
<time>2012-05-02T15:16:44Z</time>
<desc>lat.=42.442852, lon.=18.634546, Alt.=3.639925m. Speed=0.000000m/h.</desc>
<speed>0.000000</speed>
</trkpt>
<trkpt lat="42.442852" lon="18.634546">
<ele>3.671053</ele>
<time>2012-05-02T15:16:49Z</time>
<desc>lat.=42.442852, lon.=18.634546, Alt.=3.671053m. Speed=0.000000m/h.</desc>
<speed>0.000000</speed>
</trkpt>
<trkpt lat="42.442852" lon="18.634546">
<ele>3.695345</ele>
<time>2012-05-02T15:16:54Z</time>
<desc>lat.=42.442852, lon.=18.634546, Alt.=3.695345m. Speed=0.036000m/h.</desc>
<speed>0.010000</speed>
</trkpt>
<trkpt lat="42.442852" lon="18.634546">
<ele>3.694857</ele>
<time>2012-05-02T15:16:59Z</time>
<desc>lat.=42.442852, lon.=18.634546, Alt.=3.694857m. Speed=0.036000m/h.</desc>
<speed>0.010000</speed>
</trkpt>
<trkpt lat="42.442852" lon="18.634546">
<ele>3.672579</ele>
<time>2012-05-02T15:17:04Z</time>
<desc>lat.=42.442852, lon.=18.634546, Alt.=3.672579m. Speed=0.000000m/h.</desc>
<speed>0.000000</speed>
</trkpt>
<trkpt lat="42.442852" lon="18.634546">
<ele>3.651217</ele>
<time>2012-05-02T15:17:09Z</time>
<desc>lat.=42.442852, lon.=18.634546, Alt.=3.651217m. Speed=0.036000m/h.</desc>
<speed>0.010000</speed>
</trkpt>
<trkpt lat="42.442852" lon="18.634546">
<ele>3.608126</ele>
<time>2012-05-02T15:17:14Z</time>
<desc>lat.=42.442852, lon.=18.634546, Alt.=3.608126m. Speed=0.036000m/h.</desc>
<speed>0.010000</speed>
</trkpt>
<trkpt lat="42.442852" lon="18.634546">
<ele>3.581881</ele>
<time>2012-05-02T15:17:19Z</time>
<desc>lat.=42.442852, lon.=18.634546, Alt.=3.581881m. Speed=0.036000m/h.</desc>
<speed>0.010000</speed>
</trkpt>
<trkpt lat="42.442852" lon="18.634546">
<ele>3.563387</ele>
<time>2012-05-02T15:17:24Z</time>
<desc>lat.=42.442852, lon.=18.634546, Alt.=3.563387m. Speed=0.000000m/h.</desc>
<speed>0.000000</speed>
</trkpt>
<trkpt lat="42.442852" lon="18.634546">
<ele>3.558260</ele>
<time>2012-05-02T15:17:29Z</time>
<desc>lat.=42.442852, lon.=18.634546, Alt.=3.558260m. Speed=0.000000m/h.</desc>
<speed>0.000000</speed>
</trkpt>
<trkpt lat="42.442852" lon="18.634546">
<ele>3.562654</ele>
<time>2012-05-02T15:17:34Z</time>
<desc>lat.=42.442852, lon.=18.634546, Alt.=3.562654m. Speed=0.036000m/h.</desc>
<speed>0.010000</speed>
</trkpt>
<trkpt lat="42.442852" lon="18.634546">
<ele>3.564791</ele>
<time>2012-05-02T15:17:39Z</time>
<desc>lat.=42.442852, lon.=18.634546, Alt.=3.564791m. Speed=0.000000m/h.</desc>
<speed>0.000000</speed>
</trkpt>
<trkpt lat="42.442852" lon="18.634546">
<ele>3.563936</ele>
<time>2012-05-02T15:17:44Z</time>
<desc>lat.=42.442852, lon.=18.634546, Alt.=3.563936m. Speed=0.036000m/h.</desc>
<speed>0.010000</speed>
</trkpt>
<trkpt lat="42.442852" lon="18.634546">
<ele>3.543673</ele>
<time>2012-05-02T15:17:49Z</time>
<desc>lat.=42.442852, lon.=18.634546, Alt.=3.543673m. Speed=0.036000m/h.</desc>
<speed>0.010000</speed>
</trkpt>
<trkpt lat="42.442852" lon="18.634546">
<ele>3.524630</ele>
<time>2012-05-02T15:17:54Z</time>
<desc>lat.=42.442852, lon.=18.634546, Alt.=3.524630m. Speed=0.000000m/h.</desc>
<speed>0.000000</speed>
</trkpt>
<trkpt lat="42.442852" lon="18.634546">
<ele>3.504732</ele>
<time>2012-05-02T15:17:59Z</time>
<desc>lat.=42.442852, lon.=18.634546, Alt.=3.504732m. Speed=0.036000m/h.</desc>
<speed>0.010000</speed>
</trkpt>
<trkpt lat="42.442852" lon="18.634546">
<ele>3.503328</ele>
<time>2012-05-02T15:18:04Z</time>
<desc>lat.=42.442852, lon.=18.634546, Alt.=3.503328m. Speed=0.000000m/h.</desc>
<speed>0.000000</speed>
</trkpt>
<trkpt lat="42.442852" lon="18.634546">
<ele>3.509188</ele>
<time>2012-05-02T15:18:09Z</time>
<desc>lat.=42.442852, lon.=18.634546, Alt.=3.509188m. Speed=0.036000m/h.</desc>
<speed>0.010000</speed>
</trkpt>
<trkpt lat="42.442852" lon="18.634546">
<ele>3.546663</ele>
<time>2012-05-02T15:18:14Z</time>
<desc>lat.=42.442852, lon.=18.634546, Alt.=3.546663m. Speed=0.000000m/h.</desc>
<speed>0.000000</speed>
</trkpt>
<trkpt lat="42.442852" lon="18.634546">
<ele>3.570772</ele>
<time>2012-05-02T15:18:19Z</time>
<desc>lat.=42.442852, lon.=18.634546, Alt.=3.570772m. Speed=0.000000m/h.</desc>
<speed>0.000000</speed>
</trkpt>
<trkpt lat="42.442852" lon="18.634546">
<ele>3.575899</ele>
<time>2012-05-02T15:18:24Z</time>
<desc>lat.=42.442852, lon.=18.634546, Alt.=3.575899m. Speed=0.072000m/h.</desc>
<speed>0.020000</speed>
</trkpt>
<trkpt lat="42.442852" lon="18.634546">
<ele>3.567781</ele>
<time>2012-05-02T15:18:29Z</time>
<desc>lat.=42.442852, lon.=18.634546, Alt.=3.567781m. Speed=0.036000m/h.</desc>
<speed>0.010000</speed>
</trkpt>
<trkpt lat="42.442852" lon="18.634546">
<ele>3.565584</ele>
<time>2012-05-02T15:18:34Z</time>
<desc>lat.=42.442852, lon.=18.634546, Alt.=3.565584m. Speed=0.000000m/h.</desc>
<speed>0.000000</speed>
</trkpt>
<trkpt lat="42.442856" lon="18.634546">
<ele>3.558504</ele>
<time>2012-05-02T15:18:39Z</time>
<desc>lat.=42.442856, lon.=18.634546, Alt.=3.558504m. Speed=0.072000m/h.</desc>
<speed>0.020000</speed>
</trkpt>
<trkpt lat="42.442856" lon="18.634546">
<ele>3.553011</ele>
<time>2012-05-02T15:18:44Z</time>
<desc>lat.=42.442856, lon.=18.634546, Alt.=3.553011m. Speed=0.000000m/h.</desc>
<speed>0.000000</speed>
</trkpt>
<trkpt lat="42.442856" lon="18.634546">
<ele>3.554171</ele>
<time>2012-05-02T15:18:49Z</time>
<desc>lat.=42.442856, lon.=18.634546, Alt.=3.554171m. Speed=0.000000m/h.</desc>
<speed>0.000000</speed>
</trkpt>
<trkpt lat="42.442856" lon="18.634546">
<ele>3.562227</ele>
<time>2012-05-02T15:18:54Z</time>
<desc>lat.=42.442856, lon.=18.634546, Alt.=3.562227m. Speed=0.000000m/h.</desc>
<speed>0.000000</speed>
</trkpt>
<trkpt lat="42.442856" lon="18.634546">
<ele>3.594393</ele>
<time>2012-05-02T15:18:59Z</time>
<desc>lat.=42.442856, lon.=18.634546, Alt.=3.594393m. Speed=0.000000m/h.</desc>
<speed>0.000000</speed>
</trkpt>
<trkpt lat="42.442856" lon="18.634546">
<ele>3.640718</ele>
<time>2012-05-02T15:19:04Z</time>
<desc>lat.=42.442856, lon.=18.634546, Alt.=3.640718m. Speed=0.000000m/h.</desc>
<speed>0.000000</speed>
</trkpt>
<trkpt lat="42.442856" lon="18.634546">
<ele>3.670931</ele>
<time>2012-05-02T15:19:09Z</time>
<desc>lat.=42.442856, lon.=18.634546, Alt.=3.670931m. Speed=0.072000m/h.</desc>
<speed>0.020000</speed>
</trkpt>
<trkpt lat="42.442856" lon="18.634546">
<ele>3.698641</ele>
<time>2012-05-02T15:19:14Z</time>
<desc>lat.=42.442856, lon.=18.634546, Alt.=3.698641m. Speed=0.000000m/h.</desc>
<speed>0.000000</speed>
</trkpt>
<trkpt lat="42.442856" lon="18.634546">
<ele>3.690950</ele>
<time>2012-05-02T15:19:19Z</time>
<desc>lat.=42.442856, lon.=18.634546, Alt.=3.690950m. Speed=0.036000m/h.</desc>
<speed>0.010000</speed>
</trkpt>
<trkpt lat="42.442856" lon="18.634546">
<ele>3.683626</ele>
<time>2012-05-02T15:19:24Z</time>
<desc>lat.=42.442856, lon.=18.634546, Alt.=3.683626m. Speed=0.000000m/h.</desc>
<speed>0.000000</speed>
</trkpt>
<trkpt lat="42.442856" lon="18.634546">
<ele>3.674898</ele>
<time>2012-05-02T15:19:29Z</time>
<desc>lat.=42.442856, lon.=18.634546, Alt.=3.674898m. Speed=0.036000m/h.</desc>
<speed>0.010000</speed>
</trkpt>
<trkpt lat="42.442856" lon="18.634546">
<ele>3.666048</ele>
<time>2012-05-02T15:19:34Z</time>
<desc>lat.=42.442856, lon.=18.634546, Alt.=3.666048m. Speed=0.036000m/h.</desc>
<speed>0.010000</speed>
</trkpt>
<trkpt lat="42.442856" lon="18.634546">
<ele>3.683565</ele>
<time>2012-05-02T15:19:39Z</time>
<desc>lat.=42.442856, lon.=18.634546, Alt.=3.683565m. Speed=0.000000m/h.</desc>
<speed>0.000000</speed>
</trkpt>
<trkpt lat="42.442856" lon="18.634546">
<ele>3.696138</ele>
<time>2012-05-02T15:19:44Z</time>
<desc>lat.=42.442856, lon.=18.634546, Alt.=3.696138m. Speed=0.000000m/h.</desc>
<speed>0.000000</speed>
</trkpt>
<trkpt lat="42.442856" lon="18.634546">
<ele>3.709688</ele>
<time>2012-05-02T15:19:49Z</time>
<desc>lat.=42.442856, lon.=18.634546, Alt.=3.709688m. Speed=0.000000m/h.</desc>
<speed>0.000000</speed>
</trkpt>
<trkpt lat="42.442856" lon="18.634546">
<ele>3.727327</ele>
<time>2012-05-02T15:19:54Z</time>
<desc>lat.=42.442856, lon.=18.634546, Alt.=3.727327m. Speed=0.072000m/h.</desc>
<speed>0.020000</speed>
</trkpt>
<trkpt lat="42.442856" lon="18.634546">
<ele>3.734285</ele>
<time>2012-05-02T15:19:59Z</time>
<desc>lat.=42.442856, lon.=18.634546, Alt.=3.734285m. Speed=0.000000m/h.</desc>
<speed>0.000000</speed>
</trkpt>
<trkpt lat="42.442856" lon="18.634546">
<ele>3.737703</ele>
<time>2012-05-02T15:20:04Z</time>
<desc>lat.=42.442856, lon.=18.634546, Alt.=3.737703m. Speed=0.036000m/h.</desc>
<speed>0.010000</speed>
</trkpt>
<trkpt lat="42.442856" lon="18.634546">
<ele>3.742464</ele>
<time>2012-05-02T15:20:09Z</time>
<desc>lat.=42.442856, lon.=18.634546, Alt.=3.742464m. Speed=0.000000m/h.</desc>
<speed>0.000000</speed>
</trkpt>
<trkpt lat="42.442856" lon="18.634546">
<ele>3.761202</ele>
<time>2012-05-02T15:20:14Z</time>
<desc>lat.=42.442856, lon.=18.634546, Alt.=3.761202m. Speed=0.000000m/h.</desc>
<speed>0.000000</speed>
</trkpt>
<trkpt lat="42.442856" lon="18.634546">
<ele>3.765657</ele>
<time>2012-05-02T15:20:19Z</time>
<desc>lat.=42.442856, lon.=18.634546, Alt.=3.765657m. Speed=0.000000m/h.</desc>
<speed>0.000000</speed>
</trkpt>
<trkpt lat="42.442856" lon="18.634546">
<ele>3.781160</ele>
<time>2012-05-02T15:20:24Z</time>
<desc>lat.=42.442856, lon.=18.634546, Alt.=3.781160m. Speed=0.000000m/h.</desc>
<speed>0.000000</speed>
</trkpt>
<trkpt lat="42.442856" lon="18.634546">
<ele>3.791842</ele>
<time>2012-05-02T15:20:29Z</time>
<desc>lat.=42.442856, lon.=18.634546, Alt.=3.791842m. Speed=0.000000m/h.</desc>
<speed>0.000000</speed>
</trkpt>
<trkpt lat="42.442856" lon="18.634546">
<ele>3.803438</ele>
<time>2012-05-02T15:20:34Z</time>
<desc>lat.=42.442856, lon.=18.634546, Alt.=3.803438m. Speed=0.036000m/h.</desc>
<speed>0.010000</speed>
</trkpt>
<trkpt lat="42.442856" lon="18.634546">
<ele>3.817965</ele>
<time>2012-05-02T15:20:39Z</time>
<desc>lat.=42.442856, lon.=18.634546, Alt.=3.817965m. Speed=0.000000m/h.</desc>
<speed>0.000000</speed>
</trkpt>
<trkpt lat="42.442856" lon="18.634546">
<ele>3.820833</ele>
<time>2012-05-02T15:20:44Z</time>
<desc>lat.=42.442856, lon.=18.634546, Alt.=3.820833m. Speed=0.000000m/h.</desc>
<speed>0.000000</speed>
</trkpt>
<trkpt lat="42.442856" lon="18.634546">
<ele>3.820406</ele>
<time>2012-05-02T15:20:49Z</time>
<desc>lat.=42.442856, lon.=18.634546, Alt.=3.820406m. Speed=0.000000m/h.</desc>
<speed>0.000000</speed>
</trkpt>
<trkpt lat="42.442856" lon="18.634546">
<ele>3.814241</ele>
<time>2012-05-02T15:20:54Z</time>
<desc>lat.=42.442856, lon.=18.634546, Alt.=3.814241m. Speed=0.000000m/h.</desc>
<speed>0.000000</speed>
</trkpt>
<trkpt lat="42.442856" lon="18.634546">
<ele>3.805880</ele>
<time>2012-05-02T15:20:59Z</time>
<desc>lat.=42.442856, lon.=18.634546, Alt.=3.805880m. Speed=0.000000m/h.</desc>
<speed>0.000000</speed>
</trkpt>
<trkpt lat="42.442856" lon="18.634546">
<ele>3.812410</ele>
<time>2012-05-02T15:21:04Z</time>
<desc>lat.=42.442856, lon.=18.634546, Alt.=3.812410m. Speed=0.036000m/h.</desc>
<speed>0.010000</speed>
</trkpt>
<trkpt lat="42.442856" lon="18.634546">
<ele>3.809175</ele>
<time>2012-05-02T15:21:09Z</time>
<desc>lat.=42.442856, lon.=18.634546, Alt.=3.809175m. Speed=0.000000m/h.</desc>
<speed>0.000000</speed>
</trkpt>
<trkpt lat="42.442856" lon="18.634546">
<ele>3.812960</ele>
<time>2012-05-02T15:21:14Z</time>
<desc>lat.=42.442856, lon.=18.634546, Alt.=3.812960m. Speed=0.000000m/h.</desc>
<speed>0.000000</speed>
</trkpt>
<trkpt lat="42.442856" lon="18.634546">
<ele>3.840914</ele>
<time>2012-05-02T15:21:19Z</time>
<desc>lat.=42.442856, lon.=18.634546, Alt.=3.840914m. Speed=0.000000m/h.</desc>
<speed>0.000000</speed>
</trkpt>
<trkpt lat="42.442856" lon="18.634546">
<ele>3.841768</ele>
<time>2012-05-02T15:21:24Z</time>
<desc>lat.=42.442856, lon.=18.634546, Alt.=3.841768m. Speed=0.000000m/h.</desc>
<speed>0.000000</speed>
</trkpt>
<trkpt lat="42.442856" lon="18.634546">
<ele>3.848177</ele>
<time>2012-05-02T15:21:29Z</time>
<desc>lat.=42.442856, lon.=18.634546, Alt.=3.848177m. Speed=0.000000m/h.</desc>
<speed>0.000000</speed>
</trkpt>
<trkpt lat="42.442856" lon="18.634546">
<ele>3.849764</ele>
<time>2012-05-02T15:21:34Z</time>
<desc>lat.=42.442856, lon.=18.634546, Alt.=3.849764m. Speed=0.000000m/h.</desc>
<speed>0.000000</speed>
</trkpt>
<trkpt lat="42.442852" lon="18.634546">
<ele>3.832186</ele>
<time>2012-05-02T15:21:39Z</time>
<desc>lat.=42.442852, lon.=18.634546, Alt.=3.832186m. Speed=0.000000m/h.</desc>
<speed>0.000000</speed>
</trkpt>
<trkpt lat="42.442852" lon="18.634546">
<ele>3.820528</ele>
<time>2012-05-02T15:21:44Z</time>
<desc>lat.=42.442852, lon.=18.634546, Alt.=3.820528m. Speed=0.000000m/h.</desc>
<speed>0.000000</speed>
</trkpt>
<trkpt lat="42.442852" lon="18.634546">
<ele>3.820650</ele>
<time>2012-05-02T15:21:49Z</time>
<desc>lat.=42.442852, lon.=18.634546, Alt.=3.820650m. Speed=0.000000m/h.</desc>
<speed>0.000000</speed>
</trkpt>
<trkpt lat="42.442852" lon="18.634546">
<ele>3.840181</ele>
<time>2012-05-02T15:21:54Z</time>
<desc>lat.=42.442852, lon.=18.634546, Alt.=3.840181m. Speed=0.000000m/h.</desc>
<speed>0.000000</speed>
</trkpt>
<trkpt lat="42.442852" lon="18.634546">
<ele>3.844698</ele>
<time>2012-05-02T15:21:59Z</time>
<desc>lat.=42.442852, lon.=18.634546, Alt.=3.844698m. Speed=0.000000m/h.</desc>
<speed>0.000000</speed>
</trkpt>
<trkpt lat="42.442852" lon="18.634546">
<ele>3.847078</ele>
<time>2012-05-02T15:22:04Z</time>
<desc>lat.=42.442852, lon.=18.634546, Alt.=3.847078m. Speed=0.000000m/h.</desc>
<speed>0.000000</speed>
</trkpt>
<trkpt lat="42.442852" lon="18.634546">
<ele>3.865450</ele>
<time>2012-05-02T15:22:09Z</time>
<desc>lat.=42.442852, lon.=18.634546, Alt.=3.865450m. Speed=0.036000m/h.</desc>
<speed>0.010000</speed>
</trkpt>
<trkpt lat="42.442852" lon="18.634544">
<ele>3.878633</ele>
<time>2012-05-02T15:22:14Z</time>
<desc>lat.=42.442852, lon.=18.634544, Alt.=3.878633m. Speed=0.036000m/h.</desc>
<speed>0.010000</speed>
</trkpt>
<trkpt lat="42.442852" lon="18.634544">
<ele>3.880037</ele>
<time>2012-05-02T15:22:19Z</time>
<desc>lat.=42.442852, lon.=18.634544, Alt.=3.880037m. Speed=0.000000m/h.</desc>
<speed>0.000000</speed>
</trkpt>
<trkpt lat="42.442852" lon="18.634544">
<ele>3.889803</ele>
<time>2012-05-02T15:22:24Z</time>
<desc>lat.=42.442852, lon.=18.634544, Alt.=3.889803m. Speed=0.036000m/h.</desc>
<speed>0.010000</speed>
</trkpt>
<trkpt lat="42.442852" lon="18.634544">
<ele>3.897188</ele>
<time>2012-05-02T15:22:29Z</time>
<desc>lat.=42.442852, lon.=18.634544, Alt.=3.897188m. Speed=0.000000m/h.</desc>
<speed>0.000000</speed>
</trkpt>
<trkpt lat="42.442852" lon="18.634544">
<ele>3.910799</ele>
<time>2012-05-02T15:22:34Z</time>
<desc>lat.=42.442852, lon.=18.634544, Alt.=3.910799m. Speed=0.000000m/h.</desc>
<speed>0.000000</speed>
</trkpt>
<trkpt lat="42.442852" lon="18.634544">
<ele>3.915316</ele>
<time>2012-05-02T15:22:39Z</time>
<desc>lat.=42.442852, lon.=18.634544, Alt.=3.915316m. Speed=0.000000m/h.</desc>
<speed>0.000000</speed>
</trkpt>
<trkpt lat="42.442852" lon="18.634544">
<ele>3.916597</ele>
<time>2012-05-02T15:22:44Z</time>
<desc>lat.=42.442852, lon.=18.634544, Alt.=3.916597m. Speed=0.036000m/h.</desc>
<speed>0.010000</speed>
</trkpt>
<trkpt lat="42.442852" lon="18.634544">
<ele>3.927950</ele>
<time>2012-05-02T15:22:49Z</time>
<desc>lat.=42.442852, lon.=18.634544, Alt.=3.927950m. Speed=0.036000m/h.</desc>
<speed>0.010000</speed>
</trkpt>
<trkpt lat="42.442852" lon="18.634544">
<ele>3.931612</ele>
<time>2012-05-02T15:22:54Z</time>
<desc>lat.=42.442852, lon.=18.634544, Alt.=3.931612m. Speed=0.000000m/h.</desc>
<speed>0.000000</speed>
</trkpt>
<trkpt lat="42.442852" lon="18.634544">
<ele>3.940523</ele>
<time>2012-05-02T15:22:59Z</time>
<desc>lat.=42.442852, lon.=18.634544, Alt.=3.940523m. Speed=0.036000m/h.</desc>
<speed>0.010000</speed>
</trkpt>
<trkpt lat="42.442852" lon="18.634544">
<ele>3.952181</ele>
<time>2012-05-02T15:23:04Z</time>
<desc>lat.=42.442852, lon.=18.634544, Alt.=3.952181m. Speed=0.000000m/h.</desc>
<speed>0.000000</speed>
</trkpt>
<trkpt lat="42.442852" lon="18.634544">
<ele>3.966158</ele>
<time>2012-05-02T15:23:09Z</time>
<desc>lat.=42.442852, lon.=18.634544, Alt.=3.966158m. Speed=0.000000m/h.</desc>
<speed>0.000000</speed>
</trkpt>
<trkpt lat="42.442852" lon="18.634544">
<ele>3.957125</ele>
<time>2012-05-02T15:23:14Z</time>
<desc>lat.=42.442852, lon.=18.634544, Alt.=3.957125m. Speed=0.036000m/h.</desc>
<speed>0.010000</speed>
</trkpt>
<trkpt lat="42.442852" lon="18.634544">
<ele>3.957186</ele>
<time>2012-05-02T15:23:19Z</time>
<desc>lat.=42.442852, lon.=18.634544, Alt.=3.957186m. Speed=0.036000m/h.</desc>
<speed>0.010000</speed>
</trkpt>
<trkpt lat="42.442852" lon="18.634544">
<ele>3.970308</ele>
<time>2012-05-02T15:23:24Z</time>
<desc>lat.=42.442852, lon.=18.634544, Alt.=3.970308m. Speed=0.036000m/h.</desc>
<speed>0.010000</speed>
</trkpt>
<trkpt lat="42.442852" lon="18.634544">
<ele>3.984713</ele>
<time>2012-05-02T15:23:29Z</time>
<desc>lat.=42.442852, lon.=18.634544, Alt.=3.984713m. Speed=0.036000m/h.</desc>
<speed>0.010000</speed>
</trkpt>
<trkpt lat="42.442852" lon="18.634544">
<ele>3.986238</ele>
<time>2012-05-02T15:23:34Z</time>
<desc>lat.=42.442852, lon.=18.634544, Alt.=3.986238m. Speed=0.036000m/h.</desc>
<speed>0.010000</speed>
</trkpt>
<trkpt lat="42.442848" lon="18.634544">
<ele>3.973665</ele>
<time>2012-05-02T15:23:39Z</time>
<desc>lat.=42.442848, lon.=18.634544, Alt.=3.973665m. Speed=0.036000m/h.</desc>
<speed>0.010000</speed>
</trkpt>
<trkpt lat="42.442848" lon="18.634544">
<ele>3.941195</ele>
<time>2012-05-02T15:23:44Z</time>
<desc>lat.=42.442848, lon.=18.634544, Alt.=3.941195m. Speed=0.036000m/h.</desc>
<speed>0.010000</speed>
</trkpt>
<trkpt lat="42.442848" lon="18.634544">
<ele>3.926973</ele>
<time>2012-05-02T15:23:49Z</time>
<desc>lat.=42.442848, lon.=18.634544, Alt.=3.926973m. Speed=0.000000m/h.</desc>
<speed>0.000000</speed>
</trkpt>
<trkpt lat="42.442848" lon="18.634544">
<ele>3.891695</ele>
<time>2012-05-02T15:23:54Z</time>
<desc>lat.=42.442848, lon.=18.634544, Alt.=3.891695m. Speed=0.000000m/h.</desc>
<speed>0.000000</speed>
</trkpt>
<trkpt lat="42.442848" lon="18.634544">
<ele>3.858370</ele>
<time>2012-05-02T15:23:59Z</time>
<desc>lat.=42.442848, lon.=18.634544, Alt.=3.858370m. Speed=0.000000m/h.</desc>
<speed>0.000000</speed>
</trkpt>
<trkpt lat="42.442848" lon="18.634544">
<ele>3.833529</ele>
<time>2012-05-02T15:24:04Z</time>
<desc>lat.=42.442848, lon.=18.634544, Alt.=3.833529m. Speed=0.000000m/h.</desc>
<speed>0.000000</speed>
</trkpt>
<trkpt lat="42.442848" lon="18.634544">
<ele>3.811129</ele>
<time>2012-05-02T15:24:09Z</time>
<desc>lat.=42.442848, lon.=18.634544, Alt.=3.811129m. Speed=0.000000m/h.</desc>
<speed>0.000000</speed>
</trkpt>
<trkpt lat="42.442848" lon="18.634544">
<ele>3.816744</ele>
<time>2012-05-02T15:24:14Z</time>
<desc>lat.=42.442848, lon.=18.634544, Alt.=3.816744m. Speed=0.072000m/h.</desc>
<speed>0.020000</speed>
</trkpt>
<trkpt lat="42.442848" lon="18.634544">
<ele>3.827791</ele>
<time>2012-05-02T15:24:19Z</time>
<desc>lat.=42.442848, lon.=18.634544, Alt.=3.827791m. Speed=0.036000m/h.</desc>
<speed>0.010000</speed>
</trkpt>
<trkpt lat="42.442848" lon="18.634544">
<ele>3.829988</ele>
<time>2012-05-02T15:24:24Z</time>
<desc>lat.=42.442848, lon.=18.634544, Alt.=3.829988m. Speed=0.000000m/h.</desc>
<speed>0.000000</speed>
</trkpt>
<trkpt lat="42.442848" lon="18.634544">
<ele>3.816866</ele>
<time>2012-05-02T15:24:29Z</time>
<desc>lat.=42.442848, lon.=18.634544, Alt.=3.816866m. Speed=0.036000m/h.</desc>
<speed>0.010000</speed>
</trkpt>
<trkpt lat="42.442848" lon="18.634544">
<ele>3.789217</ele>
<time>2012-05-02T15:24:34Z</time>
<desc>lat.=42.442848, lon.=18.634544, Alt.=3.789217m. Speed=0.000000m/h.</desc>
<speed>0.000000</speed>
</trkpt>
<trkpt lat="42.442848" lon="18.634544">
<ele>3.760225</ele>
<time>2012-05-02T15:24:39Z</time>
<desc>lat.=42.442848, lon.=18.634544, Alt.=3.760225m. Speed=0.000000m/h.</desc>
<speed>0.000000</speed>
</trkpt>
<trkpt lat="42.442848" lon="18.634546">
<ele>3.744905</ele>
<time>2012-05-02T15:24:44Z</time>
<desc>lat.=42.442848, lon.=18.634546, Alt.=3.744905m. Speed=0.036000m/h.</desc>
<speed>0.010000</speed>
</trkpt>
<trkpt lat="42.442848" lon="18.634546">
<ele>3.741121</ele>
<time>2012-05-02T15:24:49Z</time>
<desc>lat.=42.442848, lon.=18.634546, Alt.=3.741121m. Speed=0.000000m/h.</desc>
<speed>0.000000</speed>
</trkpt>
<trkpt lat="42.442848" lon="18.634546">
<ele>3.733309</ele>
<time>2012-05-02T15:24:54Z</time>
<desc>lat.=42.442848, lon.=18.634546, Alt.=3.733309m. Speed=0.000000m/h.</desc>
<speed>0.000000</speed>
</trkpt>
<trkpt lat="42.442848" lon="18.634546">
<ele>3.733675</ele>
<time>2012-05-02T15:24:59Z</time>
<desc>lat.=42.442848, lon.=18.634546, Alt.=3.733675m. Speed=0.000000m/h.</desc>
<speed>0.000000</speed>
</trkpt>
<trkpt lat="42.442848" lon="18.634546">
<ele>3.732637</ele>
<time>2012-05-02T15:25:04Z</time>
<desc>lat.=42.442848, lon.=18.634546, Alt.=3.732637m. Speed=0.000000m/h.</desc>
<speed>0.000000</speed>
</trkpt>
<trkpt lat="42.442848" lon="18.634546">
<ele>3.725924</ele>
<time>2012-05-02T15:25:09Z</time>
<desc>lat.=42.442848, lon.=18.634546, Alt.=3.725924m. Speed=0.000000m/h.</desc>
<speed>0.000000</speed>
</trkpt>
<trkpt lat="42.442848" lon="18.634546">
<ele>3.707247</ele>
<time>2012-05-02T15:25:14Z</time>
<desc>lat.=42.442848, lon.=18.634546, Alt.=3.707247m. Speed=0.000000m/h.</desc>
<speed>0.000000</speed>
</trkpt>
<trkpt lat="42.442848" lon="18.634546">
<ele>3.696810</ele>
<time>2012-05-02T15:25:19Z</time>
<desc>lat.=42.442848, lon.=18.634546, Alt.=3.696810m. Speed=0.000000m/h.</desc>
<speed>0.000000</speed>
</trkpt>
<trkpt lat="42.442848" lon="18.634546">
<ele>3.685579</ele>
<time>2012-05-02T15:25:24Z</time>
<desc>lat.=42.442848, lon.=18.634546, Alt.=3.685579m. Speed=0.000000m/h.</desc>
<speed>0.000000</speed>
</trkpt>
<trkpt lat="42.442848" lon="18.634546">
<ele>3.695955</ele>
<time>2012-05-02T15:25:29Z</time>
<desc>lat.=42.442848, lon.=18.634546, Alt.=3.695955m. Speed=0.000000m/h.</desc>
<speed>0.000000</speed>
</trkpt>
<trkpt lat="42.442848" lon="18.634546">
<ele>3.708529</ele>
<time>2012-05-02T15:25:34Z</time>
<desc>lat.=42.442848, lon.=18.634546, Alt.=3.708529m. Speed=0.000000m/h.</desc>
<speed>0.000000</speed>
</trkpt>
<trkpt lat="42.442848" lon="18.634546">
<ele>3.715548</ele>
<time>2012-05-02T15:25:39Z</time>
<desc>lat.=42.442848, lon.=18.634546, Alt.=3.715548m. Speed=0.000000m/h.</desc>
<speed>0.000000</speed>
</trkpt>
<trkpt lat="42.442848" lon="18.634546">
<ele>3.723848</ele>
<time>2012-05-02T15:25:44Z</time>
<desc>lat.=42.442848, lon.=18.634546, Alt.=3.723848m. Speed=0.000000m/h.</desc>
<speed>0.000000</speed>
</trkpt>
<trkpt lat="42.442848" lon="18.634546">
<ele>3.713045</ele>
<time>2012-05-02T15:25:49Z</time>
<desc>lat.=42.442848, lon.=18.634546, Alt.=3.713045m. Speed=0.036000m/h.</desc>
<speed>0.010000</speed>
</trkpt>
<trkpt lat="42.442848" lon="18.634546">
<ele>3.710787</ele>
<time>2012-05-02T15:25:54Z</time>
<desc>lat.=42.442848, lon.=18.634546, Alt.=3.710787m. Speed=0.000000m/h.</desc>
<speed>0.000000</speed>
</trkpt>
<trkpt lat="42.442848" lon="18.634546">
<ele>3.698153</ele>
<time>2012-05-02T15:25:59Z</time>
<desc>lat.=42.442848, lon.=18.634546, Alt.=3.698153m. Speed=0.000000m/h.</desc>
<speed>0.000000</speed>
</trkpt>
<trkpt lat="42.442848" lon="18.634546">
<ele>3.698336</ele>
<time>2012-05-02T15:26:04Z</time>
<desc>lat.=42.442848, lon.=18.634546, Alt.=3.698336m. Speed=0.000000m/h.</desc>
<speed>0.000000</speed>
</trkpt>
<trkpt lat="42.442848" lon="18.634546">
<ele>3.703707</ele>
<time>2012-05-02T15:26:09Z</time>
<desc>lat.=42.442848, lon.=18.634546, Alt.=3.703707m. Speed=0.000000m/h.</desc>
<speed>0.000000</speed>
</trkpt>
<trkpt lat="42.442848" lon="18.634546">
<ele>3.707857</ele>
<time>2012-05-02T15:26:14Z</time>
<desc>lat.=42.442848, lon.=18.634546, Alt.=3.707857m. Speed=0.036000m/h.</desc>
<speed>0.010000</speed>
</trkpt>
<trkpt lat="42.442848" lon="18.634546">
<ele>3.702364</ele>
<time>2012-05-02T15:26:19Z</time>
<desc>lat.=42.442848, lon.=18.634546, Alt.=3.702364m. Speed=0.000000m/h.</desc>
<speed>0.000000</speed>
</trkpt>
<trkpt lat="42.442848" lon="18.634546">
<ele>3.707369</ele>
<time>2012-05-02T15:26:24Z</time>
<desc>lat.=42.442848, lon.=18.634546, Alt.=3.707369m. Speed=0.000000m/h.</desc>
<speed>0.000000</speed>
</trkpt>
<trkpt lat="42.442848" lon="18.634546">
<ele>3.709505</ele>
<time>2012-05-02T15:26:29Z</time>
<desc>lat.=42.442848, lon.=18.634546, Alt.=3.709505m. Speed=0.000000m/h.</desc>
<speed>0.000000</speed>
</trkpt>
<trkpt lat="42.442848" lon="18.634546">
<ele>3.705782</ele>
<time>2012-05-02T15:26:34Z</time>
<desc>lat.=42.442848, lon.=18.634546, Alt.=3.705782m. Speed=0.000000m/h.</desc>
<speed>0.000000</speed>
</trkpt>
<trkpt lat="42.442848" lon="18.634548">
<ele>3.688509</ele>
<time>2012-05-02T15:26:39Z</time>
<desc>lat.=42.442848, lon.=18.634548, Alt.=3.688509m. Speed=0.036000m/h.</desc>
<speed>0.010000</speed>
</trkpt>
<trkpt lat="42.442848" lon="18.634548">
<ele>3.681002</ele>
<time>2012-05-02T15:26:44Z</time>
<desc>lat.=42.442848, lon.=18.634548, Alt.=3.681002m. Speed=0.036000m/h.</desc>
<speed>0.010000</speed>
</trkpt>
<trkpt lat="42.442848" lon="18.634548">
<ele>3.668062</ele>
<time>2012-05-02T15:26:49Z</time>
<desc>lat.=42.442848, lon.=18.634548, Alt.=3.668062m. Speed=0.036000m/h.</desc>
<speed>0.010000</speed>
</trkpt>
<trkpt lat="42.442848" lon="18.634548">
<ele>3.623384</ele>
<time>2012-05-02T15:26:54Z</time>
<desc>lat.=42.442848, lon.=18.634548, Alt.=3.623384m. Speed=0.000000m/h.</desc>
<speed>0.000000</speed>
</trkpt>
<trkpt lat="42.442848" lon="18.634548">
<ele>3.606112</ele>
<time>2012-05-02T15:26:59Z</time>
<desc>lat.=42.442848, lon.=18.634548, Alt.=3.606112m. Speed=0.000000m/h.</desc>
<speed>0.000000</speed>
</trkpt>
<trkpt lat="42.442848" lon="18.634548">
<ele>3.593538</ele>
<time>2012-05-02T15:27:04Z</time>
<desc>lat.=42.442848, lon.=18.634548, Alt.=3.593538m. Speed=0.036000m/h.</desc>
<speed>0.010000</speed>
</trkpt>
<trkpt lat="42.442848" lon="18.634548">
<ele>3.566927</ele>
<time>2012-05-02T15:27:09Z</time>
<desc>lat.=42.442848, lon.=18.634548, Alt.=3.566927m. Speed=0.036000m/h.</desc>
<speed>0.010000</speed>
</trkpt>
<trkpt lat="42.442848" lon="18.634548">
<ele>3.537569</ele>
<time>2012-05-02T15:27:14Z</time>
<desc>lat.=42.442848, lon.=18.634548, Alt.=3.537569m. Speed=0.000000m/h.</desc>
<speed>0.000000</speed>
</trkpt>
<trkpt lat="42.442848" lon="18.634548">
<ele>3.491976</ele>
<time>2012-05-02T15:27:19Z</time>
<desc>lat.=42.442848, lon.=18.634548, Alt.=3.491976m. Speed=0.000000m/h.</desc>
<speed>0.000000</speed>
</trkpt>
<trkpt lat="42.442848" lon="18.634548">
<ele>3.452913</ele>
<time>2012-05-02T15:27:24Z</time>
<desc>lat.=42.442848, lon.=18.634548, Alt.=3.452913m. Speed=0.000000m/h.</desc>
<speed>0.000000</speed>
</trkpt>
<trkpt lat="42.442848" lon="18.634548">
<ele>3.425264</ele>
<time>2012-05-02T15:27:29Z</time>
<desc>lat.=42.442848, lon.=18.634548, Alt.=3.425264m. Speed=0.000000m/h.</desc>
<speed>0.000000</speed>
</trkpt>
<trkpt lat="42.442848" lon="18.634548">
<ele>3.406466</ele>
<time>2012-05-02T15:27:34Z</time>
<desc>lat.=42.442848, lon.=18.634548, Alt.=3.406466m. Speed=0.072000m/h.</desc>
<speed>0.020000</speed>
</trkpt>
<trkpt lat="42.442844" lon="18.634548">
<ele>3.388216</ele>
<time>2012-05-02T15:27:39Z</time>
<desc>lat.=42.442844, lon.=18.634548, Alt.=3.388216m. Speed=0.036000m/h.</desc>
<speed>0.010000</speed>
</trkpt>
<trkpt lat="42.442844" lon="18.634550">
<ele>3.376925</ele>
<time>2012-05-02T15:27:44Z</time>
<desc>lat.=42.442844, lon.=18.634550, Alt.=3.376925m. Speed=0.108000m/h.</desc>
<speed>0.030000</speed>
</trkpt>
<trkpt lat="42.442844" lon="18.634550">
<ele>3.384798</ele>
<time>2012-05-02T15:27:49Z</time>
<desc>lat.=42.442844, lon.=18.634550, Alt.=3.384798m. Speed=0.036000m/h.</desc>
<speed>0.010000</speed>
</trkpt>
<trkpt lat="42.442844" lon="18.634550">
<ele>3.364779</ele>
<time>2012-05-02T15:27:54Z</time>
<desc>lat.=42.442844, lon.=18.634550, Alt.=3.364779m. Speed=0.036000m/h.</desc>
<speed>0.010000</speed>
</trkpt>
<trkpt lat="42.442844" lon="18.634550">
<ele>3.329256</ele>
<time>2012-05-02T15:27:59Z</time>
<desc>lat.=42.442844, lon.=18.634550, Alt.=3.329256m. Speed=0.000000m/h.</desc>
<speed>0.000000</speed>
</trkpt>
<trkpt lat="42.442848" lon="18.634550">
<ele>3.295748</ele>
<time>2012-05-02T15:28:04Z</time>
<desc>lat.=42.442848, lon.=18.634550, Alt.=3.295748m. Speed=0.036000m/h.</desc>
<speed>0.010000</speed>
</trkpt>
<trkpt lat="42.442848" lon="18.634550">
<ele>3.272310</ele>
<time>2012-05-02T15:28:09Z</time>
<desc>lat.=42.442848, lon.=18.634550, Alt.=3.272310m. Speed=0.000000m/h.</desc>
<speed>0.000000</speed>
</trkpt>
<trkpt lat="42.442848" lon="18.634550">
<ele>3.243502</ele>
<time>2012-05-02T15:28:14Z</time>
<desc>lat.=42.442848, lon.=18.634550, Alt.=3.243502m. Speed=0.000000m/h.</desc>
<speed>0.000000</speed>
</trkpt>
<trkpt lat="42.442848" lon="18.634550">
<ele>3.215670</ele>
<time>2012-05-02T15:28:19Z</time>
<desc>lat.=42.442848, lon.=18.634550, Alt.=3.215670m. Speed=0.000000m/h.</desc>
<speed>0.000000</speed>
</trkpt>
<trkpt lat="42.442848" lon="18.634550">
<ele>3.192171</ele>
<time>2012-05-02T15:28:24Z</time>
<desc>lat.=42.442848, lon.=18.634550, Alt.=3.192171m. Speed=0.036000m/h.</desc>
<speed>0.010000</speed>
</trkpt>
<trkpt lat="42.442848" lon="18.634550">
<ele>3.179415</ele>
<time>2012-05-02T15:28:29Z</time>
<desc>lat.=42.442848, lon.=18.634550, Alt.=3.179415m. Speed=0.108000m/h.</desc>
<speed>0.030000</speed>
</trkpt>
<trkpt lat="42.442848" lon="18.634550">
<ele>3.174593</ele>
<time>2012-05-02T15:28:34Z</time>
<desc>lat.=42.442848, lon.=18.634550, Alt.=3.174593m. Speed=0.000000m/h.</desc>
<speed>0.000000</speed>
</trkpt>
<trkpt lat="42.442848" lon="18.634550">
<ele>3.171053</ele>
<time>2012-05-02T15:28:39Z</time>
<desc>lat.=42.442848, lon.=18.634550, Alt.=3.171053m. Speed=0.036000m/h.</desc>
<speed>0.010000</speed>
</trkpt>
<trkpt lat="42.442848" lon="18.634550">
<ele>3.172213</ele>
<time>2012-05-02T15:28:44Z</time>
<desc>lat.=42.442848, lon.=18.634550, Alt.=3.172213m. Speed=0.108000m/h.</desc>
<speed>0.030000</speed>
</trkpt>
<trkpt lat="42.442848" lon="18.634548">
<ele>3.173738</ele>
<time>2012-05-02T15:28:49Z</time>
<desc>lat.=42.442848, lon.=18.634548, Alt.=3.173738m. Speed=0.036000m/h.</desc>
<speed>0.010000</speed>
</trkpt>
<trkpt lat="42.442848" lon="18.634548">
<ele>3.175753</ele>
<time>2012-05-02T15:28:54Z</time>
<desc>lat.=42.442848, lon.=18.634548, Alt.=3.175753m. Speed=0.000000m/h.</desc>
<speed>0.000000</speed>
</trkpt>
<trkpt lat="42.442848" lon="18.634548">
<ele>3.170626</ele>
<time>2012-05-02T15:28:59Z</time>
<desc>lat.=42.442848, lon.=18.634548, Alt.=3.170626m. Speed=0.072000m/h.</desc>
<speed>0.020000</speed>
</trkpt>
<trkpt lat="42.442844" lon="18.634548">
<ele>3.166170</ele>
<time>2012-05-02T15:29:04Z</time>
<desc>lat.=42.442844, lon.=18.634548, Alt.=3.166170m. Speed=0.036000m/h.</desc>
<speed>0.010000</speed>
</trkpt>
<trkpt lat="42.442844" lon="18.634548">
<ele>3.158113</ele>
<time>2012-05-02T15:29:09Z</time>
<desc>lat.=42.442844, lon.=18.634548, Alt.=3.158113m. Speed=0.000000m/h.</desc>
<speed>0.000000</speed>
</trkpt>
<trkpt lat="42.442844" lon="18.634548">
<ele>3.154879</ele>
<time>2012-05-02T15:29:14Z</time>
<desc>lat.=42.442844, lon.=18.634548, Alt.=3.154879m. Speed=0.036000m/h.</desc>
<speed>0.010000</speed>
</trkpt>
<trkpt lat="42.442844" lon="18.634548">
<ele>3.155489</ele>
<time>2012-05-02T15:29:19Z</time>
<desc>lat.=42.442844, lon.=18.634548, Alt.=3.155489m. Speed=0.000000m/h.</desc>
<speed>0.000000</speed>
</trkpt>
<trkpt lat="42.442844" lon="18.634548">
<ele>3.159273</ele>
<time>2012-05-02T15:29:24Z</time>
<desc>lat.=42.442844, lon.=18.634548, Alt.=3.159273m. Speed=0.000000m/h.</desc>
<speed>0.000000</speed>
</trkpt>
<trkpt lat="42.442844" lon="18.634548">
<ele>3.162386</ele>
<time>2012-05-02T15:29:29Z</time>
<desc>lat.=42.442844, lon.=18.634548, Alt.=3.162386m. Speed=0.000000m/h.</desc>
<speed>0.000000</speed>
</trkpt>
<trkpt lat="42.442844" lon="18.634548">
<ele>3.163546</ele>
<time>2012-05-02T15:29:34Z</time>
<desc>lat.=42.442844, lon.=18.634548, Alt.=3.163546m. Speed=0.036000m/h.</desc>
<speed>0.010000</speed>
</trkpt>
<trkpt lat="42.442844" lon="18.634548">
<ele>3.156832</ele>
<time>2012-05-02T15:29:39Z</time>
<desc>lat.=42.442844, lon.=18.634548, Alt.=3.156832m. Speed=0.072000m/h.</desc>
<speed>0.020000</speed>
</trkpt>
<trkpt lat="42.442844" lon="18.634548">
<ele>3.150545</ele>
<time>2012-05-02T15:29:44Z</time>
<desc>lat.=42.442844, lon.=18.634548, Alt.=3.150545m. Speed=0.108000m/h.</desc>
<speed>0.030000</speed>
</trkpt>
<trkpt lat="42.442844" lon="18.634548">
<ele>3.151766</ele>
<time>2012-05-02T15:29:49Z</time>
<desc>lat.=42.442844, lon.=18.634548, Alt.=3.151766m. Speed=0.000000m/h.</desc>
<speed>0.000000</speed>
</trkpt>
<trkpt lat="42.442844" lon="18.634548">
<ele>3.157442</ele>
<time>2012-05-02T15:29:54Z</time>
<desc>lat.=42.442844, lon.=18.634548, Alt.=3.157442m. Speed=0.000000m/h.</desc>
<speed>0.000000</speed>
</trkpt>
<trkpt lat="42.442844" lon="18.634546">
<ele>3.164705</ele>
<time>2012-05-02T15:29:59Z</time>
<desc>lat.=42.442844, lon.=18.634546, Alt.=3.164705m. Speed=0.036000m/h.</desc>
<speed>0.010000</speed>
</trkpt>
<trkpt lat="42.442844" lon="18.634546">
<ele>3.182894</ele>
<time>2012-05-02T15:30:04Z</time>
<desc>lat.=42.442844, lon.=18.634546, Alt.=3.182894m. Speed=0.000000m/h.</desc>
<speed>0.000000</speed>
</trkpt>
<trkpt lat="42.442844" lon="18.634546">
<ele>3.198519</ele>
<time>2012-05-02T15:30:09Z</time>
<desc>lat.=42.442844, lon.=18.634546, Alt.=3.198519m. Speed=0.036000m/h.</desc>
<speed>0.010000</speed>
</trkpt>
<trkpt lat="42.442844" lon="18.634546">
<ele>3.236666</ele>
<time>2012-05-02T15:30:14Z</time>
<desc>lat.=42.442844, lon.=18.634546, Alt.=3.236666m. Speed=0.072000m/h.</desc>
<speed>0.020000</speed>
</trkpt>
<trkpt lat="42.442844" lon="18.634546">
<ele>3.266695</ele>
<time>2012-05-02T15:30:19Z</time>
<desc>lat.=42.442844, lon.=18.634546, Alt.=3.266695m. Speed=0.036000m/h.</desc>
<speed>0.010000</speed>
</trkpt>
<trkpt lat="42.442848" lon="18.634546">
<ele>3.302217</ele>
<time>2012-05-02T15:30:24Z</time>
<desc>lat.=42.442848, lon.=18.634546, Alt.=3.302217m. Speed=0.072000m/h.</desc>
<speed>0.020000</speed>
</trkpt>
<trkpt lat="42.442848" lon="18.634546">
<ele>3.314486</ele>
<time>2012-05-02T15:30:29Z</time>
<desc>lat.=42.442848, lon.=18.634546, Alt.=3.314486m. Speed=0.036000m/h.</desc>
<speed>0.010000</speed>
</trkpt>
<trkpt lat="42.442848" lon="18.634544">
<ele>3.330233</ele>
<time>2012-05-02T15:30:34Z</time>
<desc>lat.=42.442848, lon.=18.634544, Alt.=3.330233m. Speed=0.000000m/h.</desc>
<speed>0.000000</speed>
</trkpt>
<trkpt lat="42.442848" lon="18.634544">
<ele>3.339388</ele>
<time>2012-05-02T15:30:39Z</time>
<desc>lat.=42.442848, lon.=18.634544, Alt.=3.339388m. Speed=0.036000m/h.</desc>
<speed>0.010000</speed>
</trkpt>
<trkpt lat="42.442848" lon="18.634544">
<ele>3.357759</ele>
<time>2012-05-02T15:30:44Z</time>
<desc>lat.=42.442848, lon.=18.634544, Alt.=3.357759m. Speed=0.036000m/h.</desc>
<speed>0.010000</speed>
</trkpt>
<trkpt lat="42.442848" lon="18.634544">
<ele>3.390413</ele>
<time>2012-05-02T15:30:49Z</time>
<desc>lat.=42.442848, lon.=18.634544, Alt.=3.390413m. Speed=0.000000m/h.</desc>
<speed>0.000000</speed>
</trkpt>
<trkpt lat="42.442848" lon="18.634544">
<ele>3.405184</ele>
<time>2012-05-02T15:30:54Z</time>
<desc>lat.=42.442848, lon.=18.634544, Alt.=3.405184m. Speed=0.036000m/h.</desc>
<speed>0.010000</speed>
</trkpt>
<trkpt lat="42.442848" lon="18.634544">
<ele>3.441622</ele>
<time>2012-05-02T15:30:59Z</time>
<desc>lat.=42.442848, lon.=18.634544, Alt.=3.441622m. Speed=0.072000m/h.</desc>
<speed>0.020000</speed>
</trkpt>
<trkpt lat="42.442848" lon="18.634544">
<ele>3.474703</ele>
<time>2012-05-02T15:31:04Z</time>
<desc>lat.=42.442848, lon.=18.634544, Alt.=3.474703m. Speed=0.000000m/h.</desc>
<speed>0.000000</speed>
</trkpt>
<trkpt lat="42.442848" lon="18.634544">
<ele>3.499544</ele>
<time>2012-05-02T15:31:09Z</time>
<desc>lat.=42.442848, lon.=18.634544, Alt.=3.499544m. Speed=0.000000m/h.</desc>
<speed>0.000000</speed>
</trkpt>
<trkpt lat="42.442848" lon="18.634542">
<ele>3.527681</ele>
<time>2012-05-02T15:31:14Z</time>
<desc>lat.=42.442848, lon.=18.634542, Alt.=3.527681m. Speed=0.036000m/h.</desc>
<speed>0.010000</speed>
</trkpt>
<trkpt lat="42.442848" lon="18.634542">
<ele>3.542879</ele>
<time>2012-05-02T15:31:19Z</time>
<desc>lat.=42.442848, lon.=18.634542, Alt.=3.542879m. Speed=0.036000m/h.</desc>
<speed>0.010000</speed>
</trkpt>
<trkpt lat="42.442848" lon="18.634542">
<ele>3.559114</ele>
<time>2012-05-02T15:31:24Z</time>
<desc>lat.=42.442848, lon.=18.634542, Alt.=3.559114m. Speed=0.000000m/h.</desc>
<speed>0.000000</speed>
</trkpt>
<trkpt lat="42.442848" lon="18.634542">
<ele>3.573153</ele>
<time>2012-05-02T15:31:29Z</time>
<desc>lat.=42.442848, lon.=18.634542, Alt.=3.573153m. Speed=0.036000m/h.</desc>
<speed>0.010000</speed>
</trkpt>
<trkpt lat="42.442848" lon="18.634542">
<ele>3.584688</ele>
<time>2012-05-02T15:31:34Z</time>
<desc>lat.=42.442848, lon.=18.634542, Alt.=3.584688m. Speed=0.000000m/h.</desc>
<speed>0.000000</speed>
</trkpt>
<trkpt lat="42.442848" lon="18.634542">
<ele>3.601229</ele>
<time>2012-05-02T15:31:39Z</time>
<desc>lat.=42.442848, lon.=18.634542, Alt.=3.601229m. Speed=0.000000m/h.</desc>
<speed>0.000000</speed>
</trkpt>
<trkpt lat="42.442848" lon="18.634541">
<ele>3.611238</ele>
<time>2012-05-02T15:31:44Z</time>
<desc>lat.=42.442848, lon.=18.634541, Alt.=3.611238m. Speed=0.036000m/h.</desc>
<speed>0.010000</speed>
</trkpt>
<trkpt lat="42.442848" lon="18.634541">
<ele>3.630098</ele>
<time>2012-05-02T15:31:49Z</time>
<desc>lat.=42.442848, lon.=18.634541, Alt.=3.630098m. Speed=0.000000m/h.</desc>
<speed>0.000000</speed>
</trkpt>
<trkpt lat="42.442848" lon="18.634541">
<ele>3.655428</ele>
<time>2012-05-02T15:31:54Z</time>
<desc>lat.=42.442848, lon.=18.634541, Alt.=3.655428m. Speed=0.000000m/h.</desc>
<speed>0.000000</speed>
</trkpt>
<trkpt lat="42.442848" lon="18.634541">
<ele>3.671480</ele>
<time>2012-05-02T15:31:59Z</time>
<desc>lat.=42.442848, lon.=18.634541, Alt.=3.671480m. Speed=0.000000m/h.</desc>
<speed>0.000000</speed>
</trkpt>
<trkpt lat="42.442848" lon="18.634541">
<ele>3.676912</ele>
<time>2012-05-02T15:32:04Z</time>
<desc>lat.=42.442848, lon.=18.634541, Alt.=3.676912m. Speed=0.036000m/h.</desc>
<speed>0.010000</speed>
</trkpt>
<trkpt lat="42.442848" lon="18.634541">
<ele>3.703402</ele>
<time>2012-05-02T15:32:09Z</time>
<desc>lat.=42.442848, lon.=18.634541, Alt.=3.703402m. Speed=0.072000m/h.</desc>
<speed>0.020000</speed>
</trkpt>
<trkpt lat="42.442848" lon="18.634539">
<ele>3.723482</ele>
<time>2012-05-02T15:32:14Z</time>
<desc>lat.=42.442848, lon.=18.634539, Alt.=3.723482m. Speed=0.036000m/h.</desc>
<speed>0.010000</speed>
</trkpt>
<trkpt lat="42.442848" lon="18.634539">
<ele>3.737825</ele>
<time>2012-05-02T15:32:19Z</time>
<desc>lat.=42.442848, lon.=18.634539, Alt.=3.737825m. Speed=0.000000m/h.</desc>
<speed>0.000000</speed>
</trkpt>
<trkpt lat="42.442848" lon="18.634539">
<ele>3.759798</ele>
<time>2012-05-02T15:32:24Z</time>
<desc>lat.=42.442848, lon.=18.634539, Alt.=3.759798m. Speed=0.000000m/h.</desc>
<speed>0.000000</speed>
</trkpt>
<trkpt lat="42.442848" lon="18.634539">
<ele>3.771639</ele>
<time>2012-05-02T15:32:29Z</time>
<desc>lat.=42.442848, lon.=18.634539, Alt.=3.771639m. Speed=0.000000m/h.</desc>
<speed>0.000000</speed>
</trkpt>
<trkpt lat="42.442848" lon="18.634539">
<ele>3.776461</ele>
<time>2012-05-02T15:32:34Z</time>
<desc>lat.=42.442848, lon.=18.634539, Alt.=3.776461m. Speed=0.000000m/h.</desc>
<speed>0.000000</speed>
</trkpt>
<trkpt lat="42.442848" lon="18.634537">
<ele>3.792452</ele>
<time>2012-05-02T15:32:39Z</time>
<desc>lat.=42.442848, lon.=18.634537, Alt.=3.792452m. Speed=0.000000m/h.</desc>
<speed>0.000000</speed>
</trkpt>
<trkpt lat="42.442848" lon="18.634537">
<ele>3.798922</ele>
<time>2012-05-02T15:32:44Z</time>
<desc>lat.=42.442848, lon.=18.634537, Alt.=3.798922m. Speed=0.000000m/h.</desc>
<speed>0.000000</speed>
</trkpt>
<trkpt lat="42.442848" lon="18.634537">
<ele>3.813143</ele>
<time>2012-05-02T15:32:49Z</time>
<desc>lat.=42.442848, lon.=18.634537, Alt.=3.813143m. Speed=0.036000m/h.</desc>
<speed>0.010000</speed>
</trkpt>
<trkpt lat="42.442848" lon="18.634537">
<ele>3.827974</ele>
<time>2012-05-02T15:32:54Z</time>
<desc>lat.=42.442848, lon.=18.634537, Alt.=3.827974m. Speed=0.000000m/h.</desc>
<speed>0.000000</speed>
</trkpt>
<trkpt lat="42.442848" lon="18.634537">
<ele>3.841463</ele>
<time>2012-05-02T15:32:59Z</time>
<desc>lat.=42.442848, lon.=18.634537, Alt.=3.841463m. Speed=0.036000m/h.</desc>
<speed>0.010000</speed>
</trkpt>
<trkpt lat="42.442848" lon="18.634537">
<ele>3.856173</ele>
<time>2012-05-02T15:33:04Z</time>
<desc>lat.=42.442848, lon.=18.634537, Alt.=3.856173m. Speed=0.000000m/h.</desc>
<speed>0.000000</speed>
</trkpt>
<trkpt lat="42.442848" lon="18.634535">
<ele>3.867464</ele>
<time>2012-05-02T15:33:09Z</time>
<desc>lat.=42.442848, lon.=18.634535, Alt.=3.867464m. Speed=0.000000m/h.</desc>
<speed>0.000000</speed>
</trkpt>
<trkpt lat="42.442848" lon="18.634535">
<ele>3.871675</ele>
<time>2012-05-02T15:33:14Z</time>
<desc>lat.=42.442848, lon.=18.634535, Alt.=3.871675m. Speed=0.036000m/h.</desc>
<speed>0.010000</speed>
</trkpt>
<trkpt lat="42.442848" lon="18.634535">
<ele>3.878267</ele>
<time>2012-05-02T15:33:19Z</time>
<desc>lat.=42.442848, lon.=18.634535, Alt.=3.878267m. Speed=0.072000m/h.</desc>
<speed>0.020000</speed>
</trkpt>
<trkpt lat="42.442848" lon="18.634535">
<ele>3.877779</ele>
<time>2012-05-02T15:33:24Z</time>
<desc>lat.=42.442848, lon.=18.634535, Alt.=3.877779m. Speed=0.000000m/h.</desc>
<speed>0.000000</speed>
</trkpt>
<trkpt lat="42.442848" lon="18.634535">
<ele>3.881624</ele>
<time>2012-05-02T15:33:29Z</time>
<desc>lat.=42.442848, lon.=18.634535, Alt.=3.881624m. Speed=0.072000m/h.</desc>
<speed>0.020000</speed>
</trkpt>
<trkpt lat="42.442848" lon="18.634535">
<ele>3.900057</ele>
<time>2012-05-02T15:33:34Z</time>
<desc>lat.=42.442848, lon.=18.634535, Alt.=3.900057m. Speed=0.036000m/h.</desc>
<speed>0.010000</speed>
</trkpt>
<trkpt lat="42.442848" lon="18.634535">
<ele>3.915865</ele>
<time>2012-05-02T15:33:39Z</time>
<desc>lat.=42.442848, lon.=18.634535, Alt.=3.915865m. Speed=0.000000m/h.</desc>
<speed>0.000000</speed>
</trkpt>
<trkpt lat="42.442848" lon="18.634535">
<ele>3.934481</ele>
<time>2012-05-02T15:33:44Z</time>
<desc>lat.=42.442848, lon.=18.634535, Alt.=3.934481m. Speed=0.000000m/h.</desc>
<speed>0.000000</speed>
</trkpt>
<trkpt lat="42.442848" lon="18.634535">
<ele>3.949190</ele>
<time>2012-05-02T15:33:49Z</time>
<desc>lat.=42.442848, lon.=18.634535, Alt.=3.949190m. Speed=0.000000m/h.</desc>
<speed>0.000000</speed>
</trkpt>
<trkpt lat="42.442848" lon="18.634535">
<ele>3.962740</ele>
<time>2012-05-02T15:33:54Z</time>
<desc>lat.=42.442848, lon.=18.634535, Alt.=3.962740m. Speed=0.000000m/h.</desc>
<speed>0.000000</speed>
</trkpt>
<trkpt lat="42.442848" lon="18.634533">
<ele>3.975252</ele>
<time>2012-05-02T15:33:59Z</time>
<desc>lat.=42.442848, lon.=18.634533, Alt.=3.975252m. Speed=0.000000m/h.</desc>
<speed>0.000000</speed>
</trkpt>
<trkpt lat="42.442848" lon="18.634533">
<ele>4.001774</ele>
<time>2012-05-02T15:34:04Z</time>
<desc>lat.=42.442848, lon.=18.634533, Alt.=4.001774m. Speed=0.072000m/h.</desc>
<speed>0.020000</speed>
</trkpt>
<trkpt lat="42.442848" lon="18.634533">
<ele>4.020939</ele>
<time>2012-05-02T15:34:09Z</time>
<desc>lat.=42.442848, lon.=18.634533, Alt.=4.020939m. Speed=0.000000m/h.</desc>
<speed>0.000000</speed>
</trkpt>
<trkpt lat="42.442848" lon="18.634533">
<ele>4.045841</ele>
<time>2012-05-02T15:34:14Z</time>
<desc>lat.=42.442848, lon.=18.634533, Alt.=4.045841m. Speed=0.036000m/h.</desc>
<speed>0.010000</speed>
</trkpt>
<trkpt lat="42.442848" lon="18.634533">
<ele>4.069645</ele>
<time>2012-05-02T15:34:19Z</time>
<desc>lat.=42.442848, lon.=18.634533, Alt.=4.069645m. Speed=0.072000m/h.</desc>
<speed>0.020000</speed>
</trkpt>
<trkpt lat="42.442848" lon="18.634533">
<ele>4.094181</ele>
<time>2012-05-02T15:34:24Z</time>
<desc>lat.=42.442848, lon.=18.634533, Alt.=4.094181m. Speed=0.000000m/h.</desc>
<speed>0.000000</speed>
</trkpt>
<trkpt lat="42.442844" lon="18.634531">
<ele>4.121159</ele>
<time>2012-05-02T15:34:29Z</time>
<desc>lat.=42.442844, lon.=18.634531, Alt.=4.121159m. Speed=0.000000m/h.</desc>
<speed>0.000000</speed>
</trkpt>
<trkpt lat="42.442844" lon="18.634531">
<ele>4.141788</ele>
<time>2012-05-02T15:34:34Z</time>
<desc>lat.=42.442844, lon.=18.634531, Alt.=4.141788m. Speed=0.036000m/h.</desc>
<speed>0.010000</speed>
</trkpt>
<trkpt lat="42.442844" lon="18.634531">
<ele>4.165592</ele>
<time>2012-05-02T15:34:39Z</time>
<desc>lat.=42.442844, lon.=18.634531, Alt.=4.165592m. Speed=0.036000m/h.</desc>
<speed>0.010000</speed>
</trkpt>
<trkpt lat="42.442844" lon="18.634531">
<ele>4.189030</ele>
<time>2012-05-02T15:34:44Z</time>
<desc>lat.=42.442844, lon.=18.634531, Alt.=4.189030m. Speed=0.036000m/h.</desc>
<speed>0.010000</speed>
</trkpt>
<trkpt lat="42.442844" lon="18.634531">
<ele>4.214664</ele>
<time>2012-05-02T15:34:49Z</time>
<desc>lat.=42.442844, lon.=18.634531, Alt.=4.214664m. Speed=0.000000m/h.</desc>
<speed>0.000000</speed>
</trkpt>
<trkpt lat="42.442844" lon="18.634531">
<ele>4.230045</ele>
<time>2012-05-02T15:34:54Z</time>
<desc>lat.=42.442844, lon.=18.634531, Alt.=4.230045m. Speed=0.036000m/h.</desc>
<speed>0.010000</speed>
</trkpt>
<trkpt lat="42.442844" lon="18.634531">
<ele>4.228336</ele>
<time>2012-05-02T15:34:59Z</time>
<desc>lat.=42.442844, lon.=18.634531, Alt.=4.228336m. Speed=0.072000m/h.</desc>
<speed>0.020000</speed>
</trkpt>
<trkpt lat="42.442844" lon="18.634531">
<ele>4.228703</ele>
<time>2012-05-02T15:35:04Z</time>
<desc>lat.=42.442844, lon.=18.634531, Alt.=4.228703m. Speed=0.036000m/h.</desc>
<speed>0.010000</speed>
</trkpt>
<trkpt lat="42.442844" lon="18.634531">
<ele>4.232975</ele>
<time>2012-05-02T15:35:09Z</time>
<desc>lat.=42.442844, lon.=18.634531, Alt.=4.232975m. Speed=0.144000m/h.</desc>
<speed>0.040000</speed>
</trkpt>
<trkpt lat="42.442844" lon="18.634531">
<ele>4.233097</ele>
<time>2012-05-02T15:35:14Z</time>
<desc>lat.=42.442844, lon.=18.634531, Alt.=4.233097m. Speed=0.036000m/h.</desc>
<speed>0.010000</speed>
</trkpt>
<trkpt lat="42.442848" lon="18.634531">
<ele>4.225285</ele>
<time>2012-05-02T15:35:19Z</time>
<desc>lat.=42.442848, lon.=18.634531, Alt.=4.225285m. Speed=0.072000m/h.</desc>
<speed>0.020000</speed>
</trkpt>
<trkpt lat="42.442848" lon="18.634531">
<ele>4.235416</ele>
<time>2012-05-02T15:35:24Z</time>
<desc>lat.=42.442848, lon.=18.634531, Alt.=4.235416m. Speed=0.036000m/h.</desc>
<speed>0.010000</speed>
</trkpt>
<trkpt lat="42.442848" lon="18.634531">
<ele>4.234562</ele>
<time>2012-05-02T15:35:29Z</time>
<desc>lat.=42.442848, lon.=18.634531, Alt.=4.234562m. Speed=0.000000m/h.</desc>
<speed>0.000000</speed>
</trkpt>
<trkpt lat="42.442848" lon="18.634531">
<ele>4.234562</ele>
<time>2012-05-02T15:35:34Z</time>
<desc>lat.=42.442848, lon.=18.634531, Alt.=4.234562m. Speed=0.072000m/h.</desc>
<speed>0.020000</speed>
</trkpt>
<trkpt lat="42.442848" lon="18.634531">
<ele>4.235538</ele>
<time>2012-05-02T15:35:39Z</time>
<desc>lat.=42.442848, lon.=18.634531, Alt.=4.235538m. Speed=0.000000m/h.</desc>
<speed>0.000000</speed>
</trkpt>
<trkpt lat="42.442848" lon="18.634533">
<ele>4.235416</ele>
<time>2012-05-02T15:35:44Z</time>
<desc>lat.=42.442848, lon.=18.634533, Alt.=4.235416m. Speed=0.000000m/h.</desc>
<speed>0.000000</speed>
</trkpt>
<trkpt lat="42.442848" lon="18.634533">
<ele>4.235050</ele>
<time>2012-05-02T15:35:49Z</time>
<desc>lat.=42.442848, lon.=18.634533, Alt.=4.235050m. Speed=0.072000m/h.</desc>
<speed>0.020000</speed>
</trkpt>
<trkpt lat="42.442848" lon="18.634533">
<ele>4.236637</ele>
<time>2012-05-02T15:35:54Z</time>
<desc>lat.=42.442848, lon.=18.634533, Alt.=4.236637m. Speed=0.036000m/h.</desc>
<speed>0.010000</speed>
</trkpt>
<trkpt lat="42.442848" lon="18.634533">
<ele>4.237125</ele>
<time>2012-05-02T15:35:59Z</time>
<desc>lat.=42.442848, lon.=18.634533, Alt.=4.237125m. Speed=0.000000m/h.</desc>
<speed>0.000000</speed>
</trkpt>
<trkpt lat="42.442848" lon="18.634533">
<ele>4.238834</ele>
<time>2012-05-02T15:36:04Z</time>
<desc>lat.=42.442848, lon.=18.634533, Alt.=4.238834m. Speed=0.000000m/h.</desc>
<speed>0.000000</speed>
</trkpt>
<trkpt lat="42.442848" lon="18.634533">
<ele>4.238834</ele>
<time>2012-05-02T15:36:09Z</time>
<desc>lat.=42.442848, lon.=18.634533, Alt.=4.238834m. Speed=0.000000m/h.</desc>
<speed>0.000000</speed>
</trkpt>
<trkpt lat="42.442848" lon="18.634533">
<ele>4.238956</ele>
<time>2012-05-02T15:36:14Z</time>
<desc>lat.=42.442848, lon.=18.634533, Alt.=4.238956m. Speed=0.000000m/h.</desc>
<speed>0.000000</speed>
</trkpt>
<trkpt lat="42.442844" lon="18.634533">
<ele>4.240055</ele>
<time>2012-05-02T15:36:19Z</time>
<desc>lat.=42.442844, lon.=18.634533, Alt.=4.240055m. Speed=0.000000m/h.</desc>
<speed>0.000000</speed>
</trkpt>
<trkpt lat="42.442844" lon="18.634533">
<ele>4.240543</ele>
<time>2012-05-02T15:36:24Z</time>
<desc>lat.=42.442844, lon.=18.634533, Alt.=4.240543m. Speed=0.000000m/h.</desc>
<speed>0.000000</speed>
</trkpt>
<trkpt lat="42.442844" lon="18.634533">
<ele>4.240788</ele>
<time>2012-05-02T15:36:29Z</time>
<desc>lat.=42.442844, lon.=18.634533, Alt.=4.240788m. Speed=0.000000m/h.</desc>
<speed>0.000000</speed>
</trkpt>
<trkpt lat="42.442844" lon="18.634533">
<ele>4.241032</ele>
<time>2012-05-02T15:36:34Z</time>
<desc>lat.=42.442844, lon.=18.634533, Alt.=4.241032m. Speed=0.000000m/h.</desc>
<speed>0.000000</speed>
</trkpt>
<trkpt lat="42.442844" lon="18.634533">
<ele>4.240788</ele>
<time>2012-05-02T15:36:39Z</time>
<desc>lat.=42.442844, lon.=18.634533, Alt.=4.240788m. Speed=0.036000m/h.</desc>
<speed>0.010000</speed>
</trkpt>
<trkpt lat="42.442844" lon="18.634533">
<ele>4.241398</ele>
<time>2012-05-02T15:36:44Z</time>
<desc>lat.=42.442844, lon.=18.634533, Alt.=4.241398m. Speed=0.000000m/h.</desc>
<speed>0.000000</speed>
</trkpt>
<trkpt lat="42.442848" lon="18.634531">
<ele>4.242252</ele>
<time>2012-05-02T15:36:49Z</time>
<desc>lat.=42.442848, lon.=18.634531, Alt.=4.242252m. Speed=0.072000m/h.</desc>
<speed>0.020000</speed>
</trkpt>
<trkpt lat="42.442848" lon="18.634531">
<ele>4.243107</ele>
<time>2012-05-02T15:36:54Z</time>
<desc>lat.=42.442848, lon.=18.634531, Alt.=4.243107m. Speed=0.036000m/h.</desc>
<speed>0.010000</speed>
</trkpt>
<trkpt lat="42.442848" lon="18.634531">
<ele>4.243595</ele>
<time>2012-05-02T15:36:59Z</time>
<desc>lat.=42.442848, lon.=18.634531, Alt.=4.243595m. Speed=0.036000m/h.</desc>
<speed>0.010000</speed>
</trkpt>
<trkpt lat="42.442848" lon="18.634531">
<ele>4.244328</ele>
<time>2012-05-02T15:37:04Z</time>
<desc>lat.=42.442848, lon.=18.634531, Alt.=4.244328m. Speed=0.072000m/h.</desc>
<speed>0.020000</speed>
</trkpt>
<trkpt lat="42.442848" lon="18.634531">
<ele>4.246037</ele>
<time>2012-05-02T15:37:09Z</time>
<desc>lat.=42.442848, lon.=18.634531, Alt.=4.246037m. Speed=0.000000m/h.</desc>
<speed>0.000000</speed>
</trkpt>
<trkpt lat="42.442848" lon="18.634531">
<ele>4.245060</ele>
<time>2012-05-02T15:37:14Z</time>
<desc>lat.=42.442848, lon.=18.634531, Alt.=4.245060m. Speed=0.000000m/h.</desc>
<speed>0.000000</speed>
</trkpt>
<trkpt lat="42.442848" lon="18.634531">
<ele>4.242741</ele>
<time>2012-05-02T15:37:19Z</time>
<desc>lat.=42.442848, lon.=18.634531, Alt.=4.242741m. Speed=0.036000m/h.</desc>
<speed>0.010000</speed>
</trkpt>
<trkpt lat="42.442848" lon="18.634533">
<ele>4.222599</ele>
<time>2012-05-02T15:37:24Z</time>
<desc>lat.=42.442848, lon.=18.634533, Alt.=4.222599m. Speed=0.828000m/h.</desc>
<speed>0.230000</speed>
</trkpt>
<trkpt lat="42.442852" lon="18.634537">
<ele>4.189640</ele>
<time>2012-05-02T15:37:29Z</time>
<desc>lat.=42.442852, lon.=18.634537, Alt.=4.189640m. Speed=0.324000m/h.</desc>
<speed>0.090000</speed>
</trkpt>
<trkpt lat="42.442852" lon="18.634537">
<ele>4.164005</ele>
<time>2012-05-02T15:37:34Z</time>
<desc>lat.=42.442852, lon.=18.634537, Alt.=4.164005m. Speed=0.396000m/h.</desc>
<speed>0.110000</speed>
</trkpt>
<trkpt lat="42.442848" lon="18.634537">
<ele>4.158024</ele>
<time>2012-05-02T15:37:39Z</time>
<desc>lat.=42.442848, lon.=18.634537, Alt.=4.158024m. Speed=0.072000m/h.</desc>
<speed>0.020000</speed>
</trkpt>
<trkpt lat="42.442848" lon="18.634537">
<ele>4.142399</ele>
<time>2012-05-02T15:37:44Z</time>
<desc>lat.=42.442848, lon.=18.634537, Alt.=4.142399m. Speed=0.036000m/h.</desc>
<speed>0.010000</speed>
</trkpt>
<trkpt lat="42.442848" lon="18.634539">
<ele>4.135563</ele>
<time>2012-05-02T15:37:49Z</time>
<desc>lat.=42.442848, lon.=18.634539, Alt.=4.135563m. Speed=0.000000m/h.</desc>
<speed>0.000000</speed>
</trkpt>
<trkpt lat="42.442852" lon="18.634541">
<ele>4.093082</ele>
<time>2012-05-02T15:37:54Z</time>
<desc>lat.=42.442852, lon.=18.634541, Alt.=4.093082m. Speed=0.036000m/h.</desc>
<speed>0.010000</speed>
</trkpt>
<trkpt lat="42.442860" lon="18.634537">
<ele>4.236393</ele>
<time>2012-05-02T15:37:59Z</time>
<desc>lat.=42.442860, lon.=18.634537, Alt.=4.236393m. Speed=4.716000m/h.</desc>
<speed>1.310000</speed>
</trkpt>
<trkpt lat="42.442898" lon="18.634455">
<ele>4.471378</ele>
<time>2012-05-02T15:38:04Z</time>
<desc>lat.=42.442898, lon.=18.634455, Alt.=4.471378m. Speed=7.776000m/h.</desc>
<speed>2.160000</speed>
</trkpt>
<trkpt lat="42.442898" lon="18.634306">
<ele>4.645451</ele>
<time>2012-05-02T15:38:09Z</time>
<desc>lat.=42.442898, lon.=18.634306, Alt.=4.645451m. Speed=11.520000m/h.</desc>
<speed>3.200000</speed>
</trkpt>
<trkpt lat="42.442863" lon="18.634094">
<ele>4.108219</ele>
<time>2012-05-02T15:38:14Z</time>
<desc>lat.=42.442863, lon.=18.634094, Alt.=4.108219m. Speed=12.888000m/h.</desc>
<speed>3.580000</speed>
</trkpt>
<trkpt lat="42.442787" lon="18.633900">
<ele>4.463322</ele>
<time>2012-05-02T15:38:19Z</time>
<desc>lat.=42.442787, lon.=18.633900, Alt.=4.463322m. Speed=14.508000m/h.</desc>
<speed>4.030000</speed>
</trkpt>
<trkpt lat="42.442619" lon="18.633667">
<ele>5.135563</ele>
<time>2012-05-02T15:38:24Z</time>
<desc>lat.=42.442619, lon.=18.633667, Alt.=5.135563m. Speed=19.332001m/h.</desc>
<speed>5.370000</speed>
</trkpt>
<trkpt lat="42.442451" lon="18.633410">
<ele>4.064030</ele>
<time>2012-05-02T15:38:29Z</time>
<desc>lat.=42.442451, lon.=18.633410, Alt.=4.064030m. Speed=20.340000m/h.</desc>
<speed>5.650000</speed>
</trkpt>
<trkpt lat="42.442280" lon="18.633162">
<ele>5.028385</ele>
<time>2012-05-02T15:38:34Z</time>
<desc>lat.=42.442280, lon.=18.633162, Alt.=5.028385m. Speed=20.808001m/h.</desc>
<speed>5.780000</speed>
</trkpt>
<trkpt lat="42.442074" lon="18.632967">
<ele>5.837467</ele>
<time>2012-05-02T15:38:39Z</time>
<desc>lat.=42.442074, lon.=18.632967, Alt.=5.837467m. Speed=17.747999m/h.</desc>
<speed>4.930000</speed>
</trkpt>
<trkpt lat="42.441925" lon="18.632727">
<ele>6.301823</ele>
<time>2012-05-02T15:38:44Z</time>
<desc>lat.=42.441925, lon.=18.632727, Alt.=6.301823m. Speed=21.204000m/h.</desc>
<speed>5.890000</speed>
</trkpt>
<trkpt lat="42.441841" lon="18.632360">
<ele>2.789766</ele>
<time>2012-05-02T15:38:49Z</time>
<desc>lat.=42.441841, lon.=18.632360, Alt.=2.789766m. Speed=21.024000m/h.</desc>
<speed>5.840000</speed>
</trkpt>
<trkpt lat="42.441669" lon="18.632072">
<ele>4.044376</ele>
<time>2012-05-02T15:38:54Z</time>
<desc>lat.=42.441669, lon.=18.632072, Alt.=4.044376m. Speed=21.167999m/h.</desc>
<speed>5.880000</speed>
</trkpt>
<trkpt lat="42.441433" lon="18.631945">
<ele>7.549381</ele>
<time>2012-05-02T15:38:59Z</time>
<desc>lat.=42.441433, lon.=18.631945, Alt.=7.549381m. Speed=17.712000m/h.</desc>
<speed>4.920000</speed>
</trkpt>
<trkpt lat="42.441231" lon="18.631809">
<ele>8.762825</ele>
<time>2012-05-02T15:39:04Z</time>
<desc>lat.=42.441231, lon.=18.631809, Alt.=8.762825m. Speed=15.768000m/h.</desc>
<speed>4.380000</speed>
</trkpt>
<trkpt lat="42.441097" lon="18.631586">
<ele>9.942024</ele>
<time>2012-05-02T15:39:09Z</time>
<desc>lat.=42.441097, lon.=18.631586, Alt.=9.942024m. Speed=19.691999m/h.</desc>
<speed>5.470000</speed>
</trkpt>
<trkpt lat="42.441040" lon="18.631248">
<ele>12.800179</ele>
<time>2012-05-02T15:39:14Z</time>
<desc>lat.=42.441040, lon.=18.631248, Alt.=12.800179m. Speed=20.988001m/h.</desc>
<speed>5.830000</speed>
</trkpt>
<trkpt lat="42.441105" lon="18.630917">
<ele>8.540413</ele>
<time>2012-05-02T15:39:19Z</time>
<desc>lat.=42.441105, lon.=18.630917, Alt.=8.540413m. Speed=19.872000m/h.</desc>
<speed>5.520000</speed>
</trkpt>
<trkpt lat="42.441151" lon="18.630581">
<ele>8.065804</ele>
<time>2012-05-02T15:39:24Z</time>
<desc>lat.=42.441151, lon.=18.630581, Alt.=8.065804m. Speed=19.368000m/h.</desc>
<speed>5.380000</speed>
</trkpt>
<trkpt lat="42.441124" lon="18.630268">
<ele>8.878304</ele>
<time>2012-05-02T15:39:29Z</time>
<desc>lat.=42.441124, lon.=18.630268, Alt.=8.878304m. Speed=18.756001m/h.</desc>
<speed>5.210000</speed>
</trkpt>
<trkpt lat="42.441025" lon="18.629959">
<ele>9.420052</ele>
<time>2012-05-02T15:39:34Z</time>
<desc>lat.=42.441025, lon.=18.629959, Alt.=9.420052m. Speed=16.992001m/h.</desc>
<speed>4.720000</speed>
</trkpt>
<trkpt lat="42.440964" lon="18.629713">
<ele>9.012825</ele>
<time>2012-05-02T15:39:39Z</time>
<desc>lat.=42.440964, lon.=18.629713, Alt.=9.012825m. Speed=17.604000m/h.</desc>
<speed>4.890000</speed>
</trkpt>
<trkpt lat="42.440834" lon="18.629395">
<ele>10.399544</ele>
<time>2012-05-02T15:39:44Z</time>
<desc>lat.=42.440834, lon.=18.629395, Alt.=10.399544m. Speed=16.667999m/h.</desc>
<speed>4.630000</speed>
</trkpt>
<trkpt lat="42.440758" lon="18.629103">
<ele>11.039925</ele>
<time>2012-05-02T15:39:49Z</time>
<desc>lat.=42.440758, lon.=18.629103, Alt.=11.039925m. Speed=16.271999m/h.</desc>
<speed>4.520000</speed>
</trkpt>
<trkpt lat="42.440624" lon="18.628765">
<ele>11.563118</ele>
<time>2012-05-02T15:39:54Z</time>
<desc>lat.=42.440624, lon.=18.628765, Alt.=11.563118m. Speed=21.455999m/h.</desc>
<speed>5.960000</speed>
</trkpt>
<trkpt lat="42.440567" lon="18.628401">
<ele>12.864632</ele>
<time>2012-05-02T15:39:59Z</time>
<desc>lat.=42.440567, lon.=18.628401, Alt.=12.864632m. Speed=18.540001m/h.</desc>
<speed>5.150000</speed>
</trkpt>
<trkpt lat="42.440514" lon="18.628084">
<ele>13.831184</ele>
<time>2012-05-02T15:40:04Z</time>
<desc>lat.=42.440514, lon.=18.628084, Alt.=13.831184m. Speed=18.719999m/h.</desc>
<speed>5.200000</speed>
</trkpt>
<trkpt lat="42.440395" lon="18.627754">
<ele>16.041763</ele>
<time>2012-05-02T15:40:09Z</time>
<desc>lat.=42.440395, lon.=18.627754, Alt.=16.041763m. Speed=19.403999m/h.</desc>
<speed>5.390000</speed>
</trkpt>
<trkpt lat="42.440277" lon="18.627422">
<ele>16.961197</ele>
<time>2012-05-02T15:40:14Z</time>
<desc>lat.=42.440277, lon.=18.627422, Alt.=16.961197m. Speed=21.024000m/h.</desc>
<speed>5.840000</speed>
</trkpt>
<trkpt lat="42.440247" lon="18.627066">
<ele>16.714615</ele>
<time>2012-05-02T15:40:19Z</time>
<desc>lat.=42.440247, lon.=18.627066, Alt.=16.714615m. Speed=17.927999m/h.</desc>
<speed>4.980000</speed>
</trkpt>
<trkpt lat="42.440228" lon="18.626705">
<ele>11.075569</ele>
<time>2012-05-02T15:40:24Z</time>
<desc>lat.=42.440228, lon.=18.626705, Alt.=11.075569m. Speed=20.412001m/h.</desc>
<speed>5.670000</speed>
</trkpt>
<trkpt lat="42.440174" lon="18.626371">
<ele>9.246468</ele>
<time>2012-05-02T15:40:29Z</time>
<desc>lat.=42.440174, lon.=18.626371, Alt.=9.246468m. Speed=14.796000m/h.</desc>
<speed>4.110000</speed>
</trkpt>
<trkpt lat="42.440109" lon="18.626070">
<ele>5.652164</ele>
<time>2012-05-02T15:40:34Z</time>
<desc>lat.=42.440109, lon.=18.626070, Alt.=5.652164m. Speed=17.208000m/h.</desc>
<speed>4.780000</speed>
</trkpt>
<trkpt lat="42.440018" lon="18.625813">
<ele>6.441837</ele>
<time>2012-05-02T15:40:39Z</time>
<desc>lat.=42.440018, lon.=18.625813, Alt.=6.441837m. Speed=16.632000m/h.</desc>
<speed>4.620000</speed>
</trkpt>
<trkpt lat="42.439930" lon="18.625519">
<ele>9.330452</ele>
<time>2012-05-02T15:40:44Z</time>
<desc>lat.=42.439930, lon.=18.625519, Alt.=9.330452m. Speed=18.396000m/h.</desc>
<speed>5.110000</speed>
</trkpt>
<trkpt lat="42.439751" lon="18.625271">
<ele>10.465706</ele>
<time>2012-05-02T15:40:49Z</time>
<desc>lat.=42.439751, lon.=18.625271, Alt.=10.465706m. Speed=19.403999m/h.</desc>
<speed>5.390000</speed>
</trkpt>
<trkpt lat="42.439590" lon="18.624969">
<ele>10.395393</ele>
<time>2012-05-02T15:40:54Z</time>
<desc>lat.=42.439590, lon.=18.624969, Alt.=10.395393m. Speed=19.440001m/h.</desc>
<speed>5.400000</speed>
</trkpt>
<trkpt lat="42.439480" lon="18.624636">
<ele>11.399300</ele>
<time>2012-05-02T15:40:59Z</time>
<desc>lat.=42.439480, lon.=18.624636, Alt.=11.399300m. Speed=19.260000m/h.</desc>
<speed>5.350000</speed>
</trkpt>
<trkpt lat="42.439476" lon="18.624268">
<ele>10.708870</ele>
<time>2012-05-02T15:41:04Z</time>
<desc>lat.=42.439476, lon.=18.624268, Alt.=10.708870m. Speed=20.879999m/h.</desc>
<speed>5.800000</speed>
</trkpt>
<trkpt lat="42.439484" lon="18.623842">
<ele>9.742561</ele>
<time>2012-05-02T15:41:09Z</time>
<desc>lat.=42.439484, lon.=18.623842, Alt.=9.742561m. Speed=20.340000m/h.</desc>
<speed>5.650000</speed>
</trkpt>
<trkpt lat="42.439575" lon="18.623501">
<ele>8.666634</ele>
<time>2012-05-02T15:41:14Z</time>
<desc>lat.=42.439575, lon.=18.623501, Alt.=8.666634m. Speed=21.851999m/h.</desc>
<speed>6.070000</speed>
</trkpt>
<trkpt lat="42.439632" lon="18.623100">
<ele>8.267952</ele>
<time>2012-05-02T15:41:19Z</time>
<desc>lat.=42.439632, lon.=18.623100, Alt.=8.267952m. Speed=25.775999m/h.</desc>
<speed>7.160000</speed>
</trkpt>
<trkpt lat="42.439556" lon="18.622705">
<ele>7.346500</ele>
<time>2012-05-02T15:41:24Z</time>
<desc>lat.=42.439556, lon.=18.622705, Alt.=7.346500m. Speed=21.708000m/h.</desc>
<speed>6.030000</speed>
</trkpt>
<trkpt lat="42.439419" lon="18.622335">
<ele>8.256966</ele>
<time>2012-05-02T15:41:29Z</time>
<desc>lat.=42.439419, lon.=18.622335, Alt.=8.256966m. Speed=22.752001m/h.</desc>
<speed>6.320000</speed>
</trkpt>
<trkpt lat="42.439346" lon="18.621922">
<ele>7.762638</ele>
<time>2012-05-02T15:41:34Z</time>
<desc>lat.=42.439346, lon.=18.621922, Alt.=7.762638m. Speed=23.544001m/h.</desc>
<speed>6.540000</speed>
</trkpt>
<trkpt lat="42.439308" lon="18.621527">
<ele>7.316349</ele>
<time>2012-05-02T15:41:39Z</time>
<desc>lat.=42.439308, lon.=18.621527, Alt.=7.316349m. Speed=24.372000m/h.</desc>
<speed>6.770000</speed>
</trkpt>
<trkpt lat="42.439243" lon="18.621132">
<ele>7.991642</ele>
<time>2012-05-02T15:41:44Z</time>
<desc>lat.=42.439243, lon.=18.621132, Alt.=7.991642m. Speed=25.056000m/h.</desc>
<speed>6.960000</speed>
</trkpt>
<trkpt lat="42.439148" lon="18.620777">
<ele>6.937199</ele>
<time>2012-05-02T15:41:49Z</time>
<desc>lat.=42.439148, lon.=18.620777, Alt.=6.937199m. Speed=21.888000m/h.</desc>
<speed>6.080000</speed>
</trkpt>
<trkpt lat="42.438953" lon="18.620457">
<ele>7.835758</ele>
<time>2012-05-02T15:41:54Z</time>
<desc>lat.=42.438953, lon.=18.620457, Alt.=7.835758m. Speed=24.840000m/h.</desc>
<speed>6.900000</speed>
</trkpt>
<trkpt lat="42.438747" lon="18.620167">
<ele>8.401253</ele>
<time>2012-05-02T15:41:59Z</time>
<desc>lat.=42.438747, lon.=18.620167, Alt.=8.401253m. Speed=23.076000m/h.</desc>
<speed>6.410000</speed>
</trkpt>
<trkpt lat="42.438587" lon="18.619860">
<ele>10.639778</ele>
<time>2012-05-02T15:42:04Z</time>
<desc>lat.=42.438587, lon.=18.619860, Alt.=10.639778m. Speed=21.924000m/h.</desc>
<speed>6.090000</speed>
</trkpt>
<trkpt lat="42.438572" lon="18.619495">
<ele>11.596321</ele>
<time>2012-05-02T15:42:09Z</time>
<desc>lat.=42.438572, lon.=18.619495, Alt.=11.596321m. Speed=20.700001m/h.</desc>
<speed>5.750000</speed>
</trkpt>
<trkpt lat="42.438629" lon="18.619141">
<ele>11.960823</ele>
<time>2012-05-02T15:42:14Z</time>
<desc>lat.=42.438629, lon.=18.619141, Alt.=11.960823m. Speed=22.535999m/h.</desc>
<speed>6.260000</speed>
</trkpt>
<trkpt lat="42.438644" lon="18.618729">
<ele>10.327278</ele>
<time>2012-05-02T15:42:19Z</time>
<desc>lat.=42.438644, lon.=18.618729, Alt.=10.327278m. Speed=22.823999m/h.</desc>
<speed>6.340000</speed>
</trkpt>
<trkpt lat="42.438602" lon="18.618383">
<ele>10.888802</ele>
<time>2012-05-02T15:42:24Z</time>
<desc>lat.=42.438602, lon.=18.618383, Alt.=10.888802m. Speed=15.408000m/h.</desc>
<speed>4.280000</speed>
</trkpt>
<trkpt lat="42.438568" lon="18.618080">
<ele>9.045540</ele>
<time>2012-05-02T15:42:29Z</time>
<desc>lat.=42.438568, lon.=18.618080, Alt.=9.045540m. Speed=19.080000m/h.</desc>
<speed>5.300000</speed>
</trkpt>
<trkpt lat="42.438511" lon="18.617771">
<ele>9.824837</ele>
<time>2012-05-02T15:42:34Z</time>
<desc>lat.=42.438511, lon.=18.617771, Alt.=9.824837m. Speed=17.964001m/h.</desc>
<speed>4.990000</speed>
</trkpt>
<trkpt lat="42.438507" lon="18.617439">
<ele>9.228889</ele>
<time>2012-05-02T15:42:39Z</time>
<desc>lat.=42.438507, lon.=18.617439, Alt.=9.228889m. Speed=18.323999m/h.</desc>
<speed>5.090000</speed>
</trkpt>
<trkpt lat="42.438515" lon="18.617212">
<ele>9.043343</ele>
<time>2012-05-02T15:42:44Z</time>
<desc>lat.=42.438515, lon.=18.617212, Alt.=9.043343m. Speed=14.616000m/h.</desc>
<speed>4.060000</speed>
</trkpt>
<trkpt lat="42.438431" lon="18.616886">
<ele>8.932259</ele>
<time>2012-05-02T15:42:49Z</time>
<desc>lat.=42.438431, lon.=18.616886, Alt.=8.932259m. Speed=19.440001m/h.</desc>
<speed>5.400000</speed>
</trkpt>
<trkpt lat="42.438316" lon="18.616606">
<ele>9.325325</ele>
<time>2012-05-02T15:42:54Z</time>
<desc>lat.=42.438316, lon.=18.616606, Alt.=9.325325m. Speed=19.728001m/h.</desc>
<speed>5.480000</speed>
</trkpt>
<trkpt lat="42.438255" lon="18.616224">
<ele>9.158821</ele>
<time>2012-05-02T15:42:59Z</time>
<desc>lat.=42.438255, lon.=18.616224, Alt.=9.158821m. Speed=20.520000m/h.</desc>
<speed>5.700000</speed>
</trkpt>
<trkpt lat="42.438293" lon="18.615814">
<ele>6.881413</ele>
<time>2012-05-02T15:43:04Z</time>
<desc>lat.=42.438293, lon.=18.615814, Alt.=6.881413m. Speed=24.228001m/h.</desc>
<speed>6.730000</speed>
</trkpt>
<trkpt lat="42.438358" lon="18.615450">
<ele>8.301399</ele>
<time>2012-05-02T15:43:09Z</time>
<desc>lat.=42.438358, lon.=18.615450, Alt.=8.301399m. Speed=18.612000m/h.</desc>
<speed>5.170000</speed>
</trkpt>
<trkpt lat="42.438393" lon="18.615097">
<ele>10.194954</ele>
<time>2012-05-02T15:43:14Z</time>
<desc>lat.=42.438393, lon.=18.615097, Alt.=10.194954m. Speed=21.851999m/h.</desc>
<speed>6.070000</speed>
</trkpt>
<trkpt lat="42.438335" lon="18.614708">
<ele>7.679264</ele>
<time>2012-05-02T15:43:19Z</time>
<desc>lat.=42.438335, lon.=18.614708, Alt.=7.679264m. Speed=21.275999m/h.</desc>
<speed>5.910000</speed>
</trkpt>
<trkpt lat="42.438126" lon="18.614397">
<ele>9.909065</ele>
<time>2012-05-02T15:43:24Z</time>
<desc>lat.=42.438126, lon.=18.614397, Alt.=9.909065m. Speed=21.851999m/h.</desc>
<speed>6.070000</speed>
</trkpt>
<trkpt lat="42.437889" lon="18.614231">
<ele>11.228157</ele>
<time>2012-05-02T15:43:29Z</time>
<desc>lat.=42.437889, lon.=18.614231, Alt.=11.228157m. Speed=23.796000m/h.</desc>
<speed>6.610000</speed>
</trkpt>
<trkpt lat="42.437599" lon="18.614073">
<ele>8.628304</ele>
<time>2012-05-02T15:43:34Z</time>
<desc>lat.=42.437599, lon.=18.614073, Alt.=8.628304m. Speed=24.983999m/h.</desc>
<speed>6.940000</speed>
</trkpt>
<trkpt lat="42.437325" lon="18.613941">
<ele>5.417667</ele>
<time>2012-05-02T15:43:39Z</time>
<desc>lat.=42.437325, lon.=18.613941, Alt.=5.417667m. Speed=18.035999m/h.</desc>
<speed>5.010000</speed>
</trkpt>
<trkpt lat="42.437145" lon="18.613728">
<ele>4.762150</ele>
<time>2012-05-02T15:43:44Z</time>
<desc>lat.=42.437145, lon.=18.613728, Alt.=4.762150m. Speed=22.572001m/h.</desc>
<speed>6.270000</speed>
</trkpt>
<trkpt lat="42.436993" lon="18.613417">
<ele>3.280977</ele>
<time>2012-05-02T15:43:49Z</time>
<desc>lat.=42.436993, lon.=18.613417, Alt.=3.280977m. Speed=24.264000m/h.</desc>
<speed>6.740000</speed>
</trkpt>
<trkpt lat="42.436890" lon="18.613026">
<ele>0.779290</ele>
<time>2012-05-02T15:43:54Z</time>
<desc>lat.=42.436890, lon.=18.613026, Alt.=0.779290m. Speed=22.643999m/h.</desc>
<speed>6.290000</speed>
</trkpt>
<trkpt lat="42.436790" lon="18.612688">
<ele>-0.405857</ele>
<time>2012-05-02T15:43:59Z</time>
<desc>lat.=42.436790, lon.=18.612688, Alt.=-0.405857m. Speed=20.591999m/h.</desc>
<speed>5.720000</speed>
</trkpt>
<trkpt lat="42.436703" lon="18.612368">
<ele>-0.240816</ele>
<time>2012-05-02T15:44:04Z</time>
<desc>lat.=42.436703, lon.=18.612368, Alt.=-0.240816m. Speed=18.719999m/h.</desc>
<speed>5.200000</speed>
</trkpt>
<trkpt lat="42.436596" lon="18.612026">
<ele>0.387432</ele>
<time>2012-05-02T15:44:09Z</time>
<desc>lat.=42.436596, lon.=18.612026, Alt.=0.387432m. Speed=20.700001m/h.</desc>
<speed>5.750000</speed>
</trkpt>
<trkpt lat="42.436546" lon="18.611658">
<ele>-2.879732</ele>
<time>2012-05-02T15:44:14Z</time>
<desc>lat.=42.436546, lon.=18.611658, Alt.=-2.879732m. Speed=18.756001m/h.</desc>
<speed>5.210000</speed>
</trkpt>
<trkpt lat="42.436470" lon="18.611273">
<ele>-3.243624</ele>
<time>2012-05-02T15:44:19Z</time>
<desc>lat.=42.436470, lon.=18.611273, Alt.=-3.243624m. Speed=24.732000m/h.</desc>
<speed>6.870000</speed>
</trkpt>
<trkpt lat="42.436386" lon="18.610937">
<ele>-4.381413</ele>
<time>2012-05-02T15:44:24Z</time>
<desc>lat.=42.436386, lon.=18.610937, Alt.=-4.381413m. Speed=21.924000m/h.</desc>
<speed>6.090000</speed>
</trkpt>
<trkpt lat="42.436237" lon="18.610611">
<ele>-1.240891</ele>
<time>2012-05-02T15:44:29Z</time>
<desc>lat.=42.436237, lon.=18.610611, Alt.=-1.240891m. Speed=21.455999m/h.</desc>
<speed>5.960000</speed>
</trkpt>
<trkpt lat="42.436035" lon="18.610359">
<ele>0.071841</ele>
<time>2012-05-02T15:44:34Z</time>
<desc>lat.=42.436035, lon.=18.610359, Alt.=0.071841m. Speed=20.736000m/h.</desc>
<speed>5.760000</speed>
</trkpt>
<trkpt lat="42.435745" lon="18.610180">
<ele>2.007967</ele>
<time>2012-05-02T15:44:39Z</time>
<desc>lat.=42.435745, lon.=18.610180, Alt.=2.007967m. Speed=25.344000m/h.</desc>
<speed>7.040000</speed>
</trkpt>
<trkpt lat="42.435532" lon="18.609941">
<ele>1.733262</ele>
<time>2012-05-02T15:44:44Z</time>
<desc>lat.=42.435532, lon.=18.609941, Alt.=1.733262m. Speed=19.440001m/h.</desc>
<speed>5.400000</speed>
</trkpt>
<trkpt lat="42.435284" lon="18.609713">
<ele>2.162508</ele>
<time>2012-05-02T15:44:49Z</time>
<desc>lat.=42.435284, lon.=18.609713, Alt.=2.162508m. Speed=26.459999m/h.</desc>
<speed>7.350000</speed>
</trkpt>
<trkpt lat="42.435226" lon="18.609329">
<ele>4.504581</ele>
<time>2012-05-02T15:44:54Z</time>
<desc>lat.=42.435226, lon.=18.609329, Alt.=4.504581m. Speed=23.544001m/h.</desc>
<speed>6.540000</speed>
</trkpt>
<trkpt lat="42.435226" lon="18.608971">
<ele>5.537052</ele>
<time>2012-05-02T15:44:59Z</time>
<desc>lat.=42.435226, lon.=18.608971, Alt.=5.537052m. Speed=19.476000m/h.</desc>
<speed>5.410000</speed>
</trkpt>
<trkpt lat="42.435226" lon="18.608604">
<ele>6.139835</ele>
<time>2012-05-02T15:45:04Z</time>
<desc>lat.=42.435226, lon.=18.608604, Alt.=6.139835m. Speed=21.888000m/h.</desc>
<speed>6.080000</speed>
</trkpt>
<trkpt lat="42.435169" lon="18.608206">
<ele>6.659977</ele>
<time>2012-05-02T15:45:09Z</time>
<desc>lat.=42.435169, lon.=18.608206, Alt.=6.659977m. Speed=25.416000m/h.</desc>
<speed>7.060000</speed>
</trkpt>
<trkpt lat="42.435120" lon="18.607870">
<ele>7.554874</ele>
<time>2012-05-02T15:45:14Z</time>
<desc>lat.=42.435120, lon.=18.607870, Alt.=7.554874m. Speed=11.412000m/h.</desc>
<speed>3.170000</speed>
</trkpt>
<trkpt lat="42.435078" lon="18.607645">
<ele>8.645882</ele>
<time>2012-05-02T15:45:19Z</time>
<desc>lat.=42.435078, lon.=18.607645, Alt.=8.645882m. Speed=14.616000m/h.</desc>
<speed>4.060000</speed>
</trkpt>
<trkpt lat="42.435028" lon="18.607349">
<ele>8.960335</ele>
<time>2012-05-02T15:45:24Z</time>
<desc>lat.=42.435028, lon.=18.607349, Alt.=8.960335m. Speed=13.824000m/h.</desc>
<speed>3.840000</speed>
</trkpt>
<trkpt lat="42.435043" lon="18.607035">
<ele>7.420353</ele>
<time>2012-05-02T15:45:29Z</time>
<desc>lat.=42.435043, lon.=18.607035, Alt.=7.420353m. Speed=18.792000m/h.</desc>
<speed>5.220000</speed>
</trkpt>
<trkpt lat="42.435131" lon="18.606672">
<ele>5.497379</ele>
<time>2012-05-02T15:45:34Z</time>
<desc>lat.=42.435131, lon.=18.606672, Alt.=5.497379m. Speed=22.104000m/h.</desc>
<speed>6.140000</speed>
</trkpt>
<trkpt lat="42.435165" lon="18.606251">
<ele>7.941593</ele>
<time>2012-05-02T15:45:39Z</time>
<desc>lat.=42.435165, lon.=18.606251, Alt.=7.941593m. Speed=24.084000m/h.</desc>
<speed>6.690000</speed>
</trkpt>
<trkpt lat="42.435070" lon="18.605852">
<ele>8.242805</ele>
<time>2012-05-02T15:45:44Z</time>
<desc>lat.=42.435070, lon.=18.605852, Alt.=8.242805m. Speed=24.408001m/h.</desc>
<speed>6.780000</speed>
</trkpt>
<trkpt lat="42.434856" lon="18.605518">
<ele>9.817268</ele>
<time>2012-05-02T15:45:49Z</time>
<desc>lat.=42.434856, lon.=18.605518, Alt.=9.817268m. Speed=23.544001m/h.</desc>
<speed>6.540000</speed>
</trkpt>
<trkpt lat="42.434837" lon="18.605209">
<ele>9.570930</ele>
<time>2012-05-02T15:45:54Z</time>
<desc>lat.=42.434837, lon.=18.605209, Alt.=9.570930m. Speed=17.459999m/h.</desc>
<speed>4.850000</speed>
</trkpt>
<trkpt lat="42.434917" lon="18.604887">
<ele>9.613411</ele>
<time>2012-05-02T15:45:59Z</time>
<desc>lat.=42.434917, lon.=18.604887, Alt.=9.613411m. Speed=21.455999m/h.</desc>
<speed>5.960000</speed>
</trkpt>
<trkpt lat="42.435059" lon="18.604616">
<ele>12.368294</ele>
<time>2012-05-02T15:46:04Z</time>
<desc>lat.=42.435059, lon.=18.604616, Alt.=12.368294m. Speed=18.612000m/h.</desc>
<speed>5.170000</speed>
</trkpt>
<trkpt lat="42.435135" lon="18.604259">
<ele>14.079720</ele>
<time>2012-05-02T15:46:09Z</time>
<desc>lat.=42.435135, lon.=18.604259, Alt.=14.079720m. Speed=23.327999m/h.</desc>
<speed>6.480000</speed>
</trkpt>
<trkpt lat="42.435146" lon="18.603794">
<ele>15.195686</ele>
<time>2012-05-02T15:46:14Z</time>
<desc>lat.=42.435146, lon.=18.603794, Alt.=15.195686m. Speed=26.784000m/h.</desc>
<speed>7.440000</speed>
</trkpt>
<trkpt lat="42.435123" lon="18.603256">
<ele>9.793831</ele>
<time>2012-05-02T15:46:19Z</time>
<desc>lat.=42.435123, lon.=18.603256, Alt.=9.793831m. Speed=25.200001m/h.</desc>
<speed>7.000000</speed>
</trkpt>
<trkpt lat="42.435177" lon="18.602859">
<ele>10.141243</ele>
<time>2012-05-02T15:46:24Z</time>
<desc>lat.=42.435177, lon.=18.602859, Alt.=10.141243m. Speed=21.492001m/h.</desc>
<speed>5.970000</speed>
</trkpt>
<trkpt lat="42.435417" lon="18.602829">
<ele>10.256477</ele>
<time>2012-05-02T15:46:29Z</time>
<desc>lat.=42.435417, lon.=18.602829, Alt.=10.256477m. Speed=15.588000m/h.</desc>
<speed>4.330000</speed>
</trkpt>
<trkpt lat="42.435593" lon="18.602762">
<ele>13.127815</ele>
<time>2012-05-02T15:46:34Z</time>
<desc>lat.=42.435593, lon.=18.602762, Alt.=13.127815m. Speed=13.248000m/h.</desc>
<speed>3.680000</speed>
</trkpt>
<trkpt lat="42.435658" lon="18.602531">
<ele>17.145767</ele>
<time>2012-05-02T15:46:39Z</time>
<desc>lat.=42.435658, lon.=18.602531, Alt.=17.145767m. Speed=11.268000m/h.</desc>
<speed>3.130000</speed>
</trkpt>
<trkpt lat="42.435696" lon="18.602360">
<ele>20.492935</ele>
<time>2012-05-02T15:46:44Z</time>
<desc>lat.=42.435696, lon.=18.602360, Alt.=20.492935m. Speed=11.160000m/h.</desc>
<speed>3.100000</speed>
</trkpt>
<trkpt lat="42.435757" lon="18.602179">
<ele>23.273697</ele>
<time>2012-05-02T15:46:49Z</time>
<desc>lat.=42.435757, lon.=18.602179, Alt.=23.273697m. Speed=11.304000m/h.</desc>
<speed>3.140000</speed>
</trkpt>
<trkpt lat="42.435802" lon="18.602018">
<ele>26.177994</ele>
<time>2012-05-02T15:46:54Z</time>
<desc>lat.=42.435802, lon.=18.602018, Alt.=26.177994m. Speed=10.188000m/h.</desc>
<speed>2.830000</speed>
</trkpt>
<trkpt lat="42.435833" lon="18.601835">
<ele>29.784927</ele>
<time>2012-05-02T15:46:59Z</time>
<desc>lat.=42.435833, lon.=18.601835, Alt.=29.784927m. Speed=10.908000m/h.</desc>
<speed>3.030000</speed>
</trkpt>
<trkpt lat="42.435890" lon="18.601665">
<ele>32.697784</ele>
<time>2012-05-02T15:47:04Z</time>
<desc>lat.=42.435890, lon.=18.601665, Alt.=32.697784m. Speed=9.972000m/h.</desc>
<speed>2.770000</speed>
</trkpt>
<trkpt lat="42.435936" lon="18.601511">
<ele>37.969269</ele>
<time>2012-05-02T15:47:09Z</time>
<desc>lat.=42.435936, lon.=18.601511, Alt.=37.969269m. Speed=10.044000m/h.</desc>
<speed>2.790000</speed>
</trkpt>
<trkpt lat="42.435982" lon="18.601324">
<ele>43.031769</ele>
<time>2012-05-02T15:47:14Z</time>
<desc>lat.=42.435982, lon.=18.601324, Alt.=43.031769m. Speed=12.240000m/h.</desc>
<speed>3.400000</speed>
</trkpt>
<trkpt lat="42.436024" lon="18.601097">
<ele>47.017120</ele>
<time>2012-05-02T15:47:19Z</time>
<desc>lat.=42.436024, lon.=18.601097, Alt.=47.017120m. Speed=13.608000m/h.</desc>
<speed>3.780000</speed>
</trkpt>
<trkpt lat="42.436092" lon="18.600813">
<ele>45.685089</ele>
<time>2012-05-02T15:47:24Z</time>
<desc>lat.=42.436092, lon.=18.600813, Alt.=45.685089m. Speed=16.091999m/h.</desc>
<speed>4.470000</speed>
</trkpt>
<trkpt lat="42.436180" lon="18.600542">
<ele>45.615753</ele>
<time>2012-05-02T15:47:29Z</time>
<desc>lat.=42.436180, lon.=18.600542, Alt.=45.615753m. Speed=17.820000m/h.</desc>
<speed>4.950000</speed>
</trkpt>
<trkpt lat="42.436222" lon="18.600237">
<ele>49.888214</ele>
<time>2012-05-02T15:47:34Z</time>
<desc>lat.=42.436222, lon.=18.600237, Alt.=49.888214m. Speed=16.848000m/h.</desc>
<speed>4.680000</speed>
</trkpt>
<trkpt lat="42.436291" lon="18.599989">
<ele>54.204620</ele>
<time>2012-05-02T15:47:39Z</time>
<desc>lat.=42.436291, lon.=18.599989, Alt.=54.204620m. Speed=15.300000m/h.</desc>
<speed>4.250000</speed>
</trkpt>
<trkpt lat="42.436382" lon="18.599714">
<ele>52.390167</ele>
<time>2012-05-02T15:47:44Z</time>
<desc>lat.=42.436382, lon.=18.599714, Alt.=52.390167m. Speed=15.156000m/h.</desc>
<speed>4.210000</speed>
</trkpt>
<trkpt lat="42.436459" lon="18.599430">
<ele>51.995636</ele>
<time>2012-05-02T15:47:49Z</time>
<desc>lat.=42.436459, lon.=18.599430, Alt.=51.995636m. Speed=18.504000m/h.</desc>
<speed>5.140000</speed>
</trkpt>
<trkpt lat="42.436558" lon="18.599085">
<ele>50.015167</ele>
<time>2012-05-02T15:47:54Z</time>
<desc>lat.=42.436558, lon.=18.599085, Alt.=50.015167m. Speed=22.752001m/h.</desc>
<speed>6.320000</speed>
</trkpt>
<trkpt lat="42.436691" lon="18.598700">
<ele>49.862823</ele>
<time>2012-05-02T15:47:59Z</time>
<desc>lat.=42.436691, lon.=18.598700, Alt.=49.862823m. Speed=26.316000m/h.</desc>
<speed>7.310000</speed>
</trkpt>
<trkpt lat="42.436802" lon="18.598238">
<ele>50.138214</ele>
<time>2012-05-02T15:48:04Z</time>
<desc>lat.=42.436802, lon.=18.598238, Alt.=50.138214m. Speed=30.455999m/h.</desc>
<speed>8.460000</speed>
</trkpt>
<trkpt lat="42.436951" lon="18.597696">
<ele>47.879425</ele>
<time>2012-05-02T15:48:09Z</time>
<desc>lat.=42.436951, lon.=18.597696, Alt.=47.879425m. Speed=36.900002m/h.</desc>
<speed>10.250000</speed>
</trkpt>
<trkpt lat="42.437130" lon="18.597092">
<ele>44.894073</ele>
<time>2012-05-02T15:48:14Z</time>
<desc>lat.=42.437130, lon.=18.597092, Alt.=44.894073m. Speed=33.012001m/h.</desc>
<speed>9.170000</speed>
</trkpt>
<trkpt lat="42.437305" lon="18.596575">
<ele>44.824738</ele>
<time>2012-05-02T15:48:19Z</time>
<desc>lat.=42.437305, lon.=18.596575, Alt.=44.824738m. Speed=29.556000m/h.</desc>
<speed>8.210000</speed>
</trkpt>
<trkpt lat="42.437477" lon="18.596102">
<ele>44.878448</ele>
<time>2012-05-02T15:48:24Z</time>
<desc>lat.=42.437477, lon.=18.596102, Alt.=44.878448m. Speed=29.160000m/h.</desc>
<speed>8.100000</speed>
</trkpt>
<trkpt lat="42.437626" lon="18.595596">
<ele>45.753448</ele>
<time>2012-05-02T15:48:29Z</time>
<desc>lat.=42.437626, lon.=18.595596, Alt.=45.753448m. Speed=30.455999m/h.</desc>
<speed>8.460000</speed>
</trkpt>
<trkpt lat="42.437782" lon="18.595150">
<ele>48.050323</ele>
<time>2012-05-02T15:48:34Z</time>
<desc>lat.=42.437782, lon.=18.595150, Alt.=48.050323m. Speed=27.468000m/h.</desc>
<speed>7.630000</speed>
</trkpt>
<trkpt lat="42.437889" lon="18.594711">
<ele>48.381378</ele>
<time>2012-05-02T15:48:39Z</time>
<desc>lat.=42.437889, lon.=18.594711, Alt.=48.381378m. Speed=25.308001m/h.</desc>
<speed>7.030000</speed>
</trkpt>
<trkpt lat="42.437996" lon="18.594280">
<ele>49.906769</ele>
<time>2012-05-02T15:48:44Z</time>
<desc>lat.=42.437996, lon.=18.594280, Alt.=49.906769m. Speed=24.011999m/h.</desc>
<speed>6.670000</speed>
</trkpt>
<trkpt lat="42.438065" lon="18.593821">
<ele>47.707550</ele>
<time>2012-05-02T15:48:49Z</time>
<desc>lat.=42.438065, lon.=18.593821, Alt.=47.707550m. Speed=25.200001m/h.</desc>
<speed>7.000000</speed>
</trkpt>
<trkpt lat="42.438168" lon="18.593369">
<ele>43.387238</ele>
<time>2012-05-02T15:48:54Z</time>
<desc>lat.=42.438168, lon.=18.593369, Alt.=43.387238m. Speed=24.948000m/h.</desc>
<speed>6.930000</speed>
</trkpt>
<trkpt lat="42.438244" lon="18.592804">
<ele>33.873566</ele>
<time>2012-05-02T15:48:59Z</time>
<desc>lat.=42.438244, lon.=18.592804, Alt.=33.873566m. Speed=30.167999m/h.</desc>
<speed>8.380000</speed>
</trkpt>
<trkpt lat="42.438217" lon="18.592163">
<ele>29.271744</ele>
<time>2012-05-02T15:49:04Z</time>
<desc>lat.=42.438217, lon.=18.592163, Alt.=29.271744m. Speed=37.548000m/h.</desc>
<speed>10.430000</speed>
</trkpt>
<trkpt lat="42.437935" lon="18.591640">
<ele>23.214127</ele>
<time>2012-05-02T15:49:09Z</time>
<desc>lat.=42.437935, lon.=18.591640, Alt.=23.214127m. Speed=36.144001m/h.</desc>
<speed>10.040000</speed>
</trkpt>
<trkpt lat="42.437572" lon="18.591364">
<ele>19.062759</ele>
<time>2012-05-02T15:49:14Z</time>
<desc>lat.=42.437572, lon.=18.591364, Alt.=19.062759m. Speed=26.927999m/h.</desc>
<speed>7.480000</speed>
</trkpt>
<trkpt lat="42.437309" lon="18.590986">
<ele>15.459846</ele>
<time>2012-05-02T15:49:19Z</time>
<desc>lat.=42.437309, lon.=18.590986, Alt.=15.459846m. Speed=27.540001m/h.</desc>
<speed>7.650000</speed>
</trkpt>
<trkpt lat="42.437412" lon="18.590563">
<ele>14.347054</ele>
<time>2012-05-02T15:49:24Z</time>
<desc>lat.=42.437412, lon.=18.590563, Alt.=14.347054m. Speed=28.403999m/h.</desc>
<speed>7.890000</speed>
</trkpt>
<trkpt lat="42.437599" lon="18.590097">
<ele>14.244026</ele>
<time>2012-05-02T15:49:29Z</time>
<desc>lat.=42.437599, lon.=18.590097, Alt.=14.244026m. Speed=31.212000m/h.</desc>
<speed>8.670000</speed>
</trkpt>
<trkpt lat="42.437756" lon="18.589621">
<ele>15.296516</ele>
<time>2012-05-02T15:49:34Z</time>
<desc>lat.=42.437756, lon.=18.589621, Alt.=15.296516m. Speed=28.728001m/h.</desc>
<speed>7.980000</speed>
</trkpt>
<trkpt lat="42.437881" lon="18.589190">
<ele>15.091438</ele>
<time>2012-05-02T15:49:39Z</time>
<desc>lat.=42.437881, lon.=18.589190, Alt.=15.091438m. Speed=26.424000m/h.</desc>
<speed>7.340000</speed>
</trkpt>
<trkpt lat="42.438053" lon="18.588835">
<ele>13.938606</ele>
<time>2012-05-02T15:49:44Z</time>
<desc>lat.=42.438053, lon.=18.588835, Alt.=13.938606m. Speed=23.400000m/h.</desc>
<speed>6.500000</speed>
</trkpt>
<trkpt lat="42.438251" lon="18.588474">
<ele>13.331429</ele>
<time>2012-05-02T15:49:49Z</time>
<desc>lat.=42.438251, lon.=18.588474, Alt.=13.331429m. Speed=26.676001m/h.</desc>
<speed>7.410000</speed>
</trkpt>
<trkpt lat="42.438446" lon="18.588095">
<ele>11.607552</ele>
<time>2012-05-02T15:49:54Z</time>
<desc>lat.=42.438446, lon.=18.588095, Alt.=11.607552m. Speed=24.228001m/h.</desc>
<speed>6.730000</speed>
</trkpt>
<trkpt lat="42.438587" lon="18.587652">
<ele>11.588020</ele>
<time>2012-05-02T15:49:59Z</time>
<desc>lat.=42.438587, lon.=18.587652, Alt.=11.588020m. Speed=29.160000m/h.</desc>
<speed>8.100000</speed>
</trkpt>
<trkpt lat="42.438751" lon="18.587212">
<ele>11.847542</ele>
<time>2012-05-02T15:50:04Z</time>
<desc>lat.=42.438751, lon.=18.587212, Alt.=11.847542m. Speed=24.624001m/h.</desc>
<speed>6.840000</speed>
</trkpt>
<trkpt lat="42.438934" lon="18.586861">
<ele>10.947884</ele>
<time>2012-05-02T15:50:09Z</time>
<desc>lat.=42.438934, lon.=18.586861, Alt.=10.947884m. Speed=26.136000m/h.</desc>
<speed>7.260000</speed>
</trkpt>
<trkpt lat="42.439194" lon="18.586498">
<ele>8.121223</ele>
<time>2012-05-02T15:50:14Z</time>
<desc>lat.=42.439194, lon.=18.586498, Alt.=8.121223m. Speed=29.988001m/h.</desc>
<speed>8.330000</speed>
</trkpt>
<trkpt lat="42.439461" lon="18.586111">
<ele>7.701969</ele>
<time>2012-05-02T15:50:19Z</time>
<desc>lat.=42.439461, lon.=18.586111, Alt.=7.701969m. Speed=29.052000m/h.</desc>
<speed>8.070000</speed>
</trkpt>
<trkpt lat="42.439713" lon="18.585733">
<ele>7.622379</ele>
<time>2012-05-02T15:50:24Z</time>
<desc>lat.=42.439713, lon.=18.585733, Alt.=7.622379m. Speed=28.980000m/h.</desc>
<speed>8.050000</speed>
</trkpt>
<trkpt lat="42.439930" lon="18.585403">
<ele>8.453255</ele>
<time>2012-05-02T15:50:29Z</time>
<desc>lat.=42.439930, lon.=18.585403, Alt.=8.453255m. Speed=26.856001m/h.</desc>
<speed>7.460000</speed>
</trkpt>
<trkpt lat="42.440109" lon="18.585039">
<ele>8.326057</ele>
<time>2012-05-02T15:50:34Z</time>
<desc>lat.=42.440109, lon.=18.585039, Alt.=8.326057m. Speed=26.712000m/h.</desc>
<speed>7.420000</speed>
</trkpt>
<trkpt lat="42.440289" lon="18.584690">
<ele>8.940315</ele>
<time>2012-05-02T15:50:39Z</time>
<desc>lat.=42.440289, lon.=18.584690, Alt.=8.940315m. Speed=23.112000m/h.</desc>
<speed>6.420000</speed>
</trkpt>
<trkpt lat="42.440483" lon="18.584383">
<ele>13.215950</ele>
<time>2012-05-02T15:50:44Z</time>
<desc>lat.=42.440483, lon.=18.584383, Alt.=13.215950m. Speed=24.840000m/h.</desc>
<speed>6.900000</speed>
</trkpt>
<trkpt lat="42.440701" lon="18.584120">
<ele>15.305794</ele>
<time>2012-05-02T15:50:49Z</time>
<desc>lat.=42.440701, lon.=18.584120, Alt.=15.305794m. Speed=19.548000m/h.</desc>
<speed>5.430000</speed>
</trkpt>
<trkpt lat="42.440899" lon="18.583830">
<ele>17.415787</ele>
<time>2012-05-02T15:50:54Z</time>
<desc>lat.=42.440899, lon.=18.583830, Alt.=17.415787m. Speed=22.139999m/h.</desc>
<speed>6.150000</speed>
</trkpt>
<trkpt lat="42.441170" lon="18.583586">
<ele>15.896370</ele>
<time>2012-05-02T15:50:59Z</time>
<desc>lat.=42.441170, lon.=18.583586, Alt.=15.896370m. Speed=24.444000m/h.</desc>
<speed>6.790000</speed>
</trkpt>
<trkpt lat="42.441463" lon="18.583416">
<ele>15.947639</ele>
<time>2012-05-02T15:51:04Z</time>
<desc>lat.=42.441463, lon.=18.583416, Alt.=15.947639m. Speed=20.771999m/h.</desc>
<speed>5.770000</speed>
</trkpt>
<trkpt lat="42.441723" lon="18.583258">
<ele>15.559212</ele>
<time>2012-05-02T15:51:09Z</time>
<desc>lat.=42.441723, lon.=18.583258, Alt.=15.559212m. Speed=19.368000m/h.</desc>
<speed>5.380000</speed>
</trkpt>
<trkpt lat="42.441978" lon="18.583132">
<ele>16.141861</ele>
<time>2012-05-02T15:51:14Z</time>
<desc>lat.=42.441978, lon.=18.583132, Alt.=16.141861m. Speed=22.176001m/h.</desc>
<speed>6.160000</speed>
</trkpt>
<trkpt lat="42.442234" lon="18.582865">
<ele>13.243782</ele>
<time>2012-05-02T15:51:19Z</time>
<desc>lat.=42.442234, lon.=18.582865, Alt.=13.243782m. Speed=22.464001m/h.</desc>
<speed>6.240000</speed>
</trkpt>
<trkpt lat="42.442455" lon="18.582594">
<ele>13.881233</ele>
<time>2012-05-02T15:51:24Z</time>
<desc>lat.=42.442455, lon.=18.582594, Alt.=13.881233m. Speed=22.176001m/h.</desc>
<speed>6.160000</speed>
</trkpt>
<trkpt lat="42.442654" lon="18.582331">
<ele>12.258919</ele>
<time>2012-05-02T15:51:29Z</time>
<desc>lat.=42.442654, lon.=18.582331, Alt.=12.258919m. Speed=17.712000m/h.</desc>
<speed>4.920000</speed>
</trkpt>
<trkpt lat="42.442856" lon="18.582159">
<ele>10.398567</ele>
<time>2012-05-02T15:51:34Z</time>
<desc>lat.=42.442856, lon.=18.582159, Alt.=10.398567m. Speed=16.992001m/h.</desc>
<speed>4.720000</speed>
</trkpt>
<trkpt lat="42.443058" lon="18.581940">
<ele>7.748112</ele>
<time>2012-05-02T15:51:39Z</time>
<desc>lat.=42.443058, lon.=18.581940, Alt.=7.748112m. Speed=19.260000m/h.</desc>
<speed>5.350000</speed>
</trkpt>
<trkpt lat="42.443245" lon="18.581665">
<ele>9.363167</ele>
<time>2012-05-02T15:51:44Z</time>
<desc>lat.=42.443245, lon.=18.581665, Alt.=9.363167m. Speed=25.704000m/h.</desc>
<speed>7.140000</speed>
</trkpt>
<trkpt lat="42.443359" lon="18.581293">
<ele>10.843636</ele>
<time>2012-05-02T15:51:49Z</time>
<desc>lat.=42.443359, lon.=18.581293, Alt.=10.843636m. Speed=19.908001m/h.</desc>
<speed>5.530000</speed>
</trkpt>
<trkpt lat="42.443424" lon="18.581066">
<ele>14.200081</ele>
<time>2012-05-02T15:51:54Z</time>
<desc>lat.=42.443424, lon.=18.581066, Alt.=14.200081m. Speed=10.620000m/h.</desc>
<speed>2.950000</speed>
</trkpt>
<trkpt lat="42.443459" lon="18.580952">
<ele>18.549088</ele>
<time>2012-05-02T15:51:59Z</time>
<desc>lat.=42.443459, lon.=18.580952, Alt.=18.549088m. Speed=7.632000m/h.</desc>
<speed>2.120000</speed>
</trkpt>
<trkpt lat="42.443493" lon="18.580805">
<ele>22.052505</ele>
<time>2012-05-02T15:52:04Z</time>
<desc>lat.=42.443493, lon.=18.580805, Alt.=22.052505m. Speed=8.856000m/h.</desc>
<speed>2.460000</speed>
</trkpt>
<trkpt lat="42.443527" lon="18.580641">
<ele>22.751236</ele>
<time>2012-05-02T15:52:09Z</time>
<desc>lat.=42.443527, lon.=18.580641, Alt.=22.751236m. Speed=7.704000m/h.</desc>
<speed>2.140000</speed>
</trkpt>
<trkpt lat="42.443584" lon="18.580502">
<ele>24.522720</ele>
<time>2012-05-02T15:52:14Z</time>
<desc>lat.=42.443584, lon.=18.580502, Alt.=24.522720m. Speed=8.964000m/h.</desc>
<speed>2.490000</speed>
</trkpt>
<trkpt lat="42.443626" lon="18.580345">
<ele>25.481705</ele>
<time>2012-05-02T15:52:19Z</time>
<desc>lat.=42.443626, lon.=18.580345, Alt.=25.481705m. Speed=10.044000m/h.</desc>
<speed>2.790000</speed>
</trkpt>
<trkpt lat="42.443668" lon="18.580141">
<ele>24.360611</ele>
<time>2012-05-02T15:52:24Z</time>
<desc>lat.=42.443668, lon.=18.580141, Alt.=24.360611m. Speed=11.160000m/h.</desc>
<speed>3.100000</speed>
</trkpt>
<trkpt lat="42.443699" lon="18.580021">
<ele>25.138443</ele>
<time>2012-05-02T15:52:29Z</time>
<desc>lat.=42.443699, lon.=18.580021, Alt.=25.138443m. Speed=0.972000m/h.</desc>
<speed>0.270000</speed>
</trkpt>
<trkpt lat="42.443737" lon="18.580019">
<ele>22.001236</ele>
<time>2012-05-02T15:52:34Z</time>
<desc>lat.=42.443737, lon.=18.580019, Alt.=22.001236m. Speed=0.612000m/h.</desc>
<speed>0.170000</speed>
</trkpt>
<trkpt lat="42.443748" lon="18.579939">
<ele>22.106216</ele>
<time>2012-05-02T15:52:39Z</time>
<desc>lat.=42.443748, lon.=18.579939, Alt.=22.106216m. Speed=7.884000m/h.</desc>
<speed>2.190000</speed>
</trkpt>
<trkpt lat="42.443783" lon="18.579834">
<ele>23.231216</ele>
<time>2012-05-02T15:52:44Z</time>
<desc>lat.=42.443783, lon.=18.579834, Alt.=23.231216m. Speed=5.184000m/h.</desc>
<speed>1.440000</speed>
</trkpt>
<trkpt lat="42.443813" lon="18.579809">
<ele>20.872818</ele>
<time>2012-05-02T15:52:49Z</time>
<desc>lat.=42.443813, lon.=18.579809, Alt.=20.872818m. Speed=0.108000m/h.</desc>
<speed>0.030000</speed>
</trkpt>
<trkpt lat="42.443825" lon="18.579817">
<ele>20.465103</ele>
<time>2012-05-02T15:52:54Z</time>
<desc>lat.=42.443825, lon.=18.579817, Alt.=20.465103m. Speed=0.540000m/h.</desc>
<speed>0.150000</speed>
</trkpt>
<trkpt lat="42.443829" lon="18.579817">
<ele>20.347427</ele>
<time>2012-05-02T15:52:59Z</time>
<desc>lat.=42.443829, lon.=18.579817, Alt.=20.347427m. Speed=0.396000m/h.</desc>
<speed>0.110000</speed>
</trkpt>
<trkpt lat="42.443832" lon="18.579821">
<ele>20.268326</ele>
<time>2012-05-02T15:53:04Z</time>
<desc>lat.=42.443832, lon.=18.579821, Alt.=20.268326m. Speed=0.540000m/h.</desc>
<speed>0.150000</speed>
</trkpt>
<trkpt lat="42.443840" lon="18.579824">
<ele>20.094009</ele>
<time>2012-05-02T15:53:09Z</time>
<desc>lat.=42.443840, lon.=18.579824, Alt.=20.094009m. Speed=0.216000m/h.</desc>
<speed>0.060000</speed>
</trkpt>
<trkpt lat="42.443844" lon="18.579828">
<ele>19.916275</ele>
<time>2012-05-02T15:53:14Z</time>
<desc>lat.=42.443844, lon.=18.579828, Alt.=19.916275m. Speed=1.080000m/h.</desc>
<speed>0.300000</speed>
</trkpt>
<trkpt lat="42.443867" lon="18.579813">
<ele>16.582291</ele>
<time>2012-05-02T15:53:19Z</time>
<desc>lat.=42.443867, lon.=18.579813, Alt.=16.582291m. Speed=0.612000m/h.</desc>
<speed>0.170000</speed>
</trkpt>
<trkpt lat="42.443871" lon="18.579815">
<ele>16.478287</ele>
<time>2012-05-02T15:53:24Z</time>
<desc>lat.=42.443871, lon.=18.579815, Alt.=16.478287m. Speed=0.000000m/h.</desc>
<speed>0.000000</speed>
</trkpt>
<trkpt lat="42.443871" lon="18.579817">
<ele>16.368423</ele>
<time>2012-05-02T15:53:29Z</time>
<desc>lat.=42.443871, lon.=18.579817, Alt.=16.368423m. Speed=0.396000m/h.</desc>
<speed>0.110000</speed>
</trkpt>
<trkpt lat="42.443874" lon="18.579819">
<ele>16.287857</ele>
<time>2012-05-02T15:53:34Z</time>
<desc>lat.=42.443874, lon.=18.579819, Alt.=16.287857m. Speed=0.324000m/h.</desc>
<speed>0.090000</speed>
</trkpt>
<trkpt lat="42.443874" lon="18.579819">
<ele>16.246841</ele>
<time>2012-05-02T15:53:39Z</time>
<desc>lat.=42.443874, lon.=18.579819, Alt.=16.246841m. Speed=0.216000m/h.</desc>
<speed>0.060000</speed>
</trkpt>
<trkpt lat="42.443874" lon="18.579817">
<ele>16.231216</ele>
<time>2012-05-02T15:53:44Z</time>
<desc>lat.=42.443874, lon.=18.579817, Alt.=16.231216m. Speed=0.108000m/h.</desc>
<speed>0.030000</speed>
</trkpt>
<trkpt lat="42.443874" lon="18.579817">
<ele>16.212662</ele>
<time>2012-05-02T15:53:49Z</time>
<desc>lat.=42.443874, lon.=18.579817, Alt.=16.212662m. Speed=0.108000m/h.</desc>
<speed>0.030000</speed>
</trkpt>
<trkpt lat="42.443874" lon="18.579817">
<ele>16.193130</ele>
<time>2012-05-02T15:53:54Z</time>
<desc>lat.=42.443874, lon.=18.579817, Alt.=16.193130m. Speed=0.108000m/h.</desc>
<speed>0.030000</speed>
</trkpt>
<trkpt lat="42.443874" lon="18.579815">
<ele>16.180435</ele>
<time>2012-05-02T15:53:59Z</time>
<desc>lat.=42.443874, lon.=18.579815, Alt.=16.180435m. Speed=0.072000m/h.</desc>
<speed>0.020000</speed>
</trkpt>
<trkpt lat="42.443871" lon="18.579815">
<ele>16.174088</ele>
<time>2012-05-02T15:54:04Z</time>
<desc>lat.=42.443871, lon.=18.579815, Alt.=16.174088m. Speed=0.000000m/h.</desc>
<speed>0.000000</speed>
</trkpt>
<trkpt lat="42.443871" lon="18.579815">
<ele>16.152115</ele>
<time>2012-05-02T15:54:09Z</time>
<desc>lat.=42.443871, lon.=18.579815, Alt.=16.152115m. Speed=0.000000m/h.</desc>
<speed>0.000000</speed>
</trkpt>
<trkpt lat="42.443871" lon="18.579815">
<ele>16.136002</ele>
<time>2012-05-02T15:54:14Z</time>
<desc>lat.=42.443871, lon.=18.579815, Alt.=16.136002m. Speed=0.036000m/h.</desc>
<speed>0.010000</speed>
</trkpt>
<trkpt lat="42.443871" lon="18.579815">
<ele>16.115005</ele>
<time>2012-05-02T15:54:19Z</time>
<desc>lat.=42.443871, lon.=18.579815, Alt.=16.115005m. Speed=0.000000m/h.</desc>
<speed>0.000000</speed>
</trkpt>
<trkpt lat="42.443871" lon="18.579815">
<ele>16.093033</ele>
<time>2012-05-02T15:54:24Z</time>
<desc>lat.=42.443871, lon.=18.579815, Alt.=16.093033m. Speed=0.036000m/h.</desc>
<speed>0.010000</speed>
</trkpt>
<trkpt lat="42.443871" lon="18.579815">
<ele>16.070572</ele>
<time>2012-05-02T15:54:29Z</time>
<desc>lat.=42.443871, lon.=18.579815, Alt.=16.070572m. Speed=0.000000m/h.</desc>
<speed>0.000000</speed>
</trkpt>
<trkpt lat="42.443871" lon="18.579813">
<ele>16.050064</ele>
<time>2012-05-02T15:54:34Z</time>
<desc>lat.=42.443871, lon.=18.579813, Alt.=16.050064m. Speed=0.000000m/h.</desc>
<speed>0.000000</speed>
</trkpt>
<trkpt lat="42.443871" lon="18.579813">
<ele>16.029556</ele>
<time>2012-05-02T15:54:39Z</time>
<desc>lat.=42.443871, lon.=18.579813, Alt.=16.029556m. Speed=0.000000m/h.</desc>
<speed>0.000000</speed>
</trkpt>
<trkpt lat="42.443871" lon="18.579813">
<ele>16.008072</ele>
<time>2012-05-02T15:54:44Z</time>
<desc>lat.=42.443871, lon.=18.579813, Alt.=16.008072m. Speed=0.036000m/h.</desc>
<speed>0.010000</speed>
</trkpt>
<trkpt lat="42.443871" lon="18.579813">
<ele>15.995735</ele>
<time>2012-05-02T15:54:49Z</time>
<desc>lat.=42.443871, lon.=18.579813, Alt.=15.995735m. Speed=0.000000m/h.</desc>
<speed>0.000000</speed>
</trkpt>
<trkpt lat="42.443874" lon="18.579813">
<ele>15.985237</ele>
<time>2012-05-02T15:54:54Z</time>
<desc>lat.=42.443874, lon.=18.579813, Alt.=15.985237m. Speed=0.036000m/h.</desc>
<speed>0.010000</speed>
</trkpt>
<trkpt lat="42.443874" lon="18.579813">
<ele>15.981575</ele>
<time>2012-05-02T15:54:59Z</time>
<desc>lat.=42.443874, lon.=18.579813, Alt.=15.981575m. Speed=0.468000m/h.</desc>
<speed>0.130000</speed>
</trkpt>
<trkpt lat="42.443874" lon="18.579813">
<ele>15.980598</ele>
<time>2012-05-02T15:55:04Z</time>
<desc>lat.=42.443874, lon.=18.579813, Alt.=15.980598m. Speed=0.036000m/h.</desc>
<speed>0.010000</speed>
</trkpt>
<trkpt lat="42.443890" lon="18.579777">
<ele>16.060318</ele>
<time>2012-05-02T15:55:09Z</time>
<desc>lat.=42.443890, lon.=18.579777, Alt.=16.060318m. Speed=6.012000m/h.</desc>
<speed>1.670000</speed>
</trkpt>
<trkpt lat="42.443954" lon="18.579603">
<ele>16.823502</ele>
<time>2012-05-02T15:55:14Z</time>
<desc>lat.=42.443954, lon.=18.579603, Alt.=16.823502m. Speed=16.379999m/h.</desc>
<speed>4.550000</speed>
</trkpt>
<trkpt lat="42.444111" lon="18.579336">
<ele>18.507095</ele>
<time>2012-05-02T15:55:19Z</time>
<desc>lat.=42.444111, lon.=18.579336, Alt.=18.507095m. Speed=18.216000m/h.</desc>
<speed>5.060000</speed>
</trkpt>
<trkpt lat="42.444248" lon="18.579086">
<ele>19.649185</ele>
<time>2012-05-02T15:55:24Z</time>
<desc>lat.=42.444248, lon.=18.579086, Alt.=19.649185m. Speed=20.412001m/h.</desc>
<speed>5.670000</speed>
</trkpt>
<trkpt lat="42.444420" lon="18.578751">
<ele>21.963638</ele>
<time>2012-05-02T15:55:29Z</time>
<desc>lat.=42.444420, lon.=18.578751, Alt.=21.963638m. Speed=21.563999m/h.</desc>
<speed>5.990000</speed>
</trkpt>
<trkpt lat="42.444603" lon="18.578440">
<ele>24.393814</ele>
<time>2012-05-02T15:55:34Z</time>
<desc>lat.=42.444603, lon.=18.578440, Alt.=24.393814m. Speed=23.364000m/h.</desc>
<speed>6.490000</speed>
</trkpt>
<trkpt lat="42.444836" lon="18.578098">
<ele>24.567642</ele>
<time>2012-05-02T15:55:39Z</time>
<desc>lat.=42.444836, lon.=18.578098, Alt.=24.567642m. Speed=26.820000m/h.</desc>
<speed>7.450000</speed>
</trkpt>
<trkpt lat="42.445213" lon="18.577801">
<ele>17.320572</ele>
<time>2012-05-02T15:55:44Z</time>
<desc>lat.=42.445213, lon.=18.577801, Alt.=17.320572m. Speed=30.888000m/h.</desc>
<speed>8.580000</speed>
</trkpt>
<trkpt lat="42.445602" lon="18.577568">
<ele>14.808479</ele>
<time>2012-05-02T15:55:49Z</time>
<desc>lat.=42.445602, lon.=18.577568, Alt.=14.808479m. Speed=33.012001m/h.</desc>
<speed>9.170000</speed>
</trkpt>
<trkpt lat="42.445980" lon="18.577286">
<ele>11.257210</ele>
<time>2012-05-02T15:55:54Z</time>
<desc>lat.=42.445980, lon.=18.577286, Alt.=11.257210m. Speed=32.759998m/h.</desc>
<speed>9.100000</speed>
</trkpt>
<trkpt lat="42.446312" lon="18.577007">
<ele>9.472054</ele>
<time>2012-05-02T15:55:59Z</time>
<desc>lat.=42.446312, lon.=18.577007, Alt.=9.472054m. Speed=30.492001m/h.</desc>
<speed>8.470000</speed>
</trkpt>
<trkpt lat="42.446629" lon="18.576740">
<ele>9.358772</ele>
<time>2012-05-02T15:56:04Z</time>
<desc>lat.=42.446629, lon.=18.576740, Alt.=9.358772m. Speed=28.764000m/h.</desc>
<speed>7.990000</speed>
</trkpt>
<trkpt lat="42.446949" lon="18.576488">
<ele>10.588509</ele>
<time>2012-05-02T15:56:09Z</time>
<desc>lat.=42.446949, lon.=18.576488, Alt.=10.588509m. Speed=29.736000m/h.</desc>
<speed>8.260000</speed>
</trkpt>
<trkpt lat="42.447262" lon="18.576206">
<ele>13.284798</ele>
<time>2012-05-02T15:56:14Z</time>
<desc>lat.=42.447262, lon.=18.576206, Alt.=13.284798m. Speed=29.124001m/h.</desc>
<speed>8.090000</speed>
</trkpt>
<trkpt lat="42.447552" lon="18.575903">
<ele>17.536392</ele>
<time>2012-05-02T15:56:19Z</time>
<desc>lat.=42.447552, lon.=18.575903, Alt.=17.536392m. Speed=27.576000m/h.</desc>
<speed>7.660000</speed>
</trkpt>
<trkpt lat="42.447823" lon="18.575575">
<ele>18.445084</ele>
<time>2012-05-02T15:56:24Z</time>
<desc>lat.=42.447823, lon.=18.575575, Alt.=18.445084m. Speed=25.128000m/h.</desc>
<speed>6.980000</speed>
</trkpt>
<trkpt lat="42.448063" lon="18.575323">
<ele>18.919205</ele>
<time>2012-05-02T15:56:29Z</time>
<desc>lat.=42.448063, lon.=18.575323, Alt.=18.919205m. Speed=24.228001m/h.</desc>
<speed>6.730000</speed>
</trkpt>
<trkpt lat="42.448277" lon="18.575045">
<ele>19.186295</ele>
<time>2012-05-02T15:56:34Z</time>
<desc>lat.=42.448277, lon.=18.575045, Alt.=19.186295m. Speed=22.427999m/h.</desc>
<speed>6.230000</speed>
</trkpt>
<trkpt lat="42.448502" lon="18.574827">
<ele>20.804459</ele>
<time>2012-05-02T15:56:39Z</time>
<desc>lat.=42.448502, lon.=18.574827, Alt.=20.804459m. Speed=21.059999m/h.</desc>
<speed>5.850000</speed>
</trkpt>
<trkpt lat="42.448727" lon="18.574577">
<ele>18.885025</ele>
<time>2012-05-02T15:56:44Z</time>
<desc>lat.=42.448727, lon.=18.574577, Alt.=18.885025m. Speed=21.420000m/h.</desc>
<speed>5.950000</speed>
</trkpt>
<trkpt lat="42.448971" lon="18.574329">
<ele>17.752701</ele>
<time>2012-05-02T15:56:49Z</time>
<desc>lat.=42.448971, lon.=18.574329, Alt.=17.752701m. Speed=23.976000m/h.</desc>
<speed>6.660000</speed>
</trkpt>
<trkpt lat="42.449242" lon="18.574041">
<ele>15.703743</ele>
<time>2012-05-02T15:56:54Z</time>
<desc>lat.=42.449242, lon.=18.574041, Alt.=15.703743m. Speed=24.336000m/h.</desc>
<speed>6.760000</speed>
</trkpt>
<trkpt lat="42.449532" lon="18.573822">
<ele>14.747444</ele>
<time>2012-05-02T15:56:59Z</time>
<desc>lat.=42.449532, lon.=18.573822, Alt.=14.747444m. Speed=21.275999m/h.</desc>
<speed>5.910000</speed>
</trkpt>
<trkpt lat="42.449810" lon="18.573719">
<ele>15.073860</ele>
<time>2012-05-02T15:57:04Z</time>
<desc>lat.=42.449810, lon.=18.573719, Alt.=15.073860m. Speed=22.788000m/h.</desc>
<speed>6.330000</speed>
</trkpt>
<trkpt lat="42.450089" lon="18.573591">
<ele>14.431770</ele>
<time>2012-05-02T15:57:09Z</time>
<desc>lat.=42.450089, lon.=18.573591, Alt.=14.431770m. Speed=24.191999m/h.</desc>
<speed>6.720000</speed>
</trkpt>
<trkpt lat="42.450386" lon="18.573412">
<ele>12.875862</ele>
<time>2012-05-02T15:57:14Z</time>
<desc>lat.=42.450386, lon.=18.573412, Alt.=12.875862m. Speed=21.240000m/h.</desc>
<speed>5.900000</speed>
</trkpt>
<trkpt lat="42.450619" lon="18.573214">
<ele>11.244270</ele>
<time>2012-05-02T15:57:19Z</time>
<desc>lat.=42.450619, lon.=18.573214, Alt.=11.244270m. Speed=23.796000m/h.</desc>
<speed>6.610000</speed>
</trkpt>
<trkpt lat="42.450867" lon="18.572971">
<ele>10.324837</ele>
<time>2012-05-02T15:57:24Z</time>
<desc>lat.=42.450867, lon.=18.572971, Alt.=10.324837m. Speed=24.732000m/h.</desc>
<speed>6.870000</speed>
</trkpt>
<trkpt lat="42.451115" lon="18.572729">
<ele>8.703743</ele>
<time>2012-05-02T15:57:29Z</time>
<desc>lat.=42.451115, lon.=18.572729, Alt.=8.703743m. Speed=21.384001m/h.</desc>
<speed>5.940000</speed>
</trkpt>
<trkpt lat="42.451336" lon="18.572466">
<ele>6.125187</ele>
<time>2012-05-02T15:57:34Z</time>
<desc>lat.=42.451336, lon.=18.572466, Alt.=6.125187m. Speed=23.472000m/h.</desc>
<speed>6.520000</speed>
</trkpt>
<trkpt lat="42.451519" lon="18.572193">
<ele>7.526188</ele>
<time>2012-05-02T15:57:39Z</time>
<desc>lat.=42.451519, lon.=18.572193, Alt.=7.526188m. Speed=20.591999m/h.</desc>
<speed>5.720000</speed>
</trkpt>
<trkpt lat="42.451687" lon="18.571947">
<ele>9.274544</ele>
<time>2012-05-02T15:57:44Z</time>
<desc>lat.=42.451687, lon.=18.571947, Alt.=9.274544m. Speed=17.351999m/h.</desc>
<speed>4.820000</speed>
</trkpt>
<trkpt lat="42.451801" lon="18.571621">
<ele>10.722298</ele>
<time>2012-05-02T15:57:49Z</time>
<desc>lat.=42.451801, lon.=18.571621, Alt.=10.722298m. Speed=15.444000m/h.</desc>
<speed>4.290000</speed>
</trkpt>
<trkpt lat="42.451885" lon="18.571527">
<ele>12.736214</ele>
<time>2012-05-02T15:57:54Z</time>
<desc>lat.=42.451885, lon.=18.571527, Alt.=12.736214m. Speed=5.292000m/h.</desc>
<speed>1.470000</speed>
</trkpt>
<trkpt lat="42.451885" lon="18.571476">
<ele>14.015511</ele>
<time>2012-05-02T15:57:59Z</time>
<desc>lat.=42.451885, lon.=18.571476, Alt.=14.015511m. Speed=4.428000m/h.</desc>
<speed>1.230000</speed>
</trkpt>
<trkpt lat="42.451862" lon="18.571396">
<ele>15.104622</ele>
<time>2012-05-02T15:58:04Z</time>
<desc>lat.=42.451862, lon.=18.571396, Alt.=15.104622m. Speed=0.936000m/h.</desc>
<speed>0.260000</speed>
</trkpt>
<trkpt lat="42.451855" lon="18.571354">
<ele>15.251106</ele>
<time>2012-05-02T15:58:09Z</time>
<desc>lat.=42.451855, lon.=18.571354, Alt.=15.251106m. Speed=0.324000m/h.</desc>
<speed>0.090000</speed>
</trkpt>
<trkpt lat="42.451859" lon="18.571350">
<ele>15.505501</ele>
<time>2012-05-02T15:58:14Z</time>
<desc>lat.=42.451859, lon.=18.571350, Alt.=15.505501m. Speed=0.324000m/h.</desc>
<speed>0.090000</speed>
</trkpt>
<trkpt lat="42.451859" lon="18.571350">
<ele>15.669319</ele>
<time>2012-05-02T15:58:19Z</time>
<desc>lat.=42.451859, lon.=18.571350, Alt.=15.669319m. Speed=0.072000m/h.</desc>
<speed>0.020000</speed>
</trkpt>
<trkpt lat="42.451859" lon="18.571348">
<ele>15.733040</ele>
<time>2012-05-02T15:58:24Z</time>
<desc>lat.=42.451859, lon.=18.571348, Alt.=15.733040m. Speed=0.396000m/h.</desc>
<speed>0.110000</speed>
</trkpt>
<trkpt lat="42.451851" lon="18.571358">
<ele>15.749397</ele>
<time>2012-05-02T15:58:29Z</time>
<desc>lat.=42.451851, lon.=18.571358, Alt.=15.749397m. Speed=0.972000m/h.</desc>
<speed>0.270000</speed>
</trkpt>
<trkpt lat="42.451843" lon="18.571363">
<ele>15.764778</ele>
<time>2012-05-02T15:58:34Z</time>
<desc>lat.=42.451843, lon.=18.571363, Alt.=15.764778m. Speed=0.468000m/h.</desc>
<speed>0.130000</speed>
</trkpt>
<trkpt lat="42.451855" lon="18.571344">
<ele>15.846077</ele>
<time>2012-05-02T15:58:39Z</time>
<desc>lat.=42.451855, lon.=18.571344, Alt.=15.846077m. Speed=1.476000m/h.</desc>
<speed>0.410000</speed>
</trkpt>
<trkpt lat="42.451912" lon="18.571205">
<ele>16.154068</ele>
<time>2012-05-02T15:58:44Z</time>
<desc>lat.=42.451912, lon.=18.571205, Alt.=16.154068m. Speed=10.368000m/h.</desc>
<speed>2.880000</speed>
</trkpt>
<trkpt lat="42.452057" lon="18.570963">
<ele>16.352310</ele>
<time>2012-05-02T15:58:49Z</time>
<desc>lat.=42.452057, lon.=18.570963, Alt.=16.352310m. Speed=21.132000m/h.</desc>
<speed>5.870000</speed>
</trkpt>
<trkpt lat="42.452267" lon="18.570683">
<ele>18.577896</ele>
<time>2012-05-02T15:58:54Z</time>
<desc>lat.=42.452267, lon.=18.570683, Alt.=18.577896m. Speed=26.100000m/h.</desc>
<speed>7.250000</speed>
</trkpt>
<trkpt lat="42.452507" lon="18.570320">
<ele>18.469009</ele>
<time>2012-05-02T15:58:59Z</time>
<desc>lat.=42.452507, lon.=18.570320, Alt.=18.469009m. Speed=27.576000m/h.</desc>
<speed>7.660000</speed>
</trkpt>
<trkpt lat="42.452736" lon="18.570068">
<ele>20.324478</ele>
<time>2012-05-02T15:59:04Z</time>
<desc>lat.=42.452736, lon.=18.570068, Alt.=20.324478m. Speed=22.500000m/h.</desc>
<speed>6.250000</speed>
</trkpt>
<trkpt lat="42.452976" lon="18.569805">
<ele>21.852798</ele>
<time>2012-05-02T15:59:09Z</time>
<desc>lat.=42.452976, lon.=18.569805, Alt.=21.852798m. Speed=24.804001m/h.</desc>
<speed>6.890000</speed>
</trkpt>
<trkpt lat="42.453220" lon="18.569586">
<ele>22.902603</ele>
<time>2012-05-02T15:59:14Z</time>
<desc>lat.=42.453220, lon.=18.569586, Alt.=22.902603m. Speed=21.275999m/h.</desc>
<speed>5.910000</speed>
</trkpt>
<trkpt lat="42.453403" lon="18.569376">
<ele>23.790298</ele>
<time>2012-05-02T15:59:19Z</time>
<desc>lat.=42.453403, lon.=18.569376, Alt.=23.790298m. Speed=17.964001m/h.</desc>
<speed>4.990000</speed>
</trkpt>
<trkpt lat="42.453598" lon="18.569153">
<ele>25.607681</ele>
<time>2012-05-02T15:59:24Z</time>
<desc>lat.=42.453598, lon.=18.569153, Alt.=25.607681m. Speed=20.087999m/h.</desc>
<speed>5.580000</speed>
</trkpt>
<trkpt lat="42.453785" lon="18.569002">
<ele>24.926529</ele>
<time>2012-05-02T15:59:29Z</time>
<desc>lat.=42.453785, lon.=18.569002, Alt.=24.926529m. Speed=14.688000m/h.</desc>
<speed>4.080000</speed>
</trkpt>
<trkpt lat="42.453938" lon="18.568892">
<ele>24.611588</ele>
<time>2012-05-02T15:59:34Z</time>
<desc>lat.=42.453938, lon.=18.568892, Alt.=24.611588m. Speed=15.084000m/h.</desc>
<speed>4.190000</speed>
</trkpt>
<trkpt lat="42.454082" lon="18.568737">
<ele>26.713150</ele>
<time>2012-05-02T15:59:39Z</time>
<desc>lat.=42.454082, lon.=18.568737, Alt.=26.713150m. Speed=15.120000m/h.</desc>
<speed>4.200000</speed>
</trkpt>
<trkpt lat="42.454235" lon="18.568567">
<ele>26.621841</ele>
<time>2012-05-02T15:59:44Z</time>
<desc>lat.=42.454235, lon.=18.568567, Alt.=26.621841m. Speed=10.548000m/h.</desc>
<speed>2.930000</speed>
</trkpt>
<trkpt lat="42.454376" lon="18.568430">
<ele>28.437271</ele>
<time>2012-05-02T15:59:49Z</time>
<desc>lat.=42.454376, lon.=18.568430, Alt.=28.437271m. Speed=11.484000m/h.</desc>
<speed>3.190000</speed>
</trkpt>
<trkpt lat="42.454510" lon="18.568304">
<ele>30.819595</ele>
<time>2012-05-02T15:59:54Z</time>
<desc>lat.=42.454510, lon.=18.568304, Alt.=30.819595m. Speed=12.564000m/h.</desc>
<speed>3.490000</speed>
</trkpt>
<trkpt lat="42.454655" lon="18.568134">
<ele>33.321808</ele>
<time>2012-05-02T15:59:59Z</time>
<desc>lat.=42.454655, lon.=18.568134, Alt.=33.321808m. Speed=18.000000m/h.</desc>
<speed>5.000000</speed>
</trkpt>
<trkpt lat="42.454796" lon="18.567921">
<ele>34.892120</ele>
<time>2012-05-02T16:00:04Z</time>
<desc>lat.=42.454796, lon.=18.567921, Alt.=34.892120m. Speed=17.964001m/h.</desc>
<speed>4.990000</speed>
</trkpt>
<trkpt lat="42.454788" lon="18.567822">
<ele>34.477081</ele>
<time>2012-05-02T16:00:09Z</time>
<desc>lat.=42.454788, lon.=18.567822, Alt.=34.477081m. Speed=3.024000m/h.</desc>
<speed>0.840000</speed>
</trkpt>
<trkpt lat="42.455563" lon="18.566233">
<ele>66.243225</ele>
<time>2012-05-02T16:00:33Z</time>
<desc>lat.=42.455563, lon.=18.566233, Alt.=66.243225m. Speed=16.667999m/h.</desc>
<speed>4.630000</speed>
</trkpt>
<trkpt lat="42.455692" lon="18.566133">
<ele>11.115852</ele>
<time>2012-05-02T16:00:38Z</time>
<desc>lat.=42.455692, lon.=18.566133, Alt.=11.115852m. Speed=18.756001m/h.</desc>
<speed>5.210000</speed>
</trkpt>
<trkpt lat="42.455738" lon="18.565872">
<ele>18.574966</ele>
<time>2012-05-02T16:00:43Z</time>
<desc>lat.=42.455738, lon.=18.565872, Alt.=18.574966m. Speed=16.056000m/h.</desc>
<speed>4.460000</speed>
</trkpt>
<trkpt lat="42.455780" lon="18.565536">
<ele>17.820084</ele>
<time>2012-05-02T16:00:48Z</time>
<desc>lat.=42.455780, lon.=18.565536, Alt.=17.820084m. Speed=20.412001m/h.</desc>
<speed>5.670000</speed>
</trkpt>
<trkpt lat="42.455803" lon="18.565113">
<ele>13.932014</ele>
<time>2012-05-02T16:00:53Z</time>
<desc>lat.=42.455803, lon.=18.565113, Alt.=13.932014m. Speed=23.112000m/h.</desc>
<speed>6.420000</speed>
</trkpt>
<trkpt lat="42.455776" lon="18.564684">
<ele>11.721565</ele>
<time>2012-05-02T16:00:58Z</time>
<desc>lat.=42.455776, lon.=18.564684, Alt.=11.721565m. Speed=25.775999m/h.</desc>
<speed>7.160000</speed>
</trkpt>
<trkpt lat="42.455639" lon="18.564196">
<ele>12.969856</ele>
<time>2012-05-02T16:01:03Z</time>
<desc>lat.=42.455639, lon.=18.564196, Alt.=12.969856m. Speed=27.827999m/h.</desc>
<speed>7.730000</speed>
</trkpt>
<trkpt lat="42.455517" lon="18.563665">
<ele>10.418831</ele>
<time>2012-05-02T16:01:08Z</time>
<desc>lat.=42.455517, lon.=18.563665, Alt.=10.418831m. Speed=32.400002m/h.</desc>
<speed>9.000000</speed>
</trkpt>
<trkpt lat="42.455399" lon="18.563038">
<ele>11.289192</ele>
<time>2012-05-02T16:01:13Z</time>
<desc>lat.=42.455399, lon.=18.563038, Alt.=11.289192m. Speed=31.752001m/h.</desc>
<speed>8.820000</speed>
</trkpt>
<trkpt lat="42.455322" lon="18.562469">
<ele>9.525032</ele>
<time>2012-05-02T16:01:18Z</time>
<desc>lat.=42.455322, lon.=18.562469, Alt.=9.525032m. Speed=34.416000m/h.</desc>
<speed>9.560000</speed>
</trkpt>
<trkpt lat="42.455235" lon="18.561943">
<ele>6.408024</ele>
<time>2012-05-02T16:01:23Z</time>
<desc>lat.=42.455235, lon.=18.561943, Alt.=6.408024m. Speed=32.723999m/h.</desc>
<speed>9.090000</speed>
</trkpt>
<trkpt lat="42.455227" lon="18.561403">
<ele>5.832462</ele>
<time>2012-05-02T16:01:28Z</time>
<desc>lat.=42.455227, lon.=18.561403, Alt.=5.832462m. Speed=31.427999m/h.</desc>
<speed>8.730000</speed>
</trkpt>
<trkpt lat="42.455231" lon="18.560892">
<ele>4.800968</ele>
<time>2012-05-02T16:01:33Z</time>
<desc>lat.=42.455231, lon.=18.560892, Alt.=4.800968m. Speed=29.304001m/h.</desc>
<speed>8.140000</speed>
</trkpt>
<trkpt lat="42.455261" lon="18.560373">
<ele>4.953312</ele>
<time>2012-05-02T16:01:38Z</time>
<desc>lat.=42.455261, lon.=18.560373, Alt.=4.953312m. Speed=30.492001m/h.</desc>
<speed>8.470000</speed>
</trkpt>
<trkpt lat="42.455269" lon="18.559891">
<ele>5.402775</ele>
<time>2012-05-02T16:01:43Z</time>
<desc>lat.=42.455269, lon.=18.559891, Alt.=5.402775m. Speed=26.424000m/h.</desc>
<speed>7.340000</speed>
</trkpt>
<trkpt lat="42.455284" lon="18.559437">
<ele>3.992220</ele>
<time>2012-05-02T16:01:48Z</time>
<desc>lat.=42.455284, lon.=18.559437, Alt.=3.992220m. Speed=25.704000m/h.</desc>
<speed>7.140000</speed>
</trkpt>
<trkpt lat="42.455257" lon="18.559032">
<ele>2.911776</ele>
<time>2012-05-02T16:01:53Z</time>
<desc>lat.=42.455257, lon.=18.559032, Alt.=2.911776m. Speed=22.535999m/h.</desc>
<speed>6.260000</speed>
</trkpt>
<trkpt lat="42.455200" lon="18.558691">
<ele>6.374943</ele>
<time>2012-05-02T16:01:58Z</time>
<desc>lat.=42.455200, lon.=18.558691, Alt.=6.374943m. Speed=20.736000m/h.</desc>
<speed>5.760000</speed>
</trkpt>
<trkpt lat="42.455261" lon="18.558357">
<ele>9.294075</ele>
<time>2012-05-02T16:02:03Z</time>
<desc>lat.=42.455261, lon.=18.558357, Alt.=9.294075m. Speed=21.563999m/h.</desc>
<speed>5.990000</speed>
</trkpt>
<trkpt lat="42.455040" lon="18.558212">
<ele>13.349251</ele>
<time>2012-05-02T16:02:08Z</time>
<desc>lat.=42.455040, lon.=18.558212, Alt.=13.349251m. Speed=22.212000m/h.</desc>
<speed>6.170000</speed>
</trkpt>
<trkpt lat="42.454792" lon="18.558449">
<ele>16.985611</ele>
<time>2012-05-02T16:02:13Z</time>
<desc>lat.=42.454792, lon.=18.558449, Alt.=16.985611m. Speed=24.804001m/h.</desc>
<speed>6.890000</speed>
</trkpt>
<trkpt lat="42.454460" lon="18.558569">
<ele>19.768326</ele>
<time>2012-05-02T16:02:18Z</time>
<desc>lat.=42.454460, lon.=18.558569, Alt.=19.768326m. Speed=31.032000m/h.</desc>
<speed>8.620000</speed>
</trkpt>
<trkpt lat="42.454079" lon="18.558569">
<ele>22.456802</ele>
<time>2012-05-02T16:02:23Z</time>
<desc>lat.=42.454079, lon.=18.558569, Alt.=22.456802m. Speed=27.900000m/h.</desc>
<speed>7.750000</speed>
</trkpt>
<trkpt lat="42.453735" lon="18.558491">
<ele>25.057388</ele>
<time>2012-05-02T16:02:28Z</time>
<desc>lat.=42.453735, lon.=18.558491, Alt.=25.057388m. Speed=25.452000m/h.</desc>
<speed>7.070000</speed>
</trkpt>
<trkpt lat="42.453480" lon="18.558348">
<ele>27.977798</ele>
<time>2012-05-02T16:02:33Z</time>
<desc>lat.=42.453480, lon.=18.558348, Alt.=27.977798m. Speed=15.696000m/h.</desc>
<speed>4.360000</speed>
</trkpt>
<trkpt lat="42.453358" lon="18.558290">
<ele>30.892349</ele>
<time>2012-05-02T16:02:38Z</time>
<desc>lat.=42.453358, lon.=18.558290, Alt.=30.892349m. Speed=9.180000m/h.</desc>
<speed>2.550000</speed>
</trkpt>
<trkpt lat="42.453243" lon="18.558128">
<ele>33.842316</ele>
<time>2012-05-02T16:02:43Z</time>
<desc>lat.=42.453243, lon.=18.558128, Alt.=33.842316m. Speed=11.520000m/h.</desc>
<speed>3.200000</speed>
</trkpt>
<trkpt lat="42.453102" lon="18.558014">
<ele>36.983917</ele>
<time>2012-05-02T16:02:48Z</time>
<desc>lat.=42.453102, lon.=18.558014, Alt.=36.983917m. Speed=10.908000m/h.</desc>
<speed>3.030000</speed>
</trkpt>
<trkpt lat="42.452938" lon="18.557888">
<ele>39.216339</ele>
<time>2012-05-02T16:02:53Z</time>
<desc>lat.=42.452938, lon.=18.557888, Alt.=39.216339m. Speed=12.672000m/h.</desc>
<speed>3.520000</speed>
</trkpt>
<trkpt lat="42.452801" lon="18.557732">
<ele>41.639191</ele>
<time>2012-05-02T16:02:58Z</time>
<desc>lat.=42.452801, lon.=18.557732, Alt.=41.639191m. Speed=12.204000m/h.</desc>
<speed>3.390000</speed>
</trkpt>
<trkpt lat="42.452732" lon="18.557495">
<ele>43.784698</ele>
<time>2012-05-02T16:03:03Z</time>
<desc>lat.=42.452732, lon.=18.557495, Alt.=43.784698m. Speed=13.536000m/h.</desc>
<speed>3.760000</speed>
</trkpt>
<trkpt lat="42.452583" lon="18.557173">
<ele>45.535675</ele>
<time>2012-05-02T16:03:08Z</time>
<desc>lat.=42.452583, lon.=18.557173, Alt.=45.535675m. Speed=20.268000m/h.</desc>
<speed>5.630000</speed>
</trkpt>
<trkpt lat="42.452473" lon="18.556889">
<ele>46.775909</ele>
<time>2012-05-02T16:03:13Z</time>
<desc>lat.=42.452473, lon.=18.556889, Alt.=46.775909m. Speed=13.536000m/h.</desc>
<speed>3.760000</speed>
</trkpt>
<trkpt lat="42.452374" lon="18.556698">
<ele>48.131378</ele>
<time>2012-05-02T16:03:18Z</time>
<desc>lat.=42.452374, lon.=18.556698, Alt.=48.131378m. Speed=15.156000m/h.</desc>
<speed>4.210000</speed>
</trkpt>
<trkpt lat="42.452236" lon="18.556494">
<ele>49.010284</ele>
<time>2012-05-02T16:03:23Z</time>
<desc>lat.=42.452236, lon.=18.556494, Alt.=49.010284m. Speed=17.172001m/h.</desc>
<speed>4.770000</speed>
</trkpt>
<trkpt lat="42.452099" lon="18.556292">
<ele>49.353058</ele>
<time>2012-05-02T16:03:28Z</time>
<desc>lat.=42.452099, lon.=18.556292, Alt.=49.353058m. Speed=14.076000m/h.</desc>
<speed>3.910000</speed>
</trkpt>
<trkpt lat="42.451973" lon="18.556076">
<ele>47.883331</ele>
<time>2012-05-02T16:03:33Z</time>
<desc>lat.=42.451973, lon.=18.556076, Alt.=47.883331m. Speed=14.688000m/h.</desc>
<speed>4.080000</speed>
</trkpt>
<trkpt lat="42.451851" lon="18.555868">
<ele>48.359894</ele>
<time>2012-05-02T16:03:38Z</time>
<desc>lat.=42.451851, lon.=18.555868, Alt.=48.359894m. Speed=14.796000m/h.</desc>
<speed>4.110000</speed>
</trkpt>
<trkpt lat="42.451794" lon="18.555635">
<ele>49.077667</ele>
<time>2012-05-02T16:03:43Z</time>
<desc>lat.=42.451794, lon.=18.555635, Alt.=49.077667m. Speed=15.228000m/h.</desc>
<speed>4.230000</speed>
</trkpt>
<trkpt lat="42.451733" lon="18.555387">
<ele>48.719269</ele>
<time>2012-05-02T16:03:48Z</time>
<desc>lat.=42.451733, lon.=18.555387, Alt.=48.719269m. Speed=14.256000m/h.</desc>
<speed>3.960000</speed>
</trkpt>
<trkpt lat="42.451679" lon="18.555132">
<ele>48.274933</ele>
<time>2012-05-02T16:03:53Z</time>
<desc>lat.=42.451679, lon.=18.555132, Alt.=48.274933m. Speed=14.292000m/h.</desc>
<speed>3.970000</speed>
</trkpt>
<trkpt lat="42.451641" lon="18.554905">
<ele>48.163605</ele>
<time>2012-05-02T16:03:58Z</time>
<desc>lat.=42.451641, lon.=18.554905, Alt.=48.163605m. Speed=14.004000m/h.</desc>
<speed>3.890000</speed>
</trkpt>
<trkpt lat="42.451614" lon="18.554659">
<ele>48.004425</ele>
<time>2012-05-02T16:04:03Z</time>
<desc>lat.=42.451614, lon.=18.554659, Alt.=48.004425m. Speed=15.444000m/h.</desc>
<speed>4.290000</speed>
</trkpt>
<trkpt lat="42.451595" lon="18.554413">
<ele>47.904816</ele>
<time>2012-05-02T16:04:08Z</time>
<desc>lat.=42.451595, lon.=18.554413, Alt.=47.904816m. Speed=13.860000m/h.</desc>
<speed>3.850000</speed>
</trkpt>
<trkpt lat="42.451557" lon="18.554180">
<ele>47.136261</ele>
<time>2012-05-02T16:04:13Z</time>
<desc>lat.=42.451557, lon.=18.554180, Alt.=47.136261m. Speed=15.048000m/h.</desc>
<speed>4.180000</speed>
</trkpt>
<trkpt lat="42.451550" lon="18.553926">
<ele>46.619659</ele>
<time>2012-05-02T16:04:18Z</time>
<desc>lat.=42.451550, lon.=18.553926, Alt.=46.619659m. Speed=9.900000m/h.</desc>
<speed>2.750000</speed>
</trkpt>
<trkpt lat="42.451500" lon="18.553638">
<ele>46.122589</ele>
<time>2012-05-02T16:04:23Z</time>
<desc>lat.=42.451500, lon.=18.553638, Alt.=46.122589m. Speed=12.888000m/h.</desc>
<speed>3.580000</speed>
</trkpt>
<trkpt lat="42.451397" lon="18.553406">
<ele>46.271027</ele>
<time>2012-05-02T16:04:28Z</time>
<desc>lat.=42.451397, lon.=18.553406, Alt.=46.271027m. Speed=12.096000m/h.</desc>
<speed>3.360000</speed>
</trkpt>
<trkpt lat="42.451290" lon="18.553253">
<ele>46.714386</ele>
<time>2012-05-02T16:04:33Z</time>
<desc>lat.=42.451290, lon.=18.553253, Alt.=46.714386m. Speed=16.667999m/h.</desc>
<speed>4.630000</speed>
</trkpt>
<trkpt lat="42.451103" lon="18.553055">
<ele>45.748566</ele>
<time>2012-05-02T16:04:38Z</time>
<desc>lat.=42.451103, lon.=18.553055, Alt.=45.748566m. Speed=23.472000m/h.</desc>
<speed>6.520000</speed>
</trkpt>
<trkpt lat="42.450867" lon="18.552704">
<ele>43.268097</ele>
<time>2012-05-02T16:04:43Z</time>
<desc>lat.=42.450867, lon.=18.552704, Alt.=43.268097m. Speed=28.908001m/h.</desc>
<speed>8.030000</speed>
</trkpt>
<trkpt lat="42.450764" lon="18.552298">
<ele>42.447784</ele>
<time>2012-05-02T16:04:48Z</time>
<desc>lat.=42.450764, lon.=18.552298, Alt.=42.447784m. Speed=21.888000m/h.</desc>
<speed>6.080000</speed>
</trkpt>
<trkpt lat="42.450710" lon="18.551907">
<ele>41.632355</ele>
<time>2012-05-02T16:04:53Z</time>
<desc>lat.=42.450710, lon.=18.551907, Alt.=41.632355m. Speed=22.931999m/h.</desc>
<speed>6.370000</speed>
</trkpt>
<trkpt lat="42.450592" lon="18.551571">
<ele>40.766144</ele>
<time>2012-05-02T16:04:58Z</time>
<desc>lat.=42.450592, lon.=18.551571, Alt.=40.766144m. Speed=18.972000m/h.</desc>
<speed>5.270000</speed>
</trkpt>
<trkpt lat="42.450493" lon="18.551311">
<ele>40.022003</ele>
<time>2012-05-02T16:05:03Z</time>
<desc>lat.=42.450493, lon.=18.551311, Alt.=40.022003m. Speed=15.696000m/h.</desc>
<speed>4.360000</speed>
</trkpt>
<trkpt lat="42.450493" lon="18.551039">
<ele>38.601105</ele>
<time>2012-05-02T16:05:08Z</time>
<desc>lat.=42.450493, lon.=18.551039, Alt.=38.601105m. Speed=18.756001m/h.</desc>
<speed>5.210000</speed>
</trkpt>
<trkpt lat="42.450535" lon="18.550732">
<ele>37.688019</ele>
<time>2012-05-02T16:05:13Z</time>
<desc>lat.=42.450535, lon.=18.550732, Alt.=37.688019m. Speed=17.964001m/h.</desc>
<speed>4.990000</speed>
</trkpt>
<trkpt lat="42.450581" lon="18.550415">
<ele>36.116730</ele>
<time>2012-05-02T16:05:18Z</time>
<desc>lat.=42.450581, lon.=18.550415, Alt.=36.116730m. Speed=18.431999m/h.</desc>
<speed>5.120000</speed>
</trkpt>
<trkpt lat="42.450546" lon="18.550112">
<ele>35.308136</ele>
<time>2012-05-02T16:05:23Z</time>
<desc>lat.=42.450546, lon.=18.550112, Alt.=35.308136m. Speed=16.596001m/h.</desc>
<speed>4.610000</speed>
</trkpt>
<trkpt lat="42.450493" lon="18.549837">
<ele>33.970245</ele>
<time>2012-05-02T16:05:28Z</time>
<desc>lat.=42.450493, lon.=18.549837, Alt.=33.970245m. Speed=16.812000m/h.</desc>
<speed>4.670000</speed>
</trkpt>
<trkpt lat="42.450512" lon="18.549557">
<ele>33.812042</ele>
<time>2012-05-02T16:05:33Z</time>
<desc>lat.=42.450512, lon.=18.549557, Alt.=33.812042m. Speed=16.452000m/h.</desc>
<speed>4.570000</speed>
</trkpt>
<trkpt lat="42.450577" lon="18.549303">
<ele>37.620636</ele>
<time>2012-05-02T16:05:38Z</time>
<desc>lat.=42.450577, lon.=18.549303, Alt.=37.620636m. Speed=16.344000m/h.</desc>
<speed>4.540000</speed>
</trkpt>
<trkpt lat="42.450588" lon="18.549139">
<ele>43.686066</ele>
<time>2012-05-02T16:05:43Z</time>
<desc>lat.=42.450588, lon.=18.549139, Alt.=43.686066m. Speed=9.360000m/h.</desc>
<speed>2.600000</speed>
</trkpt>
<trkpt lat="42.450645" lon="18.548895">
<ele>49.450714</ele>
<time>2012-05-02T16:05:48Z</time>
<desc>lat.=42.450645, lon.=18.548895, Alt.=49.450714m. Speed=11.124000m/h.</desc>
<speed>3.090000</speed>
</trkpt>
<trkpt lat="42.450695" lon="18.548637">
<ele>53.917511</ele>
<time>2012-05-02T16:05:53Z</time>
<desc>lat.=42.450695, lon.=18.548637, Alt.=53.917511m. Speed=13.176000m/h.</desc>
<speed>3.660000</speed>
</trkpt>
<trkpt lat="42.450764" lon="18.548384">
<ele>59.027863</ele>
<time>2012-05-02T16:05:58Z</time>
<desc>lat.=42.450764, lon.=18.548384, Alt.=59.027863m. Speed=14.544000m/h.</desc>
<speed>4.040000</speed>
</trkpt>
<trkpt lat="42.450848" lon="18.548079">
<ele>62.187042</ele>
<time>2012-05-02T16:06:03Z</time>
<desc>lat.=42.450848, lon.=18.548079, Alt.=62.187042m. Speed=19.980000m/h.</desc>
<speed>5.550000</speed>
</trkpt>
<trkpt lat="42.450874" lon="18.547726">
<ele>63.933136</ele>
<time>2012-05-02T16:06:08Z</time>
<desc>lat.=42.450874, lon.=18.547726, Alt.=63.933136m. Speed=16.884001m/h.</desc>
<speed>4.690000</speed>
</trkpt>
<trkpt lat="42.450905" lon="18.547400">
<ele>57.377472</ele>
<time>2012-05-02T16:06:13Z</time>
<desc>lat.=42.450905, lon.=18.547400, Alt.=57.377472m. Speed=17.927999m/h.</desc>
<speed>4.980000</speed>
</trkpt>
<trkpt lat="42.450916" lon="18.547079">
<ele>57.863800</ele>
<time>2012-05-02T16:06:18Z</time>
<desc>lat.=42.450916, lon.=18.547079, Alt.=57.863800m. Speed=17.028000m/h.</desc>
<speed>4.730000</speed>
</trkpt>
<trkpt lat="42.450897" lon="18.546926">
<ele>58.303253</ele>
<time>2012-05-02T16:06:23Z</time>
<desc>lat.=42.450897, lon.=18.546926, Alt.=58.303253m. Speed=3.924000m/h.</desc>
<speed>1.090000</speed>
</trkpt>
<trkpt lat="42.450886" lon="18.546856">
<ele>56.977081</ele>
<time>2012-05-02T16:06:28Z</time>
<desc>lat.=42.450886, lon.=18.546856, Alt.=56.977081m. Speed=2.808000m/h.</desc>
<speed>0.780000</speed>
</trkpt>
<trkpt lat="42.450901" lon="18.546707">
<ele>57.344269</ele>
<time>2012-05-02T16:06:33Z</time>
<desc>lat.=42.450901, lon.=18.546707, Alt.=57.344269m. Speed=5.976000m/h.</desc>
<speed>1.660000</speed>
</trkpt>
<trkpt lat="42.450916" lon="18.546520">
<ele>56.760284</ele>
<time>2012-05-02T16:06:38Z</time>
<desc>lat.=42.450916, lon.=18.546520, Alt.=56.760284m. Speed=3.168000m/h.</desc>
<speed>0.880000</speed>
</trkpt>
<trkpt lat="42.450920" lon="18.546577">
<ele>54.425323</ele>
<time>2012-05-02T16:06:43Z</time>
<desc>lat.=42.450920, lon.=18.546577, Alt.=54.425323m. Speed=13.752000m/h.</desc>
<speed>3.820000</speed>
</trkpt>
<trkpt lat="42.450924" lon="18.546871">
<ele>53.981964</ele>
<time>2012-05-02T16:06:48Z</time>
<desc>lat.=42.450924, lon.=18.546871, Alt.=53.981964m. Speed=18.612000m/h.</desc>
<speed>5.170000</speed>
</trkpt>
<trkpt lat="42.450943" lon="18.547174">
<ele>53.933136</ele>
<time>2012-05-02T16:06:53Z</time>
<desc>lat.=42.450943, lon.=18.547174, Alt.=53.933136m. Speed=19.260000m/h.</desc>
<speed>5.350000</speed>
</trkpt>
<trkpt lat="42.450981" lon="18.547197">
<ele>47.742706</ele>
<time>2012-05-02T16:06:58Z</time>
<desc>lat.=42.450981, lon.=18.547197, Alt.=47.742706m. Speed=1.368000m/h.</desc>
<speed>0.380000</speed>
</trkpt>
<trkpt lat="42.450996" lon="18.547184">
<ele>46.134308</ele>
<time>2012-05-02T16:07:03Z</time>
<desc>lat.=42.450996, lon.=18.547184, Alt.=46.134308m. Speed=1.152000m/h.</desc>
<speed>0.320000</speed>
</trkpt>
<trkpt lat="42.451012" lon="18.547192">
<ele>46.097198</ele>
<time>2012-05-02T16:07:08Z</time>
<desc>lat.=42.451012, lon.=18.547192, Alt.=46.097198m. Speed=0.720000m/h.</desc>
<speed>0.200000</speed>
</trkpt>
<trkpt lat="42.451015" lon="18.547195">
<ele>45.997589</ele>
<time>2012-05-02T16:07:13Z</time>
<desc>lat.=42.451015, lon.=18.547195, Alt.=45.997589m. Speed=0.180000m/h.</desc>
<speed>0.050000</speed>
</trkpt>
<trkpt lat="42.451023" lon="18.547192">
<ele>45.950714</ele>
<time>2012-05-02T16:07:18Z</time>
<desc>lat.=42.451023, lon.=18.547192, Alt.=45.950714m. Speed=1.044000m/h.</desc>
<speed>0.290000</speed>
</trkpt>
<trkpt lat="42.451035" lon="18.547194">
<ele>45.919464</ele>
<time>2012-05-02T16:07:23Z</time>
<desc>lat.=42.451035, lon.=18.547194, Alt.=45.919464m. Speed=0.612000m/h.</desc>
<speed>0.170000</speed>
</trkpt>
<trkpt lat="42.451046" lon="18.547188">
<ele>45.884308</ele>
<time>2012-05-02T16:07:28Z</time>
<desc>lat.=42.451046, lon.=18.547188, Alt.=45.884308m. Speed=0.144000m/h.</desc>
<speed>0.040000</speed>
</trkpt>
<trkpt lat="42.451046" lon="18.547188">
<ele>45.857941</ele>
<time>2012-05-02T16:07:33Z</time>
<desc>lat.=42.451046, lon.=18.547188, Alt.=45.857941m. Speed=0.216000m/h.</desc>
<speed>0.060000</speed>
</trkpt>
<trkpt lat="42.451046" lon="18.547192">
<ele>45.849152</ele>
<time>2012-05-02T16:07:38Z</time>
<desc>lat.=42.451046, lon.=18.547192, Alt.=45.849152m. Speed=0.720000m/h.</desc>
<speed>0.200000</speed>
</trkpt>
<trkpt lat="42.451054" lon="18.547199">
<ele>45.834503</ele>
<time>2012-05-02T16:07:43Z</time>
<desc>lat.=42.451054, lon.=18.547199, Alt.=45.834503m. Speed=0.900000m/h.</desc>
<speed>0.250000</speed>
</trkpt>
<trkpt lat="42.451061" lon="18.547203">
<ele>45.812042</ele>
<time>2012-05-02T16:07:48Z</time>
<desc>lat.=42.451061, lon.=18.547203, Alt.=45.812042m. Speed=0.648000m/h.</desc>
<speed>0.180000</speed>
</trkpt>
<trkpt lat="42.451065" lon="18.547201">
<ele>45.800323</ele>
<time>2012-05-02T16:07:53Z</time>
<desc>lat.=42.451065, lon.=18.547201, Alt.=45.800323m. Speed=0.432000m/h.</desc>
<speed>0.120000</speed>
</trkpt>
<trkpt lat="42.451061" lon="18.547203">
<ele>45.788605</ele>
<time>2012-05-02T16:07:58Z</time>
<desc>lat.=42.451061, lon.=18.547203, Alt.=45.788605m. Speed=0.144000m/h.</desc>
<speed>0.040000</speed>
</trkpt>
<trkpt lat="42.451069" lon="18.547203">
<ele>45.780792</ele>
<time>2012-05-02T16:08:03Z</time>
<desc>lat.=42.451069, lon.=18.547203, Alt.=45.780792m. Speed=0.828000m/h.</desc>
<speed>0.230000</speed>
</trkpt>
<trkpt lat="42.451077" lon="18.547197">
<ele>45.765167</ele>
<time>2012-05-02T16:08:08Z</time>
<desc>lat.=42.451077, lon.=18.547197, Alt.=45.765167m. Speed=0.360000m/h.</desc>
<speed>0.100000</speed>
</trkpt>
<trkpt lat="42.451080" lon="18.547197">
<ele>45.746613</ele>
<time>2012-05-02T16:08:13Z</time>
<desc>lat.=42.451080, lon.=18.547197, Alt.=45.746613m. Speed=0.180000m/h.</desc>
<speed>0.050000</speed>
</trkpt>
<trkpt lat="42.451077" lon="18.547197">
<ele>45.726105</ele>
<time>2012-05-02T16:08:18Z</time>
<desc>lat.=42.451077, lon.=18.547197, Alt.=45.726105m. Speed=0.504000m/h.</desc>
<speed>0.140000</speed>
</trkpt>
<trkpt lat="42.451069" lon="18.547215">
<ele>45.711456</ele>
<time>2012-05-02T16:08:23Z</time>
<desc>lat.=42.451069, lon.=18.547215, Alt.=45.711456m. Speed=1.260000m/h.</desc>
<speed>0.350000</speed>
</trkpt>
<trkpt lat="42.451073" lon="18.547224">
<ele>45.696808</ele>
<time>2012-05-02T16:08:28Z</time>
<desc>lat.=42.451073, lon.=18.547224, Alt.=45.696808m. Speed=0.792000m/h.</desc>
<speed>0.220000</speed>
</trkpt>
<trkpt lat="42.451080" lon="18.547232">
<ele>45.688995</ele>
<time>2012-05-02T16:08:33Z</time>
<desc>lat.=42.451080, lon.=18.547232, Alt.=45.688995m. Speed=0.648000m/h.</desc>
<speed>0.180000</speed>
</trkpt>
<trkpt lat="42.451084" lon="18.547241">
<ele>45.689972</ele>
<time>2012-05-02T16:08:38Z</time>
<desc>lat.=42.451084, lon.=18.547241, Alt.=45.689972m. Speed=0.432000m/h.</desc>
<speed>0.120000</speed>
</trkpt>
<trkpt lat="42.451088" lon="18.547253">
<ele>45.696808</ele>
<time>2012-05-02T16:08:43Z</time>
<desc>lat.=42.451088, lon.=18.547253, Alt.=45.696808m. Speed=2.304000m/h.</desc>
<speed>0.640000</speed>
</trkpt>
<trkpt lat="42.451084" lon="18.547274">
<ele>45.722198</ele>
<time>2012-05-02T16:08:48Z</time>
<desc>lat.=42.451084, lon.=18.547274, Alt.=45.722198m. Speed=0.972000m/h.</desc>
<speed>0.270000</speed>
</trkpt>
<trkpt lat="42.451080" lon="18.547293">
<ele>45.758331</ele>
<time>2012-05-02T16:08:53Z</time>
<desc>lat.=42.451080, lon.=18.547293, Alt.=45.758331m. Speed=1.908000m/h.</desc>
<speed>0.530000</speed>
</trkpt>
<trkpt lat="42.451084" lon="18.547321">
<ele>45.830597</ele>
<time>2012-05-02T16:08:58Z</time>
<desc>lat.=42.451084, lon.=18.547321, Alt.=45.830597m. Speed=1.368000m/h.</desc>
<speed>0.380000</speed>
</trkpt>
<trkpt lat="42.451088" lon="18.547333">
<ele>45.913605</ele>
<time>2012-05-02T16:09:03Z</time>
<desc>lat.=42.451088, lon.=18.547333, Alt.=45.913605m. Speed=0.180000m/h.</desc>
<speed>0.050000</speed>
</trkpt>
<trkpt lat="42.451096" lon="18.547325">
<ele>45.977081</ele>
<time>2012-05-02T16:09:08Z</time>
<desc>lat.=42.451096, lon.=18.547325, Alt.=45.977081m. Speed=1.080000m/h.</desc>
<speed>0.300000</speed>
</trkpt>
<trkpt lat="42.451103" lon="18.547314">
<ele>46.010284</ele>
<time>2012-05-02T16:09:13Z</time>
<desc>lat.=42.451103, lon.=18.547314, Alt.=46.010284m. Speed=0.288000m/h.</desc>
<speed>0.080000</speed>
</trkpt>
<trkpt lat="42.451107" lon="18.547302">
<ele>46.033722</ele>
<time>2012-05-02T16:09:18Z</time>
<desc>lat.=42.451107, lon.=18.547302, Alt.=46.033722m. Speed=0.864000m/h.</desc>
<speed>0.240000</speed>
</trkpt>
<trkpt lat="42.451115" lon="18.547291">
<ele>46.045441</ele>
<time>2012-05-02T16:09:23Z</time>
<desc>lat.=42.451115, lon.=18.547291, Alt.=46.045441m. Speed=0.432000m/h.</desc>
<speed>0.120000</speed>
</trkpt>
<trkpt lat="42.451126" lon="18.547277">
<ele>46.046417</ele>
<time>2012-05-02T16:09:28Z</time>
<desc>lat.=42.451126, lon.=18.547277, Alt.=46.046417m. Speed=1.620000m/h.</desc>
<speed>0.450000</speed>
</trkpt>
<trkpt lat="42.451141" lon="18.547264">
<ele>46.055206</ele>
<time>2012-05-02T16:09:33Z</time>
<desc>lat.=42.451141, lon.=18.547264, Alt.=46.055206m. Speed=2.520000m/h.</desc>
<speed>0.700000</speed>
</trkpt>
<trkpt lat="42.451153" lon="18.547251">
<ele>46.065948</ele>
<time>2012-05-02T16:09:38Z</time>
<desc>lat.=42.451153, lon.=18.547251, Alt.=46.065948m. Speed=0.216000m/h.</desc>
<speed>0.060000</speed>
</trkpt>
<trkpt lat="42.451157" lon="18.547247">
<ele>46.081573</ele>
<time>2012-05-02T16:09:43Z</time>
<desc>lat.=42.451157, lon.=18.547247, Alt.=46.081573m. Speed=0.360000m/h.</desc>
<speed>0.100000</speed>
</trkpt>
<trkpt lat="42.451153" lon="18.547241">
<ele>46.099152</ele>
<time>2012-05-02T16:09:48Z</time>
<desc>lat.=42.451153, lon.=18.547241, Alt.=46.099152m. Speed=0.468000m/h.</desc>
<speed>0.130000</speed>
</trkpt>
<trkpt lat="42.451157" lon="18.547232">
<ele>46.126495</ele>
<time>2012-05-02T16:09:53Z</time>
<desc>lat.=42.451157, lon.=18.547232, Alt.=46.126495m. Speed=0.900000m/h.</desc>
<speed>0.250000</speed>
</trkpt>
<trkpt lat="42.451160" lon="18.547222">
<ele>46.145050</ele>
<time>2012-05-02T16:09:58Z</time>
<desc>lat.=42.451160, lon.=18.547222, Alt.=46.145050m. Speed=0.612000m/h.</desc>
<speed>0.170000</speed>
</trkpt>
<trkpt lat="42.451157" lon="18.547226">
<ele>46.164581</ele>
<time>2012-05-02T16:10:03Z</time>
<desc>lat.=42.451157, lon.=18.547226, Alt.=46.164581m. Speed=1.440000m/h.</desc>
<speed>0.400000</speed>
</trkpt>
<trkpt lat="42.451149" lon="18.547249">
<ele>46.185089</ele>
<time>2012-05-02T16:10:08Z</time>
<desc>lat.=42.451149, lon.=18.547249, Alt.=46.185089m. Speed=1.224000m/h.</desc>
<speed>0.340000</speed>
</trkpt>
<trkpt lat="42.451141" lon="18.547255">
<ele>46.178253</ele>
<time>2012-05-02T16:10:13Z</time>
<desc>lat.=42.451141, lon.=18.547255, Alt.=46.178253m. Speed=0.468000m/h.</desc>
<speed>0.130000</speed>
</trkpt>
<trkpt lat="42.451153" lon="18.547258">
<ele>46.164581</ele>
<time>2012-05-02T16:10:18Z</time>
<desc>lat.=42.451153, lon.=18.547258, Alt.=46.164581m. Speed=1.188000m/h.</desc>
<speed>0.330000</speed>
</trkpt>
<trkpt lat="42.451164" lon="18.547255">
<ele>46.134308</ele>
<time>2012-05-02T16:10:23Z</time>
<desc>lat.=42.451164, lon.=18.547255, Alt.=46.134308m. Speed=0.540000m/h.</desc>
<speed>0.150000</speed>
</trkpt>
<trkpt lat="42.451168" lon="18.547253">
<ele>46.124542</ele>
<time>2012-05-02T16:10:28Z</time>
<desc>lat.=42.451168, lon.=18.547253, Alt.=46.124542m. Speed=1.224000m/h.</desc>
<speed>0.340000</speed>
</trkpt>
<trkpt lat="42.451183" lon="18.547272">
<ele>46.174347</ele>
<time>2012-05-02T16:10:33Z</time>
<desc>lat.=42.451183, lon.=18.547272, Alt.=46.174347m. Speed=1.296000m/h.</desc>
<speed>0.360000</speed>
</trkpt>
<trkpt lat="42.451199" lon="18.547276">
<ele>46.272003</ele>
<time>2012-05-02T16:10:38Z</time>
<desc>lat.=42.451199, lon.=18.547276, Alt.=46.272003m. Speed=1.656000m/h.</desc>
<speed>0.460000</speed>
</trkpt>
<trkpt lat="42.451221" lon="18.547262">
<ele>46.378448</ele>
<time>2012-05-02T16:10:43Z</time>
<desc>lat.=42.451221, lon.=18.547262, Alt.=46.378448m. Speed=2.196000m/h.</desc>
<speed>0.610000</speed>
</trkpt>
<trkpt lat="42.451244" lon="18.547247">
<ele>46.494659</ele>
<time>2012-05-02T16:10:48Z</time>
<desc>lat.=42.451244, lon.=18.547247, Alt.=46.494659m. Speed=1.620000m/h.</desc>
<speed>0.450000</speed>
</trkpt>
<trkpt lat="42.451267" lon="18.547234">
<ele>46.618683</ele>
<time>2012-05-02T16:10:53Z</time>
<desc>lat.=42.451267, lon.=18.547234, Alt.=46.618683m. Speed=1.908000m/h.</desc>
<speed>0.530000</speed>
</trkpt>
<trkpt lat="42.451279" lon="18.547232">
<ele>46.755402</ele>
<time>2012-05-02T16:10:58Z</time>
<desc>lat.=42.451279, lon.=18.547232, Alt.=46.755402m. Speed=0.828000m/h.</desc>
<speed>0.230000</speed>
</trkpt>
<trkpt lat="42.451271" lon="18.547245">
<ele>46.849152</ele>
<time>2012-05-02T16:11:03Z</time>
<desc>lat.=42.451271, lon.=18.547245, Alt.=46.849152m. Speed=0.324000m/h.</desc>
<speed>0.090000</speed>
</trkpt>
<trkpt lat="42.451267" lon="18.547247">
<ele>46.889191</ele>
<time>2012-05-02T16:11:08Z</time>
<desc>lat.=42.451267, lon.=18.547247, Alt.=46.889191m. Speed=0.468000m/h.</desc>
<speed>0.130000</speed>
</trkpt>
<trkpt lat="42.451275" lon="18.547247">
<ele>46.938995</ele>
<time>2012-05-02T16:11:13Z</time>
<desc>lat.=42.451275, lon.=18.547247, Alt.=46.938995m. Speed=0.288000m/h.</desc>
<speed>0.080000</speed>
</trkpt>
<trkpt lat="42.451271" lon="18.547258">
<ele>46.964386</ele>
<time>2012-05-02T16:11:18Z</time>
<desc>lat.=42.451271, lon.=18.547258, Alt.=46.964386m. Speed=0.540000m/h.</desc>
<speed>0.150000</speed>
</trkpt>
<trkpt lat="42.451267" lon="18.547262">
<ele>46.958527</ele>
<time>2012-05-02T16:11:23Z</time>
<desc>lat.=42.451267, lon.=18.547262, Alt.=46.958527m. Speed=0.252000m/h.</desc>
<speed>0.070000</speed>
</trkpt>
<trkpt lat="42.451267" lon="18.547262">
<ele>46.926300</ele>
<time>2012-05-02T16:11:28Z</time>
<desc>lat.=42.451267, lon.=18.547262, Alt.=46.926300m. Speed=0.144000m/h.</desc>
<speed>0.040000</speed>
</trkpt>
<trkpt lat="42.451267" lon="18.547266">
<ele>46.892120</ele>
<time>2012-05-02T16:11:33Z</time>
<desc>lat.=42.451267, lon.=18.547266, Alt.=46.892120m. Speed=0.072000m/h.</desc>
<speed>0.020000</speed>
</trkpt>
<trkpt lat="42.451263" lon="18.547268">
<ele>46.848175</ele>
<time>2012-05-02T16:11:38Z</time>
<desc>lat.=42.451263, lon.=18.547268, Alt.=46.848175m. Speed=0.432000m/h.</desc>
<speed>0.120000</speed>
</trkpt>
<trkpt lat="42.451260" lon="18.547268">
<ele>46.801300</ele>
<time>2012-05-02T16:11:43Z</time>
<desc>lat.=42.451260, lon.=18.547268, Alt.=46.801300m. Speed=0.288000m/h.</desc>
<speed>0.080000</speed>
</trkpt>
<trkpt lat="42.451256" lon="18.547272">
<ele>46.786652</ele>
<time>2012-05-02T16:11:48Z</time>
<desc>lat.=42.451256, lon.=18.547272, Alt.=46.786652m. Speed=0.612000m/h.</desc>
<speed>0.170000</speed>
</trkpt>
<trkpt lat="42.451252" lon="18.547266">
<ele>46.778839</ele>
<time>2012-05-02T16:11:53Z</time>
<desc>lat.=42.451252, lon.=18.547266, Alt.=46.778839m. Speed=0.504000m/h.</desc>
<speed>0.140000</speed>
</trkpt>
<trkpt lat="42.451248" lon="18.547264">
<ele>46.788605</ele>
<time>2012-05-02T16:11:58Z</time>
<desc>lat.=42.451248, lon.=18.547264, Alt.=46.788605m. Speed=0.612000m/h.</desc>
<speed>0.170000</speed>
</trkpt>
<trkpt lat="42.451241" lon="18.547268">
<ele>46.809113</ele>
<time>2012-05-02T16:12:03Z</time>
<desc>lat.=42.451241, lon.=18.547268, Alt.=46.809113m. Speed=0.180000m/h.</desc>
<speed>0.050000</speed>
</trkpt>
<trkpt lat="42.451237" lon="18.547270">
<ele>46.816925</ele>
<time>2012-05-02T16:12:08Z</time>
<desc>lat.=42.451237, lon.=18.547270, Alt.=46.816925m. Speed=0.576000m/h.</desc>
<speed>0.160000</speed>
</trkpt>
<trkpt lat="42.451229" lon="18.547272">
<ele>46.818878</ele>
<time>2012-05-02T16:12:13Z</time>
<desc>lat.=42.451229, lon.=18.547272, Alt.=46.818878m. Speed=0.108000m/h.</desc>
<speed>0.030000</speed>
</trkpt>
<trkpt lat="42.451229" lon="18.547272">
<ele>46.834503</ele>
<time>2012-05-02T16:12:18Z</time>
<desc>lat.=42.451229, lon.=18.547272, Alt.=46.834503m. Speed=0.360000m/h.</desc>
<speed>0.100000</speed>
</trkpt>
<trkpt lat="42.451225" lon="18.547276">
<ele>46.854034</ele>
<time>2012-05-02T16:12:23Z</time>
<desc>lat.=42.451225, lon.=18.547276, Alt.=46.854034m. Speed=0.324000m/h.</desc>
<speed>0.090000</speed>
</trkpt>
<trkpt lat="42.451225" lon="18.547281">
<ele>46.865753</ele>
<time>2012-05-02T16:12:28Z</time>
<desc>lat.=42.451225, lon.=18.547281, Alt.=46.865753m. Speed=0.288000m/h.</desc>
<speed>0.080000</speed>
</trkpt>
<trkpt lat="42.451229" lon="18.547287">
<ele>46.868683</ele>
<time>2012-05-02T16:12:33Z</time>
<desc>lat.=42.451229, lon.=18.547287, Alt.=46.868683m. Speed=0.252000m/h.</desc>
<speed>0.070000</speed>
</trkpt>
<trkpt lat="42.451237" lon="18.547287">
<ele>46.855988</ele>
<time>2012-05-02T16:12:38Z</time>
<desc>lat.=42.451237, lon.=18.547287, Alt.=46.855988m. Speed=0.648000m/h.</desc>
<speed>0.180000</speed>
</trkpt>
<trkpt lat="42.451244" lon="18.547297">
<ele>46.836456</ele>
<time>2012-05-02T16:12:43Z</time>
<desc>lat.=42.451244, lon.=18.547297, Alt.=46.836456m. Speed=0.468000m/h.</desc>
<speed>0.130000</speed>
</trkpt>
<trkpt lat="42.451244" lon="18.547297">
<ele>46.824738</ele>
<time>2012-05-02T16:12:48Z</time>
<desc>lat.=42.451244, lon.=18.547297, Alt.=46.824738m. Speed=0.396000m/h.</desc>
<speed>0.110000</speed>
</trkpt>
<trkpt lat="42.451237" lon="18.547298">
<ele>46.817902</ele>
<time>2012-05-02T16:12:53Z</time>
<desc>lat.=42.451237, lon.=18.547298, Alt.=46.817902m. Speed=0.252000m/h.</desc>
<speed>0.070000</speed>
</trkpt>
<trkpt lat="42.451237" lon="18.547308">
<ele>46.831573</ele>
<time>2012-05-02T16:12:58Z</time>
<desc>lat.=42.451237, lon.=18.547308, Alt.=46.831573m. Speed=0.216000m/h.</desc>
<speed>0.060000</speed>
</trkpt>
<trkpt lat="42.451241" lon="18.547312">
<ele>46.853058</ele>
<time>2012-05-02T16:13:03Z</time>
<desc>lat.=42.451241, lon.=18.547312, Alt.=46.853058m. Speed=0.504000m/h.</desc>
<speed>0.140000</speed>
</trkpt>
<trkpt lat="42.451237" lon="18.547323">
<ele>46.873566</ele>
<time>2012-05-02T16:13:08Z</time>
<desc>lat.=42.451237, lon.=18.547323, Alt.=46.873566m. Speed=0.756000m/h.</desc>
<speed>0.210000</speed>
</trkpt>
<trkpt lat="42.451237" lon="18.547331">
<ele>46.903839</ele>
<time>2012-05-02T16:13:13Z</time>
<desc>lat.=42.451237, lon.=18.547331, Alt.=46.903839m. Speed=2.736000m/h.</desc>
<speed>0.760000</speed>
</trkpt>
<trkpt lat="42.451206" lon="18.547194">
<ele>44.145050</ele>
<time>2012-05-02T16:13:18Z</time>
<desc>lat.=42.451206, lon.=18.547194, Alt.=44.145050m. Speed=1.692000m/h.</desc>
<speed>0.470000</speed>
</trkpt>
<trkpt lat="42.451187" lon="18.547094">
<ele>43.692902</ele>
<time>2012-05-02T16:13:23Z</time>
<desc>lat.=42.451187, lon.=18.547094, Alt.=43.692902m. Speed=10.476000m/h.</desc>
<speed>2.910000</speed>
</trkpt>
<trkpt lat="42.451191" lon="18.546820">
<ele>41.668488</ele>
<time>2012-05-02T16:13:28Z</time>
<desc>lat.=42.451191, lon.=18.546820, Alt.=41.668488m. Speed=16.775999m/h.</desc>
<speed>4.660000</speed>
</trkpt>
<trkpt lat="42.451126" lon="18.546572">
<ele>40.596222</ele>
<time>2012-05-02T16:13:33Z</time>
<desc>lat.=42.451126, lon.=18.546572, Alt.=40.596222m. Speed=8.388000m/h.</desc>
<speed>2.330000</speed>
</trkpt>
<trkpt lat="42.451046" lon="18.546375">
<ele>40.293488</ele>
<time>2012-05-02T16:13:38Z</time>
<desc>lat.=42.451046, lon.=18.546375, Alt.=40.293488m. Speed=12.564000m/h.</desc>
<speed>3.490000</speed>
</trkpt>
<trkpt lat="42.451069" lon="18.546124">
<ele>38.220245</ele>
<time>2012-05-02T16:13:43Z</time>
<desc>lat.=42.451069, lon.=18.546124, Alt.=38.220245m. Speed=15.372000m/h.</desc>
<speed>4.270000</speed>
</trkpt>
<trkpt lat="42.451088" lon="18.545832">
<ele>35.741730</ele>
<time>2012-05-02T16:13:48Z</time>
<desc>lat.=42.451088, lon.=18.545832, Alt.=35.741730m. Speed=11.592000m/h.</desc>
<speed>3.220000</speed>
</trkpt>
<trkpt lat="42.451122" lon="18.545523">
<ele>34.722198</ele>
<time>2012-05-02T16:13:53Z</time>
<desc>lat.=42.451122, lon.=18.545523, Alt.=34.722198m. Speed=19.691999m/h.</desc>
<speed>5.470000</speed>
</trkpt>
<trkpt lat="42.451141" lon="18.545164">
<ele>35.872589</ele>
<time>2012-05-02T16:13:58Z</time>
<desc>lat.=42.451141, lon.=18.545164, Alt.=35.872589m. Speed=20.268000m/h.</desc>
<speed>5.630000</speed>
</trkpt>
<trkpt lat="42.451199" lon="18.544884">
<ele>36.698761</ele>
<time>2012-05-02T16:14:03Z</time>
<desc>lat.=42.451199, lon.=18.544884, Alt.=36.698761m. Speed=14.688000m/h.</desc>
<speed>4.080000</speed>
</trkpt>
<trkpt lat="42.451241" lon="18.544634">
<ele>37.852081</ele>
<time>2012-05-02T16:14:08Z</time>
<desc>lat.=42.451241, lon.=18.544634, Alt.=37.852081m. Speed=14.652000m/h.</desc>
<speed>4.070000</speed>
</trkpt>
<trkpt lat="42.451286" lon="18.544359">
<ele>38.057159</ele>
<time>2012-05-02T16:14:13Z</time>
<desc>lat.=42.451286, lon.=18.544359, Alt.=38.057159m. Speed=16.992001m/h.</desc>
<speed>4.720000</speed>
</trkpt>
<trkpt lat="42.451370" lon="18.544102">
<ele>39.230988</ele>
<time>2012-05-02T16:14:18Z</time>
<desc>lat.=42.451370, lon.=18.544102, Alt.=39.230988m. Speed=16.200001m/h.</desc>
<speed>4.500000</speed>
</trkpt>
<trkpt lat="42.451447" lon="18.543993">
<ele>39.137238</ele>
<time>2012-05-02T16:14:23Z</time>
<desc>lat.=42.451447, lon.=18.543993, Alt.=39.137238m. Speed=5.580000m/h.</desc>
<speed>1.550000</speed>
</trkpt>
<trkpt lat="42.451469" lon="18.543913">
<ele>41.471222</ele>
<time>2012-05-02T16:14:28Z</time>
<desc>lat.=42.451469, lon.=18.543913, Alt.=41.471222m. Speed=9.144000m/h.</desc>
<speed>2.540000</speed>
</trkpt>
<trkpt lat="42.451565" lon="18.543678">
<ele>43.390167</ele>
<time>2012-05-02T16:14:33Z</time>
<desc>lat.=42.451565, lon.=18.543678, Alt.=43.390167m. Speed=13.284000m/h.</desc>
<speed>3.690000</speed>
</trkpt>
<trkpt lat="42.451599" lon="18.543394">
<ele>42.592316</ele>
<time>2012-05-02T16:14:38Z</time>
<desc>lat.=42.451599, lon.=18.543394, Alt.=42.592316m. Speed=16.164000m/h.</desc>
<speed>4.490000</speed>
</trkpt>
<trkpt lat="42.451672" lon="18.543076">
<ele>45.357941</ele>
<time>2012-05-02T16:14:43Z</time>
<desc>lat.=42.451672, lon.=18.543076, Alt.=45.357941m. Speed=15.696000m/h.</desc>
<speed>4.360000</speed>
</trkpt>
<trkpt lat="42.451614" lon="18.542801">
<ele>44.620636</ele>
<time>2012-05-02T16:14:48Z</time>
<desc>lat.=42.451614, lon.=18.542801, Alt.=44.620636m. Speed=11.988000m/h.</desc>
<speed>3.330000</speed>
</trkpt>
<trkpt lat="42.451595" lon="18.542738">
<ele>44.523956</ele>
<time>2012-05-02T16:14:53Z</time>
<desc>lat.=42.451595, lon.=18.542738, Alt.=44.523956m. Speed=1.872000m/h.</desc>
<speed>0.520000</speed>
</trkpt>
<trkpt lat="42.451580" lon="18.542742">
<ele>44.794464</ele>
<time>2012-05-02T16:14:58Z</time>
<desc>lat.=42.451580, lon.=18.542742, Alt.=44.794464m. Speed=0.108000m/h.</desc>
<speed>0.030000</speed>
</trkpt>
<trkpt lat="42.451576" lon="18.542742">
<ele>44.823761</ele>
<time>2012-05-02T16:15:03Z</time>
<desc>lat.=42.451576, lon.=18.542742, Alt.=44.823761m. Speed=0.684000m/h.</desc>
<speed>0.190000</speed>
</trkpt>
<trkpt lat="42.451576" lon="18.542742">
<ele>44.824738</ele>
<time>2012-05-02T16:15:08Z</time>
<desc>lat.=42.451576, lon.=18.542742, Alt.=44.824738m. Speed=1.584000m/h.</desc>
<speed>0.440000</speed>
</trkpt>
<trkpt lat="42.451591" lon="18.542740">
<ele>44.842316</ele>
<time>2012-05-02T16:15:13Z</time>
<desc>lat.=42.451591, lon.=18.542740, Alt.=44.842316m. Speed=0.756000m/h.</desc>
<speed>0.210000</speed>
</trkpt>
<trkpt lat="42.451595" lon="18.542734">
<ele>44.831573</ele>
<time>2012-05-02T16:15:18Z</time>
<desc>lat.=42.451595, lon.=18.542734, Alt.=44.831573m. Speed=0.324000m/h.</desc>
<speed>0.090000</speed>
</trkpt>
<trkpt lat="42.451591" lon="18.542732">
<ele>44.792511</ele>
<time>2012-05-02T16:15:23Z</time>
<desc>lat.=42.451591, lon.=18.542732, Alt.=44.792511m. Speed=0.612000m/h.</desc>
<speed>0.170000</speed>
</trkpt>
<trkpt lat="42.451580" lon="18.542734">
<ele>44.753448</ele>
<time>2012-05-02T16:15:28Z</time>
<desc>lat.=42.451580, lon.=18.542734, Alt.=44.753448m. Speed=1.080000m/h.</desc>
<speed>0.300000</speed>
</trkpt>
<trkpt lat="42.451572" lon="18.542728">
<ele>44.703644</ele>
<time>2012-05-02T16:15:33Z</time>
<desc>lat.=42.451572, lon.=18.542728, Alt.=44.703644m. Speed=0.216000m/h.</desc>
<speed>0.060000</speed>
</trkpt>
<trkpt lat="42.451572" lon="18.542730">
<ele>44.687042</ele>
<time>2012-05-02T16:15:38Z</time>
<desc>lat.=42.451572, lon.=18.542730, Alt.=44.687042m. Speed=0.540000m/h.</desc>
<speed>0.150000</speed>
</trkpt>
<trkpt lat="42.451569" lon="18.542669">
<ele>44.443878</ele>
<time>2012-05-02T16:15:43Z</time>
<desc>lat.=42.451569, lon.=18.542669, Alt.=44.443878m. Speed=7.488000m/h.</desc>
<speed>2.080000</speed>
</trkpt>
<trkpt lat="42.451622" lon="18.542494">
<ele>42.586456</ele>
<time>2012-05-02T16:15:48Z</time>
<desc>lat.=42.451622, lon.=18.542494, Alt.=42.586456m. Speed=11.376000m/h.</desc>
<speed>3.160000</speed>
</trkpt>
<trkpt lat="42.451618" lon="18.542389">
<ele>41.274933</ele>
<time>2012-05-02T16:15:53Z</time>
<desc>lat.=42.451618, lon.=18.542389, Alt.=41.274933m. Speed=1.008000m/h.</desc>
<speed>0.280000</speed>
</trkpt>
<trkpt lat="42.451626" lon="18.542376">
<ele>41.231964</ele>
<time>2012-05-02T16:15:58Z</time>
<desc>lat.=42.451626, lon.=18.542376, Alt.=41.231964m. Speed=0.468000m/h.</desc>
<speed>0.130000</speed>
</trkpt>
<trkpt lat="42.451599" lon="18.542217">
<ele>40.691925</ele>
<time>2012-05-02T16:16:03Z</time>
<desc>lat.=42.451599, lon.=18.542217, Alt.=40.691925m. Speed=16.416000m/h.</desc>
<speed>4.560000</speed>
</trkpt>
<trkpt lat="42.451565" lon="18.541885">
<ele>39.225128</ele>
<time>2012-05-02T16:16:08Z</time>
<desc>lat.=42.451565, lon.=18.541885, Alt.=39.225128m. Speed=22.032000m/h.</desc>
<speed>6.120000</speed>
</trkpt>
<trkpt lat="42.451523" lon="18.541456">
<ele>38.002472</ele>
<time>2012-05-02T16:16:13Z</time>
<desc>lat.=42.451523, lon.=18.541456, Alt.=38.002472m. Speed=27.035999m/h.</desc>
<speed>7.510000</speed>
</trkpt>
<trkpt lat="42.451416" lon="18.540970">
<ele>37.987823</ele>
<time>2012-05-02T16:16:18Z</time>
<desc>lat.=42.451416, lon.=18.540970, Alt.=37.987823m. Speed=27.108000m/h.</desc>
<speed>7.530000</speed>
</trkpt>
<trkpt lat="42.451290" lon="18.540588">
<ele>38.182159</ele>
<time>2012-05-02T16:16:23Z</time>
<desc>lat.=42.451290, lon.=18.540588, Alt.=38.182159m. Speed=19.511999m/h.</desc>
<speed>5.420000</speed>
</trkpt>
<trkpt lat="42.451138" lon="18.540323">
<ele>38.662628</ele>
<time>2012-05-02T16:16:28Z</time>
<desc>lat.=42.451138, lon.=18.540323, Alt.=38.662628m. Speed=21.816000m/h.</desc>
<speed>6.060000</speed>
</trkpt>
<trkpt lat="42.450977" lon="18.540115">
<ele>40.611847</ele>
<time>2012-05-02T16:16:33Z</time>
<desc>lat.=42.450977, lon.=18.540115, Alt.=40.611847m. Speed=16.955999m/h.</desc>
<speed>4.710000</speed>
</trkpt>
<trkpt lat="42.450851" lon="18.539921">
<ele>42.465363</ele>
<time>2012-05-02T16:16:38Z</time>
<desc>lat.=42.450851, lon.=18.539921, Alt.=42.465363m. Speed=15.012000m/h.</desc>
<speed>4.170000</speed>
</trkpt>
<trkpt lat="42.450783" lon="18.539717">
<ele>42.634308</ele>
<time>2012-05-02T16:16:43Z</time>
<desc>lat.=42.450783, lon.=18.539717, Alt.=42.634308m. Speed=13.716000m/h.</desc>
<speed>3.810000</speed>
</trkpt>
<trkpt lat="42.450783" lon="18.539602">
<ele>40.011261</ele>
<time>2012-05-02T16:16:48Z</time>
<desc>lat.=42.450783, lon.=18.539602, Alt.=40.011261m. Speed=5.436000m/h.</desc>
<speed>1.510000</speed>
</trkpt>
<trkpt lat="42.450817" lon="18.539743">
<ele>40.256378</ele>
<time>2012-05-02T16:16:53Z</time>
<desc>lat.=42.450817, lon.=18.539743, Alt.=40.256378m. Speed=13.536000m/h.</desc>
<speed>3.760000</speed>
</trkpt>
<trkpt lat="42.450932" lon="18.540051">
<ele>39.418488</ele>
<time>2012-05-02T16:16:58Z</time>
<desc>lat.=42.450932, lon.=18.540051, Alt.=39.418488m. Speed=21.600000m/h.</desc>
<speed>6.000000</speed>
</trkpt>
<trkpt lat="42.451122" lon="18.540319">
<ele>39.377472</ele>
<time>2012-05-02T16:17:03Z</time>
<desc>lat.=42.451122, lon.=18.540319, Alt.=39.377472m. Speed=20.520000m/h.</desc>
<speed>5.700000</speed>
</trkpt>
<trkpt lat="42.451263" lon="18.540442">
<ele>35.732941</ele>
<time>2012-05-02T16:17:08Z</time>
<desc>lat.=42.451263, lon.=18.540442, Alt.=35.732941m. Speed=8.712000m/h.</desc>
<speed>2.420000</speed>
</trkpt>
<trkpt lat="42.451363" lon="18.540638">
<ele>34.600128</ele>
<time>2012-05-02T16:17:13Z</time>
<desc>lat.=42.451363, lon.=18.540638, Alt.=34.600128m. Speed=17.351999m/h.</desc>
<speed>4.820000</speed>
</trkpt>
<trkpt lat="42.451462" lon="18.541071">
<ele>34.311066</ele>
<time>2012-05-02T16:17:18Z</time>
<desc>lat.=42.451462, lon.=18.541071, Alt.=34.311066m. Speed=28.403999m/h.</desc>
<speed>7.890000</speed>
</trkpt>
<trkpt lat="42.451504" lon="18.541521">
<ele>32.688019</ele>
<time>2012-05-02T16:17:23Z</time>
<desc>lat.=42.451504, lon.=18.541521, Alt.=32.688019m. Speed=24.156000m/h.</desc>
<speed>6.710000</speed>
</trkpt>
<trkpt lat="42.451553" lon="18.541914">
<ele>35.129425</ele>
<time>2012-05-02T16:17:28Z</time>
<desc>lat.=42.451553, lon.=18.541914, Alt.=35.129425m. Speed=18.288000m/h.</desc>
<speed>5.080000</speed>
</trkpt>
<trkpt lat="42.451523" lon="18.542187">
<ele>36.094269</ele>
<time>2012-05-02T16:17:33Z</time>
<desc>lat.=42.451523, lon.=18.542187, Alt.=36.094269m. Speed=14.616000m/h.</desc>
<speed>4.060000</speed>
</trkpt>
<trkpt lat="42.451538" lon="18.542442">
<ele>40.813019</ele>
<time>2012-05-02T16:17:38Z</time>
<desc>lat.=42.451538, lon.=18.542442, Alt.=40.813019m. Speed=14.832000m/h.</desc>
<speed>4.120000</speed>
</trkpt>
<trkpt lat="42.451511" lon="18.542767">
<ele>45.591339</ele>
<time>2012-05-02T16:17:43Z</time>
<desc>lat.=42.451511, lon.=18.542767, Alt.=45.591339m. Speed=19.476000m/h.</desc>
<speed>5.410000</speed>
</trkpt>
<trkpt lat="42.451641" lon="18.543032">
<ele>49.647980</ele>
<time>2012-05-02T16:17:48Z</time>
<desc>lat.=42.451641, lon.=18.543032, Alt.=49.647980m. Speed=17.316000m/h.</desc>
<speed>4.810000</speed>
</trkpt>
<trkpt lat="42.451591" lon="18.543282">
<ele>51.937042</ele>
<time>2012-05-02T16:17:53Z</time>
<desc>lat.=42.451591, lon.=18.543282, Alt.=51.937042m. Speed=15.660000m/h.</desc>
<speed>4.350000</speed>
</trkpt>
<trkpt lat="42.451542" lon="18.543570">
<ele>55.626495</ele>
<time>2012-05-02T16:17:58Z</time>
<desc>lat.=42.451542, lon.=18.543570, Alt.=55.626495m. Speed=10.440000m/h.</desc>
<speed>2.900000</speed>
</trkpt>
<trkpt lat="42.451500" lon="18.543636">
<ele>57.505402</ele>
<time>2012-05-02T16:18:03Z</time>
<desc>lat.=42.451500, lon.=18.543636, Alt.=57.505402m. Speed=1.368000m/h.</desc>
<speed>0.380000</speed>
</trkpt>
<trkpt lat="42.451477" lon="18.543673">
<ele>58.622589</ele>
<time>2012-05-02T16:18:08Z</time>
<desc>lat.=42.451477, lon.=18.543673, Alt.=58.622589m. Speed=0.324000m/h.</desc>
<speed>0.090000</speed>
</trkpt>
<trkpt lat="42.451473" lon="18.543667">
<ele>59.541534</ele>
<time>2012-05-02T16:18:13Z</time>
<desc>lat.=42.451473, lon.=18.543667, Alt.=59.541534m. Speed=0.288000m/h.</desc>
<speed>0.080000</speed>
</trkpt>
<trkpt lat="42.451469" lon="18.543663">
<ele>59.847198</ele>
<time>2012-05-02T16:18:18Z</time>
<desc>lat.=42.451469, lon.=18.543663, Alt.=59.847198m. Speed=0.756000m/h.</desc>
<speed>0.210000</speed>
</trkpt>
<trkpt lat="42.451466" lon="18.543659">
<ele>59.977081</ele>
<time>2012-05-02T16:18:23Z</time>
<desc>lat.=42.451466, lon.=18.543659, Alt.=59.977081m. Speed=0.576000m/h.</desc>
<speed>0.160000</speed>
</trkpt>
<trkpt lat="42.451447" lon="18.543701">
<ele>59.524933</ele>
<time>2012-05-02T16:18:28Z</time>
<desc>lat.=42.451447, lon.=18.543701, Alt.=59.524933m. Speed=4.068000m/h.</desc>
<speed>1.130000</speed>
</trkpt>
<trkpt lat="42.451466" lon="18.543823">
<ele>57.971222</ele>
<time>2012-05-02T16:18:33Z</time>
<desc>lat.=42.451466, lon.=18.543823, Alt.=57.971222m. Speed=5.940000m/h.</desc>
<speed>1.650000</speed>
</trkpt>
<trkpt lat="42.451401" lon="18.543940">
<ele>56.599152</ele>
<time>2012-05-02T16:18:38Z</time>
<desc>lat.=42.451401, lon.=18.543940, Alt.=56.599152m. Speed=8.928000m/h.</desc>
<speed>2.480000</speed>
</trkpt>
<trkpt lat="42.451290" lon="18.544046">
<ele>53.484894</ele>
<time>2012-05-02T16:18:43Z</time>
<desc>lat.=42.451290, lon.=18.544046, Alt.=53.484894m. Speed=2.628000m/h.</desc>
<speed>0.730000</speed>
</trkpt>
<trkpt lat="42.451248" lon="18.544165">
<ele>51.641144</ele>
<time>2012-05-02T16:18:48Z</time>
<desc>lat.=42.451248, lon.=18.544165, Alt.=51.641144m. Speed=6.228000m/h.</desc>
<speed>1.730000</speed>
</trkpt>
<trkpt lat="42.451168" lon="18.544327">
<ele>50.187042</ele>
<time>2012-05-02T16:18:53Z</time>
<desc>lat.=42.451168, lon.=18.544327, Alt.=50.187042m. Speed=12.096000m/h.</desc>
<speed>3.360000</speed>
</trkpt>
<trkpt lat="42.451118" lon="18.544540">
<ele>51.533722</ele>
<time>2012-05-02T16:18:58Z</time>
<desc>lat.=42.451118, lon.=18.544540, Alt.=51.533722m. Speed=10.116000m/h.</desc>
<speed>2.810000</speed>
</trkpt>
<trkpt lat="42.451099" lon="18.544765">
<ele>51.825714</ele>
<time>2012-05-02T16:19:03Z</time>
<desc>lat.=42.451099, lon.=18.544765, Alt.=51.825714m. Speed=15.732000m/h.</desc>
<speed>4.370000</speed>
</trkpt>
<trkpt lat="42.451073" lon="18.544931">
<ele>48.319855</ele>
<time>2012-05-02T16:19:08Z</time>
<desc>lat.=42.451073, lon.=18.544931, Alt.=48.319855m. Speed=4.104000m/h.</desc>
<speed>1.140000</speed>
</trkpt>
<trkpt lat="42.451096" lon="18.544842">
<ele>47.536652</ele>
<time>2012-05-02T16:19:13Z</time>
<desc>lat.=42.451096, lon.=18.544842, Alt.=47.536652m. Speed=1.656000m/h.</desc>
<speed>0.460000</speed>
</trkpt>
<trkpt lat="42.451149" lon="18.544779">
<ele>45.534698</ele>
<time>2012-05-02T16:19:18Z</time>
<desc>lat.=42.451149, lon.=18.544779, Alt.=45.534698m. Speed=6.192000m/h.</desc>
<speed>1.720000</speed>
</trkpt>
<trkpt lat="42.451180" lon="18.544662">
<ele>42.677277</ele>
<time>2012-05-02T16:19:23Z</time>
<desc>lat.=42.451180, lon.=18.544662, Alt.=42.677277m. Speed=7.524000m/h.</desc>
<speed>2.090000</speed>
</trkpt>
<trkpt lat="42.451218" lon="18.544516">
<ele>39.855011</ele>
<time>2012-05-02T16:19:28Z</time>
<desc>lat.=42.451218, lon.=18.544516, Alt.=39.855011m. Speed=9.576000m/h.</desc>
<speed>2.660000</speed>
</trkpt>
<trkpt lat="42.451275" lon="18.544340">
<ele>37.626495</ele>
<time>2012-05-02T16:19:33Z</time>
<desc>lat.=42.451275, lon.=18.544340, Alt.=37.626495m. Speed=12.672000m/h.</desc>
<speed>3.520000</speed>
</trkpt>
<trkpt lat="42.451305" lon="18.544117">
<ele>40.155792</ele>
<time>2012-05-02T16:19:38Z</time>
<desc>lat.=42.451305, lon.=18.544117, Alt.=40.155792m. Speed=17.964001m/h.</desc>
<speed>4.990000</speed>
</trkpt>
<trkpt lat="42.451370" lon="18.543859">
<ele>41.850128</ele>
<time>2012-05-02T16:19:43Z</time>
<desc>lat.=42.451370, lon.=18.543859, Alt.=41.850128m. Speed=14.076000m/h.</desc>
<speed>3.910000</speed>
</trkpt>
<trkpt lat="42.451385" lon="18.543592">
<ele>42.796417</ele>
<time>2012-05-02T16:19:48Z</time>
<desc>lat.=42.451385, lon.=18.543592, Alt.=42.796417m. Speed=13.392000m/h.</desc>
<speed>3.720000</speed>
</trkpt>
<trkpt lat="42.451488" lon="18.543344">
<ele>42.806183</ele>
<time>2012-05-02T16:19:53Z</time>
<desc>lat.=42.451488, lon.=18.543344, Alt.=42.806183m. Speed=10.368000m/h.</desc>
<speed>2.880000</speed>
</trkpt>
<trkpt lat="42.451523" lon="18.543152">
<ele>48.259308</ele>
<time>2012-05-02T16:19:58Z</time>
<desc>lat.=42.451523, lon.=18.543152, Alt.=48.259308m. Speed=6.300000m/h.</desc>
<speed>1.750000</speed>
</trkpt>
<trkpt lat="42.451572" lon="18.542995">
<ele>53.947784</ele>
<time>2012-05-02T16:20:03Z</time>
<desc>lat.=42.451572, lon.=18.542995, Alt.=53.947784m. Speed=8.460000m/h.</desc>
<speed>2.350000</speed>
</trkpt>
<trkpt lat="42.451527" lon="18.542728">
<ele>56.283722</ele>
<time>2012-05-02T16:20:08Z</time>
<desc>lat.=42.451527, lon.=18.542728, Alt.=56.283722m. Speed=17.316000m/h.</desc>
<speed>4.810000</speed>
</trkpt>
<trkpt lat="42.451500" lon="18.542446">
<ele>54.869659</ele>
<time>2012-05-02T16:20:13Z</time>
<desc>lat.=42.451500, lon.=18.542446, Alt.=54.869659m. Speed=10.044000m/h.</desc>
<speed>2.790000</speed>
</trkpt>
<trkpt lat="42.451500" lon="18.542295">
<ele>51.770050</ele>
<time>2012-05-02T16:20:18Z</time>
<desc>lat.=42.451500, lon.=18.542295, Alt.=51.770050m. Speed=6.660000m/h.</desc>
<speed>1.850000</speed>
</trkpt>
<trkpt lat="42.451488" lon="18.542185">
<ele>50.005402</ele>
<time>2012-05-02T16:20:23Z</time>
<desc>lat.=42.451488, lon.=18.542185, Alt.=50.005402m. Speed=1.476000m/h.</desc>
<speed>0.410000</speed>
</trkpt>
<trkpt lat="42.451511" lon="18.542156">
<ele>47.996613</ele>
<time>2012-05-02T16:20:28Z</time>
<desc>lat.=42.451511, lon.=18.542156, Alt.=47.996613m. Speed=0.288000m/h.</desc>
<speed>0.080000</speed>
</trkpt>
<trkpt lat="42.451515" lon="18.542152">
<ele>47.704620</ele>
<time>2012-05-02T16:20:33Z</time>
<desc>lat.=42.451515, lon.=18.542152, Alt.=47.704620m. Speed=0.072000m/h.</desc>
<speed>0.020000</speed>
</trkpt>
<trkpt lat="42.451527" lon="18.542131">
<ele>47.420441</ele>
<time>2012-05-02T16:20:38Z</time>
<desc>lat.=42.451527, lon.=18.542131, Alt.=47.420441m. Speed=2.592000m/h.</desc>
<speed>0.720000</speed>
</trkpt>
<trkpt lat="42.451511" lon="18.542200">
<ele>47.388214</ele>
<time>2012-05-02T16:20:43Z</time>
<desc>lat.=42.451511, lon.=18.542200, Alt.=47.388214m. Speed=12.168000m/h.</desc>
<speed>3.380000</speed>
</trkpt>
<trkpt lat="42.451508" lon="18.542400">
<ele>46.819855</ele>
<time>2012-05-02T16:20:48Z</time>
<desc>lat.=42.451508, lon.=18.542400, Alt.=46.819855m. Speed=14.004000m/h.</desc>
<speed>3.890000</speed>
</trkpt>
<trkpt lat="42.451519" lon="18.542675">
<ele>46.516144</ele>
<time>2012-05-02T16:20:53Z</time>
<desc>lat.=42.451519, lon.=18.542675, Alt.=46.516144m. Speed=16.236000m/h.</desc>
<speed>4.510000</speed>
</trkpt>
<trkpt lat="42.451481" lon="18.542839">
<ele>46.824738</ele>
<time>2012-05-02T16:20:58Z</time>
<desc>lat.=42.451481, lon.=18.542839, Alt.=46.824738m. Speed=2.520000m/h.</desc>
<speed>0.700000</speed>
</trkpt>
<trkpt lat="42.451492" lon="18.542839">
<ele>45.925323</ele>
<time>2012-05-02T16:21:03Z</time>
<desc>lat.=42.451492, lon.=18.542839, Alt.=45.925323m. Speed=0.360000m/h.</desc>
<speed>0.100000</speed>
</trkpt>
<trkpt lat="42.451488" lon="18.542852">
<ele>45.927277</ele>
<time>2012-05-02T16:21:08Z</time>
<desc>lat.=42.451488, lon.=18.542852, Alt.=45.927277m. Speed=1.296000m/h.</desc>
<speed>0.360000</speed>
</trkpt>
<trkpt lat="42.451500" lon="18.542847">
<ele>46.425323</ele>
<time>2012-05-02T16:21:13Z</time>
<desc>lat.=42.451500, lon.=18.542847, Alt.=46.425323m. Speed=0.828000m/h.</desc>
<speed>0.230000</speed>
</trkpt>
<trkpt lat="42.451550" lon="18.542727">
<ele>46.213409</ele>
<time>2012-05-02T16:21:18Z</time>
<desc>lat.=42.451550, lon.=18.542727, Alt.=46.213409m. Speed=12.672000m/h.</desc>
<speed>3.520000</speed>
</trkpt>
<trkpt lat="42.451557" lon="18.542421">
<ele>45.037628</ele>
<time>2012-05-02T16:21:23Z</time>
<desc>lat.=42.451557, lon.=18.542421, Alt.=45.037628m. Speed=22.500000m/h.</desc>
<speed>6.250000</speed>
</trkpt>
<trkpt lat="42.451561" lon="18.541983">
<ele>42.382355</ele>
<time>2012-05-02T16:21:28Z</time>
<desc>lat.=42.451561, lon.=18.541983, Alt.=42.382355m. Speed=27.684000m/h.</desc>
<speed>7.690000</speed>
</trkpt>
<trkpt lat="42.451530" lon="18.541485">
<ele>39.543488</ele>
<time>2012-05-02T16:21:33Z</time>
<desc>lat.=42.451530, lon.=18.541485, Alt.=39.543488m. Speed=28.115999m/h.</desc>
<speed>7.810000</speed>
</trkpt>
<trkpt lat="42.451443" lon="18.540943">
<ele>37.344269</ele>
<time>2012-05-02T16:21:38Z</time>
<desc>lat.=42.451443, lon.=18.540943, Alt.=37.344269m. Speed=29.664000m/h.</desc>
<speed>8.240000</speed>
</trkpt>
<trkpt lat="42.451324" lon="18.540569">
<ele>35.908722</ele>
<time>2012-05-02T16:21:43Z</time>
<desc>lat.=42.451324, lon.=18.540569, Alt.=35.908722m. Speed=20.340000m/h.</desc>
<speed>5.650000</speed>
</trkpt>
<trkpt lat="42.451172" lon="18.540342">
<ele>34.646027</ele>
<time>2012-05-02T16:21:48Z</time>
<desc>lat.=42.451172, lon.=18.540342, Alt.=34.646027m. Speed=17.496000m/h.</desc>
<speed>4.860000</speed>
</trkpt>
<trkpt lat="42.451038" lon="18.540155">
<ele>35.524933</ele>
<time>2012-05-02T16:21:53Z</time>
<desc>lat.=42.451038, lon.=18.540155, Alt.=35.524933m. Speed=14.508000m/h.</desc>
<speed>4.030000</speed>
</trkpt>
<trkpt lat="42.450893" lon="18.539898">
<ele>35.528839</ele>
<time>2012-05-02T16:21:58Z</time>
<desc>lat.=42.450893, lon.=18.539898, Alt.=35.528839m. Speed=18.540001m/h.</desc>
<speed>5.150000</speed>
</trkpt>
<trkpt lat="42.450806" lon="18.539644">
<ele>33.177277</ele>
<time>2012-05-02T16:22:03Z</time>
<desc>lat.=42.450806, lon.=18.539644, Alt.=33.177277m. Speed=12.996000m/h.</desc>
<speed>3.610000</speed>
</trkpt>
<trkpt lat="42.450790" lon="18.539360">
<ele>29.910416</ele>
<time>2012-05-02T16:22:08Z</time>
<desc>lat.=42.450790, lon.=18.539360, Alt.=29.910416m. Speed=18.035999m/h.</desc>
<speed>5.010000</speed>
</trkpt>
<trkpt lat="42.450710" lon="18.539021">
<ele>22.868912</ele>
<time>2012-05-02T16:22:13Z</time>
<desc>lat.=42.450710, lon.=18.539021, Alt.=22.868912m. Speed=18.576000m/h.</desc>
<speed>5.160000</speed>
</trkpt>
<trkpt lat="42.450676" lon="18.538696">
<ele>16.028091</ele>
<time>2012-05-02T16:22:18Z</time>
<desc>lat.=42.450676, lon.=18.538696, Alt.=16.028091m. Speed=16.740000m/h.</desc>
<speed>4.650000</speed>
</trkpt>
<trkpt lat="42.450695" lon="18.538488">
<ele>14.326790</ele>
<time>2012-05-02T16:22:23Z</time>
<desc>lat.=42.450695, lon.=18.538488, Alt.=14.326790m. Speed=2.520000m/h.</desc>
<speed>0.700000</speed>
</trkpt>
<trkpt lat="42.450500" lon="18.538214">
<ele>20.203384</ele>
<time>2012-05-02T16:22:28Z</time>
<desc>lat.=42.450500, lon.=18.538214, Alt.=20.203384m. Speed=19.188000m/h.</desc>
<speed>5.330000</speed>
</trkpt>
<trkpt lat="42.450268" lon="18.538025">
<ele>26.512955</ele>
<time>2012-05-02T16:22:33Z</time>
<desc>lat.=42.450268, lon.=18.538025, Alt.=26.512955m. Speed=20.771999m/h.</desc>
<speed>5.770000</speed>
</trkpt>
<trkpt lat="42.450081" lon="18.537647">
<ele>26.573990</ele>
<time>2012-05-02T16:22:38Z</time>
<desc>lat.=42.450081, lon.=18.537647, Alt.=26.573990m. Speed=19.728001m/h.</desc>
<speed>5.480000</speed>
</trkpt>
<trkpt lat="42.450027" lon="18.537416">
<ele>26.508560</ele>
<time>2012-05-02T16:22:43Z</time>
<desc>lat.=42.450027, lon.=18.537416, Alt.=26.508560m. Speed=3.924000m/h.</desc>
<speed>1.090000</speed>
</trkpt>
<trkpt lat="42.450001" lon="18.537228">
<ele>29.281998</ele>
<time>2012-05-02T16:22:48Z</time>
<desc>lat.=42.450001, lon.=18.537228, Alt.=29.281998m. Speed=10.008000m/h.</desc>
<speed>2.780000</speed>
</trkpt>
<trkpt lat="42.450092" lon="18.536987">
<ele>22.844498</ele>
<time>2012-05-02T16:22:53Z</time>
<desc>lat.=42.450092, lon.=18.536987, Alt.=22.844498m. Speed=11.772000m/h.</desc>
<speed>3.270000</speed>
</trkpt>
<trkpt lat="42.450138" lon="18.536850">
<ele>22.609146</ele>
<time>2012-05-02T16:22:58Z</time>
<desc>lat.=42.450138, lon.=18.536850, Alt.=22.609146m. Speed=0.828000m/h.</desc>
<speed>0.230000</speed>
</trkpt>
<trkpt lat="42.450138" lon="18.536846">
<ele>22.211197</ele>
<time>2012-05-02T16:23:03Z</time>
<desc>lat.=42.450138, lon.=18.536846, Alt.=22.211197m. Speed=0.648000m/h.</desc>
<speed>0.180000</speed>
</trkpt>
<trkpt lat="42.450130" lon="18.536835">
<ele>22.192642</ele>
<time>2012-05-02T16:23:08Z</time>
<desc>lat.=42.450130, lon.=18.536835, Alt.=22.192642m. Speed=0.792000m/h.</desc>
<speed>0.220000</speed>
</trkpt>
<trkpt lat="42.450130" lon="18.536823">
<ele>22.343521</ele>
<time>2012-05-02T16:23:13Z</time>
<desc>lat.=42.450130, lon.=18.536823, Alt.=22.343521m. Speed=1.440000m/h.</desc>
<speed>0.400000</speed>
</trkpt>
<trkpt lat="42.450134" lon="18.536770">
<ele>22.959732</ele>
<time>2012-05-02T16:23:18Z</time>
<desc>lat.=42.450134, lon.=18.536770, Alt.=22.959732m. Speed=5.184000m/h.</desc>
<speed>1.440000</speed>
</trkpt>
<trkpt lat="42.450230" lon="18.536549">
<ele>27.886490</ele>
<time>2012-05-02T16:23:23Z</time>
<desc>lat.=42.450230, lon.=18.536549, Alt.=27.886490m. Speed=16.379999m/h.</desc>
<speed>4.550000</speed>
</trkpt>
<trkpt lat="42.450363" lon="18.536394">
<ele>28.790298</ele>
<time>2012-05-02T16:23:28Z</time>
<desc>lat.=42.450363, lon.=18.536394, Alt.=28.790298m. Speed=13.500000m/h.</desc>
<speed>3.750000</speed>
</trkpt>
<trkpt lat="42.450584" lon="18.536453">
<ele>32.547394</ele>
<time>2012-05-02T16:23:33Z</time>
<desc>lat.=42.450584, lon.=18.536453, Alt.=32.547394m. Speed=13.392000m/h.</desc>
<speed>3.720000</speed>
</trkpt>
<trkpt lat="42.450748" lon="18.536535">
<ele>36.278839</ele>
<time>2012-05-02T16:23:38Z</time>
<desc>lat.=42.450748, lon.=18.536535, Alt.=36.278839m. Speed=12.204000m/h.</desc>
<speed>3.390000</speed>
</trkpt>
<trkpt lat="42.450916" lon="18.536644">
<ele>39.130402</ele>
<time>2012-05-02T16:23:43Z</time>
<desc>lat.=42.450916, lon.=18.536644, Alt.=39.130402m. Speed=15.912000m/h.</desc>
<speed>4.420000</speed>
</trkpt>
<trkpt lat="42.451027" lon="18.536709">
<ele>45.048370</ele>
<time>2012-05-02T16:23:48Z</time>
<desc>lat.=42.451027, lon.=18.536709, Alt.=45.048370m. Speed=13.428000m/h.</desc>
<speed>3.730000</speed>
</trkpt>
<trkpt lat="42.451221" lon="18.536554">
<ele>48.575714</ele>
<time>2012-05-02T16:23:53Z</time>
<desc>lat.=42.451221, lon.=18.536554, Alt.=48.575714m. Speed=20.160000m/h.</desc>
<speed>5.600000</speed>
</trkpt>
<trkpt lat="42.451298" lon="18.536266">
<ele>52.266144</ele>
<time>2012-05-02T16:23:58Z</time>
<desc>lat.=42.451298, lon.=18.536266, Alt.=52.266144m. Speed=16.559999m/h.</desc>
<speed>4.600000</speed>
</trkpt>
<trkpt lat="42.451347" lon="18.535959">
<ele>57.491730</ele>
<time>2012-05-02T16:24:03Z</time>
<desc>lat.=42.451347, lon.=18.535959, Alt.=57.491730m. Speed=10.980000m/h.</desc>
<speed>3.050000</speed>
</trkpt>
<trkpt lat="42.451378" lon="18.535812">
<ele>62.582550</ele>
<time>2012-05-02T16:24:08Z</time>
<desc>lat.=42.451378, lon.=18.535812, Alt.=62.582550m. Speed=9.036000m/h.</desc>
<speed>2.510000</speed>
</trkpt>
<trkpt lat="42.451492" lon="18.535645">
<ele>66.184631</ele>
<time>2012-05-02T16:24:13Z</time>
<desc>lat.=42.451492, lon.=18.535645, Alt.=66.184631m. Speed=7.632000m/h.</desc>
<speed>2.120000</speed>
</trkpt>
<trkpt lat="42.451595" lon="18.535454">
<ele>58.635284</ele>
<time>2012-05-02T16:24:18Z</time>
<desc>lat.=42.451595, lon.=18.535454, Alt.=58.635284m. Speed=6.012000m/h.</desc>
<speed>1.670000</speed>
</trkpt>
<trkpt lat="42.451706" lon="18.535358">
<ele>59.914581</ele>
<time>2012-05-02T16:24:23Z</time>
<desc>lat.=42.451706, lon.=18.535358, Alt.=59.914581m. Speed=13.068000m/h.</desc>
<speed>3.630000</speed>
</trkpt>
<trkpt lat="42.451790" lon="18.535175">
<ele>59.023956</ele>
<time>2012-05-02T16:24:28Z</time>
<desc>lat.=42.451790, lon.=18.535175, Alt.=59.023956m. Speed=13.968000m/h.</desc>
<speed>3.880000</speed>
</trkpt>
<trkpt lat="42.451820" lon="18.534948">
<ele>61.115753</ele>
<time>2012-05-02T16:24:33Z</time>
<desc>lat.=42.451820, lon.=18.534948, Alt.=61.115753m. Speed=12.132000m/h.</desc>
<speed>3.370000</speed>
</trkpt>
<trkpt lat="42.451809" lon="18.534706">
<ele>61.992706</ele>
<time>2012-05-02T16:24:38Z</time>
<desc>lat.=42.451809, lon.=18.534706, Alt.=61.992706m. Speed=7.092000m/h.</desc>
<speed>1.970000</speed>
</trkpt>
<trkpt lat="42.451847" lon="18.534407">
<ele>60.872589</ele>
<time>2012-05-02T16:24:43Z</time>
<desc>lat.=42.451847, lon.=18.534407, Alt.=60.872589m. Speed=15.768000m/h.</desc>
<speed>4.380000</speed>
</trkpt>
<trkpt lat="42.451885" lon="18.534132">
<ele>59.948761</ele>
<time>2012-05-02T16:24:48Z</time>
<desc>lat.=42.451885, lon.=18.534132, Alt.=59.948761m. Speed=12.924000m/h.</desc>
<speed>3.590000</speed>
</trkpt>
<trkpt lat="42.452042" lon="18.533909">
<ele>58.817902</ele>
<time>2012-05-02T16:24:53Z</time>
<desc>lat.=42.452042, lon.=18.533909, Alt.=58.817902m. Speed=13.932000m/h.</desc>
<speed>3.870000</speed>
</trkpt>
<trkpt lat="42.452187" lon="18.533691">
<ele>57.035675</ele>
<time>2012-05-02T16:24:58Z</time>
<desc>lat.=42.452187, lon.=18.533691, Alt.=57.035675m. Speed=3.096000m/h.</desc>
<speed>0.860000</speed>
</trkpt>
<trkpt lat="42.452354" lon="18.533470">
<ele>53.702667</ele>
<time>2012-05-02T16:25:03Z</time>
<desc>lat.=42.452354, lon.=18.533470, Alt.=53.702667m. Speed=26.964001m/h.</desc>
<speed>7.490000</speed>
</trkpt>
<trkpt lat="42.452515" lon="18.533152">
<ele>50.349152</ele>
<time>2012-05-02T16:25:08Z</time>
<desc>lat.=42.452515, lon.=18.533152, Alt.=50.349152m. Speed=16.164000m/h.</desc>
<speed>4.490000</speed>
</trkpt>
<trkpt lat="42.452675" lon="18.532900">
<ele>48.598175</ele>
<time>2012-05-02T16:25:13Z</time>
<desc>lat.=42.452675, lon.=18.532900, Alt.=48.598175m. Speed=10.836000m/h.</desc>
<speed>3.010000</speed>
</trkpt>
<trkpt lat="42.452770" lon="18.532751">
<ele>49.921417</ele>
<time>2012-05-02T16:25:18Z</time>
<desc>lat.=42.452770, lon.=18.532751, Alt.=49.921417m. Speed=11.916000m/h.</desc>
<speed>3.310000</speed>
</trkpt>
<trkpt lat="42.452808" lon="18.532547">
<ele>49.452667</ele>
<time>2012-05-02T16:25:23Z</time>
<desc>lat.=42.452808, lon.=18.532547, Alt.=49.452667m. Speed=3.132000m/h.</desc>
<speed>0.870000</speed>
</trkpt>
<trkpt lat="42.452862" lon="18.532436">
<ele>48.717316</ele>
<time>2012-05-02T16:25:28Z</time>
<desc>lat.=42.452862, lon.=18.532436, Alt.=48.717316m. Speed=1.044000m/h.</desc>
<speed>0.290000</speed>
</trkpt>
<trkpt lat="42.452885" lon="18.532431">
<ele>49.922394</ele>
<time>2012-05-02T16:25:33Z</time>
<desc>lat.=42.452885, lon.=18.532431, Alt.=49.922394m. Speed=0.972000m/h.</desc>
<speed>0.270000</speed>
</trkpt>
<trkpt lat="42.452892" lon="18.532417">
<ele>50.019073</ele>
<time>2012-05-02T16:25:38Z</time>
<desc>lat.=42.452892, lon.=18.532417, Alt.=50.019073m. Speed=3.276000m/h.</desc>
<speed>0.910000</speed>
</trkpt>
<trkpt lat="42.452782" lon="18.532427">
<ele>52.707550</ele>
<time>2012-05-02T16:25:43Z</time>
<desc>lat.=42.452782, lon.=18.532427, Alt.=52.707550m. Speed=15.012000m/h.</desc>
<speed>4.170000</speed>
</trkpt>
<trkpt lat="42.452625" lon="18.532663">
<ele>53.799347</ele>
<time>2012-05-02T16:25:48Z</time>
<desc>lat.=42.452625, lon.=18.532663, Alt.=53.799347m. Speed=16.056000m/h.</desc>
<speed>4.460000</speed>
</trkpt>
<trkpt lat="42.452454" lon="18.532970">
<ele>54.679230</ele>
<time>2012-05-02T16:25:53Z</time>
<desc>lat.=42.452454, lon.=18.532970, Alt.=54.679230m. Speed=22.068001m/h.</desc>
<speed>6.130000</speed>
</trkpt>
<trkpt lat="42.452316" lon="18.533319">
<ele>52.588409</ele>
<time>2012-05-02T16:25:58Z</time>
<desc>lat.=42.452316, lon.=18.533319, Alt.=52.588409m. Speed=18.216000m/h.</desc>
<speed>5.060000</speed>
</trkpt>
<trkpt lat="42.452141" lon="18.533607">
<ele>51.053253</ele>
<time>2012-05-02T16:26:03Z</time>
<desc>lat.=42.452141, lon.=18.533607, Alt.=51.053253m. Speed=18.576000m/h.</desc>
<speed>5.160000</speed>
</trkpt>
<trkpt lat="42.451939" lon="18.533857">
<ele>52.507355</ele>
<time>2012-05-02T16:26:08Z</time>
<desc>lat.=42.451939, lon.=18.533857, Alt.=52.507355m. Speed=19.764000m/h.</desc>
<speed>5.490000</speed>
</trkpt>
<trkpt lat="42.451862" lon="18.534256">
<ele>50.598175</ele>
<time>2012-05-02T16:26:13Z</time>
<desc>lat.=42.451862, lon.=18.534256, Alt.=50.598175m. Speed=20.844000m/h.</desc>
<speed>5.790000</speed>
</trkpt>
<trkpt lat="42.451782" lon="18.534565">
<ele>48.356964</ele>
<time>2012-05-02T16:26:18Z</time>
<desc>lat.=42.451782, lon.=18.534565, Alt.=48.356964m. Speed=11.376000m/h.</desc>
<speed>3.160000</speed>
</trkpt>
<trkpt lat="42.451797" lon="18.534676">
<ele>49.598175</ele>
<time>2012-05-02T16:26:23Z</time>
<desc>lat.=42.451797, lon.=18.534676, Alt.=49.598175m. Speed=8.640000m/h.</desc>
<speed>2.400000</speed>
</trkpt>
<trkpt lat="42.451828" lon="18.534832">
<ele>46.862823</ele>
<time>2012-05-02T16:26:28Z</time>
<desc>lat.=42.451828, lon.=18.534832, Alt.=46.862823m. Speed=11.808000m/h.</desc>
<speed>3.280000</speed>
</trkpt>
<trkpt lat="42.451904" lon="18.535080">
<ele>44.829620</ele>
<time>2012-05-02T16:26:33Z</time>
<desc>lat.=42.451904, lon.=18.535080, Alt.=44.829620m. Speed=15.156000m/h.</desc>
<speed>4.210000</speed>
</trkpt>
<trkpt lat="42.451870" lon="18.535435">
<ele>48.469269</ele>
<time>2012-05-02T16:26:38Z</time>
<desc>lat.=42.451870, lon.=18.535435, Alt.=48.469269m. Speed=19.908001m/h.</desc>
<speed>5.530000</speed>
</trkpt>
<trkpt lat="42.451797" lon="18.535736">
<ele>49.168488</ele>
<time>2012-05-02T16:26:43Z</time>
<desc>lat.=42.451797, lon.=18.535736, Alt.=49.168488m. Speed=16.992001m/h.</desc>
<speed>4.720000</speed>
</trkpt>
<trkpt lat="42.451763" lon="18.536053">
<ele>49.341339</ele>
<time>2012-05-02T16:26:48Z</time>
<desc>lat.=42.451763, lon.=18.536053, Alt.=49.341339m. Speed=15.732000m/h.</desc>
<speed>4.370000</speed>
</trkpt>
<trkpt lat="42.451759" lon="18.536339">
<ele>49.441925</ele>
<time>2012-05-02T16:26:53Z</time>
<desc>lat.=42.451759, lon.=18.536339, Alt.=49.441925m. Speed=13.896000m/h.</desc>
<speed>3.860000</speed>
</trkpt>
<trkpt lat="42.451744" lon="18.536516">
<ele>52.147003</ele>
<time>2012-05-02T16:26:58Z</time>
<desc>lat.=42.451744, lon.=18.536516, Alt.=52.147003m. Speed=1.980000m/h.</desc>
<speed>0.550000</speed>
</trkpt>
<trkpt lat="42.451832" lon="18.536549">
<ele>53.991730</ele>
<time>2012-05-02T16:27:03Z</time>
<desc>lat.=42.451832, lon.=18.536549, Alt.=53.991730m. Speed=6.048000m/h.</desc>
<speed>1.680000</speed>
</trkpt>
<trkpt lat="42.451889" lon="18.536598">
<ele>55.147980</ele>
<time>2012-05-02T16:27:08Z</time>
<desc>lat.=42.451889, lon.=18.536598, Alt.=55.147980m. Speed=0.828000m/h.</desc>
<speed>0.230000</speed>
</trkpt>
<trkpt lat="42.451920" lon="18.536581">
<ele>56.061066</ele>
<time>2012-05-02T16:27:13Z</time>
<desc>lat.=42.451920, lon.=18.536581, Alt.=56.061066m. Speed=5.760000m/h.</desc>
<speed>1.600000</speed>
</trkpt>
<trkpt lat="42.451950" lon="18.536369">
<ele>57.458527</ele>
<time>2012-05-02T16:27:18Z</time>
<desc>lat.=42.451950, lon.=18.536369, Alt.=57.458527m. Speed=12.528000m/h.</desc>
<speed>3.480000</speed>
</trkpt>
<trkpt lat="42.452190" lon="18.536154">
<ele>58.725128</ele>
<time>2012-05-02T16:27:23Z</time>
<desc>lat.=42.452190, lon.=18.536154, Alt.=58.725128m. Speed=15.372000m/h.</desc>
<speed>4.270000</speed>
</trkpt>
<trkpt lat="42.452312" lon="18.535952">
<ele>60.599152</ele>
<time>2012-05-02T16:27:28Z</time>
<desc>lat.=42.452312, lon.=18.535952, Alt.=60.599152m. Speed=14.076000m/h.</desc>
<speed>3.910000</speed>
</trkpt>
<trkpt lat="42.452450" lon="18.535782">
<ele>60.878448</ele>
<time>2012-05-02T16:27:33Z</time>
<desc>lat.=42.452450, lon.=18.535782, Alt.=60.878448m. Speed=12.240000m/h.</desc>
<speed>3.400000</speed>
</trkpt>
<trkpt lat="42.452564" lon="18.535595">
<ele>59.956573</ele>
<time>2012-05-02T16:27:38Z</time>
<desc>lat.=42.452564, lon.=18.535595, Alt.=59.956573m. Speed=1.728000m/h.</desc>
<speed>0.480000</speed>
</trkpt>
<trkpt lat="42.452633" lon="18.535355">
<ele>64.311584</ele>
<time>2012-05-02T16:27:43Z</time>
<desc>lat.=42.452633, lon.=18.535355, Alt.=64.311584m. Speed=13.644000m/h.</desc>
<speed>3.790000</speed>
</trkpt>
<trkpt lat="42.452663" lon="18.535139">
<ele>66.379944</ele>
<time>2012-05-02T16:27:48Z</time>
<desc>lat.=42.452663, lon.=18.535139, Alt.=66.379944m. Speed=11.448000m/h.</desc>
<speed>3.180000</speed>
</trkpt>
<trkpt lat="42.452667" lon="18.534966">
<ele>68.317444</ele>
<time>2012-05-02T16:27:53Z</time>
<desc>lat.=42.452667, lon.=18.534966, Alt.=68.317444m. Speed=4.716000m/h.</desc>
<speed>1.310000</speed>
</trkpt>
<trkpt lat="42.452633" lon="18.534798">
<ele>70.352600</ele>
<time>2012-05-02T16:27:58Z</time>
<desc>lat.=42.452633, lon.=18.534798, Alt.=70.352600m. Speed=10.152000m/h.</desc>
<speed>2.820000</speed>
</trkpt>
<trkpt lat="42.452705" lon="18.534626">
<ele>74.262756</ele>
<time>2012-05-02T16:28:03Z</time>
<desc>lat.=42.452705, lon.=18.534626, Alt.=74.262756m. Speed=8.820000m/h.</desc>
<speed>2.450000</speed>
</trkpt>
<trkpt lat="42.452816" lon="18.534536">
<ele>74.215881</ele>
<time>2012-05-02T16:28:08Z</time>
<desc>lat.=42.452816, lon.=18.534536, Alt.=74.215881m. Speed=4.104000m/h.</desc>
<speed>1.140000</speed>
</trkpt>
<trkpt lat="42.452869" lon="18.534458">
<ele>74.805725</ele>
<time>2012-05-02T16:28:13Z</time>
<desc>lat.=42.452869, lon.=18.534458, Alt.=74.805725m. Speed=0.720000m/h.</desc>
<speed>0.200000</speed>
</trkpt>
<trkpt lat="42.452881" lon="18.534424">
<ele>74.797913</ele>
<time>2012-05-02T16:28:18Z</time>
<desc>lat.=42.452881, lon.=18.534424, Alt.=74.797913m. Speed=6.732000m/h.</desc>
<speed>1.870000</speed>
</trkpt>
<trkpt lat="42.452908" lon="18.534277">
<ele>76.708069</ele>
<time>2012-05-02T16:28:23Z</time>
<desc>lat.=42.452908, lon.=18.534277, Alt.=76.708069m. Speed=8.856000m/h.</desc>
<speed>2.460000</speed>
</trkpt>
<trkpt lat="42.452953" lon="18.534172">
<ele>80.901428</ele>
<time>2012-05-02T16:28:28Z</time>
<desc>lat.=42.452953, lon.=18.534172, Alt.=80.901428m. Speed=7.416000m/h.</desc>
<speed>2.060000</speed>
</trkpt>
<trkpt lat="42.452969" lon="18.534101">
<ele>81.614319</ele>
<time>2012-05-02T16:28:33Z</time>
<desc>lat.=42.452969, lon.=18.534101, Alt.=81.614319m. Speed=0.288000m/h.</desc>
<speed>0.080000</speed>
</trkpt>
<trkpt lat="42.452953" lon="18.534098">
<ele>82.071350</ele>
<time>2012-05-02T16:28:38Z</time>
<desc>lat.=42.452953, lon.=18.534098, Alt.=82.071350m. Speed=0.180000m/h.</desc>
<speed>0.050000</speed>
</trkpt>
<trkpt lat="42.452953" lon="18.534098">
<ele>82.127991</ele>
<time>2012-05-02T16:28:43Z</time>
<desc>lat.=42.452953, lon.=18.534098, Alt.=82.127991m. Speed=0.072000m/h.</desc>
<speed>0.020000</speed>
</trkpt>
<trkpt lat="42.452950" lon="18.534094">
<ele>82.124084</ele>
<time>2012-05-02T16:28:48Z</time>
<desc>lat.=42.452950, lon.=18.534094, Alt.=82.124084m. Speed=0.288000m/h.</desc>
<speed>0.080000</speed>
</trkpt>
<trkpt lat="42.452950" lon="18.534092">
<ele>82.174866</ele>
<time>2012-05-02T16:28:53Z</time>
<desc>lat.=42.452950, lon.=18.534092, Alt.=82.174866m. Speed=0.180000m/h.</desc>
<speed>0.050000</speed>
</trkpt>
<trkpt lat="42.452950" lon="18.534092">
<ele>82.143616</ele>
<time>2012-05-02T16:28:58Z</time>
<desc>lat.=42.452950, lon.=18.534092, Alt.=82.143616m. Speed=0.072000m/h.</desc>
<speed>0.020000</speed>
</trkpt>
<trkpt lat="42.452950" lon="18.534092">
<ele>82.129944</ele>
<time>2012-05-02T16:29:03Z</time>
<desc>lat.=42.452950, lon.=18.534092, Alt.=82.129944m. Speed=0.000000m/h.</desc>
<speed>0.000000</speed>
</trkpt>
<trkpt lat="42.452946" lon="18.534094">
<ele>82.147522</ele>
<time>2012-05-02T16:29:08Z</time>
<desc>lat.=42.452946, lon.=18.534094, Alt.=82.147522m. Speed=0.036000m/h.</desc>
<speed>0.010000</speed>
</trkpt>
<trkpt lat="42.452950" lon="18.534094">
<ele>82.057678</ele>
<time>2012-05-02T16:29:13Z</time>
<desc>lat.=42.452950, lon.=18.534094, Alt.=82.057678m. Speed=0.540000m/h.</desc>
<speed>0.150000</speed>
</trkpt>
<trkpt lat="42.453014" lon="18.534126">
<ele>80.430725</ele>
<time>2012-05-02T16:29:18Z</time>
<desc>lat.=42.453014, lon.=18.534126, Alt.=80.430725m. Speed=8.712000m/h.</desc>
<speed>2.420000</speed>
</trkpt>
<trkpt lat="42.453014" lon="18.534336">
<ele>79.114319</ele>
<time>2012-05-02T16:29:23Z</time>
<desc>lat.=42.453014, lon.=18.534336, Alt.=79.114319m. Speed=12.708000m/h.</desc>
<speed>3.530000</speed>
</trkpt>
<trkpt lat="42.453007" lon="18.534576">
<ele>77.504944</ele>
<time>2012-05-02T16:29:28Z</time>
<desc>lat.=42.453007, lon.=18.534576, Alt.=77.504944m. Speed=16.091999m/h.</desc>
<speed>4.470000</speed>
</trkpt>
<trkpt lat="42.453030" lon="18.534912">
<ele>76.419006</ele>
<time>2012-05-02T16:29:33Z</time>
<desc>lat.=42.453030, lon.=18.534912, Alt.=76.419006m. Speed=19.656000m/h.</desc>
<speed>5.460000</speed>
</trkpt>
<trkpt lat="42.453056" lon="18.535267">
<ele>77.022522</ele>
<time>2012-05-02T16:29:38Z</time>
<desc>lat.=42.453056, lon.=18.535267, Alt.=77.022522m. Speed=16.740000m/h.</desc>
<speed>4.650000</speed>
</trkpt>
<trkpt lat="42.453079" lon="18.535597">
<ele>77.797913</ele>
<time>2012-05-02T16:29:43Z</time>
<desc>lat.=42.453079, lon.=18.535597, Alt.=77.797913m. Speed=20.195999m/h.</desc>
<speed>5.610000</speed>
</trkpt>
<trkpt lat="42.453110" lon="18.535900">
<ele>77.317444</ele>
<time>2012-05-02T16:29:48Z</time>
<desc>lat.=42.453110, lon.=18.535900, Alt.=77.317444m. Speed=17.784000m/h.</desc>
<speed>4.940000</speed>
</trkpt>
<trkpt lat="42.453117" lon="18.536217">
<ele>77.290100</ele>
<time>2012-05-02T16:29:53Z</time>
<desc>lat.=42.453117, lon.=18.536217, Alt.=77.290100m. Speed=16.452000m/h.</desc>
<speed>4.570000</speed>
</trkpt>
<trkpt lat="42.453129" lon="18.536531">
<ele>77.924866</ele>
<time>2012-05-02T16:29:58Z</time>
<desc>lat.=42.453129, lon.=18.536531, Alt.=77.924866m. Speed=20.340000m/h.</desc>
<speed>5.650000</speed>
</trkpt>
<trkpt lat="42.453114" lon="18.536898">
<ele>79.350647</ele>
<time>2012-05-02T16:30:03Z</time>
<desc>lat.=42.453114, lon.=18.536898, Alt.=79.350647m. Speed=18.504000m/h.</desc>
<speed>5.140000</speed>
</trkpt>
<trkpt lat="42.453049" lon="18.537195">
<ele>80.645569</ele>
<time>2012-05-02T16:30:08Z</time>
<desc>lat.=42.453049, lon.=18.537195, Alt.=80.645569m. Speed=21.816000m/h.</desc>
<speed>6.060000</speed>
</trkpt>
<trkpt lat="42.452976" lon="18.537510">
<ele>81.321350</ele>
<time>2012-05-02T16:30:13Z</time>
<desc>lat.=42.452976, lon.=18.537510, Alt.=81.321350m. Speed=17.964001m/h.</desc>
<speed>4.990000</speed>
</trkpt>
<trkpt lat="42.452946" lon="18.537836">
<ele>83.331116</ele>
<time>2012-05-02T16:30:18Z</time>
<desc>lat.=42.452946, lon.=18.537836, Alt.=83.331116m. Speed=18.216000m/h.</desc>
<speed>5.060000</speed>
</trkpt>
<trkpt lat="42.452976" lon="18.538097">
<ele>83.290100</ele>
<time>2012-05-02T16:30:23Z</time>
<desc>lat.=42.452976, lon.=18.538097, Alt.=83.290100m. Speed=14.796000m/h.</desc>
<speed>4.110000</speed>
</trkpt>
<trkpt lat="42.453026" lon="18.538324">
<ele>82.717834</ele>
<time>2012-05-02T16:30:28Z</time>
<desc>lat.=42.453026, lon.=18.538324, Alt.=82.717834m. Speed=9.900000m/h.</desc>
<speed>2.750000</speed>
</trkpt>
<trkpt lat="42.453056" lon="18.538465">
<ele>81.510803</ele>
<time>2012-05-02T16:30:33Z</time>
<desc>lat.=42.453056, lon.=18.538465, Alt.=81.510803m. Speed=6.228000m/h.</desc>
<speed>1.730000</speed>
</trkpt>
<trkpt lat="42.453060" lon="18.538544">
<ele>82.637756</ele>
<time>2012-05-02T16:30:38Z</time>
<desc>lat.=42.453060, lon.=18.538544, Alt.=82.637756m. Speed=3.744000m/h.</desc>
<speed>1.040000</speed>
</trkpt>
<trkpt lat="42.453056" lon="18.538622">
<ele>84.745178</ele>
<time>2012-05-02T16:30:43Z</time>
<desc>lat.=42.453056, lon.=18.538622, Alt.=84.745178m. Speed=5.040000m/h.</desc>
<speed>1.400000</speed>
</trkpt>
<trkpt lat="42.453114" lon="18.538704">
<ele>82.120178</ele>
<time>2012-05-02T16:30:48Z</time>
<desc>lat.=42.453114, lon.=18.538704, Alt.=82.120178m. Speed=8.784000m/h.</desc>
<speed>2.440000</speed>
</trkpt>
<trkpt lat="42.453129" lon="18.538551">
<ele>82.122131</ele>
<time>2012-05-02T16:30:53Z</time>
<desc>lat.=42.453129, lon.=18.538551, Alt.=82.122131m. Speed=10.224000m/h.</desc>
<speed>2.840000</speed>
</trkpt>
<trkpt lat="42.453148" lon="18.538311">
<ele>82.458069</ele>
<time>2012-05-02T16:30:58Z</time>
<desc>lat.=42.453148, lon.=18.538311, Alt.=82.458069m. Speed=8.064000m/h.</desc>
<speed>2.240000</speed>
</trkpt>
<trkpt lat="42.453224" lon="18.538200">
<ele>81.852600</ele>
<time>2012-05-02T16:31:03Z</time>
<desc>lat.=42.453224, lon.=18.538200, Alt.=81.852600m. Speed=5.040000m/h.</desc>
<speed>1.400000</speed>
</trkpt>
<trkpt lat="42.453304" lon="18.538118">
<ele>81.893616</ele>
<time>2012-05-02T16:31:08Z</time>
<desc>lat.=42.453304, lon.=18.538118, Alt.=81.893616m. Speed=1.404000m/h.</desc>
<speed>0.390000</speed>
</trkpt>
<trkpt lat="42.453320" lon="18.538094">
<ele>82.126038</ele>
<time>2012-05-02T16:31:13Z</time>
<desc>lat.=42.453320, lon.=18.538094, Alt.=82.126038m. Speed=1.404000m/h.</desc>
<speed>0.390000</speed>
</trkpt>
<trkpt lat="42.453331" lon="18.538088">
<ele>82.127991</ele>
<time>2012-05-02T16:31:18Z</time>
<desc>lat.=42.453331, lon.=18.538088, Alt.=82.127991m. Speed=1.152000m/h.</desc>
<speed>0.320000</speed>
</trkpt>
<trkpt lat="42.453281" lon="18.538145">
<ele>82.360413</ele>
<time>2012-05-02T16:31:23Z</time>
<desc>lat.=42.453281, lon.=18.538145, Alt.=82.360413m. Speed=12.420000m/h.</desc>
<speed>3.450000</speed>
</trkpt>
<trkpt lat="42.453201" lon="18.538364">
<ele>82.251038</ele>
<time>2012-05-02T16:31:28Z</time>
<desc>lat.=42.453201, lon.=18.538364, Alt.=82.251038m. Speed=18.648001m/h.</desc>
<speed>5.180000</speed>
</trkpt>
<trkpt lat="42.453186" lon="18.538633">
<ele>82.116272</ele>
<time>2012-05-02T16:31:33Z</time>
<desc>lat.=42.453186, lon.=18.538633, Alt.=82.116272m. Speed=11.160000m/h.</desc>
<speed>3.100000</speed>
</trkpt>
<trkpt lat="42.453220" lon="18.538790">
<ele>81.092834</ele>
<time>2012-05-02T16:31:38Z</time>
<desc>lat.=42.453220, lon.=18.538790, Alt.=81.092834m. Speed=11.340000m/h.</desc>
<speed>3.150000</speed>
</trkpt>
<trkpt lat="42.453224" lon="18.538923">
<ele>81.145569</ele>
<time>2012-05-02T16:31:43Z</time>
<desc>lat.=42.453224, lon.=18.538923, Alt.=81.145569m. Speed=5.328000m/h.</desc>
<speed>1.480000</speed>
</trkpt>
<trkpt lat="42.453262" lon="18.539074">
<ele>80.551819</ele>
<time>2012-05-02T16:31:48Z</time>
<desc>lat.=42.453262, lon.=18.539074, Alt.=80.551819m. Speed=13.212000m/h.</desc>
<speed>3.670000</speed>
</trkpt>
<trkpt lat="42.453316" lon="18.539297">
<ele>80.182678</ele>
<time>2012-05-02T16:31:53Z</time>
<desc>lat.=42.453316, lon.=18.539297, Alt.=80.182678m. Speed=10.152000m/h.</desc>
<speed>2.820000</speed>
</trkpt>
<trkpt lat="42.453350" lon="18.539454">
<ele>79.747131</ele>
<time>2012-05-02T16:31:58Z</time>
<desc>lat.=42.453350, lon.=18.539454, Alt.=79.747131m. Speed=12.384000m/h.</desc>
<speed>3.440000</speed>
</trkpt>
<trkpt lat="42.453373" lon="18.539673">
<ele>79.251038</ele>
<time>2012-05-02T16:32:03Z</time>
<desc>lat.=42.453373, lon.=18.539673, Alt.=79.251038m. Speed=12.420000m/h.</desc>
<speed>3.450000</speed>
</trkpt>
<trkpt lat="42.453403" lon="18.539902">
<ele>77.678772</ele>
<time>2012-05-02T16:32:08Z</time>
<desc>lat.=42.453403, lon.=18.539902, Alt.=77.678772m. Speed=15.444000m/h.</desc>
<speed>4.290000</speed>
</trkpt>
<trkpt lat="42.453438" lon="18.540167">
<ele>76.711975</ele>
<time>2012-05-02T16:32:13Z</time>
<desc>lat.=42.453438, lon.=18.540167, Alt.=76.711975m. Speed=14.184000m/h.</desc>
<speed>3.940000</speed>
</trkpt>
<trkpt lat="42.453503" lon="18.540401">
<ele>73.719788</ele>
<time>2012-05-02T16:32:18Z</time>
<desc>lat.=42.453503, lon.=18.540401, Alt.=73.719788m. Speed=13.968000m/h.</desc>
<speed>3.880000</speed>
</trkpt>
<trkpt lat="42.453590" lon="18.540588">
<ele>71.598694</ele>
<time>2012-05-02T16:32:23Z</time>
<desc>lat.=42.453590, lon.=18.540588, Alt.=71.598694m. Speed=5.184000m/h.</desc>
<speed>1.440000</speed>
</trkpt>
<trkpt lat="42.453743" lon="18.540768">
<ele>71.008850</ele>
<time>2012-05-02T16:32:28Z</time>
<desc>lat.=42.453743, lon.=18.540768, Alt.=71.008850m. Speed=18.612000m/h.</desc>
<speed>5.170000</speed>
</trkpt>
<trkpt lat="42.453941" lon="18.541050">
<ele>68.743225</ele>
<time>2012-05-02T16:32:33Z</time>
<desc>lat.=42.453941, lon.=18.541050, Alt.=68.743225m. Speed=20.952000m/h.</desc>
<speed>5.820000</speed>
</trkpt>
<trkpt lat="42.454166" lon="18.541199">
<ele>67.717834</ele>
<time>2012-05-02T16:32:38Z</time>
<desc>lat.=42.454166, lon.=18.541199, Alt.=67.717834m. Speed=16.524000m/h.</desc>
<speed>4.590000</speed>
</trkpt>
<trkpt lat="42.454304" lon="18.541220">
<ele>65.389709</ele>
<time>2012-05-02T16:32:43Z</time>
<desc>lat.=42.454304, lon.=18.541220, Alt.=65.389709m. Speed=10.188000m/h.</desc>
<speed>2.830000</speed>
</trkpt>
<trkpt lat="42.454483" lon="18.541229">
<ele>64.827209</ele>
<time>2012-05-02T16:32:48Z</time>
<desc>lat.=42.454483, lon.=18.541229, Alt.=64.827209m. Speed=16.596001m/h.</desc>
<speed>4.610000</speed>
</trkpt>
<trkpt lat="42.454609" lon="18.541201">
<ele>60.854034</ele>
<time>2012-05-02T16:32:53Z</time>
<desc>lat.=42.454609, lon.=18.541201, Alt.=60.854034m. Speed=7.956000m/h.</desc>
<speed>2.210000</speed>
</trkpt>
<trkpt lat="42.454697" lon="18.541117">
<ele>58.248566</ele>
<time>2012-05-02T16:32:58Z</time>
<desc>lat.=42.454697, lon.=18.541117, Alt.=58.248566m. Speed=10.584000m/h.</desc>
<speed>2.940000</speed>
</trkpt>
<trkpt lat="42.454849" lon="18.540953">
<ele>55.653839</ele>
<time>2012-05-02T16:33:03Z</time>
<desc>lat.=42.454849, lon.=18.540953, Alt.=55.653839m. Speed=11.412000m/h.</desc>
<speed>3.170000</speed>
</trkpt>
<trkpt lat="42.454903" lon="18.540863">
<ele>54.272003</ele>
<time>2012-05-02T16:33:08Z</time>
<desc>lat.=42.454903, lon.=18.540863, Alt.=54.272003m. Speed=1.692000m/h.</desc>
<speed>0.470000</speed>
</trkpt>
<trkpt lat="42.454952" lon="18.540895">
<ele>52.940948</ele>
<time>2012-05-02T16:33:13Z</time>
<desc>lat.=42.454952, lon.=18.540895, Alt.=52.940948m. Speed=8.892000m/h.</desc>
<speed>2.470000</speed>
</trkpt>
<trkpt lat="42.454849" lon="18.540949">
<ele>51.565948</ele>
<time>2012-05-02T16:33:18Z</time>
<desc>lat.=42.454849, lon.=18.540949, Alt.=51.565948m. Speed=7.668000m/h.</desc>
<speed>2.130000</speed>
</trkpt>
<trkpt lat="42.454735" lon="18.540953">
<ele>49.387238</ele>
<time>2012-05-02T16:33:23Z</time>
<desc>lat.=42.454735, lon.=18.540953, Alt.=49.387238m. Speed=7.056000m/h.</desc>
<speed>1.960000</speed>
</trkpt>
<trkpt lat="42.454609" lon="18.541008">
<ele>46.979034</ele>
<time>2012-05-02T16:33:28Z</time>
<desc>lat.=42.454609, lon.=18.541008, Alt.=46.979034m. Speed=9.180000m/h.</desc>
<speed>2.550000</speed>
</trkpt>
<trkpt lat="42.454491" lon="18.541042">
<ele>45.097198</ele>
<time>2012-05-02T16:33:33Z</time>
<desc>lat.=42.454491, lon.=18.541042, Alt.=45.097198m. Speed=8.136000m/h.</desc>
<speed>2.260000</speed>
</trkpt>
<trkpt lat="42.454384" lon="18.541021">
<ele>44.366730</ele>
<time>2012-05-02T16:33:38Z</time>
<desc>lat.=42.454384, lon.=18.541021, Alt.=44.366730m. Speed=9.612000m/h.</desc>
<speed>2.670000</speed>
</trkpt>
<trkpt lat="42.454243" lon="18.540968">
<ele>43.188019</ele>
<time>2012-05-02T16:33:43Z</time>
<desc>lat.=42.454243, lon.=18.540968, Alt.=43.188019m. Speed=12.204000m/h.</desc>
<speed>3.390000</speed>
</trkpt>
<trkpt lat="42.454082" lon="18.540899">
<ele>43.081573</ele>
<time>2012-05-02T16:33:48Z</time>
<desc>lat.=42.454082, lon.=18.540899, Alt.=43.081573m. Speed=4.752000m/h.</desc>
<speed>1.320000</speed>
</trkpt>
<trkpt lat="42.454098" lon="18.540901">
<ele>43.959503</ele>
<time>2012-05-02T16:33:53Z</time>
<desc>lat.=42.454098, lon.=18.540901, Alt.=43.959503m. Speed=0.144000m/h.</desc>
<speed>0.040000</speed>
</trkpt>
<trkpt lat="42.454098" lon="18.540901">
<ele>43.549347</ele>
<time>2012-05-02T16:33:58Z</time>
<desc>lat.=42.454098, lon.=18.540901, Alt.=43.549347m. Speed=0.144000m/h.</desc>
<speed>0.040000</speed>
</trkpt>
<trkpt lat="42.454102" lon="18.540901">
<ele>43.471222</ele>
<time>2012-05-02T16:34:03Z</time>
<desc>lat.=42.454102, lon.=18.540901, Alt.=43.471222m. Speed=0.180000m/h.</desc>
<speed>0.050000</speed>
</trkpt>
<trkpt lat="42.454102" lon="18.540899">
<ele>43.463409</ele>
<time>2012-05-02T16:34:08Z</time>
<desc>lat.=42.454102, lon.=18.540899, Alt.=43.463409m. Speed=0.324000m/h.</desc>
<speed>0.090000</speed>
</trkpt>
<trkpt lat="42.454102" lon="18.540897">
<ele>43.514191</ele>
<time>2012-05-02T16:34:13Z</time>
<desc>lat.=42.454102, lon.=18.540897, Alt.=43.514191m. Speed=0.180000m/h.</desc>
<speed>0.050000</speed>
</trkpt>
<trkpt lat="42.454102" lon="18.540894">
<ele>43.579620</ele>
<time>2012-05-02T16:34:18Z</time>
<desc>lat.=42.454102, lon.=18.540894, Alt.=43.579620m. Speed=0.108000m/h.</desc>
<speed>0.030000</speed>
</trkpt>
<trkpt lat="42.454098" lon="18.540897">
<ele>43.674347</ele>
<time>2012-05-02T16:34:23Z</time>
<desc>lat.=42.454098, lon.=18.540897, Alt.=43.674347m. Speed=2.160000m/h.</desc>
<speed>0.600000</speed>
</trkpt>
<trkpt lat="42.454063" lon="18.540892">
<ele>43.791534</ele>
<time>2012-05-02T16:34:28Z</time>
<desc>lat.=42.454063, lon.=18.540892, Alt.=43.791534m. Speed=2.844000m/h.</desc>
<speed>0.790000</speed>
</trkpt>
<trkpt lat="42.454029" lon="18.540892">
<ele>43.847198</ele>
<time>2012-05-02T16:34:33Z</time>
<desc>lat.=42.454029, lon.=18.540892, Alt.=43.847198m. Speed=3.816000m/h.</desc>
<speed>1.060000</speed>
</trkpt>
<trkpt lat="42.453979" lon="18.540880">
<ele>45.682159</ele>
<time>2012-05-02T16:34:38Z</time>
<desc>lat.=42.453979, lon.=18.540880, Alt.=45.682159m. Speed=2.268000m/h.</desc>
<speed>0.630000</speed>
</trkpt>
<trkpt lat="42.453941" lon="18.540894">
<ele>47.916534</ele>
<time>2012-05-02T16:34:43Z</time>
<desc>lat.=42.453941, lon.=18.540894, Alt.=47.916534m. Speed=0.828000m/h.</desc>
<speed>0.230000</speed>
</trkpt>
<trkpt lat="42.453930" lon="18.540913">
<ele>49.448761</ele>
<time>2012-05-02T16:34:48Z</time>
<desc>lat.=42.453930, lon.=18.540913, Alt.=49.448761m. Speed=0.720000m/h.</desc>
<speed>0.200000</speed>
</trkpt>
<trkpt lat="42.453922" lon="18.540924">
<ele>49.251495</ele>
<time>2012-05-02T16:34:53Z</time>
<desc>lat.=42.453922, lon.=18.540924, Alt.=49.251495m. Speed=0.720000m/h.</desc>
<speed>0.200000</speed>
</trkpt>
<trkpt lat="42.453918" lon="18.540932">
<ele>49.039581</ele>
<time>2012-05-02T16:34:58Z</time>
<desc>lat.=42.453918, lon.=18.540932, Alt.=49.039581m. Speed=0.504000m/h.</desc>
<speed>0.140000</speed>
</trkpt>
<trkpt lat="42.453915" lon="18.540943">
<ele>48.802277</ele>
<time>2012-05-02T16:35:03Z</time>
<desc>lat.=42.453915, lon.=18.540943, Alt.=48.802277m. Speed=0.828000m/h.</desc>
<speed>0.230000</speed>
</trkpt>
<trkpt lat="42.453911" lon="18.540951">
<ele>48.597198</ele>
<time>2012-05-02T16:35:08Z</time>
<desc>lat.=42.453911, lon.=18.540951, Alt.=48.597198m. Speed=0.144000m/h.</desc>
<speed>0.040000</speed>
</trkpt>
<trkpt lat="42.453911" lon="18.540951">
<ele>48.675323</ele>
<time>2012-05-02T16:35:13Z</time>
<desc>lat.=42.453911, lon.=18.540951, Alt.=48.675323m. Speed=0.000000m/h.</desc>
<speed>0.000000</speed>
</trkpt>
<trkpt lat="42.453911" lon="18.540951">
<ele>48.779816</ele>
<time>2012-05-02T16:35:18Z</time>
<desc>lat.=42.453911, lon.=18.540951, Alt.=48.779816m. Speed=0.036000m/h.</desc>
<speed>0.010000</speed>
</trkpt>
<trkpt lat="42.453911" lon="18.540953">
<ele>48.830597</ele>
<time>2012-05-02T16:35:23Z</time>
<desc>lat.=42.453911, lon.=18.540953, Alt.=48.830597m. Speed=0.036000m/h.</desc>
<speed>0.010000</speed>
</trkpt>
<trkpt lat="42.453911" lon="18.540953">
<ele>48.844269</ele>
<time>2012-05-02T16:35:28Z</time>
<desc>lat.=42.453911, lon.=18.540953, Alt.=48.844269m. Speed=0.000000m/h.</desc>
<speed>0.000000</speed>
</trkpt>
<trkpt lat="42.453911" lon="18.540953">
<ele>48.880402</ele>
<time>2012-05-02T16:35:33Z</time>
<desc>lat.=42.453911, lon.=18.540953, Alt.=48.880402m. Speed=0.000000m/h.</desc>
<speed>0.000000</speed>
</trkpt>
<trkpt lat="42.453911" lon="18.540953">
<ele>48.906769</ele>
<time>2012-05-02T16:35:38Z</time>
<desc>lat.=42.453911, lon.=18.540953, Alt.=48.906769m. Speed=0.000000m/h.</desc>
<speed>0.000000</speed>
</trkpt>
<trkpt lat="42.453899" lon="18.540976">
<ele>49.446808</ele>
<time>2012-05-02T16:35:43Z</time>
<desc>lat.=42.453899, lon.=18.540976, Alt.=49.446808m. Speed=7.344000m/h.</desc>
<speed>2.040000</speed>
</trkpt>
<trkpt lat="42.453880" lon="18.541183">
<ele>51.049347</ele>
<time>2012-05-02T16:35:48Z</time>
<desc>lat.=42.453880, lon.=18.541183, Alt.=51.049347m. Speed=18.252001m/h.</desc>
<speed>5.070000</speed>
</trkpt>
<trkpt lat="42.454018" lon="18.541517">
<ele>53.046417</ele>
<time>2012-05-02T16:35:53Z</time>
<desc>lat.=42.454018, lon.=18.541517, Alt.=53.046417m. Speed=25.812000m/h.</desc>
<speed>7.170000</speed>
</trkpt>
<trkpt lat="42.454140" lon="18.542015">
<ele>52.092316</ele>
<time>2012-05-02T16:35:58Z</time>
<desc>lat.=42.454140, lon.=18.542015, Alt.=52.092316m. Speed=30.996000m/h.</desc>
<speed>8.610000</speed>
</trkpt>
<trkpt lat="42.454048" lon="18.542559">
<ele>49.527863</ele>
<time>2012-05-02T16:36:03Z</time>
<desc>lat.=42.454048, lon.=18.542559, Alt.=49.527863m. Speed=30.851999m/h.</desc>
<speed>8.570000</speed>
</trkpt>
<trkpt lat="42.453892" lon="18.543106">
<ele>46.571808</ele>
<time>2012-05-02T16:36:08Z</time>
<desc>lat.=42.453892, lon.=18.543106, Alt.=46.571808m. Speed=35.172001m/h.</desc>
<speed>9.770000</speed>
</trkpt>
<trkpt lat="42.453777" lon="18.543690">
<ele>45.158722</ele>
<time>2012-05-02T16:36:13Z</time>
<desc>lat.=42.453777, lon.=18.543690, Alt.=45.158722m. Speed=31.643999m/h.</desc>
<speed>8.790000</speed>
</trkpt>
<trkpt lat="42.453754" lon="18.544203">
<ele>44.651886</ele>
<time>2012-05-02T16:36:18Z</time>
<desc>lat.=42.453754, lon.=18.544203, Alt.=44.651886m. Speed=31.427999m/h.</desc>
<speed>8.730000</speed>
</trkpt>
<trkpt lat="42.453823" lon="18.544769">
<ele>44.165558</ele>
<time>2012-05-02T16:36:23Z</time>
<desc>lat.=42.453823, lon.=18.544769, Alt.=44.165558m. Speed=31.212000m/h.</desc>
<speed>8.670000</speed>
</trkpt>
<trkpt lat="42.453938" lon="18.545284">
<ele>44.640167</ele>
<time>2012-05-02T16:36:28Z</time>
<desc>lat.=42.453938, lon.=18.545284, Alt.=44.640167m. Speed=26.784000m/h.</desc>
<speed>7.440000</speed>
</trkpt>
<trkpt lat="42.454056" lon="18.545637">
<ele>46.681183</ele>
<time>2012-05-02T16:36:33Z</time>
<desc>lat.=42.454056, lon.=18.545637, Alt.=46.681183m. Speed=16.632000m/h.</desc>
<speed>4.620000</speed>
</trkpt>
<trkpt lat="42.454102" lon="18.545824">
<ele>43.251495</ele>
<time>2012-05-02T16:36:38Z</time>
<desc>lat.=42.454102, lon.=18.545824, Alt.=43.251495m. Speed=7.596000m/h.</desc>
<speed>2.110000</speed>
</trkpt>
<trkpt lat="42.454151" lon="18.545998">
<ele>42.162628</ele>
<time>2012-05-02T16:36:43Z</time>
<desc>lat.=42.454151, lon.=18.545998, Alt.=42.162628m. Speed=6.588000m/h.</desc>
<speed>1.830000</speed>
</trkpt>
<trkpt lat="42.454166" lon="18.546072">
<ele>43.092316</ele>
<time>2012-05-02T16:36:48Z</time>
<desc>lat.=42.454166, lon.=18.546072, Alt.=43.092316m. Speed=0.072000m/h.</desc>
<speed>0.020000</speed>
</trkpt>
<trkpt lat="42.454166" lon="18.546072">
<ele>41.809113</ele>
<time>2012-05-02T16:36:53Z</time>
<desc>lat.=42.454166, lon.=18.546072, Alt.=41.809113m. Speed=0.108000m/h.</desc>
<speed>0.030000</speed>
</trkpt>
<trkpt lat="42.454166" lon="18.546072">
<ele>41.281769</ele>
<time>2012-05-02T16:36:58Z</time>
<desc>lat.=42.454166, lon.=18.546072, Alt.=41.281769m. Speed=0.000000m/h.</desc>
<speed>0.000000</speed>
</trkpt>
<trkpt lat="42.454166" lon="18.546072">
<ele>41.193878</ele>
<time>2012-05-02T16:37:03Z</time>
<desc>lat.=42.454166, lon.=18.546072, Alt.=41.193878m. Speed=0.000000m/h.</desc>
<speed>0.000000</speed>
</trkpt>
<trkpt lat="42.454166" lon="18.546072">
<ele>41.250519</ele>
<time>2012-05-02T16:37:08Z</time>
<desc>lat.=42.454166, lon.=18.546072, Alt.=41.250519m. Speed=0.000000m/h.</desc>
<speed>0.000000</speed>
</trkpt>
<trkpt lat="42.454166" lon="18.546072">
<ele>41.266144</ele>
<time>2012-05-02T16:37:13Z</time>
<desc>lat.=42.454166, lon.=18.546072, Alt.=41.266144m. Speed=0.000000m/h.</desc>
<speed>0.000000</speed>
</trkpt>
<trkpt lat="42.454170" lon="18.546082">
<ele>41.344269</ele>
<time>2012-05-02T16:37:18Z</time>
<desc>lat.=42.454170, lon.=18.546082, Alt.=41.344269m. Speed=5.328000m/h.</desc>
<speed>1.480000</speed>
</trkpt>
<trkpt lat="42.454277" lon="18.546274">
<ele>43.042511</ele>
<time>2012-05-02T16:37:23Z</time>
<desc>lat.=42.454277, lon.=18.546274, Alt.=43.042511m. Speed=20.195999m/h.</desc>
<speed>5.610000</speed>
</trkpt>
<trkpt lat="42.454433" lon="18.546675">
<ele>42.946808</ele>
<time>2012-05-02T16:37:28Z</time>
<desc>lat.=42.454433, lon.=18.546675, Alt.=42.946808m. Speed=31.068001m/h.</desc>
<speed>8.630000</speed>
</trkpt>
<trkpt lat="42.454636" lon="18.547199">
<ele>41.614777</ele>
<time>2012-05-02T16:37:33Z</time>
<desc>lat.=42.454636, lon.=18.547199, Alt.=41.614777m. Speed=37.116001m/h.</desc>
<speed>10.310000</speed>
</trkpt>
<trkpt lat="42.454849" lon="18.547792">
<ele>37.917511</ele>
<time>2012-05-02T16:37:38Z</time>
<desc>lat.=42.454849, lon.=18.547792, Alt.=37.917511m. Speed=38.520000m/h.</desc>
<speed>10.700000</speed>
</trkpt>
<trkpt lat="42.454937" lon="18.548452">
<ele>35.174347</ele>
<time>2012-05-02T16:37:43Z</time>
<desc>lat.=42.454937, lon.=18.548452, Alt.=35.174347m. Speed=38.375999m/h.</desc>
<speed>10.660000</speed>
</trkpt>
<trkpt lat="42.454971" lon="18.549097">
<ele>32.612823</ele>
<time>2012-05-02T16:37:48Z</time>
<desc>lat.=42.454971, lon.=18.549097, Alt.=32.612823m. Speed=36.540001m/h.</desc>
<speed>10.150000</speed>
</trkpt>
<trkpt lat="42.455025" lon="18.549673">
<ele>30.356216</ele>
<time>2012-05-02T16:37:53Z</time>
<desc>lat.=42.455025, lon.=18.549673, Alt.=30.356216m. Speed=32.616001m/h.</desc>
<speed>9.060000</speed>
</trkpt>
<trkpt lat="42.455181" lon="18.550169">
<ele>27.063736</ele>
<time>2012-05-02T16:37:58Z</time>
<desc>lat.=42.455181, lon.=18.550169, Alt.=27.063736m. Speed=32.796001m/h.</desc>
<speed>9.110000</speed>
</trkpt>
<trkpt lat="42.455425" lon="18.550699">
<ele>23.788345</ele>
<time>2012-05-02T16:38:03Z</time>
<desc>lat.=42.455425, lon.=18.550699, Alt.=23.788345m. Speed=37.944000m/h.</desc>
<speed>10.540000</speed>
</trkpt>
<trkpt lat="42.455589" lon="18.551334">
<ele>20.806900</ele>
<time>2012-05-02T16:38:08Z</time>
<desc>lat.=42.455589, lon.=18.551334, Alt.=20.806900m. Speed=37.259998m/h.</desc>
<speed>10.350000</speed>
</trkpt>
<trkpt lat="42.455563" lon="18.552029">
<ele>17.943130</ele>
<time>2012-05-02T16:38:13Z</time>
<desc>lat.=42.455563, lon.=18.552029, Alt.=17.943130m. Speed=42.299999m/h.</desc>
<speed>11.750000</speed>
</trkpt>
<trkpt lat="42.455379" lon="18.552677">
<ele>14.032845</ele>
<time>2012-05-02T16:38:18Z</time>
<desc>lat.=42.455379, lon.=18.552677, Alt.=14.032845m. Speed=39.060001m/h.</desc>
<speed>10.850000</speed>
</trkpt>
<trkpt lat="42.455151" lon="18.553293">
<ele>10.220100</ele>
<time>2012-05-02T16:38:23Z</time>
<desc>lat.=42.455151, lon.=18.553293, Alt.=10.220100m. Speed=40.248001m/h.</desc>
<speed>11.180000</speed>
</trkpt>
<trkpt lat="42.454899" lon="18.553907">
<ele>5.958805</ele>
<time>2012-05-02T16:38:28Z</time>
<desc>lat.=42.454899, lon.=18.553907, Alt.=5.958805m. Speed=38.700001m/h.</desc>
<speed>10.750000</speed>
</trkpt>
<trkpt lat="42.454716" lon="18.554617">
<ele>1.180924</ele>
<time>2012-05-02T16:38:33Z</time>
<desc>lat.=42.454716, lon.=18.554617, Alt.=1.180924m. Speed=41.543999m/h.</desc>
<speed>11.540000</speed>
</trkpt>
<trkpt lat="42.454613" lon="18.555302">
<ele>-3.206636</ele>
<time>2012-05-02T16:38:38Z</time>
<desc>lat.=42.454613, lon.=18.555302, Alt.=-3.206636m. Speed=35.568001m/h.</desc>
<speed>9.880000</speed>
</trkpt>
<trkpt lat="42.454559" lon="18.555727">
<ele>-8.264534</ele>
<time>2012-05-02T16:38:43Z</time>
<desc>lat.=42.454559, lon.=18.555727, Alt.=-8.264534m. Speed=18.396000m/h.</desc>
<speed>5.110000</speed>
</trkpt>
<trkpt lat="42.454506" lon="18.556080">
<ele>-14.727180</ele>
<time>2012-05-02T16:38:48Z</time>
<desc>lat.=42.454506, lon.=18.556080, Alt.=-14.727180m. Speed=19.691999m/h.</desc>
<speed>5.470000</speed>
</trkpt>
<trkpt lat="42.454624" lon="18.556517">
<ele>-13.899544</ele>
<time>2012-05-02T16:38:53Z</time>
<desc>lat.=42.454624, lon.=18.556517, Alt.=-13.899544m. Speed=20.700001m/h.</desc>
<speed>5.750000</speed>
</trkpt>
<trkpt lat="42.454739" lon="18.556896">
<ele>-9.364388</ele>
<time>2012-05-02T16:38:58Z</time>
<desc>lat.=42.454739, lon.=18.556896, Alt.=-9.364388m. Speed=19.403999m/h.</desc>
<speed>5.390000</speed>
</trkpt>
<trkpt lat="42.454823" lon="18.557255">
<ele>-7.497868</ele>
<time>2012-05-02T16:39:03Z</time>
<desc>lat.=42.454823, lon.=18.557255, Alt.=-7.497868m. Speed=18.792000m/h.</desc>
<speed>5.220000</speed>
</trkpt>
<trkpt lat="42.454906" lon="18.557587">
<ele>-5.171452</ele>
<time>2012-05-02T16:39:08Z</time>
<desc>lat.=42.454906, lon.=18.557587, Alt.=-5.171452m. Speed=20.736000m/h.</desc>
<speed>5.760000</speed>
</trkpt>
<trkpt lat="42.454964" lon="18.557983">
<ele>-4.137638</ele>
<time>2012-05-02T16:39:13Z</time>
<desc>lat.=42.454964, lon.=18.557983, Alt.=-4.137638m. Speed=22.680000m/h.</desc>
<speed>6.300000</speed>
</trkpt>
<trkpt lat="42.454910" lon="18.558352">
<ele>-2.998384</ele>
<time>2012-05-02T16:39:18Z</time>
<desc>lat.=42.454910, lon.=18.558352, Alt.=-2.998384m. Speed=24.480000m/h.</desc>
<speed>6.800000</speed>
</trkpt>
<trkpt lat="42.454609" lon="18.558521">
<ele>-3.736910</ele>
<time>2012-05-02T16:39:23Z</time>
<desc>lat.=42.454609, lon.=18.558521, Alt.=-3.736910m. Speed=27.540001m/h.</desc>
<speed>7.650000</speed>
</trkpt>
<trkpt lat="42.454273" lon="18.558537">
<ele>-3.597689</ele>
<time>2012-05-02T16:39:28Z</time>
<desc>lat.=42.454273, lon.=18.558537, Alt.=-3.597689m. Speed=24.048000m/h.</desc>
<speed>6.680000</speed>
</trkpt>
<trkpt lat="42.453995" lon="18.558544">
<ele>-3.772921</ele>
<time>2012-05-02T16:39:33Z</time>
<desc>lat.=42.453995, lon.=18.558544, Alt.=-3.772921m. Speed=20.268000m/h.</desc>
<speed>5.630000</speed>
</trkpt>
<trkpt lat="42.453743" lon="18.558422">
<ele>-2.583712</ele>
<time>2012-05-02T16:39:38Z</time>
<desc>lat.=42.453743, lon.=18.558422, Alt.=-2.583712m. Speed=17.747999m/h.</desc>
<speed>4.930000</speed>
</trkpt>
<trkpt lat="42.453503" lon="18.558237">
<ele>-2.212374</ele>
<time>2012-05-02T16:39:43Z</time>
<desc>lat.=42.453503, lon.=18.558237, Alt.=-2.212374m. Speed=18.216000m/h.</desc>
<speed>5.060000</speed>
</trkpt>
<trkpt lat="42.453270" lon="18.558071">
<ele>-1.220078</ele>
<time>2012-05-02T16:39:48Z</time>
<desc>lat.=42.453270, lon.=18.558071, Alt.=-1.220078m. Speed=18.216000m/h.</desc>
<speed>5.060000</speed>
</trkpt>
<trkpt lat="42.453098" lon="18.557871">
<ele>-0.370701</ele>
<time>2012-05-02T16:39:53Z</time>
<desc>lat.=42.453098, lon.=18.557871, Alt.=-0.370701m. Speed=17.316000m/h.</desc>
<speed>4.810000</speed>
</trkpt>
<trkpt lat="42.452942" lon="18.557623">
<ele>0.442662</ele>
<time>2012-05-02T16:39:58Z</time>
<desc>lat.=42.452942, lon.=18.557623, Alt.=0.442662m. Speed=18.576000m/h.</desc>
<speed>5.160000</speed>
</trkpt>
<trkpt lat="42.452824" lon="18.557369">
<ele>2.317171</ele>
<time>2012-05-02T16:40:03Z</time>
<desc>lat.=42.452824, lon.=18.557369, Alt.=2.317171m. Speed=18.540001m/h.</desc>
<speed>5.150000</speed>
</trkpt>
<trkpt lat="42.452744" lon="18.557163">
<ele>5.778385</ele>
<time>2012-05-02T16:40:08Z</time>
<desc>lat.=42.452744, lon.=18.557163, Alt.=5.778385m. Speed=14.724000m/h.</desc>
<speed>4.090000</speed>
</trkpt>
<trkpt lat="42.452652" lon="18.556913">
<ele>5.721867</ele>
<time>2012-05-02T16:40:13Z</time>
<desc>lat.=42.452652, lon.=18.556913, Alt.=5.721867m. Speed=18.540001m/h.</desc>
<speed>5.150000</speed>
</trkpt>
<trkpt lat="42.452473" lon="18.556614">
<ele>8.590462</ele>
<time>2012-05-02T16:40:18Z</time>
<desc>lat.=42.452473, lon.=18.556614, Alt.=8.590462m. Speed=17.424000m/h.</desc>
<speed>4.840000</speed>
</trkpt>
<trkpt lat="42.452316" lon="18.556360">
<ele>11.156868</ele>
<time>2012-05-02T16:40:23Z</time>
<desc>lat.=42.452316, lon.=18.556360, Alt.=11.156868m. Speed=21.924000m/h.</desc>
<speed>6.090000</speed>
</trkpt>
<trkpt lat="42.452091" lon="18.556070">
<ele>12.953987</ele>
<time>2012-05-02T16:40:28Z</time>
<desc>lat.=42.452091, lon.=18.556070, Alt.=12.953987m. Speed=23.112000m/h.</desc>
<speed>6.420000</speed>
</trkpt>
<trkpt lat="42.451916" lon="18.555763">
<ele>12.355354</ele>
<time>2012-05-02T16:40:33Z</time>
<desc>lat.=42.451916, lon.=18.555763, Alt.=12.355354m. Speed=21.275999m/h.</desc>
<speed>5.910000</speed>
</trkpt>
<trkpt lat="42.451843" lon="18.555460">
<ele>13.387337</ele>
<time>2012-05-02T16:40:38Z</time>
<desc>lat.=42.451843, lon.=18.555460, Alt.=13.387337m. Speed=12.960000m/h.</desc>
<speed>3.600000</speed>
</trkpt>
<trkpt lat="42.451801" lon="18.555292">
<ele>14.099007</ele>
<time>2012-05-02T16:40:43Z</time>
<desc>lat.=42.451801, lon.=18.555292, Alt.=14.099007m. Speed=2.988000m/h.</desc>
<speed>0.830000</speed>
</trkpt>
<trkpt lat="42.451809" lon="18.555294">
<ele>13.788216</ele>
<time>2012-05-02T16:40:48Z</time>
<desc>lat.=42.451809, lon.=18.555294, Alt.=13.788216m. Speed=0.072000m/h.</desc>
<speed>0.020000</speed>
</trkpt>
<trkpt lat="42.451809" lon="18.555286">
<ele>13.822639</ele>
<time>2012-05-02T16:40:53Z</time>
<desc>lat.=42.451809, lon.=18.555286, Alt.=13.822639m. Speed=2.340000m/h.</desc>
<speed>0.650000</speed>
</trkpt>
<trkpt lat="42.451801" lon="18.555189">
<ele>14.229866</ele>
<time>2012-05-02T16:40:58Z</time>
<desc>lat.=42.451801, lon.=18.555189, Alt.=14.229866m. Speed=9.864000m/h.</desc>
<speed>2.740000</speed>
</trkpt>
<trkpt lat="42.451828" lon="18.554935">
<ele>15.281136</ele>
<time>2012-05-02T16:41:03Z</time>
<desc>lat.=42.451828, lon.=18.554935, Alt.=15.281136m. Speed=16.667999m/h.</desc>
<speed>4.630000</speed>
</trkpt>
<trkpt lat="42.451813" lon="18.554647">
<ele>17.274185</ele>
<time>2012-05-02T16:41:08Z</time>
<desc>lat.=42.451813, lon.=18.554647, Alt.=17.274185m. Speed=13.392000m/h.</desc>
<speed>3.720000</speed>
</trkpt>
<trkpt lat="42.451828" lon="18.554379">
<ele>19.119400</ele>
<time>2012-05-02T16:41:13Z</time>
<desc>lat.=42.451828, lon.=18.554379, Alt.=19.119400m. Speed=15.624000m/h.</desc>
<speed>4.340000</speed>
</trkpt>
<trkpt lat="42.451752" lon="18.554085">
<ele>19.671646</ele>
<time>2012-05-02T16:41:18Z</time>
<desc>lat.=42.451752, lon.=18.554085, Alt.=19.671646m. Speed=17.208000m/h.</desc>
<speed>4.780000</speed>
</trkpt>
<trkpt lat="42.451706" lon="18.553801">
<ele>20.279556</ele>
<time>2012-05-02T16:41:23Z</time>
<desc>lat.=42.451706, lon.=18.553801, Alt.=20.279556m. Speed=10.980000m/h.</desc>
<speed>3.050000</speed>
</trkpt>
<trkpt lat="42.451683" lon="18.553612">
<ele>21.185806</ele>
<time>2012-05-02T16:41:28Z</time>
<desc>lat.=42.451683, lon.=18.553612, Alt.=21.185806m. Speed=9.684000m/h.</desc>
<speed>2.690000</speed>
</trkpt>
<trkpt lat="42.451683" lon="18.553423">
<ele>25.046158</ele>
<time>2012-05-02T16:41:33Z</time>
<desc>lat.=42.451683, lon.=18.553423, Alt.=25.046158m. Speed=12.528000m/h.</desc>
<speed>3.480000</speed>
</trkpt>
<trkpt lat="42.451599" lon="18.553207">
<ele>27.680923</ele>
<time>2012-05-02T16:41:38Z</time>
<desc>lat.=42.451599, lon.=18.553207, Alt.=27.680923m. Speed=14.004000m/h.</desc>
<speed>3.890000</speed>
</trkpt>
<trkpt lat="42.451580" lon="18.553030">
<ele>29.440201</ele>
<time>2012-05-02T16:41:43Z</time>
<desc>lat.=42.451580, lon.=18.553030, Alt.=29.440201m. Speed=7.956000m/h.</desc>
<speed>2.210000</speed>
</trkpt>
<trkpt lat="42.451588" lon="18.552876">
<ele>31.061783</ele>
<time>2012-05-02T16:41:48Z</time>
<desc>lat.=42.451588, lon.=18.552876, Alt.=31.061783m. Speed=6.408000m/h.</desc>
<speed>1.780000</speed>
</trkpt>
<trkpt lat="42.451614" lon="18.552746">
<ele>33.681183</ele>
<time>2012-05-02T16:41:53Z</time>
<desc>lat.=42.451614, lon.=18.552746, Alt.=33.681183m. Speed=4.608000m/h.</desc>
<speed>1.280000</speed>
</trkpt>
<trkpt lat="42.451584" lon="18.552580">
<ele>35.730011</ele>
<time>2012-05-02T16:41:58Z</time>
<desc>lat.=42.451584, lon.=18.552580, Alt.=35.730011m. Speed=10.008000m/h.</desc>
<speed>2.780000</speed>
</trkpt>
<trkpt lat="42.451561" lon="18.552401">
<ele>37.356964</ele>
<time>2012-05-02T16:42:03Z</time>
<desc>lat.=42.451561, lon.=18.552401, Alt.=37.356964m. Speed=8.208000m/h.</desc>
<speed>2.280000</speed>
</trkpt>
<trkpt lat="42.451534" lon="18.552214">
<ele>40.386261</ele>
<time>2012-05-02T16:42:08Z</time>
<desc>lat.=42.451534, lon.=18.552214, Alt.=40.386261m. Speed=9.936000m/h.</desc>
<speed>2.760000</speed>
</trkpt>
<trkpt lat="42.451523" lon="18.552130">
<ele>43.449738</ele>
<time>2012-05-02T16:42:13Z</time>
<desc>lat.=42.451523, lon.=18.552130, Alt.=43.449738m. Speed=1.260000m/h.</desc>
<speed>0.350000</speed>
</trkpt>
<trkpt lat="42.451523" lon="18.552124">
<ele>45.069855</ele>
<time>2012-05-02T16:42:18Z</time>
<desc>lat.=42.451523, lon.=18.552124, Alt.=45.069855m. Speed=0.432000m/h.</desc>
<speed>0.120000</speed>
</trkpt>
<trkpt lat="42.451515" lon="18.552116">
<ele>45.359894</ele>
<time>2012-05-02T16:42:23Z</time>
<desc>lat.=42.451515, lon.=18.552116, Alt.=45.359894m. Speed=0.720000m/h.</desc>
<speed>0.200000</speed>
</trkpt>
<trkpt lat="42.451500" lon="18.552029">
<ele>47.476105</ele>
<time>2012-05-02T16:42:28Z</time>
<desc>lat.=42.451500, lon.=18.552029, Alt.=47.476105m. Speed=10.692000m/h.</desc>
<speed>2.970000</speed>
</trkpt>
<trkpt lat="42.451542" lon="18.551800">
<ele>45.973175</ele>
<time>2012-05-02T16:42:33Z</time>
<desc>lat.=42.451542, lon.=18.551800, Alt.=45.973175m. Speed=16.559999m/h.</desc>
<speed>4.600000</speed>
</trkpt>
<trkpt lat="42.451561" lon="18.551468">
<ele>48.581573</ele>
<time>2012-05-02T16:42:38Z</time>
<desc>lat.=42.451561, lon.=18.551468, Alt.=48.581573m. Speed=13.896000m/h.</desc>
<speed>3.860000</speed>
</trkpt>
<trkpt lat="42.451553" lon="18.551203">
<ele>48.528839</ele>
<time>2012-05-02T16:42:43Z</time>
<desc>lat.=42.451553, lon.=18.551203, Alt.=48.528839m. Speed=12.384000m/h.</desc>
<speed>3.440000</speed>
</trkpt>
<trkpt lat="42.451565" lon="18.551010">
<ele>48.461456</ele>
<time>2012-05-02T16:42:48Z</time>
<desc>lat.=42.451565, lon.=18.551010, Alt.=48.461456m. Speed=12.672000m/h.</desc>
<speed>3.520000</speed>
</trkpt>
<trkpt lat="42.451633" lon="18.550781">
<ele>48.383331</ele>
<time>2012-05-02T16:42:53Z</time>
<desc>lat.=42.451633, lon.=18.550781, Alt.=48.383331m. Speed=16.344000m/h.</desc>
<speed>4.540000</speed>
</trkpt>
<trkpt lat="42.451664" lon="18.550480">
<ele>47.526886</ele>
<time>2012-05-02T16:42:58Z</time>
<desc>lat.=42.451664, lon.=18.550480, Alt.=47.526886m. Speed=18.108000m/h.</desc>
<speed>5.030000</speed>
</trkpt>
<trkpt lat="42.451653" lon="18.550127">
<ele>48.740753</ele>
<time>2012-05-02T16:43:03Z</time>
<desc>lat.=42.451653, lon.=18.550127, Alt.=48.740753m. Speed=16.524000m/h.</desc>
<speed>4.590000</speed>
</trkpt>
<trkpt lat="42.451672" lon="18.549870">
<ele>49.640167</ele>
<time>2012-05-02T16:43:08Z</time>
<desc>lat.=42.451672, lon.=18.549870, Alt.=49.640167m. Speed=11.520000m/h.</desc>
<speed>3.200000</speed>
</trkpt>
<trkpt lat="42.451668" lon="18.549665">
<ele>49.845245</ele>
<time>2012-05-02T16:43:13Z</time>
<desc>lat.=42.451668, lon.=18.549665, Alt.=49.845245m. Speed=8.352000m/h.</desc>
<speed>2.320000</speed>
</trkpt>
<trkpt lat="42.451714" lon="18.549593">
<ele>52.024933</ele>
<time>2012-05-02T16:43:18Z</time>
<desc>lat.=42.451714, lon.=18.549593, Alt.=52.024933m. Speed=4.248000m/h.</desc>
<speed>1.180000</speed>
</trkpt>
<trkpt lat="42.451736" lon="18.549520">
<ele>53.990753</ele>
<time>2012-05-02T16:43:23Z</time>
<desc>lat.=42.451736, lon.=18.549520, Alt.=53.990753m. Speed=0.036000m/h.</desc>
<speed>0.010000</speed>
</trkpt>
<trkpt lat="42.451740" lon="18.549519">
<ele>53.975128</ele>
<time>2012-05-02T16:43:28Z</time>
<desc>lat.=42.451740, lon.=18.549519, Alt.=53.975128m. Speed=0.108000m/h.</desc>
<speed>0.030000</speed>
</trkpt>
<trkpt lat="42.451691" lon="18.549492">
<ele>54.630402</ele>
<time>2012-05-02T16:43:33Z</time>
<desc>lat.=42.451691, lon.=18.549492, Alt.=54.630402m. Speed=4.284000m/h.</desc>
<speed>1.190000</speed>
</trkpt>
<trkpt lat="42.451599" lon="18.549406">
<ele>54.666534</ele>
<time>2012-05-02T16:43:38Z</time>
<desc>lat.=42.451599, lon.=18.549406, Alt.=54.666534m. Speed=9.360000m/h.</desc>
<speed>2.600000</speed>
</trkpt>
<trkpt lat="42.451477" lon="18.549337">
<ele>54.480011</ele>
<time>2012-05-02T16:43:43Z</time>
<desc>lat.=42.451477, lon.=18.549337, Alt.=54.480011m. Speed=11.988000m/h.</desc>
<speed>3.330000</speed>
</trkpt>
<trkpt lat="42.451370" lon="18.549255">
<ele>52.397003</ele>
<time>2012-05-02T16:43:48Z</time>
<desc>lat.=42.451370, lon.=18.549255, Alt.=52.397003m. Speed=9.360000m/h.</desc>
<speed>2.600000</speed>
</trkpt>
<trkpt lat="42.451347" lon="18.549135">
<ele>50.496613</ele>
<time>2012-05-02T16:43:53Z</time>
<desc>lat.=42.451347, lon.=18.549135, Alt.=50.496613m. Speed=0.216000m/h.</desc>
<speed>0.060000</speed>
</trkpt>
<trkpt lat="42.451347" lon="18.549139">
<ele>50.212433</ele>
<time>2012-05-02T16:43:58Z</time>
<desc>lat.=42.451347, lon.=18.549139, Alt.=50.212433m. Speed=0.036000m/h.</desc>
<speed>0.010000</speed>
</trkpt>
<trkpt lat="42.451366" lon="18.549088">
<ele>50.189972</ele>
<time>2012-05-02T16:44:03Z</time>
<desc>lat.=42.451366, lon.=18.549088, Alt.=50.189972m. Speed=6.768000m/h.</desc>
<speed>1.880000</speed>
</trkpt>
<trkpt lat="42.451466" lon="18.548914">
<ele>50.953644</ele>
<time>2012-05-02T16:44:08Z</time>
<desc>lat.=42.451466, lon.=18.548914, Alt.=50.953644m. Speed=15.804000m/h.</desc>
<speed>4.390000</speed>
</trkpt>
<trkpt lat="42.451542" lon="18.548733">
<ele>50.696808</ele>
<time>2012-05-02T16:44:13Z</time>
<desc>lat.=42.451542, lon.=18.548733, Alt.=50.696808m. Speed=3.744000m/h.</desc>
<speed>1.040000</speed>
</trkpt>
<trkpt lat="42.451492" lon="18.548746">
<ele>51.711456</ele>
<time>2012-05-02T16:44:18Z</time>
<desc>lat.=42.451492, lon.=18.548746, Alt.=51.711456m. Speed=11.268000m/h.</desc>
<speed>3.130000</speed>
</trkpt>
<trkpt lat="42.451366" lon="18.548929">
<ele>51.625519</ele>
<time>2012-05-02T16:44:23Z</time>
<desc>lat.=42.451366, lon.=18.548929, Alt.=51.625519m. Speed=14.148000m/h.</desc>
<speed>3.930000</speed>
</trkpt>
<trkpt lat="42.451298" lon="18.549192">
<ele>51.843292</ele>
<time>2012-05-02T16:44:28Z</time>
<desc>lat.=42.451298, lon.=18.549192, Alt.=51.843292m. Speed=12.528000m/h.</desc>
<speed>3.480000</speed>
</trkpt>
<trkpt lat="42.451363" lon="18.549274">
<ele>52.067902</ele>
<time>2012-05-02T16:44:33Z</time>
<desc>lat.=42.451363, lon.=18.549274, Alt.=52.067902m. Speed=5.508000m/h.</desc>
<speed>1.530000</speed>
</trkpt>
<trkpt lat="42.451454" lon="18.549305">
<ele>52.746613</ele>
<time>2012-05-02T16:44:38Z</time>
<desc>lat.=42.451454, lon.=18.549305, Alt.=52.746613m. Speed=6.084000m/h.</desc>
<speed>1.690000</speed>
</trkpt>
<trkpt lat="42.451546" lon="18.549356">
<ele>54.147003</ele>
<time>2012-05-02T16:44:43Z</time>
<desc>lat.=42.451546, lon.=18.549356, Alt.=54.147003m. Speed=5.616000m/h.</desc>
<speed>1.560000</speed>
</trkpt>
<trkpt lat="42.451630" lon="18.549423">
<ele>55.674347</ele>
<time>2012-05-02T16:44:48Z</time>
<desc>lat.=42.451630, lon.=18.549423, Alt.=55.674347m. Speed=7.344000m/h.</desc>
<speed>2.040000</speed>
</trkpt>
<trkpt lat="42.451675" lon="18.549467">
<ele>57.095245</ele>
<time>2012-05-02T16:44:53Z</time>
<desc>lat.=42.451675, lon.=18.549467, Alt.=57.095245m. Speed=2.124000m/h.</desc>
<speed>0.590000</speed>
</trkpt>
<trkpt lat="42.451721" lon="18.549494">
<ele>58.002472</ele>
<time>2012-05-02T16:44:58Z</time>
<desc>lat.=42.451721, lon.=18.549494, Alt.=58.002472m. Speed=9.432000m/h.</desc>
<speed>2.620000</speed>
</trkpt>
<trkpt lat="42.451817" lon="18.549383">
<ele>59.410675</ele>
<time>2012-05-02T16:45:03Z</time>
<desc>lat.=42.451817, lon.=18.549383, Alt.=59.410675m. Speed=15.120000m/h.</desc>
<speed>4.200000</speed>
</trkpt>
<trkpt lat="42.451920" lon="18.549162">
<ele>59.836456</ele>
<time>2012-05-02T16:45:08Z</time>
<desc>lat.=42.451920, lon.=18.549162, Alt.=59.836456m. Speed=12.888000m/h.</desc>
<speed>3.580000</speed>
</trkpt>
<trkpt lat="42.451939" lon="18.548939">
<ele>59.190948</ele>
<time>2012-05-02T16:45:13Z</time>
<desc>lat.=42.451939, lon.=18.548939, Alt.=59.190948m. Speed=13.932000m/h.</desc>
<speed>3.870000</speed>
</trkpt>
<trkpt lat="42.451942" lon="18.548702">
<ele>60.356964</ele>
<time>2012-05-02T16:45:18Z</time>
<desc>lat.=42.451942, lon.=18.548702, Alt.=60.356964m. Speed=12.600000m/h.</desc>
<speed>3.500000</speed>
</trkpt>
<trkpt lat="42.451977" lon="18.548532">
<ele>62.474152</ele>
<time>2012-05-02T16:45:23Z</time>
<desc>lat.=42.451977, lon.=18.548532, Alt.=62.474152m. Speed=11.700000m/h.</desc>
<speed>3.250000</speed>
</trkpt>
<trkpt lat="42.452019" lon="18.548269">
<ele>63.496613</ele>
<time>2012-05-02T16:45:28Z</time>
<desc>lat.=42.452019, lon.=18.548269, Alt.=63.496613m. Speed=17.712000m/h.</desc>
<speed>4.920000</speed>
</trkpt>
<trkpt lat="42.452057" lon="18.548040">
<ele>64.987366</ele>
<time>2012-05-02T16:45:33Z</time>
<desc>lat.=42.452057, lon.=18.548040, Alt.=64.987366m. Speed=9.972000m/h.</desc>
<speed>2.770000</speed>
</trkpt>
<trkpt lat="42.452106" lon="18.547882">
<ele>65.362366</ele>
<time>2012-05-02T16:45:38Z</time>
<desc>lat.=42.452106, lon.=18.547882, Alt.=65.362366m. Speed=7.344000m/h.</desc>
<speed>2.040000</speed>
</trkpt>
<trkpt lat="42.452175" lon="18.547764">
<ele>68.575256</ele>
<time>2012-05-02T16:45:43Z</time>
<desc>lat.=42.452175, lon.=18.547764, Alt.=68.575256m. Speed=5.472000m/h.</desc>
<speed>1.520000</speed>
</trkpt>
<trkpt lat="42.452106" lon="18.547764">
<ele>69.704163</ele>
<time>2012-05-02T16:45:48Z</time>
<desc>lat.=42.452106, lon.=18.547764, Alt.=69.704163m. Speed=7.596000m/h.</desc>
<speed>2.110000</speed>
</trkpt>
<trkpt lat="42.452023" lon="18.548021">
<ele>69.442444</ele>
<time>2012-05-02T16:45:53Z</time>
<desc>lat.=42.452023, lon.=18.548021, Alt.=69.442444m. Speed=18.108000m/h.</desc>
<speed>5.030000</speed>
</trkpt>
<trkpt lat="42.451954" lon="18.548365">
<ele>69.387756</ele>
<time>2012-05-02T16:45:58Z</time>
<desc>lat.=42.451954, lon.=18.548365, Alt.=69.387756m. Speed=15.012000m/h.</desc>
<speed>4.170000</speed>
</trkpt>
<trkpt lat="42.451923" lon="18.548349">
<ele>65.356506</ele>
<time>2012-05-02T16:46:03Z</time>
<desc>lat.=42.451923, lon.=18.548349, Alt.=65.356506m. Speed=15.876000m/h.</desc>
<speed>4.410000</speed>
</trkpt>
<trkpt lat="42.451965" lon="18.547911">
<ele>60.500519</ele>
<time>2012-05-02T16:46:08Z</time>
<desc>lat.=42.451965, lon.=18.547911, Alt.=60.500519m. Speed=28.548000m/h.</desc>
<speed>7.930000</speed>
</trkpt>
<trkpt lat="42.451885" lon="18.547495">
<ele>59.433136</ele>
<time>2012-05-02T16:46:13Z</time>
<desc>lat.=42.451885, lon.=18.547495, Alt.=59.433136m. Speed=20.232000m/h.</desc>
<speed>5.620000</speed>
</trkpt>
<trkpt lat="42.451828" lon="18.547157">
<ele>57.268097</ele>
<time>2012-05-02T16:46:18Z</time>
<desc>lat.=42.451828, lon.=18.547157, Alt.=57.268097m. Speed=19.188000m/h.</desc>
<speed>5.330000</speed>
</trkpt>
<trkpt lat="42.451786" lon="18.546911">
<ele>55.070831</ele>
<time>2012-05-02T16:46:23Z</time>
<desc>lat.=42.451786, lon.=18.546911, Alt.=55.070831m. Speed=18.252001m/h.</desc>
<speed>5.070000</speed>
</trkpt>
<trkpt lat="42.451633" lon="18.546608">
<ele>52.929230</ele>
<time>2012-05-02T16:46:28Z</time>
<desc>lat.=42.451633, lon.=18.546608, Alt.=52.929230m. Speed=14.580000m/h.</desc>
<speed>4.050000</speed>
</trkpt>
<trkpt lat="42.451508" lon="18.546452">
<ele>49.820831</ele>
<time>2012-05-02T16:46:33Z</time>
<desc>lat.=42.451508, lon.=18.546452, Alt.=49.820831m. Speed=19.332001m/h.</desc>
<speed>5.370000</speed>
</trkpt>
<trkpt lat="42.451283" lon="18.546434">
<ele>46.332550</ele>
<time>2012-05-02T16:46:38Z</time>
<desc>lat.=42.451283, lon.=18.546434, Alt.=46.332550m. Speed=6.840000m/h.</desc>
<speed>1.900000</speed>
</trkpt>
<trkpt lat="42.451141" lon="18.546394">
<ele>45.761261</ele>
<time>2012-05-02T16:46:43Z</time>
<desc>lat.=42.451141, lon.=18.546394, Alt.=45.761261m. Speed=0.252000m/h.</desc>
<speed>0.070000</speed>
</trkpt>
<trkpt lat="42.451111" lon="18.546383">
<ele>45.657745</ele>
<time>2012-05-02T16:46:48Z</time>
<desc>lat.=42.451111, lon.=18.546383, Alt.=45.657745m. Speed=0.864000m/h.</desc>
<speed>0.240000</speed>
</trkpt>
<trkpt lat="42.451054" lon="18.546452">
<ele>44.901886</ele>
<time>2012-05-02T16:46:53Z</time>
<desc>lat.=42.451054, lon.=18.546452, Alt.=44.901886m. Speed=11.556000m/h.</desc>
<speed>3.210000</speed>
</trkpt>
<trkpt lat="42.450970" lon="18.546684">
<ele>44.576691</ele>
<time>2012-05-02T16:46:58Z</time>
<desc>lat.=42.450970, lon.=18.546684, Alt.=44.576691m. Speed=7.380000m/h.</desc>
<speed>2.050000</speed>
</trkpt>
<trkpt lat="42.450924" lon="18.546652">
<ele>42.497589</ele>
<time>2012-05-02T16:47:03Z</time>
<desc>lat.=42.450924, lon.=18.546652, Alt.=42.497589m. Speed=9.180000m/h.</desc>
<speed>2.550000</speed>
</trkpt>
<trkpt lat="42.450909" lon="18.546532">
<ele>42.332550</ele>
<time>2012-05-02T16:47:08Z</time>
<desc>lat.=42.450909, lon.=18.546532, Alt.=42.332550m. Speed=6.156000m/h.</desc>
<speed>1.710000</speed>
</trkpt>
<trkpt lat="42.450924" lon="18.546453">
<ele>44.568878</ele>
<time>2012-05-02T16:47:13Z</time>
<desc>lat.=42.450924, lon.=18.546453, Alt.=44.568878m. Speed=1.980000m/h.</desc>
<speed>0.550000</speed>
</trkpt>
<trkpt lat="42.450932" lon="18.546364">
<ele>45.430206</ele>
<time>2012-05-02T16:47:18Z</time>
<desc>lat.=42.450932, lon.=18.546364, Alt.=45.430206m. Speed=8.640000m/h.</desc>
<speed>2.400000</speed>
</trkpt>
<trkpt lat="42.451019" lon="18.546227">
<ele>45.233917</ele>
<time>2012-05-02T16:47:23Z</time>
<desc>lat.=42.451019, lon.=18.546227, Alt.=45.233917m. Speed=8.352000m/h.</desc>
<speed>2.320000</speed>
</trkpt>
<trkpt lat="42.451027" lon="18.546032">
<ele>45.385284</ele>
<time>2012-05-02T16:47:28Z</time>
<desc>lat.=42.451027, lon.=18.546032, Alt.=45.385284m. Speed=5.220000m/h.</desc>
<speed>1.450000</speed>
</trkpt>
<trkpt lat="42.451050" lon="18.545776">
<ele>44.306183</ele>
<time>2012-05-02T16:47:33Z</time>
<desc>lat.=42.451050, lon.=18.545776, Alt.=44.306183m. Speed=16.955999m/h.</desc>
<speed>4.710000</speed>
</trkpt>
<trkpt lat="42.451077" lon="18.545448">
<ele>45.093292</ele>
<time>2012-05-02T16:47:38Z</time>
<desc>lat.=42.451077, lon.=18.545448, Alt.=45.093292m. Speed=19.799999m/h.</desc>
<speed>5.500000</speed>
</trkpt>
<trkpt lat="42.451077" lon="18.545193">
<ele>46.413605</ele>
<time>2012-05-02T16:47:43Z</time>
<desc>lat.=42.451077, lon.=18.545193, Alt.=46.413605m. Speed=15.444000m/h.</desc>
<speed>4.290000</speed>
</trkpt>
<trkpt lat="42.451141" lon="18.544897">
<ele>47.140167</ele>
<time>2012-05-02T16:47:48Z</time>
<desc>lat.=42.451141, lon.=18.544897, Alt.=47.140167m. Speed=17.568001m/h.</desc>
<speed>4.880000</speed>
</trkpt>
<trkpt lat="42.451210" lon="18.544647">
<ele>46.307159</ele>
<time>2012-05-02T16:47:53Z</time>
<desc>lat.=42.451210, lon.=18.544647, Alt.=46.307159m. Speed=13.392000m/h.</desc>
<speed>3.720000</speed>
</trkpt>
<trkpt lat="42.451256" lon="18.544476">
<ele>45.209503</ele>
<time>2012-05-02T16:47:58Z</time>
<desc>lat.=42.451256, lon.=18.544476, Alt.=45.209503m. Speed=7.308000m/h.</desc>
<speed>2.030000</speed>
</trkpt>
<trkpt lat="42.451332" lon="18.544334">
<ele>43.226105</ele>
<time>2012-05-02T16:48:03Z</time>
<desc>lat.=42.451332, lon.=18.544334, Alt.=43.226105m. Speed=13.104000m/h.</desc>
<speed>3.640000</speed>
</trkpt>
<trkpt lat="42.451439" lon="18.544092">
<ele>41.730011</ele>
<time>2012-05-02T16:48:08Z</time>
<desc>lat.=42.451439, lon.=18.544092, Alt.=41.730011m. Speed=15.588000m/h.</desc>
<speed>4.330000</speed>
</trkpt>
<trkpt lat="42.451534" lon="18.543993">
<ele>43.084503</ele>
<time>2012-05-02T16:48:13Z</time>
<desc>lat.=42.451534, lon.=18.543993, Alt.=43.084503m. Speed=7.956000m/h.</desc>
<speed>2.210000</speed>
</trkpt>
<trkpt lat="42.451599" lon="18.543896">
<ele>45.108917</ele>
<time>2012-05-02T16:48:18Z</time>
<desc>lat.=42.451599, lon.=18.543896, Alt.=45.108917m. Speed=8.460000m/h.</desc>
<speed>2.350000</speed>
</trkpt>
<trkpt lat="42.451653" lon="18.543737">
<ele>48.430206</ele>
<time>2012-05-02T16:48:23Z</time>
<desc>lat.=42.451653, lon.=18.543737, Alt.=48.430206m. Speed=8.244000m/h.</desc>
<speed>2.290000</speed>
</trkpt>
<trkpt lat="42.451660" lon="18.543545">
<ele>51.769073</ele>
<time>2012-05-02T16:48:28Z</time>
<desc>lat.=42.451660, lon.=18.543545, Alt.=51.769073m. Speed=10.800000m/h.</desc>
<speed>3.000000</speed>
</trkpt>
<trkpt lat="42.451752" lon="18.543379">
<ele>51.895050</ele>
<time>2012-05-02T16:48:33Z</time>
<desc>lat.=42.451752, lon.=18.543379, Alt.=51.895050m. Speed=10.692000m/h.</desc>
<speed>2.970000</speed>
</trkpt>
<trkpt lat="42.451839" lon="18.543253">
<ele>52.967316</ele>
<time>2012-05-02T16:48:38Z</time>
<desc>lat.=42.451839, lon.=18.543253, Alt.=52.967316m. Speed=4.932000m/h.</desc>
<speed>1.370000</speed>
</trkpt>
<trkpt lat="42.451935" lon="18.543139">
<ele>53.332550</ele>
<time>2012-05-02T16:48:43Z</time>
<desc>lat.=42.451935, lon.=18.543139, Alt.=53.332550m. Speed=8.820000m/h.</desc>
<speed>2.450000</speed>
</trkpt>
<trkpt lat="42.452003" lon="18.543015">
<ele>54.811066</ele>
<time>2012-05-02T16:48:48Z</time>
<desc>lat.=42.452003, lon.=18.543015, Alt.=54.811066m. Speed=8.424000m/h.</desc>
<speed>2.340000</speed>
</trkpt>
<trkpt lat="42.452057" lon="18.542883">
<ele>56.258331</ele>
<time>2012-05-02T16:48:53Z</time>
<desc>lat.=42.452057, lon.=18.542883, Alt.=56.258331m. Speed=8.280000m/h.</desc>
<speed>2.300000</speed>
</trkpt>
<trkpt lat="42.452122" lon="18.542786">
<ele>55.640167</ele>
<time>2012-05-02T16:48:58Z</time>
<desc>lat.=42.452122, lon.=18.542786, Alt.=55.640167m. Speed=6.624000m/h.</desc>
<speed>1.840000</speed>
</trkpt>
<trkpt lat="42.452156" lon="18.542707">
<ele>53.574738</ele>
<time>2012-05-02T16:49:03Z</time>
<desc>lat.=42.452156, lon.=18.542707, Alt.=53.574738m. Speed=7.956000m/h.</desc>
<speed>2.210000</speed>
</trkpt>
<trkpt lat="42.452187" lon="18.542557">
<ele>53.778839</ele>
<time>2012-05-02T16:49:08Z</time>
<desc>lat.=42.452187, lon.=18.542557, Alt.=53.778839m. Speed=9.612000m/h.</desc>
<speed>2.670000</speed>
</trkpt>
<trkpt lat="42.452217" lon="18.542372">
<ele>55.835480</ele>
<time>2012-05-02T16:49:13Z</time>
<desc>lat.=42.452217, lon.=18.542372, Alt.=55.835480m. Speed=11.880000m/h.</desc>
<speed>3.300000</speed>
</trkpt>
<trkpt lat="42.452236" lon="18.542173">
<ele>59.487823</ele>
<time>2012-05-02T16:49:18Z</time>
<desc>lat.=42.452236, lon.=18.542173, Alt.=59.487823m. Speed=9.864000m/h.</desc>
<speed>2.740000</speed>
</trkpt>
<trkpt lat="42.452320" lon="18.541939">
<ele>59.125519</ele>
<time>2012-05-02T16:49:23Z</time>
<desc>lat.=42.452320, lon.=18.541939, Alt.=59.125519m. Speed=15.120000m/h.</desc>
<speed>4.200000</speed>
</trkpt>
<trkpt lat="42.452480" lon="18.541765">
<ele>56.252472</ele>
<time>2012-05-02T16:49:28Z</time>
<desc>lat.=42.452480, lon.=18.541765, Alt.=56.252472m. Speed=13.788000m/h.</desc>
<speed>3.830000</speed>
</trkpt>
<trkpt lat="42.452530" lon="18.541624">
<ele>63.063019</ele>
<time>2012-05-02T16:49:33Z</time>
<desc>lat.=42.452530, lon.=18.541624, Alt.=63.063019m. Speed=8.136000m/h.</desc>
<speed>2.260000</speed>
</trkpt>
<trkpt lat="42.452545" lon="18.541500">
<ele>67.708069</ele>
<time>2012-05-02T16:49:38Z</time>
<desc>lat.=42.452545, lon.=18.541500, Alt.=67.708069m. Speed=2.520000m/h.</desc>
<speed>0.700000</speed>
</trkpt>
<trkpt lat="42.452538" lon="18.541483">
<ele>70.657288</ele>
<time>2012-05-02T16:49:43Z</time>
<desc>lat.=42.452538, lon.=18.541483, Alt.=70.657288m. Speed=0.612000m/h.</desc>
<speed>0.170000</speed>
</trkpt>
<trkpt lat="42.452538" lon="18.541483">
<ele>71.710022</ele>
<time>2012-05-02T16:49:48Z</time>
<desc>lat.=42.452538, lon.=18.541483, Alt.=71.710022m. Speed=0.252000m/h.</desc>
<speed>0.070000</speed>
</trkpt>
<trkpt lat="42.452549" lon="18.541494">
<ele>72.276428</ele>
<time>2012-05-02T16:49:53Z</time>
<desc>lat.=42.452549, lon.=18.541494, Alt.=72.276428m. Speed=2.304000m/h.</desc>
<speed>0.640000</speed>
</trkpt>
<trkpt lat="42.452564" lon="18.541519">
<ele>72.848694</ele>
<time>2012-05-02T16:49:58Z</time>
<desc>lat.=42.452564, lon.=18.541519, Alt.=72.848694m. Speed=2.304000m/h.</desc>
<speed>0.640000</speed>
</trkpt>
<trkpt lat="42.452583" lon="18.541533">
<ele>73.241272</ele>
<time>2012-05-02T16:50:03Z</time>
<desc>lat.=42.452583, lon.=18.541533, Alt.=73.241272m. Speed=1.764000m/h.</desc>
<speed>0.490000</speed>
</trkpt>
<trkpt lat="42.452602" lon="18.541531">
<ele>73.608459</ele>
<time>2012-05-02T16:50:08Z</time>
<desc>lat.=42.452602, lon.=18.541531, Alt.=73.608459m. Speed=0.936000m/h.</desc>
<speed>0.260000</speed>
</trkpt>
<trkpt lat="42.452614" lon="18.541527">
<ele>73.985413</ele>
<time>2012-05-02T16:50:13Z</time>
<desc>lat.=42.452614, lon.=18.541527, Alt.=73.985413m. Speed=0.720000m/h.</desc>
<speed>0.200000</speed>
</trkpt>
<trkpt lat="42.452625" lon="18.541525">
<ele>74.262756</ele>
<time>2012-05-02T16:50:18Z</time>
<desc>lat.=42.452625, lon.=18.541525, Alt.=74.262756m. Speed=1.656000m/h.</desc>
<speed>0.460000</speed>
</trkpt>
<trkpt lat="42.452644" lon="18.541527">
<ele>74.491272</ele>
<time>2012-05-02T16:50:23Z</time>
<desc>lat.=42.452644, lon.=18.541527, Alt.=74.491272m. Speed=0.684000m/h.</desc>
<speed>0.190000</speed>
</trkpt>
<trkpt lat="42.452644" lon="18.541521">
<ele>74.600647</ele>
<time>2012-05-02T16:50:28Z</time>
<desc>lat.=42.452644, lon.=18.541521, Alt.=74.600647m. Speed=0.288000m/h.</desc>
<speed>0.080000</speed>
</trkpt>
<trkpt lat="42.452644" lon="18.541517">
<ele>74.610413</ele>
<time>2012-05-02T16:50:33Z</time>
<desc>lat.=42.452644, lon.=18.541517, Alt.=74.610413m. Speed=0.684000m/h.</desc>
<speed>0.190000</speed>
</trkpt>
<trkpt lat="42.452652" lon="18.541506">
<ele>74.596741</ele>
<time>2012-05-02T16:50:38Z</time>
<desc>lat.=42.452652, lon.=18.541506, Alt.=74.596741m. Speed=0.360000m/h.</desc>
<speed>0.100000</speed>
</trkpt>
<trkpt lat="42.452652" lon="18.541506">
<ele>74.592834</ele>
<time>2012-05-02T16:50:43Z</time>
<desc>lat.=42.452652, lon.=18.541506, Alt.=74.592834m. Speed=0.504000m/h.</desc>
<speed>0.140000</speed>
</trkpt>
<trkpt lat="42.452648" lon="18.541510">
<ele>74.469788</ele>
<time>2012-05-02T16:50:48Z</time>
<desc>lat.=42.452648, lon.=18.541510, Alt.=74.469788m. Speed=0.540000m/h.</desc>
<speed>0.150000</speed>
</trkpt>
<trkpt lat="42.452644" lon="18.541506">
<ele>74.393616</ele>
<time>2012-05-02T16:50:53Z</time>
<desc>lat.=42.452644, lon.=18.541506, Alt.=74.393616m. Speed=0.576000m/h.</desc>
<speed>0.160000</speed>
</trkpt>
</trkseg>
</trk>
</gpx>